<?xml version="1.0" encoding="UTF-8" standalone="no" ?>
<gpx xmlns="http://www.topografix.com/GPX/1/1" xmlns:xsi="http://www.w3.org/2001/XMLSchema-instance" xsi:schemaLocation="http://www.topografix.com/GPX/1/1 http://www.topografix.com/GPX/1/1/gpx.xsd" version="1.1" creator="VisuGPX - https://www.visugpx.com">
  <metadata>
    <name>Parcours VTT électrique - La Bourboule</name>
    <desc><![CDATA[Parcours roulant entre La Bourboule et La Tour d'Auvergne avec de beaux points de vue sur La Bourboule, et le lac de la Tour d'Auvergne.

Parcours avec un balisage orange et logo VTT électrique.

2 points de vue télécabine, foirail Natzy, cascade, lac église st pardoux]]></desc>
  </metadata>
  <trk>
    <name><![CDATA[Parcours VTT électrique - La Bourboule]]></name>
    <desc><![CDATA[Parcours VTT électrique - La Bourboule]]></desc>
    <trkseg>
      <trkpt lat="45.58542" lon="2.73931">
        <ele>865</ele>
        <time>2022-07-30T20:49:43.000Z</time>
      </trkpt>
      <trkpt lat="45.58536" lon="2.73931">
        <ele>865</ele>
        <time>2022-07-30T20:49:44.000Z</time>
      </trkpt>
      <trkpt lat="45.5853" lon="2.73931">
        <ele>865</ele>
        <time>2022-07-30T20:49:45.000Z</time>
      </trkpt>
      <trkpt lat="45.58525" lon="2.73933">
        <ele>865</ele>
        <time>2022-07-30T20:49:46.000Z</time>
      </trkpt>
      <trkpt lat="45.58521" lon="2.73934">
        <ele>865</ele>
        <time>2022-07-30T20:49:47.000Z</time>
      </trkpt>
      <trkpt lat="45.58517" lon="2.73936">
        <ele>865</ele>
        <time>2022-07-30T20:49:48.000Z</time>
      </trkpt>
      <trkpt lat="45.58512" lon="2.73938">
        <ele>865</ele>
        <time>2022-07-30T20:49:49.000Z</time>
      </trkpt>
      <trkpt lat="45.58508" lon="2.7394">
        <ele>865</ele>
        <time>2022-07-30T20:49:50.000Z</time>
      </trkpt>
      <trkpt lat="45.58504" lon="2.73942">
        <ele>865</ele>
        <time>2022-07-30T20:49:51.000Z</time>
      </trkpt>
      <trkpt lat="45.58499" lon="2.73944">
        <ele>865</ele>
        <time>2022-07-30T20:49:52.000Z</time>
      </trkpt>
      <trkpt lat="45.58495" lon="2.73946">
        <ele>865</ele>
        <time>2022-07-30T20:49:53.000Z</time>
      </trkpt>
      <trkpt lat="45.58491" lon="2.73948">
        <ele>865</ele>
        <time>2022-07-30T20:49:54.000Z</time>
      </trkpt>
      <trkpt lat="45.58486" lon="2.7395">
        <ele>865</ele>
        <time>2022-07-30T20:49:55.000Z</time>
      </trkpt>
      <trkpt lat="45.58482" lon="2.73952">
        <ele>865</ele>
        <time>2022-07-30T20:49:56.000Z</time>
      </trkpt>
      <trkpt lat="45.58478" lon="2.73954">
        <ele>865</ele>
        <time>2022-07-30T20:49:57.000Z</time>
      </trkpt>
      <trkpt lat="45.58474" lon="2.73956">
        <ele>865</ele>
        <time>2022-07-30T20:49:58.000Z</time>
      </trkpt>
      <trkpt lat="45.58469" lon="2.73958">
        <ele>865</ele>
        <time>2022-07-30T20:49:59.000Z</time>
      </trkpt>
      <trkpt lat="45.58465" lon="2.7396">
        <ele>873</ele>
        <time>2022-07-30T20:50:00.000Z</time>
      </trkpt>
      <trkpt lat="45.58461" lon="2.73962">
        <ele>873</ele>
        <time>2022-07-30T20:50:01.000Z</time>
      </trkpt>
      <trkpt lat="45.58456" lon="2.73964">
        <ele>873</ele>
        <time>2022-07-30T20:50:02.000Z</time>
      </trkpt>
      <trkpt lat="45.58451" lon="2.73962">
        <ele>873</ele>
        <time>2022-07-30T20:50:03.000Z</time>
      </trkpt>
      <trkpt lat="45.58446" lon="2.73959">
        <ele>873</ele>
        <time>2022-07-30T20:50:04.000Z</time>
      </trkpt>
      <trkpt lat="45.58444" lon="2.73958">
        <ele>873</ele>
        <time>2022-07-30T20:50:05.000Z</time>
      </trkpt>
      <trkpt lat="45.58443" lon="2.73959">
        <ele>873</ele>
        <time>2022-07-30T20:50:06.000Z</time>
      </trkpt>
      <trkpt lat="45.58437" lon="2.73966">
        <ele>873</ele>
        <time>2022-07-30T20:50:07.000Z</time>
      </trkpt>
      <trkpt lat="45.58434" lon="2.73974">
        <ele>873</ele>
        <time>2022-07-30T20:50:08.000Z</time>
      </trkpt>
      <trkpt lat="45.58431" lon="2.73982">
        <ele>873</ele>
        <time>2022-07-30T20:50:09.000Z</time>
      </trkpt>
      <trkpt lat="45.58431" lon="2.73983">
        <ele>873</ele>
        <time>2022-07-30T20:50:10.000Z</time>
      </trkpt>
      <trkpt lat="45.58429" lon="2.7399">
        <ele>873</ele>
        <time>2022-07-30T20:50:11.000Z</time>
      </trkpt>
      <trkpt lat="45.58428" lon="2.73997">
        <ele>873</ele>
        <time>2022-07-30T20:50:12.000Z</time>
      </trkpt>
      <trkpt lat="45.58426" lon="2.74004">
        <ele>873</ele>
        <time>2022-07-30T20:50:13.000Z</time>
      </trkpt>
      <trkpt lat="45.58425" lon="2.74011">
        <ele>873</ele>
        <time>2022-07-30T20:50:14.000Z</time>
      </trkpt>
      <trkpt lat="45.58424" lon="2.74011">
        <ele>869</ele>
        <time>2022-07-30T20:50:15.000Z</time>
      </trkpt>
      <trkpt lat="45.58424" lon="2.74013">
        <ele>869</ele>
        <time>2022-07-30T20:50:16.000Z</time>
      </trkpt>
      <trkpt lat="45.58429" lon="2.74015">
        <ele>869</ele>
        <time>2022-07-30T20:50:17.000Z</time>
      </trkpt>
      <trkpt lat="45.58435" lon="2.74017">
        <ele>869</ele>
        <time>2022-07-30T20:50:18.000Z</time>
      </trkpt>
      <trkpt lat="45.58441" lon="2.74018">
        <ele>869</ele>
        <time>2022-07-30T20:50:19.000Z</time>
      </trkpt>
      <trkpt lat="45.58441" lon="2.74018">
        <ele>869</ele>
        <time>2022-07-30T20:50:20.000Z</time>
      </trkpt>
      <trkpt lat="45.58441" lon="2.74018">
        <ele>869</ele>
        <time>2022-07-30T20:50:21.000Z</time>
      </trkpt>
      <trkpt lat="45.58441" lon="2.74026">
        <ele>869</ele>
        <time>2022-07-30T20:50:22.000Z</time>
      </trkpt>
      <trkpt lat="45.58442" lon="2.74032">
        <ele>869</ele>
        <time>2022-07-30T20:50:23.000Z</time>
      </trkpt>
      <trkpt lat="45.58444" lon="2.74039">
        <ele>869</ele>
        <time>2022-07-30T20:50:24.000Z</time>
      </trkpt>
      <trkpt lat="45.58445" lon="2.74044">
        <ele>869</ele>
        <time>2022-07-30T20:50:25.000Z</time>
      </trkpt>
      <trkpt lat="45.58446" lon="2.74046">
        <ele>869</ele>
        <time>2022-07-30T20:50:26.000Z</time>
      </trkpt>
      <trkpt lat="45.58448" lon="2.74053">
        <ele>869</ele>
        <time>2022-07-30T20:50:27.000Z</time>
      </trkpt>
      <trkpt lat="45.5845" lon="2.74059">
        <ele>869</ele>
        <time>2022-07-30T20:50:28.000Z</time>
      </trkpt>
      <trkpt lat="45.58453" lon="2.74066">
        <ele>869</ele>
        <time>2022-07-30T20:50:29.000Z</time>
      </trkpt>
      <trkpt lat="45.58453" lon="2.74067">
        <ele>869</ele>
        <time>2022-07-30T20:50:30.000Z</time>
      </trkpt>
      <trkpt lat="45.58453" lon="2.74067">
        <ele>869</ele>
        <time>2022-07-30T20:50:31.000Z</time>
      </trkpt>
      <trkpt lat="45.58454" lon="2.74072">
        <ele>869</ele>
        <time>2022-07-30T20:50:32.000Z</time>
      </trkpt>
      <trkpt lat="45.58454" lon="2.74076">
        <ele>869</ele>
        <time>2022-07-30T20:50:33.000Z</time>
      </trkpt>
      <trkpt lat="45.58454" lon="2.74081">
        <ele>869</ele>
        <time>2022-07-30T20:50:34.000Z</time>
      </trkpt>
      <trkpt lat="45.58454" lon="2.74086">
        <ele>869</ele>
        <time>2022-07-30T20:50:35.000Z</time>
      </trkpt>
      <trkpt lat="45.58454" lon="2.7409">
        <ele>873.2</ele>
        <time>2022-07-30T20:50:36.000Z</time>
      </trkpt>
      <trkpt lat="45.58453" lon="2.74095">
        <ele>873.4</ele>
        <time>2022-07-30T20:50:37.000Z</time>
      </trkpt>
      <trkpt lat="45.58452" lon="2.74103">
        <ele>873.7</ele>
        <time>2022-07-30T20:50:38.000Z</time>
      </trkpt>
      <trkpt lat="45.58448" lon="2.74104">
        <ele>873.9</ele>
        <time>2022-07-30T20:50:39.000Z</time>
      </trkpt>
      <trkpt lat="45.58444" lon="2.74105">
        <ele>873</ele>
        <time>2022-07-30T20:50:40.000Z</time>
      </trkpt>
      <trkpt lat="45.58439" lon="2.74107">
        <ele>873</ele>
        <time>2022-07-30T20:50:41.000Z</time>
      </trkpt>
      <trkpt lat="45.58434" lon="2.74113">
        <ele>873</ele>
        <time>2022-07-30T20:50:42.000Z</time>
      </trkpt>
      <trkpt lat="45.5843" lon="2.74117">
        <ele>873</ele>
        <time>2022-07-30T20:50:43.000Z</time>
      </trkpt>
      <trkpt lat="45.58426" lon="2.7412">
        <ele>873</ele>
        <time>2022-07-30T20:50:44.000Z</time>
      </trkpt>
      <trkpt lat="45.58421" lon="2.74123">
        <ele>873</ele>
        <time>2022-07-30T20:50:45.000Z</time>
      </trkpt>
      <trkpt lat="45.58415" lon="2.74125">
        <ele>873</ele>
        <time>2022-07-30T20:50:46.000Z</time>
      </trkpt>
      <trkpt lat="45.5841" lon="2.74125">
        <ele>873</ele>
        <time>2022-07-30T20:50:47.000Z</time>
      </trkpt>
      <trkpt lat="45.58405" lon="2.74125">
        <ele>873</ele>
        <time>2022-07-30T20:50:48.000Z</time>
      </trkpt>
      <trkpt lat="45.584" lon="2.74124">
        <ele>873</ele>
        <time>2022-07-30T20:50:49.000Z</time>
      </trkpt>
      <trkpt lat="45.58395" lon="2.74123">
        <ele>873</ele>
        <time>2022-07-30T20:50:50.000Z</time>
      </trkpt>
      <trkpt lat="45.58391" lon="2.74124">
        <ele>873</ele>
        <time>2022-07-30T20:50:51.000Z</time>
      </trkpt>
      <trkpt lat="45.58386" lon="2.74124">
        <ele>873</ele>
        <time>2022-07-30T20:50:52.000Z</time>
      </trkpt>
      <trkpt lat="45.5838" lon="2.74125">
        <ele>873</ele>
        <time>2022-07-30T20:50:53.000Z</time>
      </trkpt>
      <trkpt lat="45.58374" lon="2.74125">
        <ele>873</ele>
        <time>2022-07-30T20:50:54.000Z</time>
      </trkpt>
      <trkpt lat="45.58369" lon="2.74127">
        <ele>873</ele>
        <time>2022-07-30T20:50:55.000Z</time>
      </trkpt>
      <trkpt lat="45.58364" lon="2.74128">
        <ele>873</ele>
        <time>2022-07-30T20:50:56.000Z</time>
      </trkpt>
      <trkpt lat="45.58359" lon="2.7413">
        <ele>873</ele>
        <time>2022-07-30T20:50:57.000Z</time>
      </trkpt>
      <trkpt lat="45.58354" lon="2.74132">
        <ele>873</ele>
        <time>2022-07-30T20:50:58.000Z</time>
      </trkpt>
      <trkpt lat="45.58349" lon="2.74133">
        <ele>873</ele>
        <time>2022-07-30T20:50:59.000Z</time>
      </trkpt>
      <trkpt lat="45.58345" lon="2.74135">
        <ele>873</ele>
        <time>2022-07-30T20:51:00.000Z</time>
      </trkpt>
      <trkpt lat="45.5834" lon="2.74137">
        <ele>893</ele>
        <time>2022-07-30T20:51:01.000Z</time>
      </trkpt>
      <trkpt lat="45.58335" lon="2.74138">
        <ele>893</ele>
        <time>2022-07-30T20:51:02.000Z</time>
      </trkpt>
      <trkpt lat="45.5833" lon="2.7414">
        <ele>893</ele>
        <time>2022-07-30T20:51:03.000Z</time>
      </trkpt>
      <trkpt lat="45.58326" lon="2.74142">
        <ele>893</ele>
        <time>2022-07-30T20:51:04.000Z</time>
      </trkpt>
      <trkpt lat="45.58321" lon="2.74144">
        <ele>893</ele>
        <time>2022-07-30T20:51:05.000Z</time>
      </trkpt>
      <trkpt lat="45.58316" lon="2.74145">
        <ele>893</ele>
        <time>2022-07-30T20:51:06.000Z</time>
      </trkpt>
      <trkpt lat="45.58311" lon="2.74149">
        <ele>893</ele>
        <time>2022-07-30T20:51:07.000Z</time>
      </trkpt>
      <trkpt lat="45.58306" lon="2.74152">
        <ele>893</ele>
        <time>2022-07-30T20:51:08.000Z</time>
      </trkpt>
      <trkpt lat="45.58303" lon="2.74159">
        <ele>893</ele>
        <time>2022-07-30T20:51:09.000Z</time>
      </trkpt>
      <trkpt lat="45.58301" lon="2.74165">
        <ele>893</ele>
        <time>2022-07-30T20:51:10.000Z</time>
      </trkpt>
      <trkpt lat="45.58298" lon="2.74171">
        <ele>893</ele>
        <time>2022-07-30T20:51:11.000Z</time>
      </trkpt>
      <trkpt lat="45.58298" lon="2.74171">
        <ele>893</ele>
        <time>2022-07-30T20:51:12.000Z</time>
      </trkpt>
      <trkpt lat="45.58292" lon="2.74161">
        <ele>893</ele>
        <time>2022-07-30T20:51:13.000Z</time>
      </trkpt>
      <trkpt lat="45.58288" lon="2.74154">
        <ele>893</ele>
        <time>2022-07-30T20:51:14.000Z</time>
      </trkpt>
      <trkpt lat="45.58287" lon="2.74151">
        <ele>893</ele>
        <time>2022-07-30T20:51:15.000Z</time>
      </trkpt>
      <trkpt lat="45.58286" lon="2.74149">
        <ele>893</ele>
        <time>2022-07-30T20:51:16.000Z</time>
      </trkpt>
      <trkpt lat="45.58285" lon="2.74145">
        <ele>893</ele>
        <time>2022-07-30T20:51:17.000Z</time>
      </trkpt>
      <trkpt lat="45.58281" lon="2.74136">
        <ele>927</ele>
        <time>2022-07-30T20:51:18.000Z</time>
      </trkpt>
      <trkpt lat="45.58282" lon="2.74131">
        <ele>910</ele>
        <time>2022-07-30T20:51:19.000Z</time>
      </trkpt>
      <trkpt lat="45.58283" lon="2.74127">
        <ele>910</ele>
        <time>2022-07-30T20:51:20.000Z</time>
      </trkpt>
      <trkpt lat="45.58285" lon="2.74124">
        <ele>927</ele>
        <time>2022-07-30T20:51:21.000Z</time>
      </trkpt>
      <trkpt lat="45.58288" lon="2.7412">
        <ele>927</ele>
        <time>2022-07-30T20:51:22.000Z</time>
      </trkpt>
      <trkpt lat="45.58291" lon="2.74115">
        <ele>927</ele>
        <time>2022-07-30T20:51:23.000Z</time>
      </trkpt>
      <trkpt lat="45.58292" lon="2.74112">
        <ele>927</ele>
        <time>2022-07-30T20:51:24.000Z</time>
      </trkpt>
      <trkpt lat="45.5829" lon="2.74108">
        <ele>927</ele>
        <time>2022-07-30T20:51:25.000Z</time>
      </trkpt>
      <trkpt lat="45.58288" lon="2.74103">
        <ele>927</ele>
        <time>2022-07-30T20:51:26.000Z</time>
      </trkpt>
      <trkpt lat="45.58288" lon="2.74097">
        <ele>897.3</ele>
        <time>2022-07-30T20:51:27.000Z</time>
      </trkpt>
      <trkpt lat="45.5829" lon="2.74095">
        <ele>897.5</ele>
        <time>2022-07-30T20:51:28.000Z</time>
      </trkpt>
      <trkpt lat="45.58292" lon="2.74095">
        <ele>897.7</ele>
        <time>2022-07-30T20:51:29.000Z</time>
      </trkpt>
      <trkpt lat="45.58294" lon="2.74096">
        <ele>897.9</ele>
        <time>2022-07-30T20:51:30.000Z</time>
      </trkpt>
      <trkpt lat="45.58296" lon="2.74096">
        <ele>898.1</ele>
        <time>2022-07-30T20:51:31.000Z</time>
      </trkpt>
      <trkpt lat="45.58298" lon="2.74095">
        <ele>897.9</ele>
        <time>2022-07-30T20:51:32.000Z</time>
      </trkpt>
      <trkpt lat="45.58296" lon="2.74093">
        <ele>897.5</ele>
        <time>2022-07-30T20:51:33.000Z</time>
      </trkpt>
      <trkpt lat="45.58298" lon="2.74094">
        <ele>897.9</ele>
        <time>2022-07-30T20:51:34.000Z</time>
      </trkpt>
      <trkpt lat="45.58297" lon="2.74097">
        <ele>897.7</ele>
        <time>2022-07-30T20:51:35.000Z</time>
      </trkpt>
      <trkpt lat="45.583" lon="2.74097">
        <ele>897.4</ele>
        <time>2022-07-30T20:51:36.000Z</time>
      </trkpt>
      <trkpt lat="45.58302" lon="2.74098">
        <ele>897.1</ele>
        <time>2022-07-30T20:51:37.000Z</time>
      </trkpt>
      <trkpt lat="45.58306" lon="2.74096">
        <ele>896.8</ele>
        <time>2022-07-30T20:51:38.000Z</time>
      </trkpt>
      <trkpt lat="45.58307" lon="2.74093">
        <ele>897.4</ele>
        <time>2022-07-30T20:51:39.000Z</time>
      </trkpt>
      <trkpt lat="45.58312" lon="2.74085">
        <ele>897.7</ele>
        <time>2022-07-30T20:51:40.000Z</time>
      </trkpt>
      <trkpt lat="45.58315" lon="2.74079">
        <ele>898.1</ele>
        <time>2022-07-30T20:51:41.000Z</time>
      </trkpt>
      <trkpt lat="45.58317" lon="2.74074">
        <ele>898.5</ele>
        <time>2022-07-30T20:51:42.000Z</time>
      </trkpt>
      <trkpt lat="45.5832" lon="2.74068">
        <ele>898.9</ele>
        <time>2022-07-30T20:51:43.000Z</time>
      </trkpt>
      <trkpt lat="45.58322" lon="2.74062">
        <ele>899.3</ele>
        <time>2022-07-30T20:51:44.000Z</time>
      </trkpt>
      <trkpt lat="45.58325" lon="2.74056">
        <ele>893</ele>
        <time>2022-07-30T20:51:45.000Z</time>
      </trkpt>
      <trkpt lat="45.58327" lon="2.74051">
        <ele>893</ele>
        <time>2022-07-30T20:51:46.000Z</time>
      </trkpt>
      <trkpt lat="45.5833" lon="2.74045">
        <ele>903</ele>
        <time>2022-07-30T20:51:47.000Z</time>
      </trkpt>
      <trkpt lat="45.58333" lon="2.74039">
        <ele>903</ele>
        <time>2022-07-30T20:51:48.000Z</time>
      </trkpt>
      <trkpt lat="45.58335" lon="2.74034">
        <ele>903</ele>
        <time>2022-07-30T20:51:49.000Z</time>
      </trkpt>
      <trkpt lat="45.58337" lon="2.74028">
        <ele>903</ele>
        <time>2022-07-30T20:51:50.000Z</time>
      </trkpt>
      <trkpt lat="45.58339" lon="2.74022">
        <ele>903</ele>
        <time>2022-07-30T20:51:51.000Z</time>
      </trkpt>
      <trkpt lat="45.58341" lon="2.74016">
        <ele>903</ele>
        <time>2022-07-30T20:51:52.000Z</time>
      </trkpt>
      <trkpt lat="45.58343" lon="2.7401">
        <ele>903</ele>
        <time>2022-07-30T20:51:53.000Z</time>
      </trkpt>
      <trkpt lat="45.58345" lon="2.74006">
        <ele>903</ele>
        <time>2022-07-30T20:51:54.000Z</time>
      </trkpt>
      <trkpt lat="45.58346" lon="2.74003">
        <ele>903</ele>
        <time>2022-07-30T20:51:55.000Z</time>
      </trkpt>
      <trkpt lat="45.58345" lon="2.73991">
        <ele>903</ele>
        <time>2022-07-30T20:51:56.000Z</time>
      </trkpt>
      <trkpt lat="45.58341" lon="2.73985">
        <ele>903</ele>
        <time>2022-07-30T20:51:57.000Z</time>
      </trkpt>
      <trkpt lat="45.58338" lon="2.73979">
        <ele>903</ele>
        <time>2022-07-30T20:51:58.000Z</time>
      </trkpt>
      <trkpt lat="45.58337" lon="2.73971">
        <ele>903</ele>
        <time>2022-07-30T20:51:59.000Z</time>
      </trkpt>
      <trkpt lat="45.58337" lon="2.73962">
        <ele>903</ele>
        <time>2022-07-30T20:52:00.000Z</time>
      </trkpt>
      <trkpt lat="45.58336" lon="2.73954">
        <ele>903</ele>
        <time>2022-07-30T20:52:01.000Z</time>
      </trkpt>
      <trkpt lat="45.58336" lon="2.73947">
        <ele>909</ele>
        <time>2022-07-30T20:52:02.000Z</time>
      </trkpt>
      <trkpt lat="45.58337" lon="2.73941">
        <ele>909</ele>
        <time>2022-07-30T20:52:03.000Z</time>
      </trkpt>
      <trkpt lat="45.58337" lon="2.73934">
        <ele>909</ele>
        <time>2022-07-30T20:52:04.000Z</time>
      </trkpt>
      <trkpt lat="45.58337" lon="2.73928">
        <ele>909</ele>
        <time>2022-07-30T20:52:05.000Z</time>
      </trkpt>
      <trkpt lat="45.58337" lon="2.73921">
        <ele>909</ele>
        <time>2022-07-30T20:52:06.000Z</time>
      </trkpt>
      <trkpt lat="45.58337" lon="2.73915">
        <ele>909</ele>
        <time>2022-07-30T20:52:07.000Z</time>
      </trkpt>
      <trkpt lat="45.58337" lon="2.73908">
        <ele>909</ele>
        <time>2022-07-30T20:52:08.000Z</time>
      </trkpt>
      <trkpt lat="45.58338" lon="2.73902">
        <ele>909</ele>
        <time>2022-07-30T20:52:09.000Z</time>
      </trkpt>
      <trkpt lat="45.58338" lon="2.73895">
        <ele>909</ele>
        <time>2022-07-30T20:52:10.000Z</time>
      </trkpt>
      <trkpt lat="45.58339" lon="2.73888">
        <ele>909</ele>
        <time>2022-07-30T20:52:11.000Z</time>
      </trkpt>
      <trkpt lat="45.58341" lon="2.73881">
        <ele>909</ele>
        <time>2022-07-30T20:52:12.000Z</time>
      </trkpt>
      <trkpt lat="45.58344" lon="2.73876">
        <ele>909</ele>
        <time>2022-07-30T20:52:13.000Z</time>
      </trkpt>
      <trkpt lat="45.58346" lon="2.7387">
        <ele>909</ele>
        <time>2022-07-30T20:52:14.000Z</time>
      </trkpt>
      <trkpt lat="45.58346" lon="2.73871">
        <ele>918</ele>
        <time>2022-07-30T20:52:15.000Z</time>
      </trkpt>
      <trkpt lat="45.58347" lon="2.73864">
        <ele>918</ele>
        <time>2022-07-30T20:52:16.000Z</time>
      </trkpt>
      <trkpt lat="45.58349" lon="2.73857">
        <ele>918</ele>
        <time>2022-07-30T20:52:17.000Z</time>
      </trkpt>
      <trkpt lat="45.5835" lon="2.7385">
        <ele>918</ele>
        <time>2022-07-30T20:52:18.000Z</time>
      </trkpt>
      <trkpt lat="45.58351" lon="2.73843">
        <ele>918</ele>
        <time>2022-07-30T20:52:19.000Z</time>
      </trkpt>
      <trkpt lat="45.58352" lon="2.73836">
        <ele>918</ele>
        <time>2022-07-30T20:52:20.000Z</time>
      </trkpt>
      <trkpt lat="45.58355" lon="2.7383">
        <ele>918</ele>
        <time>2022-07-30T20:52:21.000Z</time>
      </trkpt>
      <trkpt lat="45.58358" lon="2.73825">
        <ele>918</ele>
        <time>2022-07-30T20:52:22.000Z</time>
      </trkpt>
      <trkpt lat="45.5836" lon="2.73819">
        <ele>918</ele>
        <time>2022-07-30T20:52:23.000Z</time>
      </trkpt>
      <trkpt lat="45.58361" lon="2.73812">
        <ele>918</ele>
        <time>2022-07-30T20:52:24.000Z</time>
      </trkpt>
      <trkpt lat="45.58363" lon="2.73805">
        <ele>918</ele>
        <time>2022-07-30T20:52:25.000Z</time>
      </trkpt>
      <trkpt lat="45.58364" lon="2.73798">
        <ele>918</ele>
        <time>2022-07-30T20:52:26.000Z</time>
      </trkpt>
      <trkpt lat="45.58365" lon="2.73791">
        <ele>918</ele>
        <time>2022-07-30T20:52:27.000Z</time>
      </trkpt>
      <trkpt lat="45.58366" lon="2.73783">
        <ele>930</ele>
        <time>2022-07-30T20:52:28.000Z</time>
      </trkpt>
      <trkpt lat="45.58367" lon="2.73776">
        <ele>930</ele>
        <time>2022-07-30T20:52:29.000Z</time>
      </trkpt>
      <trkpt lat="45.58366" lon="2.7377">
        <ele>930</ele>
        <time>2022-07-30T20:52:30.000Z</time>
      </trkpt>
      <trkpt lat="45.58366" lon="2.73763">
        <ele>930</ele>
        <time>2022-07-30T20:52:31.000Z</time>
      </trkpt>
      <trkpt lat="45.58365" lon="2.73756">
        <ele>930</ele>
        <time>2022-07-30T20:52:32.000Z</time>
      </trkpt>
      <trkpt lat="45.58365" lon="2.7375">
        <ele>930</ele>
        <time>2022-07-30T20:52:33.000Z</time>
      </trkpt>
      <trkpt lat="45.58365" lon="2.73743">
        <ele>930</ele>
        <time>2022-07-30T20:52:34.000Z</time>
      </trkpt>
      <trkpt lat="45.58364" lon="2.73736">
        <ele>930</ele>
        <time>2022-07-30T20:52:35.000Z</time>
      </trkpt>
      <trkpt lat="45.58364" lon="2.73729">
        <ele>930</ele>
        <time>2022-07-30T20:52:36.000Z</time>
      </trkpt>
      <trkpt lat="45.58366" lon="2.73722">
        <ele>930</ele>
        <time>2022-07-30T20:52:37.000Z</time>
      </trkpt>
      <trkpt lat="45.58368" lon="2.73714">
        <ele>930</ele>
        <time>2022-07-30T20:52:38.000Z</time>
      </trkpt>
      <trkpt lat="45.58369" lon="2.73707">
        <ele>930</ele>
        <time>2022-07-30T20:52:39.000Z</time>
      </trkpt>
      <trkpt lat="45.5837" lon="2.737">
        <ele>930</ele>
        <time>2022-07-30T20:52:40.000Z</time>
      </trkpt>
      <trkpt lat="45.58371" lon="2.73694">
        <ele>930</ele>
        <time>2022-07-30T20:52:41.000Z</time>
      </trkpt>
      <trkpt lat="45.58372" lon="2.73687">
        <ele>937</ele>
        <time>2022-07-30T20:52:42.000Z</time>
      </trkpt>
      <trkpt lat="45.58372" lon="2.73681">
        <ele>937</ele>
        <time>2022-07-30T20:52:43.000Z</time>
      </trkpt>
      <trkpt lat="45.58373" lon="2.73675">
        <ele>937</ele>
        <time>2022-07-30T20:52:44.000Z</time>
      </trkpt>
      <trkpt lat="45.58374" lon="2.73668">
        <ele>937</ele>
        <time>2022-07-30T20:52:45.000Z</time>
      </trkpt>
      <trkpt lat="45.58375" lon="2.73662">
        <ele>937</ele>
        <time>2022-07-30T20:52:46.000Z</time>
      </trkpt>
      <trkpt lat="45.58375" lon="2.73655">
        <ele>937</ele>
        <time>2022-07-30T20:52:47.000Z</time>
      </trkpt>
      <trkpt lat="45.58375" lon="2.73648">
        <ele>937</ele>
        <time>2022-07-30T20:52:48.000Z</time>
      </trkpt>
      <trkpt lat="45.58376" lon="2.73641">
        <ele>937</ele>
        <time>2022-07-30T20:52:49.000Z</time>
      </trkpt>
      <trkpt lat="45.58376" lon="2.73634">
        <ele>937</ele>
        <time>2022-07-30T20:52:50.000Z</time>
      </trkpt>
      <trkpt lat="45.58376" lon="2.73627">
        <ele>937</ele>
        <time>2022-07-30T20:52:51.000Z</time>
      </trkpt>
      <trkpt lat="45.58376" lon="2.73621">
        <ele>937</ele>
        <time>2022-07-30T20:52:52.000Z</time>
      </trkpt>
      <trkpt lat="45.58376" lon="2.73614">
        <ele>937</ele>
        <time>2022-07-30T20:52:53.000Z</time>
      </trkpt>
      <trkpt lat="45.58376" lon="2.73608">
        <ele>935</ele>
        <time>2022-07-30T20:52:54.000Z</time>
      </trkpt>
      <trkpt lat="45.58376" lon="2.736">
        <ele>935</ele>
        <time>2022-07-30T20:52:55.000Z</time>
      </trkpt>
      <trkpt lat="45.58376" lon="2.73598">
        <ele>935</ele>
        <time>2022-07-30T20:52:56.000Z</time>
      </trkpt>
      <trkpt lat="45.58376" lon="2.73592">
        <ele>935</ele>
        <time>2022-07-30T20:52:57.000Z</time>
      </trkpt>
      <trkpt lat="45.58376" lon="2.73585">
        <ele>935</ele>
        <time>2022-07-30T20:52:58.000Z</time>
      </trkpt>
      <trkpt lat="45.58376" lon="2.73579">
        <ele>935</ele>
        <time>2022-07-30T20:52:59.000Z</time>
      </trkpt>
      <trkpt lat="45.58376" lon="2.73572">
        <ele>935</ele>
        <time>2022-07-30T20:53:00.000Z</time>
      </trkpt>
      <trkpt lat="45.58375" lon="2.73565">
        <ele>935</ele>
        <time>2022-07-30T20:53:01.000Z</time>
      </trkpt>
      <trkpt lat="45.58375" lon="2.73559">
        <ele>935</ele>
        <time>2022-07-30T20:53:02.000Z</time>
      </trkpt>
      <trkpt lat="45.58374" lon="2.73552">
        <ele>935</ele>
        <time>2022-07-30T20:53:03.000Z</time>
      </trkpt>
      <trkpt lat="45.58373" lon="2.73546">
        <ele>935</ele>
        <time>2022-07-30T20:53:04.000Z</time>
      </trkpt>
      <trkpt lat="45.58372" lon="2.7354">
        <ele>935</ele>
        <time>2022-07-30T20:53:05.000Z</time>
      </trkpt>
      <trkpt lat="45.5837" lon="2.73533">
        <ele>935</ele>
        <time>2022-07-30T20:53:06.000Z</time>
      </trkpt>
      <trkpt lat="45.58369" lon="2.73527">
        <ele>935</ele>
        <time>2022-07-30T20:53:07.000Z</time>
      </trkpt>
      <trkpt lat="45.58368" lon="2.73521">
        <ele>927</ele>
        <time>2022-07-30T20:53:08.000Z</time>
      </trkpt>
      <trkpt lat="45.58366" lon="2.73514">
        <ele>927</ele>
        <time>2022-07-30T20:53:09.000Z</time>
      </trkpt>
      <trkpt lat="45.58364" lon="2.73506">
        <ele>927</ele>
        <time>2022-07-30T20:53:10.000Z</time>
      </trkpt>
      <trkpt lat="45.58361" lon="2.73499">
        <ele>927</ele>
        <time>2022-07-30T20:53:11.000Z</time>
      </trkpt>
      <trkpt lat="45.58366" lon="2.73491">
        <ele>927</ele>
        <time>2022-07-30T20:53:12.000Z</time>
      </trkpt>
      <trkpt lat="45.5837" lon="2.73487">
        <ele>927</ele>
        <time>2022-07-30T20:53:13.000Z</time>
      </trkpt>
      <trkpt lat="45.58374" lon="2.73482">
        <ele>927</ele>
        <time>2022-07-30T20:53:14.000Z</time>
      </trkpt>
      <trkpt lat="45.58372" lon="2.73473">
        <ele>927</ele>
        <time>2022-07-30T20:53:15.000Z</time>
      </trkpt>
      <trkpt lat="45.5837" lon="2.73464">
        <ele>927</ele>
        <time>2022-07-30T20:53:16.000Z</time>
      </trkpt>
      <trkpt lat="45.58369" lon="2.73457">
        <ele>927</ele>
        <time>2022-07-30T20:53:17.000Z</time>
      </trkpt>
      <trkpt lat="45.58369" lon="2.7345">
        <ele>927</ele>
        <time>2022-07-30T20:53:18.000Z</time>
      </trkpt>
      <trkpt lat="45.58368" lon="2.73443">
        <ele>927</ele>
        <time>2022-07-30T20:53:19.000Z</time>
      </trkpt>
      <trkpt lat="45.58367" lon="2.73437">
        <ele>927</ele>
        <time>2022-07-30T20:53:20.000Z</time>
      </trkpt>
      <trkpt lat="45.58367" lon="2.73428">
        <ele>914</ele>
        <time>2022-07-30T20:53:21.000Z</time>
      </trkpt>
      <trkpt lat="45.58366" lon="2.7342">
        <ele>914</ele>
        <time>2022-07-30T20:53:22.000Z</time>
      </trkpt>
      <trkpt lat="45.58366" lon="2.73415">
        <ele>914</ele>
        <time>2022-07-30T20:53:23.000Z</time>
      </trkpt>
      <trkpt lat="45.58366" lon="2.7341">
        <ele>914</ele>
        <time>2022-07-30T20:53:24.000Z</time>
      </trkpt>
      <trkpt lat="45.58366" lon="2.73405">
        <ele>914</ele>
        <time>2022-07-30T20:53:25.000Z</time>
      </trkpt>
      <trkpt lat="45.58366" lon="2.73401">
        <ele>914</ele>
        <time>2022-07-30T20:53:26.000Z</time>
      </trkpt>
      <trkpt lat="45.58366" lon="2.73397">
        <ele>914</ele>
        <time>2022-07-30T20:53:27.000Z</time>
      </trkpt>
      <trkpt lat="45.58364" lon="2.73395">
        <ele>914</ele>
        <time>2022-07-30T20:53:28.000Z</time>
      </trkpt>
      <trkpt lat="45.58363" lon="2.73392">
        <ele>914</ele>
        <time>2022-07-30T20:53:29.000Z</time>
      </trkpt>
      <trkpt lat="45.58362" lon="2.73388">
        <ele>914</ele>
        <time>2022-07-30T20:53:30.000Z</time>
      </trkpt>
      <trkpt lat="45.58361" lon="2.73385">
        <ele>914</ele>
        <time>2022-07-30T20:53:31.000Z</time>
      </trkpt>
      <trkpt lat="45.5836" lon="2.73381">
        <ele>914</ele>
        <time>2022-07-30T20:53:32.000Z</time>
      </trkpt>
      <trkpt lat="45.58359" lon="2.73377">
        <ele>914</ele>
        <time>2022-07-30T20:53:33.000Z</time>
      </trkpt>
      <trkpt lat="45.58357" lon="2.73373">
        <ele>909</ele>
        <time>2022-07-30T20:53:34.000Z</time>
      </trkpt>
      <trkpt lat="45.58355" lon="2.73371">
        <ele>909</ele>
        <time>2022-07-30T20:53:35.000Z</time>
      </trkpt>
      <trkpt lat="45.58353" lon="2.73369">
        <ele>909</ele>
        <time>2022-07-30T20:53:36.000Z</time>
      </trkpt>
      <trkpt lat="45.58351" lon="2.73365">
        <ele>909</ele>
        <time>2022-07-30T20:53:37.000Z</time>
      </trkpt>
      <trkpt lat="45.58352" lon="2.73361">
        <ele>909</ele>
        <time>2022-07-30T20:53:38.000Z</time>
      </trkpt>
      <trkpt lat="45.58353" lon="2.73358">
        <ele>909</ele>
        <time>2022-07-30T20:53:39.000Z</time>
      </trkpt>
      <trkpt lat="45.58354" lon="2.73353">
        <ele>908.2</ele>
        <time>2022-07-30T20:53:40.000Z</time>
      </trkpt>
      <trkpt lat="45.58356" lon="2.7335">
        <ele>907.8</ele>
        <time>2022-07-30T20:53:41.000Z</time>
      </trkpt>
      <trkpt lat="45.58358" lon="2.73347">
        <ele>907.1</ele>
        <time>2022-07-30T20:53:42.000Z</time>
      </trkpt>
      <trkpt lat="45.58359" lon="2.73345">
        <ele>906.7</ele>
        <time>2022-07-30T20:53:43.000Z</time>
      </trkpt>
      <trkpt lat="45.5836" lon="2.73341">
        <ele>906.3</ele>
        <time>2022-07-30T20:53:44.000Z</time>
      </trkpt>
      <trkpt lat="45.58361" lon="2.73338">
        <ele>905.9</ele>
        <time>2022-07-30T20:53:45.000Z</time>
      </trkpt>
      <trkpt lat="45.58361" lon="2.73336">
        <ele>905.7</ele>
        <time>2022-07-30T20:53:46.000Z</time>
      </trkpt>
      <trkpt lat="45.58361" lon="2.73333">
        <ele>905.3</ele>
        <time>2022-07-30T20:53:47.000Z</time>
      </trkpt>
      <trkpt lat="45.58363" lon="2.73331">
        <ele>905.1</ele>
        <time>2022-07-30T20:53:48.000Z</time>
      </trkpt>
      <trkpt lat="45.58368" lon="2.73329">
        <ele>904.9</ele>
        <time>2022-07-30T20:53:49.000Z</time>
      </trkpt>
      <trkpt lat="45.58373" lon="2.73327">
        <ele>904.7</ele>
        <time>2022-07-30T20:53:50.000Z</time>
      </trkpt>
      <trkpt lat="45.58376" lon="2.73326">
        <ele>904.5</ele>
        <time>2022-07-30T20:53:51.000Z</time>
      </trkpt>
      <trkpt lat="45.5838" lon="2.73324">
        <ele>904.2</ele>
        <time>2022-07-30T20:53:52.000Z</time>
      </trkpt>
      <trkpt lat="45.58384" lon="2.73321">
        <ele>903.7</ele>
        <time>2022-07-30T20:53:53.000Z</time>
      </trkpt>
      <trkpt lat="45.58388" lon="2.73313">
        <ele>903.5</ele>
        <time>2022-07-30T20:53:54.000Z</time>
      </trkpt>
      <trkpt lat="45.58389" lon="2.73309">
        <ele>903.2</ele>
        <time>2022-07-30T20:53:55.000Z</time>
      </trkpt>
      <trkpt lat="45.58391" lon="2.73306">
        <ele>902.9</ele>
        <time>2022-07-30T20:53:56.000Z</time>
      </trkpt>
      <trkpt lat="45.58393" lon="2.73303">
        <ele>902.6</ele>
        <time>2022-07-30T20:53:57.000Z</time>
      </trkpt>
      <trkpt lat="45.58396" lon="2.733">
        <ele>902.1</ele>
        <time>2022-07-30T20:53:58.000Z</time>
      </trkpt>
      <trkpt lat="45.58399" lon="2.73298">
        <ele>921</ele>
        <time>2022-07-30T20:53:59.000Z</time>
      </trkpt>
      <trkpt lat="45.58402" lon="2.73296">
        <ele>901.5</ele>
        <time>2022-07-30T20:54:00.000Z</time>
      </trkpt>
      <trkpt lat="45.58404" lon="2.73294">
        <ele>901</ele>
        <time>2022-07-30T20:54:01.000Z</time>
      </trkpt>
      <trkpt lat="45.58406" lon="2.73291">
        <ele>900.7</ele>
        <time>2022-07-30T20:54:02.000Z</time>
      </trkpt>
      <trkpt lat="45.58409" lon="2.73287">
        <ele>921</ele>
        <time>2022-07-30T20:54:03.000Z</time>
      </trkpt>
      <trkpt lat="45.58413" lon="2.73282">
        <ele>900</ele>
        <time>2022-07-30T20:54:04.000Z</time>
      </trkpt>
      <trkpt lat="45.58416" lon="2.7328">
        <ele>900.1</ele>
        <time>2022-07-30T20:54:05.000Z</time>
      </trkpt>
      <trkpt lat="45.5842" lon="2.7328">
        <ele>899.8</ele>
        <time>2022-07-30T20:54:06.000Z</time>
      </trkpt>
      <trkpt lat="45.58424" lon="2.7328">
        <ele>899.5</ele>
        <time>2022-07-30T20:54:07.000Z</time>
      </trkpt>
      <trkpt lat="45.58428" lon="2.73279">
        <ele>899.2</ele>
        <time>2022-07-30T20:54:08.000Z</time>
      </trkpt>
      <trkpt lat="45.58432" lon="2.73276">
        <ele>898.6</ele>
        <time>2022-07-30T20:54:09.000Z</time>
      </trkpt>
      <trkpt lat="45.58435" lon="2.73274">
        <ele>898.3</ele>
        <time>2022-07-30T20:54:10.000Z</time>
      </trkpt>
      <trkpt lat="45.58439" lon="2.73269">
        <ele>898</ele>
        <time>2022-07-30T20:54:11.000Z</time>
      </trkpt>
      <trkpt lat="45.58443" lon="2.73264">
        <ele>897.7</ele>
        <time>2022-07-30T20:54:12.000Z</time>
      </trkpt>
      <trkpt lat="45.58447" lon="2.73259">
        <ele>897.3</ele>
        <time>2022-07-30T20:54:13.000Z</time>
      </trkpt>
      <trkpt lat="45.58452" lon="2.73255">
        <ele>896.8</ele>
        <time>2022-07-30T20:54:14.000Z</time>
      </trkpt>
      <trkpt lat="45.58456" lon="2.73252">
        <ele>896.3</ele>
        <time>2022-07-30T20:54:15.000Z</time>
      </trkpt>
      <trkpt lat="45.5846" lon="2.73247">
        <ele>895.8</ele>
        <time>2022-07-30T20:54:16.000Z</time>
      </trkpt>
      <trkpt lat="45.58466" lon="2.73241">
        <ele>895.3</ele>
        <time>2022-07-30T20:54:17.000Z</time>
      </trkpt>
      <trkpt lat="45.5847" lon="2.73236">
        <ele>894.8</ele>
        <time>2022-07-30T20:54:18.000Z</time>
      </trkpt>
      <trkpt lat="45.58473" lon="2.73232">
        <ele>894.3</ele>
        <time>2022-07-30T20:54:19.000Z</time>
      </trkpt>
      <trkpt lat="45.58477" lon="2.73228">
        <ele>900</ele>
        <time>2022-07-30T20:54:20.000Z</time>
      </trkpt>
      <trkpt lat="45.58479" lon="2.73225">
        <ele>893.1</ele>
        <time>2022-07-30T20:54:21.000Z</time>
      </trkpt>
      <trkpt lat="45.58481" lon="2.73227">
        <ele>900</ele>
        <time>2022-07-30T20:54:22.000Z</time>
      </trkpt>
      <trkpt lat="45.58482" lon="2.7323">
        <ele>892.4</ele>
        <time>2022-07-30T20:54:23.000Z</time>
      </trkpt>
      <trkpt lat="45.58484" lon="2.73237">
        <ele>900</ele>
        <time>2022-07-30T20:54:24.000Z</time>
      </trkpt>
      <trkpt lat="45.58487" lon="2.73247">
        <ele>900</ele>
        <time>2022-07-30T20:54:25.000Z</time>
      </trkpt>
      <trkpt lat="45.58491" lon="2.73252">
        <ele>891.1</ele>
        <time>2022-07-30T20:54:26.000Z</time>
      </trkpt>
      <trkpt lat="45.58494" lon="2.73257">
        <ele>909</ele>
        <time>2022-07-30T20:54:27.000Z</time>
      </trkpt>
      <trkpt lat="45.58498" lon="2.73267">
        <ele>890.5</ele>
        <time>2022-07-30T20:54:28.000Z</time>
      </trkpt>
      <trkpt lat="45.585" lon="2.73272">
        <ele>909</ele>
        <time>2022-07-30T20:54:29.000Z</time>
      </trkpt>
      <trkpt lat="45.58499" lon="2.73273">
        <ele>909</ele>
        <time>2022-07-30T20:54:30.000Z</time>
      </trkpt>
      <trkpt lat="45.58501" lon="2.73279">
        <ele>889.6</ele>
        <time>2022-07-30T20:54:31.000Z</time>
      </trkpt>
      <trkpt lat="45.58503" lon="2.73285">
        <ele>894</ele>
        <time>2022-07-30T20:54:32.000Z</time>
      </trkpt>
      <trkpt lat="45.58505" lon="2.73291">
        <ele>889.3</ele>
        <time>2022-07-30T20:54:33.000Z</time>
      </trkpt>
      <trkpt lat="45.58507" lon="2.73297">
        <ele>888.9</ele>
        <time>2022-07-30T20:54:34.000Z</time>
      </trkpt>
      <trkpt lat="45.5851" lon="2.73303">
        <ele>894</ele>
        <time>2022-07-30T20:54:35.000Z</time>
      </trkpt>
      <trkpt lat="45.58512" lon="2.73309">
        <ele>888.5</ele>
        <time>2022-07-30T20:54:36.000Z</time>
      </trkpt>
      <trkpt lat="45.58514" lon="2.73315">
        <ele>888.3</ele>
        <time>2022-07-30T20:54:37.000Z</time>
      </trkpt>
      <trkpt lat="45.58518" lon="2.73323">
        <ele>888.1</ele>
        <time>2022-07-30T20:54:38.000Z</time>
      </trkpt>
      <trkpt lat="45.58519" lon="2.73325">
        <ele>894</ele>
        <time>2022-07-30T20:54:39.000Z</time>
      </trkpt>
      <trkpt lat="45.58525" lon="2.73322">
        <ele>887.8</ele>
        <time>2022-07-30T20:54:40.000Z</time>
      </trkpt>
      <trkpt lat="45.5853" lon="2.73319">
        <ele>887.5</ele>
        <time>2022-07-30T20:54:41.000Z</time>
      </trkpt>
      <trkpt lat="45.58536" lon="2.73316">
        <ele>894</ele>
        <time>2022-07-30T20:54:42.000Z</time>
      </trkpt>
      <trkpt lat="45.58541" lon="2.73313">
        <ele>887</ele>
        <time>2022-07-30T20:54:43.000Z</time>
      </trkpt>
      <trkpt lat="45.58547" lon="2.7331">
        <ele>887.2</ele>
        <time>2022-07-30T20:54:44.000Z</time>
      </trkpt>
      <trkpt lat="45.58555" lon="2.73306">
        <ele>887</ele>
        <time>2022-07-30T20:54:45.000Z</time>
      </trkpt>
      <trkpt lat="45.58553" lon="2.73299">
        <ele>887</ele>
        <time>2022-07-30T20:54:46.000Z</time>
      </trkpt>
      <trkpt lat="45.58551" lon="2.73292">
        <ele>887</ele>
        <time>2022-07-30T20:54:47.000Z</time>
      </trkpt>
      <trkpt lat="45.58549" lon="2.73286">
        <ele>887</ele>
        <time>2022-07-30T20:54:48.000Z</time>
      </trkpt>
      <trkpt lat="45.58547" lon="2.73279">
        <ele>887</ele>
        <time>2022-07-30T20:54:49.000Z</time>
      </trkpt>
      <trkpt lat="45.58545" lon="2.73273">
        <ele>887</ele>
        <time>2022-07-30T20:54:50.000Z</time>
      </trkpt>
      <trkpt lat="45.58543" lon="2.73266">
        <ele>887</ele>
        <time>2022-07-30T20:54:51.000Z</time>
      </trkpt>
      <trkpt lat="45.58542" lon="2.73258">
        <ele>887</ele>
        <time>2022-07-30T20:54:52.000Z</time>
      </trkpt>
      <trkpt lat="45.5854" lon="2.73251">
        <ele>887</ele>
        <time>2022-07-30T20:54:53.000Z</time>
      </trkpt>
      <trkpt lat="45.58539" lon="2.73244">
        <ele>887</ele>
        <time>2022-07-30T20:54:54.000Z</time>
      </trkpt>
      <trkpt lat="45.5854" lon="2.73237">
        <ele>887</ele>
        <time>2022-07-30T20:54:55.000Z</time>
      </trkpt>
      <trkpt lat="45.58541" lon="2.73231">
        <ele>887</ele>
        <time>2022-07-30T20:54:56.000Z</time>
      </trkpt>
      <trkpt lat="45.58543" lon="2.73225">
        <ele>887</ele>
        <time>2022-07-30T20:54:57.000Z</time>
      </trkpt>
      <trkpt lat="45.58544" lon="2.73218">
        <ele>887</ele>
        <time>2022-07-30T20:54:58.000Z</time>
      </trkpt>
      <trkpt lat="45.58545" lon="2.73212">
        <ele>887</ele>
        <time>2022-07-30T20:54:59.000Z</time>
      </trkpt>
      <trkpt lat="45.58548" lon="2.73206">
        <ele>887</ele>
        <time>2022-07-30T20:55:00.000Z</time>
      </trkpt>
      <trkpt lat="45.58552" lon="2.732">
        <ele>887</ele>
        <time>2022-07-30T20:55:01.000Z</time>
      </trkpt>
      <trkpt lat="45.58555" lon="2.73194">
        <ele>887</ele>
        <time>2022-07-30T20:55:02.000Z</time>
      </trkpt>
      <trkpt lat="45.5856" lon="2.73185">
        <ele>881</ele>
        <time>2022-07-30T20:55:03.000Z</time>
      </trkpt>
      <trkpt lat="45.58563" lon="2.73181">
        <ele>881</ele>
        <time>2022-07-30T20:55:04.000Z</time>
      </trkpt>
      <trkpt lat="45.58567" lon="2.73176">
        <ele>881</ele>
        <time>2022-07-30T20:55:05.000Z</time>
      </trkpt>
      <trkpt lat="45.5857" lon="2.73172">
        <ele>887</ele>
        <time>2022-07-30T20:55:06.000Z</time>
      </trkpt>
      <trkpt lat="45.58573" lon="2.73167">
        <ele>887</ele>
        <time>2022-07-30T20:55:07.000Z</time>
      </trkpt>
      <trkpt lat="45.58576" lon="2.73163">
        <ele>887</ele>
        <time>2022-07-30T20:55:08.000Z</time>
      </trkpt>
      <trkpt lat="45.5858" lon="2.73159">
        <ele>887</ele>
        <time>2022-07-30T20:55:09.000Z</time>
      </trkpt>
      <trkpt lat="45.58583" lon="2.73154">
        <ele>887</ele>
        <time>2022-07-30T20:55:10.000Z</time>
      </trkpt>
      <trkpt lat="45.58586" lon="2.7315">
        <ele>887</ele>
        <time>2022-07-30T20:55:11.000Z</time>
      </trkpt>
      <trkpt lat="45.5859" lon="2.73145">
        <ele>894</ele>
        <time>2022-07-30T20:55:12.000Z</time>
      </trkpt>
      <trkpt lat="45.58593" lon="2.73141">
        <ele>894</ele>
        <time>2022-07-30T20:55:13.000Z</time>
      </trkpt>
      <trkpt lat="45.58596" lon="2.73137">
        <ele>894</ele>
        <time>2022-07-30T20:55:14.000Z</time>
      </trkpt>
      <trkpt lat="45.586" lon="2.73132">
        <ele>894</ele>
        <time>2022-07-30T20:55:15.000Z</time>
      </trkpt>
      <trkpt lat="45.58603" lon="2.73128">
        <ele>894</ele>
        <time>2022-07-30T20:55:16.000Z</time>
      </trkpt>
      <trkpt lat="45.58606" lon="2.73123">
        <ele>894</ele>
        <time>2022-07-30T20:55:17.000Z</time>
      </trkpt>
      <trkpt lat="45.58609" lon="2.73119">
        <ele>894</ele>
        <time>2022-07-30T20:55:18.000Z</time>
      </trkpt>
      <trkpt lat="45.58613" lon="2.73115">
        <ele>894</ele>
        <time>2022-07-30T20:55:19.000Z</time>
      </trkpt>
      <trkpt lat="45.58616" lon="2.7311">
        <ele>891</ele>
        <time>2022-07-30T20:55:20.000Z</time>
      </trkpt>
      <trkpt lat="45.58619" lon="2.73106">
        <ele>891</ele>
        <time>2022-07-30T20:55:21.000Z</time>
      </trkpt>
      <trkpt lat="45.58623" lon="2.73101">
        <ele>891</ele>
        <time>2022-07-30T20:55:22.000Z</time>
      </trkpt>
      <trkpt lat="45.58617" lon="2.73098">
        <ele>891</ele>
        <time>2022-07-30T20:55:23.000Z</time>
      </trkpt>
      <trkpt lat="45.5861" lon="2.73095">
        <ele>891</ele>
        <time>2022-07-30T20:55:24.000Z</time>
      </trkpt>
      <trkpt lat="45.58605" lon="2.73092">
        <ele>891</ele>
        <time>2022-07-30T20:55:25.000Z</time>
      </trkpt>
      <trkpt lat="45.58599" lon="2.7309">
        <ele>891</ele>
        <time>2022-07-30T20:55:26.000Z</time>
      </trkpt>
      <trkpt lat="45.58594" lon="2.73088">
        <ele>902</ele>
        <time>2022-07-30T20:55:27.000Z</time>
      </trkpt>
      <trkpt lat="45.5859" lon="2.73087">
        <ele>902</ele>
        <time>2022-07-30T20:55:28.000Z</time>
      </trkpt>
      <trkpt lat="45.58585" lon="2.73085">
        <ele>902</ele>
        <time>2022-07-30T20:55:29.000Z</time>
      </trkpt>
      <trkpt lat="45.58583" lon="2.73084">
        <ele>902</ele>
        <time>2022-07-30T20:55:30.000Z</time>
      </trkpt>
      <trkpt lat="45.58578" lon="2.7308">
        <ele>902</ele>
        <time>2022-07-30T20:55:31.000Z</time>
      </trkpt>
      <trkpt lat="45.58573" lon="2.73077">
        <ele>902</ele>
        <time>2022-07-30T20:55:32.000Z</time>
      </trkpt>
      <trkpt lat="45.58568" lon="2.73073">
        <ele>902</ele>
        <time>2022-07-30T20:55:33.000Z</time>
      </trkpt>
      <trkpt lat="45.58565" lon="2.73067">
        <ele>902</ele>
        <time>2022-07-30T20:55:34.000Z</time>
      </trkpt>
      <trkpt lat="45.58561" lon="2.73062">
        <ele>902</ele>
        <time>2022-07-30T20:55:35.000Z</time>
      </trkpt>
      <trkpt lat="45.58558" lon="2.73056">
        <ele>902</ele>
        <time>2022-07-30T20:55:36.000Z</time>
      </trkpt>
      <trkpt lat="45.58554" lon="2.73051">
        <ele>902</ele>
        <time>2022-07-30T20:55:37.000Z</time>
      </trkpt>
      <trkpt lat="45.58551" lon="2.73046">
        <ele>902</ele>
        <time>2022-07-30T20:55:38.000Z</time>
      </trkpt>
      <trkpt lat="45.58548" lon="2.7304">
        <ele>902</ele>
        <time>2022-07-30T20:55:39.000Z</time>
      </trkpt>
      <trkpt lat="45.58545" lon="2.73035">
        <ele>902</ele>
        <time>2022-07-30T20:55:40.000Z</time>
      </trkpt>
      <trkpt lat="45.58542" lon="2.73029">
        <ele>902</ele>
        <time>2022-07-30T20:55:41.000Z</time>
      </trkpt>
      <trkpt lat="45.58538" lon="2.73024">
        <ele>902</ele>
        <time>2022-07-30T20:55:42.000Z</time>
      </trkpt>
      <trkpt lat="45.58535" lon="2.73018">
        <ele>902</ele>
        <time>2022-07-30T20:55:43.000Z</time>
      </trkpt>
      <trkpt lat="45.58533" lon="2.73012">
        <ele>902</ele>
        <time>2022-07-30T20:55:44.000Z</time>
      </trkpt>
      <trkpt lat="45.58531" lon="2.73005">
        <ele>902</ele>
        <time>2022-07-30T20:55:45.000Z</time>
      </trkpt>
      <trkpt lat="45.58528" lon="2.72999">
        <ele>902</ele>
        <time>2022-07-30T20:55:46.000Z</time>
      </trkpt>
      <trkpt lat="45.58528" lon="2.72992">
        <ele>913</ele>
        <time>2022-07-30T20:55:47.000Z</time>
      </trkpt>
      <trkpt lat="45.58528" lon="2.72985">
        <ele>913</ele>
        <time>2022-07-30T20:55:48.000Z</time>
      </trkpt>
      <trkpt lat="45.58528" lon="2.72979">
        <ele>913</ele>
        <time>2022-07-30T20:55:49.000Z</time>
      </trkpt>
      <trkpt lat="45.58528" lon="2.72972">
        <ele>913</ele>
        <time>2022-07-30T20:55:50.000Z</time>
      </trkpt>
      <trkpt lat="45.58524" lon="2.72964">
        <ele>913</ele>
        <time>2022-07-30T20:55:51.000Z</time>
      </trkpt>
      <trkpt lat="45.58519" lon="2.72963">
        <ele>913</ele>
        <time>2022-07-30T20:55:52.000Z</time>
      </trkpt>
      <trkpt lat="45.58515" lon="2.72961">
        <ele>913</ele>
        <time>2022-07-30T20:55:53.000Z</time>
      </trkpt>
      <trkpt lat="45.58511" lon="2.72959">
        <ele>913</ele>
        <time>2022-07-30T20:55:54.000Z</time>
      </trkpt>
      <trkpt lat="45.58506" lon="2.72961">
        <ele>913</ele>
        <time>2022-07-30T20:55:55.000Z</time>
      </trkpt>
      <trkpt lat="45.58501" lon="2.72962">
        <ele>913</ele>
        <time>2022-07-30T20:55:56.000Z</time>
      </trkpt>
      <trkpt lat="45.58499" lon="2.72963">
        <ele>913</ele>
        <time>2022-07-30T20:55:57.000Z</time>
      </trkpt>
      <trkpt lat="45.58494" lon="2.72966">
        <ele>917</ele>
        <time>2022-07-30T20:55:58.000Z</time>
      </trkpt>
      <trkpt lat="45.58489" lon="2.72969">
        <ele>917</ele>
        <time>2022-07-30T20:55:59.000Z</time>
      </trkpt>
      <trkpt lat="45.58484" lon="2.72971">
        <ele>917</ele>
        <time>2022-07-30T20:56:00.000Z</time>
      </trkpt>
      <trkpt lat="45.58479" lon="2.72974">
        <ele>917</ele>
        <time>2022-07-30T20:56:01.000Z</time>
      </trkpt>
      <trkpt lat="45.58475" lon="2.72975">
        <ele>917</ele>
        <time>2022-07-30T20:56:02.000Z</time>
      </trkpt>
      <trkpt lat="45.5847" lon="2.72975">
        <ele>917</ele>
        <time>2022-07-30T20:56:03.000Z</time>
      </trkpt>
      <trkpt lat="45.58465" lon="2.72976">
        <ele>917</ele>
        <time>2022-07-30T20:56:04.000Z</time>
      </trkpt>
      <trkpt lat="45.5846" lon="2.72977">
        <ele>917</ele>
        <time>2022-07-30T20:56:05.000Z</time>
      </trkpt>
      <trkpt lat="45.58456" lon="2.72978">
        <ele>929</ele>
        <time>2022-07-30T20:56:06.000Z</time>
      </trkpt>
      <trkpt lat="45.58451" lon="2.72979">
        <ele>929</ele>
        <time>2022-07-30T20:56:07.000Z</time>
      </trkpt>
      <trkpt lat="45.58446" lon="2.72979">
        <ele>929</ele>
        <time>2022-07-30T20:56:08.000Z</time>
      </trkpt>
      <trkpt lat="45.58442" lon="2.7298">
        <ele>929</ele>
        <time>2022-07-30T20:56:09.000Z</time>
      </trkpt>
      <trkpt lat="45.58436" lon="2.7298">
        <ele>929</ele>
        <time>2022-07-30T20:56:10.000Z</time>
      </trkpt>
      <trkpt lat="45.58431" lon="2.72979">
        <ele>929</ele>
        <time>2022-07-30T20:56:11.000Z</time>
      </trkpt>
      <trkpt lat="45.58426" lon="2.72979">
        <ele>929</ele>
        <time>2022-07-30T20:56:12.000Z</time>
      </trkpt>
      <trkpt lat="45.58421" lon="2.72978">
        <ele>929</ele>
        <time>2022-07-30T20:56:13.000Z</time>
      </trkpt>
      <trkpt lat="45.58415" lon="2.72978">
        <ele>929</ele>
        <time>2022-07-30T20:56:14.000Z</time>
      </trkpt>
      <trkpt lat="45.58412" lon="2.72973">
        <ele>929</ele>
        <time>2022-07-30T20:56:15.000Z</time>
      </trkpt>
      <trkpt lat="45.58409" lon="2.72968">
        <ele>929</ele>
        <time>2022-07-30T20:56:16.000Z</time>
      </trkpt>
      <trkpt lat="45.58405" lon="2.72963">
        <ele>929</ele>
        <time>2022-07-30T20:56:17.000Z</time>
      </trkpt>
      <trkpt lat="45.58402" lon="2.72958">
        <ele>929</ele>
        <time>2022-07-30T20:56:18.000Z</time>
      </trkpt>
      <trkpt lat="45.58401" lon="2.72946">
        <ele>929</ele>
        <time>2022-07-30T20:56:19.000Z</time>
      </trkpt>
      <trkpt lat="45.58401" lon="2.72939">
        <ele>929</ele>
        <time>2022-07-30T20:56:20.000Z</time>
      </trkpt>
      <trkpt lat="45.58401" lon="2.72932">
        <ele>929</ele>
        <time>2022-07-30T20:56:21.000Z</time>
      </trkpt>
      <trkpt lat="45.58401" lon="2.72926">
        <ele>929</ele>
        <time>2022-07-30T20:56:22.000Z</time>
      </trkpt>
      <trkpt lat="45.584" lon="2.72919">
        <ele>929</ele>
        <time>2022-07-30T20:56:23.000Z</time>
      </trkpt>
      <trkpt lat="45.584" lon="2.72912">
        <ele>929</ele>
        <time>2022-07-30T20:56:24.000Z</time>
      </trkpt>
      <trkpt lat="45.584" lon="2.72905">
        <ele>929</ele>
        <time>2022-07-30T20:56:25.000Z</time>
      </trkpt>
      <trkpt lat="45.584" lon="2.72899">
        <ele>929</ele>
        <time>2022-07-30T20:56:26.000Z</time>
      </trkpt>
      <trkpt lat="45.584" lon="2.72893">
        <ele>939</ele>
        <time>2022-07-30T20:56:27.000Z</time>
      </trkpt>
      <trkpt lat="45.584" lon="2.72887">
        <ele>939</ele>
        <time>2022-07-30T20:56:28.000Z</time>
      </trkpt>
      <trkpt lat="45.584" lon="2.72882">
        <ele>939</ele>
        <time>2022-07-30T20:56:29.000Z</time>
      </trkpt>
      <trkpt lat="45.584" lon="2.72876">
        <ele>939</ele>
        <time>2022-07-30T20:56:30.000Z</time>
      </trkpt>
      <trkpt lat="45.584" lon="2.7287">
        <ele>939</ele>
        <time>2022-07-30T20:56:31.000Z</time>
      </trkpt>
      <trkpt lat="45.584" lon="2.72864">
        <ele>939</ele>
        <time>2022-07-30T20:56:32.000Z</time>
      </trkpt>
      <trkpt lat="45.58398" lon="2.72858">
        <ele>939</ele>
        <time>2022-07-30T20:56:33.000Z</time>
      </trkpt>
      <trkpt lat="45.58396" lon="2.72851">
        <ele>939</ele>
        <time>2022-07-30T20:56:34.000Z</time>
      </trkpt>
      <trkpt lat="45.58394" lon="2.72844">
        <ele>939</ele>
        <time>2022-07-30T20:56:35.000Z</time>
      </trkpt>
      <trkpt lat="45.58392" lon="2.72838">
        <ele>939</ele>
        <time>2022-07-30T20:56:36.000Z</time>
      </trkpt>
      <trkpt lat="45.5839" lon="2.72831">
        <ele>939</ele>
        <time>2022-07-30T20:56:37.000Z</time>
      </trkpt>
      <trkpt lat="45.58386" lon="2.72828">
        <ele>939</ele>
        <time>2022-07-30T20:56:38.000Z</time>
      </trkpt>
      <trkpt lat="45.58382" lon="2.72824">
        <ele>939</ele>
        <time>2022-07-30T20:56:39.000Z</time>
      </trkpt>
      <trkpt lat="45.58378" lon="2.72821">
        <ele>939</ele>
        <time>2022-07-30T20:56:40.000Z</time>
      </trkpt>
      <trkpt lat="45.58374" lon="2.72817">
        <ele>939</ele>
        <time>2022-07-30T20:56:41.000Z</time>
      </trkpt>
      <trkpt lat="45.5837" lon="2.72814">
        <ele>939</ele>
        <time>2022-07-30T20:56:42.000Z</time>
      </trkpt>
      <trkpt lat="45.58366" lon="2.72811">
        <ele>939</ele>
        <time>2022-07-30T20:56:43.000Z</time>
      </trkpt>
      <trkpt lat="45.58361" lon="2.72807">
        <ele>939</ele>
        <time>2022-07-30T20:56:44.000Z</time>
      </trkpt>
      <trkpt lat="45.58357" lon="2.72804">
        <ele>939</ele>
        <time>2022-07-30T20:56:45.000Z</time>
      </trkpt>
      <trkpt lat="45.58353" lon="2.728">
        <ele>943</ele>
        <time>2022-07-30T20:56:46.000Z</time>
      </trkpt>
      <trkpt lat="45.58349" lon="2.72797">
        <ele>943</ele>
        <time>2022-07-30T20:56:47.000Z</time>
      </trkpt>
      <trkpt lat="45.58345" lon="2.72793">
        <ele>943</ele>
        <time>2022-07-30T20:56:48.000Z</time>
      </trkpt>
      <trkpt lat="45.58341" lon="2.7279">
        <ele>943</ele>
        <time>2022-07-30T20:56:49.000Z</time>
      </trkpt>
      <trkpt lat="45.58337" lon="2.72787">
        <ele>943</ele>
        <time>2022-07-30T20:56:50.000Z</time>
      </trkpt>
      <trkpt lat="45.58333" lon="2.72783">
        <ele>943</ele>
        <time>2022-07-30T20:56:51.000Z</time>
      </trkpt>
      <trkpt lat="45.58329" lon="2.7278">
        <ele>943</ele>
        <time>2022-07-30T20:56:52.000Z</time>
      </trkpt>
      <trkpt lat="45.58325" lon="2.72777">
        <ele>943</ele>
        <time>2022-07-30T20:56:53.000Z</time>
      </trkpt>
      <trkpt lat="45.5832" lon="2.72774">
        <ele>943</ele>
        <time>2022-07-30T20:56:54.000Z</time>
      </trkpt>
      <trkpt lat="45.58316" lon="2.72772">
        <ele>943</ele>
        <time>2022-07-30T20:56:55.000Z</time>
      </trkpt>
      <trkpt lat="45.58311" lon="2.72769">
        <ele>943</ele>
        <time>2022-07-30T20:56:56.000Z</time>
      </trkpt>
      <trkpt lat="45.58307" lon="2.72766">
        <ele>943</ele>
        <time>2022-07-30T20:56:57.000Z</time>
      </trkpt>
      <trkpt lat="45.58302" lon="2.72764">
        <ele>943</ele>
        <time>2022-07-30T20:56:58.000Z</time>
      </trkpt>
      <trkpt lat="45.58298" lon="2.72761">
        <ele>942</ele>
        <time>2022-07-30T20:56:59.000Z</time>
      </trkpt>
      <trkpt lat="45.58293" lon="2.72759">
        <ele>942</ele>
        <time>2022-07-30T20:57:00.000Z</time>
      </trkpt>
      <trkpt lat="45.58289" lon="2.72756">
        <ele>947</ele>
        <time>2022-07-30T20:57:01.000Z</time>
      </trkpt>
      <trkpt lat="45.58285" lon="2.72753">
        <ele>947</ele>
        <time>2022-07-30T20:57:02.000Z</time>
      </trkpt>
      <trkpt lat="45.5828" lon="2.72751">
        <ele>947</ele>
        <time>2022-07-30T20:57:03.000Z</time>
      </trkpt>
      <trkpt lat="45.58276" lon="2.72748">
        <ele>947</ele>
        <time>2022-07-30T20:57:04.000Z</time>
      </trkpt>
      <trkpt lat="45.58273" lon="2.72744">
        <ele>947</ele>
        <time>2022-07-30T20:57:05.000Z</time>
      </trkpt>
      <trkpt lat="45.58269" lon="2.7274">
        <ele>947</ele>
        <time>2022-07-30T20:57:06.000Z</time>
      </trkpt>
      <trkpt lat="45.58265" lon="2.72735">
        <ele>947</ele>
        <time>2022-07-30T20:57:07.000Z</time>
      </trkpt>
      <trkpt lat="45.58261" lon="2.72731">
        <ele>947</ele>
        <time>2022-07-30T20:57:08.000Z</time>
      </trkpt>
      <trkpt lat="45.58257" lon="2.72726">
        <ele>947</ele>
        <time>2022-07-30T20:57:09.000Z</time>
      </trkpt>
      <trkpt lat="45.58253" lon="2.72722">
        <ele>947</ele>
        <time>2022-07-30T20:57:10.000Z</time>
      </trkpt>
      <trkpt lat="45.5825" lon="2.72716">
        <ele>947</ele>
        <time>2022-07-30T20:57:11.000Z</time>
      </trkpt>
      <trkpt lat="45.58248" lon="2.72711">
        <ele>947</ele>
        <time>2022-07-30T20:57:12.000Z</time>
      </trkpt>
      <trkpt lat="45.58245" lon="2.72706">
        <ele>947</ele>
        <time>2022-07-30T20:57:13.000Z</time>
      </trkpt>
      <trkpt lat="45.58242" lon="2.72701">
        <ele>947</ele>
        <time>2022-07-30T20:57:14.000Z</time>
      </trkpt>
      <trkpt lat="45.58239" lon="2.72695">
        <ele>947</ele>
        <time>2022-07-30T20:57:15.000Z</time>
      </trkpt>
      <trkpt lat="45.58237" lon="2.7269">
        <ele>947</ele>
        <time>2022-07-30T20:57:16.000Z</time>
      </trkpt>
      <trkpt lat="45.58234" lon="2.72685">
        <ele>947</ele>
        <time>2022-07-30T20:57:17.000Z</time>
      </trkpt>
      <trkpt lat="45.58231" lon="2.7268">
        <ele>947</ele>
        <time>2022-07-30T20:57:18.000Z</time>
      </trkpt>
      <trkpt lat="45.58228" lon="2.72674">
        <ele>951</ele>
        <time>2022-07-30T20:57:19.000Z</time>
      </trkpt>
      <trkpt lat="45.58225" lon="2.72669">
        <ele>951</ele>
        <time>2022-07-30T20:57:20.000Z</time>
      </trkpt>
      <trkpt lat="45.58223" lon="2.72664">
        <ele>951</ele>
        <time>2022-07-30T20:57:21.000Z</time>
      </trkpt>
      <trkpt lat="45.5822" lon="2.72658">
        <ele>950</ele>
        <time>2022-07-30T20:57:22.000Z</time>
      </trkpt>
      <trkpt lat="45.58217" lon="2.72653">
        <ele>950</ele>
        <time>2022-07-30T20:57:23.000Z</time>
      </trkpt>
      <trkpt lat="45.58214" lon="2.72648">
        <ele>950</ele>
        <time>2022-07-30T20:57:24.000Z</time>
      </trkpt>
      <trkpt lat="45.58211" lon="2.72642">
        <ele>950</ele>
        <time>2022-07-30T20:57:25.000Z</time>
      </trkpt>
      <trkpt lat="45.58208" lon="2.72637">
        <ele>950</ele>
        <time>2022-07-30T20:57:26.000Z</time>
      </trkpt>
      <trkpt lat="45.58205" lon="2.72632">
        <ele>950</ele>
        <time>2022-07-30T20:57:27.000Z</time>
      </trkpt>
      <trkpt lat="45.58202" lon="2.72627">
        <ele>950</ele>
        <time>2022-07-30T20:57:28.000Z</time>
      </trkpt>
      <trkpt lat="45.58199" lon="2.72622">
        <ele>950</ele>
        <time>2022-07-30T20:57:29.000Z</time>
      </trkpt>
      <trkpt lat="45.58196" lon="2.72617">
        <ele>950</ele>
        <time>2022-07-30T20:57:30.000Z</time>
      </trkpt>
      <trkpt lat="45.58192" lon="2.72612">
        <ele>950</ele>
        <time>2022-07-30T20:57:31.000Z</time>
      </trkpt>
      <trkpt lat="45.58189" lon="2.72607">
        <ele>950</ele>
        <time>2022-07-30T20:57:32.000Z</time>
      </trkpt>
      <trkpt lat="45.58186" lon="2.72602">
        <ele>950</ele>
        <time>2022-07-30T20:57:33.000Z</time>
      </trkpt>
      <trkpt lat="45.58183" lon="2.72597">
        <ele>950</ele>
        <time>2022-07-30T20:57:34.000Z</time>
      </trkpt>
      <trkpt lat="45.58181" lon="2.72589">
        <ele>950</ele>
        <time>2022-07-30T20:57:35.000Z</time>
      </trkpt>
      <trkpt lat="45.58179" lon="2.72582">
        <ele>950</ele>
        <time>2022-07-30T20:57:36.000Z</time>
      </trkpt>
      <trkpt lat="45.58178" lon="2.72576">
        <ele>950</ele>
        <time>2022-07-30T20:57:37.000Z</time>
      </trkpt>
      <trkpt lat="45.58176" lon="2.7257">
        <ele>951</ele>
        <time>2022-07-30T20:57:38.000Z</time>
      </trkpt>
      <trkpt lat="45.58176" lon="2.72563">
        <ele>951</ele>
        <time>2022-07-30T20:57:39.000Z</time>
      </trkpt>
      <trkpt lat="45.58176" lon="2.72557">
        <ele>951</ele>
        <time>2022-07-30T20:57:40.000Z</time>
      </trkpt>
      <trkpt lat="45.58177" lon="2.7255">
        <ele>951</ele>
        <time>2022-07-30T20:57:41.000Z</time>
      </trkpt>
      <trkpt lat="45.58179" lon="2.72544">
        <ele>960</ele>
        <time>2022-07-30T20:57:42.000Z</time>
      </trkpt>
      <trkpt lat="45.58181" lon="2.72538">
        <ele>960</ele>
        <time>2022-07-30T20:57:43.000Z</time>
      </trkpt>
      <trkpt lat="45.58183" lon="2.72532">
        <ele>960</ele>
        <time>2022-07-30T20:57:44.000Z</time>
      </trkpt>
      <trkpt lat="45.58186" lon="2.72526">
        <ele>960</ele>
        <time>2022-07-30T20:57:45.000Z</time>
      </trkpt>
      <trkpt lat="45.58188" lon="2.7252">
        <ele>960</ele>
        <time>2022-07-30T20:57:46.000Z</time>
      </trkpt>
      <trkpt lat="45.58189" lon="2.72511">
        <ele>960</ele>
        <time>2022-07-30T20:57:47.000Z</time>
      </trkpt>
      <trkpt lat="45.5819" lon="2.72502">
        <ele>960</ele>
        <time>2022-07-30T20:57:48.000Z</time>
      </trkpt>
      <trkpt lat="45.5819" lon="2.72494">
        <ele>960</ele>
        <time>2022-07-30T20:57:49.000Z</time>
      </trkpt>
      <trkpt lat="45.5819" lon="2.72486">
        <ele>960</ele>
        <time>2022-07-30T20:57:50.000Z</time>
      </trkpt>
      <trkpt lat="45.58191" lon="2.72478">
        <ele>960</ele>
        <time>2022-07-30T20:57:51.000Z</time>
      </trkpt>
      <trkpt lat="45.58191" lon="2.7247">
        <ele>960</ele>
        <time>2022-07-30T20:57:52.000Z</time>
      </trkpt>
      <trkpt lat="45.58194" lon="2.72464">
        <ele>960</ele>
        <time>2022-07-30T20:57:53.000Z</time>
      </trkpt>
      <trkpt lat="45.58197" lon="2.72457">
        <ele>960</ele>
        <time>2022-07-30T20:57:54.000Z</time>
      </trkpt>
      <trkpt lat="45.58202" lon="2.72453">
        <ele>963</ele>
        <time>2022-07-30T20:57:55.000Z</time>
      </trkpt>
      <trkpt lat="45.58208" lon="2.7245">
        <ele>963</ele>
        <time>2022-07-30T20:57:56.000Z</time>
      </trkpt>
      <trkpt lat="45.58213" lon="2.72449">
        <ele>963</ele>
        <time>2022-07-30T20:57:57.000Z</time>
      </trkpt>
      <trkpt lat="45.58217" lon="2.72449">
        <ele>963</ele>
        <time>2022-07-30T20:57:58.000Z</time>
      </trkpt>
      <trkpt lat="45.58222" lon="2.72448">
        <ele>963</ele>
        <time>2022-07-30T20:57:59.000Z</time>
      </trkpt>
      <trkpt lat="45.58226" lon="2.72447">
        <ele>963</ele>
        <time>2022-07-30T20:58:00.000Z</time>
      </trkpt>
      <trkpt lat="45.58231" lon="2.72447">
        <ele>963</ele>
        <time>2022-07-30T20:58:01.000Z</time>
      </trkpt>
      <trkpt lat="45.58235" lon="2.72446">
        <ele>963</ele>
        <time>2022-07-30T20:58:02.000Z</time>
      </trkpt>
      <trkpt lat="45.5824" lon="2.72445">
        <ele>963</ele>
        <time>2022-07-30T20:58:03.000Z</time>
      </trkpt>
      <trkpt lat="45.58238" lon="2.72443">
        <ele>963</ele>
        <time>2022-07-30T20:58:04.000Z</time>
      </trkpt>
      <trkpt lat="45.58234" lon="2.7244">
        <ele>963</ele>
        <time>2022-07-30T20:58:05.000Z</time>
      </trkpt>
      <trkpt lat="45.5823" lon="2.72436">
        <ele>963</ele>
        <time>2022-07-30T20:58:06.000Z</time>
      </trkpt>
      <trkpt lat="45.58225" lon="2.72433">
        <ele>963</ele>
        <time>2022-07-30T20:58:07.000Z</time>
      </trkpt>
      <trkpt lat="45.58221" lon="2.72429">
        <ele>968</ele>
        <time>2022-07-30T20:58:08.000Z</time>
      </trkpt>
      <trkpt lat="45.58216" lon="2.72426">
        <ele>968</ele>
        <time>2022-07-30T20:58:09.000Z</time>
      </trkpt>
      <trkpt lat="45.58212" lon="2.72422">
        <ele>968</ele>
        <time>2022-07-30T20:58:10.000Z</time>
      </trkpt>
      <trkpt lat="45.58207" lon="2.7242">
        <ele>968</ele>
        <time>2022-07-30T20:58:11.000Z</time>
      </trkpt>
      <trkpt lat="45.58203" lon="2.72418">
        <ele>968</ele>
        <time>2022-07-30T20:58:12.000Z</time>
      </trkpt>
      <trkpt lat="45.58198" lon="2.72416">
        <ele>968</ele>
        <time>2022-07-30T20:58:13.000Z</time>
      </trkpt>
      <trkpt lat="45.58194" lon="2.72414">
        <ele>968</ele>
        <time>2022-07-30T20:58:14.000Z</time>
      </trkpt>
      <trkpt lat="45.5819" lon="2.72412">
        <ele>968</ele>
        <time>2022-07-30T20:58:15.000Z</time>
      </trkpt>
      <trkpt lat="45.58185" lon="2.7241">
        <ele>968</ele>
        <time>2022-07-30T20:58:16.000Z</time>
      </trkpt>
      <trkpt lat="45.58181" lon="2.72408">
        <ele>968</ele>
        <time>2022-07-30T20:58:17.000Z</time>
      </trkpt>
      <trkpt lat="45.58177" lon="2.72404">
        <ele>968</ele>
        <time>2022-07-30T20:58:18.000Z</time>
      </trkpt>
      <trkpt lat="45.58173" lon="2.724">
        <ele>968</ele>
        <time>2022-07-30T20:58:19.000Z</time>
      </trkpt>
      <trkpt lat="45.58168" lon="2.72396">
        <ele>968</ele>
        <time>2022-07-30T20:58:20.000Z</time>
      </trkpt>
      <trkpt lat="45.58165" lon="2.72391">
        <ele>970</ele>
        <time>2022-07-30T20:58:21.000Z</time>
      </trkpt>
      <trkpt lat="45.58162" lon="2.72386">
        <ele>970</ele>
        <time>2022-07-30T20:58:22.000Z</time>
      </trkpt>
      <trkpt lat="45.58159" lon="2.72381">
        <ele>970</ele>
        <time>2022-07-30T20:58:23.000Z</time>
      </trkpt>
      <trkpt lat="45.58156" lon="2.72376">
        <ele>970</ele>
        <time>2022-07-30T20:58:24.000Z</time>
      </trkpt>
      <trkpt lat="45.58153" lon="2.72372">
        <ele>970</ele>
        <time>2022-07-30T20:58:25.000Z</time>
      </trkpt>
      <trkpt lat="45.5815" lon="2.72367">
        <ele>970</ele>
        <time>2022-07-30T20:58:26.000Z</time>
      </trkpt>
      <trkpt lat="45.58147" lon="2.72362">
        <ele>970</ele>
        <time>2022-07-30T20:58:27.000Z</time>
      </trkpt>
      <trkpt lat="45.58143" lon="2.72358">
        <ele>970</ele>
        <time>2022-07-30T20:58:28.000Z</time>
      </trkpt>
      <trkpt lat="45.58139" lon="2.72355">
        <ele>970</ele>
        <time>2022-07-30T20:58:29.000Z</time>
      </trkpt>
      <trkpt lat="45.58135" lon="2.72352">
        <ele>970</ele>
        <time>2022-07-30T20:58:30.000Z</time>
      </trkpt>
      <trkpt lat="45.58131" lon="2.72348">
        <ele>970</ele>
        <time>2022-07-30T20:58:31.000Z</time>
      </trkpt>
      <trkpt lat="45.58127" lon="2.72345">
        <ele>968</ele>
        <time>2022-07-30T20:58:32.000Z</time>
      </trkpt>
      <trkpt lat="45.58122" lon="2.72344">
        <ele>968</ele>
        <time>2022-07-30T20:58:33.000Z</time>
      </trkpt>
      <trkpt lat="45.58117" lon="2.72343">
        <ele>982</ele>
        <time>2022-07-30T20:58:34.000Z</time>
      </trkpt>
      <trkpt lat="45.58113" lon="2.72343">
        <ele>982</ele>
        <time>2022-07-30T20:58:35.000Z</time>
      </trkpt>
      <trkpt lat="45.58108" lon="2.72342">
        <ele>982</ele>
        <time>2022-07-30T20:58:36.000Z</time>
      </trkpt>
      <trkpt lat="45.58104" lon="2.72344">
        <ele>982</ele>
        <time>2022-07-30T20:58:37.000Z</time>
      </trkpt>
      <trkpt lat="45.58099" lon="2.72346">
        <ele>982</ele>
        <time>2022-07-30T20:58:38.000Z</time>
      </trkpt>
      <trkpt lat="45.58095" lon="2.72348">
        <ele>982</ele>
        <time>2022-07-30T20:58:39.000Z</time>
      </trkpt>
      <trkpt lat="45.5809" lon="2.72351">
        <ele>982</ele>
        <time>2022-07-30T20:58:40.000Z</time>
      </trkpt>
      <trkpt lat="45.58085" lon="2.72353">
        <ele>982</ele>
        <time>2022-07-30T20:58:41.000Z</time>
      </trkpt>
      <trkpt lat="45.58081" lon="2.72355">
        <ele>982</ele>
        <time>2022-07-30T20:58:42.000Z</time>
      </trkpt>
      <trkpt lat="45.58077" lon="2.72358">
        <ele>982</ele>
        <time>2022-07-30T20:58:43.000Z</time>
      </trkpt>
      <trkpt lat="45.58072" lon="2.72361">
        <ele>982</ele>
        <time>2022-07-30T20:58:44.000Z</time>
      </trkpt>
      <trkpt lat="45.58068" lon="2.72364">
        <ele>982</ele>
        <time>2022-07-30T20:58:45.000Z</time>
      </trkpt>
      <trkpt lat="45.58064" lon="2.72367">
        <ele>982</ele>
        <time>2022-07-30T20:58:46.000Z</time>
      </trkpt>
      <trkpt lat="45.58059" lon="2.7237">
        <ele>982</ele>
        <time>2022-07-30T20:58:47.000Z</time>
      </trkpt>
      <trkpt lat="45.58055" lon="2.72373">
        <ele>982</ele>
        <time>2022-07-30T20:58:48.000Z</time>
      </trkpt>
      <trkpt lat="45.5805" lon="2.72378">
        <ele>982</ele>
        <time>2022-07-30T20:58:49.000Z</time>
      </trkpt>
      <trkpt lat="45.58046" lon="2.72382">
        <ele>982</ele>
        <time>2022-07-30T20:58:50.000Z</time>
      </trkpt>
      <trkpt lat="45.58041" lon="2.72386">
        <ele>982</ele>
        <time>2022-07-30T20:58:51.000Z</time>
      </trkpt>
      <trkpt lat="45.58036" lon="2.72392">
        <ele>982</ele>
        <time>2022-07-30T20:58:52.000Z</time>
      </trkpt>
      <trkpt lat="45.5803" lon="2.72398">
        <ele>985</ele>
        <time>2022-07-30T20:58:53.000Z</time>
      </trkpt>
      <trkpt lat="45.58025" lon="2.72399">
        <ele>985</ele>
        <time>2022-07-30T20:58:54.000Z</time>
      </trkpt>
      <trkpt lat="45.58021" lon="2.72394">
        <ele>985</ele>
        <time>2022-07-30T20:58:55.000Z</time>
      </trkpt>
      <trkpt lat="45.58022" lon="2.72387">
        <ele>985</ele>
        <time>2022-07-30T20:58:56.000Z</time>
      </trkpt>
      <trkpt lat="45.58025" lon="2.7238">
        <ele>985</ele>
        <time>2022-07-30T20:58:57.000Z</time>
      </trkpt>
      <trkpt lat="45.58027" lon="2.72373">
        <ele>985</ele>
        <time>2022-07-30T20:58:58.000Z</time>
      </trkpt>
      <trkpt lat="45.5803" lon="2.72367">
        <ele>985</ele>
        <time>2022-07-30T20:58:59.000Z</time>
      </trkpt>
      <trkpt lat="45.58033" lon="2.72362">
        <ele>985</ele>
        <time>2022-07-30T20:59:00.000Z</time>
      </trkpt>
      <trkpt lat="45.58036" lon="2.72357">
        <ele>985</ele>
        <time>2022-07-30T20:59:01.000Z</time>
      </trkpt>
      <trkpt lat="45.58039" lon="2.72352">
        <ele>985</ele>
        <time>2022-07-30T20:59:02.000Z</time>
      </trkpt>
      <trkpt lat="45.58042" lon="2.72347">
        <ele>985</ele>
        <time>2022-07-30T20:59:03.000Z</time>
      </trkpt>
      <trkpt lat="45.58045" lon="2.72342">
        <ele>985</ele>
        <time>2022-07-30T20:59:04.000Z</time>
      </trkpt>
      <trkpt lat="45.58048" lon="2.72337">
        <ele>985</ele>
        <time>2022-07-30T20:59:05.000Z</time>
      </trkpt>
      <trkpt lat="45.58051" lon="2.72332">
        <ele>985</ele>
        <time>2022-07-30T20:59:06.000Z</time>
      </trkpt>
      <trkpt lat="45.58054" lon="2.72327">
        <ele>985</ele>
        <time>2022-07-30T20:59:07.000Z</time>
      </trkpt>
      <trkpt lat="45.58057" lon="2.72323">
        <ele>985</ele>
        <time>2022-07-30T20:59:08.000Z</time>
      </trkpt>
      <trkpt lat="45.5806" lon="2.72318">
        <ele>985</ele>
        <time>2022-07-30T20:59:09.000Z</time>
      </trkpt>
      <trkpt lat="45.58064" lon="2.72313">
        <ele>985</ele>
        <time>2022-07-30T20:59:10.000Z</time>
      </trkpt>
      <trkpt lat="45.58068" lon="2.72308">
        <ele>985</ele>
        <time>2022-07-30T20:59:11.000Z</time>
      </trkpt>
      <trkpt lat="45.58072" lon="2.72303">
        <ele>1001</ele>
        <time>2022-07-30T20:59:12.000Z</time>
      </trkpt>
      <trkpt lat="45.58077" lon="2.72301">
        <ele>1001</ele>
        <time>2022-07-30T20:59:13.000Z</time>
      </trkpt>
      <trkpt lat="45.58082" lon="2.72298">
        <ele>1001</ele>
        <time>2022-07-30T20:59:14.000Z</time>
      </trkpt>
      <trkpt lat="45.58087" lon="2.72296">
        <ele>1001</ele>
        <time>2022-07-30T20:59:15.000Z</time>
      </trkpt>
      <trkpt lat="45.58092" lon="2.72294">
        <ele>1001</ele>
        <time>2022-07-30T20:59:16.000Z</time>
      </trkpt>
      <trkpt lat="45.58097" lon="2.72292">
        <ele>1001</ele>
        <time>2022-07-30T20:59:17.000Z</time>
      </trkpt>
      <trkpt lat="45.58102" lon="2.7229">
        <ele>1001</ele>
        <time>2022-07-30T20:59:18.000Z</time>
      </trkpt>
      <trkpt lat="45.58107" lon="2.72288">
        <ele>1001</ele>
        <time>2022-07-30T20:59:19.000Z</time>
      </trkpt>
      <trkpt lat="45.58112" lon="2.72286">
        <ele>1001</ele>
        <time>2022-07-30T20:59:20.000Z</time>
      </trkpt>
      <trkpt lat="45.58116" lon="2.72284">
        <ele>1001</ele>
        <time>2022-07-30T20:59:21.000Z</time>
      </trkpt>
      <trkpt lat="45.58121" lon="2.72282">
        <ele>1001</ele>
        <time>2022-07-30T20:59:22.000Z</time>
      </trkpt>
      <trkpt lat="45.58127" lon="2.72282">
        <ele>1001</ele>
        <time>2022-07-30T20:59:23.000Z</time>
      </trkpt>
      <trkpt lat="45.58133" lon="2.72282">
        <ele>1001</ele>
        <time>2022-07-30T20:59:24.000Z</time>
      </trkpt>
      <trkpt lat="45.58138" lon="2.72283">
        <ele>1001</ele>
        <time>2022-07-30T20:59:25.000Z</time>
      </trkpt>
      <trkpt lat="45.58143" lon="2.72285">
        <ele>1001</ele>
        <time>2022-07-30T20:59:26.000Z</time>
      </trkpt>
      <trkpt lat="45.58148" lon="2.72286">
        <ele>1001</ele>
        <time>2022-07-30T20:59:27.000Z</time>
      </trkpt>
      <trkpt lat="45.58153" lon="2.72287">
        <ele>1001</ele>
        <time>2022-07-30T20:59:28.000Z</time>
      </trkpt>
      <trkpt lat="45.58158" lon="2.72289">
        <ele>1001</ele>
        <time>2022-07-30T20:59:29.000Z</time>
      </trkpt>
      <trkpt lat="45.58163" lon="2.7229">
        <ele>1001</ele>
        <time>2022-07-30T20:59:30.000Z</time>
      </trkpt>
      <trkpt lat="45.58168" lon="2.72291">
        <ele>1025</ele>
        <time>2022-07-30T20:59:31.000Z</time>
      </trkpt>
      <trkpt lat="45.58172" lon="2.72291">
        <ele>1006</ele>
        <time>2022-07-30T20:59:32.000Z</time>
      </trkpt>
      <trkpt lat="45.58177" lon="2.7229">
        <ele>1006</ele>
        <time>2022-07-30T20:59:33.000Z</time>
      </trkpt>
      <trkpt lat="45.58184" lon="2.72282">
        <ele>1006</ele>
        <time>2022-07-30T20:59:34.000Z</time>
      </trkpt>
      <trkpt lat="45.58186" lon="2.72275">
        <ele>1006</ele>
        <time>2022-07-30T20:59:35.000Z</time>
      </trkpt>
      <trkpt lat="45.58188" lon="2.72268">
        <ele>1006</ele>
        <time>2022-07-30T20:59:36.000Z</time>
      </trkpt>
      <trkpt lat="45.58189" lon="2.72261">
        <ele>1006</ele>
        <time>2022-07-30T20:59:37.000Z</time>
      </trkpt>
      <trkpt lat="45.58191" lon="2.72254">
        <ele>1006</ele>
        <time>2022-07-30T20:59:38.000Z</time>
      </trkpt>
      <trkpt lat="45.58192" lon="2.72246">
        <ele>1006</ele>
        <time>2022-07-30T20:59:39.000Z</time>
      </trkpt>
      <trkpt lat="45.58193" lon="2.72239">
        <ele>1006</ele>
        <time>2022-07-30T20:59:40.000Z</time>
      </trkpt>
      <trkpt lat="45.58193" lon="2.72232">
        <ele>1006</ele>
        <time>2022-07-30T20:59:41.000Z</time>
      </trkpt>
      <trkpt lat="45.58192" lon="2.72224">
        <ele>1006</ele>
        <time>2022-07-30T20:59:42.000Z</time>
      </trkpt>
      <trkpt lat="45.58192" lon="2.72217">
        <ele>1006</ele>
        <time>2022-07-30T20:59:43.000Z</time>
      </trkpt>
      <trkpt lat="45.58191" lon="2.7221">
        <ele>1006</ele>
        <time>2022-07-30T20:59:44.000Z</time>
      </trkpt>
      <trkpt lat="45.58191" lon="2.72203">
        <ele>1006</ele>
        <time>2022-07-30T20:59:45.000Z</time>
      </trkpt>
      <trkpt lat="45.58191" lon="2.72197">
        <ele>1006</ele>
        <time>2022-07-30T20:59:46.000Z</time>
      </trkpt>
      <trkpt lat="45.58191" lon="2.72191">
        <ele>1006</ele>
        <time>2022-07-30T20:59:47.000Z</time>
      </trkpt>
      <trkpt lat="45.58191" lon="2.72185">
        <ele>1006</ele>
        <time>2022-07-30T20:59:48.000Z</time>
      </trkpt>
      <trkpt lat="45.58191" lon="2.72179">
        <ele>1006</ele>
        <time>2022-07-30T20:59:49.000Z</time>
      </trkpt>
      <trkpt lat="45.58191" lon="2.72174">
        <ele>1006</ele>
        <time>2022-07-30T20:59:50.000Z</time>
      </trkpt>
      <trkpt lat="45.58191" lon="2.72168">
        <ele>1006</ele>
        <time>2022-07-30T20:59:51.000Z</time>
      </trkpt>
      <trkpt lat="45.5819" lon="2.72159">
        <ele>1000</ele>
        <time>2022-07-30T20:59:52.000Z</time>
      </trkpt>
      <trkpt lat="45.5819" lon="2.72151">
        <ele>1000</ele>
        <time>2022-07-30T20:59:53.000Z</time>
      </trkpt>
      <trkpt lat="45.58189" lon="2.72142">
        <ele>1000</ele>
        <time>2022-07-30T20:59:54.000Z</time>
      </trkpt>
      <trkpt lat="45.58188" lon="2.72136">
        <ele>1000</ele>
        <time>2022-07-30T20:59:55.000Z</time>
      </trkpt>
      <trkpt lat="45.58186" lon="2.7213">
        <ele>1000</ele>
        <time>2022-07-30T20:59:56.000Z</time>
      </trkpt>
      <trkpt lat="45.58185" lon="2.72123">
        <ele>1000</ele>
        <time>2022-07-30T20:59:57.000Z</time>
      </trkpt>
      <trkpt lat="45.58182" lon="2.72118">
        <ele>1000</ele>
        <time>2022-07-30T20:59:58.000Z</time>
      </trkpt>
      <trkpt lat="45.58179" lon="2.72112">
        <ele>1000</ele>
        <time>2022-07-30T20:59:59.000Z</time>
      </trkpt>
      <trkpt lat="45.58175" lon="2.72108">
        <ele>1000</ele>
        <time>2022-07-30T21:00:00.000Z</time>
      </trkpt>
      <trkpt lat="45.58171" lon="2.72104">
        <ele>1000</ele>
        <time>2022-07-30T21:00:01.000Z</time>
      </trkpt>
      <trkpt lat="45.58167" lon="2.721">
        <ele>1000</ele>
        <time>2022-07-30T21:00:02.000Z</time>
      </trkpt>
      <trkpt lat="45.58163" lon="2.72095">
        <ele>1000</ele>
        <time>2022-07-30T21:00:03.000Z</time>
      </trkpt>
      <trkpt lat="45.58159" lon="2.7209">
        <ele>1000</ele>
        <time>2022-07-30T21:00:04.000Z</time>
      </trkpt>
      <trkpt lat="45.58155" lon="2.72084">
        <ele>1000</ele>
        <time>2022-07-30T21:00:05.000Z</time>
      </trkpt>
      <trkpt lat="45.58151" lon="2.72079">
        <ele>1011</ele>
        <time>2022-07-30T21:00:06.000Z</time>
      </trkpt>
      <trkpt lat="45.58145" lon="2.72075">
        <ele>1011</ele>
        <time>2022-07-30T21:00:07.000Z</time>
      </trkpt>
      <trkpt lat="45.58137" lon="2.72076">
        <ele>1011</ele>
        <time>2022-07-30T21:00:08.000Z</time>
      </trkpt>
      <trkpt lat="45.58134" lon="2.72083">
        <ele>1011</ele>
        <time>2022-07-30T21:00:09.000Z</time>
      </trkpt>
      <trkpt lat="45.5813" lon="2.7209">
        <ele>1011</ele>
        <time>2022-07-30T21:00:10.000Z</time>
      </trkpt>
      <trkpt lat="45.58126" lon="2.72097">
        <ele>1011</ele>
        <time>2022-07-30T21:00:11.000Z</time>
      </trkpt>
      <trkpt lat="45.58123" lon="2.72102">
        <ele>1011</ele>
        <time>2022-07-30T21:00:12.000Z</time>
      </trkpt>
      <trkpt lat="45.5812" lon="2.72108">
        <ele>1011</ele>
        <time>2022-07-30T21:00:13.000Z</time>
      </trkpt>
      <trkpt lat="45.58115" lon="2.72112">
        <ele>1011</ele>
        <time>2022-07-30T21:00:14.000Z</time>
      </trkpt>
      <trkpt lat="45.58111" lon="2.72116">
        <ele>1011</ele>
        <time>2022-07-30T21:00:15.000Z</time>
      </trkpt>
      <trkpt lat="45.58107" lon="2.72121">
        <ele>1011</ele>
        <time>2022-07-30T21:00:16.000Z</time>
      </trkpt>
      <trkpt lat="45.58103" lon="2.72125">
        <ele>1011</ele>
        <time>2022-07-30T21:00:17.000Z</time>
      </trkpt>
      <trkpt lat="45.58099" lon="2.72129">
        <ele>1011</ele>
        <time>2022-07-30T21:00:18.000Z</time>
      </trkpt>
      <trkpt lat="45.58095" lon="2.72136">
        <ele>1013</ele>
        <time>2022-07-30T21:00:19.000Z</time>
      </trkpt>
      <trkpt lat="45.58091" lon="2.72142">
        <ele>1013</ele>
        <time>2022-07-30T21:00:20.000Z</time>
      </trkpt>
      <trkpt lat="45.58086" lon="2.72148">
        <ele>1013</ele>
        <time>2022-07-30T21:00:21.000Z</time>
      </trkpt>
      <trkpt lat="45.58084" lon="2.72154">
        <ele>1013</ele>
        <time>2022-07-30T21:00:22.000Z</time>
      </trkpt>
      <trkpt lat="45.58081" lon="2.72159">
        <ele>1013</ele>
        <time>2022-07-30T21:00:23.000Z</time>
      </trkpt>
      <trkpt lat="45.58078" lon="2.72165">
        <ele>1013</ele>
        <time>2022-07-30T21:00:24.000Z</time>
      </trkpt>
      <trkpt lat="45.58076" lon="2.72171">
        <ele>1013</ele>
        <time>2022-07-30T21:00:25.000Z</time>
      </trkpt>
      <trkpt lat="45.58073" lon="2.72176">
        <ele>1013</ele>
        <time>2022-07-30T21:00:26.000Z</time>
      </trkpt>
      <trkpt lat="45.58068" lon="2.7218">
        <ele>1013</ele>
        <time>2022-07-30T21:00:27.000Z</time>
      </trkpt>
      <trkpt lat="45.58062" lon="2.72183">
        <ele>1013</ele>
        <time>2022-07-30T21:00:28.000Z</time>
      </trkpt>
      <trkpt lat="45.58057" lon="2.72183">
        <ele>1013</ele>
        <time>2022-07-30T21:00:29.000Z</time>
      </trkpt>
      <trkpt lat="45.58053" lon="2.72183">
        <ele>1013</ele>
        <time>2022-07-30T21:00:30.000Z</time>
      </trkpt>
      <trkpt lat="45.58048" lon="2.72182">
        <ele>1013</ele>
        <time>2022-07-30T21:00:31.000Z</time>
      </trkpt>
      <trkpt lat="45.58043" lon="2.72182">
        <ele>1013</ele>
        <time>2022-07-30T21:00:32.000Z</time>
      </trkpt>
      <trkpt lat="45.58039" lon="2.72182">
        <ele>1013</ele>
        <time>2022-07-30T21:00:33.000Z</time>
      </trkpt>
      <trkpt lat="45.58034" lon="2.72181">
        <ele>1014</ele>
        <time>2022-07-30T21:00:34.000Z</time>
      </trkpt>
      <trkpt lat="45.58029" lon="2.72181">
        <ele>1014</ele>
        <time>2022-07-30T21:00:35.000Z</time>
      </trkpt>
      <trkpt lat="45.58024" lon="2.72181">
        <ele>1014</ele>
        <time>2022-07-30T21:00:36.000Z</time>
      </trkpt>
      <trkpt lat="45.5802" lon="2.72183">
        <ele>1014</ele>
        <time>2022-07-30T21:00:37.000Z</time>
      </trkpt>
      <trkpt lat="45.58016" lon="2.72186">
        <ele>1014</ele>
        <time>2022-07-30T21:00:38.000Z</time>
      </trkpt>
      <trkpt lat="45.58012" lon="2.72189">
        <ele>1014</ele>
        <time>2022-07-30T21:00:39.000Z</time>
      </trkpt>
      <trkpt lat="45.58007" lon="2.72192">
        <ele>1029</ele>
        <time>2022-07-30T21:00:40.000Z</time>
      </trkpt>
      <trkpt lat="45.58003" lon="2.72195">
        <ele>1029</ele>
        <time>2022-07-30T21:00:41.000Z</time>
      </trkpt>
      <trkpt lat="45.57999" lon="2.72198">
        <ele>1029</ele>
        <time>2022-07-30T21:00:42.000Z</time>
      </trkpt>
      <trkpt lat="45.57995" lon="2.72201">
        <ele>1029</ele>
        <time>2022-07-30T21:00:43.000Z</time>
      </trkpt>
      <trkpt lat="45.57991" lon="2.72206">
        <ele>1029</ele>
        <time>2022-07-30T21:00:44.000Z</time>
      </trkpt>
      <trkpt lat="45.57988" lon="2.7221">
        <ele>1029</ele>
        <time>2022-07-30T21:00:45.000Z</time>
      </trkpt>
      <trkpt lat="45.57984" lon="2.72215">
        <ele>1029</ele>
        <time>2022-07-30T21:00:46.000Z</time>
      </trkpt>
      <trkpt lat="45.57981" lon="2.72219">
        <ele>1029</ele>
        <time>2022-07-30T21:00:47.000Z</time>
      </trkpt>
      <trkpt lat="45.57977" lon="2.72224">
        <ele>1029</ele>
        <time>2022-07-30T21:00:48.000Z</time>
      </trkpt>
      <trkpt lat="45.57974" lon="2.72228">
        <ele>1029</ele>
        <time>2022-07-30T21:00:49.000Z</time>
      </trkpt>
      <trkpt lat="45.5797" lon="2.72233">
        <ele>1029</ele>
        <time>2022-07-30T21:00:50.000Z</time>
      </trkpt>
      <trkpt lat="45.57967" lon="2.72237">
        <ele>1029</ele>
        <time>2022-07-30T21:00:51.000Z</time>
      </trkpt>
      <trkpt lat="45.57962" lon="2.7224">
        <ele>1029</ele>
        <time>2022-07-30T21:00:52.000Z</time>
      </trkpt>
      <trkpt lat="45.57958" lon="2.72243">
        <ele>1029</ele>
        <time>2022-07-30T21:00:53.000Z</time>
      </trkpt>
      <trkpt lat="45.57954" lon="2.72246">
        <ele>1029</ele>
        <time>2022-07-30T21:00:54.000Z</time>
      </trkpt>
      <trkpt lat="45.57949" lon="2.72249">
        <ele>1029</ele>
        <time>2022-07-30T21:00:55.000Z</time>
      </trkpt>
      <trkpt lat="45.57945" lon="2.72251">
        <ele>1025</ele>
        <time>2022-07-30T21:00:56.000Z</time>
      </trkpt>
      <trkpt lat="45.57941" lon="2.72254">
        <ele>1025</ele>
        <time>2022-07-30T21:00:57.000Z</time>
      </trkpt>
      <trkpt lat="45.57936" lon="2.72257">
        <ele>1025</ele>
        <time>2022-07-30T21:00:58.000Z</time>
      </trkpt>
      <trkpt lat="45.57932" lon="2.7226">
        <ele>1025</ele>
        <time>2022-07-30T21:00:59.000Z</time>
      </trkpt>
      <trkpt lat="45.57928" lon="2.72263">
        <ele>1025</ele>
        <time>2022-07-30T21:01:00.000Z</time>
      </trkpt>
      <trkpt lat="45.57923" lon="2.72266">
        <ele>1025</ele>
        <time>2022-07-30T21:01:01.000Z</time>
      </trkpt>
      <trkpt lat="45.57917" lon="2.72267">
        <ele>1025</ele>
        <time>2022-07-30T21:01:02.000Z</time>
      </trkpt>
      <trkpt lat="45.57912" lon="2.72269">
        <ele>1049</ele>
        <time>2022-07-30T21:01:03.000Z</time>
      </trkpt>
      <trkpt lat="45.57906" lon="2.72271">
        <ele>1049</ele>
        <time>2022-07-30T21:01:04.000Z</time>
      </trkpt>
      <trkpt lat="45.57901" lon="2.72272">
        <ele>1049</ele>
        <time>2022-07-30T21:01:05.000Z</time>
      </trkpt>
      <trkpt lat="45.57897" lon="2.72274">
        <ele>1049</ele>
        <time>2022-07-30T21:01:06.000Z</time>
      </trkpt>
      <trkpt lat="45.57892" lon="2.72276">
        <ele>1049</ele>
        <time>2022-07-30T21:01:07.000Z</time>
      </trkpt>
      <trkpt lat="45.57887" lon="2.72276">
        <ele>1049</ele>
        <time>2022-07-30T21:01:08.000Z</time>
      </trkpt>
      <trkpt lat="45.57882" lon="2.72277">
        <ele>1049</ele>
        <time>2022-07-30T21:01:09.000Z</time>
      </trkpt>
      <trkpt lat="45.57878" lon="2.72277">
        <ele>1049</ele>
        <time>2022-07-30T21:01:10.000Z</time>
      </trkpt>
      <trkpt lat="45.57873" lon="2.72278">
        <ele>1049</ele>
        <time>2022-07-30T21:01:11.000Z</time>
      </trkpt>
      <trkpt lat="45.57868" lon="2.72278">
        <ele>1049</ele>
        <time>2022-07-30T21:01:12.000Z</time>
      </trkpt>
      <trkpt lat="45.57863" lon="2.72279">
        <ele>1049</ele>
        <time>2022-07-30T21:01:13.000Z</time>
      </trkpt>
      <trkpt lat="45.57858" lon="2.72279">
        <ele>1049</ele>
        <time>2022-07-30T21:01:14.000Z</time>
      </trkpt>
      <trkpt lat="45.57852" lon="2.72282">
        <ele>1049</ele>
        <time>2022-07-30T21:01:15.000Z</time>
      </trkpt>
      <trkpt lat="45.57845" lon="2.72284">
        <ele>1049</ele>
        <time>2022-07-30T21:01:16.000Z</time>
      </trkpt>
      <trkpt lat="45.57841" lon="2.72286">
        <ele>1049</ele>
        <time>2022-07-30T21:01:17.000Z</time>
      </trkpt>
      <trkpt lat="45.57836" lon="2.72289">
        <ele>1049</ele>
        <time>2022-07-30T21:01:18.000Z</time>
      </trkpt>
      <trkpt lat="45.57832" lon="2.72292">
        <ele>1049</ele>
        <time>2022-07-30T21:01:19.000Z</time>
      </trkpt>
      <trkpt lat="45.57827" lon="2.72294">
        <ele>1049</ele>
        <time>2022-07-30T21:01:20.000Z</time>
      </trkpt>
      <trkpt lat="45.57823" lon="2.72297">
        <ele>1049</ele>
        <time>2022-07-30T21:01:21.000Z</time>
      </trkpt>
      <trkpt lat="45.57818" lon="2.723">
        <ele>1083</ele>
        <time>2022-07-30T21:01:22.000Z</time>
      </trkpt>
      <trkpt lat="45.57814" lon="2.72303">
        <ele>1083</ele>
        <time>2022-07-30T21:01:23.000Z</time>
      </trkpt>
      <trkpt lat="45.57809" lon="2.72304">
        <ele>1083</ele>
        <time>2022-07-30T21:01:24.000Z</time>
      </trkpt>
      <trkpt lat="45.57804" lon="2.72306">
        <ele>1083</ele>
        <time>2022-07-30T21:01:25.000Z</time>
      </trkpt>
      <trkpt lat="45.57799" lon="2.72308">
        <ele>1083</ele>
        <time>2022-07-30T21:01:26.000Z</time>
      </trkpt>
      <trkpt lat="45.57795" lon="2.72309">
        <ele>1083</ele>
        <time>2022-07-30T21:01:27.000Z</time>
      </trkpt>
      <trkpt lat="45.5779" lon="2.72311">
        <ele>1054</ele>
        <time>2022-07-30T21:01:28.000Z</time>
      </trkpt>
      <trkpt lat="45.57785" lon="2.72313">
        <ele>1054</ele>
        <time>2022-07-30T21:01:29.000Z</time>
      </trkpt>
      <trkpt lat="45.5778" lon="2.72315">
        <ele>1054</ele>
        <time>2022-07-30T21:01:30.000Z</time>
      </trkpt>
      <trkpt lat="45.57775" lon="2.72318">
        <ele>1054</ele>
        <time>2022-07-30T21:01:31.000Z</time>
      </trkpt>
      <trkpt lat="45.5777" lon="2.7232">
        <ele>1054</ele>
        <time>2022-07-30T21:01:32.000Z</time>
      </trkpt>
      <trkpt lat="45.57766" lon="2.72323">
        <ele>1054</ele>
        <time>2022-07-30T21:01:33.000Z</time>
      </trkpt>
      <trkpt lat="45.57761" lon="2.72326">
        <ele>1054</ele>
        <time>2022-07-30T21:01:34.000Z</time>
      </trkpt>
      <trkpt lat="45.57757" lon="2.72328">
        <ele>1054</ele>
        <time>2022-07-30T21:01:35.000Z</time>
      </trkpt>
      <trkpt lat="45.57752" lon="2.72331">
        <ele>1054</ele>
        <time>2022-07-30T21:01:36.000Z</time>
      </trkpt>
      <trkpt lat="45.57748" lon="2.72334">
        <ele>1054</ele>
        <time>2022-07-30T21:01:37.000Z</time>
      </trkpt>
      <trkpt lat="45.57743" lon="2.72337">
        <ele>1054</ele>
        <time>2022-07-30T21:01:38.000Z</time>
      </trkpt>
      <trkpt lat="45.57739" lon="2.7234">
        <ele>1054</ele>
        <time>2022-07-30T21:01:39.000Z</time>
      </trkpt>
      <trkpt lat="45.57735" lon="2.72343">
        <ele>1071</ele>
        <time>2022-07-30T21:01:40.000Z</time>
      </trkpt>
      <trkpt lat="45.5773" lon="2.72346">
        <ele>1071</ele>
        <time>2022-07-30T21:01:41.000Z</time>
      </trkpt>
      <trkpt lat="45.57725" lon="2.72349">
        <ele>1071</ele>
        <time>2022-07-30T21:01:42.000Z</time>
      </trkpt>
      <trkpt lat="45.5772" lon="2.72351">
        <ele>1071</ele>
        <time>2022-07-30T21:01:43.000Z</time>
      </trkpt>
      <trkpt lat="45.57715" lon="2.72354">
        <ele>1071</ele>
        <time>2022-07-30T21:01:44.000Z</time>
      </trkpt>
      <trkpt lat="45.5771" lon="2.72357">
        <ele>1071</ele>
        <time>2022-07-30T21:01:45.000Z</time>
      </trkpt>
      <trkpt lat="45.57704" lon="2.7236">
        <ele>1071</ele>
        <time>2022-07-30T21:01:46.000Z</time>
      </trkpt>
      <trkpt lat="45.57699" lon="2.72363">
        <ele>1071</ele>
        <time>2022-07-30T21:01:47.000Z</time>
      </trkpt>
      <trkpt lat="45.57693" lon="2.72366">
        <ele>1071</ele>
        <time>2022-07-30T21:01:48.000Z</time>
      </trkpt>
      <trkpt lat="45.57692" lon="2.72373">
        <ele>1071</ele>
        <time>2022-07-30T21:01:49.000Z</time>
      </trkpt>
      <trkpt lat="45.5769" lon="2.7238">
        <ele>1071</ele>
        <time>2022-07-30T21:01:50.000Z</time>
      </trkpt>
      <trkpt lat="45.57688" lon="2.72387">
        <ele>1071</ele>
        <time>2022-07-30T21:01:51.000Z</time>
      </trkpt>
      <trkpt lat="45.57687" lon="2.72394">
        <ele>1071</ele>
        <time>2022-07-30T21:01:52.000Z</time>
      </trkpt>
      <trkpt lat="45.57684" lon="2.724">
        <ele>1071</ele>
        <time>2022-07-30T21:01:53.000Z</time>
      </trkpt>
      <trkpt lat="45.57682" lon="2.72406">
        <ele>1071</ele>
        <time>2022-07-30T21:01:54.000Z</time>
      </trkpt>
      <trkpt lat="45.57679" lon="2.72412">
        <ele>1071</ele>
        <time>2022-07-30T21:01:55.000Z</time>
      </trkpt>
      <trkpt lat="45.57677" lon="2.72418">
        <ele>1071</ele>
        <time>2022-07-30T21:01:56.000Z</time>
      </trkpt>
      <trkpt lat="45.57674" lon="2.72424">
        <ele>1100</ele>
        <time>2022-07-30T21:01:57.000Z</time>
      </trkpt>
      <trkpt lat="45.57671" lon="2.72428">
        <ele>1100</ele>
        <time>2022-07-30T21:01:58.000Z</time>
      </trkpt>
      <trkpt lat="45.57667" lon="2.72432">
        <ele>1100</ele>
        <time>2022-07-30T21:01:59.000Z</time>
      </trkpt>
      <trkpt lat="45.57663" lon="2.72437">
        <ele>1100</ele>
        <time>2022-07-30T21:02:00.000Z</time>
      </trkpt>
      <trkpt lat="45.5766" lon="2.72441">
        <ele>1100</ele>
        <time>2022-07-30T21:02:01.000Z</time>
      </trkpt>
      <trkpt lat="45.57656" lon="2.72445">
        <ele>1100</ele>
        <time>2022-07-30T21:02:02.000Z</time>
      </trkpt>
      <trkpt lat="45.57652" lon="2.7245">
        <ele>1100</ele>
        <time>2022-07-30T21:02:03.000Z</time>
      </trkpt>
      <trkpt lat="45.57649" lon="2.72454">
        <ele>1100</ele>
        <time>2022-07-30T21:02:04.000Z</time>
      </trkpt>
      <trkpt lat="45.57645" lon="2.72458">
        <ele>1100</ele>
        <time>2022-07-30T21:02:05.000Z</time>
      </trkpt>
      <trkpt lat="45.57642" lon="2.72462">
        <ele>1100</ele>
        <time>2022-07-30T21:02:06.000Z</time>
      </trkpt>
      <trkpt lat="45.57638" lon="2.72467">
        <ele>1100</ele>
        <time>2022-07-30T21:02:07.000Z</time>
      </trkpt>
      <trkpt lat="45.57637" lon="2.72473">
        <ele>1100</ele>
        <time>2022-07-30T21:02:08.000Z</time>
      </trkpt>
      <trkpt lat="45.57635" lon="2.72479">
        <ele>1062</ele>
        <time>2022-07-30T21:02:09.000Z</time>
      </trkpt>
      <trkpt lat="45.57634" lon="2.72485">
        <ele>1062</ele>
        <time>2022-07-30T21:02:10.000Z</time>
      </trkpt>
      <trkpt lat="45.57633" lon="2.72491">
        <ele>1062</ele>
        <time>2022-07-30T21:02:11.000Z</time>
      </trkpt>
      <trkpt lat="45.57632" lon="2.72497">
        <ele>1062</ele>
        <time>2022-07-30T21:02:12.000Z</time>
      </trkpt>
      <trkpt lat="45.5763" lon="2.72504">
        <ele>1062</ele>
        <time>2022-07-30T21:02:13.000Z</time>
      </trkpt>
      <trkpt lat="45.57629" lon="2.7251">
        <ele>1062</ele>
        <time>2022-07-30T21:02:14.000Z</time>
      </trkpt>
      <trkpt lat="45.5763" lon="2.72517">
        <ele>1102</ele>
        <time>2022-07-30T21:02:15.000Z</time>
      </trkpt>
      <trkpt lat="45.57632" lon="2.72524">
        <ele>1102</ele>
        <time>2022-07-30T21:02:16.000Z</time>
      </trkpt>
      <trkpt lat="45.57633" lon="2.72532">
        <ele>1102</ele>
        <time>2022-07-30T21:02:17.000Z</time>
      </trkpt>
      <trkpt lat="45.57634" lon="2.72539">
        <ele>1102</ele>
        <time>2022-07-30T21:02:18.000Z</time>
      </trkpt>
      <trkpt lat="45.57635" lon="2.72546">
        <ele>1102</ele>
        <time>2022-07-30T21:02:19.000Z</time>
      </trkpt>
      <trkpt lat="45.57636" lon="2.72553">
        <ele>1102</ele>
        <time>2022-07-30T21:02:20.000Z</time>
      </trkpt>
      <trkpt lat="45.57638" lon="2.7256">
        <ele>1102</ele>
        <time>2022-07-30T21:02:21.000Z</time>
      </trkpt>
      <trkpt lat="45.5764" lon="2.72566">
        <ele>1102</ele>
        <time>2022-07-30T21:02:22.000Z</time>
      </trkpt>
      <trkpt lat="45.57642" lon="2.72573">
        <ele>1102</ele>
        <time>2022-07-30T21:02:23.000Z</time>
      </trkpt>
      <trkpt lat="45.57643" lon="2.72579">
        <ele>1102</ele>
        <time>2022-07-30T21:02:24.000Z</time>
      </trkpt>
      <trkpt lat="45.57645" lon="2.72586">
        <ele>1102</ele>
        <time>2022-07-30T21:02:25.000Z</time>
      </trkpt>
      <trkpt lat="45.57647" lon="2.72592">
        <ele>1102</ele>
        <time>2022-07-30T21:02:26.000Z</time>
      </trkpt>
      <trkpt lat="45.57648" lon="2.72599">
        <ele>1102</ele>
        <time>2022-07-30T21:02:27.000Z</time>
      </trkpt>
      <trkpt lat="45.5765" lon="2.72605">
        <ele>1079</ele>
        <time>2022-07-30T21:02:28.000Z</time>
      </trkpt>
      <trkpt lat="45.57648" lon="2.72614">
        <ele>1079</ele>
        <time>2022-07-30T21:02:29.000Z</time>
      </trkpt>
      <trkpt lat="45.57646" lon="2.72622">
        <ele>1079</ele>
        <time>2022-07-30T21:02:30.000Z</time>
      </trkpt>
      <trkpt lat="45.57646" lon="2.72628">
        <ele>1079</ele>
        <time>2022-07-30T21:02:31.000Z</time>
      </trkpt>
      <trkpt lat="45.57645" lon="2.72635">
        <ele>1079</ele>
        <time>2022-07-30T21:02:32.000Z</time>
      </trkpt>
      <trkpt lat="45.57645" lon="2.72641">
        <ele>1079</ele>
        <time>2022-07-30T21:02:33.000Z</time>
      </trkpt>
      <trkpt lat="45.57644" lon="2.72648">
        <ele>1079</ele>
        <time>2022-07-30T21:02:34.000Z</time>
      </trkpt>
      <trkpt lat="45.57643" lon="2.72654">
        <ele>1079</ele>
        <time>2022-07-30T21:02:35.000Z</time>
      </trkpt>
      <trkpt lat="45.57642" lon="2.72662">
        <ele>1079</ele>
        <time>2022-07-30T21:02:36.000Z</time>
      </trkpt>
      <trkpt lat="45.57641" lon="2.72669">
        <ele>1079</ele>
        <time>2022-07-30T21:02:37.000Z</time>
      </trkpt>
      <trkpt lat="45.57639" lon="2.72677">
        <ele>1079</ele>
        <time>2022-07-30T21:02:38.000Z</time>
      </trkpt>
      <trkpt lat="45.57638" lon="2.72683">
        <ele>1079</ele>
        <time>2022-07-30T21:02:39.000Z</time>
      </trkpt>
      <trkpt lat="45.57637" lon="2.7269">
        <ele>1079</ele>
        <time>2022-07-30T21:02:40.000Z</time>
      </trkpt>
      <trkpt lat="45.57635" lon="2.72696">
        <ele>1126</ele>
        <time>2022-07-30T21:02:41.000Z</time>
      </trkpt>
      <trkpt lat="45.57634" lon="2.72702">
        <ele>1126</ele>
        <time>2022-07-30T21:02:42.000Z</time>
      </trkpt>
      <trkpt lat="45.57633" lon="2.72709">
        <ele>1126</ele>
        <time>2022-07-30T21:02:43.000Z</time>
      </trkpt>
      <trkpt lat="45.57631" lon="2.72715">
        <ele>1120</ele>
        <time>2022-07-30T21:02:44.000Z</time>
      </trkpt>
      <trkpt lat="45.57628" lon="2.72721">
        <ele>1120</ele>
        <time>2022-07-30T21:02:45.000Z</time>
      </trkpt>
      <trkpt lat="45.57625" lon="2.72726">
        <ele>1120</ele>
        <time>2022-07-30T21:02:46.000Z</time>
      </trkpt>
      <trkpt lat="45.57622" lon="2.72732">
        <ele>1120</ele>
        <time>2022-07-30T21:02:47.000Z</time>
      </trkpt>
      <trkpt lat="45.57619" lon="2.72737">
        <ele>1120</ele>
        <time>2022-07-30T21:02:48.000Z</time>
      </trkpt>
      <trkpt lat="45.57616" lon="2.72743">
        <ele>1068</ele>
        <time>2022-07-30T21:02:49.000Z</time>
      </trkpt>
      <trkpt lat="45.57616" lon="2.7275">
        <ele>1068</ele>
        <time>2022-07-30T21:02:50.000Z</time>
      </trkpt>
      <trkpt lat="45.57616" lon="2.72757">
        <ele>1068</ele>
        <time>2022-07-30T21:02:51.000Z</time>
      </trkpt>
      <trkpt lat="45.57615" lon="2.72764">
        <ele>1068</ele>
        <time>2022-07-30T21:02:52.000Z</time>
      </trkpt>
      <trkpt lat="45.57615" lon="2.72771">
        <ele>1068</ele>
        <time>2022-07-30T21:02:53.000Z</time>
      </trkpt>
      <trkpt lat="45.57615" lon="2.72777">
        <ele>1068</ele>
        <time>2022-07-30T21:02:54.000Z</time>
      </trkpt>
      <trkpt lat="45.57615" lon="2.72784">
        <ele>1068</ele>
        <time>2022-07-30T21:02:55.000Z</time>
      </trkpt>
      <trkpt lat="45.57615" lon="2.7279">
        <ele>1077</ele>
        <time>2022-07-30T21:02:56.000Z</time>
      </trkpt>
      <trkpt lat="45.57615" lon="2.72797">
        <ele>1077</ele>
        <time>2022-07-30T21:02:57.000Z</time>
      </trkpt>
      <trkpt lat="45.57614" lon="2.72803">
        <ele>1077</ele>
        <time>2022-07-30T21:02:58.000Z</time>
      </trkpt>
      <trkpt lat="45.57614" lon="2.7281">
        <ele>1077</ele>
        <time>2022-07-30T21:02:59.000Z</time>
      </trkpt>
      <trkpt lat="45.57614" lon="2.72816">
        <ele>1077</ele>
        <time>2022-07-30T21:03:00.000Z</time>
      </trkpt>
      <trkpt lat="45.57615" lon="2.72823">
        <ele>1077</ele>
        <time>2022-07-30T21:03:01.000Z</time>
      </trkpt>
      <trkpt lat="45.57616" lon="2.7283">
        <ele>1077</ele>
        <time>2022-07-30T21:03:02.000Z</time>
      </trkpt>
      <trkpt lat="45.57617" lon="2.72837">
        <ele>1077</ele>
        <time>2022-07-30T21:03:03.000Z</time>
      </trkpt>
      <trkpt lat="45.57618" lon="2.72844">
        <ele>1077</ele>
        <time>2022-07-30T21:03:04.000Z</time>
      </trkpt>
      <trkpt lat="45.57618" lon="2.72851">
        <ele>1077</ele>
        <time>2022-07-30T21:03:05.000Z</time>
      </trkpt>
      <trkpt lat="45.57619" lon="2.72858">
        <ele>1077</ele>
        <time>2022-07-30T21:03:06.000Z</time>
      </trkpt>
      <trkpt lat="45.5762" lon="2.72865">
        <ele>1077</ele>
        <time>2022-07-30T21:03:07.000Z</time>
      </trkpt>
      <trkpt lat="45.57621" lon="2.72872">
        <ele>1077</ele>
        <time>2022-07-30T21:03:08.000Z</time>
      </trkpt>
      <trkpt lat="45.57622" lon="2.72878">
        <ele>1082</ele>
        <time>2022-07-30T21:03:09.000Z</time>
      </trkpt>
      <trkpt lat="45.57623" lon="2.72885">
        <ele>1082</ele>
        <time>2022-07-30T21:03:10.000Z</time>
      </trkpt>
      <trkpt lat="45.57625" lon="2.72891">
        <ele>1082</ele>
        <time>2022-07-30T21:03:11.000Z</time>
      </trkpt>
      <trkpt lat="45.57626" lon="2.72897">
        <ele>1082</ele>
        <time>2022-07-30T21:03:12.000Z</time>
      </trkpt>
      <trkpt lat="45.57627" lon="2.72904">
        <ele>1142</ele>
        <time>2022-07-30T21:03:13.000Z</time>
      </trkpt>
      <trkpt lat="45.57628" lon="2.7291">
        <ele>1142</ele>
        <time>2022-07-30T21:03:14.000Z</time>
      </trkpt>
      <trkpt lat="45.57629" lon="2.72916">
        <ele>1142</ele>
        <time>2022-07-30T21:03:15.000Z</time>
      </trkpt>
      <trkpt lat="45.5763" lon="2.72923">
        <ele>1142</ele>
        <time>2022-07-30T21:03:16.000Z</time>
      </trkpt>
      <trkpt lat="45.57632" lon="2.72929">
        <ele>1142</ele>
        <time>2022-07-30T21:03:17.000Z</time>
      </trkpt>
      <trkpt lat="45.57633" lon="2.72935">
        <ele>1142</ele>
        <time>2022-07-30T21:03:18.000Z</time>
      </trkpt>
      <trkpt lat="45.57634" lon="2.72942">
        <ele>1142</ele>
        <time>2022-07-30T21:03:19.000Z</time>
      </trkpt>
      <trkpt lat="45.57635" lon="2.72948">
        <ele>1142</ele>
        <time>2022-07-30T21:03:20.000Z</time>
      </trkpt>
      <trkpt lat="45.57636" lon="2.72955">
        <ele>1142</ele>
        <time>2022-07-30T21:03:21.000Z</time>
      </trkpt>
      <trkpt lat="45.57636" lon="2.72961">
        <ele>1148</ele>
        <time>2022-07-30T21:03:22.000Z</time>
      </trkpt>
      <trkpt lat="45.57636" lon="2.72968">
        <ele>1148</ele>
        <time>2022-07-30T21:03:23.000Z</time>
      </trkpt>
      <trkpt lat="45.57636" lon="2.72975">
        <ele>1148</ele>
        <time>2022-07-30T21:03:24.000Z</time>
      </trkpt>
      <trkpt lat="45.57635" lon="2.72982">
        <ele>1148</ele>
        <time>2022-07-30T21:03:25.000Z</time>
      </trkpt>
      <trkpt lat="45.57635" lon="2.72989">
        <ele>1148</ele>
        <time>2022-07-30T21:03:26.000Z</time>
      </trkpt>
      <trkpt lat="45.57635" lon="2.72996">
        <ele>1148</ele>
        <time>2022-07-30T21:03:27.000Z</time>
      </trkpt>
      <trkpt lat="45.57635" lon="2.73002">
        <ele>1148</ele>
        <time>2022-07-30T21:03:28.000Z</time>
      </trkpt>
      <trkpt lat="45.57634" lon="2.73009">
        <ele>1148</ele>
        <time>2022-07-30T21:03:29.000Z</time>
      </trkpt>
      <trkpt lat="45.57634" lon="2.73016">
        <ele>1148</ele>
        <time>2022-07-30T21:03:30.000Z</time>
      </trkpt>
      <trkpt lat="45.57634" lon="2.73023">
        <ele>1148</ele>
        <time>2022-07-30T21:03:31.000Z</time>
      </trkpt>
      <trkpt lat="45.57633" lon="2.7303">
        <ele>1148</ele>
        <time>2022-07-30T21:03:32.000Z</time>
      </trkpt>
      <trkpt lat="45.57633" lon="2.73037">
        <ele>1148</ele>
        <time>2022-07-30T21:03:33.000Z</time>
      </trkpt>
      <trkpt lat="45.57633" lon="2.73044">
        <ele>1148</ele>
        <time>2022-07-30T21:03:34.000Z</time>
      </trkpt>
      <trkpt lat="45.57635" lon="2.73049">
        <ele>1152</ele>
        <time>2022-07-30T21:03:35.000Z</time>
      </trkpt>
      <trkpt lat="45.57637" lon="2.73055">
        <ele>1152</ele>
        <time>2022-07-30T21:03:36.000Z</time>
      </trkpt>
      <trkpt lat="45.57639" lon="2.73061">
        <ele>1152</ele>
        <time>2022-07-30T21:03:37.000Z</time>
      </trkpt>
      <trkpt lat="45.57642" lon="2.73067">
        <ele>1152</ele>
        <time>2022-07-30T21:03:38.000Z</time>
      </trkpt>
      <trkpt lat="45.57644" lon="2.73073">
        <ele>1152</ele>
        <time>2022-07-30T21:03:39.000Z</time>
      </trkpt>
      <trkpt lat="45.57646" lon="2.73079">
        <ele>1152</ele>
        <time>2022-07-30T21:03:40.000Z</time>
      </trkpt>
      <trkpt lat="45.57648" lon="2.73085">
        <ele>1152</ele>
        <time>2022-07-30T21:03:41.000Z</time>
      </trkpt>
      <trkpt lat="45.5765" lon="2.73091">
        <ele>1152</ele>
        <time>2022-07-30T21:03:42.000Z</time>
      </trkpt>
      <trkpt lat="45.57653" lon="2.73096">
        <ele>1152</ele>
        <time>2022-07-30T21:03:43.000Z</time>
      </trkpt>
      <trkpt lat="45.57656" lon="2.73101">
        <ele>1152</ele>
        <time>2022-07-30T21:03:44.000Z</time>
      </trkpt>
      <trkpt lat="45.5766" lon="2.73106">
        <ele>1152</ele>
        <time>2022-07-30T21:03:45.000Z</time>
      </trkpt>
      <trkpt lat="45.57663" lon="2.73111">
        <ele>1159</ele>
        <time>2022-07-30T21:03:46.000Z</time>
      </trkpt>
      <trkpt lat="45.57666" lon="2.73116">
        <ele>1159</ele>
        <time>2022-07-30T21:03:47.000Z</time>
      </trkpt>
      <trkpt lat="45.57669" lon="2.73122">
        <ele>1159</ele>
        <time>2022-07-30T21:03:48.000Z</time>
      </trkpt>
      <trkpt lat="45.57672" lon="2.73127">
        <ele>1089</ele>
        <time>2022-07-30T21:03:49.000Z</time>
      </trkpt>
      <trkpt lat="45.57675" lon="2.73132">
        <ele>1089</ele>
        <time>2022-07-30T21:03:50.000Z</time>
      </trkpt>
      <trkpt lat="45.57678" lon="2.73137">
        <ele>1089</ele>
        <time>2022-07-30T21:03:51.000Z</time>
      </trkpt>
      <trkpt lat="45.57682" lon="2.73142">
        <ele>1089</ele>
        <time>2022-07-30T21:03:52.000Z</time>
      </trkpt>
      <trkpt lat="45.57685" lon="2.73147">
        <ele>1089</ele>
        <time>2022-07-30T21:03:53.000Z</time>
      </trkpt>
      <trkpt lat="45.57688" lon="2.73152">
        <ele>1089</ele>
        <time>2022-07-30T21:03:54.000Z</time>
      </trkpt>
      <trkpt lat="45.57691" lon="2.73158">
        <ele>1089</ele>
        <time>2022-07-30T21:03:55.000Z</time>
      </trkpt>
      <trkpt lat="45.57694" lon="2.73163">
        <ele>1089</ele>
        <time>2022-07-30T21:03:56.000Z</time>
      </trkpt>
      <trkpt lat="45.57697" lon="2.73169">
        <ele>1159</ele>
        <time>2022-07-30T21:03:57.000Z</time>
      </trkpt>
      <trkpt lat="45.57699" lon="2.73175">
        <ele>1161</ele>
        <time>2022-07-30T21:03:58.000Z</time>
      </trkpt>
      <trkpt lat="45.57702" lon="2.73181">
        <ele>1161</ele>
        <time>2022-07-30T21:03:59.000Z</time>
      </trkpt>
      <trkpt lat="45.57705" lon="2.73187">
        <ele>1161</ele>
        <time>2022-07-30T21:04:00.000Z</time>
      </trkpt>
      <trkpt lat="45.57707" lon="2.73193">
        <ele>1161</ele>
        <time>2022-07-30T21:04:01.000Z</time>
      </trkpt>
      <trkpt lat="45.5771" lon="2.73199">
        <ele>1161</ele>
        <time>2022-07-30T21:04:02.000Z</time>
      </trkpt>
      <trkpt lat="45.57712" lon="2.73205">
        <ele>1161</ele>
        <time>2022-07-30T21:04:03.000Z</time>
      </trkpt>
      <trkpt lat="45.57715" lon="2.73211">
        <ele>1105</ele>
        <time>2022-07-30T21:04:04.000Z</time>
      </trkpt>
      <trkpt lat="45.57718" lon="2.73217">
        <ele>1105</ele>
        <time>2022-07-30T21:04:05.000Z</time>
      </trkpt>
      <trkpt lat="45.57718" lon="2.73217">
        <ele>1105</ele>
        <time>2022-07-30T21:04:06.000Z</time>
      </trkpt>
      <trkpt lat="45.57718" lon="2.73217">
        <ele>1105</ele>
        <time>2022-07-30T21:04:07.000Z</time>
      </trkpt>
      <trkpt lat="45.5772" lon="2.73218">
        <ele>1105</ele>
        <time>2022-07-30T21:04:08.000Z</time>
      </trkpt>
      <trkpt lat="45.57723" lon="2.73219">
        <ele>1105</ele>
        <time>2022-07-30T21:04:09.000Z</time>
      </trkpt>
      <trkpt lat="45.57724" lon="2.73217">
        <ele>1127</ele>
        <time>2022-07-30T21:04:10.000Z</time>
      </trkpt>
      <trkpt lat="45.57727" lon="2.73219">
        <ele>1127</ele>
        <time>2022-07-30T21:04:11.000Z</time>
      </trkpt>
      <trkpt lat="45.5773" lon="2.73221">
        <ele>1127</ele>
        <time>2022-07-30T21:04:12.000Z</time>
      </trkpt>
      <trkpt lat="45.57732" lon="2.73224">
        <ele>1127</ele>
        <time>2022-07-30T21:04:13.000Z</time>
      </trkpt>
      <trkpt lat="45.57734" lon="2.73227">
        <ele>1127</ele>
        <time>2022-07-30T21:04:14.000Z</time>
      </trkpt>
      <trkpt lat="45.57737" lon="2.73229">
        <ele>1127</ele>
        <time>2022-07-30T21:04:15.000Z</time>
      </trkpt>
      <trkpt lat="45.5774" lon="2.73232">
        <ele>1127</ele>
        <time>2022-07-30T21:04:16.000Z</time>
      </trkpt>
      <trkpt lat="45.57743" lon="2.73234">
        <ele>1127</ele>
        <time>2022-07-30T21:04:17.000Z</time>
      </trkpt>
      <trkpt lat="45.57745" lon="2.73236">
        <ele>1127</ele>
        <time>2022-07-30T21:04:18.000Z</time>
      </trkpt>
      <trkpt lat="45.57748" lon="2.73238">
        <ele>1127</ele>
        <time>2022-07-30T21:04:19.000Z</time>
      </trkpt>
      <trkpt lat="45.57751" lon="2.7324">
        <ele>1127</ele>
        <time>2022-07-30T21:04:20.000Z</time>
      </trkpt>
      <trkpt lat="45.57753" lon="2.73241">
        <ele>1127</ele>
        <time>2022-07-30T21:04:21.000Z</time>
      </trkpt>
      <trkpt lat="45.57755" lon="2.73241">
        <ele>1127</ele>
        <time>2022-07-30T21:04:22.000Z</time>
      </trkpt>
      <trkpt lat="45.57758" lon="2.73242">
        <ele>1127</ele>
        <time>2022-07-30T21:04:23.000Z</time>
      </trkpt>
      <trkpt lat="45.57761" lon="2.73245">
        <ele>1127</ele>
        <time>2022-07-30T21:04:24.000Z</time>
      </trkpt>
      <trkpt lat="45.57765" lon="2.73247">
        <ele>1153</ele>
        <time>2022-07-30T21:04:25.000Z</time>
      </trkpt>
      <trkpt lat="45.57769" lon="2.73249">
        <ele>1153</ele>
        <time>2022-07-30T21:04:26.000Z</time>
      </trkpt>
      <trkpt lat="45.57772" lon="2.7325">
        <ele>1153</ele>
        <time>2022-07-30T21:04:27.000Z</time>
      </trkpt>
      <trkpt lat="45.57775" lon="2.73252">
        <ele>1153</ele>
        <time>2022-07-30T21:04:28.000Z</time>
      </trkpt>
      <trkpt lat="45.57778" lon="2.73253">
        <ele>1153</ele>
        <time>2022-07-30T21:04:29.000Z</time>
      </trkpt>
      <trkpt lat="45.57782" lon="2.73256">
        <ele>1153</ele>
        <time>2022-07-30T21:04:30.000Z</time>
      </trkpt>
      <trkpt lat="45.57785" lon="2.73258">
        <ele>1153</ele>
        <time>2022-07-30T21:04:31.000Z</time>
      </trkpt>
      <trkpt lat="45.57787" lon="2.73258">
        <ele>1153</ele>
        <time>2022-07-30T21:04:32.000Z</time>
      </trkpt>
      <trkpt lat="45.5779" lon="2.7326">
        <ele>1114</ele>
        <time>2022-07-30T21:04:33.000Z</time>
      </trkpt>
      <trkpt lat="45.57793" lon="2.73264">
        <ele>1140.3</ele>
        <time>2022-07-30T21:04:34.000Z</time>
      </trkpt>
      <trkpt lat="45.57795" lon="2.73266">
        <ele>1140.1</ele>
        <time>2022-07-30T21:04:35.000Z</time>
      </trkpt>
      <trkpt lat="45.57798" lon="2.7327">
        <ele>1139.7</ele>
        <time>2022-07-30T21:04:36.000Z</time>
      </trkpt>
      <trkpt lat="45.57801" lon="2.73278">
        <ele>1139.7</ele>
        <time>2022-07-30T21:04:37.000Z</time>
      </trkpt>
      <trkpt lat="45.57804" lon="2.73285">
        <ele>1139.8</ele>
        <time>2022-07-30T21:04:38.000Z</time>
      </trkpt>
      <trkpt lat="45.57808" lon="2.73291">
        <ele>1139.8</ele>
        <time>2022-07-30T21:04:39.000Z</time>
      </trkpt>
      <trkpt lat="45.57811" lon="2.73297">
        <ele>1139.8</ele>
        <time>2022-07-30T21:04:40.000Z</time>
      </trkpt>
      <trkpt lat="45.57813" lon="2.73305">
        <ele>1139.8</ele>
        <time>2022-07-30T21:04:41.000Z</time>
      </trkpt>
      <trkpt lat="45.57815" lon="2.73315">
        <ele>1139.8</ele>
        <time>2022-07-30T21:04:42.000Z</time>
      </trkpt>
      <trkpt lat="45.57816" lon="2.73322">
        <ele>1139.9</ele>
        <time>2022-07-30T21:04:43.000Z</time>
      </trkpt>
      <trkpt lat="45.57815" lon="2.73331">
        <ele>1139.9</ele>
        <time>2022-07-30T21:04:44.000Z</time>
      </trkpt>
      <trkpt lat="45.57815" lon="2.73341">
        <ele>1139.9</ele>
        <time>2022-07-30T21:04:45.000Z</time>
      </trkpt>
      <trkpt lat="45.57816" lon="2.73351">
        <ele>1140</ele>
        <time>2022-07-30T21:04:46.000Z</time>
      </trkpt>
      <trkpt lat="45.57819" lon="2.7336">
        <ele>1140.2</ele>
        <time>2022-07-30T21:04:47.000Z</time>
      </trkpt>
      <trkpt lat="45.57823" lon="2.73368">
        <ele>1140.3</ele>
        <time>2022-07-30T21:04:48.000Z</time>
      </trkpt>
      <trkpt lat="45.57828" lon="2.73374">
        <ele>1140.5</ele>
        <time>2022-07-30T21:04:49.000Z</time>
      </trkpt>
      <trkpt lat="45.57834" lon="2.73379">
        <ele>1140.6</ele>
        <time>2022-07-30T21:04:50.000Z</time>
      </trkpt>
      <trkpt lat="45.5784" lon="2.73384">
        <ele>1140.7</ele>
        <time>2022-07-30T21:04:51.000Z</time>
      </trkpt>
      <trkpt lat="45.57845" lon="2.73391">
        <ele>1142</ele>
        <time>2022-07-30T21:04:52.000Z</time>
      </trkpt>
      <trkpt lat="45.57849" lon="2.73397">
        <ele>1141</ele>
        <time>2022-07-30T21:04:53.000Z</time>
      </trkpt>
      <trkpt lat="45.57852" lon="2.73404">
        <ele>1141.1</ele>
        <time>2022-07-30T21:04:54.000Z</time>
      </trkpt>
      <trkpt lat="45.57854" lon="2.73411">
        <ele>1141.2</ele>
        <time>2022-07-30T21:04:55.000Z</time>
      </trkpt>
      <trkpt lat="45.57856" lon="2.73415">
        <ele>1141.3</ele>
        <time>2022-07-30T21:04:56.000Z</time>
      </trkpt>
      <trkpt lat="45.57856" lon="2.73416">
        <ele>1141.3</ele>
        <time>2022-07-30T21:04:57.000Z</time>
      </trkpt>
      <trkpt lat="45.57863" lon="2.73421">
        <ele>1141.6</ele>
        <time>2022-07-30T21:04:58.000Z</time>
      </trkpt>
      <trkpt lat="45.57867" lon="2.73424">
        <ele>1142</ele>
        <time>2022-07-30T21:04:59.000Z</time>
      </trkpt>
      <trkpt lat="45.5787" lon="2.73426">
        <ele>1141.9</ele>
        <time>2022-07-30T21:05:00.000Z</time>
      </trkpt>
      <trkpt lat="45.57875" lon="2.7343">
        <ele>1128</ele>
        <time>2022-07-30T21:05:01.000Z</time>
      </trkpt>
      <trkpt lat="45.57878" lon="2.73432">
        <ele>1142.2</ele>
        <time>2022-07-30T21:05:02.000Z</time>
      </trkpt>
      <trkpt lat="45.57881" lon="2.73435">
        <ele>1142.5</ele>
        <time>2022-07-30T21:05:03.000Z</time>
      </trkpt>
      <trkpt lat="45.57885" lon="2.73438">
        <ele>1128</ele>
        <time>2022-07-30T21:05:04.000Z</time>
      </trkpt>
      <trkpt lat="45.57888" lon="2.73442">
        <ele>1142.8</ele>
        <time>2022-07-30T21:05:05.000Z</time>
      </trkpt>
      <trkpt lat="45.57892" lon="2.73445">
        <ele>1128</ele>
        <time>2022-07-30T21:05:06.000Z</time>
      </trkpt>
      <trkpt lat="45.57892" lon="2.73445">
        <ele>1142.9</ele>
        <time>2022-07-30T21:05:07.000Z</time>
      </trkpt>
      <trkpt lat="45.57896" lon="2.73447">
        <ele>1128</ele>
        <time>2022-07-30T21:05:08.000Z</time>
      </trkpt>
      <trkpt lat="45.57899" lon="2.7345">
        <ele>1128</ele>
        <time>2022-07-30T21:05:09.000Z</time>
      </trkpt>
      <trkpt lat="45.57901" lon="2.73453">
        <ele>1143</ele>
        <time>2022-07-30T21:05:10.000Z</time>
      </trkpt>
      <trkpt lat="45.57903" lon="2.73456">
        <ele>1128</ele>
        <time>2022-07-30T21:05:11.000Z</time>
      </trkpt>
      <trkpt lat="45.57903" lon="2.73458">
        <ele>1143.1</ele>
        <time>2022-07-30T21:05:12.000Z</time>
      </trkpt>
      <trkpt lat="45.57904" lon="2.7346">
        <ele>1143</ele>
        <time>2022-07-30T21:05:13.000Z</time>
      </trkpt>
      <trkpt lat="45.57904" lon="2.73462">
        <ele>1143</ele>
        <time>2022-07-30T21:05:14.000Z</time>
      </trkpt>
      <trkpt lat="45.57906" lon="2.73464">
        <ele>1143.2</ele>
        <time>2022-07-30T21:05:15.000Z</time>
      </trkpt>
      <trkpt lat="45.57907" lon="2.73465">
        <ele>1143</ele>
        <time>2022-07-30T21:05:16.000Z</time>
      </trkpt>
      <trkpt lat="45.57904" lon="2.73467">
        <ele>1143.3</ele>
        <time>2022-07-30T21:05:17.000Z</time>
      </trkpt>
      <trkpt lat="45.579" lon="2.7347">
        <ele>1143</ele>
        <time>2022-07-30T21:05:18.000Z</time>
      </trkpt>
      <trkpt lat="45.579" lon="2.7347">
        <ele>1143</ele>
        <time>2022-07-30T21:05:19.000Z</time>
      </trkpt>
      <trkpt lat="45.579" lon="2.7347">
        <ele>1143.5</ele>
        <time>2022-07-30T21:05:20.000Z</time>
      </trkpt>
      <trkpt lat="45.57899" lon="2.73473">
        <ele>1143</ele>
        <time>2022-07-30T21:05:21.000Z</time>
      </trkpt>
      <trkpt lat="45.57898" lon="2.73478">
        <ele>1143.5</ele>
        <time>2022-07-30T21:05:22.000Z</time>
      </trkpt>
      <trkpt lat="45.57898" lon="2.73479">
        <ele>1143</ele>
        <time>2022-07-30T21:05:23.000Z</time>
      </trkpt>
      <trkpt lat="45.57898" lon="2.73484">
        <ele>1143.5</ele>
        <time>2022-07-30T21:05:24.000Z</time>
      </trkpt>
      <trkpt lat="45.57898" lon="2.73489">
        <ele>1143.5</ele>
        <time>2022-07-30T21:05:25.000Z</time>
      </trkpt>
      <trkpt lat="45.57897" lon="2.73494">
        <ele>1143</ele>
        <time>2022-07-30T21:05:26.000Z</time>
      </trkpt>
      <trkpt lat="45.57895" lon="2.73499">
        <ele>1143.5</ele>
        <time>2022-07-30T21:05:27.000Z</time>
      </trkpt>
      <trkpt lat="45.57892" lon="2.73502">
        <ele>1143</ele>
        <time>2022-07-30T21:05:28.000Z</time>
      </trkpt>
      <trkpt lat="45.5789" lon="2.73504">
        <ele>1143.5</ele>
        <time>2022-07-30T21:05:29.000Z</time>
      </trkpt>
      <trkpt lat="45.57889" lon="2.73506">
        <ele>1143.5</ele>
        <time>2022-07-30T21:05:30.000Z</time>
      </trkpt>
      <trkpt lat="45.57888" lon="2.73507">
        <ele>1143</ele>
        <time>2022-07-30T21:05:31.000Z</time>
      </trkpt>
      <trkpt lat="45.57885" lon="2.73511">
        <ele>1143.5</ele>
        <time>2022-07-30T21:05:32.000Z</time>
      </trkpt>
      <trkpt lat="45.57883" lon="2.73513">
        <ele>1148</ele>
        <time>2022-07-30T21:05:33.000Z</time>
      </trkpt>
      <trkpt lat="45.5788" lon="2.73516">
        <ele>1143.4</ele>
        <time>2022-07-30T21:05:34.000Z</time>
      </trkpt>
      <trkpt lat="45.57876" lon="2.73519">
        <ele>1143.4</ele>
        <time>2022-07-30T21:05:35.000Z</time>
      </trkpt>
      <trkpt lat="45.57872" lon="2.73521">
        <ele>1148</ele>
        <time>2022-07-30T21:05:36.000Z</time>
      </trkpt>
      <trkpt lat="45.57869" lon="2.73523">
        <ele>1143.3</ele>
        <time>2022-07-30T21:05:37.000Z</time>
      </trkpt>
      <trkpt lat="45.57865" lon="2.73526">
        <ele>1143.3</ele>
        <time>2022-07-30T21:05:38.000Z</time>
      </trkpt>
      <trkpt lat="45.57861" lon="2.73528">
        <ele>1143.4</ele>
        <time>2022-07-30T21:05:39.000Z</time>
      </trkpt>
      <trkpt lat="45.57858" lon="2.73532">
        <ele>1143.4</ele>
        <time>2022-07-30T21:05:40.000Z</time>
      </trkpt>
      <trkpt lat="45.57855" lon="2.73536">
        <ele>1143.5</ele>
        <time>2022-07-30T21:05:41.000Z</time>
      </trkpt>
      <trkpt lat="45.57852" lon="2.73538">
        <ele>1143</ele>
        <time>2022-07-30T21:05:42.000Z</time>
      </trkpt>
      <trkpt lat="45.57849" lon="2.73541">
        <ele>1143.5</ele>
        <time>2022-07-30T21:05:43.000Z</time>
      </trkpt>
      <trkpt lat="45.57845" lon="2.73544">
        <ele>1143.6</ele>
        <time>2022-07-30T21:05:44.000Z</time>
      </trkpt>
      <trkpt lat="45.57842" lon="2.73547">
        <ele>1143.6</ele>
        <time>2022-07-30T21:05:45.000Z</time>
      </trkpt>
      <trkpt lat="45.57839" lon="2.7355">
        <ele>1143.7</ele>
        <time>2022-07-30T21:05:46.000Z</time>
      </trkpt>
      <trkpt lat="45.57835" lon="2.73553">
        <ele>1143.7</ele>
        <time>2022-07-30T21:05:47.000Z</time>
      </trkpt>
      <trkpt lat="45.57831" lon="2.73556">
        <ele>1143</ele>
        <time>2022-07-30T21:05:48.000Z</time>
      </trkpt>
      <trkpt lat="45.57827" lon="2.73559">
        <ele>1143</ele>
        <time>2022-07-30T21:05:49.000Z</time>
      </trkpt>
      <trkpt lat="45.57823" lon="2.73562">
        <ele>1143</ele>
        <time>2022-07-30T21:05:50.000Z</time>
      </trkpt>
      <trkpt lat="45.57819" lon="2.73566">
        <ele>1143</ele>
        <time>2022-07-30T21:05:51.000Z</time>
      </trkpt>
      <trkpt lat="45.57818" lon="2.73566">
        <ele>1143</ele>
        <time>2022-07-30T21:05:52.000Z</time>
      </trkpt>
      <trkpt lat="45.57813" lon="2.73568">
        <ele>1143</ele>
        <time>2022-07-30T21:05:53.000Z</time>
      </trkpt>
      <trkpt lat="45.57809" lon="2.73569">
        <ele>1143</ele>
        <time>2022-07-30T21:05:54.000Z</time>
      </trkpt>
      <trkpt lat="45.57804" lon="2.73569">
        <ele>1143</ele>
        <time>2022-07-30T21:05:55.000Z</time>
      </trkpt>
      <trkpt lat="45.57799" lon="2.73568">
        <ele>1143</ele>
        <time>2022-07-30T21:05:56.000Z</time>
      </trkpt>
      <trkpt lat="45.57794" lon="2.73568">
        <ele>1147.7</ele>
        <time>2022-07-30T21:05:57.000Z</time>
      </trkpt>
      <trkpt lat="45.57789" lon="2.73567">
        <ele>1148</ele>
        <time>2022-07-30T21:05:58.000Z</time>
      </trkpt>
      <trkpt lat="45.57784" lon="2.73565">
        <ele>1148.3</ele>
        <time>2022-07-30T21:05:59.000Z</time>
      </trkpt>
      <trkpt lat="45.57779" lon="2.73563">
        <ele>1148.6</ele>
        <time>2022-07-30T21:06:00.000Z</time>
      </trkpt>
      <trkpt lat="45.57775" lon="2.73561">
        <ele>1148.9</ele>
        <time>2022-07-30T21:06:01.000Z</time>
      </trkpt>
      <trkpt lat="45.5777" lon="2.7356">
        <ele>1144</ele>
        <time>2022-07-30T21:06:02.000Z</time>
      </trkpt>
      <trkpt lat="45.57766" lon="2.73559">
        <ele>1149.9</ele>
        <time>2022-07-30T21:06:03.000Z</time>
      </trkpt>
      <trkpt lat="45.57761" lon="2.73559">
        <ele>1150.5</ele>
        <time>2022-07-30T21:06:04.000Z</time>
      </trkpt>
      <trkpt lat="45.57756" lon="2.73557">
        <ele>1151</ele>
        <time>2022-07-30T21:06:05.000Z</time>
      </trkpt>
      <trkpt lat="45.57752" lon="2.73556">
        <ele>1151.6</ele>
        <time>2022-07-30T21:06:06.000Z</time>
      </trkpt>
      <trkpt lat="45.57746" lon="2.73553">
        <ele>1152.2</ele>
        <time>2022-07-30T21:06:07.000Z</time>
      </trkpt>
      <trkpt lat="45.57743" lon="2.73551">
        <ele>1153.2</ele>
        <time>2022-07-30T21:06:08.000Z</time>
      </trkpt>
      <trkpt lat="45.57738" lon="2.7355">
        <ele>1153.6</ele>
        <time>2022-07-30T21:06:09.000Z</time>
      </trkpt>
      <trkpt lat="45.57734" lon="2.73548">
        <ele>1154.1</ele>
        <time>2022-07-30T21:06:10.000Z</time>
      </trkpt>
      <trkpt lat="45.57731" lon="2.73545">
        <ele>1153</ele>
        <time>2022-07-30T21:06:11.000Z</time>
      </trkpt>
      <trkpt lat="45.57728" lon="2.73541">
        <ele>1154.5</ele>
        <time>2022-07-30T21:06:12.000Z</time>
      </trkpt>
      <trkpt lat="45.57725" lon="2.73537">
        <ele>1155.4</ele>
        <time>2022-07-30T21:06:13.000Z</time>
      </trkpt>
      <trkpt lat="45.57722" lon="2.73533">
        <ele>1155.9</ele>
        <time>2022-07-30T21:06:14.000Z</time>
      </trkpt>
      <trkpt lat="45.5772" lon="2.73528">
        <ele>1156.4</ele>
        <time>2022-07-30T21:06:15.000Z</time>
      </trkpt>
      <trkpt lat="45.57718" lon="2.73524">
        <ele>1156.8</ele>
        <time>2022-07-30T21:06:16.000Z</time>
      </trkpt>
      <trkpt lat="45.57717" lon="2.73521">
        <ele>1157.2</ele>
        <time>2022-07-30T21:06:17.000Z</time>
      </trkpt>
      <trkpt lat="45.57717" lon="2.73521">
        <ele>1157.6</ele>
        <time>2022-07-30T21:06:18.000Z</time>
      </trkpt>
      <trkpt lat="45.57716" lon="2.73522">
        <ele>1158</ele>
        <time>2022-07-30T21:06:19.000Z</time>
      </trkpt>
      <trkpt lat="45.57715" lon="2.73515">
        <ele>1153</ele>
        <time>2022-07-30T21:06:20.000Z</time>
      </trkpt>
      <trkpt lat="45.57713" lon="2.73508">
        <ele>1158.5</ele>
        <time>2022-07-30T21:06:21.000Z</time>
      </trkpt>
      <trkpt lat="45.57711" lon="2.73501">
        <ele>1153</ele>
        <time>2022-07-30T21:06:22.000Z</time>
      </trkpt>
      <trkpt lat="45.5771" lon="2.73494">
        <ele>1158.9</ele>
        <time>2022-07-30T21:06:23.000Z</time>
      </trkpt>
      <trkpt lat="45.57709" lon="2.73488">
        <ele>1153</ele>
        <time>2022-07-30T21:06:24.000Z</time>
      </trkpt>
      <trkpt lat="45.57708" lon="2.73481">
        <ele>1159.3</ele>
        <time>2022-07-30T21:06:25.000Z</time>
      </trkpt>
      <trkpt lat="45.57706" lon="2.73475">
        <ele>1153</ele>
        <time>2022-07-30T21:06:26.000Z</time>
      </trkpt>
      <trkpt lat="45.57705" lon="2.73468">
        <ele>1159.8</ele>
        <time>2022-07-30T21:06:27.000Z</time>
      </trkpt>
      <trkpt lat="45.57704" lon="2.73462">
        <ele>1153</ele>
        <time>2022-07-30T21:06:28.000Z</time>
      </trkpt>
      <trkpt lat="45.57702" lon="2.73455">
        <ele>1153</ele>
        <time>2022-07-30T21:06:29.000Z</time>
      </trkpt>
      <trkpt lat="45.57701" lon="2.73449">
        <ele>1160.6</ele>
        <time>2022-07-30T21:06:30.000Z</time>
      </trkpt>
      <trkpt lat="45.577" lon="2.73442">
        <ele>1168</ele>
        <time>2022-07-30T21:06:31.000Z</time>
      </trkpt>
      <trkpt lat="45.57699" lon="2.73436">
        <ele>1161.1</ele>
        <time>2022-07-30T21:06:32.000Z</time>
      </trkpt>
      <trkpt lat="45.57697" lon="2.73429">
        <ele>1168</ele>
        <time>2022-07-30T21:06:33.000Z</time>
      </trkpt>
      <trkpt lat="45.57696" lon="2.73423">
        <ele>1168</ele>
        <time>2022-07-30T21:06:34.000Z</time>
      </trkpt>
      <trkpt lat="45.57695" lon="2.73416">
        <ele>1162.5</ele>
        <time>2022-07-30T21:06:35.000Z</time>
      </trkpt>
      <trkpt lat="45.57694" lon="2.7341">
        <ele>1168</ele>
        <time>2022-07-30T21:06:36.000Z</time>
      </trkpt>
      <trkpt lat="45.57693" lon="2.73403">
        <ele>1162.9</ele>
        <time>2022-07-30T21:06:37.000Z</time>
      </trkpt>
      <trkpt lat="45.57692" lon="2.73397">
        <ele>1168</ele>
        <time>2022-07-30T21:06:38.000Z</time>
      </trkpt>
      <trkpt lat="45.57691" lon="2.7339">
        <ele>1163.4</ele>
        <time>2022-07-30T21:06:39.000Z</time>
      </trkpt>
      <trkpt lat="45.5769" lon="2.73384">
        <ele>1164.3</ele>
        <time>2022-07-30T21:06:40.000Z</time>
      </trkpt>
      <trkpt lat="45.57687" lon="2.73378">
        <ele>1168</ele>
        <time>2022-07-30T21:06:41.000Z</time>
      </trkpt>
      <trkpt lat="45.57684" lon="2.73373">
        <ele>1164.6</ele>
        <time>2022-07-30T21:06:42.000Z</time>
      </trkpt>
      <trkpt lat="45.5768" lon="2.73367">
        <ele>1165</ele>
        <time>2022-07-30T21:06:43.000Z</time>
      </trkpt>
      <trkpt lat="45.57677" lon="2.73362">
        <ele>1168</ele>
        <time>2022-07-30T21:06:44.000Z</time>
      </trkpt>
      <trkpt lat="45.57674" lon="2.73356">
        <ele>1168</ele>
        <time>2022-07-30T21:06:45.000Z</time>
      </trkpt>
      <trkpt lat="45.57671" lon="2.73351">
        <ele>1165.7</ele>
        <time>2022-07-30T21:06:46.000Z</time>
      </trkpt>
      <trkpt lat="45.57668" lon="2.73345">
        <ele>1168</ele>
        <time>2022-07-30T21:06:47.000Z</time>
      </trkpt>
      <trkpt lat="45.57665" lon="2.73339">
        <ele>1166.1</ele>
        <time>2022-07-30T21:06:48.000Z</time>
      </trkpt>
      <trkpt lat="45.57662" lon="2.73334">
        <ele>1166.5</ele>
        <time>2022-07-30T21:06:49.000Z</time>
      </trkpt>
      <trkpt lat="45.57659" lon="2.73328">
        <ele>1167.2</ele>
        <time>2022-07-30T21:06:50.000Z</time>
      </trkpt>
      <trkpt lat="45.57656" lon="2.73323">
        <ele>1167.6</ele>
        <time>2022-07-30T21:06:51.000Z</time>
      </trkpt>
      <trkpt lat="45.57653" lon="2.73317">
        <ele>1167.9</ele>
        <time>2022-07-30T21:06:52.000Z</time>
      </trkpt>
      <trkpt lat="45.5765" lon="2.73311">
        <ele>1168.3</ele>
        <time>2022-07-30T21:06:53.000Z</time>
      </trkpt>
      <trkpt lat="45.57646" lon="2.73306">
        <ele>1168.6</ele>
        <time>2022-07-30T21:06:54.000Z</time>
      </trkpt>
      <trkpt lat="45.57643" lon="2.733">
        <ele>1169</ele>
        <time>2022-07-30T21:06:55.000Z</time>
      </trkpt>
      <trkpt lat="45.5764" lon="2.73295">
        <ele>1181</ele>
        <time>2022-07-30T21:06:56.000Z</time>
      </trkpt>
      <trkpt lat="45.57637" lon="2.7329">
        <ele>1181</ele>
        <time>2022-07-30T21:06:57.000Z</time>
      </trkpt>
      <trkpt lat="45.57633" lon="2.73284">
        <ele>1181</ele>
        <time>2022-07-30T21:06:58.000Z</time>
      </trkpt>
      <trkpt lat="45.5763" lon="2.73279">
        <ele>1181</ele>
        <time>2022-07-30T21:06:59.000Z</time>
      </trkpt>
      <trkpt lat="45.57627" lon="2.73273">
        <ele>1181</ele>
        <time>2022-07-30T21:07:00.000Z</time>
      </trkpt>
      <trkpt lat="45.57626" lon="2.73272">
        <ele>1176</ele>
        <time>2022-07-30T21:07:01.000Z</time>
      </trkpt>
      <trkpt lat="45.57623" lon="2.73267">
        <ele>1176</ele>
        <time>2022-07-30T21:07:02.000Z</time>
      </trkpt>
      <trkpt lat="45.5762" lon="2.73261">
        <ele>1176</ele>
        <time>2022-07-30T21:07:03.000Z</time>
      </trkpt>
      <trkpt lat="45.57617" lon="2.73255">
        <ele>1176</ele>
        <time>2022-07-30T21:07:04.000Z</time>
      </trkpt>
      <trkpt lat="45.57614" lon="2.73249">
        <ele>1176</ele>
        <time>2022-07-30T21:07:05.000Z</time>
      </trkpt>
      <trkpt lat="45.5761" lon="2.73243">
        <ele>1176</ele>
        <time>2022-07-30T21:07:06.000Z</time>
      </trkpt>
      <trkpt lat="45.57607" lon="2.73237">
        <ele>1176</ele>
        <time>2022-07-30T21:07:07.000Z</time>
      </trkpt>
      <trkpt lat="45.57607" lon="2.73237">
        <ele>1176</ele>
        <time>2022-07-30T21:07:08.000Z</time>
      </trkpt>
      <trkpt lat="45.57603" lon="2.73233">
        <ele>1176</ele>
        <time>2022-07-30T21:07:09.000Z</time>
      </trkpt>
      <trkpt lat="45.576" lon="2.7323">
        <ele>1176</ele>
        <time>2022-07-30T21:07:10.000Z</time>
      </trkpt>
      <trkpt lat="45.57597" lon="2.73226">
        <ele>1176</ele>
        <time>2022-07-30T21:07:11.000Z</time>
      </trkpt>
      <trkpt lat="45.57594" lon="2.73223">
        <ele>1172</ele>
        <time>2022-07-30T21:07:12.000Z</time>
      </trkpt>
      <trkpt lat="45.5759" lon="2.73221">
        <ele>1172</ele>
        <time>2022-07-30T21:07:13.000Z</time>
      </trkpt>
      <trkpt lat="45.57588" lon="2.73219">
        <ele>1172</ele>
        <time>2022-07-30T21:07:14.000Z</time>
      </trkpt>
      <trkpt lat="45.57585" lon="2.73217">
        <ele>1172</ele>
        <time>2022-07-30T21:07:15.000Z</time>
      </trkpt>
      <trkpt lat="45.57583" lon="2.73215">
        <ele>1172</ele>
        <time>2022-07-30T21:07:16.000Z</time>
      </trkpt>
      <trkpt lat="45.5758" lon="2.73213">
        <ele>1172</ele>
        <time>2022-07-30T21:07:17.000Z</time>
      </trkpt>
      <trkpt lat="45.57578" lon="2.73213">
        <ele>1172</ele>
        <time>2022-07-30T21:07:18.000Z</time>
      </trkpt>
      <trkpt lat="45.57576" lon="2.73211">
        <ele>1172</ele>
        <time>2022-07-30T21:07:19.000Z</time>
      </trkpt>
      <trkpt lat="45.57572" lon="2.73209">
        <ele>1172</ele>
        <time>2022-07-30T21:07:20.000Z</time>
      </trkpt>
      <trkpt lat="45.57569" lon="2.73207">
        <ele>1172</ele>
        <time>2022-07-30T21:07:21.000Z</time>
      </trkpt>
      <trkpt lat="45.57566" lon="2.73203">
        <ele>1172</ele>
        <time>2022-07-30T21:07:22.000Z</time>
      </trkpt>
      <trkpt lat="45.57563" lon="2.73199">
        <ele>1172</ele>
        <time>2022-07-30T21:07:23.000Z</time>
      </trkpt>
      <trkpt lat="45.5756" lon="2.73196">
        <ele>1172</ele>
        <time>2022-07-30T21:07:24.000Z</time>
      </trkpt>
      <trkpt lat="45.57557" lon="2.73192">
        <ele>1172</ele>
        <time>2022-07-30T21:07:25.000Z</time>
      </trkpt>
      <trkpt lat="45.57555" lon="2.73187">
        <ele>1172</ele>
        <time>2022-07-30T21:07:26.000Z</time>
      </trkpt>
      <trkpt lat="45.57551" lon="2.73183">
        <ele>1163</ele>
        <time>2022-07-30T21:07:27.000Z</time>
      </trkpt>
      <trkpt lat="45.57548" lon="2.7318">
        <ele>1163</ele>
        <time>2022-07-30T21:07:28.000Z</time>
      </trkpt>
      <trkpt lat="45.57545" lon="2.73176">
        <ele>1163</ele>
        <time>2022-07-30T21:07:29.000Z</time>
      </trkpt>
      <trkpt lat="45.57541" lon="2.73173">
        <ele>1163</ele>
        <time>2022-07-30T21:07:30.000Z</time>
      </trkpt>
      <trkpt lat="45.57537" lon="2.7317">
        <ele>1163</ele>
        <time>2022-07-30T21:07:31.000Z</time>
      </trkpt>
      <trkpt lat="45.57536" lon="2.73167">
        <ele>1163</ele>
        <time>2022-07-30T21:07:32.000Z</time>
      </trkpt>
      <trkpt lat="45.57534" lon="2.73163">
        <ele>1163</ele>
        <time>2022-07-30T21:07:33.000Z</time>
      </trkpt>
      <trkpt lat="45.57532" lon="2.7316">
        <ele>1163</ele>
        <time>2022-07-30T21:07:34.000Z</time>
      </trkpt>
      <trkpt lat="45.57529" lon="2.73157">
        <ele>1185</ele>
        <time>2022-07-30T21:07:35.000Z</time>
      </trkpt>
      <trkpt lat="45.57526" lon="2.73153">
        <ele>1185</ele>
        <time>2022-07-30T21:07:36.000Z</time>
      </trkpt>
      <trkpt lat="45.57523" lon="2.73149">
        <ele>1185</ele>
        <time>2022-07-30T21:07:37.000Z</time>
      </trkpt>
      <trkpt lat="45.5752" lon="2.73147">
        <ele>1185</ele>
        <time>2022-07-30T21:07:38.000Z</time>
      </trkpt>
      <trkpt lat="45.57517" lon="2.73144">
        <ele>1185</ele>
        <time>2022-07-30T21:07:39.000Z</time>
      </trkpt>
      <trkpt lat="45.57515" lon="2.73142">
        <ele>1185</ele>
        <time>2022-07-30T21:07:40.000Z</time>
      </trkpt>
      <trkpt lat="45.57512" lon="2.73138">
        <ele>1185</ele>
        <time>2022-07-30T21:07:41.000Z</time>
      </trkpt>
      <trkpt lat="45.57509" lon="2.73135">
        <ele>1185</ele>
        <time>2022-07-30T21:07:42.000Z</time>
      </trkpt>
      <trkpt lat="45.57506" lon="2.7313">
        <ele>1180</ele>
        <time>2022-07-30T21:07:43.000Z</time>
      </trkpt>
      <trkpt lat="45.57503" lon="2.73127">
        <ele>1180</ele>
        <time>2022-07-30T21:07:44.000Z</time>
      </trkpt>
      <trkpt lat="45.57499" lon="2.73122">
        <ele>1180</ele>
        <time>2022-07-30T21:07:45.000Z</time>
      </trkpt>
      <trkpt lat="45.57497" lon="2.73118">
        <ele>1181.2</ele>
        <time>2022-07-30T21:07:46.000Z</time>
      </trkpt>
      <trkpt lat="45.57494" lon="2.73114">
        <ele>1181.5</ele>
        <time>2022-07-30T21:07:47.000Z</time>
      </trkpt>
      <trkpt lat="45.57492" lon="2.7311">
        <ele>1181.9</ele>
        <time>2022-07-30T21:07:48.000Z</time>
      </trkpt>
      <trkpt lat="45.5749" lon="2.73107">
        <ele>1182.6</ele>
        <time>2022-07-30T21:07:49.000Z</time>
      </trkpt>
      <trkpt lat="45.57488" lon="2.73104">
        <ele>1183</ele>
        <time>2022-07-30T21:07:50.000Z</time>
      </trkpt>
      <trkpt lat="45.57485" lon="2.73101">
        <ele>1183.3</ele>
        <time>2022-07-30T21:07:51.000Z</time>
      </trkpt>
      <trkpt lat="45.57482" lon="2.731">
        <ele>1183.7</ele>
        <time>2022-07-30T21:07:52.000Z</time>
      </trkpt>
      <trkpt lat="45.5748" lon="2.73099">
        <ele>1184.1</ele>
        <time>2022-07-30T21:07:53.000Z</time>
      </trkpt>
      <trkpt lat="45.57477" lon="2.73097">
        <ele>1184.4</ele>
        <time>2022-07-30T21:07:54.000Z</time>
      </trkpt>
      <trkpt lat="45.57473" lon="2.73094">
        <ele>1185.1</ele>
        <time>2022-07-30T21:07:55.000Z</time>
      </trkpt>
      <trkpt lat="45.57471" lon="2.73093">
        <ele>1185.5</ele>
        <time>2022-07-30T21:07:56.000Z</time>
      </trkpt>
      <trkpt lat="45.57468" lon="2.73091">
        <ele>1185.8</ele>
        <time>2022-07-30T21:07:57.000Z</time>
      </trkpt>
      <trkpt lat="45.57465" lon="2.73087">
        <ele>1186.3</ele>
        <time>2022-07-30T21:07:58.000Z</time>
      </trkpt>
      <trkpt lat="45.57462" lon="2.73085">
        <ele>1186.7</ele>
        <time>2022-07-30T21:07:59.000Z</time>
      </trkpt>
      <trkpt lat="45.57459" lon="2.73082">
        <ele>1187.7</ele>
        <time>2022-07-30T21:08:00.000Z</time>
      </trkpt>
      <trkpt lat="45.57455" lon="2.73078">
        <ele>1188.1</ele>
        <time>2022-07-30T21:08:01.000Z</time>
      </trkpt>
      <trkpt lat="45.57451" lon="2.73075">
        <ele>1188.6</ele>
        <time>2022-07-30T21:08:02.000Z</time>
      </trkpt>
      <trkpt lat="45.57448" lon="2.73072">
        <ele>1189</ele>
        <time>2022-07-30T21:08:03.000Z</time>
      </trkpt>
      <trkpt lat="45.57444" lon="2.73069">
        <ele>1189.5</ele>
        <time>2022-07-30T21:08:04.000Z</time>
      </trkpt>
      <trkpt lat="45.57439" lon="2.73064">
        <ele>1190.1</ele>
        <time>2022-07-30T21:08:05.000Z</time>
      </trkpt>
      <trkpt lat="45.57435" lon="2.7306">
        <ele>1190.3</ele>
        <time>2022-07-30T21:08:06.000Z</time>
      </trkpt>
      <trkpt lat="45.57432" lon="2.73057">
        <ele>1190.5</ele>
        <time>2022-07-30T21:08:07.000Z</time>
      </trkpt>
      <trkpt lat="45.57429" lon="2.73054">
        <ele>1190.8</ele>
        <time>2022-07-30T21:08:08.000Z</time>
      </trkpt>
      <trkpt lat="45.57426" lon="2.73052">
        <ele>1191.1</ele>
        <time>2022-07-30T21:08:09.000Z</time>
      </trkpt>
      <trkpt lat="45.57423" lon="2.7305">
        <ele>1191.5</ele>
        <time>2022-07-30T21:08:10.000Z</time>
      </trkpt>
      <trkpt lat="45.57422" lon="2.73049">
        <ele>1192.1</ele>
        <time>2022-07-30T21:08:11.000Z</time>
      </trkpt>
      <trkpt lat="45.57419" lon="2.73045">
        <ele>1192.4</ele>
        <time>2022-07-30T21:08:12.000Z</time>
      </trkpt>
      <trkpt lat="45.57417" lon="2.73038">
        <ele>1192.8</ele>
        <time>2022-07-30T21:08:13.000Z</time>
      </trkpt>
      <trkpt lat="45.57415" lon="2.73031">
        <ele>1193.1</ele>
        <time>2022-07-30T21:08:14.000Z</time>
      </trkpt>
      <trkpt lat="45.57412" lon="2.73028">
        <ele>1193.4</ele>
        <time>2022-07-30T21:08:15.000Z</time>
      </trkpt>
      <trkpt lat="45.57409" lon="2.73023">
        <ele>1193.7</ele>
        <time>2022-07-30T21:08:16.000Z</time>
      </trkpt>
      <trkpt lat="45.57408" lon="2.73015">
        <ele>1194</ele>
        <time>2022-07-30T21:08:17.000Z</time>
      </trkpt>
      <trkpt lat="45.57408" lon="2.73009">
        <ele>1195</ele>
        <time>2022-07-30T21:08:18.000Z</time>
      </trkpt>
      <trkpt lat="45.57407" lon="2.73003">
        <ele>1194.3</ele>
        <time>2022-07-30T21:08:19.000Z</time>
      </trkpt>
      <trkpt lat="45.57407" lon="2.72994">
        <ele>1194.6</ele>
        <time>2022-07-30T21:08:20.000Z</time>
      </trkpt>
      <trkpt lat="45.57407" lon="2.72984">
        <ele>1194.9</ele>
        <time>2022-07-30T21:08:21.000Z</time>
      </trkpt>
      <trkpt lat="45.57406" lon="2.72972">
        <ele>1195.5</ele>
        <time>2022-07-30T21:08:22.000Z</time>
      </trkpt>
      <trkpt lat="45.57405" lon="2.72961">
        <ele>1195.8</ele>
        <time>2022-07-30T21:08:23.000Z</time>
      </trkpt>
      <trkpt lat="45.57404" lon="2.72954">
        <ele>1196.1</ele>
        <time>2022-07-30T21:08:24.000Z</time>
      </trkpt>
      <trkpt lat="45.57403" lon="2.72946">
        <ele>1196.4</ele>
        <time>2022-07-30T21:08:25.000Z</time>
      </trkpt>
      <trkpt lat="45.57402" lon="2.72941">
        <ele>1196.7</ele>
        <time>2022-07-30T21:08:26.000Z</time>
      </trkpt>
      <trkpt lat="45.57401" lon="2.72936">
        <ele>1197.2</ele>
        <time>2022-07-30T21:08:27.000Z</time>
      </trkpt>
      <trkpt lat="45.57399" lon="2.72932">
        <ele>1197.4</ele>
        <time>2022-07-30T21:08:28.000Z</time>
      </trkpt>
      <trkpt lat="45.57397" lon="2.72927">
        <ele>1197.6</ele>
        <time>2022-07-30T21:08:29.000Z</time>
      </trkpt>
      <trkpt lat="45.57397" lon="2.72921">
        <ele>1197.8</ele>
        <time>2022-07-30T21:08:30.000Z</time>
      </trkpt>
      <trkpt lat="45.57397" lon="2.72911">
        <ele>1198</ele>
        <time>2022-07-30T21:08:31.000Z</time>
      </trkpt>
      <trkpt lat="45.57395" lon="2.72901">
        <ele>1198.3</ele>
        <time>2022-07-30T21:08:32.000Z</time>
      </trkpt>
      <trkpt lat="45.57393" lon="2.72894">
        <ele>1202</ele>
        <time>2022-07-30T21:08:33.000Z</time>
      </trkpt>
      <trkpt lat="45.5739" lon="2.72884">
        <ele>1198.3</ele>
        <time>2022-07-30T21:08:34.000Z</time>
      </trkpt>
      <trkpt lat="45.57387" lon="2.72875">
        <ele>1198.3</ele>
        <time>2022-07-30T21:08:35.000Z</time>
      </trkpt>
      <trkpt lat="45.57385" lon="2.72864">
        <ele>1202</ele>
        <time>2022-07-30T21:08:36.000Z</time>
      </trkpt>
      <trkpt lat="45.57384" lon="2.72852">
        <ele>1198.3</ele>
        <time>2022-07-30T21:08:37.000Z</time>
      </trkpt>
      <trkpt lat="45.57384" lon="2.72845">
        <ele>1198.3</ele>
        <time>2022-07-30T21:08:38.000Z</time>
      </trkpt>
      <trkpt lat="45.57384" lon="2.72838">
        <ele>1202</ele>
        <time>2022-07-30T21:08:39.000Z</time>
      </trkpt>
      <trkpt lat="45.57381" lon="2.72826">
        <ele>1198.3</ele>
        <time>2022-07-30T21:08:40.000Z</time>
      </trkpt>
      <trkpt lat="45.57376" lon="2.72819">
        <ele>1198.3</ele>
        <time>2022-07-30T21:08:41.000Z</time>
      </trkpt>
      <trkpt lat="45.57372" lon="2.72813">
        <ele>1198.1</ele>
        <time>2022-07-30T21:08:42.000Z</time>
      </trkpt>
      <trkpt lat="45.57372" lon="2.72812">
        <ele>1197.8</ele>
        <time>2022-07-30T21:08:43.000Z</time>
      </trkpt>
      <trkpt lat="45.57367" lon="2.7281">
        <ele>1202</ele>
        <time>2022-07-30T21:08:44.000Z</time>
      </trkpt>
      <trkpt lat="45.57364" lon="2.72808">
        <ele>1197.6</ele>
        <time>2022-07-30T21:08:45.000Z</time>
      </trkpt>
      <trkpt lat="45.5736" lon="2.72807">
        <ele>1202</ele>
        <time>2022-07-30T21:08:46.000Z</time>
      </trkpt>
      <trkpt lat="45.57355" lon="2.72805">
        <ele>1197.4</ele>
        <time>2022-07-30T21:08:47.000Z</time>
      </trkpt>
      <trkpt lat="45.57351" lon="2.72802">
        <ele>1197.4</ele>
        <time>2022-07-30T21:08:48.000Z</time>
      </trkpt>
      <trkpt lat="45.5735" lon="2.72802">
        <ele>1197.5</ele>
        <time>2022-07-30T21:08:49.000Z</time>
      </trkpt>
      <trkpt lat="45.57349" lon="2.728">
        <ele>1202</ele>
        <time>2022-07-30T21:08:50.000Z</time>
      </trkpt>
      <trkpt lat="45.57345" lon="2.72799">
        <ele>1197.5</ele>
        <time>2022-07-30T21:08:51.000Z</time>
      </trkpt>
      <trkpt lat="45.57341" lon="2.72799">
        <ele>1202</ele>
        <time>2022-07-30T21:08:52.000Z</time>
      </trkpt>
      <trkpt lat="45.57338" lon="2.72799">
        <ele>1197.5</ele>
        <time>2022-07-30T21:08:53.000Z</time>
      </trkpt>
      <trkpt lat="45.57334" lon="2.72799">
        <ele>1197.5</ele>
        <time>2022-07-30T21:08:54.000Z</time>
      </trkpt>
      <trkpt lat="45.57331" lon="2.72799">
        <ele>1197</ele>
        <time>2022-07-30T21:08:55.000Z</time>
      </trkpt>
      <trkpt lat="45.57327" lon="2.72799">
        <ele>1197.5</ele>
        <time>2022-07-30T21:08:56.000Z</time>
      </trkpt>
      <trkpt lat="45.57322" lon="2.72801">
        <ele>1197</ele>
        <time>2022-07-30T21:08:57.000Z</time>
      </trkpt>
      <trkpt lat="45.57317" lon="2.72804">
        <ele>1197.4</ele>
        <time>2022-07-30T21:08:58.000Z</time>
      </trkpt>
      <trkpt lat="45.57313" lon="2.72806">
        <ele>1197.4</ele>
        <time>2022-07-30T21:08:59.000Z</time>
      </trkpt>
      <trkpt lat="45.5731" lon="2.72807">
        <ele>1197</ele>
        <time>2022-07-30T21:09:00.000Z</time>
      </trkpt>
      <trkpt lat="45.57305" lon="2.72811">
        <ele>1197.4</ele>
        <time>2022-07-30T21:09:01.000Z</time>
      </trkpt>
      <trkpt lat="45.573" lon="2.72814">
        <ele>1197</ele>
        <time>2022-07-30T21:09:02.000Z</time>
      </trkpt>
      <trkpt lat="45.57296" lon="2.72814">
        <ele>1197.4</ele>
        <time>2022-07-30T21:09:03.000Z</time>
      </trkpt>
      <trkpt lat="45.57292" lon="2.72814">
        <ele>1197.4</ele>
        <time>2022-07-30T21:09:04.000Z</time>
      </trkpt>
      <trkpt lat="45.57289" lon="2.72814">
        <ele>1197.5</ele>
        <time>2022-07-30T21:09:05.000Z</time>
      </trkpt>
      <trkpt lat="45.57282" lon="2.72822">
        <ele>1197.5</ele>
        <time>2022-07-30T21:09:06.000Z</time>
      </trkpt>
      <trkpt lat="45.57277" lon="2.72828">
        <ele>1197.6</ele>
        <time>2022-07-30T21:09:07.000Z</time>
      </trkpt>
      <trkpt lat="45.57272" lon="2.72833">
        <ele>1197.6</ele>
        <time>2022-07-30T21:09:08.000Z</time>
      </trkpt>
      <trkpt lat="45.57278" lon="2.72839">
        <ele>1197.6</ele>
        <time>2022-07-30T21:09:09.000Z</time>
      </trkpt>
      <trkpt lat="45.57282" lon="2.72843">
        <ele>1197.7</ele>
        <time>2022-07-30T21:09:10.000Z</time>
      </trkpt>
      <trkpt lat="45.57286" lon="2.72846">
        <ele>1190</ele>
        <time>2022-07-30T21:09:11.000Z</time>
      </trkpt>
      <trkpt lat="45.5729" lon="2.7285">
        <ele>1197.7</ele>
        <time>2022-07-30T21:09:12.000Z</time>
      </trkpt>
      <trkpt lat="45.57294" lon="2.72853">
        <ele>1190</ele>
        <time>2022-07-30T21:09:13.000Z</time>
      </trkpt>
      <trkpt lat="45.57298" lon="2.72856">
        <ele>1197.8</ele>
        <time>2022-07-30T21:09:14.000Z</time>
      </trkpt>
      <trkpt lat="45.57303" lon="2.7286">
        <ele>1197.8</ele>
        <time>2022-07-30T21:09:15.000Z</time>
      </trkpt>
      <trkpt lat="45.57307" lon="2.72864">
        <ele>1190</ele>
        <time>2022-07-30T21:09:16.000Z</time>
      </trkpt>
      <trkpt lat="45.57311" lon="2.72868">
        <ele>1198</ele>
        <time>2022-07-30T21:09:17.000Z</time>
      </trkpt>
      <trkpt lat="45.57315" lon="2.72872">
        <ele>1190</ele>
        <time>2022-07-30T21:09:18.000Z</time>
      </trkpt>
      <trkpt lat="45.57319" lon="2.72878">
        <ele>1198.1</ele>
        <time>2022-07-30T21:09:19.000Z</time>
      </trkpt>
      <trkpt lat="45.57323" lon="2.72884">
        <ele>1200</ele>
        <time>2022-07-30T21:09:20.000Z</time>
      </trkpt>
      <trkpt lat="45.57326" lon="2.7289">
        <ele>1200</ele>
        <time>2022-07-30T21:09:21.000Z</time>
      </trkpt>
      <trkpt lat="45.57328" lon="2.72894">
        <ele>1200</ele>
        <time>2022-07-30T21:09:22.000Z</time>
      </trkpt>
      <trkpt lat="45.57331" lon="2.729">
        <ele>1198.7</ele>
        <time>2022-07-30T21:09:23.000Z</time>
      </trkpt>
      <trkpt lat="45.57334" lon="2.72906">
        <ele>1191</ele>
        <time>2022-07-30T21:09:24.000Z</time>
      </trkpt>
      <trkpt lat="45.57335" lon="2.72913">
        <ele>1199</ele>
        <time>2022-07-30T21:09:25.000Z</time>
      </trkpt>
      <trkpt lat="45.57335" lon="2.7292">
        <ele>1199.3</ele>
        <time>2022-07-30T21:09:26.000Z</time>
      </trkpt>
      <trkpt lat="45.57336" lon="2.72928">
        <ele>1191</ele>
        <time>2022-07-30T21:09:27.000Z</time>
      </trkpt>
      <trkpt lat="45.57335" lon="2.72934">
        <ele>1191</ele>
        <time>2022-07-30T21:09:28.000Z</time>
      </trkpt>
      <trkpt lat="45.57333" lon="2.7294">
        <ele>1199.7</ele>
        <time>2022-07-30T21:09:29.000Z</time>
      </trkpt>
      <trkpt lat="45.57332" lon="2.72946">
        <ele>1191</ele>
        <time>2022-07-30T21:09:30.000Z</time>
      </trkpt>
      <trkpt lat="45.57331" lon="2.72953">
        <ele>1200</ele>
        <time>2022-07-30T21:09:31.000Z</time>
      </trkpt>
      <trkpt lat="45.5733" lon="2.72959">
        <ele>1200.1</ele>
        <time>2022-07-30T21:09:32.000Z</time>
      </trkpt>
      <trkpt lat="45.57328" lon="2.72967">
        <ele>1191</ele>
        <time>2022-07-30T21:09:33.000Z</time>
      </trkpt>
      <trkpt lat="45.57327" lon="2.72974">
        <ele>1200.2</ele>
        <time>2022-07-30T21:09:34.000Z</time>
      </trkpt>
      <trkpt lat="45.57325" lon="2.72981">
        <ele>1200.2</ele>
        <time>2022-07-30T21:09:35.000Z</time>
      </trkpt>
      <trkpt lat="45.57324" lon="2.72987">
        <ele>1191</ele>
        <time>2022-07-30T21:09:36.000Z</time>
      </trkpt>
      <trkpt lat="45.57323" lon="2.72994">
        <ele>1191</ele>
        <time>2022-07-30T21:09:37.000Z</time>
      </trkpt>
      <trkpt lat="45.57322" lon="2.73">
        <ele>1191</ele>
        <time>2022-07-30T21:09:38.000Z</time>
      </trkpt>
      <trkpt lat="45.5732" lon="2.73007">
        <ele>1191</ele>
        <time>2022-07-30T21:09:39.000Z</time>
      </trkpt>
      <trkpt lat="45.57319" lon="2.73013">
        <ele>1191</ele>
        <time>2022-07-30T21:09:40.000Z</time>
      </trkpt>
      <trkpt lat="45.57318" lon="2.73019">
        <ele>1191</ele>
        <time>2022-07-30T21:09:41.000Z</time>
      </trkpt>
      <trkpt lat="45.57317" lon="2.73026">
        <ele>1191</ele>
        <time>2022-07-30T21:09:42.000Z</time>
      </trkpt>
      <trkpt lat="45.57315" lon="2.73032">
        <ele>1191</ele>
        <time>2022-07-30T21:09:43.000Z</time>
      </trkpt>
      <trkpt lat="45.57314" lon="2.73039">
        <ele>1191</ele>
        <time>2022-07-30T21:09:44.000Z</time>
      </trkpt>
      <trkpt lat="45.57312" lon="2.73046">
        <ele>1191</ele>
        <time>2022-07-30T21:09:45.000Z</time>
      </trkpt>
      <trkpt lat="45.57311" lon="2.73052">
        <ele>1191</ele>
        <time>2022-07-30T21:09:46.000Z</time>
      </trkpt>
      <trkpt lat="45.57309" lon="2.73059">
        <ele>1194</ele>
        <time>2022-07-30T21:09:47.000Z</time>
      </trkpt>
      <trkpt lat="45.57308" lon="2.73065">
        <ele>1194</ele>
        <time>2022-07-30T21:09:48.000Z</time>
      </trkpt>
      <trkpt lat="45.57306" lon="2.73072">
        <ele>1194</ele>
        <time>2022-07-30T21:09:49.000Z</time>
      </trkpt>
      <trkpt lat="45.57305" lon="2.73079">
        <ele>1194</ele>
        <time>2022-07-30T21:09:50.000Z</time>
      </trkpt>
      <trkpt lat="45.57303" lon="2.73085">
        <ele>1194</ele>
        <time>2022-07-30T21:09:51.000Z</time>
      </trkpt>
      <trkpt lat="45.573" lon="2.73093">
        <ele>1194</ele>
        <time>2022-07-30T21:09:52.000Z</time>
      </trkpt>
      <trkpt lat="45.57298" lon="2.731">
        <ele>1194</ele>
        <time>2022-07-30T21:09:53.000Z</time>
      </trkpt>
      <trkpt lat="45.57295" lon="2.73108">
        <ele>1194</ele>
        <time>2022-07-30T21:09:54.000Z</time>
      </trkpt>
      <trkpt lat="45.57292" lon="2.73113">
        <ele>1194</ele>
        <time>2022-07-30T21:09:55.000Z</time>
      </trkpt>
      <trkpt lat="45.57289" lon="2.73118">
        <ele>1194</ele>
        <time>2022-07-30T21:09:56.000Z</time>
      </trkpt>
      <trkpt lat="45.57287" lon="2.73123">
        <ele>1206</ele>
        <time>2022-07-30T21:09:57.000Z</time>
      </trkpt>
      <trkpt lat="45.57284" lon="2.73128">
        <ele>1206</ele>
        <time>2022-07-30T21:09:58.000Z</time>
      </trkpt>
      <trkpt lat="45.5728" lon="2.73131">
        <ele>1206</ele>
        <time>2022-07-30T21:09:59.000Z</time>
      </trkpt>
      <trkpt lat="45.57275" lon="2.73135">
        <ele>1206</ele>
        <time>2022-07-30T21:10:00.000Z</time>
      </trkpt>
      <trkpt lat="45.57274" lon="2.73136">
        <ele>1206</ele>
        <time>2022-07-30T21:10:01.000Z</time>
      </trkpt>
      <trkpt lat="45.57269" lon="2.7314">
        <ele>1206</ele>
        <time>2022-07-30T21:10:02.000Z</time>
      </trkpt>
      <trkpt lat="45.57264" lon="2.7314">
        <ele>1200</ele>
        <time>2022-07-30T21:10:03.000Z</time>
      </trkpt>
      <trkpt lat="45.57259" lon="2.7314">
        <ele>1200</ele>
        <time>2022-07-30T21:10:04.000Z</time>
      </trkpt>
      <trkpt lat="45.57253" lon="2.7314">
        <ele>1200</ele>
        <time>2022-07-30T21:10:05.000Z</time>
      </trkpt>
      <trkpt lat="45.57248" lon="2.73139">
        <ele>1200</ele>
        <time>2022-07-30T21:10:06.000Z</time>
      </trkpt>
      <trkpt lat="45.57243" lon="2.73138">
        <ele>1200</ele>
        <time>2022-07-30T21:10:07.000Z</time>
      </trkpt>
      <trkpt lat="45.57238" lon="2.73137">
        <ele>1200</ele>
        <time>2022-07-30T21:10:08.000Z</time>
      </trkpt>
      <trkpt lat="45.57232" lon="2.73136">
        <ele>1200</ele>
        <time>2022-07-30T21:10:09.000Z</time>
      </trkpt>
      <trkpt lat="45.57228" lon="2.73133">
        <ele>1200</ele>
        <time>2022-07-30T21:10:10.000Z</time>
      </trkpt>
      <trkpt lat="45.57224" lon="2.7313">
        <ele>1200</ele>
        <time>2022-07-30T21:10:11.000Z</time>
      </trkpt>
      <trkpt lat="45.57219" lon="2.73126">
        <ele>1200</ele>
        <time>2022-07-30T21:10:12.000Z</time>
      </trkpt>
      <trkpt lat="45.57215" lon="2.73123">
        <ele>1200</ele>
        <time>2022-07-30T21:10:13.000Z</time>
      </trkpt>
      <trkpt lat="45.57211" lon="2.7312">
        <ele>1200</ele>
        <time>2022-07-30T21:10:14.000Z</time>
      </trkpt>
      <trkpt lat="45.57206" lon="2.73117">
        <ele>1200</ele>
        <time>2022-07-30T21:10:15.000Z</time>
      </trkpt>
      <trkpt lat="45.57203" lon="2.73112">
        <ele>1207</ele>
        <time>2022-07-30T21:10:16.000Z</time>
      </trkpt>
      <trkpt lat="45.57199" lon="2.73107">
        <ele>1207</ele>
        <time>2022-07-30T21:10:17.000Z</time>
      </trkpt>
      <trkpt lat="45.57196" lon="2.73103">
        <ele>1207</ele>
        <time>2022-07-30T21:10:18.000Z</time>
      </trkpt>
      <trkpt lat="45.57192" lon="2.73098">
        <ele>1207</ele>
        <time>2022-07-30T21:10:19.000Z</time>
      </trkpt>
      <trkpt lat="45.57189" lon="2.73094">
        <ele>1207</ele>
        <time>2022-07-30T21:10:20.000Z</time>
      </trkpt>
      <trkpt lat="45.57185" lon="2.73089">
        <ele>1207</ele>
        <time>2022-07-30T21:10:21.000Z</time>
      </trkpt>
      <trkpt lat="45.57183" lon="2.73083">
        <ele>1207</ele>
        <time>2022-07-30T21:10:22.000Z</time>
      </trkpt>
      <trkpt lat="45.57181" lon="2.73077">
        <ele>1207</ele>
        <time>2022-07-30T21:10:23.000Z</time>
      </trkpt>
      <trkpt lat="45.57178" lon="2.73071">
        <ele>1207</ele>
        <time>2022-07-30T21:10:24.000Z</time>
      </trkpt>
      <trkpt lat="45.57176" lon="2.73064">
        <ele>1207</ele>
        <time>2022-07-30T21:10:25.000Z</time>
      </trkpt>
      <trkpt lat="45.57173" lon="2.73058">
        <ele>1207</ele>
        <time>2022-07-30T21:10:26.000Z</time>
      </trkpt>
      <trkpt lat="45.57171" lon="2.73052">
        <ele>1207</ele>
        <time>2022-07-30T21:10:27.000Z</time>
      </trkpt>
      <trkpt lat="45.57168" lon="2.73046">
        <ele>1207</ele>
        <time>2022-07-30T21:10:28.000Z</time>
      </trkpt>
      <trkpt lat="45.57166" lon="2.73038">
        <ele>1209</ele>
        <time>2022-07-30T21:10:29.000Z</time>
      </trkpt>
      <trkpt lat="45.57164" lon="2.7303">
        <ele>1209</ele>
        <time>2022-07-30T21:10:30.000Z</time>
      </trkpt>
      <trkpt lat="45.57158" lon="2.73026">
        <ele>1209</ele>
        <time>2022-07-30T21:10:31.000Z</time>
      </trkpt>
      <trkpt lat="45.57153" lon="2.73022">
        <ele>1209</ele>
        <time>2022-07-30T21:10:32.000Z</time>
      </trkpt>
      <trkpt lat="45.57148" lon="2.73018">
        <ele>1209</ele>
        <time>2022-07-30T21:10:33.000Z</time>
      </trkpt>
      <trkpt lat="45.57143" lon="2.73015">
        <ele>1209</ele>
        <time>2022-07-30T21:10:34.000Z</time>
      </trkpt>
      <trkpt lat="45.57137" lon="2.73011">
        <ele>1209</ele>
        <time>2022-07-30T21:10:35.000Z</time>
      </trkpt>
      <trkpt lat="45.57132" lon="2.73007">
        <ele>1209</ele>
        <time>2022-07-30T21:10:36.000Z</time>
      </trkpt>
      <trkpt lat="45.57127" lon="2.73006">
        <ele>1209</ele>
        <time>2022-07-30T21:10:37.000Z</time>
      </trkpt>
      <trkpt lat="45.57121" lon="2.73004">
        <ele>1209</ele>
        <time>2022-07-30T21:10:38.000Z</time>
      </trkpt>
      <trkpt lat="45.57116" lon="2.73003">
        <ele>1209</ele>
        <time>2022-07-30T21:10:39.000Z</time>
      </trkpt>
      <trkpt lat="45.57111" lon="2.73002">
        <ele>1209</ele>
        <time>2022-07-30T21:10:40.000Z</time>
      </trkpt>
      <trkpt lat="45.57106" lon="2.73003">
        <ele>1218</ele>
        <time>2022-07-30T21:10:41.000Z</time>
      </trkpt>
      <trkpt lat="45.57101" lon="2.73004">
        <ele>1218</ele>
        <time>2022-07-30T21:10:42.000Z</time>
      </trkpt>
      <trkpt lat="45.57097" lon="2.73006">
        <ele>1218</ele>
        <time>2022-07-30T21:10:43.000Z</time>
      </trkpt>
      <trkpt lat="45.57092" lon="2.73007">
        <ele>1218</ele>
        <time>2022-07-30T21:10:44.000Z</time>
      </trkpt>
      <trkpt lat="45.57087" lon="2.73009">
        <ele>1218</ele>
        <time>2022-07-30T21:10:45.000Z</time>
      </trkpt>
      <trkpt lat="45.57083" lon="2.73011">
        <ele>1218</ele>
        <time>2022-07-30T21:10:46.000Z</time>
      </trkpt>
      <trkpt lat="45.57079" lon="2.73014">
        <ele>1218</ele>
        <time>2022-07-30T21:10:47.000Z</time>
      </trkpt>
      <trkpt lat="45.57075" lon="2.73017">
        <ele>1218</ele>
        <time>2022-07-30T21:10:48.000Z</time>
      </trkpt>
      <trkpt lat="45.57071" lon="2.73019">
        <ele>1218</ele>
        <time>2022-07-30T21:10:49.000Z</time>
      </trkpt>
      <trkpt lat="45.57068" lon="2.73025">
        <ele>1218</ele>
        <time>2022-07-30T21:10:50.000Z</time>
      </trkpt>
      <trkpt lat="45.57065" lon="2.73031">
        <ele>1218</ele>
        <time>2022-07-30T21:10:51.000Z</time>
      </trkpt>
      <trkpt lat="45.57062" lon="2.73037">
        <ele>1218</ele>
        <time>2022-07-30T21:10:52.000Z</time>
      </trkpt>
      <trkpt lat="45.57062" lon="2.73044">
        <ele>1218</ele>
        <time>2022-07-30T21:10:53.000Z</time>
      </trkpt>
      <trkpt lat="45.57062" lon="2.73051">
        <ele>1218</ele>
        <time>2022-07-30T21:10:54.000Z</time>
      </trkpt>
      <trkpt lat="45.57062" lon="2.73058">
        <ele>1218</ele>
        <time>2022-07-30T21:10:55.000Z</time>
      </trkpt>
      <trkpt lat="45.57062" lon="2.73065">
        <ele>1218</ele>
        <time>2022-07-30T21:10:56.000Z</time>
      </trkpt>
      <trkpt lat="45.57063" lon="2.73071">
        <ele>1218</ele>
        <time>2022-07-30T21:10:57.000Z</time>
      </trkpt>
      <trkpt lat="45.57063" lon="2.73078">
        <ele>1218</ele>
        <time>2022-07-30T21:10:58.000Z</time>
      </trkpt>
      <trkpt lat="45.57064" lon="2.73085">
        <ele>1218</ele>
        <time>2022-07-30T21:10:59.000Z</time>
      </trkpt>
      <trkpt lat="45.57064" lon="2.73092">
        <ele>1218</ele>
        <time>2022-07-30T21:11:00.000Z</time>
      </trkpt>
      <trkpt lat="45.57065" lon="2.73099">
        <ele>1218</ele>
        <time>2022-07-30T21:11:01.000Z</time>
      </trkpt>
      <trkpt lat="45.57065" lon="2.73106">
        <ele>1218</ele>
        <time>2022-07-30T21:11:02.000Z</time>
      </trkpt>
      <trkpt lat="45.57066" lon="2.73112">
        <ele>1218</ele>
        <time>2022-07-30T21:11:03.000Z</time>
      </trkpt>
      <trkpt lat="45.57066" lon="2.73119">
        <ele>1224</ele>
        <time>2022-07-30T21:11:04.000Z</time>
      </trkpt>
      <trkpt lat="45.57067" lon="2.73126">
        <ele>1224</ele>
        <time>2022-07-30T21:11:05.000Z</time>
      </trkpt>
      <trkpt lat="45.57068" lon="2.73133">
        <ele>1224</ele>
        <time>2022-07-30T21:11:06.000Z</time>
      </trkpt>
      <trkpt lat="45.57068" lon="2.73139">
        <ele>1224</ele>
        <time>2022-07-30T21:11:07.000Z</time>
      </trkpt>
      <trkpt lat="45.57069" lon="2.73146">
        <ele>1224</ele>
        <time>2022-07-30T21:11:08.000Z</time>
      </trkpt>
      <trkpt lat="45.57069" lon="2.73153">
        <ele>1224</ele>
        <time>2022-07-30T21:11:09.000Z</time>
      </trkpt>
      <trkpt lat="45.5707" lon="2.7316">
        <ele>1224</ele>
        <time>2022-07-30T21:11:10.000Z</time>
      </trkpt>
      <trkpt lat="45.57071" lon="2.73167">
        <ele>1224</ele>
        <time>2022-07-30T21:11:11.000Z</time>
      </trkpt>
      <trkpt lat="45.57072" lon="2.73173">
        <ele>1224</ele>
        <time>2022-07-30T21:11:12.000Z</time>
      </trkpt>
      <trkpt lat="45.57073" lon="2.7318">
        <ele>1221</ele>
        <time>2022-07-30T21:11:13.000Z</time>
      </trkpt>
      <trkpt lat="45.57074" lon="2.73187">
        <ele>1221</ele>
        <time>2022-07-30T21:11:14.000Z</time>
      </trkpt>
      <trkpt lat="45.57076" lon="2.73194">
        <ele>1221</ele>
        <time>2022-07-30T21:11:15.000Z</time>
      </trkpt>
      <trkpt lat="45.57077" lon="2.73202">
        <ele>1221</ele>
        <time>2022-07-30T21:11:16.000Z</time>
      </trkpt>
      <trkpt lat="45.57079" lon="2.73209">
        <ele>1221</ele>
        <time>2022-07-30T21:11:17.000Z</time>
      </trkpt>
      <trkpt lat="45.57079" lon="2.73215">
        <ele>1221</ele>
        <time>2022-07-30T21:11:18.000Z</time>
      </trkpt>
      <trkpt lat="45.57079" lon="2.7322">
        <ele>1221</ele>
        <time>2022-07-30T21:11:19.000Z</time>
      </trkpt>
      <trkpt lat="45.57079" lon="2.73225">
        <ele>1221</ele>
        <time>2022-07-30T21:11:20.000Z</time>
      </trkpt>
      <trkpt lat="45.57078" lon="2.73228">
        <ele>1221</ele>
        <time>2022-07-30T21:11:21.000Z</time>
      </trkpt>
      <trkpt lat="45.57075" lon="2.73234">
        <ele>1221</ele>
        <time>2022-07-30T21:11:22.000Z</time>
      </trkpt>
      <trkpt lat="45.57072" lon="2.7324">
        <ele>1221</ele>
        <time>2022-07-30T21:11:23.000Z</time>
      </trkpt>
      <trkpt lat="45.57067" lon="2.7324">
        <ele>1221</ele>
        <time>2022-07-30T21:11:24.000Z</time>
      </trkpt>
      <trkpt lat="45.57062" lon="2.7324">
        <ele>1221</ele>
        <time>2022-07-30T21:11:25.000Z</time>
      </trkpt>
      <trkpt lat="45.57058" lon="2.73234">
        <ele>1221</ele>
        <time>2022-07-30T21:11:26.000Z</time>
      </trkpt>
      <trkpt lat="45.57055" lon="2.73229">
        <ele>1221</ele>
        <time>2022-07-30T21:11:27.000Z</time>
      </trkpt>
      <trkpt lat="45.57051" lon="2.73224">
        <ele>1224</ele>
        <time>2022-07-30T21:11:28.000Z</time>
      </trkpt>
      <trkpt lat="45.57047" lon="2.73218">
        <ele>1224</ele>
        <time>2022-07-30T21:11:29.000Z</time>
      </trkpt>
      <trkpt lat="45.57044" lon="2.73213">
        <ele>1224</ele>
        <time>2022-07-30T21:11:30.000Z</time>
      </trkpt>
      <trkpt lat="45.5704" lon="2.73209">
        <ele>1215</ele>
        <time>2022-07-30T21:11:31.000Z</time>
      </trkpt>
      <trkpt lat="45.57036" lon="2.73204">
        <ele>1215</ele>
        <time>2022-07-30T21:11:32.000Z</time>
      </trkpt>
      <trkpt lat="45.57033" lon="2.73199">
        <ele>1215</ele>
        <time>2022-07-30T21:11:33.000Z</time>
      </trkpt>
      <trkpt lat="45.57029" lon="2.73194">
        <ele>1215</ele>
        <time>2022-07-30T21:11:34.000Z</time>
      </trkpt>
      <trkpt lat="45.57025" lon="2.73192">
        <ele>1224</ele>
        <time>2022-07-30T21:11:35.000Z</time>
      </trkpt>
      <trkpt lat="45.5702" lon="2.7319">
        <ele>1224</ele>
        <time>2022-07-30T21:11:36.000Z</time>
      </trkpt>
      <trkpt lat="45.57015" lon="2.73188">
        <ele>1224</ele>
        <time>2022-07-30T21:11:37.000Z</time>
      </trkpt>
      <trkpt lat="45.57011" lon="2.73186">
        <ele>1224</ele>
        <time>2022-07-30T21:11:38.000Z</time>
      </trkpt>
      <trkpt lat="45.57006" lon="2.73185">
        <ele>1224</ele>
        <time>2022-07-30T21:11:39.000Z</time>
      </trkpt>
      <trkpt lat="45.57001" lon="2.73184">
        <ele>1224</ele>
        <time>2022-07-30T21:11:40.000Z</time>
      </trkpt>
      <trkpt lat="45.56996" lon="2.73183">
        <ele>1224</ele>
        <time>2022-07-30T21:11:41.000Z</time>
      </trkpt>
      <trkpt lat="45.56991" lon="2.73182">
        <ele>1224</ele>
        <time>2022-07-30T21:11:42.000Z</time>
      </trkpt>
      <trkpt lat="45.56986" lon="2.73181">
        <ele>1224</ele>
        <time>2022-07-30T21:11:43.000Z</time>
      </trkpt>
      <trkpt lat="45.56981" lon="2.73179">
        <ele>1224</ele>
        <time>2022-07-30T21:11:44.000Z</time>
      </trkpt>
      <trkpt lat="45.56976" lon="2.73179">
        <ele>1224</ele>
        <time>2022-07-30T21:11:45.000Z</time>
      </trkpt>
      <trkpt lat="45.56972" lon="2.73178">
        <ele>1224</ele>
        <time>2022-07-30T21:11:46.000Z</time>
      </trkpt>
      <trkpt lat="45.56967" lon="2.73177">
        <ele>1224</ele>
        <time>2022-07-30T21:11:47.000Z</time>
      </trkpt>
      <trkpt lat="45.56963" lon="2.73176">
        <ele>1224</ele>
        <time>2022-07-30T21:11:48.000Z</time>
      </trkpt>
      <trkpt lat="45.56958" lon="2.73176">
        <ele>1224</ele>
        <time>2022-07-30T21:11:49.000Z</time>
      </trkpt>
      <trkpt lat="45.56954" lon="2.73175">
        <ele>1224</ele>
        <time>2022-07-30T21:11:50.000Z</time>
      </trkpt>
      <trkpt lat="45.56949" lon="2.73175">
        <ele>1224</ele>
        <time>2022-07-30T21:11:51.000Z</time>
      </trkpt>
      <trkpt lat="45.56944" lon="2.73175">
        <ele>1224</ele>
        <time>2022-07-30T21:11:52.000Z</time>
      </trkpt>
      <trkpt lat="45.56939" lon="2.73175">
        <ele>1230</ele>
        <time>2022-07-30T21:11:53.000Z</time>
      </trkpt>
      <trkpt lat="45.56933" lon="2.73175">
        <ele>1230</ele>
        <time>2022-07-30T21:11:54.000Z</time>
      </trkpt>
      <trkpt lat="45.56928" lon="2.73175">
        <ele>1230</ele>
        <time>2022-07-30T21:11:55.000Z</time>
      </trkpt>
      <trkpt lat="45.56923" lon="2.73175">
        <ele>1230</ele>
        <time>2022-07-30T21:11:56.000Z</time>
      </trkpt>
      <trkpt lat="45.56918" lon="2.73174">
        <ele>1230</ele>
        <time>2022-07-30T21:11:57.000Z</time>
      </trkpt>
      <trkpt lat="45.56913" lon="2.73174">
        <ele>1230</ele>
        <time>2022-07-30T21:11:58.000Z</time>
      </trkpt>
      <trkpt lat="45.56909" lon="2.73174">
        <ele>1230</ele>
        <time>2022-07-30T21:11:59.000Z</time>
      </trkpt>
      <trkpt lat="45.56904" lon="2.73174">
        <ele>1230</ele>
        <time>2022-07-30T21:12:00.000Z</time>
      </trkpt>
      <trkpt lat="45.56899" lon="2.73173">
        <ele>1230</ele>
        <time>2022-07-30T21:12:01.000Z</time>
      </trkpt>
      <trkpt lat="45.56894" lon="2.73173">
        <ele>1230</ele>
        <time>2022-07-30T21:12:02.000Z</time>
      </trkpt>
      <trkpt lat="45.5689" lon="2.73173">
        <ele>1230</ele>
        <time>2022-07-30T21:12:03.000Z</time>
      </trkpt>
      <trkpt lat="45.56885" lon="2.73173">
        <ele>1230</ele>
        <time>2022-07-30T21:12:04.000Z</time>
      </trkpt>
      <trkpt lat="45.5688" lon="2.73172">
        <ele>1234</ele>
        <time>2022-07-30T21:12:05.000Z</time>
      </trkpt>
      <trkpt lat="45.56875" lon="2.73173">
        <ele>1234</ele>
        <time>2022-07-30T21:12:06.000Z</time>
      </trkpt>
      <trkpt lat="45.5687" lon="2.73173">
        <ele>1234</ele>
        <time>2022-07-30T21:12:07.000Z</time>
      </trkpt>
      <trkpt lat="45.56866" lon="2.73174">
        <ele>1234</ele>
        <time>2022-07-30T21:12:08.000Z</time>
      </trkpt>
      <trkpt lat="45.56861" lon="2.73174">
        <ele>1234</ele>
        <time>2022-07-30T21:12:09.000Z</time>
      </trkpt>
      <trkpt lat="45.56856" lon="2.73175">
        <ele>1234</ele>
        <time>2022-07-30T21:12:10.000Z</time>
      </trkpt>
      <trkpt lat="45.56851" lon="2.73175">
        <ele>1234</ele>
        <time>2022-07-30T21:12:11.000Z</time>
      </trkpt>
      <trkpt lat="45.56848" lon="2.73176">
        <ele>1234</ele>
        <time>2022-07-30T21:12:12.000Z</time>
      </trkpt>
      <trkpt lat="45.56844" lon="2.73176">
        <ele>1234</ele>
        <time>2022-07-30T21:12:13.000Z</time>
      </trkpt>
      <trkpt lat="45.56839" lon="2.73176">
        <ele>1234</ele>
        <time>2022-07-30T21:12:14.000Z</time>
      </trkpt>
      <trkpt lat="45.56835" lon="2.73176">
        <ele>1234</ele>
        <time>2022-07-30T21:12:15.000Z</time>
      </trkpt>
      <trkpt lat="45.5683" lon="2.73176">
        <ele>1234</ele>
        <time>2022-07-30T21:12:16.000Z</time>
      </trkpt>
      <trkpt lat="45.56825" lon="2.73177">
        <ele>1234</ele>
        <time>2022-07-30T21:12:17.000Z</time>
      </trkpt>
      <trkpt lat="45.56821" lon="2.73177">
        <ele>1234</ele>
        <time>2022-07-30T21:12:18.000Z</time>
      </trkpt>
      <trkpt lat="45.56816" lon="2.73177">
        <ele>1234</ele>
        <time>2022-07-30T21:12:19.000Z</time>
      </trkpt>
      <trkpt lat="45.56811" lon="2.73177">
        <ele>1234</ele>
        <time>2022-07-30T21:12:20.000Z</time>
      </trkpt>
      <trkpt lat="45.56807" lon="2.73178">
        <ele>1234</ele>
        <time>2022-07-30T21:12:21.000Z</time>
      </trkpt>
      <trkpt lat="45.56802" lon="2.73178">
        <ele>1234</ele>
        <time>2022-07-30T21:12:22.000Z</time>
      </trkpt>
      <trkpt lat="45.56798" lon="2.73178">
        <ele>1234</ele>
        <time>2022-07-30T21:12:23.000Z</time>
      </trkpt>
      <trkpt lat="45.56793" lon="2.73178">
        <ele>1234</ele>
        <time>2022-07-30T21:12:24.000Z</time>
      </trkpt>
      <trkpt lat="45.56788" lon="2.73178">
        <ele>1234</ele>
        <time>2022-07-30T21:12:25.000Z</time>
      </trkpt>
      <trkpt lat="45.56784" lon="2.73179">
        <ele>1234</ele>
        <time>2022-07-30T21:12:26.000Z</time>
      </trkpt>
      <trkpt lat="45.56779" lon="2.7318">
        <ele>1234</ele>
        <time>2022-07-30T21:12:27.000Z</time>
      </trkpt>
      <trkpt lat="45.56774" lon="2.73182">
        <ele>1234</ele>
        <time>2022-07-30T21:12:28.000Z</time>
      </trkpt>
      <trkpt lat="45.5677" lon="2.73183">
        <ele>1234</ele>
        <time>2022-07-30T21:12:29.000Z</time>
      </trkpt>
      <trkpt lat="45.56765" lon="2.73184">
        <ele>1234</ele>
        <time>2022-07-30T21:12:30.000Z</time>
      </trkpt>
      <trkpt lat="45.56761" lon="2.73185">
        <ele>1234</ele>
        <time>2022-07-30T21:12:31.000Z</time>
      </trkpt>
      <trkpt lat="45.56756" lon="2.73186">
        <ele>1234</ele>
        <time>2022-07-30T21:12:32.000Z</time>
      </trkpt>
      <trkpt lat="45.56751" lon="2.73187">
        <ele>1234</ele>
        <time>2022-07-30T21:12:33.000Z</time>
      </trkpt>
      <trkpt lat="45.56747" lon="2.73188">
        <ele>1234</ele>
        <time>2022-07-30T21:12:34.000Z</time>
      </trkpt>
      <trkpt lat="45.56742" lon="2.73189">
        <ele>1234</ele>
        <time>2022-07-30T21:12:35.000Z</time>
      </trkpt>
      <trkpt lat="45.56737" lon="2.7319">
        <ele>1234</ele>
        <time>2022-07-30T21:12:36.000Z</time>
      </trkpt>
      <trkpt lat="45.56732" lon="2.73192">
        <ele>1234</ele>
        <time>2022-07-30T21:12:37.000Z</time>
      </trkpt>
      <trkpt lat="45.56728" lon="2.73193">
        <ele>1234</ele>
        <time>2022-07-30T21:12:38.000Z</time>
      </trkpt>
      <trkpt lat="45.56723" lon="2.73194">
        <ele>1234</ele>
        <time>2022-07-30T21:12:39.000Z</time>
      </trkpt>
      <trkpt lat="45.56718" lon="2.73195">
        <ele>1234</ele>
        <time>2022-07-30T21:12:40.000Z</time>
      </trkpt>
      <trkpt lat="45.56713" lon="2.73197">
        <ele>1236</ele>
        <time>2022-07-30T21:12:41.000Z</time>
      </trkpt>
      <trkpt lat="45.56708" lon="2.73198">
        <ele>1236</ele>
        <time>2022-07-30T21:12:42.000Z</time>
      </trkpt>
      <trkpt lat="45.56704" lon="2.732">
        <ele>1236</ele>
        <time>2022-07-30T21:12:43.000Z</time>
      </trkpt>
      <trkpt lat="45.56699" lon="2.73202">
        <ele>1236</ele>
        <time>2022-07-30T21:12:44.000Z</time>
      </trkpt>
      <trkpt lat="45.56695" lon="2.73204">
        <ele>1236</ele>
        <time>2022-07-30T21:12:45.000Z</time>
      </trkpt>
      <trkpt lat="45.5669" lon="2.73206">
        <ele>1236</ele>
        <time>2022-07-30T21:12:46.000Z</time>
      </trkpt>
      <trkpt lat="45.56685" lon="2.73207">
        <ele>1236</ele>
        <time>2022-07-30T21:12:47.000Z</time>
      </trkpt>
      <trkpt lat="45.56681" lon="2.73209">
        <ele>1236</ele>
        <time>2022-07-30T21:12:48.000Z</time>
      </trkpt>
      <trkpt lat="45.56676" lon="2.7321">
        <ele>1236</ele>
        <time>2022-07-30T21:12:49.000Z</time>
      </trkpt>
      <trkpt lat="45.56672" lon="2.73212">
        <ele>1236</ele>
        <time>2022-07-30T21:12:50.000Z</time>
      </trkpt>
      <trkpt lat="45.56667" lon="2.73213">
        <ele>1236</ele>
        <time>2022-07-30T21:12:51.000Z</time>
      </trkpt>
      <trkpt lat="45.56662" lon="2.73215">
        <ele>1236</ele>
        <time>2022-07-30T21:12:52.000Z</time>
      </trkpt>
      <trkpt lat="45.56658" lon="2.73217">
        <ele>1236</ele>
        <time>2022-07-30T21:12:53.000Z</time>
      </trkpt>
      <trkpt lat="45.56653" lon="2.73218">
        <ele>1236</ele>
        <time>2022-07-30T21:12:54.000Z</time>
      </trkpt>
      <trkpt lat="45.56648" lon="2.7322">
        <ele>1236</ele>
        <time>2022-07-30T21:12:55.000Z</time>
      </trkpt>
      <trkpt lat="45.56644" lon="2.73222">
        <ele>1236</ele>
        <time>2022-07-30T21:12:56.000Z</time>
      </trkpt>
      <trkpt lat="45.56639" lon="2.73224">
        <ele>1236</ele>
        <time>2022-07-30T21:12:57.000Z</time>
      </trkpt>
      <trkpt lat="45.56634" lon="2.73226">
        <ele>1241</ele>
        <time>2022-07-30T21:12:58.000Z</time>
      </trkpt>
      <trkpt lat="45.5663" lon="2.73228">
        <ele>1241</ele>
        <time>2022-07-30T21:12:59.000Z</time>
      </trkpt>
      <trkpt lat="45.56624" lon="2.7323">
        <ele>1241</ele>
        <time>2022-07-30T21:13:00.000Z</time>
      </trkpt>
      <trkpt lat="45.56619" lon="2.73232">
        <ele>1241</ele>
        <time>2022-07-30T21:13:01.000Z</time>
      </trkpt>
      <trkpt lat="45.56613" lon="2.73234">
        <ele>1241</ele>
        <time>2022-07-30T21:13:02.000Z</time>
      </trkpt>
      <trkpt lat="45.56608" lon="2.73238">
        <ele>1241</ele>
        <time>2022-07-30T21:13:03.000Z</time>
      </trkpt>
      <trkpt lat="45.56603" lon="2.73242">
        <ele>1241</ele>
        <time>2022-07-30T21:13:04.000Z</time>
      </trkpt>
      <trkpt lat="45.56598" lon="2.73246">
        <ele>1241</ele>
        <time>2022-07-30T21:13:05.000Z</time>
      </trkpt>
      <trkpt lat="45.56594" lon="2.7325">
        <ele>1241</ele>
        <time>2022-07-30T21:13:06.000Z</time>
      </trkpt>
      <trkpt lat="45.5659" lon="2.73254">
        <ele>1241</ele>
        <time>2022-07-30T21:13:07.000Z</time>
      </trkpt>
      <trkpt lat="45.56585" lon="2.73257">
        <ele>1241</ele>
        <time>2022-07-30T21:13:08.000Z</time>
      </trkpt>
      <trkpt lat="45.5658" lon="2.73259">
        <ele>1241</ele>
        <time>2022-07-30T21:13:09.000Z</time>
      </trkpt>
      <trkpt lat="45.56575" lon="2.7326">
        <ele>1241</ele>
        <time>2022-07-30T21:13:10.000Z</time>
      </trkpt>
      <trkpt lat="45.5657" lon="2.73261">
        <ele>1241</ele>
        <time>2022-07-30T21:13:11.000Z</time>
      </trkpt>
      <trkpt lat="45.56564" lon="2.73262">
        <ele>1241</ele>
        <time>2022-07-30T21:13:12.000Z</time>
      </trkpt>
      <trkpt lat="45.56558" lon="2.73264">
        <ele>1241</ele>
        <time>2022-07-30T21:13:13.000Z</time>
      </trkpt>
      <trkpt lat="45.56552" lon="2.73265">
        <ele>1241</ele>
        <time>2022-07-30T21:13:14.000Z</time>
      </trkpt>
      <trkpt lat="45.56548" lon="2.73266">
        <ele>1242</ele>
        <time>2022-07-30T21:13:15.000Z</time>
      </trkpt>
      <trkpt lat="45.56543" lon="2.73268">
        <ele>1242</ele>
        <time>2022-07-30T21:13:16.000Z</time>
      </trkpt>
      <trkpt lat="45.56538" lon="2.73269">
        <ele>1242</ele>
        <time>2022-07-30T21:13:17.000Z</time>
      </trkpt>
      <trkpt lat="45.56533" lon="2.7327">
        <ele>1242</ele>
        <time>2022-07-30T21:13:18.000Z</time>
      </trkpt>
      <trkpt lat="45.56528" lon="2.73272">
        <ele>1242</ele>
        <time>2022-07-30T21:13:19.000Z</time>
      </trkpt>
      <trkpt lat="45.56523" lon="2.73273">
        <ele>1242</ele>
        <time>2022-07-30T21:13:20.000Z</time>
      </trkpt>
      <trkpt lat="45.56518" lon="2.73274">
        <ele>1242</ele>
        <time>2022-07-30T21:13:21.000Z</time>
      </trkpt>
      <trkpt lat="45.56513" lon="2.73275">
        <ele>1242</ele>
        <time>2022-07-30T21:13:22.000Z</time>
      </trkpt>
      <trkpt lat="45.56509" lon="2.73275">
        <ele>1242</ele>
        <time>2022-07-30T21:13:23.000Z</time>
      </trkpt>
      <trkpt lat="45.56504" lon="2.73276">
        <ele>1242</ele>
        <time>2022-07-30T21:13:24.000Z</time>
      </trkpt>
      <trkpt lat="45.56499" lon="2.73277">
        <ele>1242</ele>
        <time>2022-07-30T21:13:25.000Z</time>
      </trkpt>
      <trkpt lat="45.56494" lon="2.73278">
        <ele>1242</ele>
        <time>2022-07-30T21:13:26.000Z</time>
      </trkpt>
      <trkpt lat="45.56488" lon="2.73279">
        <ele>1242</ele>
        <time>2022-07-30T21:13:27.000Z</time>
      </trkpt>
      <trkpt lat="45.56483" lon="2.73281">
        <ele>1242</ele>
        <time>2022-07-30T21:13:28.000Z</time>
      </trkpt>
      <trkpt lat="45.56479" lon="2.73281">
        <ele>1242</ele>
        <time>2022-07-30T21:13:29.000Z</time>
      </trkpt>
      <trkpt lat="45.56474" lon="2.73281">
        <ele>1242</ele>
        <time>2022-07-30T21:13:30.000Z</time>
      </trkpt>
      <trkpt lat="45.5647" lon="2.73282">
        <ele>1242</ele>
        <time>2022-07-30T21:13:31.000Z</time>
      </trkpt>
      <trkpt lat="45.56465" lon="2.73282">
        <ele>1239</ele>
        <time>2022-07-30T21:13:32.000Z</time>
      </trkpt>
      <trkpt lat="45.56461" lon="2.73283">
        <ele>1239</ele>
        <time>2022-07-30T21:13:33.000Z</time>
      </trkpt>
      <trkpt lat="45.56456" lon="2.73283">
        <ele>1239</ele>
        <time>2022-07-30T21:13:34.000Z</time>
      </trkpt>
      <trkpt lat="45.56451" lon="2.73283">
        <ele>1239</ele>
        <time>2022-07-30T21:13:35.000Z</time>
      </trkpt>
      <trkpt lat="45.56447" lon="2.73283">
        <ele>1239</ele>
        <time>2022-07-30T21:13:36.000Z</time>
      </trkpt>
      <trkpt lat="45.56442" lon="2.73282">
        <ele>1239</ele>
        <time>2022-07-30T21:13:37.000Z</time>
      </trkpt>
      <trkpt lat="45.56437" lon="2.73284">
        <ele>1239</ele>
        <time>2022-07-30T21:13:38.000Z</time>
      </trkpt>
      <trkpt lat="45.56432" lon="2.73285">
        <ele>1239</ele>
        <time>2022-07-30T21:13:39.000Z</time>
      </trkpt>
      <trkpt lat="45.56427" lon="2.73287">
        <ele>1239</ele>
        <time>2022-07-30T21:13:40.000Z</time>
      </trkpt>
      <trkpt lat="45.56422" lon="2.73291">
        <ele>1239</ele>
        <time>2022-07-30T21:13:41.000Z</time>
      </trkpt>
      <trkpt lat="45.56417" lon="2.73294">
        <ele>1239</ele>
        <time>2022-07-30T21:13:42.000Z</time>
      </trkpt>
      <trkpt lat="45.56413" lon="2.73298">
        <ele>1239</ele>
        <time>2022-07-30T21:13:43.000Z</time>
      </trkpt>
      <trkpt lat="45.56408" lon="2.73303">
        <ele>1239</ele>
        <time>2022-07-30T21:13:44.000Z</time>
      </trkpt>
      <trkpt lat="45.56404" lon="2.73309">
        <ele>1239</ele>
        <time>2022-07-30T21:13:45.000Z</time>
      </trkpt>
      <trkpt lat="45.56399" lon="2.73314">
        <ele>1239</ele>
        <time>2022-07-30T21:13:46.000Z</time>
      </trkpt>
      <trkpt lat="45.56396" lon="2.73319">
        <ele>1239</ele>
        <time>2022-07-30T21:13:47.000Z</time>
      </trkpt>
      <trkpt lat="45.56392" lon="2.73323">
        <ele>1239</ele>
        <time>2022-07-30T21:13:48.000Z</time>
      </trkpt>
      <trkpt lat="45.56389" lon="2.73327">
        <ele>1237</ele>
        <time>2022-07-30T21:13:49.000Z</time>
      </trkpt>
      <trkpt lat="45.56385" lon="2.73332">
        <ele>1237</ele>
        <time>2022-07-30T21:13:50.000Z</time>
      </trkpt>
      <trkpt lat="45.56382" lon="2.73336">
        <ele>1237</ele>
        <time>2022-07-30T21:13:51.000Z</time>
      </trkpt>
      <trkpt lat="45.56378" lon="2.7334">
        <ele>1237</ele>
        <time>2022-07-30T21:13:52.000Z</time>
      </trkpt>
      <trkpt lat="45.56375" lon="2.73345">
        <ele>1237</ele>
        <time>2022-07-30T21:13:53.000Z</time>
      </trkpt>
      <trkpt lat="45.56371" lon="2.7335">
        <ele>1237</ele>
        <time>2022-07-30T21:13:54.000Z</time>
      </trkpt>
      <trkpt lat="45.56368" lon="2.73355">
        <ele>1237</ele>
        <time>2022-07-30T21:13:55.000Z</time>
      </trkpt>
      <trkpt lat="45.56364" lon="2.7336">
        <ele>1237</ele>
        <time>2022-07-30T21:13:56.000Z</time>
      </trkpt>
      <trkpt lat="45.56361" lon="2.73366">
        <ele>1237</ele>
        <time>2022-07-30T21:13:57.000Z</time>
      </trkpt>
      <trkpt lat="45.56358" lon="2.73371">
        <ele>1237</ele>
        <time>2022-07-30T21:13:58.000Z</time>
      </trkpt>
      <trkpt lat="45.56355" lon="2.73377">
        <ele>1237</ele>
        <time>2022-07-30T21:13:59.000Z</time>
      </trkpt>
      <trkpt lat="45.56352" lon="2.73382">
        <ele>1246</ele>
        <time>2022-07-30T21:14:00.000Z</time>
      </trkpt>
      <trkpt lat="45.56349" lon="2.73388">
        <ele>1246</ele>
        <time>2022-07-30T21:14:01.000Z</time>
      </trkpt>
      <trkpt lat="45.56346" lon="2.73393">
        <ele>1246</ele>
        <time>2022-07-30T21:14:02.000Z</time>
      </trkpt>
      <trkpt lat="45.56343" lon="2.73399">
        <ele>1246</ele>
        <time>2022-07-30T21:14:03.000Z</time>
      </trkpt>
      <trkpt lat="45.5634" lon="2.73406">
        <ele>1246</ele>
        <time>2022-07-30T21:14:04.000Z</time>
      </trkpt>
      <trkpt lat="45.56336" lon="2.73412">
        <ele>1246</ele>
        <time>2022-07-30T21:14:05.000Z</time>
      </trkpt>
      <trkpt lat="45.56333" lon="2.73418">
        <ele>1246</ele>
        <time>2022-07-30T21:14:06.000Z</time>
      </trkpt>
      <trkpt lat="45.56329" lon="2.73424">
        <ele>1246</ele>
        <time>2022-07-30T21:14:07.000Z</time>
      </trkpt>
      <trkpt lat="45.56326" lon="2.73429">
        <ele>1246</ele>
        <time>2022-07-30T21:14:08.000Z</time>
      </trkpt>
      <trkpt lat="45.56322" lon="2.73434">
        <ele>1241</ele>
        <time>2022-07-30T21:14:09.000Z</time>
      </trkpt>
      <trkpt lat="45.56318" lon="2.7344">
        <ele>1241</ele>
        <time>2022-07-30T21:14:10.000Z</time>
      </trkpt>
      <trkpt lat="45.56315" lon="2.73446">
        <ele>1241</ele>
        <time>2022-07-30T21:14:11.000Z</time>
      </trkpt>
      <trkpt lat="45.56312" lon="2.73453">
        <ele>1241</ele>
        <time>2022-07-30T21:14:12.000Z</time>
      </trkpt>
      <trkpt lat="45.56309" lon="2.73459">
        <ele>1241</ele>
        <time>2022-07-30T21:14:13.000Z</time>
      </trkpt>
      <trkpt lat="45.56304" lon="2.73464">
        <ele>1241</ele>
        <time>2022-07-30T21:14:14.000Z</time>
      </trkpt>
      <trkpt lat="45.56299" lon="2.73469">
        <ele>1241</ele>
        <time>2022-07-30T21:14:15.000Z</time>
      </trkpt>
      <trkpt lat="45.56294" lon="2.73473">
        <ele>1241</ele>
        <time>2022-07-30T21:14:16.000Z</time>
      </trkpt>
      <trkpt lat="45.56289" lon="2.73476">
        <ele>1241</ele>
        <time>2022-07-30T21:14:17.000Z</time>
      </trkpt>
      <trkpt lat="45.56284" lon="2.7348">
        <ele>1241</ele>
        <time>2022-07-30T21:14:18.000Z</time>
      </trkpt>
      <trkpt lat="45.56279" lon="2.73484">
        <ele>1241</ele>
        <time>2022-07-30T21:14:19.000Z</time>
      </trkpt>
      <trkpt lat="45.56274" lon="2.73488">
        <ele>1241</ele>
        <time>2022-07-30T21:14:20.000Z</time>
      </trkpt>
      <trkpt lat="45.56269" lon="2.73492">
        <ele>1241</ele>
        <time>2022-07-30T21:14:21.000Z</time>
      </trkpt>
      <trkpt lat="45.56266" lon="2.73498">
        <ele>1241</ele>
        <time>2022-07-30T21:14:22.000Z</time>
      </trkpt>
      <trkpt lat="45.56262" lon="2.73503">
        <ele>1241</ele>
        <time>2022-07-30T21:14:23.000Z</time>
      </trkpt>
      <trkpt lat="45.56259" lon="2.73508">
        <ele>1241</ele>
        <time>2022-07-30T21:14:24.000Z</time>
      </trkpt>
      <trkpt lat="45.56255" lon="2.73513">
        <ele>1241</ele>
        <time>2022-07-30T21:14:25.000Z</time>
      </trkpt>
      <trkpt lat="45.5625" lon="2.73519">
        <ele>1240</ele>
        <time>2022-07-30T21:14:26.000Z</time>
      </trkpt>
      <trkpt lat="45.56245" lon="2.73526">
        <ele>1240</ele>
        <time>2022-07-30T21:14:27.000Z</time>
      </trkpt>
      <trkpt lat="45.56242" lon="2.73527">
        <ele>1240</ele>
        <time>2022-07-30T21:14:28.000Z</time>
      </trkpt>
      <trkpt lat="45.5624" lon="2.73527">
        <ele>1240</ele>
        <time>2022-07-30T21:14:29.000Z</time>
      </trkpt>
      <trkpt lat="45.56236" lon="2.73529">
        <ele>1240</ele>
        <time>2022-07-30T21:14:30.000Z</time>
      </trkpt>
      <trkpt lat="45.56231" lon="2.73527">
        <ele>1240</ele>
        <time>2022-07-30T21:14:31.000Z</time>
      </trkpt>
      <trkpt lat="45.56227" lon="2.73526">
        <ele>1240</ele>
        <time>2022-07-30T21:14:32.000Z</time>
      </trkpt>
      <trkpt lat="45.56222" lon="2.73524">
        <ele>1240</ele>
        <time>2022-07-30T21:14:33.000Z</time>
      </trkpt>
      <trkpt lat="45.56218" lon="2.73522">
        <ele>1240</ele>
        <time>2022-07-30T21:14:34.000Z</time>
      </trkpt>
      <trkpt lat="45.56213" lon="2.73519">
        <ele>1240</ele>
        <time>2022-07-30T21:14:35.000Z</time>
      </trkpt>
      <trkpt lat="45.56209" lon="2.73516">
        <ele>1240</ele>
        <time>2022-07-30T21:14:36.000Z</time>
      </trkpt>
      <trkpt lat="45.56205" lon="2.73513">
        <ele>1240</ele>
        <time>2022-07-30T21:14:37.000Z</time>
      </trkpt>
      <trkpt lat="45.562" lon="2.7351">
        <ele>1240</ele>
        <time>2022-07-30T21:14:38.000Z</time>
      </trkpt>
      <trkpt lat="45.56196" lon="2.73508">
        <ele>1240</ele>
        <time>2022-07-30T21:14:39.000Z</time>
      </trkpt>
      <trkpt lat="45.56192" lon="2.73502">
        <ele>1240</ele>
        <time>2022-07-30T21:14:40.000Z</time>
      </trkpt>
      <trkpt lat="45.56188" lon="2.73497">
        <ele>1240</ele>
        <time>2022-07-30T21:14:41.000Z</time>
      </trkpt>
      <trkpt lat="45.56184" lon="2.73492">
        <ele>1240</ele>
        <time>2022-07-30T21:14:42.000Z</time>
      </trkpt>
      <trkpt lat="45.56178" lon="2.73486">
        <ele>1240</ele>
        <time>2022-07-30T21:14:43.000Z</time>
      </trkpt>
      <trkpt lat="45.56173" lon="2.73481">
        <ele>1240</ele>
        <time>2022-07-30T21:14:44.000Z</time>
      </trkpt>
      <trkpt lat="45.56166" lon="2.7348">
        <ele>1240</ele>
        <time>2022-07-30T21:14:45.000Z</time>
      </trkpt>
      <trkpt lat="45.5616" lon="2.73479">
        <ele>1240</ele>
        <time>2022-07-30T21:14:46.000Z</time>
      </trkpt>
      <trkpt lat="45.56155" lon="2.7348">
        <ele>1247</ele>
        <time>2022-07-30T21:14:47.000Z</time>
      </trkpt>
      <trkpt lat="45.56151" lon="2.73482">
        <ele>1247</ele>
        <time>2022-07-30T21:14:48.000Z</time>
      </trkpt>
      <trkpt lat="45.56146" lon="2.73483">
        <ele>1247</ele>
        <time>2022-07-30T21:14:49.000Z</time>
      </trkpt>
      <trkpt lat="45.56142" lon="2.73485">
        <ele>1247</ele>
        <time>2022-07-30T21:14:50.000Z</time>
      </trkpt>
      <trkpt lat="45.56141" lon="2.73485">
        <ele>1247</ele>
        <time>2022-07-30T21:14:51.000Z</time>
      </trkpt>
      <trkpt lat="45.56138" lon="2.73485">
        <ele>1247</ele>
        <time>2022-07-30T21:14:52.000Z</time>
      </trkpt>
      <trkpt lat="45.56135" lon="2.73486">
        <ele>1247</ele>
        <time>2022-07-30T21:14:53.000Z</time>
      </trkpt>
      <trkpt lat="45.56129" lon="2.73481">
        <ele>1247</ele>
        <time>2022-07-30T21:14:54.000Z</time>
      </trkpt>
      <trkpt lat="45.56123" lon="2.73477">
        <ele>1247</ele>
        <time>2022-07-30T21:14:55.000Z</time>
      </trkpt>
      <trkpt lat="45.56119" lon="2.73474">
        <ele>1247</ele>
        <time>2022-07-30T21:14:56.000Z</time>
      </trkpt>
      <trkpt lat="45.56117" lon="2.73467">
        <ele>1247</ele>
        <time>2022-07-30T21:14:57.000Z</time>
      </trkpt>
      <trkpt lat="45.56114" lon="2.73461">
        <ele>1247</ele>
        <time>2022-07-30T21:14:58.000Z</time>
      </trkpt>
      <trkpt lat="45.56112" lon="2.73454">
        <ele>1247</ele>
        <time>2022-07-30T21:14:59.000Z</time>
      </trkpt>
      <trkpt lat="45.5611" lon="2.73448">
        <ele>1247</ele>
        <time>2022-07-30T21:15:00.000Z</time>
      </trkpt>
      <trkpt lat="45.56107" lon="2.73441">
        <ele>1247</ele>
        <time>2022-07-30T21:15:01.000Z</time>
      </trkpt>
      <trkpt lat="45.56105" lon="2.73435">
        <ele>1247</ele>
        <time>2022-07-30T21:15:02.000Z</time>
      </trkpt>
      <trkpt lat="45.56103" lon="2.73428">
        <ele>1247</ele>
        <time>2022-07-30T21:15:03.000Z</time>
      </trkpt>
      <trkpt lat="45.56101" lon="2.73422">
        <ele>1247</ele>
        <time>2022-07-30T21:15:04.000Z</time>
      </trkpt>
      <trkpt lat="45.56098" lon="2.73416">
        <ele>1247</ele>
        <time>2022-07-30T21:15:05.000Z</time>
      </trkpt>
      <trkpt lat="45.56096" lon="2.7341">
        <ele>1247</ele>
        <time>2022-07-30T21:15:06.000Z</time>
      </trkpt>
      <trkpt lat="45.56094" lon="2.73404">
        <ele>1247</ele>
        <time>2022-07-30T21:15:07.000Z</time>
      </trkpt>
      <trkpt lat="45.56092" lon="2.73397">
        <ele>1247</ele>
        <time>2022-07-30T21:15:08.000Z</time>
      </trkpt>
      <trkpt lat="45.56089" lon="2.73393">
        <ele>1247</ele>
        <time>2022-07-30T21:15:09.000Z</time>
      </trkpt>
      <trkpt lat="45.56086" lon="2.73388">
        <ele>1247</ele>
        <time>2022-07-30T21:15:10.000Z</time>
      </trkpt>
      <trkpt lat="45.56082" lon="2.73383">
        <ele>1250</ele>
        <time>2022-07-30T21:15:11.000Z</time>
      </trkpt>
      <trkpt lat="45.56079" lon="2.73378">
        <ele>1250</ele>
        <time>2022-07-30T21:15:12.000Z</time>
      </trkpt>
      <trkpt lat="45.56077" lon="2.73375">
        <ele>1250</ele>
        <time>2022-07-30T21:15:13.000Z</time>
      </trkpt>
      <trkpt lat="45.56073" lon="2.73369">
        <ele>1250</ele>
        <time>2022-07-30T21:15:14.000Z</time>
      </trkpt>
      <trkpt lat="45.5607" lon="2.73364">
        <ele>1250</ele>
        <time>2022-07-30T21:15:15.000Z</time>
      </trkpt>
      <trkpt lat="45.56067" lon="2.7336">
        <ele>1250</ele>
        <time>2022-07-30T21:15:16.000Z</time>
      </trkpt>
      <trkpt lat="45.56063" lon="2.73355">
        <ele>1250</ele>
        <time>2022-07-30T21:15:17.000Z</time>
      </trkpt>
      <trkpt lat="45.5606" lon="2.73351">
        <ele>1250</ele>
        <time>2022-07-30T21:15:18.000Z</time>
      </trkpt>
      <trkpt lat="45.56057" lon="2.73347">
        <ele>1250</ele>
        <time>2022-07-30T21:15:19.000Z</time>
      </trkpt>
      <trkpt lat="45.56054" lon="2.73342">
        <ele>1250</ele>
        <time>2022-07-30T21:15:20.000Z</time>
      </trkpt>
      <trkpt lat="45.5605" lon="2.73338">
        <ele>1248</ele>
        <time>2022-07-30T21:15:21.000Z</time>
      </trkpt>
      <trkpt lat="45.56047" lon="2.73333">
        <ele>1248</ele>
        <time>2022-07-30T21:15:22.000Z</time>
      </trkpt>
      <trkpt lat="45.56044" lon="2.73329">
        <ele>1248</ele>
        <time>2022-07-30T21:15:23.000Z</time>
      </trkpt>
      <trkpt lat="45.5604" lon="2.73325">
        <ele>1248</ele>
        <time>2022-07-30T21:15:24.000Z</time>
      </trkpt>
      <trkpt lat="45.56036" lon="2.73321">
        <ele>1248</ele>
        <time>2022-07-30T21:15:25.000Z</time>
      </trkpt>
      <trkpt lat="45.56032" lon="2.73317">
        <ele>1248</ele>
        <time>2022-07-30T21:15:26.000Z</time>
      </trkpt>
      <trkpt lat="45.56028" lon="2.73313">
        <ele>1248</ele>
        <time>2022-07-30T21:15:27.000Z</time>
      </trkpt>
      <trkpt lat="45.56023" lon="2.7331">
        <ele>1248</ele>
        <time>2022-07-30T21:15:28.000Z</time>
      </trkpt>
      <trkpt lat="45.56019" lon="2.73306">
        <ele>1248</ele>
        <time>2022-07-30T21:15:29.000Z</time>
      </trkpt>
      <trkpt lat="45.56015" lon="2.73302">
        <ele>1248</ele>
        <time>2022-07-30T21:15:30.000Z</time>
      </trkpt>
      <trkpt lat="45.56011" lon="2.73298">
        <ele>1248</ele>
        <time>2022-07-30T21:15:31.000Z</time>
      </trkpt>
      <trkpt lat="45.56008" lon="2.73293">
        <ele>1248</ele>
        <time>2022-07-30T21:15:32.000Z</time>
      </trkpt>
      <trkpt lat="45.56004" lon="2.73289">
        <ele>1250</ele>
        <time>2022-07-30T21:15:33.000Z</time>
      </trkpt>
      <trkpt lat="45.56001" lon="2.73285">
        <ele>1250</ele>
        <time>2022-07-30T21:15:34.000Z</time>
      </trkpt>
      <trkpt lat="45.55997" lon="2.7328">
        <ele>1250</ele>
        <time>2022-07-30T21:15:35.000Z</time>
      </trkpt>
      <trkpt lat="45.55993" lon="2.73276">
        <ele>1250</ele>
        <time>2022-07-30T21:15:36.000Z</time>
      </trkpt>
      <trkpt lat="45.5599" lon="2.73271">
        <ele>1250</ele>
        <time>2022-07-30T21:15:37.000Z</time>
      </trkpt>
      <trkpt lat="45.55986" lon="2.73267">
        <ele>1250</ele>
        <time>2022-07-30T21:15:38.000Z</time>
      </trkpt>
      <trkpt lat="45.55982" lon="2.73262">
        <ele>1251</ele>
        <time>2022-07-30T21:15:39.000Z</time>
      </trkpt>
      <trkpt lat="45.55978" lon="2.73257">
        <ele>1251</ele>
        <time>2022-07-30T21:15:40.000Z</time>
      </trkpt>
      <trkpt lat="45.55975" lon="2.73252">
        <ele>1251</ele>
        <time>2022-07-30T21:15:41.000Z</time>
      </trkpt>
      <trkpt lat="45.55971" lon="2.73248">
        <ele>1251</ele>
        <time>2022-07-30T21:15:42.000Z</time>
      </trkpt>
      <trkpt lat="45.55967" lon="2.73243">
        <ele>1251</ele>
        <time>2022-07-30T21:15:43.000Z</time>
      </trkpt>
      <trkpt lat="45.55965" lon="2.73236">
        <ele>1251</ele>
        <time>2022-07-30T21:15:44.000Z</time>
      </trkpt>
      <trkpt lat="45.55963" lon="2.7323">
        <ele>1251</ele>
        <time>2022-07-30T21:15:45.000Z</time>
      </trkpt>
      <trkpt lat="45.55961" lon="2.73223">
        <ele>1251</ele>
        <time>2022-07-30T21:15:46.000Z</time>
      </trkpt>
      <trkpt lat="45.5596" lon="2.73215">
        <ele>1251</ele>
        <time>2022-07-30T21:15:47.000Z</time>
      </trkpt>
      <trkpt lat="45.5596" lon="2.73208">
        <ele>1251</ele>
        <time>2022-07-30T21:15:48.000Z</time>
      </trkpt>
      <trkpt lat="45.55959" lon="2.732">
        <ele>1251</ele>
        <time>2022-07-30T21:15:49.000Z</time>
      </trkpt>
      <trkpt lat="45.55959" lon="2.73193">
        <ele>1251</ele>
        <time>2022-07-30T21:15:50.000Z</time>
      </trkpt>
      <trkpt lat="45.55958" lon="2.73185">
        <ele>1251</ele>
        <time>2022-07-30T21:15:51.000Z</time>
      </trkpt>
      <trkpt lat="45.55957" lon="2.73178">
        <ele>1251</ele>
        <time>2022-07-30T21:15:52.000Z</time>
      </trkpt>
      <trkpt lat="45.55955" lon="2.73171">
        <ele>1251</ele>
        <time>2022-07-30T21:15:53.000Z</time>
      </trkpt>
      <trkpt lat="45.55954" lon="2.73164">
        <ele>1252</ele>
        <time>2022-07-30T21:15:54.000Z</time>
      </trkpt>
      <trkpt lat="45.55953" lon="2.73158">
        <ele>1252</ele>
        <time>2022-07-30T21:15:55.000Z</time>
      </trkpt>
      <trkpt lat="45.55951" lon="2.73151">
        <ele>1252</ele>
        <time>2022-07-30T21:15:56.000Z</time>
      </trkpt>
      <trkpt lat="45.5595" lon="2.73144">
        <ele>1252</ele>
        <time>2022-07-30T21:15:57.000Z</time>
      </trkpt>
      <trkpt lat="45.55948" lon="2.73137">
        <ele>1252</ele>
        <time>2022-07-30T21:15:58.000Z</time>
      </trkpt>
      <trkpt lat="45.55947" lon="2.7313">
        <ele>1252</ele>
        <time>2022-07-30T21:15:59.000Z</time>
      </trkpt>
      <trkpt lat="45.55945" lon="2.73123">
        <ele>1252</ele>
        <time>2022-07-30T21:16:00.000Z</time>
      </trkpt>
      <trkpt lat="45.55944" lon="2.73115">
        <ele>1252</ele>
        <time>2022-07-30T21:16:01.000Z</time>
      </trkpt>
      <trkpt lat="45.55942" lon="2.73108">
        <ele>1252</ele>
        <time>2022-07-30T21:16:02.000Z</time>
      </trkpt>
      <trkpt lat="45.55941" lon="2.73101">
        <ele>1252</ele>
        <time>2022-07-30T21:16:03.000Z</time>
      </trkpt>
      <trkpt lat="45.55939" lon="2.73093">
        <ele>1252</ele>
        <time>2022-07-30T21:16:04.000Z</time>
      </trkpt>
      <trkpt lat="45.55938" lon="2.73086">
        <ele>1252</ele>
        <time>2022-07-30T21:16:05.000Z</time>
      </trkpt>
      <trkpt lat="45.55936" lon="2.73079">
        <ele>1249</ele>
        <time>2022-07-30T21:16:06.000Z</time>
      </trkpt>
      <trkpt lat="45.55935" lon="2.73073">
        <ele>1249</ele>
        <time>2022-07-30T21:16:07.000Z</time>
      </trkpt>
      <trkpt lat="45.55933" lon="2.73066">
        <ele>1249</ele>
        <time>2022-07-30T21:16:08.000Z</time>
      </trkpt>
      <trkpt lat="45.55932" lon="2.73059">
        <ele>1249</ele>
        <time>2022-07-30T21:16:09.000Z</time>
      </trkpt>
      <trkpt lat="45.55931" lon="2.73052">
        <ele>1249</ele>
        <time>2022-07-30T21:16:10.000Z</time>
      </trkpt>
      <trkpt lat="45.55929" lon="2.73045">
        <ele>1249</ele>
        <time>2022-07-30T21:16:11.000Z</time>
      </trkpt>
      <trkpt lat="45.55927" lon="2.73038">
        <ele>1249</ele>
        <time>2022-07-30T21:16:12.000Z</time>
      </trkpt>
      <trkpt lat="45.55925" lon="2.7303">
        <ele>1249</ele>
        <time>2022-07-30T21:16:13.000Z</time>
      </trkpt>
      <trkpt lat="45.55923" lon="2.73023">
        <ele>1249</ele>
        <time>2022-07-30T21:16:14.000Z</time>
      </trkpt>
      <trkpt lat="45.55921" lon="2.73016">
        <ele>1249</ele>
        <time>2022-07-30T21:16:15.000Z</time>
      </trkpt>
      <trkpt lat="45.55919" lon="2.7301">
        <ele>1249</ele>
        <time>2022-07-30T21:16:16.000Z</time>
      </trkpt>
      <trkpt lat="45.55916" lon="2.73004">
        <ele>1249</ele>
        <time>2022-07-30T21:16:17.000Z</time>
      </trkpt>
      <trkpt lat="45.55914" lon="2.72998">
        <ele>1249</ele>
        <time>2022-07-30T21:16:18.000Z</time>
      </trkpt>
      <trkpt lat="45.55911" lon="2.72993">
        <ele>1249</ele>
        <time>2022-07-30T21:16:19.000Z</time>
      </trkpt>
      <trkpt lat="45.55909" lon="2.72987">
        <ele>1249</ele>
        <time>2022-07-30T21:16:20.000Z</time>
      </trkpt>
      <trkpt lat="45.55907" lon="2.7298">
        <ele>1249</ele>
        <time>2022-07-30T21:16:21.000Z</time>
      </trkpt>
      <trkpt lat="45.55905" lon="2.72973">
        <ele>1249</ele>
        <time>2022-07-30T21:16:22.000Z</time>
      </trkpt>
      <trkpt lat="45.55903" lon="2.72966">
        <ele>1249</ele>
        <time>2022-07-30T21:16:23.000Z</time>
      </trkpt>
      <trkpt lat="45.55901" lon="2.7296">
        <ele>1249</ele>
        <time>2022-07-30T21:16:24.000Z</time>
      </trkpt>
      <trkpt lat="45.559" lon="2.72953">
        <ele>1249</ele>
        <time>2022-07-30T21:16:25.000Z</time>
      </trkpt>
      <trkpt lat="45.55898" lon="2.72946">
        <ele>1249</ele>
        <time>2022-07-30T21:16:26.000Z</time>
      </trkpt>
      <trkpt lat="45.55897" lon="2.72938">
        <ele>1249</ele>
        <time>2022-07-30T21:16:27.000Z</time>
      </trkpt>
      <trkpt lat="45.55896" lon="2.72931">
        <ele>1249</ele>
        <time>2022-07-30T21:16:28.000Z</time>
      </trkpt>
      <trkpt lat="45.55895" lon="2.72924">
        <ele>1249</ele>
        <time>2022-07-30T21:16:29.000Z</time>
      </trkpt>
      <trkpt lat="45.55894" lon="2.72917">
        <ele>1249</ele>
        <time>2022-07-30T21:16:30.000Z</time>
      </trkpt>
      <trkpt lat="45.55892" lon="2.7291">
        <ele>1249</ele>
        <time>2022-07-30T21:16:31.000Z</time>
      </trkpt>
      <trkpt lat="45.55891" lon="2.72904">
        <ele>1249</ele>
        <time>2022-07-30T21:16:32.000Z</time>
      </trkpt>
      <trkpt lat="45.55889" lon="2.72897">
        <ele>1249</ele>
        <time>2022-07-30T21:16:33.000Z</time>
      </trkpt>
      <trkpt lat="45.55888" lon="2.72891">
        <ele>1249</ele>
        <time>2022-07-30T21:16:34.000Z</time>
      </trkpt>
      <trkpt lat="45.55887" lon="2.72885">
        <ele>1249</ele>
        <time>2022-07-30T21:16:35.000Z</time>
      </trkpt>
      <trkpt lat="45.55885" lon="2.72878">
        <ele>1249</ele>
        <time>2022-07-30T21:16:36.000Z</time>
      </trkpt>
      <trkpt lat="45.55884" lon="2.72872">
        <ele>1249</ele>
        <time>2022-07-30T21:16:37.000Z</time>
      </trkpt>
      <trkpt lat="45.55882" lon="2.72866">
        <ele>1249</ele>
        <time>2022-07-30T21:16:38.000Z</time>
      </trkpt>
      <trkpt lat="45.55881" lon="2.72859">
        <ele>1249</ele>
        <time>2022-07-30T21:16:39.000Z</time>
      </trkpt>
      <trkpt lat="45.55879" lon="2.72853">
        <ele>1249</ele>
        <time>2022-07-30T21:16:40.000Z</time>
      </trkpt>
      <trkpt lat="45.55878" lon="2.72846">
        <ele>1247</ele>
        <time>2022-07-30T21:16:41.000Z</time>
      </trkpt>
      <trkpt lat="45.55876" lon="2.7284">
        <ele>1247</ele>
        <time>2022-07-30T21:16:42.000Z</time>
      </trkpt>
      <trkpt lat="45.55875" lon="2.72833">
        <ele>1255</ele>
        <time>2022-07-30T21:16:43.000Z</time>
      </trkpt>
      <trkpt lat="45.55873" lon="2.72827">
        <ele>1255</ele>
        <time>2022-07-30T21:16:44.000Z</time>
      </trkpt>
      <trkpt lat="45.55871" lon="2.7282">
        <ele>1255</ele>
        <time>2022-07-30T21:16:45.000Z</time>
      </trkpt>
      <trkpt lat="45.55869" lon="2.72813">
        <ele>1255</ele>
        <time>2022-07-30T21:16:46.000Z</time>
      </trkpt>
      <trkpt lat="45.55867" lon="2.72807">
        <ele>1255</ele>
        <time>2022-07-30T21:16:47.000Z</time>
      </trkpt>
      <trkpt lat="45.55866" lon="2.728">
        <ele>1255</ele>
        <time>2022-07-30T21:16:48.000Z</time>
      </trkpt>
      <trkpt lat="45.55864" lon="2.72794">
        <ele>1255</ele>
        <time>2022-07-30T21:16:49.000Z</time>
      </trkpt>
      <trkpt lat="45.55862" lon="2.72788">
        <ele>1255</ele>
        <time>2022-07-30T21:16:50.000Z</time>
      </trkpt>
      <trkpt lat="45.5586" lon="2.72782">
        <ele>1255</ele>
        <time>2022-07-30T21:16:51.000Z</time>
      </trkpt>
      <trkpt lat="45.55859" lon="2.72775">
        <ele>1255</ele>
        <time>2022-07-30T21:16:52.000Z</time>
      </trkpt>
      <trkpt lat="45.55857" lon="2.72773">
        <ele>1255</ele>
        <time>2022-07-30T21:16:53.000Z</time>
      </trkpt>
      <trkpt lat="45.55854" lon="2.72766">
        <ele>1255</ele>
        <time>2022-07-30T21:16:54.000Z</time>
      </trkpt>
      <trkpt lat="45.55851" lon="2.72759">
        <ele>1255</ele>
        <time>2022-07-30T21:16:55.000Z</time>
      </trkpt>
      <trkpt lat="45.55849" lon="2.7275">
        <ele>1254</ele>
        <time>2022-07-30T21:16:56.000Z</time>
      </trkpt>
      <trkpt lat="45.55847" lon="2.72741">
        <ele>1254</ele>
        <time>2022-07-30T21:16:57.000Z</time>
      </trkpt>
      <trkpt lat="45.55845" lon="2.72735">
        <ele>1254</ele>
        <time>2022-07-30T21:16:58.000Z</time>
      </trkpt>
      <trkpt lat="45.55843" lon="2.72728">
        <ele>1254</ele>
        <time>2022-07-30T21:16:59.000Z</time>
      </trkpt>
      <trkpt lat="45.55842" lon="2.72721">
        <ele>1254</ele>
        <time>2022-07-30T21:17:00.000Z</time>
      </trkpt>
      <trkpt lat="45.5584" lon="2.72715">
        <ele>1254</ele>
        <time>2022-07-30T21:17:01.000Z</time>
      </trkpt>
      <trkpt lat="45.55838" lon="2.72708">
        <ele>1254</ele>
        <time>2022-07-30T21:17:02.000Z</time>
      </trkpt>
      <trkpt lat="45.55837" lon="2.72701">
        <ele>1254</ele>
        <time>2022-07-30T21:17:03.000Z</time>
      </trkpt>
      <trkpt lat="45.55835" lon="2.72695">
        <ele>1254</ele>
        <time>2022-07-30T21:17:04.000Z</time>
      </trkpt>
      <trkpt lat="45.55833" lon="2.72688">
        <ele>1254</ele>
        <time>2022-07-30T21:17:05.000Z</time>
      </trkpt>
      <trkpt lat="45.55832" lon="2.72682">
        <ele>1254</ele>
        <time>2022-07-30T21:17:06.000Z</time>
      </trkpt>
      <trkpt lat="45.5583" lon="2.72675">
        <ele>1253</ele>
        <time>2022-07-30T21:17:07.000Z</time>
      </trkpt>
      <trkpt lat="45.55828" lon="2.72668">
        <ele>1253</ele>
        <time>2022-07-30T21:17:08.000Z</time>
      </trkpt>
      <trkpt lat="45.55827" lon="2.72662">
        <ele>1253</ele>
        <time>2022-07-30T21:17:09.000Z</time>
      </trkpt>
      <trkpt lat="45.55825" lon="2.72655">
        <ele>1253</ele>
        <time>2022-07-30T21:17:10.000Z</time>
      </trkpt>
      <trkpt lat="45.55823" lon="2.72649">
        <ele>1253</ele>
        <time>2022-07-30T21:17:11.000Z</time>
      </trkpt>
      <trkpt lat="45.55821" lon="2.72642">
        <ele>1253</ele>
        <time>2022-07-30T21:17:12.000Z</time>
      </trkpt>
      <trkpt lat="45.5582" lon="2.72636">
        <ele>1253</ele>
        <time>2022-07-30T21:17:13.000Z</time>
      </trkpt>
      <trkpt lat="45.55817" lon="2.72627">
        <ele>1253</ele>
        <time>2022-07-30T21:17:14.000Z</time>
      </trkpt>
      <trkpt lat="45.55812" lon="2.72625">
        <ele>1253</ele>
        <time>2022-07-30T21:17:15.000Z</time>
      </trkpt>
      <trkpt lat="45.55808" lon="2.72623">
        <ele>1253</ele>
        <time>2022-07-30T21:17:16.000Z</time>
      </trkpt>
      <trkpt lat="45.55803" lon="2.72621">
        <ele>1253</ele>
        <time>2022-07-30T21:17:17.000Z</time>
      </trkpt>
      <trkpt lat="45.55798" lon="2.72619">
        <ele>1253</ele>
        <time>2022-07-30T21:17:18.000Z</time>
      </trkpt>
      <trkpt lat="45.55794" lon="2.72617">
        <ele>1253</ele>
        <time>2022-07-30T21:17:19.000Z</time>
      </trkpt>
      <trkpt lat="45.55789" lon="2.72615">
        <ele>1253</ele>
        <time>2022-07-30T21:17:20.000Z</time>
      </trkpt>
      <trkpt lat="45.55784" lon="2.72613">
        <ele>1253</ele>
        <time>2022-07-30T21:17:21.000Z</time>
      </trkpt>
      <trkpt lat="45.5578" lon="2.72611">
        <ele>1253</ele>
        <time>2022-07-30T21:17:22.000Z</time>
      </trkpt>
      <trkpt lat="45.55775" lon="2.72609">
        <ele>1253</ele>
        <time>2022-07-30T21:17:23.000Z</time>
      </trkpt>
      <trkpt lat="45.5577" lon="2.72607">
        <ele>1253</ele>
        <time>2022-07-30T21:17:24.000Z</time>
      </trkpt>
      <trkpt lat="45.55766" lon="2.72604">
        <ele>1253</ele>
        <time>2022-07-30T21:17:25.000Z</time>
      </trkpt>
      <trkpt lat="45.55762" lon="2.72602">
        <ele>1253</ele>
        <time>2022-07-30T21:17:26.000Z</time>
      </trkpt>
      <trkpt lat="45.55758" lon="2.72599">
        <ele>1253</ele>
        <time>2022-07-30T21:17:27.000Z</time>
      </trkpt>
      <trkpt lat="45.55753" lon="2.72596">
        <ele>1253</ele>
        <time>2022-07-30T21:17:28.000Z</time>
      </trkpt>
      <trkpt lat="45.55749" lon="2.72594">
        <ele>1253</ele>
        <time>2022-07-30T21:17:29.000Z</time>
      </trkpt>
      <trkpt lat="45.55745" lon="2.72591">
        <ele>1253</ele>
        <time>2022-07-30T21:17:30.000Z</time>
      </trkpt>
      <trkpt lat="45.55741" lon="2.72588">
        <ele>1252</ele>
        <time>2022-07-30T21:17:31.000Z</time>
      </trkpt>
      <trkpt lat="45.55737" lon="2.72586">
        <ele>1252</ele>
        <time>2022-07-30T21:17:32.000Z</time>
      </trkpt>
      <trkpt lat="45.55732" lon="2.72583">
        <ele>1252</ele>
        <time>2022-07-30T21:17:33.000Z</time>
      </trkpt>
      <trkpt lat="45.55728" lon="2.7258">
        <ele>1252</ele>
        <time>2022-07-30T21:17:34.000Z</time>
      </trkpt>
      <trkpt lat="45.55724" lon="2.72577">
        <ele>1252</ele>
        <time>2022-07-30T21:17:35.000Z</time>
      </trkpt>
      <trkpt lat="45.5572" lon="2.72575">
        <ele>1252</ele>
        <time>2022-07-30T21:17:36.000Z</time>
      </trkpt>
      <trkpt lat="45.55715" lon="2.72572">
        <ele>1252</ele>
        <time>2022-07-30T21:17:37.000Z</time>
      </trkpt>
      <trkpt lat="45.55711" lon="2.72569">
        <ele>1248</ele>
        <time>2022-07-30T21:17:38.000Z</time>
      </trkpt>
      <trkpt lat="45.55706" lon="2.72569">
        <ele>1248</ele>
        <time>2022-07-30T21:17:39.000Z</time>
      </trkpt>
      <trkpt lat="45.55701" lon="2.7257">
        <ele>1248</ele>
        <time>2022-07-30T21:17:40.000Z</time>
      </trkpt>
      <trkpt lat="45.55703" lon="2.72563">
        <ele>1248</ele>
        <time>2022-07-30T21:17:41.000Z</time>
      </trkpt>
      <trkpt lat="45.55705" lon="2.72556">
        <ele>1248</ele>
        <time>2022-07-30T21:17:42.000Z</time>
      </trkpt>
      <trkpt lat="45.55707" lon="2.7255">
        <ele>1248</ele>
        <time>2022-07-30T21:17:43.000Z</time>
      </trkpt>
      <trkpt lat="45.55708" lon="2.72543">
        <ele>1247</ele>
        <time>2022-07-30T21:17:44.000Z</time>
      </trkpt>
      <trkpt lat="45.5571" lon="2.72537">
        <ele>1247</ele>
        <time>2022-07-30T21:17:45.000Z</time>
      </trkpt>
      <trkpt lat="45.55712" lon="2.72531">
        <ele>1247</ele>
        <time>2022-07-30T21:17:46.000Z</time>
      </trkpt>
      <trkpt lat="45.55713" lon="2.72525">
        <ele>1247</ele>
        <time>2022-07-30T21:17:47.000Z</time>
      </trkpt>
      <trkpt lat="45.55715" lon="2.72519">
        <ele>1247</ele>
        <time>2022-07-30T21:17:48.000Z</time>
      </trkpt>
      <trkpt lat="45.55716" lon="2.72513">
        <ele>1247</ele>
        <time>2022-07-30T21:17:49.000Z</time>
      </trkpt>
      <trkpt lat="45.55718" lon="2.72507">
        <ele>1247</ele>
        <time>2022-07-30T21:17:50.000Z</time>
      </trkpt>
      <trkpt lat="45.5572" lon="2.72501">
        <ele>1247</ele>
        <time>2022-07-30T21:17:51.000Z</time>
      </trkpt>
      <trkpt lat="45.55721" lon="2.72494">
        <ele>1247</ele>
        <time>2022-07-30T21:17:52.000Z</time>
      </trkpt>
      <trkpt lat="45.55723" lon="2.72488">
        <ele>1247</ele>
        <time>2022-07-30T21:17:53.000Z</time>
      </trkpt>
      <trkpt lat="45.55725" lon="2.72481">
        <ele>1247</ele>
        <time>2022-07-30T21:17:54.000Z</time>
      </trkpt>
      <trkpt lat="45.55727" lon="2.72475">
        <ele>1247</ele>
        <time>2022-07-30T21:17:55.000Z</time>
      </trkpt>
      <trkpt lat="45.55729" lon="2.72468">
        <ele>1247</ele>
        <time>2022-07-30T21:17:56.000Z</time>
      </trkpt>
      <trkpt lat="45.55731" lon="2.72462">
        <ele>1242</ele>
        <time>2022-07-30T21:17:57.000Z</time>
      </trkpt>
      <trkpt lat="45.55733" lon="2.72455">
        <ele>1242</ele>
        <time>2022-07-30T21:17:58.000Z</time>
      </trkpt>
      <trkpt lat="45.55735" lon="2.72449">
        <ele>1242</ele>
        <time>2022-07-30T21:17:59.000Z</time>
      </trkpt>
      <trkpt lat="45.55736" lon="2.72442">
        <ele>1242</ele>
        <time>2022-07-30T21:18:00.000Z</time>
      </trkpt>
      <trkpt lat="45.55738" lon="2.72435">
        <ele>1242</ele>
        <time>2022-07-30T21:18:01.000Z</time>
      </trkpt>
      <trkpt lat="45.5574" lon="2.72428">
        <ele>1242</ele>
        <time>2022-07-30T21:18:02.000Z</time>
      </trkpt>
      <trkpt lat="45.55741" lon="2.7242">
        <ele>1242</ele>
        <time>2022-07-30T21:18:03.000Z</time>
      </trkpt>
      <trkpt lat="45.55742" lon="2.72412">
        <ele>1242</ele>
        <time>2022-07-30T21:18:04.000Z</time>
      </trkpt>
      <trkpt lat="45.55744" lon="2.72399">
        <ele>1242</ele>
        <time>2022-07-30T21:18:05.000Z</time>
      </trkpt>
      <trkpt lat="45.55743" lon="2.72393">
        <ele>1242</ele>
        <time>2022-07-30T21:18:06.000Z</time>
      </trkpt>
      <trkpt lat="45.55743" lon="2.72386">
        <ele>1242</ele>
        <time>2022-07-30T21:18:07.000Z</time>
      </trkpt>
      <trkpt lat="45.55743" lon="2.72379">
        <ele>1242</ele>
        <time>2022-07-30T21:18:08.000Z</time>
      </trkpt>
      <trkpt lat="45.55743" lon="2.72373">
        <ele>1237</ele>
        <time>2022-07-30T21:18:09.000Z</time>
      </trkpt>
      <trkpt lat="45.55741" lon="2.72366">
        <ele>1237</ele>
        <time>2022-07-30T21:18:10.000Z</time>
      </trkpt>
      <trkpt lat="45.5574" lon="2.72359">
        <ele>1237</ele>
        <time>2022-07-30T21:18:11.000Z</time>
      </trkpt>
      <trkpt lat="45.55739" lon="2.72352">
        <ele>1237</ele>
        <time>2022-07-30T21:18:12.000Z</time>
      </trkpt>
      <trkpt lat="45.55737" lon="2.72345">
        <ele>1237</ele>
        <time>2022-07-30T21:18:13.000Z</time>
      </trkpt>
      <trkpt lat="45.55735" lon="2.72339">
        <ele>1237</ele>
        <time>2022-07-30T21:18:14.000Z</time>
      </trkpt>
      <trkpt lat="45.55733" lon="2.72332">
        <ele>1237</ele>
        <time>2022-07-30T21:18:15.000Z</time>
      </trkpt>
      <trkpt lat="45.5573" lon="2.72325">
        <ele>1237</ele>
        <time>2022-07-30T21:18:16.000Z</time>
      </trkpt>
      <trkpt lat="45.55727" lon="2.72319">
        <ele>1237</ele>
        <time>2022-07-30T21:18:17.000Z</time>
      </trkpt>
      <trkpt lat="45.55725" lon="2.72312">
        <ele>1237</ele>
        <time>2022-07-30T21:18:18.000Z</time>
      </trkpt>
      <trkpt lat="45.55722" lon="2.72306">
        <ele>1236</ele>
        <time>2022-07-30T21:18:19.000Z</time>
      </trkpt>
      <trkpt lat="45.55719" lon="2.72299">
        <ele>1236</ele>
        <time>2022-07-30T21:18:20.000Z</time>
      </trkpt>
      <trkpt lat="45.55717" lon="2.72293">
        <ele>1236</ele>
        <time>2022-07-30T21:18:21.000Z</time>
      </trkpt>
      <trkpt lat="45.55715" lon="2.72288">
        <ele>1236</ele>
        <time>2022-07-30T21:18:22.000Z</time>
      </trkpt>
      <trkpt lat="45.55712" lon="2.72282">
        <ele>1236</ele>
        <time>2022-07-30T21:18:23.000Z</time>
      </trkpt>
      <trkpt lat="45.5571" lon="2.72276">
        <ele>1236</ele>
        <time>2022-07-30T21:18:24.000Z</time>
      </trkpt>
      <trkpt lat="45.55707" lon="2.7227">
        <ele>1236</ele>
        <time>2022-07-30T21:18:25.000Z</time>
      </trkpt>
      <trkpt lat="45.55705" lon="2.72264">
        <ele>1236</ele>
        <time>2022-07-30T21:18:26.000Z</time>
      </trkpt>
      <trkpt lat="45.55703" lon="2.72259">
        <ele>1236</ele>
        <time>2022-07-30T21:18:27.000Z</time>
      </trkpt>
      <trkpt lat="45.557" lon="2.72253">
        <ele>1236</ele>
        <time>2022-07-30T21:18:28.000Z</time>
      </trkpt>
      <trkpt lat="45.55698" lon="2.72247">
        <ele>1236</ele>
        <time>2022-07-30T21:18:29.000Z</time>
      </trkpt>
      <trkpt lat="45.55696" lon="2.72241">
        <ele>1236</ele>
        <time>2022-07-30T21:18:30.000Z</time>
      </trkpt>
      <trkpt lat="45.55694" lon="2.72236">
        <ele>1236</ele>
        <time>2022-07-30T21:18:31.000Z</time>
      </trkpt>
      <trkpt lat="45.55691" lon="2.7223">
        <ele>1235</ele>
        <time>2022-07-30T21:18:32.000Z</time>
      </trkpt>
      <trkpt lat="45.55689" lon="2.72224">
        <ele>1235</ele>
        <time>2022-07-30T21:18:33.000Z</time>
      </trkpt>
      <trkpt lat="45.55687" lon="2.72219">
        <ele>1235</ele>
        <time>2022-07-30T21:18:34.000Z</time>
      </trkpt>
      <trkpt lat="45.55685" lon="2.72213">
        <ele>1235</ele>
        <time>2022-07-30T21:18:35.000Z</time>
      </trkpt>
      <trkpt lat="45.55683" lon="2.72208">
        <ele>1236</ele>
        <time>2022-07-30T21:18:36.000Z</time>
      </trkpt>
      <trkpt lat="45.5568" lon="2.72202">
        <ele>1236</ele>
        <time>2022-07-30T21:18:37.000Z</time>
      </trkpt>
      <trkpt lat="45.55678" lon="2.72196">
        <ele>1236</ele>
        <time>2022-07-30T21:18:38.000Z</time>
      </trkpt>
      <trkpt lat="45.55676" lon="2.72191">
        <ele>1236</ele>
        <time>2022-07-30T21:18:39.000Z</time>
      </trkpt>
      <trkpt lat="45.55673" lon="2.72184">
        <ele>1236</ele>
        <time>2022-07-30T21:18:40.000Z</time>
      </trkpt>
      <trkpt lat="45.55671" lon="2.72177">
        <ele>1236</ele>
        <time>2022-07-30T21:18:41.000Z</time>
      </trkpt>
      <trkpt lat="45.55668" lon="2.72171">
        <ele>1236</ele>
        <time>2022-07-30T21:18:42.000Z</time>
      </trkpt>
      <trkpt lat="45.55666" lon="2.72164">
        <ele>1236</ele>
        <time>2022-07-30T21:18:43.000Z</time>
      </trkpt>
      <trkpt lat="45.55663" lon="2.72158">
        <ele>1236</ele>
        <time>2022-07-30T21:18:44.000Z</time>
      </trkpt>
      <trkpt lat="45.5566" lon="2.72152">
        <ele>1236</ele>
        <time>2022-07-30T21:18:45.000Z</time>
      </trkpt>
      <trkpt lat="45.55656" lon="2.72147">
        <ele>1236</ele>
        <time>2022-07-30T21:18:46.000Z</time>
      </trkpt>
      <trkpt lat="45.55653" lon="2.72141">
        <ele>1236</ele>
        <time>2022-07-30T21:18:47.000Z</time>
      </trkpt>
      <trkpt lat="45.55649" lon="2.72136">
        <ele>1236</ele>
        <time>2022-07-30T21:18:48.000Z</time>
      </trkpt>
      <trkpt lat="45.55643" lon="2.72132">
        <ele>1235</ele>
        <time>2022-07-30T21:18:49.000Z</time>
      </trkpt>
      <trkpt lat="45.55637" lon="2.72128">
        <ele>1232</ele>
        <time>2022-07-30T21:18:50.000Z</time>
      </trkpt>
      <trkpt lat="45.55633" lon="2.72125">
        <ele>1232</ele>
        <time>2022-07-30T21:18:51.000Z</time>
      </trkpt>
      <trkpt lat="45.55629" lon="2.72121">
        <ele>1232</ele>
        <time>2022-07-30T21:18:52.000Z</time>
      </trkpt>
      <trkpt lat="45.55625" lon="2.72118">
        <ele>1232</ele>
        <time>2022-07-30T21:18:53.000Z</time>
      </trkpt>
      <trkpt lat="45.55621" lon="2.72115">
        <ele>1232</ele>
        <time>2022-07-30T21:18:54.000Z</time>
      </trkpt>
      <trkpt lat="45.55617" lon="2.72112">
        <ele>1232</ele>
        <time>2022-07-30T21:18:55.000Z</time>
      </trkpt>
      <trkpt lat="45.55613" lon="2.72109">
        <ele>1232</ele>
        <time>2022-07-30T21:18:56.000Z</time>
      </trkpt>
      <trkpt lat="45.55609" lon="2.72105">
        <ele>1232</ele>
        <time>2022-07-30T21:18:57.000Z</time>
      </trkpt>
      <trkpt lat="45.55605" lon="2.72102">
        <ele>1232</ele>
        <time>2022-07-30T21:18:58.000Z</time>
      </trkpt>
      <trkpt lat="45.55601" lon="2.72099">
        <ele>1232</ele>
        <time>2022-07-30T21:18:59.000Z</time>
      </trkpt>
      <trkpt lat="45.55597" lon="2.72095">
        <ele>1232</ele>
        <time>2022-07-30T21:19:00.000Z</time>
      </trkpt>
      <trkpt lat="45.55593" lon="2.72092">
        <ele>1232</ele>
        <time>2022-07-30T21:19:01.000Z</time>
      </trkpt>
      <trkpt lat="45.55589" lon="2.72089">
        <ele>1228</ele>
        <time>2022-07-30T21:19:02.000Z</time>
      </trkpt>
      <trkpt lat="45.55585" lon="2.72085">
        <ele>1228</ele>
        <time>2022-07-30T21:19:03.000Z</time>
      </trkpt>
      <trkpt lat="45.55582" lon="2.72081">
        <ele>1228</ele>
        <time>2022-07-30T21:19:04.000Z</time>
      </trkpt>
      <trkpt lat="45.55578" lon="2.72077">
        <ele>1228</ele>
        <time>2022-07-30T21:19:05.000Z</time>
      </trkpt>
      <trkpt lat="45.55574" lon="2.72073">
        <ele>1228</ele>
        <time>2022-07-30T21:19:06.000Z</time>
      </trkpt>
      <trkpt lat="45.55571" lon="2.72069">
        <ele>1228</ele>
        <time>2022-07-30T21:19:07.000Z</time>
      </trkpt>
      <trkpt lat="45.55567" lon="2.72065">
        <ele>1228</ele>
        <time>2022-07-30T21:19:08.000Z</time>
      </trkpt>
      <trkpt lat="45.55562" lon="2.72066">
        <ele>1228</ele>
        <time>2022-07-30T21:19:09.000Z</time>
      </trkpt>
      <trkpt lat="45.55557" lon="2.72066">
        <ele>1228</ele>
        <time>2022-07-30T21:19:10.000Z</time>
      </trkpt>
      <trkpt lat="45.55552" lon="2.72067">
        <ele>1228</ele>
        <time>2022-07-30T21:19:11.000Z</time>
      </trkpt>
      <trkpt lat="45.55547" lon="2.7207">
        <ele>1228</ele>
        <time>2022-07-30T21:19:12.000Z</time>
      </trkpt>
      <trkpt lat="45.55543" lon="2.72072">
        <ele>1228</ele>
        <time>2022-07-30T21:19:13.000Z</time>
      </trkpt>
      <trkpt lat="45.55539" lon="2.72075">
        <ele>1228</ele>
        <time>2022-07-30T21:19:14.000Z</time>
      </trkpt>
      <trkpt lat="45.55534" lon="2.72077">
        <ele>1228</ele>
        <time>2022-07-30T21:19:15.000Z</time>
      </trkpt>
      <trkpt lat="45.5553" lon="2.7208">
        <ele>1223</ele>
        <time>2022-07-30T21:19:16.000Z</time>
      </trkpt>
      <trkpt lat="45.55525" lon="2.72083">
        <ele>1223</ele>
        <time>2022-07-30T21:19:17.000Z</time>
      </trkpt>
      <trkpt lat="45.55521" lon="2.72087">
        <ele>1223</ele>
        <time>2022-07-30T21:19:18.000Z</time>
      </trkpt>
      <trkpt lat="45.55516" lon="2.7209">
        <ele>1223</ele>
        <time>2022-07-30T21:19:19.000Z</time>
      </trkpt>
      <trkpt lat="45.55512" lon="2.72093">
        <ele>1223</ele>
        <time>2022-07-30T21:19:20.000Z</time>
      </trkpt>
      <trkpt lat="45.55507" lon="2.72096">
        <ele>1223</ele>
        <time>2022-07-30T21:19:21.000Z</time>
      </trkpt>
      <trkpt lat="45.55502" lon="2.721">
        <ele>1227</ele>
        <time>2022-07-30T21:19:22.000Z</time>
      </trkpt>
      <trkpt lat="45.55498" lon="2.72103">
        <ele>1227</ele>
        <time>2022-07-30T21:19:23.000Z</time>
      </trkpt>
      <trkpt lat="45.55494" lon="2.72107">
        <ele>1227</ele>
        <time>2022-07-30T21:19:24.000Z</time>
      </trkpt>
      <trkpt lat="45.5549" lon="2.7211">
        <ele>1227</ele>
        <time>2022-07-30T21:19:25.000Z</time>
      </trkpt>
      <trkpt lat="45.55486" lon="2.72114">
        <ele>1227</ele>
        <time>2022-07-30T21:19:26.000Z</time>
      </trkpt>
      <trkpt lat="45.55482" lon="2.72118">
        <ele>1227</ele>
        <time>2022-07-30T21:19:27.000Z</time>
      </trkpt>
      <trkpt lat="45.55478" lon="2.72122">
        <ele>1221</ele>
        <time>2022-07-30T21:19:28.000Z</time>
      </trkpt>
      <trkpt lat="45.55474" lon="2.72126">
        <ele>1221</ele>
        <time>2022-07-30T21:19:29.000Z</time>
      </trkpt>
      <trkpt lat="45.5547" lon="2.7213">
        <ele>1221</ele>
        <time>2022-07-30T21:19:30.000Z</time>
      </trkpt>
      <trkpt lat="45.55466" lon="2.72133">
        <ele>1221</ele>
        <time>2022-07-30T21:19:31.000Z</time>
      </trkpt>
      <trkpt lat="45.55467" lon="2.72127">
        <ele>1221</ele>
        <time>2022-07-30T21:19:32.000Z</time>
      </trkpt>
      <trkpt lat="45.55468" lon="2.7212">
        <ele>1221</ele>
        <time>2022-07-30T21:19:33.000Z</time>
      </trkpt>
      <trkpt lat="45.55469" lon="2.72114">
        <ele>1221</ele>
        <time>2022-07-30T21:19:34.000Z</time>
      </trkpt>
      <trkpt lat="45.5547" lon="2.72107">
        <ele>1221</ele>
        <time>2022-07-30T21:19:35.000Z</time>
      </trkpt>
      <trkpt lat="45.55472" lon="2.721">
        <ele>1221</ele>
        <time>2022-07-30T21:19:36.000Z</time>
      </trkpt>
      <trkpt lat="45.55473" lon="2.72094">
        <ele>1221</ele>
        <time>2022-07-30T21:19:37.000Z</time>
      </trkpt>
      <trkpt lat="45.55473" lon="2.72086">
        <ele>1221</ele>
        <time>2022-07-30T21:19:38.000Z</time>
      </trkpt>
      <trkpt lat="45.55473" lon="2.72078">
        <ele>1221</ele>
        <time>2022-07-30T21:19:39.000Z</time>
      </trkpt>
      <trkpt lat="45.55473" lon="2.7207">
        <ele>1221</ele>
        <time>2022-07-30T21:19:40.000Z</time>
      </trkpt>
      <trkpt lat="45.55474" lon="2.72063">
        <ele>1221</ele>
        <time>2022-07-30T21:19:41.000Z</time>
      </trkpt>
      <trkpt lat="45.55476" lon="2.72057">
        <ele>1221</ele>
        <time>2022-07-30T21:19:42.000Z</time>
      </trkpt>
      <trkpt lat="45.55477" lon="2.72051">
        <ele>1215</ele>
        <time>2022-07-30T21:19:43.000Z</time>
      </trkpt>
      <trkpt lat="45.55478" lon="2.72045">
        <ele>1215</ele>
        <time>2022-07-30T21:19:44.000Z</time>
      </trkpt>
      <trkpt lat="45.55479" lon="2.72038">
        <ele>1215</ele>
        <time>2022-07-30T21:19:45.000Z</time>
      </trkpt>
      <trkpt lat="45.5548" lon="2.72032">
        <ele>1215</ele>
        <time>2022-07-30T21:19:46.000Z</time>
      </trkpt>
      <trkpt lat="45.55481" lon="2.72026">
        <ele>1215</ele>
        <time>2022-07-30T21:19:47.000Z</time>
      </trkpt>
      <trkpt lat="45.55483" lon="2.7202">
        <ele>1215</ele>
        <time>2022-07-30T21:19:48.000Z</time>
      </trkpt>
      <trkpt lat="45.55485" lon="2.72014">
        <ele>1215</ele>
        <time>2022-07-30T21:19:49.000Z</time>
      </trkpt>
      <trkpt lat="45.55487" lon="2.72008">
        <ele>1215</ele>
        <time>2022-07-30T21:19:50.000Z</time>
      </trkpt>
      <trkpt lat="45.55489" lon="2.72002">
        <ele>1215</ele>
        <time>2022-07-30T21:19:51.000Z</time>
      </trkpt>
      <trkpt lat="45.55492" lon="2.71996">
        <ele>1217</ele>
        <time>2022-07-30T21:19:52.000Z</time>
      </trkpt>
      <trkpt lat="45.55495" lon="2.7199">
        <ele>1217</ele>
        <time>2022-07-30T21:19:53.000Z</time>
      </trkpt>
      <trkpt lat="45.55498" lon="2.71983">
        <ele>1217</ele>
        <time>2022-07-30T21:19:54.000Z</time>
      </trkpt>
      <trkpt lat="45.55501" lon="2.71977">
        <ele>1217</ele>
        <time>2022-07-30T21:19:55.000Z</time>
      </trkpt>
      <trkpt lat="45.55501" lon="2.7197">
        <ele>1217</ele>
        <time>2022-07-30T21:19:56.000Z</time>
      </trkpt>
      <trkpt lat="45.55501" lon="2.71963">
        <ele>1217</ele>
        <time>2022-07-30T21:19:57.000Z</time>
      </trkpt>
      <trkpt lat="45.55501" lon="2.71957">
        <ele>1217</ele>
        <time>2022-07-30T21:19:58.000Z</time>
      </trkpt>
      <trkpt lat="45.55504" lon="2.71951">
        <ele>1217</ele>
        <time>2022-07-30T21:19:59.000Z</time>
      </trkpt>
      <trkpt lat="45.55506" lon="2.71945">
        <ele>1217</ele>
        <time>2022-07-30T21:20:00.000Z</time>
      </trkpt>
      <trkpt lat="45.55509" lon="2.71939">
        <ele>1217</ele>
        <time>2022-07-30T21:20:01.000Z</time>
      </trkpt>
      <trkpt lat="45.55511" lon="2.71933">
        <ele>1217</ele>
        <time>2022-07-30T21:20:02.000Z</time>
      </trkpt>
      <trkpt lat="45.55514" lon="2.71927">
        <ele>1217</ele>
        <time>2022-07-30T21:20:03.000Z</time>
      </trkpt>
      <trkpt lat="45.55516" lon="2.71921">
        <ele>1209</ele>
        <time>2022-07-30T21:20:04.000Z</time>
      </trkpt>
      <trkpt lat="45.55519" lon="2.71916">
        <ele>1209</ele>
        <time>2022-07-30T21:20:05.000Z</time>
      </trkpt>
      <trkpt lat="45.55521" lon="2.7191">
        <ele>1209</ele>
        <time>2022-07-30T21:20:06.000Z</time>
      </trkpt>
      <trkpt lat="45.55522" lon="2.71903">
        <ele>1209</ele>
        <time>2022-07-30T21:20:07.000Z</time>
      </trkpt>
      <trkpt lat="45.55522" lon="2.71897">
        <ele>1209</ele>
        <time>2022-07-30T21:20:08.000Z</time>
      </trkpt>
      <trkpt lat="45.55522" lon="2.7189">
        <ele>1209</ele>
        <time>2022-07-30T21:20:09.000Z</time>
      </trkpt>
      <trkpt lat="45.5552" lon="2.71885">
        <ele>1209</ele>
        <time>2022-07-30T21:20:10.000Z</time>
      </trkpt>
      <trkpt lat="45.55517" lon="2.71879">
        <ele>1209</ele>
        <time>2022-07-30T21:20:11.000Z</time>
      </trkpt>
      <trkpt lat="45.55515" lon="2.71873">
        <ele>1209</ele>
        <time>2022-07-30T21:20:12.000Z</time>
      </trkpt>
      <trkpt lat="45.55513" lon="2.71868">
        <ele>1206</ele>
        <time>2022-07-30T21:20:13.000Z</time>
      </trkpt>
      <trkpt lat="45.5551" lon="2.71862">
        <ele>1206</ele>
        <time>2022-07-30T21:20:14.000Z</time>
      </trkpt>
      <trkpt lat="45.55508" lon="2.71857">
        <ele>1206</ele>
        <time>2022-07-30T21:20:15.000Z</time>
      </trkpt>
      <trkpt lat="45.55505" lon="2.71851">
        <ele>1206</ele>
        <time>2022-07-30T21:20:16.000Z</time>
      </trkpt>
      <trkpt lat="45.55503" lon="2.71845">
        <ele>1206</ele>
        <time>2022-07-30T21:20:17.000Z</time>
      </trkpt>
      <trkpt lat="45.55501" lon="2.7184">
        <ele>1206</ele>
        <time>2022-07-30T21:20:18.000Z</time>
      </trkpt>
      <trkpt lat="45.55498" lon="2.71834">
        <ele>1206</ele>
        <time>2022-07-30T21:20:19.000Z</time>
      </trkpt>
      <trkpt lat="45.55496" lon="2.71829">
        <ele>1211</ele>
        <time>2022-07-30T21:20:20.000Z</time>
      </trkpt>
      <trkpt lat="45.55493" lon="2.71823">
        <ele>1211</ele>
        <time>2022-07-30T21:20:21.000Z</time>
      </trkpt>
      <trkpt lat="45.55491" lon="2.71817">
        <ele>1211</ele>
        <time>2022-07-30T21:20:22.000Z</time>
      </trkpt>
      <trkpt lat="45.55489" lon="2.71812">
        <ele>1211</ele>
        <time>2022-07-30T21:20:23.000Z</time>
      </trkpt>
      <trkpt lat="45.55486" lon="2.71806">
        <ele>1211</ele>
        <time>2022-07-30T21:20:24.000Z</time>
      </trkpt>
      <trkpt lat="45.55484" lon="2.718">
        <ele>1211</ele>
        <time>2022-07-30T21:20:25.000Z</time>
      </trkpt>
      <trkpt lat="45.55481" lon="2.71795">
        <ele>1211</ele>
        <time>2022-07-30T21:20:26.000Z</time>
      </trkpt>
      <trkpt lat="45.55479" lon="2.71789">
        <ele>1211</ele>
        <time>2022-07-30T21:20:27.000Z</time>
      </trkpt>
      <trkpt lat="45.55477" lon="2.71784">
        <ele>1211</ele>
        <time>2022-07-30T21:20:28.000Z</time>
      </trkpt>
      <trkpt lat="45.55474" lon="2.71778">
        <ele>1211</ele>
        <time>2022-07-30T21:20:29.000Z</time>
      </trkpt>
      <trkpt lat="45.55472" lon="2.71772">
        <ele>1211</ele>
        <time>2022-07-30T21:20:30.000Z</time>
      </trkpt>
      <trkpt lat="45.55469" lon="2.71767">
        <ele>1209</ele>
        <time>2022-07-30T21:20:31.000Z</time>
      </trkpt>
      <trkpt lat="45.55467" lon="2.71761">
        <ele>1209</ele>
        <time>2022-07-30T21:20:32.000Z</time>
      </trkpt>
      <trkpt lat="45.55465" lon="2.71756">
        <ele>1209</ele>
        <time>2022-07-30T21:20:33.000Z</time>
      </trkpt>
      <trkpt lat="45.55463" lon="2.71751">
        <ele>1211</ele>
        <time>2022-07-30T21:20:34.000Z</time>
      </trkpt>
      <trkpt lat="45.55457" lon="2.71752">
        <ele>1211</ele>
        <time>2022-07-30T21:20:35.000Z</time>
      </trkpt>
      <trkpt lat="45.55453" lon="2.71753">
        <ele>1211</ele>
        <time>2022-07-30T21:20:36.000Z</time>
      </trkpt>
      <trkpt lat="45.55448" lon="2.71753">
        <ele>1211</ele>
        <time>2022-07-30T21:20:37.000Z</time>
      </trkpt>
      <trkpt lat="45.55444" lon="2.71754">
        <ele>1211</ele>
        <time>2022-07-30T21:20:38.000Z</time>
      </trkpt>
      <trkpt lat="45.55439" lon="2.71754">
        <ele>1206</ele>
        <time>2022-07-30T21:20:39.000Z</time>
      </trkpt>
      <trkpt lat="45.55434" lon="2.71755">
        <ele>1206</ele>
        <time>2022-07-30T21:20:40.000Z</time>
      </trkpt>
      <trkpt lat="45.5543" lon="2.71756">
        <ele>1206</ele>
        <time>2022-07-30T21:20:41.000Z</time>
      </trkpt>
      <trkpt lat="45.55425" lon="2.71756">
        <ele>1206</ele>
        <time>2022-07-30T21:20:42.000Z</time>
      </trkpt>
      <trkpt lat="45.55421" lon="2.71757">
        <ele>1206</ele>
        <time>2022-07-30T21:20:43.000Z</time>
      </trkpt>
      <trkpt lat="45.55416" lon="2.71757">
        <ele>1206</ele>
        <time>2022-07-30T21:20:44.000Z</time>
      </trkpt>
      <trkpt lat="45.55412" lon="2.71758">
        <ele>1206</ele>
        <time>2022-07-30T21:20:45.000Z</time>
      </trkpt>
      <trkpt lat="45.55407" lon="2.71759">
        <ele>1206</ele>
        <time>2022-07-30T21:20:46.000Z</time>
      </trkpt>
      <trkpt lat="45.55403" lon="2.71759">
        <ele>1206</ele>
        <time>2022-07-30T21:20:47.000Z</time>
      </trkpt>
      <trkpt lat="45.55398" lon="2.7176">
        <ele>1206</ele>
        <time>2022-07-30T21:20:48.000Z</time>
      </trkpt>
      <trkpt lat="45.55394" lon="2.7176">
        <ele>1206</ele>
        <time>2022-07-30T21:20:49.000Z</time>
      </trkpt>
      <trkpt lat="45.55389" lon="2.71761">
        <ele>1206</ele>
        <time>2022-07-30T21:20:50.000Z</time>
      </trkpt>
      <trkpt lat="45.55385" lon="2.71762">
        <ele>1206</ele>
        <time>2022-07-30T21:20:51.000Z</time>
      </trkpt>
      <trkpt lat="45.5538" lon="2.71762">
        <ele>1201</ele>
        <time>2022-07-30T21:20:52.000Z</time>
      </trkpt>
      <trkpt lat="45.55375" lon="2.71763">
        <ele>1201</ele>
        <time>2022-07-30T21:20:53.000Z</time>
      </trkpt>
      <trkpt lat="45.55371" lon="2.71763">
        <ele>1201</ele>
        <time>2022-07-30T21:20:54.000Z</time>
      </trkpt>
      <trkpt lat="45.55366" lon="2.71764">
        <ele>1201</ele>
        <time>2022-07-30T21:20:55.000Z</time>
      </trkpt>
      <trkpt lat="45.55362" lon="2.71764">
        <ele>1201</ele>
        <time>2022-07-30T21:20:56.000Z</time>
      </trkpt>
      <trkpt lat="45.55357" lon="2.71765">
        <ele>1201</ele>
        <time>2022-07-30T21:20:57.000Z</time>
      </trkpt>
      <trkpt lat="45.55353" lon="2.71765">
        <ele>1201</ele>
        <time>2022-07-30T21:20:58.000Z</time>
      </trkpt>
      <trkpt lat="45.55348" lon="2.71765">
        <ele>1201</ele>
        <time>2022-07-30T21:20:59.000Z</time>
      </trkpt>
      <trkpt lat="45.55344" lon="2.71765">
        <ele>1201</ele>
        <time>2022-07-30T21:21:00.000Z</time>
      </trkpt>
      <trkpt lat="45.55339" lon="2.71765">
        <ele>1201</ele>
        <time>2022-07-30T21:21:01.000Z</time>
      </trkpt>
      <trkpt lat="45.55335" lon="2.71765">
        <ele>1201</ele>
        <time>2022-07-30T21:21:02.000Z</time>
      </trkpt>
      <trkpt lat="45.5533" lon="2.71765">
        <ele>1201</ele>
        <time>2022-07-30T21:21:03.000Z</time>
      </trkpt>
      <trkpt lat="45.55326" lon="2.71766">
        <ele>1201</ele>
        <time>2022-07-30T21:21:04.000Z</time>
      </trkpt>
      <trkpt lat="45.55321" lon="2.71766">
        <ele>1201</ele>
        <time>2022-07-30T21:21:05.000Z</time>
      </trkpt>
      <trkpt lat="45.55317" lon="2.71766">
        <ele>1196</ele>
        <time>2022-07-30T21:21:06.000Z</time>
      </trkpt>
      <trkpt lat="45.55312" lon="2.71766">
        <ele>1196</ele>
        <time>2022-07-30T21:21:07.000Z</time>
      </trkpt>
      <trkpt lat="45.55308" lon="2.71766">
        <ele>1196</ele>
        <time>2022-07-30T21:21:08.000Z</time>
      </trkpt>
      <trkpt lat="45.55303" lon="2.71766">
        <ele>1196</ele>
        <time>2022-07-30T21:21:09.000Z</time>
      </trkpt>
      <trkpt lat="45.55298" lon="2.71766">
        <ele>1196</ele>
        <time>2022-07-30T21:21:10.000Z</time>
      </trkpt>
      <trkpt lat="45.55294" lon="2.71766">
        <ele>1196</ele>
        <time>2022-07-30T21:21:11.000Z</time>
      </trkpt>
      <trkpt lat="45.55289" lon="2.71766">
        <ele>1196</ele>
        <time>2022-07-30T21:21:12.000Z</time>
      </trkpt>
      <trkpt lat="45.55285" lon="2.71766">
        <ele>1196</ele>
        <time>2022-07-30T21:21:13.000Z</time>
      </trkpt>
      <trkpt lat="45.5528" lon="2.71766">
        <ele>1196</ele>
        <time>2022-07-30T21:21:14.000Z</time>
      </trkpt>
      <trkpt lat="45.55276" lon="2.71766">
        <ele>1196</ele>
        <time>2022-07-30T21:21:15.000Z</time>
      </trkpt>
      <trkpt lat="45.55271" lon="2.71766">
        <ele>1196</ele>
        <time>2022-07-30T21:21:16.000Z</time>
      </trkpt>
      <trkpt lat="45.55267" lon="2.71766">
        <ele>1196</ele>
        <time>2022-07-30T21:21:17.000Z</time>
      </trkpt>
      <trkpt lat="45.55262" lon="2.71767">
        <ele>1196</ele>
        <time>2022-07-30T21:21:18.000Z</time>
      </trkpt>
      <trkpt lat="45.55258" lon="2.71767">
        <ele>1191</ele>
        <time>2022-07-30T21:21:19.000Z</time>
      </trkpt>
      <trkpt lat="45.55253" lon="2.71767">
        <ele>1191</ele>
        <time>2022-07-30T21:21:20.000Z</time>
      </trkpt>
      <trkpt lat="45.55249" lon="2.71767">
        <ele>1191</ele>
        <time>2022-07-30T21:21:21.000Z</time>
      </trkpt>
      <trkpt lat="45.55244" lon="2.71767">
        <ele>1191</ele>
        <time>2022-07-30T21:21:22.000Z</time>
      </trkpt>
      <trkpt lat="45.5524" lon="2.71767">
        <ele>1191</ele>
        <time>2022-07-30T21:21:23.000Z</time>
      </trkpt>
      <trkpt lat="45.55235" lon="2.71766">
        <ele>1191</ele>
        <time>2022-07-30T21:21:24.000Z</time>
      </trkpt>
      <trkpt lat="45.5523" lon="2.71766">
        <ele>1191</ele>
        <time>2022-07-30T21:21:25.000Z</time>
      </trkpt>
      <trkpt lat="45.55226" lon="2.71766">
        <ele>1191</ele>
        <time>2022-07-30T21:21:26.000Z</time>
      </trkpt>
      <trkpt lat="45.55221" lon="2.71765">
        <ele>1191</ele>
        <time>2022-07-30T21:21:27.000Z</time>
      </trkpt>
      <trkpt lat="45.55217" lon="2.71765">
        <ele>1191</ele>
        <time>2022-07-30T21:21:28.000Z</time>
      </trkpt>
      <trkpt lat="45.55212" lon="2.71765">
        <ele>1191</ele>
        <time>2022-07-30T21:21:29.000Z</time>
      </trkpt>
      <trkpt lat="45.55208" lon="2.71764">
        <ele>1193</ele>
        <time>2022-07-30T21:21:30.000Z</time>
      </trkpt>
      <trkpt lat="45.55203" lon="2.71764">
        <ele>1193</ele>
        <time>2022-07-30T21:21:31.000Z</time>
      </trkpt>
      <trkpt lat="45.55198" lon="2.71764">
        <ele>1193</ele>
        <time>2022-07-30T21:21:32.000Z</time>
      </trkpt>
      <trkpt lat="45.55194" lon="2.71763">
        <ele>1188</ele>
        <time>2022-07-30T21:21:33.000Z</time>
      </trkpt>
      <trkpt lat="45.55189" lon="2.71763">
        <ele>1188</ele>
        <time>2022-07-30T21:21:34.000Z</time>
      </trkpt>
      <trkpt lat="45.55185" lon="2.71763">
        <ele>1188</ele>
        <time>2022-07-30T21:21:35.000Z</time>
      </trkpt>
      <trkpt lat="45.5518" lon="2.71763">
        <ele>1188</ele>
        <time>2022-07-30T21:21:36.000Z</time>
      </trkpt>
      <trkpt lat="45.55175" lon="2.71762">
        <ele>1193</ele>
        <time>2022-07-30T21:21:37.000Z</time>
      </trkpt>
      <trkpt lat="45.55171" lon="2.71762">
        <ele>1193</ele>
        <time>2022-07-30T21:21:38.000Z</time>
      </trkpt>
      <trkpt lat="45.55166" lon="2.71762">
        <ele>1193</ele>
        <time>2022-07-30T21:21:39.000Z</time>
      </trkpt>
      <trkpt lat="45.55162" lon="2.71761">
        <ele>1193</ele>
        <time>2022-07-30T21:21:40.000Z</time>
      </trkpt>
      <trkpt lat="45.55157" lon="2.71761">
        <ele>1193</ele>
        <time>2022-07-30T21:21:41.000Z</time>
      </trkpt>
      <trkpt lat="45.55153" lon="2.71761">
        <ele>1193</ele>
        <time>2022-07-30T21:21:42.000Z</time>
      </trkpt>
      <trkpt lat="45.55148" lon="2.7176">
        <ele>1193</ele>
        <time>2022-07-30T21:21:43.000Z</time>
      </trkpt>
      <trkpt lat="45.55143" lon="2.7176">
        <ele>1193</ele>
        <time>2022-07-30T21:21:44.000Z</time>
      </trkpt>
      <trkpt lat="45.55139" lon="2.7176">
        <ele>1193</ele>
        <time>2022-07-30T21:21:45.000Z</time>
      </trkpt>
      <trkpt lat="45.55134" lon="2.71759">
        <ele>1193</ele>
        <time>2022-07-30T21:21:46.000Z</time>
      </trkpt>
      <trkpt lat="45.5513" lon="2.71759">
        <ele>1193</ele>
        <time>2022-07-30T21:21:47.000Z</time>
      </trkpt>
      <trkpt lat="45.55125" lon="2.71759">
        <ele>1193</ele>
        <time>2022-07-30T21:21:48.000Z</time>
      </trkpt>
      <trkpt lat="45.55121" lon="2.71759">
        <ele>1189</ele>
        <time>2022-07-30T21:21:49.000Z</time>
      </trkpt>
      <trkpt lat="45.55116" lon="2.71758">
        <ele>1189</ele>
        <time>2022-07-30T21:21:50.000Z</time>
      </trkpt>
      <trkpt lat="45.55111" lon="2.71758">
        <ele>1189</ele>
        <time>2022-07-30T21:21:51.000Z</time>
      </trkpt>
      <trkpt lat="45.55107" lon="2.71758">
        <ele>1189</ele>
        <time>2022-07-30T21:21:52.000Z</time>
      </trkpt>
      <trkpt lat="45.55102" lon="2.71757">
        <ele>1189</ele>
        <time>2022-07-30T21:21:53.000Z</time>
      </trkpt>
      <trkpt lat="45.55098" lon="2.71757">
        <ele>1189</ele>
        <time>2022-07-30T21:21:54.000Z</time>
      </trkpt>
      <trkpt lat="45.55093" lon="2.71757">
        <ele>1189</ele>
        <time>2022-07-30T21:21:55.000Z</time>
      </trkpt>
      <trkpt lat="45.55089" lon="2.71756">
        <ele>1189</ele>
        <time>2022-07-30T21:21:56.000Z</time>
      </trkpt>
      <trkpt lat="45.55084" lon="2.71756">
        <ele>1189</ele>
        <time>2022-07-30T21:21:57.000Z</time>
      </trkpt>
      <trkpt lat="45.55079" lon="2.71756">
        <ele>1189</ele>
        <time>2022-07-30T21:21:58.000Z</time>
      </trkpt>
      <trkpt lat="45.55075" lon="2.71755">
        <ele>1189</ele>
        <time>2022-07-30T21:21:59.000Z</time>
      </trkpt>
      <trkpt lat="45.5507" lon="2.71755">
        <ele>1189</ele>
        <time>2022-07-30T21:22:00.000Z</time>
      </trkpt>
      <trkpt lat="45.55066" lon="2.71755">
        <ele>1189</ele>
        <time>2022-07-30T21:22:01.000Z</time>
      </trkpt>
      <trkpt lat="45.55061" lon="2.71755">
        <ele>1189</ele>
        <time>2022-07-30T21:22:02.000Z</time>
      </trkpt>
      <trkpt lat="45.55058" lon="2.71749">
        <ele>1189</ele>
        <time>2022-07-30T21:22:03.000Z</time>
      </trkpt>
      <trkpt lat="45.55055" lon="2.71744">
        <ele>1189</ele>
        <time>2022-07-30T21:22:04.000Z</time>
      </trkpt>
      <trkpt lat="45.55053" lon="2.71739">
        <ele>1185</ele>
        <time>2022-07-30T21:22:05.000Z</time>
      </trkpt>
      <trkpt lat="45.5505" lon="2.71734">
        <ele>1185</ele>
        <time>2022-07-30T21:22:06.000Z</time>
      </trkpt>
      <trkpt lat="45.55047" lon="2.71728">
        <ele>1185</ele>
        <time>2022-07-30T21:22:07.000Z</time>
      </trkpt>
      <trkpt lat="45.55044" lon="2.71723">
        <ele>1185</ele>
        <time>2022-07-30T21:22:08.000Z</time>
      </trkpt>
      <trkpt lat="45.55041" lon="2.71718">
        <ele>1185</ele>
        <time>2022-07-30T21:22:09.000Z</time>
      </trkpt>
      <trkpt lat="45.55038" lon="2.71713">
        <ele>1185</ele>
        <time>2022-07-30T21:22:10.000Z</time>
      </trkpt>
      <trkpt lat="45.55035" lon="2.71708">
        <ele>1185</ele>
        <time>2022-07-30T21:22:11.000Z</time>
      </trkpt>
      <trkpt lat="45.55033" lon="2.71702">
        <ele>1185</ele>
        <time>2022-07-30T21:22:12.000Z</time>
      </trkpt>
      <trkpt lat="45.5503" lon="2.71697">
        <ele>1185</ele>
        <time>2022-07-30T21:22:13.000Z</time>
      </trkpt>
      <trkpt lat="45.55027" lon="2.71692">
        <ele>1185</ele>
        <time>2022-07-30T21:22:14.000Z</time>
      </trkpt>
      <trkpt lat="45.55024" lon="2.71687">
        <ele>1185</ele>
        <time>2022-07-30T21:22:15.000Z</time>
      </trkpt>
      <trkpt lat="45.55021" lon="2.71682">
        <ele>1185</ele>
        <time>2022-07-30T21:22:16.000Z</time>
      </trkpt>
      <trkpt lat="45.55018" lon="2.71676">
        <ele>1185</ele>
        <time>2022-07-30T21:22:17.000Z</time>
      </trkpt>
      <trkpt lat="45.55016" lon="2.71671">
        <ele>1185</ele>
        <time>2022-07-30T21:22:18.000Z</time>
      </trkpt>
      <trkpt lat="45.55013" lon="2.71666">
        <ele>1185</ele>
        <time>2022-07-30T21:22:19.000Z</time>
      </trkpt>
      <trkpt lat="45.5501" lon="2.71661">
        <ele>1185</ele>
        <time>2022-07-30T21:22:20.000Z</time>
      </trkpt>
      <trkpt lat="45.55007" lon="2.71656">
        <ele>1183</ele>
        <time>2022-07-30T21:22:21.000Z</time>
      </trkpt>
      <trkpt lat="45.55004" lon="2.71651">
        <ele>1183</ele>
        <time>2022-07-30T21:22:22.000Z</time>
      </trkpt>
      <trkpt lat="45.55002" lon="2.71646">
        <ele>1183</ele>
        <time>2022-07-30T21:22:23.000Z</time>
      </trkpt>
      <trkpt lat="45.54999" lon="2.7164">
        <ele>1183</ele>
        <time>2022-07-30T21:22:24.000Z</time>
      </trkpt>
      <trkpt lat="45.54996" lon="2.71635">
        <ele>1183</ele>
        <time>2022-07-30T21:22:25.000Z</time>
      </trkpt>
      <trkpt lat="45.54993" lon="2.7163">
        <ele>1183</ele>
        <time>2022-07-30T21:22:26.000Z</time>
      </trkpt>
      <trkpt lat="45.5499" lon="2.71625">
        <ele>1183</ele>
        <time>2022-07-30T21:22:27.000Z</time>
      </trkpt>
      <trkpt lat="45.54988" lon="2.7162">
        <ele>1183</ele>
        <time>2022-07-30T21:22:28.000Z</time>
      </trkpt>
      <trkpt lat="45.54985" lon="2.71615">
        <ele>1183</ele>
        <time>2022-07-30T21:22:29.000Z</time>
      </trkpt>
      <trkpt lat="45.54987" lon="2.71609">
        <ele>1183</ele>
        <time>2022-07-30T21:22:30.000Z</time>
      </trkpt>
      <trkpt lat="45.54988" lon="2.71602">
        <ele>1183</ele>
        <time>2022-07-30T21:22:31.000Z</time>
      </trkpt>
      <trkpt lat="45.5499" lon="2.71596">
        <ele>1183</ele>
        <time>2022-07-30T21:22:32.000Z</time>
      </trkpt>
      <trkpt lat="45.54992" lon="2.7159">
        <ele>1183</ele>
        <time>2022-07-30T21:22:33.000Z</time>
      </trkpt>
      <trkpt lat="45.54994" lon="2.71585">
        <ele>1183</ele>
        <time>2022-07-30T21:22:34.000Z</time>
      </trkpt>
      <trkpt lat="45.54996" lon="2.71579">
        <ele>1183</ele>
        <time>2022-07-30T21:22:35.000Z</time>
      </trkpt>
      <trkpt lat="45.54998" lon="2.71573">
        <ele>1183</ele>
        <time>2022-07-30T21:22:36.000Z</time>
      </trkpt>
      <trkpt lat="45.55" lon="2.71567">
        <ele>1182</ele>
        <time>2022-07-30T21:22:37.000Z</time>
      </trkpt>
      <trkpt lat="45.55002" lon="2.71561">
        <ele>1182</ele>
        <time>2022-07-30T21:22:38.000Z</time>
      </trkpt>
      <trkpt lat="45.55004" lon="2.71555">
        <ele>1182</ele>
        <time>2022-07-30T21:22:39.000Z</time>
      </trkpt>
      <trkpt lat="45.55006" lon="2.71549">
        <ele>1182</ele>
        <time>2022-07-30T21:22:40.000Z</time>
      </trkpt>
      <trkpt lat="45.55008" lon="2.71543">
        <ele>1182</ele>
        <time>2022-07-30T21:22:41.000Z</time>
      </trkpt>
      <trkpt lat="45.55008" lon="2.71536">
        <ele>1182</ele>
        <time>2022-07-30T21:22:42.000Z</time>
      </trkpt>
      <trkpt lat="45.55009" lon="2.71529">
        <ele>1182</ele>
        <time>2022-07-30T21:22:43.000Z</time>
      </trkpt>
      <trkpt lat="45.55009" lon="2.71521">
        <ele>1182</ele>
        <time>2022-07-30T21:22:44.000Z</time>
      </trkpt>
      <trkpt lat="45.55009" lon="2.71514">
        <ele>1182</ele>
        <time>2022-07-30T21:22:45.000Z</time>
      </trkpt>
      <trkpt lat="45.55009" lon="2.71508">
        <ele>1182</ele>
        <time>2022-07-30T21:22:46.000Z</time>
      </trkpt>
      <trkpt lat="45.55009" lon="2.71501">
        <ele>1182</ele>
        <time>2022-07-30T21:22:47.000Z</time>
      </trkpt>
      <trkpt lat="45.55009" lon="2.71495">
        <ele>1182</ele>
        <time>2022-07-30T21:22:48.000Z</time>
      </trkpt>
      <trkpt lat="45.55008" lon="2.71488">
        <ele>1182</ele>
        <time>2022-07-30T21:22:49.000Z</time>
      </trkpt>
      <trkpt lat="45.55008" lon="2.71482">
        <ele>1182</ele>
        <time>2022-07-30T21:22:50.000Z</time>
      </trkpt>
      <trkpt lat="45.55008" lon="2.71475">
        <ele>1176</ele>
        <time>2022-07-30T21:22:51.000Z</time>
      </trkpt>
      <trkpt lat="45.55008" lon="2.71469">
        <ele>1176</ele>
        <time>2022-07-30T21:22:52.000Z</time>
      </trkpt>
      <trkpt lat="45.55007" lon="2.71463">
        <ele>1176</ele>
        <time>2022-07-30T21:22:53.000Z</time>
      </trkpt>
      <trkpt lat="45.55007" lon="2.71455">
        <ele>1180</ele>
        <time>2022-07-30T21:22:54.000Z</time>
      </trkpt>
      <trkpt lat="45.55006" lon="2.71447">
        <ele>1180</ele>
        <time>2022-07-30T21:22:55.000Z</time>
      </trkpt>
      <trkpt lat="45.55006" lon="2.71439">
        <ele>1180</ele>
        <time>2022-07-30T21:22:56.000Z</time>
      </trkpt>
      <trkpt lat="45.55004" lon="2.71432">
        <ele>1180</ele>
        <time>2022-07-30T21:22:57.000Z</time>
      </trkpt>
      <trkpt lat="45.55003" lon="2.71425">
        <ele>1180</ele>
        <time>2022-07-30T21:22:58.000Z</time>
      </trkpt>
      <trkpt lat="45.55001" lon="2.71418">
        <ele>1180</ele>
        <time>2022-07-30T21:22:59.000Z</time>
      </trkpt>
      <trkpt lat="45.54999" lon="2.71411">
        <ele>1180</ele>
        <time>2022-07-30T21:23:00.000Z</time>
      </trkpt>
      <trkpt lat="45.54997" lon="2.71399">
        <ele>1180</ele>
        <time>2022-07-30T21:23:01.000Z</time>
      </trkpt>
      <trkpt lat="45.54995" lon="2.71392">
        <ele>1180</ele>
        <time>2022-07-30T21:23:02.000Z</time>
      </trkpt>
      <trkpt lat="45.54993" lon="2.71385">
        <ele>1180</ele>
        <time>2022-07-30T21:23:03.000Z</time>
      </trkpt>
      <trkpt lat="45.54991" lon="2.71378">
        <ele>1180</ele>
        <time>2022-07-30T21:23:04.000Z</time>
      </trkpt>
      <trkpt lat="45.54989" lon="2.71372">
        <ele>1180</ele>
        <time>2022-07-30T21:23:05.000Z</time>
      </trkpt>
      <trkpt lat="45.54987" lon="2.71365">
        <ele>1175</ele>
        <time>2022-07-30T21:23:06.000Z</time>
      </trkpt>
      <trkpt lat="45.54985" lon="2.71358">
        <ele>1175</ele>
        <time>2022-07-30T21:23:07.000Z</time>
      </trkpt>
      <trkpt lat="45.54983" lon="2.71351">
        <ele>1175</ele>
        <time>2022-07-30T21:23:08.000Z</time>
      </trkpt>
      <trkpt lat="45.54981" lon="2.71344">
        <ele>1175</ele>
        <time>2022-07-30T21:23:09.000Z</time>
      </trkpt>
      <trkpt lat="45.54979" lon="2.71338">
        <ele>1175</ele>
        <time>2022-07-30T21:23:10.000Z</time>
      </trkpt>
      <trkpt lat="45.54977" lon="2.71331">
        <ele>1175</ele>
        <time>2022-07-30T21:23:11.000Z</time>
      </trkpt>
      <trkpt lat="45.54975" lon="2.71324">
        <ele>1175</ele>
        <time>2022-07-30T21:23:12.000Z</time>
      </trkpt>
      <trkpt lat="45.54973" lon="2.71317">
        <ele>1175</ele>
        <time>2022-07-30T21:23:13.000Z</time>
      </trkpt>
      <trkpt lat="45.54972" lon="2.71311">
        <ele>1175</ele>
        <time>2022-07-30T21:23:14.000Z</time>
      </trkpt>
      <trkpt lat="45.5497" lon="2.71304">
        <ele>1175</ele>
        <time>2022-07-30T21:23:15.000Z</time>
      </trkpt>
      <trkpt lat="45.54968" lon="2.71297">
        <ele>1175</ele>
        <time>2022-07-30T21:23:16.000Z</time>
      </trkpt>
      <trkpt lat="45.54966" lon="2.71291">
        <ele>1175</ele>
        <time>2022-07-30T21:23:17.000Z</time>
      </trkpt>
      <trkpt lat="45.54964" lon="2.71284">
        <ele>1175</ele>
        <time>2022-07-30T21:23:18.000Z</time>
      </trkpt>
      <trkpt lat="45.54962" lon="2.71278">
        <ele>1175</ele>
        <time>2022-07-30T21:23:19.000Z</time>
      </trkpt>
      <trkpt lat="45.5496" lon="2.71271">
        <ele>1172</ele>
        <time>2022-07-30T21:23:20.000Z</time>
      </trkpt>
      <trkpt lat="45.54957" lon="2.71265">
        <ele>1172</ele>
        <time>2022-07-30T21:23:21.000Z</time>
      </trkpt>
      <trkpt lat="45.54955" lon="2.71259">
        <ele>1172</ele>
        <time>2022-07-30T21:23:22.000Z</time>
      </trkpt>
      <trkpt lat="45.54953" lon="2.71252">
        <ele>1172</ele>
        <time>2022-07-30T21:23:23.000Z</time>
      </trkpt>
      <trkpt lat="45.5495" lon="2.71246">
        <ele>1172</ele>
        <time>2022-07-30T21:23:24.000Z</time>
      </trkpt>
      <trkpt lat="45.54948" lon="2.7124">
        <ele>1172</ele>
        <time>2022-07-30T21:23:25.000Z</time>
      </trkpt>
      <trkpt lat="45.54945" lon="2.71233">
        <ele>1172</ele>
        <time>2022-07-30T21:23:26.000Z</time>
      </trkpt>
      <trkpt lat="45.54942" lon="2.71227">
        <ele>1172</ele>
        <time>2022-07-30T21:23:27.000Z</time>
      </trkpt>
      <trkpt lat="45.54941" lon="2.7122">
        <ele>1172</ele>
        <time>2022-07-30T21:23:28.000Z</time>
      </trkpt>
      <trkpt lat="45.5494" lon="2.71214">
        <ele>1172</ele>
        <time>2022-07-30T21:23:29.000Z</time>
      </trkpt>
      <trkpt lat="45.54939" lon="2.71207">
        <ele>1172</ele>
        <time>2022-07-30T21:23:30.000Z</time>
      </trkpt>
      <trkpt lat="45.54938" lon="2.712">
        <ele>1172</ele>
        <time>2022-07-30T21:23:31.000Z</time>
      </trkpt>
      <trkpt lat="45.54937" lon="2.71193">
        <ele>1172</ele>
        <time>2022-07-30T21:23:32.000Z</time>
      </trkpt>
      <trkpt lat="45.54936" lon="2.71187">
        <ele>1169</ele>
        <time>2022-07-30T21:23:33.000Z</time>
      </trkpt>
      <trkpt lat="45.54935" lon="2.7118">
        <ele>1169</ele>
        <time>2022-07-30T21:23:34.000Z</time>
      </trkpt>
      <trkpt lat="45.54933" lon="2.71174">
        <ele>1169</ele>
        <time>2022-07-30T21:23:35.000Z</time>
      </trkpt>
      <trkpt lat="45.54932" lon="2.71167">
        <ele>1169</ele>
        <time>2022-07-30T21:23:36.000Z</time>
      </trkpt>
      <trkpt lat="45.5493" lon="2.71161">
        <ele>1169</ele>
        <time>2022-07-30T21:23:37.000Z</time>
      </trkpt>
      <trkpt lat="45.54928" lon="2.71155">
        <ele>1169</ele>
        <time>2022-07-30T21:23:38.000Z</time>
      </trkpt>
      <trkpt lat="45.54927" lon="2.71148">
        <ele>1169</ele>
        <time>2022-07-30T21:23:39.000Z</time>
      </trkpt>
      <trkpt lat="45.54925" lon="2.71141">
        <ele>1169</ele>
        <time>2022-07-30T21:23:40.000Z</time>
      </trkpt>
      <trkpt lat="45.54923" lon="2.71133">
        <ele>1169</ele>
        <time>2022-07-30T21:23:41.000Z</time>
      </trkpt>
      <trkpt lat="45.54921" lon="2.71126">
        <ele>1169</ele>
        <time>2022-07-30T21:23:42.000Z</time>
      </trkpt>
      <trkpt lat="45.54919" lon="2.71118">
        <ele>1169</ele>
        <time>2022-07-30T21:23:43.000Z</time>
      </trkpt>
      <trkpt lat="45.54918" lon="2.71112">
        <ele>1169</ele>
        <time>2022-07-30T21:23:44.000Z</time>
      </trkpt>
      <trkpt lat="45.54917" lon="2.71106">
        <ele>1165</ele>
        <time>2022-07-30T21:23:45.000Z</time>
      </trkpt>
      <trkpt lat="45.54916" lon="2.71099">
        <ele>1165</ele>
        <time>2022-07-30T21:23:46.000Z</time>
      </trkpt>
      <trkpt lat="45.54914" lon="2.71093">
        <ele>1165</ele>
        <time>2022-07-30T21:23:47.000Z</time>
      </trkpt>
      <trkpt lat="45.54914" lon="2.71083">
        <ele>1165</ele>
        <time>2022-07-30T21:23:48.000Z</time>
      </trkpt>
      <trkpt lat="45.54914" lon="2.71074">
        <ele>1165</ele>
        <time>2022-07-30T21:23:49.000Z</time>
      </trkpt>
      <trkpt lat="45.54912" lon="2.71066">
        <ele>1165</ele>
        <time>2022-07-30T21:23:50.000Z</time>
      </trkpt>
      <trkpt lat="45.5491" lon="2.71059">
        <ele>1165</ele>
        <time>2022-07-30T21:23:51.000Z</time>
      </trkpt>
      <trkpt lat="45.54909" lon="2.71051">
        <ele>1165</ele>
        <time>2022-07-30T21:23:52.000Z</time>
      </trkpt>
      <trkpt lat="45.54908" lon="2.71042">
        <ele>1165</ele>
        <time>2022-07-30T21:23:53.000Z</time>
      </trkpt>
      <trkpt lat="45.54907" lon="2.71032">
        <ele>1165</ele>
        <time>2022-07-30T21:23:54.000Z</time>
      </trkpt>
      <trkpt lat="45.54906" lon="2.71026">
        <ele>1165</ele>
        <time>2022-07-30T21:23:55.000Z</time>
      </trkpt>
      <trkpt lat="45.54905" lon="2.71019">
        <ele>1165</ele>
        <time>2022-07-30T21:23:56.000Z</time>
      </trkpt>
      <trkpt lat="45.54905" lon="2.71012">
        <ele>1165</ele>
        <time>2022-07-30T21:23:57.000Z</time>
      </trkpt>
      <trkpt lat="45.54904" lon="2.71006">
        <ele>1159</ele>
        <time>2022-07-30T21:23:58.000Z</time>
      </trkpt>
      <trkpt lat="45.54904" lon="2.70999">
        <ele>1159</ele>
        <time>2022-07-30T21:23:59.000Z</time>
      </trkpt>
      <trkpt lat="45.54903" lon="2.70992">
        <ele>1159</ele>
        <time>2022-07-30T21:24:00.000Z</time>
      </trkpt>
      <trkpt lat="45.54902" lon="2.70986">
        <ele>1159</ele>
        <time>2022-07-30T21:24:01.000Z</time>
      </trkpt>
      <trkpt lat="45.54901" lon="2.70979">
        <ele>1159</ele>
        <time>2022-07-30T21:24:02.000Z</time>
      </trkpt>
      <trkpt lat="45.549" lon="2.70973">
        <ele>1159</ele>
        <time>2022-07-30T21:24:03.000Z</time>
      </trkpt>
      <trkpt lat="45.54898" lon="2.70967">
        <ele>1163</ele>
        <time>2022-07-30T21:24:04.000Z</time>
      </trkpt>
      <trkpt lat="45.54897" lon="2.7096">
        <ele>1163</ele>
        <time>2022-07-30T21:24:05.000Z</time>
      </trkpt>
      <trkpt lat="45.54895" lon="2.70954">
        <ele>1163</ele>
        <time>2022-07-30T21:24:06.000Z</time>
      </trkpt>
      <trkpt lat="45.54893" lon="2.70947">
        <ele>1163</ele>
        <time>2022-07-30T21:24:07.000Z</time>
      </trkpt>
      <trkpt lat="45.54891" lon="2.7094">
        <ele>1163</ele>
        <time>2022-07-30T21:24:08.000Z</time>
      </trkpt>
      <trkpt lat="45.54888" lon="2.70933">
        <ele>1163</ele>
        <time>2022-07-30T21:24:09.000Z</time>
      </trkpt>
      <trkpt lat="45.54886" lon="2.70926">
        <ele>1158</ele>
        <time>2022-07-30T21:24:10.000Z</time>
      </trkpt>
      <trkpt lat="45.54884" lon="2.70919">
        <ele>1158</ele>
        <time>2022-07-30T21:24:11.000Z</time>
      </trkpt>
      <trkpt lat="45.54882" lon="2.70912">
        <ele>1158</ele>
        <time>2022-07-30T21:24:12.000Z</time>
      </trkpt>
      <trkpt lat="45.5488" lon="2.70905">
        <ele>1158</ele>
        <time>2022-07-30T21:24:13.000Z</time>
      </trkpt>
      <trkpt lat="45.54878" lon="2.70898">
        <ele>1158</ele>
        <time>2022-07-30T21:24:14.000Z</time>
      </trkpt>
      <trkpt lat="45.54876" lon="2.70892">
        <ele>1158</ele>
        <time>2022-07-30T21:24:15.000Z</time>
      </trkpt>
      <trkpt lat="45.54874" lon="2.70885">
        <ele>1158</ele>
        <time>2022-07-30T21:24:16.000Z</time>
      </trkpt>
      <trkpt lat="45.54872" lon="2.70879">
        <ele>1158</ele>
        <time>2022-07-30T21:24:17.000Z</time>
      </trkpt>
      <trkpt lat="45.5487" lon="2.70872">
        <ele>1158</ele>
        <time>2022-07-30T21:24:18.000Z</time>
      </trkpt>
      <trkpt lat="45.54868" lon="2.70867">
        <ele>1158</ele>
        <time>2022-07-30T21:24:19.000Z</time>
      </trkpt>
      <trkpt lat="45.54865" lon="2.70861">
        <ele>1158</ele>
        <time>2022-07-30T21:24:20.000Z</time>
      </trkpt>
      <trkpt lat="45.54863" lon="2.70855">
        <ele>1158</ele>
        <time>2022-07-30T21:24:21.000Z</time>
      </trkpt>
      <trkpt lat="45.54861" lon="2.7085">
        <ele>1158</ele>
        <time>2022-07-30T21:24:22.000Z</time>
      </trkpt>
      <trkpt lat="45.54858" lon="2.70844">
        <ele>1152</ele>
        <time>2022-07-30T21:24:23.000Z</time>
      </trkpt>
      <trkpt lat="45.54856" lon="2.70839">
        <ele>1152</ele>
        <time>2022-07-30T21:24:24.000Z</time>
      </trkpt>
      <trkpt lat="45.54852" lon="2.70833">
        <ele>1152</ele>
        <time>2022-07-30T21:24:25.000Z</time>
      </trkpt>
      <trkpt lat="45.54849" lon="2.70827">
        <ele>1152</ele>
        <time>2022-07-30T21:24:26.000Z</time>
      </trkpt>
      <trkpt lat="45.54846" lon="2.70821">
        <ele>1152</ele>
        <time>2022-07-30T21:24:27.000Z</time>
      </trkpt>
      <trkpt lat="45.54843" lon="2.70815">
        <ele>1152</ele>
        <time>2022-07-30T21:24:28.000Z</time>
      </trkpt>
      <trkpt lat="45.5484" lon="2.70809">
        <ele>1152</ele>
        <time>2022-07-30T21:24:29.000Z</time>
      </trkpt>
      <trkpt lat="45.54835" lon="2.70807">
        <ele>1152</ele>
        <time>2022-07-30T21:24:30.000Z</time>
      </trkpt>
      <trkpt lat="45.5483" lon="2.70805">
        <ele>1152</ele>
        <time>2022-07-30T21:24:31.000Z</time>
      </trkpt>
      <trkpt lat="45.54826" lon="2.70805">
        <ele>1152</ele>
        <time>2022-07-30T21:24:32.000Z</time>
      </trkpt>
      <trkpt lat="45.54823" lon="2.70805">
        <ele>1152</ele>
        <time>2022-07-30T21:24:33.000Z</time>
      </trkpt>
      <trkpt lat="45.54819" lon="2.70805">
        <ele>1152</ele>
        <time>2022-07-30T21:24:34.000Z</time>
      </trkpt>
      <trkpt lat="45.54815" lon="2.70805">
        <ele>1152</ele>
        <time>2022-07-30T21:24:35.000Z</time>
      </trkpt>
      <trkpt lat="45.54812" lon="2.70805">
        <ele>1148</ele>
        <time>2022-07-30T21:24:36.000Z</time>
      </trkpt>
      <trkpt lat="45.54807" lon="2.70803">
        <ele>1148</ele>
        <time>2022-07-30T21:24:37.000Z</time>
      </trkpt>
      <trkpt lat="45.54801" lon="2.70801">
        <ele>1148</ele>
        <time>2022-07-30T21:24:38.000Z</time>
      </trkpt>
      <trkpt lat="45.54796" lon="2.708">
        <ele>1148</ele>
        <time>2022-07-30T21:24:39.000Z</time>
      </trkpt>
      <trkpt lat="45.54791" lon="2.70798">
        <ele>1148</ele>
        <time>2022-07-30T21:24:40.000Z</time>
      </trkpt>
      <trkpt lat="45.54786" lon="2.70796">
        <ele>1148</ele>
        <time>2022-07-30T21:24:41.000Z</time>
      </trkpt>
      <trkpt lat="45.54781" lon="2.70794">
        <ele>1148</ele>
        <time>2022-07-30T21:24:42.000Z</time>
      </trkpt>
      <trkpt lat="45.54777" lon="2.70793">
        <ele>1148</ele>
        <time>2022-07-30T21:24:43.000Z</time>
      </trkpt>
      <trkpt lat="45.54772" lon="2.70792">
        <ele>1148</ele>
        <time>2022-07-30T21:24:44.000Z</time>
      </trkpt>
      <trkpt lat="45.54767" lon="2.70791">
        <ele>1148</ele>
        <time>2022-07-30T21:24:45.000Z</time>
      </trkpt>
      <trkpt lat="45.54763" lon="2.7079">
        <ele>1148</ele>
        <time>2022-07-30T21:24:46.000Z</time>
      </trkpt>
      <trkpt lat="45.54758" lon="2.70789">
        <ele>1148</ele>
        <time>2022-07-30T21:24:47.000Z</time>
      </trkpt>
      <trkpt lat="45.54753" lon="2.70791">
        <ele>1138</ele>
        <time>2022-07-30T21:24:48.000Z</time>
      </trkpt>
      <trkpt lat="45.54749" lon="2.70793">
        <ele>1138</ele>
        <time>2022-07-30T21:24:49.000Z</time>
      </trkpt>
      <trkpt lat="45.54744" lon="2.70795">
        <ele>1138</ele>
        <time>2022-07-30T21:24:50.000Z</time>
      </trkpt>
      <trkpt lat="45.54739" lon="2.70798">
        <ele>1138</ele>
        <time>2022-07-30T21:24:51.000Z</time>
      </trkpt>
      <trkpt lat="45.54734" lon="2.70801">
        <ele>1138</ele>
        <time>2022-07-30T21:24:52.000Z</time>
      </trkpt>
      <trkpt lat="45.5473" lon="2.70804">
        <ele>1138</ele>
        <time>2022-07-30T21:24:53.000Z</time>
      </trkpt>
      <trkpt lat="45.54725" lon="2.70807">
        <ele>1138</ele>
        <time>2022-07-30T21:24:54.000Z</time>
      </trkpt>
      <trkpt lat="45.5472" lon="2.70813">
        <ele>1138</ele>
        <time>2022-07-30T21:24:55.000Z</time>
      </trkpt>
      <trkpt lat="45.54715" lon="2.70818">
        <ele>1138</ele>
        <time>2022-07-30T21:24:56.000Z</time>
      </trkpt>
      <trkpt lat="45.54711" lon="2.70823">
        <ele>1138</ele>
        <time>2022-07-30T21:24:57.000Z</time>
      </trkpt>
      <trkpt lat="45.54706" lon="2.70827">
        <ele>1138</ele>
        <time>2022-07-30T21:24:58.000Z</time>
      </trkpt>
      <trkpt lat="45.54701" lon="2.7083">
        <ele>1138</ele>
        <time>2022-07-30T21:24:59.000Z</time>
      </trkpt>
      <trkpt lat="45.54696" lon="2.7083">
        <ele>1127</ele>
        <time>2022-07-30T21:25:00.000Z</time>
      </trkpt>
      <trkpt lat="45.54691" lon="2.70829">
        <ele>1127</ele>
        <time>2022-07-30T21:25:01.000Z</time>
      </trkpt>
      <trkpt lat="45.54686" lon="2.70827">
        <ele>1127</ele>
        <time>2022-07-30T21:25:02.000Z</time>
      </trkpt>
      <trkpt lat="45.54682" lon="2.70825">
        <ele>1127</ele>
        <time>2022-07-30T21:25:03.000Z</time>
      </trkpt>
      <trkpt lat="45.54677" lon="2.70823">
        <ele>1127</ele>
        <time>2022-07-30T21:25:04.000Z</time>
      </trkpt>
      <trkpt lat="45.54672" lon="2.7082">
        <ele>1127</ele>
        <time>2022-07-30T21:25:05.000Z</time>
      </trkpt>
      <trkpt lat="45.54668" lon="2.70816">
        <ele>1127</ele>
        <time>2022-07-30T21:25:06.000Z</time>
      </trkpt>
      <trkpt lat="45.54664" lon="2.70812">
        <ele>1127</ele>
        <time>2022-07-30T21:25:07.000Z</time>
      </trkpt>
      <trkpt lat="45.54661" lon="2.70807">
        <ele>1127</ele>
        <time>2022-07-30T21:25:08.000Z</time>
      </trkpt>
      <trkpt lat="45.54657" lon="2.70803">
        <ele>1127</ele>
        <time>2022-07-30T21:25:09.000Z</time>
      </trkpt>
      <trkpt lat="45.54653" lon="2.70799">
        <ele>1127</ele>
        <time>2022-07-30T21:25:10.000Z</time>
      </trkpt>
      <trkpt lat="45.54652" lon="2.70792">
        <ele>1127</ele>
        <time>2022-07-30T21:25:11.000Z</time>
      </trkpt>
      <trkpt lat="45.54651" lon="2.70786">
        <ele>1127</ele>
        <time>2022-07-30T21:25:12.000Z</time>
      </trkpt>
      <trkpt lat="45.5465" lon="2.7078">
        <ele>1127</ele>
        <time>2022-07-30T21:25:13.000Z</time>
      </trkpt>
      <trkpt lat="45.54649" lon="2.70773">
        <ele>1127</ele>
        <time>2022-07-30T21:25:14.000Z</time>
      </trkpt>
      <trkpt lat="45.54649" lon="2.70766">
        <ele>1107</ele>
        <time>2022-07-30T21:25:15.000Z</time>
      </trkpt>
      <trkpt lat="45.54649" lon="2.7076">
        <ele>1107</ele>
        <time>2022-07-30T21:25:16.000Z</time>
      </trkpt>
      <trkpt lat="45.54649" lon="2.70753">
        <ele>1107</ele>
        <time>2022-07-30T21:25:17.000Z</time>
      </trkpt>
      <trkpt lat="45.54649" lon="2.70746">
        <ele>1107</ele>
        <time>2022-07-30T21:25:18.000Z</time>
      </trkpt>
      <trkpt lat="45.54649" lon="2.70739">
        <ele>1107</ele>
        <time>2022-07-30T21:25:19.000Z</time>
      </trkpt>
      <trkpt lat="45.5465" lon="2.70733">
        <ele>1107</ele>
        <time>2022-07-30T21:25:20.000Z</time>
      </trkpt>
      <trkpt lat="45.54651" lon="2.70726">
        <ele>1107</ele>
        <time>2022-07-30T21:25:21.000Z</time>
      </trkpt>
      <trkpt lat="45.54653" lon="2.7072">
        <ele>1107</ele>
        <time>2022-07-30T21:25:22.000Z</time>
      </trkpt>
      <trkpt lat="45.54654" lon="2.70713">
        <ele>1107</ele>
        <time>2022-07-30T21:25:23.000Z</time>
      </trkpt>
      <trkpt lat="45.54655" lon="2.70707">
        <ele>1107</ele>
        <time>2022-07-30T21:25:24.000Z</time>
      </trkpt>
      <trkpt lat="45.54656" lon="2.70699">
        <ele>1107</ele>
        <time>2022-07-30T21:25:25.000Z</time>
      </trkpt>
      <trkpt lat="45.54656" lon="2.70691">
        <ele>1107</ele>
        <time>2022-07-30T21:25:26.000Z</time>
      </trkpt>
      <trkpt lat="45.54657" lon="2.70683">
        <ele>1107</ele>
        <time>2022-07-30T21:25:27.000Z</time>
      </trkpt>
      <trkpt lat="45.54658" lon="2.70674">
        <ele>1104</ele>
        <time>2022-07-30T21:25:28.000Z</time>
      </trkpt>
      <trkpt lat="45.54658" lon="2.70666">
        <ele>1104</ele>
        <time>2022-07-30T21:25:29.000Z</time>
      </trkpt>
      <trkpt lat="45.54659" lon="2.70657">
        <ele>1104</ele>
        <time>2022-07-30T21:25:30.000Z</time>
      </trkpt>
      <trkpt lat="45.54657" lon="2.7065">
        <ele>1104</ele>
        <time>2022-07-30T21:25:31.000Z</time>
      </trkpt>
      <trkpt lat="45.54655" lon="2.70643">
        <ele>1104</ele>
        <time>2022-07-30T21:25:32.000Z</time>
      </trkpt>
      <trkpt lat="45.54657" lon="2.70631">
        <ele>1104</ele>
        <time>2022-07-30T21:25:33.000Z</time>
      </trkpt>
      <trkpt lat="45.54656" lon="2.70624">
        <ele>1104</ele>
        <time>2022-07-30T21:25:34.000Z</time>
      </trkpt>
      <trkpt lat="45.54655" lon="2.70616">
        <ele>1104</ele>
        <time>2022-07-30T21:25:35.000Z</time>
      </trkpt>
      <trkpt lat="45.54655" lon="2.70609">
        <ele>1104</ele>
        <time>2022-07-30T21:25:36.000Z</time>
      </trkpt>
      <trkpt lat="45.54654" lon="2.70602">
        <ele>1104</ele>
        <time>2022-07-30T21:25:37.000Z</time>
      </trkpt>
      <trkpt lat="45.54655" lon="2.70594">
        <ele>1104</ele>
        <time>2022-07-30T21:25:38.000Z</time>
      </trkpt>
      <trkpt lat="45.54655" lon="2.70586">
        <ele>1104</ele>
        <time>2022-07-30T21:25:39.000Z</time>
      </trkpt>
      <trkpt lat="45.54656" lon="2.70578">
        <ele>1104</ele>
        <time>2022-07-30T21:25:40.000Z</time>
      </trkpt>
      <trkpt lat="45.54659" lon="2.70573">
        <ele>1104</ele>
        <time>2022-07-30T21:25:41.000Z</time>
      </trkpt>
      <trkpt lat="45.54661" lon="2.70568">
        <ele>1104</ele>
        <time>2022-07-30T21:25:42.000Z</time>
      </trkpt>
      <trkpt lat="45.54664" lon="2.70562">
        <ele>1104</ele>
        <time>2022-07-30T21:25:43.000Z</time>
      </trkpt>
      <trkpt lat="45.54667" lon="2.70557">
        <ele>1104</ele>
        <time>2022-07-30T21:25:44.000Z</time>
      </trkpt>
      <trkpt lat="45.5467" lon="2.70552">
        <ele>1104</ele>
        <time>2022-07-30T21:25:45.000Z</time>
      </trkpt>
      <trkpt lat="45.54672" lon="2.70546">
        <ele>1096</ele>
        <time>2022-07-30T21:25:46.000Z</time>
      </trkpt>
      <trkpt lat="45.54675" lon="2.70541">
        <ele>1096</ele>
        <time>2022-07-30T21:25:47.000Z</time>
      </trkpt>
      <trkpt lat="45.54678" lon="2.70536">
        <ele>1096</ele>
        <time>2022-07-30T21:25:48.000Z</time>
      </trkpt>
      <trkpt lat="45.54681" lon="2.7053">
        <ele>1096</ele>
        <time>2022-07-30T21:25:49.000Z</time>
      </trkpt>
      <trkpt lat="45.54684" lon="2.70525">
        <ele>1096</ele>
        <time>2022-07-30T21:25:50.000Z</time>
      </trkpt>
      <trkpt lat="45.54685" lon="2.70518">
        <ele>1096</ele>
        <time>2022-07-30T21:25:51.000Z</time>
      </trkpt>
      <trkpt lat="45.54686" lon="2.70512">
        <ele>1096</ele>
        <time>2022-07-30T21:25:52.000Z</time>
      </trkpt>
      <trkpt lat="45.54686" lon="2.70506">
        <ele>1096</ele>
        <time>2022-07-30T21:25:53.000Z</time>
      </trkpt>
      <trkpt lat="45.54687" lon="2.70499">
        <ele>1096</ele>
        <time>2022-07-30T21:25:54.000Z</time>
      </trkpt>
      <trkpt lat="45.54686" lon="2.70492">
        <ele>1096</ele>
        <time>2022-07-30T21:25:55.000Z</time>
      </trkpt>
      <trkpt lat="45.54686" lon="2.70484">
        <ele>1096</ele>
        <time>2022-07-30T21:25:56.000Z</time>
      </trkpt>
      <trkpt lat="45.54685" lon="2.70477">
        <ele>1096</ele>
        <time>2022-07-30T21:25:57.000Z</time>
      </trkpt>
      <trkpt lat="45.54684" lon="2.70469">
        <ele>1096</ele>
        <time>2022-07-30T21:25:58.000Z</time>
      </trkpt>
      <trkpt lat="45.54684" lon="2.70462">
        <ele>1096</ele>
        <time>2022-07-30T21:25:59.000Z</time>
      </trkpt>
      <trkpt lat="45.54683" lon="2.70455">
        <ele>1096</ele>
        <time>2022-07-30T21:26:00.000Z</time>
      </trkpt>
      <trkpt lat="45.54683" lon="2.70449">
        <ele>1096</ele>
        <time>2022-07-30T21:26:01.000Z</time>
      </trkpt>
      <trkpt lat="45.54682" lon="2.70442">
        <ele>1096</ele>
        <time>2022-07-30T21:26:02.000Z</time>
      </trkpt>
      <trkpt lat="45.54682" lon="2.70436">
        <ele>1096</ele>
        <time>2022-07-30T21:26:03.000Z</time>
      </trkpt>
      <trkpt lat="45.54681" lon="2.70429">
        <ele>1096</ele>
        <time>2022-07-30T21:26:04.000Z</time>
      </trkpt>
      <trkpt lat="45.54681" lon="2.70423">
        <ele>1096</ele>
        <time>2022-07-30T21:26:05.000Z</time>
      </trkpt>
      <trkpt lat="45.5468" lon="2.70416">
        <ele>1096</ele>
        <time>2022-07-30T21:26:06.000Z</time>
      </trkpt>
      <trkpt lat="45.5468" lon="2.7041">
        <ele>1096</ele>
        <time>2022-07-30T21:26:07.000Z</time>
      </trkpt>
      <trkpt lat="45.5468" lon="2.70403">
        <ele>1096</ele>
        <time>2022-07-30T21:26:08.000Z</time>
      </trkpt>
      <trkpt lat="45.5468" lon="2.70397">
        <ele>1088</ele>
        <time>2022-07-30T21:26:09.000Z</time>
      </trkpt>
      <trkpt lat="45.54679" lon="2.70391">
        <ele>1088</ele>
        <time>2022-07-30T21:26:10.000Z</time>
      </trkpt>
      <trkpt lat="45.54679" lon="2.70384">
        <ele>1088</ele>
        <time>2022-07-30T21:26:11.000Z</time>
      </trkpt>
      <trkpt lat="45.54679" lon="2.70378">
        <ele>1088</ele>
        <time>2022-07-30T21:26:12.000Z</time>
      </trkpt>
      <trkpt lat="45.54679" lon="2.70371">
        <ele>1088</ele>
        <time>2022-07-30T21:26:13.000Z</time>
      </trkpt>
      <trkpt lat="45.54678" lon="2.70365">
        <ele>1088</ele>
        <time>2022-07-30T21:26:14.000Z</time>
      </trkpt>
      <trkpt lat="45.54678" lon="2.70358">
        <ele>1088</ele>
        <time>2022-07-30T21:26:15.000Z</time>
      </trkpt>
      <trkpt lat="45.54678" lon="2.70352">
        <ele>1088</ele>
        <time>2022-07-30T21:26:16.000Z</time>
      </trkpt>
      <trkpt lat="45.54678" lon="2.70345">
        <ele>1088</ele>
        <time>2022-07-30T21:26:17.000Z</time>
      </trkpt>
      <trkpt lat="45.54677" lon="2.70339">
        <ele>1088</ele>
        <time>2022-07-30T21:26:18.000Z</time>
      </trkpt>
      <trkpt lat="45.54677" lon="2.70332">
        <ele>1088</ele>
        <time>2022-07-30T21:26:19.000Z</time>
      </trkpt>
      <trkpt lat="45.54677" lon="2.70326">
        <ele>1088</ele>
        <time>2022-07-30T21:26:20.000Z</time>
      </trkpt>
      <trkpt lat="45.54677" lon="2.70322">
        <ele>1081</ele>
        <time>2022-07-30T21:26:21.000Z</time>
      </trkpt>
      <trkpt lat="45.54677" lon="2.70315">
        <ele>1081</ele>
        <time>2022-07-30T21:26:22.000Z</time>
      </trkpt>
      <trkpt lat="45.54676" lon="2.70308">
        <ele>1081</ele>
        <time>2022-07-30T21:26:23.000Z</time>
      </trkpt>
      <trkpt lat="45.54676" lon="2.70301">
        <ele>1081</ele>
        <time>2022-07-30T21:26:24.000Z</time>
      </trkpt>
      <trkpt lat="45.54676" lon="2.70295">
        <ele>1081</ele>
        <time>2022-07-30T21:26:25.000Z</time>
      </trkpt>
      <trkpt lat="45.54676" lon="2.70288">
        <ele>1081</ele>
        <time>2022-07-30T21:26:26.000Z</time>
      </trkpt>
      <trkpt lat="45.54676" lon="2.70281">
        <ele>1081</ele>
        <time>2022-07-30T21:26:27.000Z</time>
      </trkpt>
      <trkpt lat="45.54676" lon="2.70274">
        <ele>1081</ele>
        <time>2022-07-30T21:26:28.000Z</time>
      </trkpt>
      <trkpt lat="45.54676" lon="2.70267">
        <ele>1081</ele>
        <time>2022-07-30T21:26:29.000Z</time>
      </trkpt>
      <trkpt lat="45.54676" lon="2.70259">
        <ele>1081</ele>
        <time>2022-07-30T21:26:30.000Z</time>
      </trkpt>
      <trkpt lat="45.54676" lon="2.70251">
        <ele>1081</ele>
        <time>2022-07-30T21:26:31.000Z</time>
      </trkpt>
      <trkpt lat="45.54676" lon="2.70243">
        <ele>1081</ele>
        <time>2022-07-30T21:26:32.000Z</time>
      </trkpt>
      <trkpt lat="45.54676" lon="2.70235">
        <ele>1081</ele>
        <time>2022-07-30T21:26:33.000Z</time>
      </trkpt>
      <trkpt lat="45.54676" lon="2.70225">
        <ele>1074</ele>
        <time>2022-07-30T21:26:34.000Z</time>
      </trkpt>
      <trkpt lat="45.54676" lon="2.70219">
        <ele>1074</ele>
        <time>2022-07-30T21:26:35.000Z</time>
      </trkpt>
      <trkpt lat="45.54675" lon="2.70216">
        <ele>1074</ele>
        <time>2022-07-30T21:26:36.000Z</time>
      </trkpt>
      <trkpt lat="45.54668" lon="2.70214">
        <ele>1074</ele>
        <time>2022-07-30T21:26:37.000Z</time>
      </trkpt>
      <trkpt lat="45.54663" lon="2.70216">
        <ele>1074</ele>
        <time>2022-07-30T21:26:38.000Z</time>
      </trkpt>
      <trkpt lat="45.54656" lon="2.70219">
        <ele>1074</ele>
        <time>2022-07-30T21:26:39.000Z</time>
      </trkpt>
      <trkpt lat="45.54648" lon="2.70223">
        <ele>1074</ele>
        <time>2022-07-30T21:26:40.000Z</time>
      </trkpt>
      <trkpt lat="45.54641" lon="2.70229">
        <ele>1074</ele>
        <time>2022-07-30T21:26:41.000Z</time>
      </trkpt>
      <trkpt lat="45.54636" lon="2.70232">
        <ele>1074</ele>
        <time>2022-07-30T21:26:42.000Z</time>
      </trkpt>
      <trkpt lat="45.54631" lon="2.70234">
        <ele>1074</ele>
        <time>2022-07-30T21:26:43.000Z</time>
      </trkpt>
      <trkpt lat="45.54625" lon="2.70237">
        <ele>1074</ele>
        <time>2022-07-30T21:26:44.000Z</time>
      </trkpt>
      <trkpt lat="45.5462" lon="2.7024">
        <ele>1074</ele>
        <time>2022-07-30T21:26:45.000Z</time>
      </trkpt>
      <trkpt lat="45.54614" lon="2.70243">
        <ele>1074</ele>
        <time>2022-07-30T21:26:46.000Z</time>
      </trkpt>
      <trkpt lat="45.54609" lon="2.70246">
        <ele>1074</ele>
        <time>2022-07-30T21:26:47.000Z</time>
      </trkpt>
      <trkpt lat="45.54604" lon="2.70248">
        <ele>1074</ele>
        <time>2022-07-30T21:26:48.000Z</time>
      </trkpt>
      <trkpt lat="45.546" lon="2.70249">
        <ele>1069</ele>
        <time>2022-07-30T21:26:49.000Z</time>
      </trkpt>
      <trkpt lat="45.54592" lon="2.70253">
        <ele>1069</ele>
        <time>2022-07-30T21:26:50.000Z</time>
      </trkpt>
      <trkpt lat="45.54585" lon="2.70256">
        <ele>1069</ele>
        <time>2022-07-30T21:26:51.000Z</time>
      </trkpt>
      <trkpt lat="45.54581" lon="2.70258">
        <ele>1069</ele>
        <time>2022-07-30T21:26:52.000Z</time>
      </trkpt>
      <trkpt lat="45.54578" lon="2.70258">
        <ele>1069</ele>
        <time>2022-07-30T21:26:53.000Z</time>
      </trkpt>
      <trkpt lat="45.54573" lon="2.70258">
        <ele>1069</ele>
        <time>2022-07-30T21:26:54.000Z</time>
      </trkpt>
      <trkpt lat="45.54568" lon="2.70252">
        <ele>1069</ele>
        <time>2022-07-30T21:26:55.000Z</time>
      </trkpt>
      <trkpt lat="45.54565" lon="2.70244">
        <ele>1069</ele>
        <time>2022-07-30T21:26:56.000Z</time>
      </trkpt>
      <trkpt lat="45.5456" lon="2.70238">
        <ele>1069</ele>
        <time>2022-07-30T21:26:57.000Z</time>
      </trkpt>
      <trkpt lat="45.54555" lon="2.70234">
        <ele>1069</ele>
        <time>2022-07-30T21:26:58.000Z</time>
      </trkpt>
      <trkpt lat="45.5455" lon="2.70229">
        <ele>1069</ele>
        <time>2022-07-30T21:26:59.000Z</time>
      </trkpt>
      <trkpt lat="45.54545" lon="2.70224">
        <ele>1069</ele>
        <time>2022-07-30T21:27:00.000Z</time>
      </trkpt>
      <trkpt lat="45.54539" lon="2.70219">
        <ele>1067</ele>
        <time>2022-07-30T21:27:01.000Z</time>
      </trkpt>
      <trkpt lat="45.54535" lon="2.70213">
        <ele>1067</ele>
        <time>2022-07-30T21:27:02.000Z</time>
      </trkpt>
      <trkpt lat="45.5453" lon="2.70208">
        <ele>1067</ele>
        <time>2022-07-30T21:27:03.000Z</time>
      </trkpt>
      <trkpt lat="45.54525" lon="2.70202">
        <ele>1067</ele>
        <time>2022-07-30T21:27:04.000Z</time>
      </trkpt>
      <trkpt lat="45.5452" lon="2.70196">
        <ele>1067</ele>
        <time>2022-07-30T21:27:05.000Z</time>
      </trkpt>
      <trkpt lat="45.54515" lon="2.70191">
        <ele>1067</ele>
        <time>2022-07-30T21:27:06.000Z</time>
      </trkpt>
      <trkpt lat="45.5451" lon="2.70186">
        <ele>1067</ele>
        <time>2022-07-30T21:27:07.000Z</time>
      </trkpt>
      <trkpt lat="45.54506" lon="2.70181">
        <ele>1067</ele>
        <time>2022-07-30T21:27:08.000Z</time>
      </trkpt>
      <trkpt lat="45.54501" lon="2.70177">
        <ele>1067</ele>
        <time>2022-07-30T21:27:09.000Z</time>
      </trkpt>
      <trkpt lat="45.54497" lon="2.70172">
        <ele>1067</ele>
        <time>2022-07-30T21:27:10.000Z</time>
      </trkpt>
      <trkpt lat="45.54492" lon="2.70167">
        <ele>1067</ele>
        <time>2022-07-30T21:27:11.000Z</time>
      </trkpt>
      <trkpt lat="45.54488" lon="2.70162">
        <ele>1067</ele>
        <time>2022-07-30T21:27:12.000Z</time>
      </trkpt>
      <trkpt lat="45.54483" lon="2.70158">
        <ele>1065</ele>
        <time>2022-07-30T21:27:13.000Z</time>
      </trkpt>
      <trkpt lat="45.54478" lon="2.70154">
        <ele>1065</ele>
        <time>2022-07-30T21:27:14.000Z</time>
      </trkpt>
      <trkpt lat="45.54474" lon="2.7015">
        <ele>1065</ele>
        <time>2022-07-30T21:27:15.000Z</time>
      </trkpt>
      <trkpt lat="45.54469" lon="2.70147">
        <ele>1065</ele>
        <time>2022-07-30T21:27:16.000Z</time>
      </trkpt>
      <trkpt lat="45.54467" lon="2.70144">
        <ele>1065</ele>
        <time>2022-07-30T21:27:17.000Z</time>
      </trkpt>
      <trkpt lat="45.54466" lon="2.70144">
        <ele>1065</ele>
        <time>2022-07-30T21:27:18.000Z</time>
      </trkpt>
      <trkpt lat="45.54465" lon="2.70143">
        <ele>1065</ele>
        <time>2022-07-30T21:27:19.000Z</time>
      </trkpt>
      <trkpt lat="45.54463" lon="2.70142">
        <ele>1065</ele>
        <time>2022-07-30T21:27:20.000Z</time>
      </trkpt>
      <trkpt lat="45.5446" lon="2.70141">
        <ele>1065</ele>
        <time>2022-07-30T21:27:21.000Z</time>
      </trkpt>
      <trkpt lat="45.5446" lon="2.70141">
        <ele>1065</ele>
        <time>2022-07-30T21:27:22.000Z</time>
      </trkpt>
      <trkpt lat="45.54457" lon="2.70139">
        <ele>1065</ele>
        <time>2022-07-30T21:27:23.000Z</time>
      </trkpt>
      <trkpt lat="45.54454" lon="2.70139">
        <ele>1063</ele>
        <time>2022-07-30T21:27:24.000Z</time>
      </trkpt>
      <trkpt lat="45.54449" lon="2.7014">
        <ele>1063</ele>
        <time>2022-07-30T21:27:25.000Z</time>
      </trkpt>
      <trkpt lat="45.54445" lon="2.70141">
        <ele>1063</ele>
        <time>2022-07-30T21:27:26.000Z</time>
      </trkpt>
      <trkpt lat="45.54445" lon="2.70141">
        <ele>1063</ele>
        <time>2022-07-30T21:27:27.000Z</time>
      </trkpt>
      <trkpt lat="45.54444" lon="2.70144">
        <ele>1063</ele>
        <time>2022-07-30T21:27:28.000Z</time>
      </trkpt>
      <trkpt lat="45.5444" lon="2.70144">
        <ele>1063</ele>
        <time>2022-07-30T21:27:29.000Z</time>
      </trkpt>
      <trkpt lat="45.54435" lon="2.70143">
        <ele>1067.9</ele>
        <time>2022-07-30T21:27:30.000Z</time>
      </trkpt>
      <trkpt lat="45.54431" lon="2.70143">
        <ele>1063</ele>
        <time>2022-07-30T21:27:31.000Z</time>
      </trkpt>
      <trkpt lat="45.54426" lon="2.70143">
        <ele>1067.5</ele>
        <time>2022-07-30T21:27:32.000Z</time>
      </trkpt>
      <trkpt lat="45.54422" lon="2.70142">
        <ele>1063</ele>
        <time>2022-07-30T21:27:33.000Z</time>
      </trkpt>
      <trkpt lat="45.54417" lon="2.70142">
        <ele>1067.1</ele>
        <time>2022-07-30T21:27:34.000Z</time>
      </trkpt>
      <trkpt lat="45.54413" lon="2.70142">
        <ele>1066.7</ele>
        <time>2022-07-30T21:27:35.000Z</time>
      </trkpt>
      <trkpt lat="45.54408" lon="2.70141">
        <ele>1063</ele>
        <time>2022-07-30T21:27:36.000Z</time>
      </trkpt>
      <trkpt lat="45.54403" lon="2.70141">
        <ele>1066.3</ele>
        <time>2022-07-30T21:27:37.000Z</time>
      </trkpt>
      <trkpt lat="45.54398" lon="2.70141">
        <ele>1063</ele>
        <time>2022-07-30T21:27:38.000Z</time>
      </trkpt>
      <trkpt lat="45.54394" lon="2.7014">
        <ele>1065.9</ele>
        <time>2022-07-30T21:27:39.000Z</time>
      </trkpt>
      <trkpt lat="45.54389" lon="2.7014">
        <ele>1054</ele>
        <time>2022-07-30T21:27:40.000Z</time>
      </trkpt>
      <trkpt lat="45.54384" lon="2.7014">
        <ele>1065.5</ele>
        <time>2022-07-30T21:27:41.000Z</time>
      </trkpt>
      <trkpt lat="45.54379" lon="2.70139">
        <ele>1054</ele>
        <time>2022-07-30T21:27:42.000Z</time>
      </trkpt>
      <trkpt lat="45.54375" lon="2.70136">
        <ele>1054</ele>
        <time>2022-07-30T21:27:43.000Z</time>
      </trkpt>
      <trkpt lat="45.54371" lon="2.70133">
        <ele>1065.1</ele>
        <time>2022-07-30T21:27:44.000Z</time>
      </trkpt>
      <trkpt lat="45.54366" lon="2.7013">
        <ele>1054</ele>
        <time>2022-07-30T21:27:45.000Z</time>
      </trkpt>
      <trkpt lat="45.54362" lon="2.70127">
        <ele>1064.9</ele>
        <time>2022-07-30T21:27:46.000Z</time>
      </trkpt>
      <trkpt lat="45.54358" lon="2.70124">
        <ele>1054</ele>
        <time>2022-07-30T21:27:47.000Z</time>
      </trkpt>
      <trkpt lat="45.54353" lon="2.70121">
        <ele>1054</ele>
        <time>2022-07-30T21:27:48.000Z</time>
      </trkpt>
      <trkpt lat="45.54349" lon="2.70118">
        <ele>1064.7</ele>
        <time>2022-07-30T21:27:49.000Z</time>
      </trkpt>
      <trkpt lat="45.54345" lon="2.70115">
        <ele>1054</ele>
        <time>2022-07-30T21:27:50.000Z</time>
      </trkpt>
      <trkpt lat="45.54341" lon="2.70112">
        <ele>1058</ele>
        <time>2022-07-30T21:27:51.000Z</time>
      </trkpt>
      <trkpt lat="45.54337" lon="2.70109">
        <ele>1064.2</ele>
        <time>2022-07-30T21:27:52.000Z</time>
      </trkpt>
      <trkpt lat="45.54333" lon="2.70105">
        <ele>1064</ele>
        <time>2022-07-30T21:27:53.000Z</time>
      </trkpt>
      <trkpt lat="45.54329" lon="2.70102">
        <ele>1063.8</ele>
        <time>2022-07-30T21:27:54.000Z</time>
      </trkpt>
      <trkpt lat="45.54325" lon="2.70099">
        <ele>1058</ele>
        <time>2022-07-30T21:27:55.000Z</time>
      </trkpt>
      <trkpt lat="45.5432" lon="2.70096">
        <ele>1054</ele>
        <time>2022-07-30T21:27:56.000Z</time>
      </trkpt>
      <trkpt lat="45.54316" lon="2.70093">
        <ele>1063.8</ele>
        <time>2022-07-30T21:27:57.000Z</time>
      </trkpt>
      <trkpt lat="45.54312" lon="2.7009">
        <ele>1054</ele>
        <time>2022-07-30T21:27:58.000Z</time>
      </trkpt>
      <trkpt lat="45.54308" lon="2.70086">
        <ele>1063.8</ele>
        <time>2022-07-30T21:27:59.000Z</time>
      </trkpt>
      <trkpt lat="45.54304" lon="2.70083">
        <ele>1054</ele>
        <time>2022-07-30T21:28:00.000Z</time>
      </trkpt>
      <trkpt lat="45.543" lon="2.7008">
        <ele>1054</ele>
        <time>2022-07-30T21:28:01.000Z</time>
      </trkpt>
      <trkpt lat="45.54296" lon="2.70077">
        <ele>1063.8</ele>
        <time>2022-07-30T21:28:02.000Z</time>
      </trkpt>
      <trkpt lat="45.54292" lon="2.70074">
        <ele>1059</ele>
        <time>2022-07-30T21:28:03.000Z</time>
      </trkpt>
      <trkpt lat="45.54288" lon="2.7007">
        <ele>1063.8</ele>
        <time>2022-07-30T21:28:04.000Z</time>
      </trkpt>
      <trkpt lat="45.54284" lon="2.70067">
        <ele>1059</ele>
        <time>2022-07-30T21:28:05.000Z</time>
      </trkpt>
      <trkpt lat="45.5428" lon="2.70063">
        <ele>1063.8</ele>
        <time>2022-07-30T21:28:06.000Z</time>
      </trkpt>
      <trkpt lat="45.54275" lon="2.7006">
        <ele>1063.8</ele>
        <time>2022-07-30T21:28:07.000Z</time>
      </trkpt>
      <trkpt lat="45.54271" lon="2.70057">
        <ele>1059</ele>
        <time>2022-07-30T21:28:08.000Z</time>
      </trkpt>
      <trkpt lat="45.54267" lon="2.70053">
        <ele>1063.7</ele>
        <time>2022-07-30T21:28:09.000Z</time>
      </trkpt>
      <trkpt lat="45.54263" lon="2.7005">
        <ele>1059</ele>
        <time>2022-07-30T21:28:10.000Z</time>
      </trkpt>
      <trkpt lat="45.54259" lon="2.70047">
        <ele>1063.6</ele>
        <time>2022-07-30T21:28:11.000Z</time>
      </trkpt>
      <trkpt lat="45.54255" lon="2.70043">
        <ele>1063.7</ele>
        <time>2022-07-30T21:28:12.000Z</time>
      </trkpt>
      <trkpt lat="45.54251" lon="2.7004">
        <ele>1059</ele>
        <time>2022-07-30T21:28:13.000Z</time>
      </trkpt>
      <trkpt lat="45.54247" lon="2.70036">
        <ele>1063.7</ele>
        <time>2022-07-30T21:28:14.000Z</time>
      </trkpt>
      <trkpt lat="45.54243" lon="2.70033">
        <ele>1059</ele>
        <time>2022-07-30T21:28:15.000Z</time>
      </trkpt>
      <trkpt lat="45.54239" lon="2.7003">
        <ele>1063.8</ele>
        <time>2022-07-30T21:28:16.000Z</time>
      </trkpt>
      <trkpt lat="45.54235" lon="2.70026">
        <ele>1063.8</ele>
        <time>2022-07-30T21:28:17.000Z</time>
      </trkpt>
      <trkpt lat="45.54231" lon="2.70023">
        <ele>1059</ele>
        <time>2022-07-30T21:28:18.000Z</time>
      </trkpt>
      <trkpt lat="45.54228" lon="2.70018">
        <ele>1063.9</ele>
        <time>2022-07-30T21:28:19.000Z</time>
      </trkpt>
      <trkpt lat="45.54225" lon="2.70013">
        <ele>1059</ele>
        <time>2022-07-30T21:28:20.000Z</time>
      </trkpt>
      <trkpt lat="45.54222" lon="2.70008">
        <ele>1064</ele>
        <time>2022-07-30T21:28:21.000Z</time>
      </trkpt>
      <trkpt lat="45.54219" lon="2.70003">
        <ele>1059</ele>
        <time>2022-07-30T21:28:22.000Z</time>
      </trkpt>
      <trkpt lat="45.54216" lon="2.69998">
        <ele>1054</ele>
        <time>2022-07-30T21:28:23.000Z</time>
      </trkpt>
      <trkpt lat="45.54213" lon="2.69994">
        <ele>1064.2</ele>
        <time>2022-07-30T21:28:24.000Z</time>
      </trkpt>
      <trkpt lat="45.5421" lon="2.69989">
        <ele>1054</ele>
        <time>2022-07-30T21:28:25.000Z</time>
      </trkpt>
      <trkpt lat="45.54207" lon="2.69984">
        <ele>1064.3</ele>
        <time>2022-07-30T21:28:26.000Z</time>
      </trkpt>
      <trkpt lat="45.54204" lon="2.69979">
        <ele>1054</ele>
        <time>2022-07-30T21:28:27.000Z</time>
      </trkpt>
      <trkpt lat="45.54201" lon="2.69973">
        <ele>1054</ele>
        <time>2022-07-30T21:28:28.000Z</time>
      </trkpt>
      <trkpt lat="45.54197" lon="2.69968">
        <ele>1064.5</ele>
        <time>2022-07-30T21:28:29.000Z</time>
      </trkpt>
      <trkpt lat="45.54194" lon="2.69963">
        <ele>1054</ele>
        <time>2022-07-30T21:28:30.000Z</time>
      </trkpt>
      <trkpt lat="45.54191" lon="2.69958">
        <ele>1064.7</ele>
        <time>2022-07-30T21:28:31.000Z</time>
      </trkpt>
      <trkpt lat="45.54188" lon="2.69952">
        <ele>1054</ele>
        <time>2022-07-30T21:28:32.000Z</time>
      </trkpt>
      <trkpt lat="45.54185" lon="2.69947">
        <ele>1064.8</ele>
        <time>2022-07-30T21:28:33.000Z</time>
      </trkpt>
      <trkpt lat="45.54182" lon="2.69942">
        <ele>1062</ele>
        <time>2022-07-30T21:28:34.000Z</time>
      </trkpt>
      <trkpt lat="45.54177" lon="2.69939">
        <ele>1065.1</ele>
        <time>2022-07-30T21:28:35.000Z</time>
      </trkpt>
      <trkpt lat="45.54172" lon="2.69936">
        <ele>1065.2</ele>
        <time>2022-07-30T21:28:36.000Z</time>
      </trkpt>
      <trkpt lat="45.54168" lon="2.69933">
        <ele>1065.3</ele>
        <time>2022-07-30T21:28:37.000Z</time>
      </trkpt>
      <trkpt lat="45.54163" lon="2.6993">
        <ele>1062</ele>
        <time>2022-07-30T21:28:38.000Z</time>
      </trkpt>
      <trkpt lat="45.54158" lon="2.69927">
        <ele>1065.3</ele>
        <time>2022-07-30T21:28:39.000Z</time>
      </trkpt>
      <trkpt lat="45.54154" lon="2.69924">
        <ele>1065.3</ele>
        <time>2022-07-30T21:28:40.000Z</time>
      </trkpt>
      <trkpt lat="45.54149" lon="2.69921">
        <ele>1065.2</ele>
        <time>2022-07-30T21:28:41.000Z</time>
      </trkpt>
      <trkpt lat="45.54145" lon="2.69918">
        <ele>1062</ele>
        <time>2022-07-30T21:28:42.000Z</time>
      </trkpt>
      <trkpt lat="45.54141" lon="2.69914">
        <ele>1062</ele>
        <time>2022-07-30T21:28:43.000Z</time>
      </trkpt>
      <trkpt lat="45.54136" lon="2.69911">
        <ele>1062</ele>
        <time>2022-07-30T21:28:44.000Z</time>
      </trkpt>
      <trkpt lat="45.54132" lon="2.69907">
        <ele>1062</ele>
        <time>2022-07-30T21:28:45.000Z</time>
      </trkpt>
      <trkpt lat="45.54128" lon="2.69903">
        <ele>1062</ele>
        <time>2022-07-30T21:28:46.000Z</time>
      </trkpt>
      <trkpt lat="45.54124" lon="2.699">
        <ele>1062</ele>
        <time>2022-07-30T21:28:47.000Z</time>
      </trkpt>
      <trkpt lat="45.5412" lon="2.69896">
        <ele>1062</ele>
        <time>2022-07-30T21:28:48.000Z</time>
      </trkpt>
      <trkpt lat="45.54116" lon="2.69892">
        <ele>1062</ele>
        <time>2022-07-30T21:28:49.000Z</time>
      </trkpt>
      <trkpt lat="45.54112" lon="2.69889">
        <ele>1062</ele>
        <time>2022-07-30T21:28:50.000Z</time>
      </trkpt>
      <trkpt lat="45.54107" lon="2.69885">
        <ele>1062</ele>
        <time>2022-07-30T21:28:51.000Z</time>
      </trkpt>
      <trkpt lat="45.54102" lon="2.69882">
        <ele>1062</ele>
        <time>2022-07-30T21:28:52.000Z</time>
      </trkpt>
      <trkpt lat="45.54096" lon="2.69878">
        <ele>1062</ele>
        <time>2022-07-30T21:28:53.000Z</time>
      </trkpt>
      <trkpt lat="45.54092" lon="2.69876">
        <ele>1062</ele>
        <time>2022-07-30T21:28:54.000Z</time>
      </trkpt>
      <trkpt lat="45.54088" lon="2.69873">
        <ele>1063</ele>
        <time>2022-07-30T21:28:55.000Z</time>
      </trkpt>
      <trkpt lat="45.54084" lon="2.69871">
        <ele>1063</ele>
        <time>2022-07-30T21:28:56.000Z</time>
      </trkpt>
      <trkpt lat="45.5408" lon="2.69868">
        <ele>1063</ele>
        <time>2022-07-30T21:28:57.000Z</time>
      </trkpt>
      <trkpt lat="45.54075" lon="2.69866">
        <ele>1063</ele>
        <time>2022-07-30T21:28:58.000Z</time>
      </trkpt>
      <trkpt lat="45.5407" lon="2.69864">
        <ele>1063</ele>
        <time>2022-07-30T21:28:59.000Z</time>
      </trkpt>
      <trkpt lat="45.54066" lon="2.69863">
        <ele>1063</ele>
        <time>2022-07-30T21:29:00.000Z</time>
      </trkpt>
      <trkpt lat="45.54062" lon="2.69861">
        <ele>1063</ele>
        <time>2022-07-30T21:29:01.000Z</time>
      </trkpt>
      <trkpt lat="45.54057" lon="2.69859">
        <ele>1063</ele>
        <time>2022-07-30T21:29:02.000Z</time>
      </trkpt>
      <trkpt lat="45.54053" lon="2.69857">
        <ele>1063</ele>
        <time>2022-07-30T21:29:03.000Z</time>
      </trkpt>
      <trkpt lat="45.54049" lon="2.69855">
        <ele>1063</ele>
        <time>2022-07-30T21:29:04.000Z</time>
      </trkpt>
      <trkpt lat="45.54044" lon="2.69853">
        <ele>1063</ele>
        <time>2022-07-30T21:29:05.000Z</time>
      </trkpt>
      <trkpt lat="45.5404" lon="2.69851">
        <ele>1063</ele>
        <time>2022-07-30T21:29:06.000Z</time>
      </trkpt>
      <trkpt lat="45.54035" lon="2.69849">
        <ele>1063</ele>
        <time>2022-07-30T21:29:07.000Z</time>
      </trkpt>
      <trkpt lat="45.54031" lon="2.69848">
        <ele>1063</ele>
        <time>2022-07-30T21:29:08.000Z</time>
      </trkpt>
      <trkpt lat="45.54027" lon="2.69846">
        <ele>1063</ele>
        <time>2022-07-30T21:29:09.000Z</time>
      </trkpt>
      <trkpt lat="45.54022" lon="2.69844">
        <ele>1063</ele>
        <time>2022-07-30T21:29:10.000Z</time>
      </trkpt>
      <trkpt lat="45.54018" lon="2.69842">
        <ele>1057</ele>
        <time>2022-07-30T21:29:11.000Z</time>
      </trkpt>
      <trkpt lat="45.54013" lon="2.6984">
        <ele>1057</ele>
        <time>2022-07-30T21:29:12.000Z</time>
      </trkpt>
      <trkpt lat="45.54009" lon="2.69838">
        <ele>1061</ele>
        <time>2022-07-30T21:29:13.000Z</time>
      </trkpt>
      <trkpt lat="45.54004" lon="2.69837">
        <ele>1061</ele>
        <time>2022-07-30T21:29:14.000Z</time>
      </trkpt>
      <trkpt lat="45.54" lon="2.69835">
        <ele>1061</ele>
        <time>2022-07-30T21:29:15.000Z</time>
      </trkpt>
      <trkpt lat="45.53996" lon="2.69833">
        <ele>1061</ele>
        <time>2022-07-30T21:29:16.000Z</time>
      </trkpt>
      <trkpt lat="45.53991" lon="2.69832">
        <ele>1061</ele>
        <time>2022-07-30T21:29:17.000Z</time>
      </trkpt>
      <trkpt lat="45.53986" lon="2.6983">
        <ele>1061</ele>
        <time>2022-07-30T21:29:18.000Z</time>
      </trkpt>
      <trkpt lat="45.53982" lon="2.69829">
        <ele>1061</ele>
        <time>2022-07-30T21:29:19.000Z</time>
      </trkpt>
      <trkpt lat="45.53977" lon="2.69828">
        <ele>1061</ele>
        <time>2022-07-30T21:29:20.000Z</time>
      </trkpt>
      <trkpt lat="45.53973" lon="2.69827">
        <ele>1061</ele>
        <time>2022-07-30T21:29:21.000Z</time>
      </trkpt>
      <trkpt lat="45.53968" lon="2.69825">
        <ele>1061</ele>
        <time>2022-07-30T21:29:22.000Z</time>
      </trkpt>
      <trkpt lat="45.53964" lon="2.69824">
        <ele>1061</ele>
        <time>2022-07-30T21:29:23.000Z</time>
      </trkpt>
      <trkpt lat="45.53959" lon="2.69823">
        <ele>1061</ele>
        <time>2022-07-30T21:29:24.000Z</time>
      </trkpt>
      <trkpt lat="45.53955" lon="2.69822">
        <ele>1061</ele>
        <time>2022-07-30T21:29:25.000Z</time>
      </trkpt>
      <trkpt lat="45.5395" lon="2.69823">
        <ele>1061</ele>
        <time>2022-07-30T21:29:26.000Z</time>
      </trkpt>
      <trkpt lat="45.53946" lon="2.69824">
        <ele>1061</ele>
        <time>2022-07-30T21:29:27.000Z</time>
      </trkpt>
      <trkpt lat="45.53941" lon="2.69825">
        <ele>1061</ele>
        <time>2022-07-30T21:29:28.000Z</time>
      </trkpt>
      <trkpt lat="45.53937" lon="2.69826">
        <ele>1061</ele>
        <time>2022-07-30T21:29:29.000Z</time>
      </trkpt>
      <trkpt lat="45.53932" lon="2.69828">
        <ele>1061</ele>
        <time>2022-07-30T21:29:30.000Z</time>
      </trkpt>
      <trkpt lat="45.53928" lon="2.69829">
        <ele>1061</ele>
        <time>2022-07-30T21:29:31.000Z</time>
      </trkpt>
      <trkpt lat="45.53923" lon="2.6983">
        <ele>1052</ele>
        <time>2022-07-30T21:29:32.000Z</time>
      </trkpt>
      <trkpt lat="45.53918" lon="2.69831">
        <ele>1058</ele>
        <time>2022-07-30T21:29:33.000Z</time>
      </trkpt>
      <trkpt lat="45.53914" lon="2.69832">
        <ele>1058</ele>
        <time>2022-07-30T21:29:34.000Z</time>
      </trkpt>
      <trkpt lat="45.53909" lon="2.69834">
        <ele>1058</ele>
        <time>2022-07-30T21:29:35.000Z</time>
      </trkpt>
      <trkpt lat="45.53905" lon="2.69835">
        <ele>1058</ele>
        <time>2022-07-30T21:29:36.000Z</time>
      </trkpt>
      <trkpt lat="45.539" lon="2.69836">
        <ele>1058</ele>
        <time>2022-07-30T21:29:37.000Z</time>
      </trkpt>
      <trkpt lat="45.53896" lon="2.69837">
        <ele>1058</ele>
        <time>2022-07-30T21:29:38.000Z</time>
      </trkpt>
      <trkpt lat="45.53891" lon="2.69838">
        <ele>1058</ele>
        <time>2022-07-30T21:29:39.000Z</time>
      </trkpt>
      <trkpt lat="45.53886" lon="2.69839">
        <ele>1058</ele>
        <time>2022-07-30T21:29:40.000Z</time>
      </trkpt>
      <trkpt lat="45.53882" lon="2.6984">
        <ele>1058</ele>
        <time>2022-07-30T21:29:41.000Z</time>
      </trkpt>
      <trkpt lat="45.53877" lon="2.69842">
        <ele>1058</ele>
        <time>2022-07-30T21:29:42.000Z</time>
      </trkpt>
      <trkpt lat="45.53872" lon="2.69843">
        <ele>1058</ele>
        <time>2022-07-30T21:29:43.000Z</time>
      </trkpt>
      <trkpt lat="45.53868" lon="2.69844">
        <ele>1058</ele>
        <time>2022-07-30T21:29:44.000Z</time>
      </trkpt>
      <trkpt lat="45.53863" lon="2.69845">
        <ele>1058</ele>
        <time>2022-07-30T21:29:45.000Z</time>
      </trkpt>
      <trkpt lat="45.53858" lon="2.69846">
        <ele>1058</ele>
        <time>2022-07-30T21:29:46.000Z</time>
      </trkpt>
      <trkpt lat="45.53853" lon="2.69847">
        <ele>1058</ele>
        <time>2022-07-30T21:29:47.000Z</time>
      </trkpt>
      <trkpt lat="45.53849" lon="2.69848">
        <ele>1058</ele>
        <time>2022-07-30T21:29:48.000Z</time>
      </trkpt>
      <trkpt lat="45.53843" lon="2.69851">
        <ele>1058</ele>
        <time>2022-07-30T21:29:49.000Z</time>
      </trkpt>
      <trkpt lat="45.53838" lon="2.69854">
        <ele>1058</ele>
        <time>2022-07-30T21:29:50.000Z</time>
      </trkpt>
      <trkpt lat="45.53833" lon="2.69857">
        <ele>1058</ele>
        <time>2022-07-30T21:29:51.000Z</time>
      </trkpt>
      <trkpt lat="45.53829" lon="2.69859">
        <ele>1050</ele>
        <time>2022-07-30T21:29:52.000Z</time>
      </trkpt>
      <trkpt lat="45.53825" lon="2.69862">
        <ele>1050</ele>
        <time>2022-07-30T21:29:53.000Z</time>
      </trkpt>
      <trkpt lat="45.5382" lon="2.69865">
        <ele>1053</ele>
        <time>2022-07-30T21:29:54.000Z</time>
      </trkpt>
      <trkpt lat="45.53816" lon="2.69867">
        <ele>1053</ele>
        <time>2022-07-30T21:29:55.000Z</time>
      </trkpt>
      <trkpt lat="45.53811" lon="2.6987">
        <ele>1053</ele>
        <time>2022-07-30T21:29:56.000Z</time>
      </trkpt>
      <trkpt lat="45.53806" lon="2.69871">
        <ele>1053</ele>
        <time>2022-07-30T21:29:57.000Z</time>
      </trkpt>
      <trkpt lat="45.53802" lon="2.69872">
        <ele>1053</ele>
        <time>2022-07-30T21:29:58.000Z</time>
      </trkpt>
      <trkpt lat="45.53797" lon="2.69872">
        <ele>1053</ele>
        <time>2022-07-30T21:29:59.000Z</time>
      </trkpt>
      <trkpt lat="45.53792" lon="2.69873">
        <ele>1053</ele>
        <time>2022-07-30T21:30:00.000Z</time>
      </trkpt>
      <trkpt lat="45.53788" lon="2.69874">
        <ele>1053</ele>
        <time>2022-07-30T21:30:01.000Z</time>
      </trkpt>
      <trkpt lat="45.53783" lon="2.69875">
        <ele>1053</ele>
        <time>2022-07-30T21:30:02.000Z</time>
      </trkpt>
      <trkpt lat="45.53778" lon="2.69876">
        <ele>1053</ele>
        <time>2022-07-30T21:30:03.000Z</time>
      </trkpt>
      <trkpt lat="45.53774" lon="2.69876">
        <ele>1053</ele>
        <time>2022-07-30T21:30:04.000Z</time>
      </trkpt>
      <trkpt lat="45.53769" lon="2.69877">
        <ele>1053</ele>
        <time>2022-07-30T21:30:05.000Z</time>
      </trkpt>
      <trkpt lat="45.53764" lon="2.69878">
        <ele>1053</ele>
        <time>2022-07-30T21:30:06.000Z</time>
      </trkpt>
      <trkpt lat="45.5376" lon="2.69879">
        <ele>1053</ele>
        <time>2022-07-30T21:30:07.000Z</time>
      </trkpt>
      <trkpt lat="45.53755" lon="2.6988">
        <ele>1053</ele>
        <time>2022-07-30T21:30:08.000Z</time>
      </trkpt>
      <trkpt lat="45.53751" lon="2.69881">
        <ele>1053</ele>
        <time>2022-07-30T21:30:09.000Z</time>
      </trkpt>
      <trkpt lat="45.53746" lon="2.69883">
        <ele>1053</ele>
        <time>2022-07-30T21:30:10.000Z</time>
      </trkpt>
      <trkpt lat="45.53742" lon="2.69885">
        <ele>1053</ele>
        <time>2022-07-30T21:30:11.000Z</time>
      </trkpt>
      <trkpt lat="45.53737" lon="2.69887">
        <ele>1053</ele>
        <time>2022-07-30T21:30:12.000Z</time>
      </trkpt>
      <trkpt lat="45.53733" lon="2.69889">
        <ele>1053</ele>
        <time>2022-07-30T21:30:13.000Z</time>
      </trkpt>
      <trkpt lat="45.53729" lon="2.69891">
        <ele>1047</ele>
        <time>2022-07-30T21:30:14.000Z</time>
      </trkpt>
      <trkpt lat="45.53724" lon="2.69892">
        <ele>1047</ele>
        <time>2022-07-30T21:30:15.000Z</time>
      </trkpt>
      <trkpt lat="45.5372" lon="2.69894">
        <ele>1047</ele>
        <time>2022-07-30T21:30:16.000Z</time>
      </trkpt>
      <trkpt lat="45.53715" lon="2.69893">
        <ele>1047</ele>
        <time>2022-07-30T21:30:17.000Z</time>
      </trkpt>
      <trkpt lat="45.5371" lon="2.69892">
        <ele>1047</ele>
        <time>2022-07-30T21:30:18.000Z</time>
      </trkpt>
      <trkpt lat="45.53706" lon="2.69891">
        <ele>1047</ele>
        <time>2022-07-30T21:30:19.000Z</time>
      </trkpt>
      <trkpt lat="45.53701" lon="2.6989">
        <ele>1047</ele>
        <time>2022-07-30T21:30:20.000Z</time>
      </trkpt>
      <trkpt lat="45.53697" lon="2.69889">
        <ele>1047</ele>
        <time>2022-07-30T21:30:21.000Z</time>
      </trkpt>
      <trkpt lat="45.53692" lon="2.69888">
        <ele>1047</ele>
        <time>2022-07-30T21:30:22.000Z</time>
      </trkpt>
      <trkpt lat="45.53687" lon="2.69887">
        <ele>1038</ele>
        <time>2022-07-30T21:30:23.000Z</time>
      </trkpt>
      <trkpt lat="45.53679" lon="2.69891">
        <ele>1038</ele>
        <time>2022-07-30T21:30:24.000Z</time>
      </trkpt>
      <trkpt lat="45.53674" lon="2.69887">
        <ele>1038</ele>
        <time>2022-07-30T21:30:25.000Z</time>
      </trkpt>
      <trkpt lat="45.5367" lon="2.69883">
        <ele>1038</ele>
        <time>2022-07-30T21:30:26.000Z</time>
      </trkpt>
      <trkpt lat="45.53665" lon="2.6988">
        <ele>1038</ele>
        <time>2022-07-30T21:30:27.000Z</time>
      </trkpt>
      <trkpt lat="45.53661" lon="2.69876">
        <ele>1038</ele>
        <time>2022-07-30T21:30:28.000Z</time>
      </trkpt>
      <trkpt lat="45.53657" lon="2.69873">
        <ele>1038</ele>
        <time>2022-07-30T21:30:29.000Z</time>
      </trkpt>
      <trkpt lat="45.53652" lon="2.69869">
        <ele>1038</ele>
        <time>2022-07-30T21:30:30.000Z</time>
      </trkpt>
      <trkpt lat="45.53648" lon="2.69867">
        <ele>1035</ele>
        <time>2022-07-30T21:30:31.000Z</time>
      </trkpt>
      <trkpt lat="45.53643" lon="2.69865">
        <ele>1035</ele>
        <time>2022-07-30T21:30:32.000Z</time>
      </trkpt>
      <trkpt lat="45.53639" lon="2.69862">
        <ele>1035</ele>
        <time>2022-07-30T21:30:33.000Z</time>
      </trkpt>
      <trkpt lat="45.53634" lon="2.6986">
        <ele>1035</ele>
        <time>2022-07-30T21:30:34.000Z</time>
      </trkpt>
      <trkpt lat="45.5363" lon="2.69858">
        <ele>1035</ele>
        <time>2022-07-30T21:30:35.000Z</time>
      </trkpt>
      <trkpt lat="45.53625" lon="2.69856">
        <ele>1035</ele>
        <time>2022-07-30T21:30:36.000Z</time>
      </trkpt>
      <trkpt lat="45.53621" lon="2.69853">
        <ele>1035</ele>
        <time>2022-07-30T21:30:37.000Z</time>
      </trkpt>
      <trkpt lat="45.53616" lon="2.69851">
        <ele>1035</ele>
        <time>2022-07-30T21:30:38.000Z</time>
      </trkpt>
      <trkpt lat="45.53612" lon="2.69849">
        <ele>1035</ele>
        <time>2022-07-30T21:30:39.000Z</time>
      </trkpt>
      <trkpt lat="45.53607" lon="2.69847">
        <ele>1035</ele>
        <time>2022-07-30T21:30:40.000Z</time>
      </trkpt>
      <trkpt lat="45.53603" lon="2.69844">
        <ele>1035</ele>
        <time>2022-07-30T21:30:41.000Z</time>
      </trkpt>
      <trkpt lat="45.53598" lon="2.69842">
        <ele>1035</ele>
        <time>2022-07-30T21:30:42.000Z</time>
      </trkpt>
      <trkpt lat="45.53594" lon="2.6984">
        <ele>1035</ele>
        <time>2022-07-30T21:30:43.000Z</time>
      </trkpt>
      <trkpt lat="45.53589" lon="2.69837">
        <ele>1035</ele>
        <time>2022-07-30T21:30:44.000Z</time>
      </trkpt>
      <trkpt lat="45.53584" lon="2.69834">
        <ele>1042</ele>
        <time>2022-07-30T21:30:45.000Z</time>
      </trkpt>
      <trkpt lat="45.53579" lon="2.69831">
        <ele>1042</ele>
        <time>2022-07-30T21:30:46.000Z</time>
      </trkpt>
      <trkpt lat="45.53574" lon="2.69828">
        <ele>1042</ele>
        <time>2022-07-30T21:30:47.000Z</time>
      </trkpt>
      <trkpt lat="45.5357" lon="2.69823">
        <ele>1031</ele>
        <time>2022-07-30T21:30:48.000Z</time>
      </trkpt>
      <trkpt lat="45.53566" lon="2.69817">
        <ele>1031</ele>
        <time>2022-07-30T21:30:49.000Z</time>
      </trkpt>
      <trkpt lat="45.53562" lon="2.69812">
        <ele>1031</ele>
        <time>2022-07-30T21:30:50.000Z</time>
      </trkpt>
      <trkpt lat="45.5356" lon="2.69806">
        <ele>1031</ele>
        <time>2022-07-30T21:30:51.000Z</time>
      </trkpt>
      <trkpt lat="45.53557" lon="2.69801">
        <ele>1031</ele>
        <time>2022-07-30T21:30:52.000Z</time>
      </trkpt>
      <trkpt lat="45.53555" lon="2.69795">
        <ele>1031</ele>
        <time>2022-07-30T21:30:53.000Z</time>
      </trkpt>
      <trkpt lat="45.53553" lon="2.6979">
        <ele>1031</ele>
        <time>2022-07-30T21:30:54.000Z</time>
      </trkpt>
      <trkpt lat="45.53551" lon="2.69782">
        <ele>1031</ele>
        <time>2022-07-30T21:30:55.000Z</time>
      </trkpt>
      <trkpt lat="45.5355" lon="2.69775">
        <ele>1031</ele>
        <time>2022-07-30T21:30:56.000Z</time>
      </trkpt>
      <trkpt lat="45.53549" lon="2.69768">
        <ele>1031</ele>
        <time>2022-07-30T21:30:57.000Z</time>
      </trkpt>
      <trkpt lat="45.53548" lon="2.69762">
        <ele>1031</ele>
        <time>2022-07-30T21:30:58.000Z</time>
      </trkpt>
      <trkpt lat="45.53547" lon="2.69756">
        <ele>1031</ele>
        <time>2022-07-30T21:30:59.000Z</time>
      </trkpt>
      <trkpt lat="45.53546" lon="2.69749">
        <ele>1031</ele>
        <time>2022-07-30T21:31:00.000Z</time>
      </trkpt>
      <trkpt lat="45.53545" lon="2.69743">
        <ele>1031</ele>
        <time>2022-07-30T21:31:01.000Z</time>
      </trkpt>
      <trkpt lat="45.53544" lon="2.69736">
        <ele>1031</ele>
        <time>2022-07-30T21:31:02.000Z</time>
      </trkpt>
      <trkpt lat="45.53543" lon="2.6973">
        <ele>1031</ele>
        <time>2022-07-30T21:31:03.000Z</time>
      </trkpt>
      <trkpt lat="45.53543" lon="2.69723">
        <ele>1031</ele>
        <time>2022-07-30T21:31:04.000Z</time>
      </trkpt>
      <trkpt lat="45.53542" lon="2.69717">
        <ele>1031</ele>
        <time>2022-07-30T21:31:05.000Z</time>
      </trkpt>
      <trkpt lat="45.53541" lon="2.6971">
        <ele>1031</ele>
        <time>2022-07-30T21:31:06.000Z</time>
      </trkpt>
      <trkpt lat="45.5354" lon="2.69704">
        <ele>1020</ele>
        <time>2022-07-30T21:31:07.000Z</time>
      </trkpt>
      <trkpt lat="45.53539" lon="2.69697">
        <ele>1020</ele>
        <time>2022-07-30T21:31:08.000Z</time>
      </trkpt>
      <trkpt lat="45.53538" lon="2.69691">
        <ele>1020</ele>
        <time>2022-07-30T21:31:09.000Z</time>
      </trkpt>
      <trkpt lat="45.53537" lon="2.69684">
        <ele>1020</ele>
        <time>2022-07-30T21:31:10.000Z</time>
      </trkpt>
      <trkpt lat="45.53537" lon="2.69678">
        <ele>1020</ele>
        <time>2022-07-30T21:31:11.000Z</time>
      </trkpt>
      <trkpt lat="45.53536" lon="2.69671">
        <ele>1020</ele>
        <time>2022-07-30T21:31:12.000Z</time>
      </trkpt>
      <trkpt lat="45.53535" lon="2.69665">
        <ele>1020</ele>
        <time>2022-07-30T21:31:13.000Z</time>
      </trkpt>
      <trkpt lat="45.53534" lon="2.69658">
        <ele>1020</ele>
        <time>2022-07-30T21:31:14.000Z</time>
      </trkpt>
      <trkpt lat="45.53533" lon="2.69652">
        <ele>1020</ele>
        <time>2022-07-30T21:31:15.000Z</time>
      </trkpt>
      <trkpt lat="45.53532" lon="2.69645">
        <ele>1020</ele>
        <time>2022-07-30T21:31:16.000Z</time>
      </trkpt>
      <trkpt lat="45.53531" lon="2.69639">
        <ele>1020</ele>
        <time>2022-07-30T21:31:17.000Z</time>
      </trkpt>
      <trkpt lat="45.53531" lon="2.69632">
        <ele>1020</ele>
        <time>2022-07-30T21:31:18.000Z</time>
      </trkpt>
      <trkpt lat="45.5353" lon="2.69626">
        <ele>1020</ele>
        <time>2022-07-30T21:31:19.000Z</time>
      </trkpt>
      <trkpt lat="45.53529" lon="2.6962">
        <ele>1020</ele>
        <time>2022-07-30T21:31:20.000Z</time>
      </trkpt>
      <trkpt lat="45.53528" lon="2.69613">
        <ele>1020</ele>
        <time>2022-07-30T21:31:21.000Z</time>
      </trkpt>
      <trkpt lat="45.53526" lon="2.69607">
        <ele>1020</ele>
        <time>2022-07-30T21:31:22.000Z</time>
      </trkpt>
      <trkpt lat="45.53525" lon="2.69601">
        <ele>1020</ele>
        <time>2022-07-30T21:31:23.000Z</time>
      </trkpt>
      <trkpt lat="45.53523" lon="2.69595">
        <ele>1012</ele>
        <time>2022-07-30T21:31:24.000Z</time>
      </trkpt>
      <trkpt lat="45.53522" lon="2.69589">
        <ele>1012</ele>
        <time>2022-07-30T21:31:25.000Z</time>
      </trkpt>
      <trkpt lat="45.53521" lon="2.69583">
        <ele>1012</ele>
        <time>2022-07-30T21:31:26.000Z</time>
      </trkpt>
      <trkpt lat="45.53519" lon="2.69577">
        <ele>1012</ele>
        <time>2022-07-30T21:31:27.000Z</time>
      </trkpt>
      <trkpt lat="45.53518" lon="2.69571">
        <ele>1012</ele>
        <time>2022-07-30T21:31:28.000Z</time>
      </trkpt>
      <trkpt lat="45.53516" lon="2.69565">
        <ele>1012</ele>
        <time>2022-07-30T21:31:29.000Z</time>
      </trkpt>
      <trkpt lat="45.53515" lon="2.69558">
        <ele>1012</ele>
        <time>2022-07-30T21:31:30.000Z</time>
      </trkpt>
      <trkpt lat="45.53513" lon="2.69552">
        <ele>1012</ele>
        <time>2022-07-30T21:31:31.000Z</time>
      </trkpt>
      <trkpt lat="45.53512" lon="2.69546">
        <ele>1012</ele>
        <time>2022-07-30T21:31:32.000Z</time>
      </trkpt>
      <trkpt lat="45.5351" lon="2.6954">
        <ele>1012</ele>
        <time>2022-07-30T21:31:33.000Z</time>
      </trkpt>
      <trkpt lat="45.53509" lon="2.69534">
        <ele>1012</ele>
        <time>2022-07-30T21:31:34.000Z</time>
      </trkpt>
      <trkpt lat="45.53507" lon="2.69528">
        <ele>1012</ele>
        <time>2022-07-30T21:31:35.000Z</time>
      </trkpt>
      <trkpt lat="45.53506" lon="2.69522">
        <ele>1012</ele>
        <time>2022-07-30T21:31:36.000Z</time>
      </trkpt>
      <trkpt lat="45.53504" lon="2.69516">
        <ele>1012</ele>
        <time>2022-07-30T21:31:37.000Z</time>
      </trkpt>
      <trkpt lat="45.53503" lon="2.6951">
        <ele>1012</ele>
        <time>2022-07-30T21:31:38.000Z</time>
      </trkpt>
      <trkpt lat="45.53501" lon="2.69504">
        <ele>1012</ele>
        <time>2022-07-30T21:31:39.000Z</time>
      </trkpt>
      <trkpt lat="45.535" lon="2.69498">
        <ele>1012</ele>
        <time>2022-07-30T21:31:40.000Z</time>
      </trkpt>
      <trkpt lat="45.53498" lon="2.69492">
        <ele>1012</ele>
        <time>2022-07-30T21:31:41.000Z</time>
      </trkpt>
      <trkpt lat="45.53497" lon="2.69486">
        <ele>1009</ele>
        <time>2022-07-30T21:31:42.000Z</time>
      </trkpt>
      <trkpt lat="45.53495" lon="2.6948">
        <ele>1009</ele>
        <time>2022-07-30T21:31:43.000Z</time>
      </trkpt>
      <trkpt lat="45.53493" lon="2.69473">
        <ele>1009</ele>
        <time>2022-07-30T21:31:44.000Z</time>
      </trkpt>
      <trkpt lat="45.53488" lon="2.69477">
        <ele>1009</ele>
        <time>2022-07-30T21:31:45.000Z</time>
      </trkpt>
      <trkpt lat="45.53484" lon="2.69473">
        <ele>1009</ele>
        <time>2022-07-30T21:31:46.000Z</time>
      </trkpt>
      <trkpt lat="45.5348" lon="2.6947">
        <ele>1009</ele>
        <time>2022-07-30T21:31:47.000Z</time>
      </trkpt>
      <trkpt lat="45.53476" lon="2.69466">
        <ele>1009</ele>
        <time>2022-07-30T21:31:48.000Z</time>
      </trkpt>
      <trkpt lat="45.53472" lon="2.69463">
        <ele>1009</ele>
        <time>2022-07-30T21:31:49.000Z</time>
      </trkpt>
      <trkpt lat="45.53468" lon="2.69459">
        <ele>1009</ele>
        <time>2022-07-30T21:31:50.000Z</time>
      </trkpt>
      <trkpt lat="45.53464" lon="2.69456">
        <ele>1009</ele>
        <time>2022-07-30T21:31:51.000Z</time>
      </trkpt>
      <trkpt lat="45.5346" lon="2.69453">
        <ele>1003</ele>
        <time>2022-07-30T21:31:52.000Z</time>
      </trkpt>
      <trkpt lat="45.53456" lon="2.69449">
        <ele>1003</ele>
        <time>2022-07-30T21:31:53.000Z</time>
      </trkpt>
      <trkpt lat="45.53452" lon="2.69446">
        <ele>1003</ele>
        <time>2022-07-30T21:31:54.000Z</time>
      </trkpt>
      <trkpt lat="45.53448" lon="2.69442">
        <ele>1003</ele>
        <time>2022-07-30T21:31:55.000Z</time>
      </trkpt>
      <trkpt lat="45.53444" lon="2.69439">
        <ele>1003</ele>
        <time>2022-07-30T21:31:56.000Z</time>
      </trkpt>
      <trkpt lat="45.5344" lon="2.69435">
        <ele>1003</ele>
        <time>2022-07-30T21:31:57.000Z</time>
      </trkpt>
      <trkpt lat="45.53436" lon="2.69432">
        <ele>1003</ele>
        <time>2022-07-30T21:31:58.000Z</time>
      </trkpt>
      <trkpt lat="45.53432" lon="2.69429">
        <ele>1003</ele>
        <time>2022-07-30T21:31:59.000Z</time>
      </trkpt>
      <trkpt lat="45.53428" lon="2.69425">
        <ele>1003</ele>
        <time>2022-07-30T21:32:00.000Z</time>
      </trkpt>
      <trkpt lat="45.53424" lon="2.69422">
        <ele>1003</ele>
        <time>2022-07-30T21:32:01.000Z</time>
      </trkpt>
      <trkpt lat="45.5342" lon="2.69418">
        <ele>1003</ele>
        <time>2022-07-30T21:32:02.000Z</time>
      </trkpt>
      <trkpt lat="45.53416" lon="2.69415">
        <ele>1004</ele>
        <time>2022-07-30T21:32:03.000Z</time>
      </trkpt>
      <trkpt lat="45.53412" lon="2.69411">
        <ele>1004</ele>
        <time>2022-07-30T21:32:04.000Z</time>
      </trkpt>
      <trkpt lat="45.53409" lon="2.69408">
        <ele>1004</ele>
        <time>2022-07-30T21:32:05.000Z</time>
      </trkpt>
      <trkpt lat="45.53405" lon="2.69405">
        <ele>1004</ele>
        <time>2022-07-30T21:32:06.000Z</time>
      </trkpt>
      <trkpt lat="45.53401" lon="2.69401">
        <ele>1004</ele>
        <time>2022-07-30T21:32:07.000Z</time>
      </trkpt>
      <trkpt lat="45.53397" lon="2.69398">
        <ele>1003</ele>
        <time>2022-07-30T21:32:08.000Z</time>
      </trkpt>
      <trkpt lat="45.53393" lon="2.69394">
        <ele>1003</ele>
        <time>2022-07-30T21:32:09.000Z</time>
      </trkpt>
      <trkpt lat="45.53389" lon="2.69391">
        <ele>1003</ele>
        <time>2022-07-30T21:32:10.000Z</time>
      </trkpt>
      <trkpt lat="45.53385" lon="2.69387">
        <ele>1003</ele>
        <time>2022-07-30T21:32:11.000Z</time>
      </trkpt>
      <trkpt lat="45.53381" lon="2.69384">
        <ele>1003</ele>
        <time>2022-07-30T21:32:12.000Z</time>
      </trkpt>
      <trkpt lat="45.53377" lon="2.69381">
        <ele>1003</ele>
        <time>2022-07-30T21:32:13.000Z</time>
      </trkpt>
      <trkpt lat="45.53373" lon="2.69377">
        <ele>1003</ele>
        <time>2022-07-30T21:32:14.000Z</time>
      </trkpt>
      <trkpt lat="45.53369" lon="2.69374">
        <ele>1003</ele>
        <time>2022-07-30T21:32:15.000Z</time>
      </trkpt>
      <trkpt lat="45.53365" lon="2.6937">
        <ele>1003</ele>
        <time>2022-07-30T21:32:16.000Z</time>
      </trkpt>
      <trkpt lat="45.53361" lon="2.69367">
        <ele>1003</ele>
        <time>2022-07-30T21:32:17.000Z</time>
      </trkpt>
      <trkpt lat="45.53359" lon="2.6936">
        <ele>1003</ele>
        <time>2022-07-30T21:32:18.000Z</time>
      </trkpt>
      <trkpt lat="45.53356" lon="2.69354">
        <ele>999</ele>
        <time>2022-07-30T21:32:19.000Z</time>
      </trkpt>
      <trkpt lat="45.53352" lon="2.69348">
        <ele>999</ele>
        <time>2022-07-30T21:32:20.000Z</time>
      </trkpt>
      <trkpt lat="45.53348" lon="2.69342">
        <ele>999</ele>
        <time>2022-07-30T21:32:21.000Z</time>
      </trkpt>
      <trkpt lat="45.53346" lon="2.69336">
        <ele>999</ele>
        <time>2022-07-30T21:32:22.000Z</time>
      </trkpt>
      <trkpt lat="45.53344" lon="2.69329">
        <ele>999</ele>
        <time>2022-07-30T21:32:23.000Z</time>
      </trkpt>
      <trkpt lat="45.53341" lon="2.69322">
        <ele>999</ele>
        <time>2022-07-30T21:32:24.000Z</time>
      </trkpt>
      <trkpt lat="45.53339" lon="2.69316">
        <ele>999</ele>
        <time>2022-07-30T21:32:25.000Z</time>
      </trkpt>
      <trkpt lat="45.53337" lon="2.6931">
        <ele>999</ele>
        <time>2022-07-30T21:32:26.000Z</time>
      </trkpt>
      <trkpt lat="45.53335" lon="2.69304">
        <ele>999</ele>
        <time>2022-07-30T21:32:27.000Z</time>
      </trkpt>
      <trkpt lat="45.53333" lon="2.69297">
        <ele>999</ele>
        <time>2022-07-30T21:32:28.000Z</time>
      </trkpt>
      <trkpt lat="45.5333" lon="2.69291">
        <ele>999</ele>
        <time>2022-07-30T21:32:29.000Z</time>
      </trkpt>
      <trkpt lat="45.53328" lon="2.69285">
        <ele>999</ele>
        <time>2022-07-30T21:32:30.000Z</time>
      </trkpt>
      <trkpt lat="45.53325" lon="2.69279">
        <ele>996</ele>
        <time>2022-07-30T21:32:31.000Z</time>
      </trkpt>
      <trkpt lat="45.53323" lon="2.69272">
        <ele>996</ele>
        <time>2022-07-30T21:32:32.000Z</time>
      </trkpt>
      <trkpt lat="45.5332" lon="2.69266">
        <ele>996</ele>
        <time>2022-07-30T21:32:33.000Z</time>
      </trkpt>
      <trkpt lat="45.53318" lon="2.6926">
        <ele>996</ele>
        <time>2022-07-30T21:32:34.000Z</time>
      </trkpt>
      <trkpt lat="45.53316" lon="2.69254">
        <ele>996</ele>
        <time>2022-07-30T21:32:35.000Z</time>
      </trkpt>
      <trkpt lat="45.53313" lon="2.69248">
        <ele>996</ele>
        <time>2022-07-30T21:32:36.000Z</time>
      </trkpt>
      <trkpt lat="45.53311" lon="2.69242">
        <ele>996</ele>
        <time>2022-07-30T21:32:37.000Z</time>
      </trkpt>
      <trkpt lat="45.53308" lon="2.69235">
        <ele>996</ele>
        <time>2022-07-30T21:32:38.000Z</time>
      </trkpt>
      <trkpt lat="45.53306" lon="2.69229">
        <ele>996</ele>
        <time>2022-07-30T21:32:39.000Z</time>
      </trkpt>
      <trkpt lat="45.53302" lon="2.69223">
        <ele>996</ele>
        <time>2022-07-30T21:32:40.000Z</time>
      </trkpt>
      <trkpt lat="45.53299" lon="2.69216">
        <ele>996</ele>
        <time>2022-07-30T21:32:41.000Z</time>
      </trkpt>
      <trkpt lat="45.53295" lon="2.69209">
        <ele>996</ele>
        <time>2022-07-30T21:32:42.000Z</time>
      </trkpt>
      <trkpt lat="45.53291" lon="2.69205">
        <ele>996</ele>
        <time>2022-07-30T21:32:43.000Z</time>
      </trkpt>
      <trkpt lat="45.53288" lon="2.69201">
        <ele>989</ele>
        <time>2022-07-30T21:32:44.000Z</time>
      </trkpt>
      <trkpt lat="45.53283" lon="2.69199">
        <ele>989</ele>
        <time>2022-07-30T21:32:45.000Z</time>
      </trkpt>
      <trkpt lat="45.5328" lon="2.69195">
        <ele>989</ele>
        <time>2022-07-30T21:32:46.000Z</time>
      </trkpt>
      <trkpt lat="45.53276" lon="2.69192">
        <ele>989</ele>
        <time>2022-07-30T21:32:47.000Z</time>
      </trkpt>
      <trkpt lat="45.53272" lon="2.69189">
        <ele>989</ele>
        <time>2022-07-30T21:32:48.000Z</time>
      </trkpt>
      <trkpt lat="45.53268" lon="2.69186">
        <ele>989</ele>
        <time>2022-07-30T21:32:49.000Z</time>
      </trkpt>
      <trkpt lat="45.53263" lon="2.69182">
        <ele>989</ele>
        <time>2022-07-30T21:32:50.000Z</time>
      </trkpt>
      <trkpt lat="45.5326" lon="2.69177">
        <ele>989</ele>
        <time>2022-07-30T21:32:51.000Z</time>
      </trkpt>
      <trkpt lat="45.53257" lon="2.69172">
        <ele>989</ele>
        <time>2022-07-30T21:32:52.000Z</time>
      </trkpt>
      <trkpt lat="45.53254" lon="2.69167">
        <ele>989</ele>
        <time>2022-07-30T21:32:53.000Z</time>
      </trkpt>
      <trkpt lat="45.53251" lon="2.69162">
        <ele>989</ele>
        <time>2022-07-30T21:32:54.000Z</time>
      </trkpt>
      <trkpt lat="45.53249" lon="2.69158">
        <ele>989</ele>
        <time>2022-07-30T21:32:55.000Z</time>
      </trkpt>
      <trkpt lat="45.53248" lon="2.69156">
        <ele>994</ele>
        <time>2022-07-30T21:32:56.000Z</time>
      </trkpt>
      <trkpt lat="45.53245" lon="2.69147">
        <ele>994</ele>
        <time>2022-07-30T21:32:57.000Z</time>
      </trkpt>
      <trkpt lat="45.53243" lon="2.6914">
        <ele>994</ele>
        <time>2022-07-30T21:32:58.000Z</time>
      </trkpt>
      <trkpt lat="45.53242" lon="2.69134">
        <ele>994</ele>
        <time>2022-07-30T21:32:59.000Z</time>
      </trkpt>
      <trkpt lat="45.5324" lon="2.69126">
        <ele>994</ele>
        <time>2022-07-30T21:33:00.000Z</time>
      </trkpt>
      <trkpt lat="45.53239" lon="2.69118">
        <ele>994</ele>
        <time>2022-07-30T21:33:01.000Z</time>
      </trkpt>
      <trkpt lat="45.53238" lon="2.6911">
        <ele>994</ele>
        <time>2022-07-30T21:33:02.000Z</time>
      </trkpt>
      <trkpt lat="45.53237" lon="2.69102">
        <ele>994</ele>
        <time>2022-07-30T21:33:03.000Z</time>
      </trkpt>
      <trkpt lat="45.53236" lon="2.69095">
        <ele>994</ele>
        <time>2022-07-30T21:33:04.000Z</time>
      </trkpt>
      <trkpt lat="45.53235" lon="2.69087">
        <ele>991</ele>
        <time>2022-07-30T21:33:05.000Z</time>
      </trkpt>
      <trkpt lat="45.53235" lon="2.69081">
        <ele>991</ele>
        <time>2022-07-30T21:33:06.000Z</time>
      </trkpt>
      <trkpt lat="45.53235" lon="2.69074">
        <ele>991</ele>
        <time>2022-07-30T21:33:07.000Z</time>
      </trkpt>
      <trkpt lat="45.53236" lon="2.69071">
        <ele>991</ele>
        <time>2022-07-30T21:33:08.000Z</time>
      </trkpt>
      <trkpt lat="45.5324" lon="2.6906">
        <ele>991</ele>
        <time>2022-07-30T21:33:09.000Z</time>
      </trkpt>
      <trkpt lat="45.53235" lon="2.69061">
        <ele>991</ele>
        <time>2022-07-30T21:33:10.000Z</time>
      </trkpt>
      <trkpt lat="45.53233" lon="2.69068">
        <ele>991</ele>
        <time>2022-07-30T21:33:11.000Z</time>
      </trkpt>
      <trkpt lat="45.53231" lon="2.69074">
        <ele>991</ele>
        <time>2022-07-30T21:33:12.000Z</time>
      </trkpt>
      <trkpt lat="45.53229" lon="2.69081">
        <ele>995</ele>
        <time>2022-07-30T21:33:13.000Z</time>
      </trkpt>
      <trkpt lat="45.53227" lon="2.69088">
        <ele>995</ele>
        <time>2022-07-30T21:33:14.000Z</time>
      </trkpt>
      <trkpt lat="45.53226" lon="2.69094">
        <ele>995</ele>
        <time>2022-07-30T21:33:15.000Z</time>
      </trkpt>
      <trkpt lat="45.53223" lon="2.69103">
        <ele>995</ele>
        <time>2022-07-30T21:33:16.000Z</time>
      </trkpt>
      <trkpt lat="45.53221" lon="2.69109">
        <ele>995</ele>
        <time>2022-07-30T21:33:17.000Z</time>
      </trkpt>
      <trkpt lat="45.5322" lon="2.69116">
        <ele>995</ele>
        <time>2022-07-30T21:33:18.000Z</time>
      </trkpt>
      <trkpt lat="45.53219" lon="2.69123">
        <ele>995</ele>
        <time>2022-07-30T21:33:19.000Z</time>
      </trkpt>
      <trkpt lat="45.53219" lon="2.69129">
        <ele>995</ele>
        <time>2022-07-30T21:33:20.000Z</time>
      </trkpt>
      <trkpt lat="45.53218" lon="2.69136">
        <ele>995</ele>
        <time>2022-07-30T21:33:21.000Z</time>
      </trkpt>
      <trkpt lat="45.53218" lon="2.69143">
        <ele>995</ele>
        <time>2022-07-30T21:33:22.000Z</time>
      </trkpt>
      <trkpt lat="45.53218" lon="2.6915">
        <ele>995</ele>
        <time>2022-07-30T21:33:23.000Z</time>
      </trkpt>
      <trkpt lat="45.53219" lon="2.69157">
        <ele>996</ele>
        <time>2022-07-30T21:33:24.000Z</time>
      </trkpt>
      <trkpt lat="45.5322" lon="2.69164">
        <ele>996</ele>
        <time>2022-07-30T21:33:25.000Z</time>
      </trkpt>
      <trkpt lat="45.53221" lon="2.69171">
        <ele>996</ele>
        <time>2022-07-30T21:33:26.000Z</time>
      </trkpt>
      <trkpt lat="45.53222" lon="2.69179">
        <ele>996</ele>
        <time>2022-07-30T21:33:27.000Z</time>
      </trkpt>
      <trkpt lat="45.53224" lon="2.69186">
        <ele>996</ele>
        <time>2022-07-30T21:33:28.000Z</time>
      </trkpt>
      <trkpt lat="45.53225" lon="2.69192">
        <ele>996</ele>
        <time>2022-07-30T21:33:29.000Z</time>
      </trkpt>
      <trkpt lat="45.53226" lon="2.69199">
        <ele>996</ele>
        <time>2022-07-30T21:33:30.000Z</time>
      </trkpt>
      <trkpt lat="45.53228" lon="2.69205">
        <ele>996</ele>
        <time>2022-07-30T21:33:31.000Z</time>
      </trkpt>
      <trkpt lat="45.53229" lon="2.69212">
        <ele>996</ele>
        <time>2022-07-30T21:33:32.000Z</time>
      </trkpt>
      <trkpt lat="45.5323" lon="2.69218">
        <ele>996</ele>
        <time>2022-07-30T21:33:33.000Z</time>
      </trkpt>
      <trkpt lat="45.53232" lon="2.69225">
        <ele>996</ele>
        <time>2022-07-30T21:33:34.000Z</time>
      </trkpt>
      <trkpt lat="45.53234" lon="2.69232">
        <ele>996</ele>
        <time>2022-07-30T21:33:35.000Z</time>
      </trkpt>
      <trkpt lat="45.53236" lon="2.69239">
        <ele>996</ele>
        <time>2022-07-30T21:33:36.000Z</time>
      </trkpt>
      <trkpt lat="45.53238" lon="2.69246">
        <ele>996</ele>
        <time>2022-07-30T21:33:37.000Z</time>
      </trkpt>
      <trkpt lat="45.53238" lon="2.69256">
        <ele>996</ele>
        <time>2022-07-30T21:33:38.000Z</time>
      </trkpt>
      <trkpt lat="45.53238" lon="2.69256">
        <ele>993</ele>
        <time>2022-07-30T21:33:39.000Z</time>
      </trkpt>
      <trkpt lat="45.53239" lon="2.69258">
        <ele>993</ele>
        <time>2022-07-30T21:33:40.000Z</time>
      </trkpt>
      <trkpt lat="45.53238" lon="2.69259">
        <ele>993</ele>
        <time>2022-07-30T21:33:41.000Z</time>
      </trkpt>
      <trkpt lat="45.53238" lon="2.69266">
        <ele>993</ele>
        <time>2022-07-30T21:33:42.000Z</time>
      </trkpt>
      <trkpt lat="45.53237" lon="2.69272">
        <ele>993</ele>
        <time>2022-07-30T21:33:43.000Z</time>
      </trkpt>
      <trkpt lat="45.53237" lon="2.69279">
        <ele>987</ele>
        <time>2022-07-30T21:33:44.000Z</time>
      </trkpt>
      <trkpt lat="45.53237" lon="2.69286">
        <ele>987</ele>
        <time>2022-07-30T21:33:45.000Z</time>
      </trkpt>
      <trkpt lat="45.53237" lon="2.69292">
        <ele>987</ele>
        <time>2022-07-30T21:33:46.000Z</time>
      </trkpt>
      <trkpt lat="45.53237" lon="2.69299">
        <ele>987</ele>
        <time>2022-07-30T21:33:47.000Z</time>
      </trkpt>
      <trkpt lat="45.53237" lon="2.69306">
        <ele>987</ele>
        <time>2022-07-30T21:33:48.000Z</time>
      </trkpt>
      <trkpt lat="45.53237" lon="2.69312">
        <ele>987</ele>
        <time>2022-07-30T21:33:49.000Z</time>
      </trkpt>
      <trkpt lat="45.53237" lon="2.69319">
        <ele>987</ele>
        <time>2022-07-30T21:33:50.000Z</time>
      </trkpt>
      <trkpt lat="45.53238" lon="2.69325">
        <ele>987</ele>
        <time>2022-07-30T21:33:51.000Z</time>
      </trkpt>
      <trkpt lat="45.53238" lon="2.69332">
        <ele>987</ele>
        <time>2022-07-30T21:33:52.000Z</time>
      </trkpt>
      <trkpt lat="45.53238" lon="2.69339">
        <ele>987</ele>
        <time>2022-07-30T21:33:53.000Z</time>
      </trkpt>
      <trkpt lat="45.53238" lon="2.69346">
        <ele>987</ele>
        <time>2022-07-30T21:33:54.000Z</time>
      </trkpt>
      <trkpt lat="45.53238" lon="2.69354">
        <ele>987</ele>
        <time>2022-07-30T21:33:55.000Z</time>
      </trkpt>
      <trkpt lat="45.53239" lon="2.69361">
        <ele>987</ele>
        <time>2022-07-30T21:33:56.000Z</time>
      </trkpt>
      <trkpt lat="45.53239" lon="2.69368">
        <ele>987</ele>
        <time>2022-07-30T21:33:57.000Z</time>
      </trkpt>
      <trkpt lat="45.53239" lon="2.69375">
        <ele>985</ele>
        <time>2022-07-30T21:33:58.000Z</time>
      </trkpt>
      <trkpt lat="45.53239" lon="2.69382">
        <ele>985</ele>
        <time>2022-07-30T21:33:59.000Z</time>
      </trkpt>
      <trkpt lat="45.53239" lon="2.69389">
        <ele>985</ele>
        <time>2022-07-30T21:34:00.000Z</time>
      </trkpt>
      <trkpt lat="45.53239" lon="2.69395">
        <ele>985</ele>
        <time>2022-07-30T21:34:01.000Z</time>
      </trkpt>
      <trkpt lat="45.53239" lon="2.69402">
        <ele>985</ele>
        <time>2022-07-30T21:34:02.000Z</time>
      </trkpt>
      <trkpt lat="45.53239" lon="2.69409">
        <ele>985</ele>
        <time>2022-07-30T21:34:03.000Z</time>
      </trkpt>
      <trkpt lat="45.53239" lon="2.69416">
        <ele>985</ele>
        <time>2022-07-30T21:34:04.000Z</time>
      </trkpt>
      <trkpt lat="45.53239" lon="2.69424">
        <ele>985</ele>
        <time>2022-07-30T21:34:05.000Z</time>
      </trkpt>
      <trkpt lat="45.53239" lon="2.69432">
        <ele>985</ele>
        <time>2022-07-30T21:34:06.000Z</time>
      </trkpt>
      <trkpt lat="45.53238" lon="2.69438">
        <ele>985</ele>
        <time>2022-07-30T21:34:07.000Z</time>
      </trkpt>
      <trkpt lat="45.53236" lon="2.69445">
        <ele>985</ele>
        <time>2022-07-30T21:34:08.000Z</time>
      </trkpt>
      <trkpt lat="45.53235" lon="2.69451">
        <ele>985</ele>
        <time>2022-07-30T21:34:09.000Z</time>
      </trkpt>
      <trkpt lat="45.53233" lon="2.69457">
        <ele>985</ele>
        <time>2022-07-30T21:34:10.000Z</time>
      </trkpt>
      <trkpt lat="45.53232" lon="2.69463">
        <ele>985</ele>
        <time>2022-07-30T21:34:11.000Z</time>
      </trkpt>
      <trkpt lat="45.53231" lon="2.6947">
        <ele>985</ele>
        <time>2022-07-30T21:34:12.000Z</time>
      </trkpt>
      <trkpt lat="45.53231" lon="2.69477">
        <ele>985</ele>
        <time>2022-07-30T21:34:13.000Z</time>
      </trkpt>
      <trkpt lat="45.53231" lon="2.69483">
        <ele>981</ele>
        <time>2022-07-30T21:34:14.000Z</time>
      </trkpt>
      <trkpt lat="45.53232" lon="2.6949">
        <ele>981</ele>
        <time>2022-07-30T21:34:15.000Z</time>
      </trkpt>
      <trkpt lat="45.53232" lon="2.69497">
        <ele>981</ele>
        <time>2022-07-30T21:34:16.000Z</time>
      </trkpt>
      <trkpt lat="45.53231" lon="2.69504">
        <ele>981</ele>
        <time>2022-07-30T21:34:17.000Z</time>
      </trkpt>
      <trkpt lat="45.5323" lon="2.69512">
        <ele>981</ele>
        <time>2022-07-30T21:34:18.000Z</time>
      </trkpt>
      <trkpt lat="45.53229" lon="2.69519">
        <ele>981</ele>
        <time>2022-07-30T21:34:19.000Z</time>
      </trkpt>
      <trkpt lat="45.53227" lon="2.6953">
        <ele>981</ele>
        <time>2022-07-30T21:34:20.000Z</time>
      </trkpt>
      <trkpt lat="45.53222" lon="2.69535">
        <ele>981</ele>
        <time>2022-07-30T21:34:21.000Z</time>
      </trkpt>
      <trkpt lat="45.53217" lon="2.69539">
        <ele>981</ele>
        <time>2022-07-30T21:34:22.000Z</time>
      </trkpt>
      <trkpt lat="45.53213" lon="2.69543">
        <ele>981</ele>
        <time>2022-07-30T21:34:23.000Z</time>
      </trkpt>
      <trkpt lat="45.53206" lon="2.69551">
        <ele>985</ele>
        <time>2022-07-30T21:34:24.000Z</time>
      </trkpt>
      <trkpt lat="45.53201" lon="2.69552">
        <ele>985</ele>
        <time>2022-07-30T21:34:25.000Z</time>
      </trkpt>
      <trkpt lat="45.53196" lon="2.69553">
        <ele>985</ele>
        <time>2022-07-30T21:34:26.000Z</time>
      </trkpt>
      <trkpt lat="45.53194" lon="2.69559">
        <ele>985</ele>
        <time>2022-07-30T21:34:27.000Z</time>
      </trkpt>
      <trkpt lat="45.53192" lon="2.69564">
        <ele>985</ele>
        <time>2022-07-30T21:34:28.000Z</time>
      </trkpt>
      <trkpt lat="45.5319" lon="2.6957">
        <ele>985</ele>
        <time>2022-07-30T21:34:29.000Z</time>
      </trkpt>
      <trkpt lat="45.53187" lon="2.69576">
        <ele>985</ele>
        <time>2022-07-30T21:34:30.000Z</time>
      </trkpt>
      <trkpt lat="45.53185" lon="2.69581">
        <ele>985</ele>
        <time>2022-07-30T21:34:31.000Z</time>
      </trkpt>
      <trkpt lat="45.53183" lon="2.69587">
        <ele>985</ele>
        <time>2022-07-30T21:34:32.000Z</time>
      </trkpt>
      <trkpt lat="45.53181" lon="2.69593">
        <ele>985</ele>
        <time>2022-07-30T21:34:33.000Z</time>
      </trkpt>
      <trkpt lat="45.53178" lon="2.69598">
        <ele>985</ele>
        <time>2022-07-30T21:34:34.000Z</time>
      </trkpt>
      <trkpt lat="45.53176" lon="2.69604">
        <ele>985</ele>
        <time>2022-07-30T21:34:35.000Z</time>
      </trkpt>
      <trkpt lat="45.53174" lon="2.69609">
        <ele>985</ele>
        <time>2022-07-30T21:34:36.000Z</time>
      </trkpt>
      <trkpt lat="45.53171" lon="2.69615">
        <ele>985</ele>
        <time>2022-07-30T21:34:37.000Z</time>
      </trkpt>
      <trkpt lat="45.53169" lon="2.69621">
        <ele>987</ele>
        <time>2022-07-30T21:34:38.000Z</time>
      </trkpt>
      <trkpt lat="45.53167" lon="2.69626">
        <ele>987</ele>
        <time>2022-07-30T21:34:39.000Z</time>
      </trkpt>
      <trkpt lat="45.53165" lon="2.69632">
        <ele>987</ele>
        <time>2022-07-30T21:34:40.000Z</time>
      </trkpt>
      <trkpt lat="45.53162" lon="2.69638">
        <ele>987</ele>
        <time>2022-07-30T21:34:41.000Z</time>
      </trkpt>
      <trkpt lat="45.5316" lon="2.69643">
        <ele>987</ele>
        <time>2022-07-30T21:34:42.000Z</time>
      </trkpt>
      <trkpt lat="45.53158" lon="2.69649">
        <ele>987</ele>
        <time>2022-07-30T21:34:43.000Z</time>
      </trkpt>
      <trkpt lat="45.53156" lon="2.69656">
        <ele>987</ele>
        <time>2022-07-30T21:34:44.000Z</time>
      </trkpt>
      <trkpt lat="45.53154" lon="2.69664">
        <ele>987</ele>
        <time>2022-07-30T21:34:45.000Z</time>
      </trkpt>
      <trkpt lat="45.53152" lon="2.69671">
        <ele>987</ele>
        <time>2022-07-30T21:34:46.000Z</time>
      </trkpt>
      <trkpt lat="45.5315" lon="2.69678">
        <ele>987</ele>
        <time>2022-07-30T21:34:47.000Z</time>
      </trkpt>
      <trkpt lat="45.5315" lon="2.69685">
        <ele>987</ele>
        <time>2022-07-30T21:34:48.000Z</time>
      </trkpt>
      <trkpt lat="45.5315" lon="2.69692">
        <ele>987</ele>
        <time>2022-07-30T21:34:49.000Z</time>
      </trkpt>
      <trkpt lat="45.53151" lon="2.69698">
        <ele>987</ele>
        <time>2022-07-30T21:34:50.000Z</time>
      </trkpt>
      <trkpt lat="45.53151" lon="2.69705">
        <ele>982</ele>
        <time>2022-07-30T21:34:51.000Z</time>
      </trkpt>
      <trkpt lat="45.53151" lon="2.69712">
        <ele>982</ele>
        <time>2022-07-30T21:34:52.000Z</time>
      </trkpt>
      <trkpt lat="45.53151" lon="2.69718">
        <ele>982</ele>
        <time>2022-07-30T21:34:53.000Z</time>
      </trkpt>
      <trkpt lat="45.53151" lon="2.69725">
        <ele>982</ele>
        <time>2022-07-30T21:34:54.000Z</time>
      </trkpt>
      <trkpt lat="45.53151" lon="2.69732">
        <ele>982</ele>
        <time>2022-07-30T21:34:55.000Z</time>
      </trkpt>
      <trkpt lat="45.53149" lon="2.69737">
        <ele>982</ele>
        <time>2022-07-30T21:34:56.000Z</time>
      </trkpt>
      <trkpt lat="45.53147" lon="2.69743">
        <ele>982</ele>
        <time>2022-07-30T21:34:57.000Z</time>
      </trkpt>
      <trkpt lat="45.53144" lon="2.69749">
        <ele>982</ele>
        <time>2022-07-30T21:34:58.000Z</time>
      </trkpt>
      <trkpt lat="45.53142" lon="2.69754">
        <ele>982</ele>
        <time>2022-07-30T21:34:59.000Z</time>
      </trkpt>
      <trkpt lat="45.53139" lon="2.6976">
        <ele>982</ele>
        <time>2022-07-30T21:35:00.000Z</time>
      </trkpt>
      <trkpt lat="45.53133" lon="2.69766">
        <ele>982</ele>
        <time>2022-07-30T21:35:01.000Z</time>
      </trkpt>
      <trkpt lat="45.53127" lon="2.69773">
        <ele>982</ele>
        <time>2022-07-30T21:35:02.000Z</time>
      </trkpt>
      <trkpt lat="45.53125" lon="2.69774">
        <ele>982</ele>
        <time>2022-07-30T21:35:03.000Z</time>
      </trkpt>
      <trkpt lat="45.53121" lon="2.69776">
        <ele>982</ele>
        <time>2022-07-30T21:35:04.000Z</time>
      </trkpt>
      <trkpt lat="45.53116" lon="2.69777">
        <ele>982</ele>
        <time>2022-07-30T21:35:05.000Z</time>
      </trkpt>
      <trkpt lat="45.53112" lon="2.69778">
        <ele>975</ele>
        <time>2022-07-30T21:35:06.000Z</time>
      </trkpt>
      <trkpt lat="45.53107" lon="2.6978">
        <ele>975</ele>
        <time>2022-07-30T21:35:07.000Z</time>
      </trkpt>
      <trkpt lat="45.53099" lon="2.69779">
        <ele>975</ele>
        <time>2022-07-30T21:35:08.000Z</time>
      </trkpt>
      <trkpt lat="45.53097" lon="2.69785">
        <ele>975</ele>
        <time>2022-07-30T21:35:09.000Z</time>
      </trkpt>
      <trkpt lat="45.53094" lon="2.69791">
        <ele>975</ele>
        <time>2022-07-30T21:35:10.000Z</time>
      </trkpt>
      <trkpt lat="45.53092" lon="2.69797">
        <ele>975</ele>
        <time>2022-07-30T21:35:11.000Z</time>
      </trkpt>
      <trkpt lat="45.53089" lon="2.69803">
        <ele>975</ele>
        <time>2022-07-30T21:35:12.000Z</time>
      </trkpt>
      <trkpt lat="45.53087" lon="2.69809">
        <ele>975</ele>
        <time>2022-07-30T21:35:13.000Z</time>
      </trkpt>
      <trkpt lat="45.53084" lon="2.69815">
        <ele>975</ele>
        <time>2022-07-30T21:35:14.000Z</time>
      </trkpt>
      <trkpt lat="45.53082" lon="2.69821">
        <ele>975</ele>
        <time>2022-07-30T21:35:15.000Z</time>
      </trkpt>
      <trkpt lat="45.53079" lon="2.69826">
        <ele>975</ele>
        <time>2022-07-30T21:35:16.000Z</time>
      </trkpt>
      <trkpt lat="45.53076" lon="2.69831">
        <ele>975</ele>
        <time>2022-07-30T21:35:17.000Z</time>
      </trkpt>
      <trkpt lat="45.53073" lon="2.69836">
        <ele>968</ele>
        <time>2022-07-30T21:35:18.000Z</time>
      </trkpt>
      <trkpt lat="45.5307" lon="2.69841">
        <ele>968</ele>
        <time>2022-07-30T21:35:19.000Z</time>
      </trkpt>
      <trkpt lat="45.53067" lon="2.69846">
        <ele>968</ele>
        <time>2022-07-30T21:35:20.000Z</time>
      </trkpt>
      <trkpt lat="45.53064" lon="2.69851">
        <ele>968</ele>
        <time>2022-07-30T21:35:21.000Z</time>
      </trkpt>
      <trkpt lat="45.53061" lon="2.69855">
        <ele>968</ele>
        <time>2022-07-30T21:35:22.000Z</time>
      </trkpt>
      <trkpt lat="45.53058" lon="2.6986">
        <ele>968</ele>
        <time>2022-07-30T21:35:23.000Z</time>
      </trkpt>
      <trkpt lat="45.53055" lon="2.69865">
        <ele>968</ele>
        <time>2022-07-30T21:35:24.000Z</time>
      </trkpt>
      <trkpt lat="45.53051" lon="2.69869">
        <ele>968</ele>
        <time>2022-07-30T21:35:25.000Z</time>
      </trkpt>
      <trkpt lat="45.53047" lon="2.69874">
        <ele>968</ele>
        <time>2022-07-30T21:35:26.000Z</time>
      </trkpt>
      <trkpt lat="45.53043" lon="2.69878">
        <ele>968</ele>
        <time>2022-07-30T21:35:27.000Z</time>
      </trkpt>
      <trkpt lat="45.5304" lon="2.69882">
        <ele>968</ele>
        <time>2022-07-30T21:35:28.000Z</time>
      </trkpt>
      <trkpt lat="45.53036" lon="2.69886">
        <ele>968</ele>
        <time>2022-07-30T21:35:29.000Z</time>
      </trkpt>
      <trkpt lat="45.53032" lon="2.6989">
        <ele>968</ele>
        <time>2022-07-30T21:35:30.000Z</time>
      </trkpt>
      <trkpt lat="45.53028" lon="2.69895">
        <ele>966</ele>
        <time>2022-07-30T21:35:31.000Z</time>
      </trkpt>
      <trkpt lat="45.53024" lon="2.69898">
        <ele>966</ele>
        <time>2022-07-30T21:35:32.000Z</time>
      </trkpt>
      <trkpt lat="45.5302" lon="2.69901">
        <ele>966</ele>
        <time>2022-07-30T21:35:33.000Z</time>
      </trkpt>
      <trkpt lat="45.53015" lon="2.69904">
        <ele>966</ele>
        <time>2022-07-30T21:35:34.000Z</time>
      </trkpt>
      <trkpt lat="45.53011" lon="2.69907">
        <ele>966</ele>
        <time>2022-07-30T21:35:35.000Z</time>
      </trkpt>
      <trkpt lat="45.53006" lon="2.6991">
        <ele>966</ele>
        <time>2022-07-30T21:35:36.000Z</time>
      </trkpt>
      <trkpt lat="45.53002" lon="2.69912">
        <ele>943</ele>
        <time>2022-07-30T21:35:37.000Z</time>
      </trkpt>
      <trkpt lat="45.52997" lon="2.69914">
        <ele>943</ele>
        <time>2022-07-30T21:35:38.000Z</time>
      </trkpt>
      <trkpt lat="45.52993" lon="2.69917">
        <ele>943</ele>
        <time>2022-07-30T21:35:39.000Z</time>
      </trkpt>
      <trkpt lat="45.52988" lon="2.69919">
        <ele>943</ele>
        <time>2022-07-30T21:35:40.000Z</time>
      </trkpt>
      <trkpt lat="45.52984" lon="2.69921">
        <ele>943</ele>
        <time>2022-07-30T21:35:41.000Z</time>
      </trkpt>
      <trkpt lat="45.52979" lon="2.69923">
        <ele>943</ele>
        <time>2022-07-30T21:35:42.000Z</time>
      </trkpt>
      <trkpt lat="45.52975" lon="2.69925">
        <ele>943</ele>
        <time>2022-07-30T21:35:43.000Z</time>
      </trkpt>
      <trkpt lat="45.5297" lon="2.69927">
        <ele>943</ele>
        <time>2022-07-30T21:35:44.000Z</time>
      </trkpt>
      <trkpt lat="45.52966" lon="2.69929">
        <ele>943</ele>
        <time>2022-07-30T21:35:45.000Z</time>
      </trkpt>
      <trkpt lat="45.52961" lon="2.69931">
        <ele>943</ele>
        <time>2022-07-30T21:35:46.000Z</time>
      </trkpt>
      <trkpt lat="45.52957" lon="2.69933">
        <ele>943</ele>
        <time>2022-07-30T21:35:47.000Z</time>
      </trkpt>
      <trkpt lat="45.52952" lon="2.69935">
        <ele>947</ele>
        <time>2022-07-30T21:35:48.000Z</time>
      </trkpt>
      <trkpt lat="45.52947" lon="2.69937">
        <ele>947</ele>
        <time>2022-07-30T21:35:49.000Z</time>
      </trkpt>
      <trkpt lat="45.52943" lon="2.69939">
        <ele>947</ele>
        <time>2022-07-30T21:35:50.000Z</time>
      </trkpt>
      <trkpt lat="45.52938" lon="2.69941">
        <ele>947</ele>
        <time>2022-07-30T21:35:51.000Z</time>
      </trkpt>
      <trkpt lat="45.52934" lon="2.69943">
        <ele>947</ele>
        <time>2022-07-30T21:35:52.000Z</time>
      </trkpt>
      <trkpt lat="45.52929" lon="2.69945">
        <ele>947</ele>
        <time>2022-07-30T21:35:53.000Z</time>
      </trkpt>
      <trkpt lat="45.52925" lon="2.69947">
        <ele>947</ele>
        <time>2022-07-30T21:35:54.000Z</time>
      </trkpt>
      <trkpt lat="45.5292" lon="2.69949">
        <ele>947</ele>
        <time>2022-07-30T21:35:55.000Z</time>
      </trkpt>
      <trkpt lat="45.52916" lon="2.69952">
        <ele>947</ele>
        <time>2022-07-30T21:35:56.000Z</time>
      </trkpt>
      <trkpt lat="45.52911" lon="2.69954">
        <ele>947</ele>
        <time>2022-07-30T21:35:57.000Z</time>
      </trkpt>
      <trkpt lat="45.52906" lon="2.69956">
        <ele>947</ele>
        <time>2022-07-30T21:35:58.000Z</time>
      </trkpt>
      <trkpt lat="45.52901" lon="2.69957">
        <ele>947</ele>
        <time>2022-07-30T21:35:59.000Z</time>
      </trkpt>
      <trkpt lat="45.52897" lon="2.69959">
        <ele>947</ele>
        <time>2022-07-30T21:36:00.000Z</time>
      </trkpt>
      <trkpt lat="45.52892" lon="2.69961">
        <ele>951</ele>
        <time>2022-07-30T21:36:01.000Z</time>
      </trkpt>
      <trkpt lat="45.52887" lon="2.69963">
        <ele>951</ele>
        <time>2022-07-30T21:36:02.000Z</time>
      </trkpt>
      <trkpt lat="45.52881" lon="2.69964">
        <ele>951</ele>
        <time>2022-07-30T21:36:03.000Z</time>
      </trkpt>
      <trkpt lat="45.52876" lon="2.69965">
        <ele>951</ele>
        <time>2022-07-30T21:36:04.000Z</time>
      </trkpt>
      <trkpt lat="45.52871" lon="2.69966">
        <ele>951</ele>
        <time>2022-07-30T21:36:05.000Z</time>
      </trkpt>
      <trkpt lat="45.52864" lon="2.69967">
        <ele>951</ele>
        <time>2022-07-30T21:36:06.000Z</time>
      </trkpt>
      <trkpt lat="45.52858" lon="2.69968">
        <ele>951</ele>
        <time>2022-07-30T21:36:07.000Z</time>
      </trkpt>
      <trkpt lat="45.52853" lon="2.69969">
        <ele>951</ele>
        <time>2022-07-30T21:36:08.000Z</time>
      </trkpt>
      <trkpt lat="45.52848" lon="2.6997">
        <ele>951</ele>
        <time>2022-07-30T21:36:09.000Z</time>
      </trkpt>
      <trkpt lat="45.52844" lon="2.6997">
        <ele>951</ele>
        <time>2022-07-30T21:36:10.000Z</time>
      </trkpt>
      <trkpt lat="45.52839" lon="2.69971">
        <ele>951</ele>
        <time>2022-07-30T21:36:11.000Z</time>
      </trkpt>
      <trkpt lat="45.52834" lon="2.69972">
        <ele>951</ele>
        <time>2022-07-30T21:36:12.000Z</time>
      </trkpt>
      <trkpt lat="45.5283" lon="2.69972">
        <ele>951</ele>
        <time>2022-07-30T21:36:13.000Z</time>
      </trkpt>
      <trkpt lat="45.52823" lon="2.69973">
        <ele>952</ele>
        <time>2022-07-30T21:36:14.000Z</time>
      </trkpt>
      <trkpt lat="45.52817" lon="2.69974">
        <ele>952</ele>
        <time>2022-07-30T21:36:15.000Z</time>
      </trkpt>
      <trkpt lat="45.52813" lon="2.69975">
        <ele>932</ele>
        <time>2022-07-30T21:36:16.000Z</time>
      </trkpt>
      <trkpt lat="45.52808" lon="2.69976">
        <ele>932</ele>
        <time>2022-07-30T21:36:17.000Z</time>
      </trkpt>
      <trkpt lat="45.52803" lon="2.69977">
        <ele>932</ele>
        <time>2022-07-30T21:36:18.000Z</time>
      </trkpt>
      <trkpt lat="45.52804" lon="2.69971">
        <ele>932</ele>
        <time>2022-07-30T21:36:19.000Z</time>
      </trkpt>
      <trkpt lat="45.52805" lon="2.69964">
        <ele>932</ele>
        <time>2022-07-30T21:36:20.000Z</time>
      </trkpt>
      <trkpt lat="45.52806" lon="2.69957">
        <ele>932</ele>
        <time>2022-07-30T21:36:21.000Z</time>
      </trkpt>
      <trkpt lat="45.52808" lon="2.69951">
        <ele>932</ele>
        <time>2022-07-30T21:36:22.000Z</time>
      </trkpt>
      <trkpt lat="45.5281" lon="2.69944">
        <ele>932</ele>
        <time>2022-07-30T21:36:23.000Z</time>
      </trkpt>
      <trkpt lat="45.52813" lon="2.69938">
        <ele>932</ele>
        <time>2022-07-30T21:36:24.000Z</time>
      </trkpt>
      <trkpt lat="45.52815" lon="2.69933">
        <ele>932</ele>
        <time>2022-07-30T21:36:25.000Z</time>
      </trkpt>
      <trkpt lat="45.52817" lon="2.69927">
        <ele>932</ele>
        <time>2022-07-30T21:36:26.000Z</time>
      </trkpt>
      <trkpt lat="45.52819" lon="2.69921">
        <ele>932</ele>
        <time>2022-07-30T21:36:27.000Z</time>
      </trkpt>
      <trkpt lat="45.52822" lon="2.69914">
        <ele>932</ele>
        <time>2022-07-30T21:36:28.000Z</time>
      </trkpt>
      <trkpt lat="45.52825" lon="2.69908">
        <ele>932</ele>
        <time>2022-07-30T21:36:29.000Z</time>
      </trkpt>
      <trkpt lat="45.52828" lon="2.69902">
        <ele>932</ele>
        <time>2022-07-30T21:36:30.000Z</time>
      </trkpt>
      <trkpt lat="45.52829" lon="2.69895">
        <ele>932</ele>
        <time>2022-07-30T21:36:31.000Z</time>
      </trkpt>
      <trkpt lat="45.5283" lon="2.69889">
        <ele>932</ele>
        <time>2022-07-30T21:36:32.000Z</time>
      </trkpt>
      <trkpt lat="45.52832" lon="2.69883">
        <ele>932</ele>
        <time>2022-07-30T21:36:33.000Z</time>
      </trkpt>
      <trkpt lat="45.52833" lon="2.69876">
        <ele>932</ele>
        <time>2022-07-30T21:36:34.000Z</time>
      </trkpt>
      <trkpt lat="45.52834" lon="2.69868">
        <ele>932</ele>
        <time>2022-07-30T21:36:35.000Z</time>
      </trkpt>
      <trkpt lat="45.52834" lon="2.69861">
        <ele>941</ele>
        <time>2022-07-30T21:36:36.000Z</time>
      </trkpt>
      <trkpt lat="45.52835" lon="2.69853">
        <ele>941</ele>
        <time>2022-07-30T21:36:37.000Z</time>
      </trkpt>
      <trkpt lat="45.52835" lon="2.69845">
        <ele>941</ele>
        <time>2022-07-30T21:36:38.000Z</time>
      </trkpt>
      <trkpt lat="45.52836" lon="2.69838">
        <ele>941</ele>
        <time>2022-07-30T21:36:39.000Z</time>
      </trkpt>
      <trkpt lat="45.52836" lon="2.6983">
        <ele>941</ele>
        <time>2022-07-30T21:36:40.000Z</time>
      </trkpt>
      <trkpt lat="45.52837" lon="2.69822">
        <ele>941</ele>
        <time>2022-07-30T21:36:41.000Z</time>
      </trkpt>
      <trkpt lat="45.52837" lon="2.69815">
        <ele>937</ele>
        <time>2022-07-30T21:36:42.000Z</time>
      </trkpt>
      <trkpt lat="45.52837" lon="2.69807">
        <ele>937</ele>
        <time>2022-07-30T21:36:43.000Z</time>
      </trkpt>
      <trkpt lat="45.52837" lon="2.698">
        <ele>937</ele>
        <time>2022-07-30T21:36:44.000Z</time>
      </trkpt>
      <trkpt lat="45.52836" lon="2.69793">
        <ele>937</ele>
        <time>2022-07-30T21:36:45.000Z</time>
      </trkpt>
      <trkpt lat="45.52836" lon="2.69786">
        <ele>937</ele>
        <time>2022-07-30T21:36:46.000Z</time>
      </trkpt>
      <trkpt lat="45.52834" lon="2.69777">
        <ele>937</ele>
        <time>2022-07-30T21:36:47.000Z</time>
      </trkpt>
      <trkpt lat="45.52833" lon="2.69771">
        <ele>937</ele>
        <time>2022-07-30T21:36:48.000Z</time>
      </trkpt>
      <trkpt lat="45.52832" lon="2.69763">
        <ele>937</ele>
        <time>2022-07-30T21:36:49.000Z</time>
      </trkpt>
      <trkpt lat="45.52829" lon="2.69756">
        <ele>937</ele>
        <time>2022-07-30T21:36:50.000Z</time>
      </trkpt>
      <trkpt lat="45.52826" lon="2.69748">
        <ele>937</ele>
        <time>2022-07-30T21:36:51.000Z</time>
      </trkpt>
      <trkpt lat="45.52826" lon="2.69748">
        <ele>937</ele>
        <time>2022-07-30T21:36:52.000Z</time>
      </trkpt>
      <trkpt lat="45.52821" lon="2.69744">
        <ele>937</ele>
        <time>2022-07-30T21:36:53.000Z</time>
      </trkpt>
      <trkpt lat="45.52817" lon="2.6974">
        <ele>937</ele>
        <time>2022-07-30T21:36:54.000Z</time>
      </trkpt>
      <trkpt lat="45.52811" lon="2.69735">
        <ele>937</ele>
        <time>2022-07-30T21:36:55.000Z</time>
      </trkpt>
      <trkpt lat="45.52805" lon="2.69731">
        <ele>937</ele>
        <time>2022-07-30T21:36:56.000Z</time>
      </trkpt>
      <trkpt lat="45.52801" lon="2.69722">
        <ele>937</ele>
        <time>2022-07-30T21:36:57.000Z</time>
      </trkpt>
      <trkpt lat="45.528" lon="2.69712">
        <ele>937</ele>
        <time>2022-07-30T21:36:58.000Z</time>
      </trkpt>
      <trkpt lat="45.52805" lon="2.69708">
        <ele>937</ele>
        <time>2022-07-30T21:36:59.000Z</time>
      </trkpt>
      <trkpt lat="45.52809" lon="2.69705">
        <ele>928</ele>
        <time>2022-07-30T21:37:00.000Z</time>
      </trkpt>
      <trkpt lat="45.52813" lon="2.69701">
        <ele>928</ele>
        <time>2022-07-30T21:37:01.000Z</time>
      </trkpt>
      <trkpt lat="45.52816" lon="2.69695">
        <ele>928</ele>
        <time>2022-07-30T21:37:02.000Z</time>
      </trkpt>
      <trkpt lat="45.52819" lon="2.69689">
        <ele>928</ele>
        <time>2022-07-30T21:37:03.000Z</time>
      </trkpt>
      <trkpt lat="45.52822" lon="2.69684">
        <ele>928</ele>
        <time>2022-07-30T21:37:04.000Z</time>
      </trkpt>
      <trkpt lat="45.52824" lon="2.69678">
        <ele>928</ele>
        <time>2022-07-30T21:37:05.000Z</time>
      </trkpt>
      <trkpt lat="45.52827" lon="2.69672">
        <ele>928</ele>
        <time>2022-07-30T21:37:06.000Z</time>
      </trkpt>
      <trkpt lat="45.52829" lon="2.69666">
        <ele>928</ele>
        <time>2022-07-30T21:37:07.000Z</time>
      </trkpt>
      <trkpt lat="45.5283" lon="2.6966">
        <ele>928</ele>
        <time>2022-07-30T21:37:08.000Z</time>
      </trkpt>
      <trkpt lat="45.52831" lon="2.69653">
        <ele>928</ele>
        <time>2022-07-30T21:37:09.000Z</time>
      </trkpt>
      <trkpt lat="45.52834" lon="2.69649">
        <ele>928</ele>
        <time>2022-07-30T21:37:10.000Z</time>
      </trkpt>
      <trkpt lat="45.52838" lon="2.69645">
        <ele>928</ele>
        <time>2022-07-30T21:37:11.000Z</time>
      </trkpt>
      <trkpt lat="45.52841" lon="2.6964">
        <ele>928</ele>
        <time>2022-07-30T21:37:12.000Z</time>
      </trkpt>
      <trkpt lat="45.52845" lon="2.69636">
        <ele>928</ele>
        <time>2022-07-30T21:37:13.000Z</time>
      </trkpt>
      <trkpt lat="45.52844" lon="2.69624">
        <ele>928</ele>
        <time>2022-07-30T21:37:14.000Z</time>
      </trkpt>
      <trkpt lat="45.52843" lon="2.69616">
        <ele>928</ele>
        <time>2022-07-30T21:37:15.000Z</time>
      </trkpt>
      <trkpt lat="45.52841" lon="2.69608">
        <ele>928</ele>
        <time>2022-07-30T21:37:16.000Z</time>
      </trkpt>
      <trkpt lat="45.5284" lon="2.696">
        <ele>928</ele>
        <time>2022-07-30T21:37:17.000Z</time>
      </trkpt>
      <trkpt lat="45.52841" lon="2.69593">
        <ele>924</ele>
        <time>2022-07-30T21:37:18.000Z</time>
      </trkpt>
      <trkpt lat="45.52841" lon="2.69585">
        <ele>924</ele>
        <time>2022-07-30T21:37:19.000Z</time>
      </trkpt>
      <trkpt lat="45.52841" lon="2.69578">
        <ele>924</ele>
        <time>2022-07-30T21:37:20.000Z</time>
      </trkpt>
      <trkpt lat="45.52842" lon="2.69571">
        <ele>924</ele>
        <time>2022-07-30T21:37:21.000Z</time>
      </trkpt>
      <trkpt lat="45.52844" lon="2.69565">
        <ele>924</ele>
        <time>2022-07-30T21:37:22.000Z</time>
      </trkpt>
      <trkpt lat="45.52846" lon="2.69559">
        <ele>924</ele>
        <time>2022-07-30T21:37:23.000Z</time>
      </trkpt>
      <trkpt lat="45.52848" lon="2.69553">
        <ele>924</ele>
        <time>2022-07-30T21:37:24.000Z</time>
      </trkpt>
      <trkpt lat="45.5285" lon="2.69547">
        <ele>924</ele>
        <time>2022-07-30T21:37:25.000Z</time>
      </trkpt>
      <trkpt lat="45.52852" lon="2.6954">
        <ele>924</ele>
        <time>2022-07-30T21:37:26.000Z</time>
      </trkpt>
      <trkpt lat="45.52854" lon="2.69534">
        <ele>924</ele>
        <time>2022-07-30T21:37:27.000Z</time>
      </trkpt>
      <trkpt lat="45.52856" lon="2.69528">
        <ele>924</ele>
        <time>2022-07-30T21:37:28.000Z</time>
      </trkpt>
      <trkpt lat="45.52858" lon="2.69522">
        <ele>924</ele>
        <time>2022-07-30T21:37:29.000Z</time>
      </trkpt>
      <trkpt lat="45.52859" lon="2.69516">
        <ele>924</ele>
        <time>2022-07-30T21:37:30.000Z</time>
      </trkpt>
      <trkpt lat="45.52861" lon="2.6951">
        <ele>924</ele>
        <time>2022-07-30T21:37:31.000Z</time>
      </trkpt>
      <trkpt lat="45.52863" lon="2.69504">
        <ele>924</ele>
        <time>2022-07-30T21:37:32.000Z</time>
      </trkpt>
      <trkpt lat="45.52864" lon="2.69496">
        <ele>924</ele>
        <time>2022-07-30T21:37:33.000Z</time>
      </trkpt>
      <trkpt lat="45.52866" lon="2.69489">
        <ele>924</ele>
        <time>2022-07-30T21:37:34.000Z</time>
      </trkpt>
      <trkpt lat="45.52867" lon="2.69481">
        <ele>924</ele>
        <time>2022-07-30T21:37:35.000Z</time>
      </trkpt>
      <trkpt lat="45.52868" lon="2.69474">
        <ele>924</ele>
        <time>2022-07-30T21:37:36.000Z</time>
      </trkpt>
      <trkpt lat="45.52868" lon="2.69466">
        <ele>924</ele>
        <time>2022-07-30T21:37:37.000Z</time>
      </trkpt>
      <trkpt lat="45.52867" lon="2.69458">
        <ele>924</ele>
        <time>2022-07-30T21:37:38.000Z</time>
      </trkpt>
      <trkpt lat="45.52867" lon="2.6945">
        <ele>924</ele>
        <time>2022-07-30T21:37:39.000Z</time>
      </trkpt>
      <trkpt lat="45.52866" lon="2.69444">
        <ele>924</ele>
        <time>2022-07-30T21:37:40.000Z</time>
      </trkpt>
      <trkpt lat="45.52865" lon="2.69437">
        <ele>924</ele>
        <time>2022-07-30T21:37:41.000Z</time>
      </trkpt>
      <trkpt lat="45.52864" lon="2.69431">
        <ele>924</ele>
        <time>2022-07-30T21:37:42.000Z</time>
      </trkpt>
      <trkpt lat="45.52863" lon="2.69424">
        <ele>924</ele>
        <time>2022-07-30T21:37:43.000Z</time>
      </trkpt>
      <trkpt lat="45.52863" lon="2.69418">
        <ele>924</ele>
        <time>2022-07-30T21:37:44.000Z</time>
      </trkpt>
      <trkpt lat="45.52864" lon="2.6941">
        <ele>924</ele>
        <time>2022-07-30T21:37:45.000Z</time>
      </trkpt>
      <trkpt lat="45.52866" lon="2.69402">
        <ele>924</ele>
        <time>2022-07-30T21:37:46.000Z</time>
      </trkpt>
      <trkpt lat="45.52869" lon="2.69398">
        <ele>924</ele>
        <time>2022-07-30T21:37:47.000Z</time>
      </trkpt>
      <trkpt lat="45.52872" lon="2.69393">
        <ele>924</ele>
        <time>2022-07-30T21:37:48.000Z</time>
      </trkpt>
      <trkpt lat="45.52876" lon="2.69388">
        <ele>924</ele>
        <time>2022-07-30T21:37:49.000Z</time>
      </trkpt>
      <trkpt lat="45.52879" lon="2.69384">
        <ele>924</ele>
        <time>2022-07-30T21:37:50.000Z</time>
      </trkpt>
      <trkpt lat="45.52882" lon="2.69379">
        <ele>924</ele>
        <time>2022-07-30T21:37:51.000Z</time>
      </trkpt>
      <trkpt lat="45.52886" lon="2.69374">
        <ele>924</ele>
        <time>2022-07-30T21:37:52.000Z</time>
      </trkpt>
      <trkpt lat="45.52889" lon="2.69369">
        <ele>924</ele>
        <time>2022-07-30T21:37:53.000Z</time>
      </trkpt>
      <trkpt lat="45.52893" lon="2.69365">
        <ele>924</ele>
        <time>2022-07-30T21:37:54.000Z</time>
      </trkpt>
      <trkpt lat="45.52897" lon="2.69361">
        <ele>924</ele>
        <time>2022-07-30T21:37:55.000Z</time>
      </trkpt>
      <trkpt lat="45.52901" lon="2.69356">
        <ele>924</ele>
        <time>2022-07-30T21:37:56.000Z</time>
      </trkpt>
      <trkpt lat="45.52904" lon="2.69352">
        <ele>924</ele>
        <time>2022-07-30T21:37:57.000Z</time>
      </trkpt>
      <trkpt lat="45.52908" lon="2.69348">
        <ele>924</ele>
        <time>2022-07-30T21:37:58.000Z</time>
      </trkpt>
      <trkpt lat="45.52913" lon="2.69343">
        <ele>915</ele>
        <time>2022-07-30T21:37:59.000Z</time>
      </trkpt>
      <trkpt lat="45.52917" lon="2.69339">
        <ele>915</ele>
        <time>2022-07-30T21:38:00.000Z</time>
      </trkpt>
      <trkpt lat="45.52921" lon="2.69335">
        <ele>915</ele>
        <time>2022-07-30T21:38:01.000Z</time>
      </trkpt>
      <trkpt lat="45.52924" lon="2.69331">
        <ele>915</ele>
        <time>2022-07-30T21:38:02.000Z</time>
      </trkpt>
      <trkpt lat="45.52928" lon="2.69327">
        <ele>915</ele>
        <time>2022-07-30T21:38:03.000Z</time>
      </trkpt>
      <trkpt lat="45.52931" lon="2.69323">
        <ele>915</ele>
        <time>2022-07-30T21:38:04.000Z</time>
      </trkpt>
      <trkpt lat="45.52935" lon="2.69319">
        <ele>915</ele>
        <time>2022-07-30T21:38:05.000Z</time>
      </trkpt>
      <trkpt lat="45.52938" lon="2.69314">
        <ele>915</ele>
        <time>2022-07-30T21:38:06.000Z</time>
      </trkpt>
      <trkpt lat="45.52942" lon="2.6931">
        <ele>915</ele>
        <time>2022-07-30T21:38:07.000Z</time>
      </trkpt>
      <trkpt lat="45.52945" lon="2.69306">
        <ele>915</ele>
        <time>2022-07-30T21:38:08.000Z</time>
      </trkpt>
      <trkpt lat="45.52949" lon="2.69302">
        <ele>915</ele>
        <time>2022-07-30T21:38:09.000Z</time>
      </trkpt>
      <trkpt lat="45.52952" lon="2.69297">
        <ele>915</ele>
        <time>2022-07-30T21:38:10.000Z</time>
      </trkpt>
      <trkpt lat="45.52955" lon="2.69291">
        <ele>915</ele>
        <time>2022-07-30T21:38:11.000Z</time>
      </trkpt>
      <trkpt lat="45.52958" lon="2.69286">
        <ele>905</ele>
        <time>2022-07-30T21:38:12.000Z</time>
      </trkpt>
      <trkpt lat="45.52961" lon="2.69281">
        <ele>905</ele>
        <time>2022-07-30T21:38:13.000Z</time>
      </trkpt>
      <trkpt lat="45.52964" lon="2.69276">
        <ele>905</ele>
        <time>2022-07-30T21:38:14.000Z</time>
      </trkpt>
      <trkpt lat="45.52966" lon="2.69268">
        <ele>905</ele>
        <time>2022-07-30T21:38:15.000Z</time>
      </trkpt>
      <trkpt lat="45.52968" lon="2.69261">
        <ele>905</ele>
        <time>2022-07-30T21:38:16.000Z</time>
      </trkpt>
      <trkpt lat="45.52971" lon="2.69254">
        <ele>905</ele>
        <time>2022-07-30T21:38:17.000Z</time>
      </trkpt>
      <trkpt lat="45.52973" lon="2.69247">
        <ele>905</ele>
        <time>2022-07-30T21:38:18.000Z</time>
      </trkpt>
      <trkpt lat="45.52974" lon="2.6924">
        <ele>905</ele>
        <time>2022-07-30T21:38:19.000Z</time>
      </trkpt>
      <trkpt lat="45.52976" lon="2.69233">
        <ele>905</ele>
        <time>2022-07-30T21:38:20.000Z</time>
      </trkpt>
      <trkpt lat="45.52978" lon="2.69226">
        <ele>913</ele>
        <time>2022-07-30T21:38:21.000Z</time>
      </trkpt>
      <trkpt lat="45.5298" lon="2.69219">
        <ele>913</ele>
        <time>2022-07-30T21:38:22.000Z</time>
      </trkpt>
      <trkpt lat="45.52981" lon="2.69212">
        <ele>905</ele>
        <time>2022-07-30T21:38:23.000Z</time>
      </trkpt>
      <trkpt lat="45.52982" lon="2.69205">
        <ele>905</ele>
        <time>2022-07-30T21:38:24.000Z</time>
      </trkpt>
      <trkpt lat="45.52982" lon="2.69199">
        <ele>905</ele>
        <time>2022-07-30T21:38:25.000Z</time>
      </trkpt>
      <trkpt lat="45.52982" lon="2.69192">
        <ele>905</ele>
        <time>2022-07-30T21:38:26.000Z</time>
      </trkpt>
      <trkpt lat="45.52983" lon="2.69186">
        <ele>905</ele>
        <time>2022-07-30T21:38:27.000Z</time>
      </trkpt>
      <trkpt lat="45.52983" lon="2.69179">
        <ele>905</ele>
        <time>2022-07-30T21:38:28.000Z</time>
      </trkpt>
      <trkpt lat="45.52983" lon="2.69172">
        <ele>905</ele>
        <time>2022-07-30T21:38:29.000Z</time>
      </trkpt>
      <trkpt lat="45.52982" lon="2.69165">
        <ele>905</ele>
        <time>2022-07-30T21:38:30.000Z</time>
      </trkpt>
      <trkpt lat="45.52982" lon="2.69158">
        <ele>905</ele>
        <time>2022-07-30T21:38:31.000Z</time>
      </trkpt>
      <trkpt lat="45.52981" lon="2.69151">
        <ele>902</ele>
        <time>2022-07-30T21:38:32.000Z</time>
      </trkpt>
      <trkpt lat="45.52981" lon="2.69144">
        <ele>902</ele>
        <time>2022-07-30T21:38:33.000Z</time>
      </trkpt>
      <trkpt lat="45.52981" lon="2.69138">
        <ele>902</ele>
        <time>2022-07-30T21:38:34.000Z</time>
      </trkpt>
      <trkpt lat="45.52985" lon="2.69132">
        <ele>902</ele>
        <time>2022-07-30T21:38:35.000Z</time>
      </trkpt>
      <trkpt lat="45.52989" lon="2.69127">
        <ele>902</ele>
        <time>2022-07-30T21:38:36.000Z</time>
      </trkpt>
      <trkpt lat="45.52992" lon="2.69119">
        <ele>902</ele>
        <time>2022-07-30T21:38:37.000Z</time>
      </trkpt>
      <trkpt lat="45.52996" lon="2.69112">
        <ele>902</ele>
        <time>2022-07-30T21:38:38.000Z</time>
      </trkpt>
      <trkpt lat="45.52998" lon="2.69105">
        <ele>902</ele>
        <time>2022-07-30T21:38:39.000Z</time>
      </trkpt>
      <trkpt lat="45.53" lon="2.69097">
        <ele>902</ele>
        <time>2022-07-30T21:38:40.000Z</time>
      </trkpt>
      <trkpt lat="45.53002" lon="2.6909">
        <ele>902</ele>
        <time>2022-07-30T21:38:41.000Z</time>
      </trkpt>
      <trkpt lat="45.53003" lon="2.69083">
        <ele>902</ele>
        <time>2022-07-30T21:38:42.000Z</time>
      </trkpt>
      <trkpt lat="45.53005" lon="2.69076">
        <ele>902</ele>
        <time>2022-07-30T21:38:43.000Z</time>
      </trkpt>
      <trkpt lat="45.53007" lon="2.69069">
        <ele>902</ele>
        <time>2022-07-30T21:38:44.000Z</time>
      </trkpt>
      <trkpt lat="45.53008" lon="2.69061">
        <ele>901</ele>
        <time>2022-07-30T21:38:45.000Z</time>
      </trkpt>
      <trkpt lat="45.53009" lon="2.69053">
        <ele>901</ele>
        <time>2022-07-30T21:38:46.000Z</time>
      </trkpt>
      <trkpt lat="45.5301" lon="2.69045">
        <ele>901</ele>
        <time>2022-07-30T21:38:47.000Z</time>
      </trkpt>
      <trkpt lat="45.5301" lon="2.69037">
        <ele>901</ele>
        <time>2022-07-30T21:38:48.000Z</time>
      </trkpt>
      <trkpt lat="45.5301" lon="2.69029">
        <ele>901</ele>
        <time>2022-07-30T21:38:49.000Z</time>
      </trkpt>
      <trkpt lat="45.53011" lon="2.69021">
        <ele>901</ele>
        <time>2022-07-30T21:38:50.000Z</time>
      </trkpt>
      <trkpt lat="45.53011" lon="2.69014">
        <ele>901</ele>
        <time>2022-07-30T21:38:51.000Z</time>
      </trkpt>
      <trkpt lat="45.53008" lon="2.69002">
        <ele>901</ele>
        <time>2022-07-30T21:38:52.000Z</time>
      </trkpt>
      <trkpt lat="45.53003" lon="2.68997">
        <ele>901</ele>
        <time>2022-07-30T21:38:53.000Z</time>
      </trkpt>
      <trkpt lat="45.52998" lon="2.68997">
        <ele>901</ele>
        <time>2022-07-30T21:38:54.000Z</time>
      </trkpt>
      <trkpt lat="45.52993" lon="2.68997">
        <ele>901</ele>
        <time>2022-07-30T21:38:55.000Z</time>
      </trkpt>
      <trkpt lat="45.52988" lon="2.68997">
        <ele>901</ele>
        <time>2022-07-30T21:38:56.000Z</time>
      </trkpt>
      <trkpt lat="45.52983" lon="2.68996">
        <ele>901</ele>
        <time>2022-07-30T21:38:57.000Z</time>
      </trkpt>
      <trkpt lat="45.52979" lon="2.68994">
        <ele>901</ele>
        <time>2022-07-30T21:38:58.000Z</time>
      </trkpt>
      <trkpt lat="45.52975" lon="2.6899">
        <ele>900</ele>
        <time>2022-07-30T21:38:59.000Z</time>
      </trkpt>
      <trkpt lat="45.52971" lon="2.68986">
        <ele>900</ele>
        <time>2022-07-30T21:39:00.000Z</time>
      </trkpt>
      <trkpt lat="45.52967" lon="2.68982">
        <ele>900</ele>
        <time>2022-07-30T21:39:01.000Z</time>
      </trkpt>
      <trkpt lat="45.52964" lon="2.68977">
        <ele>900</ele>
        <time>2022-07-30T21:39:02.000Z</time>
      </trkpt>
      <trkpt lat="45.52959" lon="2.68971">
        <ele>900</ele>
        <time>2022-07-30T21:39:03.000Z</time>
      </trkpt>
      <trkpt lat="45.52955" lon="2.68965">
        <ele>900</ele>
        <time>2022-07-30T21:39:04.000Z</time>
      </trkpt>
      <trkpt lat="45.52953" lon="2.68958">
        <ele>900</ele>
        <time>2022-07-30T21:39:05.000Z</time>
      </trkpt>
      <trkpt lat="45.5295" lon="2.68951">
        <ele>900</ele>
        <time>2022-07-30T21:39:06.000Z</time>
      </trkpt>
      <trkpt lat="45.52949" lon="2.68943">
        <ele>900</ele>
        <time>2022-07-30T21:39:07.000Z</time>
      </trkpt>
      <trkpt lat="45.52948" lon="2.68936">
        <ele>900</ele>
        <time>2022-07-30T21:39:08.000Z</time>
      </trkpt>
      <trkpt lat="45.52947" lon="2.68929">
        <ele>900</ele>
        <time>2022-07-30T21:39:09.000Z</time>
      </trkpt>
      <trkpt lat="45.52949" lon="2.68917">
        <ele>901</ele>
        <time>2022-07-30T21:39:10.000Z</time>
      </trkpt>
      <trkpt lat="45.52949" lon="2.68917">
        <ele>901</ele>
        <time>2022-07-30T21:39:11.000Z</time>
      </trkpt>
      <trkpt lat="45.52951" lon="2.68911">
        <ele>901</ele>
        <time>2022-07-30T21:39:12.000Z</time>
      </trkpt>
      <trkpt lat="45.52953" lon="2.68905">
        <ele>901</ele>
        <time>2022-07-30T21:39:13.000Z</time>
      </trkpt>
      <trkpt lat="45.52955" lon="2.68903">
        <ele>901</ele>
        <time>2022-07-30T21:39:14.000Z</time>
      </trkpt>
      <trkpt lat="45.52961" lon="2.68896">
        <ele>901</ele>
        <time>2022-07-30T21:39:15.000Z</time>
      </trkpt>
      <trkpt lat="45.52965" lon="2.6889">
        <ele>901</ele>
        <time>2022-07-30T21:39:16.000Z</time>
      </trkpt>
      <trkpt lat="45.5297" lon="2.68884">
        <ele>901</ele>
        <time>2022-07-30T21:39:17.000Z</time>
      </trkpt>
      <trkpt lat="45.52973" lon="2.68879">
        <ele>898</ele>
        <time>2022-07-30T21:39:18.000Z</time>
      </trkpt>
      <trkpt lat="45.52976" lon="2.68874">
        <ele>898</ele>
        <time>2022-07-30T21:39:19.000Z</time>
      </trkpt>
      <trkpt lat="45.52979" lon="2.6887">
        <ele>898</ele>
        <time>2022-07-30T21:39:20.000Z</time>
      </trkpt>
      <trkpt lat="45.52982" lon="2.68865">
        <ele>898</ele>
        <time>2022-07-30T21:39:21.000Z</time>
      </trkpt>
      <trkpt lat="45.52986" lon="2.68861">
        <ele>898</ele>
        <time>2022-07-30T21:39:22.000Z</time>
      </trkpt>
      <trkpt lat="45.52989" lon="2.68856">
        <ele>898</ele>
        <time>2022-07-30T21:39:23.000Z</time>
      </trkpt>
      <trkpt lat="45.52992" lon="2.68851">
        <ele>898</ele>
        <time>2022-07-30T21:39:24.000Z</time>
      </trkpt>
      <trkpt lat="45.52995" lon="2.68847">
        <ele>898</ele>
        <time>2022-07-30T21:39:25.000Z</time>
      </trkpt>
      <trkpt lat="45.52998" lon="2.68842">
        <ele>898</ele>
        <time>2022-07-30T21:39:26.000Z</time>
      </trkpt>
      <trkpt lat="45.53002" lon="2.68838">
        <ele>898</ele>
        <time>2022-07-30T21:39:27.000Z</time>
      </trkpt>
      <trkpt lat="45.53005" lon="2.68832">
        <ele>897</ele>
        <time>2022-07-30T21:39:28.000Z</time>
      </trkpt>
      <trkpt lat="45.53007" lon="2.68826">
        <ele>897</ele>
        <time>2022-07-30T21:39:29.000Z</time>
      </trkpt>
      <trkpt lat="45.5301" lon="2.6882">
        <ele>897</ele>
        <time>2022-07-30T21:39:30.000Z</time>
      </trkpt>
      <trkpt lat="45.53013" lon="2.68815">
        <ele>897</ele>
        <time>2022-07-30T21:39:31.000Z</time>
      </trkpt>
      <trkpt lat="45.53016" lon="2.68809">
        <ele>897</ele>
        <time>2022-07-30T21:39:32.000Z</time>
      </trkpt>
      <trkpt lat="45.53019" lon="2.68803">
        <ele>897</ele>
        <time>2022-07-30T21:39:33.000Z</time>
      </trkpt>
      <trkpt lat="45.53023" lon="2.68799">
        <ele>897</ele>
        <time>2022-07-30T21:39:34.000Z</time>
      </trkpt>
      <trkpt lat="45.53026" lon="2.68794">
        <ele>897</ele>
        <time>2022-07-30T21:39:35.000Z</time>
      </trkpt>
      <trkpt lat="45.53029" lon="2.68789">
        <ele>897</ele>
        <time>2022-07-30T21:39:36.000Z</time>
      </trkpt>
      <trkpt lat="45.53033" lon="2.68784">
        <ele>897</ele>
        <time>2022-07-30T21:39:37.000Z</time>
      </trkpt>
      <trkpt lat="45.53036" lon="2.6878">
        <ele>897</ele>
        <time>2022-07-30T21:39:38.000Z</time>
      </trkpt>
      <trkpt lat="45.53039" lon="2.68775">
        <ele>897</ele>
        <time>2022-07-30T21:39:39.000Z</time>
      </trkpt>
      <trkpt lat="45.53043" lon="2.6877">
        <ele>897</ele>
        <time>2022-07-30T21:39:40.000Z</time>
      </trkpt>
      <trkpt lat="45.53046" lon="2.68766">
        <ele>897</ele>
        <time>2022-07-30T21:39:41.000Z</time>
      </trkpt>
      <trkpt lat="45.53049" lon="2.68761">
        <ele>897</ele>
        <time>2022-07-30T21:39:42.000Z</time>
      </trkpt>
      <trkpt lat="45.53053" lon="2.68756">
        <ele>897</ele>
        <time>2022-07-30T21:39:43.000Z</time>
      </trkpt>
      <trkpt lat="45.53056" lon="2.68751">
        <ele>895</ele>
        <time>2022-07-30T21:39:44.000Z</time>
      </trkpt>
      <trkpt lat="45.53059" lon="2.68747">
        <ele>895</ele>
        <time>2022-07-30T21:39:45.000Z</time>
      </trkpt>
      <trkpt lat="45.53063" lon="2.68742">
        <ele>895</ele>
        <time>2022-07-30T21:39:46.000Z</time>
      </trkpt>
      <trkpt lat="45.53066" lon="2.68737">
        <ele>895</ele>
        <time>2022-07-30T21:39:47.000Z</time>
      </trkpt>
      <trkpt lat="45.53069" lon="2.68733">
        <ele>895</ele>
        <time>2022-07-30T21:39:48.000Z</time>
      </trkpt>
      <trkpt lat="45.53073" lon="2.68728">
        <ele>895</ele>
        <time>2022-07-30T21:39:49.000Z</time>
      </trkpt>
      <trkpt lat="45.53076" lon="2.68723">
        <ele>895</ele>
        <time>2022-07-30T21:39:50.000Z</time>
      </trkpt>
      <trkpt lat="45.53079" lon="2.68718">
        <ele>895</ele>
        <time>2022-07-30T21:39:51.000Z</time>
      </trkpt>
      <trkpt lat="45.53082" lon="2.68713">
        <ele>895</ele>
        <time>2022-07-30T21:39:52.000Z</time>
      </trkpt>
      <trkpt lat="45.53085" lon="2.68708">
        <ele>895</ele>
        <time>2022-07-30T21:39:53.000Z</time>
      </trkpt>
      <trkpt lat="45.53088" lon="2.68703">
        <ele>895</ele>
        <time>2022-07-30T21:39:54.000Z</time>
      </trkpt>
      <trkpt lat="45.53091" lon="2.68698">
        <ele>895</ele>
        <time>2022-07-30T21:39:55.000Z</time>
      </trkpt>
      <trkpt lat="45.53094" lon="2.68693">
        <ele>895</ele>
        <time>2022-07-30T21:39:56.000Z</time>
      </trkpt>
      <trkpt lat="45.53096" lon="2.68687">
        <ele>896</ele>
        <time>2022-07-30T21:39:57.000Z</time>
      </trkpt>
      <trkpt lat="45.53099" lon="2.68682">
        <ele>896</ele>
        <time>2022-07-30T21:39:58.000Z</time>
      </trkpt>
      <trkpt lat="45.53103" lon="2.68677">
        <ele>896</ele>
        <time>2022-07-30T21:39:59.000Z</time>
      </trkpt>
      <trkpt lat="45.53106" lon="2.68671">
        <ele>896</ele>
        <time>2022-07-30T21:40:00.000Z</time>
      </trkpt>
      <trkpt lat="45.53109" lon="2.68665">
        <ele>896</ele>
        <time>2022-07-30T21:40:01.000Z</time>
      </trkpt>
      <trkpt lat="45.53112" lon="2.68659">
        <ele>896</ele>
        <time>2022-07-30T21:40:02.000Z</time>
      </trkpt>
      <trkpt lat="45.53117" lon="2.6866">
        <ele>896</ele>
        <time>2022-07-30T21:40:03.000Z</time>
      </trkpt>
      <trkpt lat="45.53122" lon="2.6866">
        <ele>896</ele>
        <time>2022-07-30T21:40:04.000Z</time>
      </trkpt>
      <trkpt lat="45.53128" lon="2.68661">
        <ele>896</ele>
        <time>2022-07-30T21:40:05.000Z</time>
      </trkpt>
      <trkpt lat="45.53133" lon="2.68661">
        <ele>896</ele>
        <time>2022-07-30T21:40:06.000Z</time>
      </trkpt>
      <trkpt lat="45.53137" lon="2.68662">
        <ele>896</ele>
        <time>2022-07-30T21:40:07.000Z</time>
      </trkpt>
      <trkpt lat="45.53142" lon="2.68662">
        <ele>896</ele>
        <time>2022-07-30T21:40:08.000Z</time>
      </trkpt>
      <trkpt lat="45.53146" lon="2.68663">
        <ele>896</ele>
        <time>2022-07-30T21:40:09.000Z</time>
      </trkpt>
      <trkpt lat="45.53151" lon="2.68664">
        <ele>896</ele>
        <time>2022-07-30T21:40:10.000Z</time>
      </trkpt>
      <trkpt lat="45.53156" lon="2.68664">
        <ele>898</ele>
        <time>2022-07-30T21:40:11.000Z</time>
      </trkpt>
      <trkpt lat="45.5316" lon="2.68667">
        <ele>898</ele>
        <time>2022-07-30T21:40:12.000Z</time>
      </trkpt>
      <trkpt lat="45.53165" lon="2.6867">
        <ele>898</ele>
        <time>2022-07-30T21:40:13.000Z</time>
      </trkpt>
      <trkpt lat="45.53169" lon="2.6867">
        <ele>898</ele>
        <time>2022-07-30T21:40:14.000Z</time>
      </trkpt>
      <trkpt lat="45.53174" lon="2.6867">
        <ele>898</ele>
        <time>2022-07-30T21:40:15.000Z</time>
      </trkpt>
      <trkpt lat="45.53179" lon="2.68669">
        <ele>898</ele>
        <time>2022-07-30T21:40:16.000Z</time>
      </trkpt>
      <trkpt lat="45.53184" lon="2.68669">
        <ele>898</ele>
        <time>2022-07-30T21:40:17.000Z</time>
      </trkpt>
      <trkpt lat="45.53189" lon="2.68669">
        <ele>898</ele>
        <time>2022-07-30T21:40:18.000Z</time>
      </trkpt>
      <trkpt lat="45.53194" lon="2.68668">
        <ele>898</ele>
        <time>2022-07-30T21:40:19.000Z</time>
      </trkpt>
      <trkpt lat="45.53199" lon="2.68668">
        <ele>898</ele>
        <time>2022-07-30T21:40:20.000Z</time>
      </trkpt>
      <trkpt lat="45.53204" lon="2.68665">
        <ele>901</ele>
        <time>2022-07-30T21:40:21.000Z</time>
      </trkpt>
      <trkpt lat="45.53208" lon="2.68662">
        <ele>901</ele>
        <time>2022-07-30T21:40:22.000Z</time>
      </trkpt>
      <trkpt lat="45.53212" lon="2.68659">
        <ele>901</ele>
        <time>2022-07-30T21:40:23.000Z</time>
      </trkpt>
      <trkpt lat="45.53218" lon="2.68656">
        <ele>901</ele>
        <time>2022-07-30T21:40:24.000Z</time>
      </trkpt>
      <trkpt lat="45.53223" lon="2.68652">
        <ele>901</ele>
        <time>2022-07-30T21:40:25.000Z</time>
      </trkpt>
      <trkpt lat="45.53229" lon="2.68649">
        <ele>901</ele>
        <time>2022-07-30T21:40:26.000Z</time>
      </trkpt>
      <trkpt lat="45.5323" lon="2.68649">
        <ele>901</ele>
        <time>2022-07-30T21:40:27.000Z</time>
      </trkpt>
      <trkpt lat="45.53234" lon="2.68641">
        <ele>901</ele>
        <time>2022-07-30T21:40:28.000Z</time>
      </trkpt>
      <trkpt lat="45.53229" lon="2.68632">
        <ele>901</ele>
        <time>2022-07-30T21:40:29.000Z</time>
      </trkpt>
      <trkpt lat="45.53227" lon="2.68625">
        <ele>901</ele>
        <time>2022-07-30T21:40:30.000Z</time>
      </trkpt>
      <trkpt lat="45.53226" lon="2.68619">
        <ele>901</ele>
        <time>2022-07-30T21:40:31.000Z</time>
      </trkpt>
      <trkpt lat="45.53224" lon="2.68613">
        <ele>901</ele>
        <time>2022-07-30T21:40:32.000Z</time>
      </trkpt>
      <trkpt lat="45.53222" lon="2.68605">
        <ele>895</ele>
        <time>2022-07-30T21:40:33.000Z</time>
      </trkpt>
      <trkpt lat="45.53221" lon="2.68598">
        <ele>895</ele>
        <time>2022-07-30T21:40:34.000Z</time>
      </trkpt>
      <trkpt lat="45.53219" lon="2.68591">
        <ele>895</ele>
        <time>2022-07-30T21:40:35.000Z</time>
      </trkpt>
      <trkpt lat="45.53217" lon="2.68583">
        <ele>895</ele>
        <time>2022-07-30T21:40:36.000Z</time>
      </trkpt>
      <trkpt lat="45.53216" lon="2.68576">
        <ele>895</ele>
        <time>2022-07-30T21:40:37.000Z</time>
      </trkpt>
      <trkpt lat="45.53214" lon="2.68567">
        <ele>895</ele>
        <time>2022-07-30T21:40:38.000Z</time>
      </trkpt>
      <trkpt lat="45.53212" lon="2.68558">
        <ele>895</ele>
        <time>2022-07-30T21:40:39.000Z</time>
      </trkpt>
      <trkpt lat="45.53212" lon="2.68558">
        <ele>895</ele>
        <time>2022-07-30T21:40:40.000Z</time>
      </trkpt>
      <trkpt lat="45.53213" lon="2.6855">
        <ele>895</ele>
        <time>2022-07-30T21:40:41.000Z</time>
      </trkpt>
      <trkpt lat="45.53213" lon="2.68542">
        <ele>895</ele>
        <time>2022-07-30T21:40:42.000Z</time>
      </trkpt>
      <trkpt lat="45.53214" lon="2.68534">
        <ele>894</ele>
        <time>2022-07-30T21:40:43.000Z</time>
      </trkpt>
      <trkpt lat="45.53213" lon="2.68528">
        <ele>894</ele>
        <time>2022-07-30T21:40:44.000Z</time>
      </trkpt>
      <trkpt lat="45.53213" lon="2.68521">
        <ele>894</ele>
        <time>2022-07-30T21:40:45.000Z</time>
      </trkpt>
      <trkpt lat="45.53214" lon="2.68514">
        <ele>894</ele>
        <time>2022-07-30T21:40:46.000Z</time>
      </trkpt>
      <trkpt lat="45.53215" lon="2.68507">
        <ele>894</ele>
        <time>2022-07-30T21:40:47.000Z</time>
      </trkpt>
      <trkpt lat="45.53217" lon="2.685">
        <ele>894</ele>
        <time>2022-07-30T21:40:48.000Z</time>
      </trkpt>
      <trkpt lat="45.53218" lon="2.68492">
        <ele>894</ele>
        <time>2022-07-30T21:40:49.000Z</time>
      </trkpt>
      <trkpt lat="45.5322" lon="2.68485">
        <ele>894</ele>
        <time>2022-07-30T21:40:50.000Z</time>
      </trkpt>
      <trkpt lat="45.53221" lon="2.68478">
        <ele>894</ele>
        <time>2022-07-30T21:40:51.000Z</time>
      </trkpt>
      <trkpt lat="45.53223" lon="2.68471">
        <ele>906</ele>
        <time>2022-07-30T21:40:52.000Z</time>
      </trkpt>
      <trkpt lat="45.53224" lon="2.68463">
        <ele>906</ele>
        <time>2022-07-30T21:40:53.000Z</time>
      </trkpt>
      <trkpt lat="45.53225" lon="2.68455">
        <ele>906</ele>
        <time>2022-07-30T21:40:54.000Z</time>
      </trkpt>
      <trkpt lat="45.53226" lon="2.68447">
        <ele>906</ele>
        <time>2022-07-30T21:40:55.000Z</time>
      </trkpt>
      <trkpt lat="45.53227" lon="2.68441">
        <ele>906</ele>
        <time>2022-07-30T21:40:56.000Z</time>
      </trkpt>
      <trkpt lat="45.53228" lon="2.68435">
        <ele>906</ele>
        <time>2022-07-30T21:40:57.000Z</time>
      </trkpt>
      <trkpt lat="45.53229" lon="2.68428">
        <ele>906</ele>
        <time>2022-07-30T21:40:58.000Z</time>
      </trkpt>
      <trkpt lat="45.53232" lon="2.68422">
        <ele>906</ele>
        <time>2022-07-30T21:40:59.000Z</time>
      </trkpt>
      <trkpt lat="45.53235" lon="2.68415">
        <ele>906</ele>
        <time>2022-07-30T21:41:00.000Z</time>
      </trkpt>
      <trkpt lat="45.53238" lon="2.6841">
        <ele>906</ele>
        <time>2022-07-30T21:41:01.000Z</time>
      </trkpt>
      <trkpt lat="45.5324" lon="2.68404">
        <ele>906</ele>
        <time>2022-07-30T21:41:02.000Z</time>
      </trkpt>
      <trkpt lat="45.53243" lon="2.68399">
        <ele>911</ele>
        <time>2022-07-30T21:41:03.000Z</time>
      </trkpt>
      <trkpt lat="45.53246" lon="2.68394">
        <ele>911</ele>
        <time>2022-07-30T21:41:04.000Z</time>
      </trkpt>
      <trkpt lat="45.53249" lon="2.68388">
        <ele>911</ele>
        <time>2022-07-30T21:41:05.000Z</time>
      </trkpt>
      <trkpt lat="45.53251" lon="2.68383">
        <ele>911</ele>
        <time>2022-07-30T21:41:06.000Z</time>
      </trkpt>
      <trkpt lat="45.53254" lon="2.68377">
        <ele>911</ele>
        <time>2022-07-30T21:41:07.000Z</time>
      </trkpt>
      <trkpt lat="45.53257" lon="2.68372">
        <ele>911</ele>
        <time>2022-07-30T21:41:08.000Z</time>
      </trkpt>
      <trkpt lat="45.5326" lon="2.68366">
        <ele>911</ele>
        <time>2022-07-30T21:41:09.000Z</time>
      </trkpt>
      <trkpt lat="45.53263" lon="2.6836">
        <ele>911</ele>
        <time>2022-07-30T21:41:10.000Z</time>
      </trkpt>
      <trkpt lat="45.53266" lon="2.68354">
        <ele>911</ele>
        <time>2022-07-30T21:41:11.000Z</time>
      </trkpt>
      <trkpt lat="45.53268" lon="2.68348">
        <ele>911</ele>
        <time>2022-07-30T21:41:12.000Z</time>
      </trkpt>
      <trkpt lat="45.5327" lon="2.68343">
        <ele>911</ele>
        <time>2022-07-30T21:41:13.000Z</time>
      </trkpt>
      <trkpt lat="45.53274" lon="2.68337">
        <ele>911</ele>
        <time>2022-07-30T21:41:14.000Z</time>
      </trkpt>
      <trkpt lat="45.53278" lon="2.68331">
        <ele>911</ele>
        <time>2022-07-30T21:41:15.000Z</time>
      </trkpt>
      <trkpt lat="45.53279" lon="2.68324">
        <ele>923</ele>
        <time>2022-07-30T21:41:16.000Z</time>
      </trkpt>
      <trkpt lat="45.53281" lon="2.68318">
        <ele>927</ele>
        <time>2022-07-30T21:41:17.000Z</time>
      </trkpt>
      <trkpt lat="45.53282" lon="2.68311">
        <ele>927</ele>
        <time>2022-07-30T21:41:18.000Z</time>
      </trkpt>
      <trkpt lat="45.53284" lon="2.68304">
        <ele>927</ele>
        <time>2022-07-30T21:41:19.000Z</time>
      </trkpt>
      <trkpt lat="45.53285" lon="2.68298">
        <ele>927</ele>
        <time>2022-07-30T21:41:20.000Z</time>
      </trkpt>
      <trkpt lat="45.53286" lon="2.68292">
        <ele>927</ele>
        <time>2022-07-30T21:41:21.000Z</time>
      </trkpt>
      <trkpt lat="45.53288" lon="2.68285">
        <ele>927</ele>
        <time>2022-07-30T21:41:22.000Z</time>
      </trkpt>
      <trkpt lat="45.53289" lon="2.68279">
        <ele>927</ele>
        <time>2022-07-30T21:41:23.000Z</time>
      </trkpt>
      <trkpt lat="45.53292" lon="2.68272">
        <ele>927</ele>
        <time>2022-07-30T21:41:24.000Z</time>
      </trkpt>
      <trkpt lat="45.53294" lon="2.68264">
        <ele>927</ele>
        <time>2022-07-30T21:41:25.000Z</time>
      </trkpt>
      <trkpt lat="45.53297" lon="2.68257">
        <ele>927</ele>
        <time>2022-07-30T21:41:26.000Z</time>
      </trkpt>
      <trkpt lat="45.53301" lon="2.68254">
        <ele>927</ele>
        <time>2022-07-30T21:41:27.000Z</time>
      </trkpt>
      <trkpt lat="45.53305" lon="2.68251">
        <ele>927</ele>
        <time>2022-07-30T21:41:28.000Z</time>
      </trkpt>
      <trkpt lat="45.53309" lon="2.68247">
        <ele>927</ele>
        <time>2022-07-30T21:41:29.000Z</time>
      </trkpt>
      <trkpt lat="45.53314" lon="2.68246">
        <ele>927</ele>
        <time>2022-07-30T21:41:30.000Z</time>
      </trkpt>
      <trkpt lat="45.53318" lon="2.68244">
        <ele>927</ele>
        <time>2022-07-30T21:41:31.000Z</time>
      </trkpt>
      <trkpt lat="45.53323" lon="2.68243">
        <ele>927</ele>
        <time>2022-07-30T21:41:32.000Z</time>
      </trkpt>
      <trkpt lat="45.53327" lon="2.68241">
        <ele>926</ele>
        <time>2022-07-30T21:41:33.000Z</time>
      </trkpt>
      <trkpt lat="45.53331" lon="2.6824">
        <ele>926</ele>
        <time>2022-07-30T21:41:34.000Z</time>
      </trkpt>
      <trkpt lat="45.53336" lon="2.68241">
        <ele>926</ele>
        <time>2022-07-30T21:41:35.000Z</time>
      </trkpt>
      <trkpt lat="45.5334" lon="2.68241">
        <ele>926</ele>
        <time>2022-07-30T21:41:36.000Z</time>
      </trkpt>
      <trkpt lat="45.53348" lon="2.68243">
        <ele>926</ele>
        <time>2022-07-30T21:41:37.000Z</time>
      </trkpt>
      <trkpt lat="45.53354" lon="2.68241">
        <ele>926</ele>
        <time>2022-07-30T21:41:38.000Z</time>
      </trkpt>
      <trkpt lat="45.53359" lon="2.68239">
        <ele>926</ele>
        <time>2022-07-30T21:41:39.000Z</time>
      </trkpt>
      <trkpt lat="45.53364" lon="2.68236">
        <ele>936</ele>
        <time>2022-07-30T21:41:40.000Z</time>
      </trkpt>
      <trkpt lat="45.53369" lon="2.68238">
        <ele>936</ele>
        <time>2022-07-30T21:41:41.000Z</time>
      </trkpt>
      <trkpt lat="45.53373" lon="2.6824">
        <ele>936</ele>
        <time>2022-07-30T21:41:42.000Z</time>
      </trkpt>
      <trkpt lat="45.53378" lon="2.68241">
        <ele>936</ele>
        <time>2022-07-30T21:41:43.000Z</time>
      </trkpt>
      <trkpt lat="45.53382" lon="2.68243">
        <ele>936</ele>
        <time>2022-07-30T21:41:44.000Z</time>
      </trkpt>
      <trkpt lat="45.53386" lon="2.68244">
        <ele>936</ele>
        <time>2022-07-30T21:41:45.000Z</time>
      </trkpt>
      <trkpt lat="45.53391" lon="2.68246">
        <ele>936</ele>
        <time>2022-07-30T21:41:46.000Z</time>
      </trkpt>
      <trkpt lat="45.53395" lon="2.68248">
        <ele>936</ele>
        <time>2022-07-30T21:41:47.000Z</time>
      </trkpt>
      <trkpt lat="45.534" lon="2.68249">
        <ele>936</ele>
        <time>2022-07-30T21:41:48.000Z</time>
      </trkpt>
      <trkpt lat="45.53404" lon="2.68251">
        <ele>936</ele>
        <time>2022-07-30T21:41:49.000Z</time>
      </trkpt>
      <trkpt lat="45.53408" lon="2.68253">
        <ele>936</ele>
        <time>2022-07-30T21:41:50.000Z</time>
      </trkpt>
      <trkpt lat="45.53413" lon="2.68254">
        <ele>936</ele>
        <time>2022-07-30T21:41:51.000Z</time>
      </trkpt>
      <trkpt lat="45.53417" lon="2.68256">
        <ele>936</ele>
        <time>2022-07-30T21:41:52.000Z</time>
      </trkpt>
      <trkpt lat="45.53422" lon="2.68257">
        <ele>936</ele>
        <time>2022-07-30T21:41:53.000Z</time>
      </trkpt>
      <trkpt lat="45.53426" lon="2.68259">
        <ele>936</ele>
        <time>2022-07-30T21:41:54.000Z</time>
      </trkpt>
      <trkpt lat="45.5343" lon="2.68261">
        <ele>936</ele>
        <time>2022-07-30T21:41:55.000Z</time>
      </trkpt>
      <trkpt lat="45.53435" lon="2.68262">
        <ele>936</ele>
        <time>2022-07-30T21:41:56.000Z</time>
      </trkpt>
      <trkpt lat="45.53439" lon="2.68264">
        <ele>936</ele>
        <time>2022-07-30T21:41:57.000Z</time>
      </trkpt>
      <trkpt lat="45.53444" lon="2.68266">
        <ele>931</ele>
        <time>2022-07-30T21:41:58.000Z</time>
      </trkpt>
      <trkpt lat="45.53448" lon="2.68267">
        <ele>931</ele>
        <time>2022-07-30T21:41:59.000Z</time>
      </trkpt>
      <trkpt lat="45.53453" lon="2.68269">
        <ele>931</ele>
        <time>2022-07-30T21:42:00.000Z</time>
      </trkpt>
      <trkpt lat="45.53457" lon="2.68271">
        <ele>931</ele>
        <time>2022-07-30T21:42:01.000Z</time>
      </trkpt>
      <trkpt lat="45.53462" lon="2.68273">
        <ele>931</ele>
        <time>2022-07-30T21:42:02.000Z</time>
      </trkpt>
      <trkpt lat="45.53466" lon="2.68274">
        <ele>931</ele>
        <time>2022-07-30T21:42:03.000Z</time>
      </trkpt>
      <trkpt lat="45.53471" lon="2.68276">
        <ele>931</ele>
        <time>2022-07-30T21:42:04.000Z</time>
      </trkpt>
      <trkpt lat="45.53475" lon="2.68278">
        <ele>931</ele>
        <time>2022-07-30T21:42:05.000Z</time>
      </trkpt>
      <trkpt lat="45.5348" lon="2.68283">
        <ele>931</ele>
        <time>2022-07-30T21:42:06.000Z</time>
      </trkpt>
      <trkpt lat="45.53484" lon="2.68288">
        <ele>931</ele>
        <time>2022-07-30T21:42:07.000Z</time>
      </trkpt>
      <trkpt lat="45.53486" lon="2.68295">
        <ele>931</ele>
        <time>2022-07-30T21:42:08.000Z</time>
      </trkpt>
      <trkpt lat="45.53488" lon="2.68301">
        <ele>931</ele>
        <time>2022-07-30T21:42:09.000Z</time>
      </trkpt>
      <trkpt lat="45.5349" lon="2.68307">
        <ele>931</ele>
        <time>2022-07-30T21:42:10.000Z</time>
      </trkpt>
      <trkpt lat="45.53492" lon="2.68313">
        <ele>932</ele>
        <time>2022-07-30T21:42:11.000Z</time>
      </trkpt>
      <trkpt lat="45.53495" lon="2.68319">
        <ele>932</ele>
        <time>2022-07-30T21:42:12.000Z</time>
      </trkpt>
      <trkpt lat="45.53499" lon="2.68325">
        <ele>932</ele>
        <time>2022-07-30T21:42:13.000Z</time>
      </trkpt>
      <trkpt lat="45.53502" lon="2.6833">
        <ele>932</ele>
        <time>2022-07-30T21:42:14.000Z</time>
      </trkpt>
      <trkpt lat="45.53505" lon="2.68334">
        <ele>932</ele>
        <time>2022-07-30T21:42:15.000Z</time>
      </trkpt>
      <trkpt lat="45.53508" lon="2.68339">
        <ele>932</ele>
        <time>2022-07-30T21:42:16.000Z</time>
      </trkpt>
      <trkpt lat="45.53511" lon="2.68344">
        <ele>932</ele>
        <time>2022-07-30T21:42:17.000Z</time>
      </trkpt>
      <trkpt lat="45.53513" lon="2.68352">
        <ele>932</ele>
        <time>2022-07-30T21:42:18.000Z</time>
      </trkpt>
      <trkpt lat="45.53515" lon="2.6836">
        <ele>932</ele>
        <time>2022-07-30T21:42:19.000Z</time>
      </trkpt>
      <trkpt lat="45.53517" lon="2.68368">
        <ele>932</ele>
        <time>2022-07-30T21:42:20.000Z</time>
      </trkpt>
      <trkpt lat="45.53519" lon="2.68375">
        <ele>932</ele>
        <time>2022-07-30T21:42:21.000Z</time>
      </trkpt>
      <trkpt lat="45.5352" lon="2.68383">
        <ele>932</ele>
        <time>2022-07-30T21:42:22.000Z</time>
      </trkpt>
      <trkpt lat="45.53524" lon="2.68379">
        <ele>932</ele>
        <time>2022-07-30T21:42:23.000Z</time>
      </trkpt>
      <trkpt lat="45.53528" lon="2.68376">
        <ele>932</ele>
        <time>2022-07-30T21:42:24.000Z</time>
      </trkpt>
      <trkpt lat="45.53532" lon="2.68372">
        <ele>933</ele>
        <time>2022-07-30T21:42:25.000Z</time>
      </trkpt>
      <trkpt lat="45.53536" lon="2.68369">
        <ele>933</ele>
        <time>2022-07-30T21:42:26.000Z</time>
      </trkpt>
      <trkpt lat="45.5354" lon="2.68365">
        <ele>933</ele>
        <time>2022-07-30T21:42:27.000Z</time>
      </trkpt>
      <trkpt lat="45.53544" lon="2.68362">
        <ele>933</ele>
        <time>2022-07-30T21:42:28.000Z</time>
      </trkpt>
      <trkpt lat="45.53547" lon="2.68359">
        <ele>933</ele>
        <time>2022-07-30T21:42:29.000Z</time>
      </trkpt>
      <trkpt lat="45.53551" lon="2.68355">
        <ele>933</ele>
        <time>2022-07-30T21:42:30.000Z</time>
      </trkpt>
      <trkpt lat="45.53555" lon="2.68352">
        <ele>933</ele>
        <time>2022-07-30T21:42:31.000Z</time>
      </trkpt>
      <trkpt lat="45.53559" lon="2.68348">
        <ele>933</ele>
        <time>2022-07-30T21:42:32.000Z</time>
      </trkpt>
      <trkpt lat="45.53563" lon="2.68345">
        <ele>933</ele>
        <time>2022-07-30T21:42:33.000Z</time>
      </trkpt>
      <trkpt lat="45.53567" lon="2.68341">
        <ele>933</ele>
        <time>2022-07-30T21:42:34.000Z</time>
      </trkpt>
      <trkpt lat="45.53569" lon="2.68335">
        <ele>933</ele>
        <time>2022-07-30T21:42:35.000Z</time>
      </trkpt>
      <trkpt lat="45.53571" lon="2.68329">
        <ele>933</ele>
        <time>2022-07-30T21:42:36.000Z</time>
      </trkpt>
      <trkpt lat="45.53573" lon="2.68323">
        <ele>933</ele>
        <time>2022-07-30T21:42:37.000Z</time>
      </trkpt>
      <trkpt lat="45.53576" lon="2.68317">
        <ele>934</ele>
        <time>2022-07-30T21:42:38.000Z</time>
      </trkpt>
      <trkpt lat="45.53578" lon="2.68311">
        <ele>934</ele>
        <time>2022-07-30T21:42:39.000Z</time>
      </trkpt>
      <trkpt lat="45.5358" lon="2.68304">
        <ele>934</ele>
        <time>2022-07-30T21:42:40.000Z</time>
      </trkpt>
      <trkpt lat="45.53583" lon="2.68298">
        <ele>934</ele>
        <time>2022-07-30T21:42:41.000Z</time>
      </trkpt>
      <trkpt lat="45.53585" lon="2.68292">
        <ele>934</ele>
        <time>2022-07-30T21:42:42.000Z</time>
      </trkpt>
      <trkpt lat="45.53587" lon="2.68286">
        <ele>934</ele>
        <time>2022-07-30T21:42:43.000Z</time>
      </trkpt>
      <trkpt lat="45.53589" lon="2.6828">
        <ele>934</ele>
        <time>2022-07-30T21:42:44.000Z</time>
      </trkpt>
      <trkpt lat="45.53592" lon="2.68273">
        <ele>934</ele>
        <time>2022-07-30T21:42:45.000Z</time>
      </trkpt>
      <trkpt lat="45.53594" lon="2.68267">
        <ele>934</ele>
        <time>2022-07-30T21:42:46.000Z</time>
      </trkpt>
      <trkpt lat="45.53597" lon="2.6826">
        <ele>934</ele>
        <time>2022-07-30T21:42:47.000Z</time>
      </trkpt>
      <trkpt lat="45.53599" lon="2.68254">
        <ele>934</ele>
        <time>2022-07-30T21:42:48.000Z</time>
      </trkpt>
      <trkpt lat="45.53601" lon="2.68248">
        <ele>934</ele>
        <time>2022-07-30T21:42:49.000Z</time>
      </trkpt>
      <trkpt lat="45.53604" lon="2.68241">
        <ele>934</ele>
        <time>2022-07-30T21:42:50.000Z</time>
      </trkpt>
      <trkpt lat="45.53606" lon="2.68235">
        <ele>934</ele>
        <time>2022-07-30T21:42:51.000Z</time>
      </trkpt>
      <trkpt lat="45.53609" lon="2.68228">
        <ele>934</ele>
        <time>2022-07-30T21:42:52.000Z</time>
      </trkpt>
      <trkpt lat="45.53611" lon="2.68222">
        <ele>934</ele>
        <time>2022-07-30T21:42:53.000Z</time>
      </trkpt>
      <trkpt lat="45.53614" lon="2.68216">
        <ele>937</ele>
        <time>2022-07-30T21:42:54.000Z</time>
      </trkpt>
      <trkpt lat="45.53617" lon="2.6821">
        <ele>937</ele>
        <time>2022-07-30T21:42:55.000Z</time>
      </trkpt>
      <trkpt lat="45.53619" lon="2.68203">
        <ele>937</ele>
        <time>2022-07-30T21:42:56.000Z</time>
      </trkpt>
      <trkpt lat="45.53622" lon="2.68197">
        <ele>937</ele>
        <time>2022-07-30T21:42:57.000Z</time>
      </trkpt>
      <trkpt lat="45.53627" lon="2.68195">
        <ele>937</ele>
        <time>2022-07-30T21:42:58.000Z</time>
      </trkpt>
      <trkpt lat="45.53632" lon="2.68192">
        <ele>937</ele>
        <time>2022-07-30T21:42:59.000Z</time>
      </trkpt>
      <trkpt lat="45.53637" lon="2.6819">
        <ele>937</ele>
        <time>2022-07-30T21:43:00.000Z</time>
      </trkpt>
      <trkpt lat="45.53641" lon="2.68187">
        <ele>937</ele>
        <time>2022-07-30T21:43:01.000Z</time>
      </trkpt>
      <trkpt lat="45.53646" lon="2.68185">
        <ele>937</ele>
        <time>2022-07-30T21:43:02.000Z</time>
      </trkpt>
      <trkpt lat="45.53648" lon="2.68179">
        <ele>937</ele>
        <time>2022-07-30T21:43:03.000Z</time>
      </trkpt>
      <trkpt lat="45.5365" lon="2.68172">
        <ele>937</ele>
        <time>2022-07-30T21:43:04.000Z</time>
      </trkpt>
      <trkpt lat="45.53652" lon="2.68166">
        <ele>937</ele>
        <time>2022-07-30T21:43:05.000Z</time>
      </trkpt>
      <trkpt lat="45.53653" lon="2.68159">
        <ele>937</ele>
        <time>2022-07-30T21:43:06.000Z</time>
      </trkpt>
      <trkpt lat="45.53655" lon="2.68153">
        <ele>937</ele>
        <time>2022-07-30T21:43:07.000Z</time>
      </trkpt>
      <trkpt lat="45.53657" lon="2.68146">
        <ele>929</ele>
        <time>2022-07-30T21:43:08.000Z</time>
      </trkpt>
      <trkpt lat="45.53659" lon="2.6814">
        <ele>929</ele>
        <time>2022-07-30T21:43:09.000Z</time>
      </trkpt>
      <trkpt lat="45.5366" lon="2.68133">
        <ele>929</ele>
        <time>2022-07-30T21:43:10.000Z</time>
      </trkpt>
      <trkpt lat="45.53662" lon="2.68127">
        <ele>929</ele>
        <time>2022-07-30T21:43:11.000Z</time>
      </trkpt>
      <trkpt lat="45.53659" lon="2.6812">
        <ele>929</ele>
        <time>2022-07-30T21:43:12.000Z</time>
      </trkpt>
      <trkpt lat="45.53662" lon="2.68114">
        <ele>929</ele>
        <time>2022-07-30T21:43:13.000Z</time>
      </trkpt>
      <trkpt lat="45.53665" lon="2.68108">
        <ele>929</ele>
        <time>2022-07-30T21:43:14.000Z</time>
      </trkpt>
      <trkpt lat="45.53667" lon="2.68101">
        <ele>929</ele>
        <time>2022-07-30T21:43:15.000Z</time>
      </trkpt>
      <trkpt lat="45.5367" lon="2.68095">
        <ele>929</ele>
        <time>2022-07-30T21:43:16.000Z</time>
      </trkpt>
      <trkpt lat="45.53672" lon="2.68089">
        <ele>929</ele>
        <time>2022-07-30T21:43:17.000Z</time>
      </trkpt>
      <trkpt lat="45.53675" lon="2.68083">
        <ele>929</ele>
        <time>2022-07-30T21:43:18.000Z</time>
      </trkpt>
      <trkpt lat="45.53678" lon="2.68076">
        <ele>929</ele>
        <time>2022-07-30T21:43:19.000Z</time>
      </trkpt>
      <trkpt lat="45.53682" lon="2.68071">
        <ele>929</ele>
        <time>2022-07-30T21:43:20.000Z</time>
      </trkpt>
      <trkpt lat="45.53686" lon="2.68066">
        <ele>929</ele>
        <time>2022-07-30T21:43:21.000Z</time>
      </trkpt>
      <trkpt lat="45.5369" lon="2.68061">
        <ele>929</ele>
        <time>2022-07-30T21:43:22.000Z</time>
      </trkpt>
      <trkpt lat="45.53693" lon="2.68057">
        <ele>929</ele>
        <time>2022-07-30T21:43:23.000Z</time>
      </trkpt>
      <trkpt lat="45.53697" lon="2.68053">
        <ele>929</ele>
        <time>2022-07-30T21:43:24.000Z</time>
      </trkpt>
      <trkpt lat="45.537" lon="2.68049">
        <ele>929</ele>
        <time>2022-07-30T21:43:25.000Z</time>
      </trkpt>
      <trkpt lat="45.53704" lon="2.68046">
        <ele>929</ele>
        <time>2022-07-30T21:43:26.000Z</time>
      </trkpt>
      <trkpt lat="45.53708" lon="2.68042">
        <ele>921</ele>
        <time>2022-07-30T21:43:27.000Z</time>
      </trkpt>
      <trkpt lat="45.53711" lon="2.68038">
        <ele>921</ele>
        <time>2022-07-30T21:43:28.000Z</time>
      </trkpt>
      <trkpt lat="45.53715" lon="2.68034">
        <ele>921</ele>
        <time>2022-07-30T21:43:29.000Z</time>
      </trkpt>
      <trkpt lat="45.53718" lon="2.6803">
        <ele>921</ele>
        <time>2022-07-30T21:43:30.000Z</time>
      </trkpt>
      <trkpt lat="45.53722" lon="2.68026">
        <ele>921</ele>
        <time>2022-07-30T21:43:31.000Z</time>
      </trkpt>
      <trkpt lat="45.53726" lon="2.68023">
        <ele>925</ele>
        <time>2022-07-30T21:43:32.000Z</time>
      </trkpt>
      <trkpt lat="45.5373" lon="2.68017">
        <ele>925</ele>
        <time>2022-07-30T21:43:33.000Z</time>
      </trkpt>
      <trkpt lat="45.53734" lon="2.68012">
        <ele>925</ele>
        <time>2022-07-30T21:43:34.000Z</time>
      </trkpt>
      <trkpt lat="45.53738" lon="2.68006">
        <ele>925</ele>
        <time>2022-07-30T21:43:35.000Z</time>
      </trkpt>
      <trkpt lat="45.53742" lon="2.68001">
        <ele>925</ele>
        <time>2022-07-30T21:43:36.000Z</time>
      </trkpt>
      <trkpt lat="45.53745" lon="2.67996">
        <ele>925</ele>
        <time>2022-07-30T21:43:37.000Z</time>
      </trkpt>
      <trkpt lat="45.53748" lon="2.6799">
        <ele>925</ele>
        <time>2022-07-30T21:43:38.000Z</time>
      </trkpt>
      <trkpt lat="45.53751" lon="2.67985">
        <ele>925</ele>
        <time>2022-07-30T21:43:39.000Z</time>
      </trkpt>
      <trkpt lat="45.53755" lon="2.67981">
        <ele>925</ele>
        <time>2022-07-30T21:43:40.000Z</time>
      </trkpt>
      <trkpt lat="45.5376" lon="2.67977">
        <ele>925</ele>
        <time>2022-07-30T21:43:41.000Z</time>
      </trkpt>
      <trkpt lat="45.53764" lon="2.67973">
        <ele>925</ele>
        <time>2022-07-30T21:43:42.000Z</time>
      </trkpt>
      <trkpt lat="45.53768" lon="2.67969">
        <ele>925</ele>
        <time>2022-07-30T21:43:43.000Z</time>
      </trkpt>
      <trkpt lat="45.53772" lon="2.67965">
        <ele>928</ele>
        <time>2022-07-30T21:43:44.000Z</time>
      </trkpt>
      <trkpt lat="45.53776" lon="2.67961">
        <ele>928</ele>
        <time>2022-07-30T21:43:45.000Z</time>
      </trkpt>
      <trkpt lat="45.53781" lon="2.67956">
        <ele>928</ele>
        <time>2022-07-30T21:43:46.000Z</time>
      </trkpt>
      <trkpt lat="45.53785" lon="2.67951">
        <ele>928</ele>
        <time>2022-07-30T21:43:47.000Z</time>
      </trkpt>
      <trkpt lat="45.5379" lon="2.67946">
        <ele>928</ele>
        <time>2022-07-30T21:43:48.000Z</time>
      </trkpt>
      <trkpt lat="45.53793" lon="2.6794">
        <ele>928</ele>
        <time>2022-07-30T21:43:49.000Z</time>
      </trkpt>
      <trkpt lat="45.53796" lon="2.67935">
        <ele>928</ele>
        <time>2022-07-30T21:43:50.000Z</time>
      </trkpt>
      <trkpt lat="45.53799" lon="2.67926">
        <ele>928</ele>
        <time>2022-07-30T21:43:51.000Z</time>
      </trkpt>
      <trkpt lat="45.53802" lon="2.67918">
        <ele>928</ele>
        <time>2022-07-30T21:43:52.000Z</time>
      </trkpt>
      <trkpt lat="45.53804" lon="2.67916">
        <ele>928</ele>
        <time>2022-07-30T21:43:53.000Z</time>
      </trkpt>
      <trkpt lat="45.53808" lon="2.6791">
        <ele>928</ele>
        <time>2022-07-30T21:43:54.000Z</time>
      </trkpt>
      <trkpt lat="45.53815" lon="2.67906">
        <ele>928</ele>
        <time>2022-07-30T21:43:55.000Z</time>
      </trkpt>
      <trkpt lat="45.53821" lon="2.67907">
        <ele>928</ele>
        <time>2022-07-30T21:43:56.000Z</time>
      </trkpt>
      <trkpt lat="45.53822" lon="2.67908">
        <ele>933</ele>
        <time>2022-07-30T21:43:57.000Z</time>
      </trkpt>
      <trkpt lat="45.53823" lon="2.67909">
        <ele>933</ele>
        <time>2022-07-30T21:43:58.000Z</time>
      </trkpt>
      <trkpt lat="45.53825" lon="2.67911">
        <ele>933</ele>
        <time>2022-07-30T21:43:59.000Z</time>
      </trkpt>
      <trkpt lat="45.53829" lon="2.6792">
        <ele>933</ele>
        <time>2022-07-30T21:44:00.000Z</time>
      </trkpt>
      <trkpt lat="45.53831" lon="2.67925">
        <ele>933</ele>
        <time>2022-07-30T21:44:01.000Z</time>
      </trkpt>
      <trkpt lat="45.53831" lon="2.67933">
        <ele>933</ele>
        <time>2022-07-30T21:44:02.000Z</time>
      </trkpt>
      <trkpt lat="45.53832" lon="2.67942">
        <ele>933</ele>
        <time>2022-07-30T21:44:03.000Z</time>
      </trkpt>
      <trkpt lat="45.53834" lon="2.67954">
        <ele>933</ele>
        <time>2022-07-30T21:44:04.000Z</time>
      </trkpt>
      <trkpt lat="45.53837" lon="2.67959">
        <ele>933</ele>
        <time>2022-07-30T21:44:05.000Z</time>
      </trkpt>
      <trkpt lat="45.53842" lon="2.67962">
        <ele>933</ele>
        <time>2022-07-30T21:44:06.000Z</time>
      </trkpt>
      <trkpt lat="45.53846" lon="2.67965">
        <ele>933</ele>
        <time>2022-07-30T21:44:07.000Z</time>
      </trkpt>
      <trkpt lat="45.53854" lon="2.67968">
        <ele>933</ele>
        <time>2022-07-30T21:44:08.000Z</time>
      </trkpt>
      <trkpt lat="45.53854" lon="2.67968">
        <ele>933</ele>
        <time>2022-07-30T21:44:09.000Z</time>
      </trkpt>
      <trkpt lat="45.53858" lon="2.67971">
        <ele>933</ele>
        <time>2022-07-30T21:44:10.000Z</time>
      </trkpt>
      <trkpt lat="45.5386" lon="2.67972">
        <ele>933</ele>
        <time>2022-07-30T21:44:11.000Z</time>
      </trkpt>
      <trkpt lat="45.53862" lon="2.67976">
        <ele>937</ele>
        <time>2022-07-30T21:44:12.000Z</time>
      </trkpt>
      <trkpt lat="45.53862" lon="2.6798">
        <ele>937</ele>
        <time>2022-07-30T21:44:13.000Z</time>
      </trkpt>
      <trkpt lat="45.53862" lon="2.67984">
        <ele>937</ele>
        <time>2022-07-30T21:44:14.000Z</time>
      </trkpt>
      <trkpt lat="45.53862" lon="2.67989">
        <ele>937</ele>
        <time>2022-07-30T21:44:15.000Z</time>
      </trkpt>
      <trkpt lat="45.53863" lon="2.67993">
        <ele>937</ele>
        <time>2022-07-30T21:44:16.000Z</time>
      </trkpt>
      <trkpt lat="45.53864" lon="2.67996">
        <ele>933</ele>
        <time>2022-07-30T21:44:17.000Z</time>
      </trkpt>
      <trkpt lat="45.53865" lon="2.68001">
        <ele>933</ele>
        <time>2022-07-30T21:44:18.000Z</time>
      </trkpt>
      <trkpt lat="45.53867" lon="2.68005">
        <ele>933</ele>
        <time>2022-07-30T21:44:19.000Z</time>
      </trkpt>
      <trkpt lat="45.53869" lon="2.68009">
        <ele>933</ele>
        <time>2022-07-30T21:44:20.000Z</time>
      </trkpt>
      <trkpt lat="45.53871" lon="2.68014">
        <ele>933</ele>
        <time>2022-07-30T21:44:21.000Z</time>
      </trkpt>
      <trkpt lat="45.53871" lon="2.68014">
        <ele>933</ele>
        <time>2022-07-30T21:44:22.000Z</time>
      </trkpt>
      <trkpt lat="45.53872" lon="2.68014">
        <ele>933</ele>
        <time>2022-07-30T21:44:23.000Z</time>
      </trkpt>
      <trkpt lat="45.53872" lon="2.68021">
        <ele>933</ele>
        <time>2022-07-30T21:44:24.000Z</time>
      </trkpt>
      <trkpt lat="45.53875" lon="2.68026">
        <ele>933</ele>
        <time>2022-07-30T21:44:25.000Z</time>
      </trkpt>
      <trkpt lat="45.53878" lon="2.68032">
        <ele>933</ele>
        <time>2022-07-30T21:44:26.000Z</time>
      </trkpt>
      <trkpt lat="45.5388" lon="2.68038">
        <ele>933</ele>
        <time>2022-07-30T21:44:27.000Z</time>
      </trkpt>
      <trkpt lat="45.53883" lon="2.68043">
        <ele>933</ele>
        <time>2022-07-30T21:44:28.000Z</time>
      </trkpt>
      <trkpt lat="45.53887" lon="2.68047">
        <ele>924</ele>
        <time>2022-07-30T21:44:29.000Z</time>
      </trkpt>
      <trkpt lat="45.53891" lon="2.68051">
        <ele>924</ele>
        <time>2022-07-30T21:44:30.000Z</time>
      </trkpt>
      <trkpt lat="45.53895" lon="2.68054">
        <ele>924</ele>
        <time>2022-07-30T21:44:31.000Z</time>
      </trkpt>
      <trkpt lat="45.53899" lon="2.68058">
        <ele>924</ele>
        <time>2022-07-30T21:44:32.000Z</time>
      </trkpt>
      <trkpt lat="45.53903" lon="2.68061">
        <ele>924</ele>
        <time>2022-07-30T21:44:33.000Z</time>
      </trkpt>
      <trkpt lat="45.53908" lon="2.68065">
        <ele>924</ele>
        <time>2022-07-30T21:44:34.000Z</time>
      </trkpt>
      <trkpt lat="45.53911" lon="2.6807">
        <ele>924</ele>
        <time>2022-07-30T21:44:35.000Z</time>
      </trkpt>
      <trkpt lat="45.53914" lon="2.68075">
        <ele>924</ele>
        <time>2022-07-30T21:44:36.000Z</time>
      </trkpt>
      <trkpt lat="45.53917" lon="2.68079">
        <ele>924</ele>
        <time>2022-07-30T21:44:37.000Z</time>
      </trkpt>
      <trkpt lat="45.53921" lon="2.68084">
        <ele>924</ele>
        <time>2022-07-30T21:44:38.000Z</time>
      </trkpt>
      <trkpt lat="45.53924" lon="2.68089">
        <ele>924</ele>
        <time>2022-07-30T21:44:39.000Z</time>
      </trkpt>
      <trkpt lat="45.53927" lon="2.68094">
        <ele>933</ele>
        <time>2022-07-30T21:44:40.000Z</time>
      </trkpt>
      <trkpt lat="45.53931" lon="2.68099">
        <ele>933</ele>
        <time>2022-07-30T21:44:41.000Z</time>
      </trkpt>
      <trkpt lat="45.53935" lon="2.68104">
        <ele>933</ele>
        <time>2022-07-30T21:44:42.000Z</time>
      </trkpt>
      <trkpt lat="45.53939" lon="2.68109">
        <ele>933</ele>
        <time>2022-07-30T21:44:43.000Z</time>
      </trkpt>
      <trkpt lat="45.53944" lon="2.68114">
        <ele>933</ele>
        <time>2022-07-30T21:44:44.000Z</time>
      </trkpt>
      <trkpt lat="45.53948" lon="2.68119">
        <ele>926</ele>
        <time>2022-07-30T21:44:45.000Z</time>
      </trkpt>
      <trkpt lat="45.53951" lon="2.68124">
        <ele>926</ele>
        <time>2022-07-30T21:44:46.000Z</time>
      </trkpt>
      <trkpt lat="45.53955" lon="2.68128">
        <ele>926</ele>
        <time>2022-07-30T21:44:47.000Z</time>
      </trkpt>
      <trkpt lat="45.53958" lon="2.68133">
        <ele>926</ele>
        <time>2022-07-30T21:44:48.000Z</time>
      </trkpt>
      <trkpt lat="45.53962" lon="2.68137">
        <ele>926</ele>
        <time>2022-07-30T21:44:49.000Z</time>
      </trkpt>
      <trkpt lat="45.53964" lon="2.68143">
        <ele>926</ele>
        <time>2022-07-30T21:44:50.000Z</time>
      </trkpt>
      <trkpt lat="45.53966" lon="2.68149">
        <ele>926</ele>
        <time>2022-07-30T21:44:51.000Z</time>
      </trkpt>
      <trkpt lat="45.53969" lon="2.68155">
        <ele>926</ele>
        <time>2022-07-30T21:44:52.000Z</time>
      </trkpt>
      <trkpt lat="45.53971" lon="2.68161">
        <ele>926</ele>
        <time>2022-07-30T21:44:53.000Z</time>
      </trkpt>
      <trkpt lat="45.53974" lon="2.68167">
        <ele>926</ele>
        <time>2022-07-30T21:44:54.000Z</time>
      </trkpt>
      <trkpt lat="45.53975" lon="2.68173">
        <ele>926</ele>
        <time>2022-07-30T21:44:55.000Z</time>
      </trkpt>
      <trkpt lat="45.53976" lon="2.6818">
        <ele>926</ele>
        <time>2022-07-30T21:44:56.000Z</time>
      </trkpt>
      <trkpt lat="45.53977" lon="2.68187">
        <ele>926</ele>
        <time>2022-07-30T21:44:57.000Z</time>
      </trkpt>
      <trkpt lat="45.53978" lon="2.68193">
        <ele>920</ele>
        <time>2022-07-30T21:44:58.000Z</time>
      </trkpt>
      <trkpt lat="45.53978" lon="2.68197">
        <ele>920</ele>
        <time>2022-07-30T21:44:59.000Z</time>
      </trkpt>
      <trkpt lat="45.53978" lon="2.682">
        <ele>920</ele>
        <time>2022-07-30T21:45:00.000Z</time>
      </trkpt>
      <trkpt lat="45.53978" lon="2.68205">
        <ele>920</ele>
        <time>2022-07-30T21:45:01.000Z</time>
      </trkpt>
      <trkpt lat="45.53978" lon="2.6821">
        <ele>920</ele>
        <time>2022-07-30T21:45:02.000Z</time>
      </trkpt>
      <trkpt lat="45.53978" lon="2.68216">
        <ele>920</ele>
        <time>2022-07-30T21:45:03.000Z</time>
      </trkpt>
      <trkpt lat="45.53984" lon="2.68214">
        <ele>920</ele>
        <time>2022-07-30T21:45:04.000Z</time>
      </trkpt>
      <trkpt lat="45.53989" lon="2.68212">
        <ele>920</ele>
        <time>2022-07-30T21:45:05.000Z</time>
      </trkpt>
      <trkpt lat="45.53994" lon="2.6821">
        <ele>920</ele>
        <time>2022-07-30T21:45:06.000Z</time>
      </trkpt>
      <trkpt lat="45.53999" lon="2.68208">
        <ele>920</ele>
        <time>2022-07-30T21:45:07.000Z</time>
      </trkpt>
      <trkpt lat="45.54005" lon="2.68207">
        <ele>920</ele>
        <time>2022-07-30T21:45:08.000Z</time>
      </trkpt>
      <trkpt lat="45.5401" lon="2.68206">
        <ele>920</ele>
        <time>2022-07-30T21:45:09.000Z</time>
      </trkpt>
      <trkpt lat="45.54015" lon="2.68205">
        <ele>935</ele>
        <time>2022-07-30T21:45:10.000Z</time>
      </trkpt>
      <trkpt lat="45.5402" lon="2.68205">
        <ele>935</ele>
        <time>2022-07-30T21:45:11.000Z</time>
      </trkpt>
      <trkpt lat="45.54026" lon="2.68204">
        <ele>935</ele>
        <time>2022-07-30T21:45:12.000Z</time>
      </trkpt>
      <trkpt lat="45.5403" lon="2.68203">
        <ele>935</ele>
        <time>2022-07-30T21:45:13.000Z</time>
      </trkpt>
      <trkpt lat="45.54035" lon="2.68203">
        <ele>935</ele>
        <time>2022-07-30T21:45:14.000Z</time>
      </trkpt>
      <trkpt lat="45.5404" lon="2.68202">
        <ele>935</ele>
        <time>2022-07-30T21:45:15.000Z</time>
      </trkpt>
      <trkpt lat="45.54045" lon="2.68202">
        <ele>929</ele>
        <time>2022-07-30T21:45:16.000Z</time>
      </trkpt>
      <trkpt lat="45.5405" lon="2.68201">
        <ele>929</ele>
        <time>2022-07-30T21:45:17.000Z</time>
      </trkpt>
      <trkpt lat="45.54054" lon="2.68201">
        <ele>929</ele>
        <time>2022-07-30T21:45:18.000Z</time>
      </trkpt>
      <trkpt lat="45.54059" lon="2.682">
        <ele>929</ele>
        <time>2022-07-30T21:45:19.000Z</time>
      </trkpt>
      <trkpt lat="45.54064" lon="2.682">
        <ele>929</ele>
        <time>2022-07-30T21:45:20.000Z</time>
      </trkpt>
      <trkpt lat="45.54069" lon="2.68199">
        <ele>929</ele>
        <time>2022-07-30T21:45:21.000Z</time>
      </trkpt>
      <trkpt lat="45.54074" lon="2.68199">
        <ele>929</ele>
        <time>2022-07-30T21:45:22.000Z</time>
      </trkpt>
      <trkpt lat="45.54078" lon="2.68198">
        <ele>929</ele>
        <time>2022-07-30T21:45:23.000Z</time>
      </trkpt>
      <trkpt lat="45.54083" lon="2.68198">
        <ele>929</ele>
        <time>2022-07-30T21:45:24.000Z</time>
      </trkpt>
      <trkpt lat="45.54088" lon="2.68197">
        <ele>929</ele>
        <time>2022-07-30T21:45:25.000Z</time>
      </trkpt>
      <trkpt lat="45.54093" lon="2.68197">
        <ele>929</ele>
        <time>2022-07-30T21:45:26.000Z</time>
      </trkpt>
      <trkpt lat="45.54097" lon="2.68197">
        <ele>929</ele>
        <time>2022-07-30T21:45:27.000Z</time>
      </trkpt>
      <trkpt lat="45.54102" lon="2.68196">
        <ele>929</ele>
        <time>2022-07-30T21:45:28.000Z</time>
      </trkpt>
      <trkpt lat="45.54107" lon="2.68196">
        <ele>929</ele>
        <time>2022-07-30T21:45:29.000Z</time>
      </trkpt>
      <trkpt lat="45.54112" lon="2.68196">
        <ele>929</ele>
        <time>2022-07-30T21:45:30.000Z</time>
      </trkpt>
      <trkpt lat="45.54116" lon="2.68195">
        <ele>929</ele>
        <time>2022-07-30T21:45:31.000Z</time>
      </trkpt>
      <trkpt lat="45.54121" lon="2.68195">
        <ele>929</ele>
        <time>2022-07-30T21:45:32.000Z</time>
      </trkpt>
      <trkpt lat="45.54126" lon="2.68195">
        <ele>935</ele>
        <time>2022-07-30T21:45:33.000Z</time>
      </trkpt>
      <trkpt lat="45.54131" lon="2.68194">
        <ele>935</ele>
        <time>2022-07-30T21:45:34.000Z</time>
      </trkpt>
      <trkpt lat="45.54135" lon="2.68194">
        <ele>935</ele>
        <time>2022-07-30T21:45:35.000Z</time>
      </trkpt>
      <trkpt lat="45.5414" lon="2.68194">
        <ele>935</ele>
        <time>2022-07-30T21:45:36.000Z</time>
      </trkpt>
      <trkpt lat="45.54145" lon="2.68193">
        <ele>935</ele>
        <time>2022-07-30T21:45:37.000Z</time>
      </trkpt>
      <trkpt lat="45.5415" lon="2.68193">
        <ele>935</ele>
        <time>2022-07-30T21:45:38.000Z</time>
      </trkpt>
      <trkpt lat="45.54156" lon="2.68192">
        <ele>935</ele>
        <time>2022-07-30T21:45:39.000Z</time>
      </trkpt>
      <trkpt lat="45.54162" lon="2.68191">
        <ele>935</ele>
        <time>2022-07-30T21:45:40.000Z</time>
      </trkpt>
      <trkpt lat="45.54168" lon="2.6819">
        <ele>935</ele>
        <time>2022-07-30T21:45:41.000Z</time>
      </trkpt>
      <trkpt lat="45.54169" lon="2.68185">
        <ele>935</ele>
        <time>2022-07-30T21:45:42.000Z</time>
      </trkpt>
      <trkpt lat="45.54173" lon="2.68187">
        <ele>942</ele>
        <time>2022-07-30T21:45:43.000Z</time>
      </trkpt>
      <trkpt lat="45.54178" lon="2.68189">
        <ele>942</ele>
        <time>2022-07-30T21:45:44.000Z</time>
      </trkpt>
      <trkpt lat="45.54182" lon="2.68189">
        <ele>942</ele>
        <time>2022-07-30T21:45:45.000Z</time>
      </trkpt>
      <trkpt lat="45.54187" lon="2.68189">
        <ele>942</ele>
        <time>2022-07-30T21:45:46.000Z</time>
      </trkpt>
      <trkpt lat="45.54192" lon="2.68189">
        <ele>942</ele>
        <time>2022-07-30T21:45:47.000Z</time>
      </trkpt>
      <trkpt lat="45.54197" lon="2.68189">
        <ele>942</ele>
        <time>2022-07-30T21:45:48.000Z</time>
      </trkpt>
      <trkpt lat="45.54202" lon="2.68189">
        <ele>942</ele>
        <time>2022-07-30T21:45:49.000Z</time>
      </trkpt>
      <trkpt lat="45.54206" lon="2.68189">
        <ele>942</ele>
        <time>2022-07-30T21:45:50.000Z</time>
      </trkpt>
      <trkpt lat="45.54211" lon="2.68189">
        <ele>942</ele>
        <time>2022-07-30T21:45:51.000Z</time>
      </trkpt>
      <trkpt lat="45.54216" lon="2.68189">
        <ele>942</ele>
        <time>2022-07-30T21:45:52.000Z</time>
      </trkpt>
      <trkpt lat="45.54221" lon="2.68189">
        <ele>942</ele>
        <time>2022-07-30T21:45:53.000Z</time>
      </trkpt>
      <trkpt lat="45.54225" lon="2.68189">
        <ele>942</ele>
        <time>2022-07-30T21:45:54.000Z</time>
      </trkpt>
      <trkpt lat="45.5423" lon="2.68189">
        <ele>942</ele>
        <time>2022-07-30T21:45:55.000Z</time>
      </trkpt>
      <trkpt lat="45.54235" lon="2.68189">
        <ele>942</ele>
        <time>2022-07-30T21:45:56.000Z</time>
      </trkpt>
      <trkpt lat="45.5424" lon="2.68189">
        <ele>942</ele>
        <time>2022-07-30T21:45:57.000Z</time>
      </trkpt>
      <trkpt lat="45.54244" lon="2.68188">
        <ele>948.6</ele>
        <time>2022-07-30T21:45:58.000Z</time>
      </trkpt>
      <trkpt lat="45.54249" lon="2.68187">
        <ele>949.3</ele>
        <time>2022-07-30T21:45:59.000Z</time>
      </trkpt>
      <trkpt lat="45.54254" lon="2.68186">
        <ele>949.7</ele>
        <time>2022-07-30T21:46:00.000Z</time>
      </trkpt>
      <trkpt lat="45.54258" lon="2.68185">
        <ele>950</ele>
        <time>2022-07-30T21:46:01.000Z</time>
      </trkpt>
      <trkpt lat="45.54263" lon="2.68184">
        <ele>950.4</ele>
        <time>2022-07-30T21:46:02.000Z</time>
      </trkpt>
      <trkpt lat="45.54267" lon="2.68183">
        <ele>950.8</ele>
        <time>2022-07-30T21:46:03.000Z</time>
      </trkpt>
      <trkpt lat="45.54272" lon="2.68182">
        <ele>951.1</ele>
        <time>2022-07-30T21:46:04.000Z</time>
      </trkpt>
      <trkpt lat="45.54276" lon="2.68181">
        <ele>951.9</ele>
        <time>2022-07-30T21:46:05.000Z</time>
      </trkpt>
      <trkpt lat="45.54281" lon="2.6818">
        <ele>952.2</ele>
        <time>2022-07-30T21:46:06.000Z</time>
      </trkpt>
      <trkpt lat="45.54285" lon="2.68179">
        <ele>947</ele>
        <time>2022-07-30T21:46:07.000Z</time>
      </trkpt>
      <trkpt lat="45.5429" lon="2.68178">
        <ele>947</ele>
        <time>2022-07-30T21:46:08.000Z</time>
      </trkpt>
      <trkpt lat="45.54295" lon="2.68177">
        <ele>947</ele>
        <time>2022-07-30T21:46:09.000Z</time>
      </trkpt>
      <trkpt lat="45.54299" lon="2.68176">
        <ele>947</ele>
        <time>2022-07-30T21:46:10.000Z</time>
      </trkpt>
      <trkpt lat="45.54304" lon="2.68175">
        <ele>947</ele>
        <time>2022-07-30T21:46:11.000Z</time>
      </trkpt>
      <trkpt lat="45.54308" lon="2.68174">
        <ele>947</ele>
        <time>2022-07-30T21:46:12.000Z</time>
      </trkpt>
      <trkpt lat="45.54313" lon="2.68173">
        <ele>947</ele>
        <time>2022-07-30T21:46:13.000Z</time>
      </trkpt>
      <trkpt lat="45.54318" lon="2.68173">
        <ele>954</ele>
        <time>2022-07-30T21:46:14.000Z</time>
      </trkpt>
      <trkpt lat="45.54322" lon="2.68173">
        <ele>954</ele>
        <time>2022-07-30T21:46:15.000Z</time>
      </trkpt>
      <trkpt lat="45.54327" lon="2.68173">
        <ele>954</ele>
        <time>2022-07-30T21:46:16.000Z</time>
      </trkpt>
      <trkpt lat="45.54332" lon="2.68173">
        <ele>954</ele>
        <time>2022-07-30T21:46:17.000Z</time>
      </trkpt>
      <trkpt lat="45.54337" lon="2.68173">
        <ele>954</ele>
        <time>2022-07-30T21:46:18.000Z</time>
      </trkpt>
      <trkpt lat="45.54342" lon="2.68173">
        <ele>954</ele>
        <time>2022-07-30T21:46:19.000Z</time>
      </trkpt>
      <trkpt lat="45.54346" lon="2.68173">
        <ele>954</ele>
        <time>2022-07-30T21:46:20.000Z</time>
      </trkpt>
      <trkpt lat="45.54351" lon="2.68174">
        <ele>954</ele>
        <time>2022-07-30T21:46:21.000Z</time>
      </trkpt>
      <trkpt lat="45.54356" lon="2.68175">
        <ele>954</ele>
        <time>2022-07-30T21:46:22.000Z</time>
      </trkpt>
      <trkpt lat="45.54361" lon="2.68175">
        <ele>959</ele>
        <time>2022-07-30T21:46:23.000Z</time>
      </trkpt>
      <trkpt lat="45.54366" lon="2.68176">
        <ele>959</ele>
        <time>2022-07-30T21:46:24.000Z</time>
      </trkpt>
      <trkpt lat="45.54371" lon="2.68176">
        <ele>959</ele>
        <time>2022-07-30T21:46:25.000Z</time>
      </trkpt>
      <trkpt lat="45.54376" lon="2.68177">
        <ele>959</ele>
        <time>2022-07-30T21:46:26.000Z</time>
      </trkpt>
      <trkpt lat="45.54381" lon="2.68178">
        <ele>959</ele>
        <time>2022-07-30T21:46:27.000Z</time>
      </trkpt>
      <trkpt lat="45.54385" lon="2.68179">
        <ele>959</ele>
        <time>2022-07-30T21:46:28.000Z</time>
      </trkpt>
      <trkpt lat="45.5439" lon="2.6818">
        <ele>959</ele>
        <time>2022-07-30T21:46:29.000Z</time>
      </trkpt>
      <trkpt lat="45.54395" lon="2.6818">
        <ele>959</ele>
        <time>2022-07-30T21:46:30.000Z</time>
      </trkpt>
      <trkpt lat="45.544" lon="2.68181">
        <ele>959</ele>
        <time>2022-07-30T21:46:31.000Z</time>
      </trkpt>
      <trkpt lat="45.54404" lon="2.68182">
        <ele>959</ele>
        <time>2022-07-30T21:46:32.000Z</time>
      </trkpt>
      <trkpt lat="45.54409" lon="2.68183">
        <ele>959</ele>
        <time>2022-07-30T21:46:33.000Z</time>
      </trkpt>
      <trkpt lat="45.54414" lon="2.68183">
        <ele>959</ele>
        <time>2022-07-30T21:46:34.000Z</time>
      </trkpt>
      <trkpt lat="45.54418" lon="2.68183">
        <ele>959</ele>
        <time>2022-07-30T21:46:35.000Z</time>
      </trkpt>
      <trkpt lat="45.54423" lon="2.68183">
        <ele>959</ele>
        <time>2022-07-30T21:46:36.000Z</time>
      </trkpt>
      <trkpt lat="45.54428" lon="2.68183">
        <ele>964</ele>
        <time>2022-07-30T21:46:37.000Z</time>
      </trkpt>
      <trkpt lat="45.54433" lon="2.68183">
        <ele>964</ele>
        <time>2022-07-30T21:46:38.000Z</time>
      </trkpt>
      <trkpt lat="45.54437" lon="2.68183">
        <ele>964</ele>
        <time>2022-07-30T21:46:39.000Z</time>
      </trkpt>
      <trkpt lat="45.54442" lon="2.68183">
        <ele>965</ele>
        <time>2022-07-30T21:46:40.000Z</time>
      </trkpt>
      <trkpt lat="45.54447" lon="2.68183">
        <ele>965</ele>
        <time>2022-07-30T21:46:41.000Z</time>
      </trkpt>
      <trkpt lat="45.54452" lon="2.68183">
        <ele>965</ele>
        <time>2022-07-30T21:46:42.000Z</time>
      </trkpt>
      <trkpt lat="45.54456" lon="2.68183">
        <ele>965</ele>
        <time>2022-07-30T21:46:43.000Z</time>
      </trkpt>
      <trkpt lat="45.54461" lon="2.68183">
        <ele>965</ele>
        <time>2022-07-30T21:46:44.000Z</time>
      </trkpt>
      <trkpt lat="45.54466" lon="2.68183">
        <ele>965</ele>
        <time>2022-07-30T21:46:45.000Z</time>
      </trkpt>
      <trkpt lat="45.54471" lon="2.68183">
        <ele>965</ele>
        <time>2022-07-30T21:46:46.000Z</time>
      </trkpt>
      <trkpt lat="45.54475" lon="2.68183">
        <ele>965</ele>
        <time>2022-07-30T21:46:47.000Z</time>
      </trkpt>
      <trkpt lat="45.5448" lon="2.68183">
        <ele>965</ele>
        <time>2022-07-30T21:46:48.000Z</time>
      </trkpt>
      <trkpt lat="45.54485" lon="2.68183">
        <ele>965</ele>
        <time>2022-07-30T21:46:49.000Z</time>
      </trkpt>
      <trkpt lat="45.5449" lon="2.68183">
        <ele>965</ele>
        <time>2022-07-30T21:46:50.000Z</time>
      </trkpt>
      <trkpt lat="45.54494" lon="2.68183">
        <ele>965</ele>
        <time>2022-07-30T21:46:51.000Z</time>
      </trkpt>
      <trkpt lat="45.54499" lon="2.68183">
        <ele>965</ele>
        <time>2022-07-30T21:46:52.000Z</time>
      </trkpt>
      <trkpt lat="45.54504" lon="2.68182">
        <ele>965</ele>
        <time>2022-07-30T21:46:53.000Z</time>
      </trkpt>
      <trkpt lat="45.54509" lon="2.68182">
        <ele>965</ele>
        <time>2022-07-30T21:46:54.000Z</time>
      </trkpt>
      <trkpt lat="45.54514" lon="2.68181">
        <ele>965</ele>
        <time>2022-07-30T21:46:55.000Z</time>
      </trkpt>
      <trkpt lat="45.54518" lon="2.6818">
        <ele>965</ele>
        <time>2022-07-30T21:46:56.000Z</time>
      </trkpt>
      <trkpt lat="45.54523" lon="2.6818">
        <ele>965</ele>
        <time>2022-07-30T21:46:57.000Z</time>
      </trkpt>
      <trkpt lat="45.54528" lon="2.68179">
        <ele>965</ele>
        <time>2022-07-30T21:46:58.000Z</time>
      </trkpt>
      <trkpt lat="45.54533" lon="2.68179">
        <ele>965</ele>
        <time>2022-07-30T21:46:59.000Z</time>
      </trkpt>
      <trkpt lat="45.54538" lon="2.68178">
        <ele>965</ele>
        <time>2022-07-30T21:47:00.000Z</time>
      </trkpt>
      <trkpt lat="45.54542" lon="2.68177">
        <ele>965</ele>
        <time>2022-07-30T21:47:01.000Z</time>
      </trkpt>
      <trkpt lat="45.54547" lon="2.68177">
        <ele>962</ele>
        <time>2022-07-30T21:47:02.000Z</time>
      </trkpt>
      <trkpt lat="45.54552" lon="2.68174">
        <ele>962</ele>
        <time>2022-07-30T21:47:03.000Z</time>
      </trkpt>
      <trkpt lat="45.54556" lon="2.68172">
        <ele>962</ele>
        <time>2022-07-30T21:47:04.000Z</time>
      </trkpt>
      <trkpt lat="45.54561" lon="2.68169">
        <ele>962</ele>
        <time>2022-07-30T21:47:05.000Z</time>
      </trkpt>
      <trkpt lat="45.54565" lon="2.68167">
        <ele>962</ele>
        <time>2022-07-30T21:47:06.000Z</time>
      </trkpt>
      <trkpt lat="45.5457" lon="2.68164">
        <ele>962</ele>
        <time>2022-07-30T21:47:07.000Z</time>
      </trkpt>
      <trkpt lat="45.54574" lon="2.68162">
        <ele>962</ele>
        <time>2022-07-30T21:47:08.000Z</time>
      </trkpt>
      <trkpt lat="45.54577" lon="2.68157">
        <ele>962</ele>
        <time>2022-07-30T21:47:09.000Z</time>
      </trkpt>
      <trkpt lat="45.5458" lon="2.68152">
        <ele>962</ele>
        <time>2022-07-30T21:47:10.000Z</time>
      </trkpt>
      <trkpt lat="45.54583" lon="2.68147">
        <ele>962</ele>
        <time>2022-07-30T21:47:11.000Z</time>
      </trkpt>
      <trkpt lat="45.54586" lon="2.68142">
        <ele>962</ele>
        <time>2022-07-30T21:47:12.000Z</time>
      </trkpt>
      <trkpt lat="45.54589" lon="2.68137">
        <ele>962</ele>
        <time>2022-07-30T21:47:13.000Z</time>
      </trkpt>
      <trkpt lat="45.54592" lon="2.68132">
        <ele>962</ele>
        <time>2022-07-30T21:47:14.000Z</time>
      </trkpt>
      <trkpt lat="45.54595" lon="2.68126">
        <ele>962</ele>
        <time>2022-07-30T21:47:15.000Z</time>
      </trkpt>
      <trkpt lat="45.54598" lon="2.68121">
        <ele>962</ele>
        <time>2022-07-30T21:47:16.000Z</time>
      </trkpt>
      <trkpt lat="45.54601" lon="2.68116">
        <ele>964</ele>
        <time>2022-07-30T21:47:17.000Z</time>
      </trkpt>
      <trkpt lat="45.54606" lon="2.68113">
        <ele>964</ele>
        <time>2022-07-30T21:47:18.000Z</time>
      </trkpt>
      <trkpt lat="45.54611" lon="2.6811">
        <ele>964</ele>
        <time>2022-07-30T21:47:19.000Z</time>
      </trkpt>
      <trkpt lat="45.54615" lon="2.68107">
        <ele>964</ele>
        <time>2022-07-30T21:47:20.000Z</time>
      </trkpt>
      <trkpt lat="45.5462" lon="2.68104">
        <ele>964</ele>
        <time>2022-07-30T21:47:21.000Z</time>
      </trkpt>
      <trkpt lat="45.54625" lon="2.681">
        <ele>964</ele>
        <time>2022-07-30T21:47:22.000Z</time>
      </trkpt>
      <trkpt lat="45.54629" lon="2.68099">
        <ele>964</ele>
        <time>2022-07-30T21:47:23.000Z</time>
      </trkpt>
      <trkpt lat="45.54634" lon="2.68097">
        <ele>964</ele>
        <time>2022-07-30T21:47:24.000Z</time>
      </trkpt>
      <trkpt lat="45.54639" lon="2.68095">
        <ele>964</ele>
        <time>2022-07-30T21:47:25.000Z</time>
      </trkpt>
      <trkpt lat="45.54644" lon="2.68094">
        <ele>964</ele>
        <time>2022-07-30T21:47:26.000Z</time>
      </trkpt>
      <trkpt lat="45.54648" lon="2.68092">
        <ele>964</ele>
        <time>2022-07-30T21:47:27.000Z</time>
      </trkpt>
      <trkpt lat="45.54653" lon="2.6809">
        <ele>964</ele>
        <time>2022-07-30T21:47:28.000Z</time>
      </trkpt>
      <trkpt lat="45.54658" lon="2.68089">
        <ele>964</ele>
        <time>2022-07-30T21:47:29.000Z</time>
      </trkpt>
      <trkpt lat="45.54663" lon="2.68087">
        <ele>964</ele>
        <time>2022-07-30T21:47:30.000Z</time>
      </trkpt>
      <trkpt lat="45.54667" lon="2.68087">
        <ele>964</ele>
        <time>2022-07-30T21:47:31.000Z</time>
      </trkpt>
      <trkpt lat="45.54672" lon="2.68087">
        <ele>964</ele>
        <time>2022-07-30T21:47:32.000Z</time>
      </trkpt>
      <trkpt lat="45.54677" lon="2.68087">
        <ele>964</ele>
        <time>2022-07-30T21:47:33.000Z</time>
      </trkpt>
      <trkpt lat="45.54681" lon="2.68087">
        <ele>964</ele>
        <time>2022-07-30T21:47:34.000Z</time>
      </trkpt>
      <trkpt lat="45.54686" lon="2.68087">
        <ele>964</ele>
        <time>2022-07-30T21:47:35.000Z</time>
      </trkpt>
      <trkpt lat="45.5469" lon="2.68087">
        <ele>971</ele>
        <time>2022-07-30T21:47:36.000Z</time>
      </trkpt>
      <trkpt lat="45.54695" lon="2.68087">
        <ele>971</ele>
        <time>2022-07-30T21:47:37.000Z</time>
      </trkpt>
      <trkpt lat="45.547" lon="2.68087">
        <ele>971</ele>
        <time>2022-07-30T21:47:38.000Z</time>
      </trkpt>
      <trkpt lat="45.54704" lon="2.68088">
        <ele>971</ele>
        <time>2022-07-30T21:47:39.000Z</time>
      </trkpt>
      <trkpt lat="45.54708" lon="2.6809">
        <ele>971</ele>
        <time>2022-07-30T21:47:40.000Z</time>
      </trkpt>
      <trkpt lat="45.54713" lon="2.68092">
        <ele>971</ele>
        <time>2022-07-30T21:47:41.000Z</time>
      </trkpt>
      <trkpt lat="45.54717" lon="2.68094">
        <ele>971</ele>
        <time>2022-07-30T21:47:42.000Z</time>
      </trkpt>
      <trkpt lat="45.54721" lon="2.68096">
        <ele>971</ele>
        <time>2022-07-30T21:47:43.000Z</time>
      </trkpt>
      <trkpt lat="45.54726" lon="2.681">
        <ele>971</ele>
        <time>2022-07-30T21:47:44.000Z</time>
      </trkpt>
      <trkpt lat="45.5473" lon="2.68105">
        <ele>971</ele>
        <time>2022-07-30T21:47:45.000Z</time>
      </trkpt>
      <trkpt lat="45.54735" lon="2.68109">
        <ele>971</ele>
        <time>2022-07-30T21:47:46.000Z</time>
      </trkpt>
      <trkpt lat="45.54739" lon="2.68114">
        <ele>971</ele>
        <time>2022-07-30T21:47:47.000Z</time>
      </trkpt>
      <trkpt lat="45.54743" lon="2.68119">
        <ele>971</ele>
        <time>2022-07-30T21:47:48.000Z</time>
      </trkpt>
      <trkpt lat="45.54746" lon="2.68124">
        <ele>971</ele>
        <time>2022-07-30T21:47:49.000Z</time>
      </trkpt>
      <trkpt lat="45.5475" lon="2.68129">
        <ele>971</ele>
        <time>2022-07-30T21:47:50.000Z</time>
      </trkpt>
      <trkpt lat="45.54753" lon="2.68134">
        <ele>971</ele>
        <time>2022-07-30T21:47:51.000Z</time>
      </trkpt>
      <trkpt lat="45.54757" lon="2.6814">
        <ele>978</ele>
        <time>2022-07-30T21:47:52.000Z</time>
      </trkpt>
      <trkpt lat="45.54761" lon="2.68145">
        <ele>978</ele>
        <time>2022-07-30T21:47:53.000Z</time>
      </trkpt>
      <trkpt lat="45.54764" lon="2.6815">
        <ele>978</ele>
        <time>2022-07-30T21:47:54.000Z</time>
      </trkpt>
      <trkpt lat="45.54767" lon="2.68155">
        <ele>978</ele>
        <time>2022-07-30T21:47:55.000Z</time>
      </trkpt>
      <trkpt lat="45.54769" lon="2.68161">
        <ele>978</ele>
        <time>2022-07-30T21:47:56.000Z</time>
      </trkpt>
      <trkpt lat="45.54771" lon="2.68167">
        <ele>978</ele>
        <time>2022-07-30T21:47:57.000Z</time>
      </trkpt>
      <trkpt lat="45.54774" lon="2.68172">
        <ele>978</ele>
        <time>2022-07-30T21:47:58.000Z</time>
      </trkpt>
      <trkpt lat="45.54776" lon="2.68178">
        <ele>978</ele>
        <time>2022-07-30T21:47:59.000Z</time>
      </trkpt>
      <trkpt lat="45.54778" lon="2.68183">
        <ele>978</ele>
        <time>2022-07-30T21:48:00.000Z</time>
      </trkpt>
      <trkpt lat="45.54782" lon="2.68187">
        <ele>978</ele>
        <time>2022-07-30T21:48:01.000Z</time>
      </trkpt>
      <trkpt lat="45.54786" lon="2.68191">
        <ele>978</ele>
        <time>2022-07-30T21:48:02.000Z</time>
      </trkpt>
      <trkpt lat="45.5479" lon="2.68195">
        <ele>978</ele>
        <time>2022-07-30T21:48:03.000Z</time>
      </trkpt>
      <trkpt lat="45.54793" lon="2.68199">
        <ele>978</ele>
        <time>2022-07-30T21:48:04.000Z</time>
      </trkpt>
      <trkpt lat="45.54797" lon="2.68203">
        <ele>978</ele>
        <time>2022-07-30T21:48:05.000Z</time>
      </trkpt>
      <trkpt lat="45.54801" lon="2.68207">
        <ele>978</ele>
        <time>2022-07-30T21:48:06.000Z</time>
      </trkpt>
      <trkpt lat="45.54805" lon="2.68211">
        <ele>978</ele>
        <time>2022-07-30T21:48:07.000Z</time>
      </trkpt>
      <trkpt lat="45.54809" lon="2.68214">
        <ele>979</ele>
        <time>2022-07-30T21:48:08.000Z</time>
      </trkpt>
      <trkpt lat="45.54812" lon="2.68218">
        <ele>979</ele>
        <time>2022-07-30T21:48:09.000Z</time>
      </trkpt>
      <trkpt lat="45.54816" lon="2.68223">
        <ele>979</ele>
        <time>2022-07-30T21:48:10.000Z</time>
      </trkpt>
      <trkpt lat="45.5482" lon="2.68227">
        <ele>979</ele>
        <time>2022-07-30T21:48:11.000Z</time>
      </trkpt>
      <trkpt lat="45.54824" lon="2.68232">
        <ele>979</ele>
        <time>2022-07-30T21:48:12.000Z</time>
      </trkpt>
      <trkpt lat="45.54828" lon="2.68236">
        <ele>979</ele>
        <time>2022-07-30T21:48:13.000Z</time>
      </trkpt>
      <trkpt lat="45.54832" lon="2.6824">
        <ele>979</ele>
        <time>2022-07-30T21:48:14.000Z</time>
      </trkpt>
      <trkpt lat="45.54836" lon="2.68245">
        <ele>979</ele>
        <time>2022-07-30T21:48:15.000Z</time>
      </trkpt>
      <trkpt lat="45.54839" lon="2.68249">
        <ele>979</ele>
        <time>2022-07-30T21:48:16.000Z</time>
      </trkpt>
      <trkpt lat="45.54843" lon="2.68254">
        <ele>979</ele>
        <time>2022-07-30T21:48:17.000Z</time>
      </trkpt>
      <trkpt lat="45.54846" lon="2.68259">
        <ele>979</ele>
        <time>2022-07-30T21:48:18.000Z</time>
      </trkpt>
      <trkpt lat="45.54849" lon="2.68263">
        <ele>979</ele>
        <time>2022-07-30T21:48:19.000Z</time>
      </trkpt>
      <trkpt lat="45.54853" lon="2.68268">
        <ele>979</ele>
        <time>2022-07-30T21:48:20.000Z</time>
      </trkpt>
      <trkpt lat="45.54856" lon="2.68273">
        <ele>979</ele>
        <time>2022-07-30T21:48:21.000Z</time>
      </trkpt>
      <trkpt lat="45.54859" lon="2.68277">
        <ele>979</ele>
        <time>2022-07-30T21:48:22.000Z</time>
      </trkpt>
      <trkpt lat="45.54866" lon="2.68281">
        <ele>979</ele>
        <time>2022-07-30T21:48:23.000Z</time>
      </trkpt>
      <trkpt lat="45.54867" lon="2.68281">
        <ele>978</ele>
        <time>2022-07-30T21:48:24.000Z</time>
      </trkpt>
      <trkpt lat="45.54871" lon="2.68279">
        <ele>978</ele>
        <time>2022-07-30T21:48:25.000Z</time>
      </trkpt>
      <trkpt lat="45.54876" lon="2.68276">
        <ele>978</ele>
        <time>2022-07-30T21:48:26.000Z</time>
      </trkpt>
      <trkpt lat="45.5488" lon="2.68273">
        <ele>978</ele>
        <time>2022-07-30T21:48:27.000Z</time>
      </trkpt>
      <trkpt lat="45.54884" lon="2.68271">
        <ele>978</ele>
        <time>2022-07-30T21:48:28.000Z</time>
      </trkpt>
      <trkpt lat="45.54888" lon="2.68268">
        <ele>978</ele>
        <time>2022-07-30T21:48:29.000Z</time>
      </trkpt>
      <trkpt lat="45.54892" lon="2.68265">
        <ele>978</ele>
        <time>2022-07-30T21:48:30.000Z</time>
      </trkpt>
      <trkpt lat="45.54897" lon="2.68262">
        <ele>978</ele>
        <time>2022-07-30T21:48:31.000Z</time>
      </trkpt>
      <trkpt lat="45.54899" lon="2.68257">
        <ele>978</ele>
        <time>2022-07-30T21:48:32.000Z</time>
      </trkpt>
      <trkpt lat="45.54902" lon="2.68251">
        <ele>978</ele>
        <time>2022-07-30T21:48:33.000Z</time>
      </trkpt>
      <trkpt lat="45.54905" lon="2.68246">
        <ele>978</ele>
        <time>2022-07-30T21:48:34.000Z</time>
      </trkpt>
      <trkpt lat="45.54907" lon="2.6824">
        <ele>978</ele>
        <time>2022-07-30T21:48:35.000Z</time>
      </trkpt>
      <trkpt lat="45.5491" lon="2.68235">
        <ele>978</ele>
        <time>2022-07-30T21:48:36.000Z</time>
      </trkpt>
      <trkpt lat="45.54912" lon="2.68229">
        <ele>978</ele>
        <time>2022-07-30T21:48:37.000Z</time>
      </trkpt>
      <trkpt lat="45.54915" lon="2.68224">
        <ele>978</ele>
        <time>2022-07-30T21:48:38.000Z</time>
      </trkpt>
      <trkpt lat="45.54918" lon="2.68218">
        <ele>978</ele>
        <time>2022-07-30T21:48:39.000Z</time>
      </trkpt>
      <trkpt lat="45.5492" lon="2.68213">
        <ele>974</ele>
        <time>2022-07-30T21:48:40.000Z</time>
      </trkpt>
      <trkpt lat="45.54923" lon="2.68207">
        <ele>974</ele>
        <time>2022-07-30T21:48:41.000Z</time>
      </trkpt>
      <trkpt lat="45.54923" lon="2.68201">
        <ele>968</ele>
        <time>2022-07-30T21:48:42.000Z</time>
      </trkpt>
      <trkpt lat="45.54924" lon="2.68194">
        <ele>968</ele>
        <time>2022-07-30T21:48:43.000Z</time>
      </trkpt>
      <trkpt lat="45.54924" lon="2.68188">
        <ele>968</ele>
        <time>2022-07-30T21:48:44.000Z</time>
      </trkpt>
      <trkpt lat="45.54924" lon="2.68181">
        <ele>968</ele>
        <time>2022-07-30T21:48:45.000Z</time>
      </trkpt>
      <trkpt lat="45.54925" lon="2.68175">
        <ele>968</ele>
        <time>2022-07-30T21:48:46.000Z</time>
      </trkpt>
      <trkpt lat="45.54925" lon="2.68169">
        <ele>968</ele>
        <time>2022-07-30T21:48:47.000Z</time>
      </trkpt>
      <trkpt lat="45.54925" lon="2.68162">
        <ele>968</ele>
        <time>2022-07-30T21:48:48.000Z</time>
      </trkpt>
      <trkpt lat="45.54926" lon="2.68155">
        <ele>968</ele>
        <time>2022-07-30T21:48:49.000Z</time>
      </trkpt>
      <trkpt lat="45.54927" lon="2.68149">
        <ele>968</ele>
        <time>2022-07-30T21:48:50.000Z</time>
      </trkpt>
      <trkpt lat="45.54928" lon="2.68142">
        <ele>968</ele>
        <time>2022-07-30T21:48:51.000Z</time>
      </trkpt>
      <trkpt lat="45.54929" lon="2.68135">
        <ele>968</ele>
        <time>2022-07-30T21:48:52.000Z</time>
      </trkpt>
      <trkpt lat="45.5493" lon="2.68129">
        <ele>968</ele>
        <time>2022-07-30T21:48:53.000Z</time>
      </trkpt>
      <trkpt lat="45.54931" lon="2.68122">
        <ele>968</ele>
        <time>2022-07-30T21:48:54.000Z</time>
      </trkpt>
      <trkpt lat="45.54932" lon="2.68115">
        <ele>968</ele>
        <time>2022-07-30T21:48:55.000Z</time>
      </trkpt>
      <trkpt lat="45.54933" lon="2.68109">
        <ele>968</ele>
        <time>2022-07-30T21:48:56.000Z</time>
      </trkpt>
      <trkpt lat="45.54934" lon="2.68102">
        <ele>968</ele>
        <time>2022-07-30T21:48:57.000Z</time>
      </trkpt>
      <trkpt lat="45.54935" lon="2.68095">
        <ele>968</ele>
        <time>2022-07-30T21:48:58.000Z</time>
      </trkpt>
      <trkpt lat="45.54936" lon="2.68088">
        <ele>968</ele>
        <time>2022-07-30T21:48:59.000Z</time>
      </trkpt>
      <trkpt lat="45.54936" lon="2.68082">
        <ele>968</ele>
        <time>2022-07-30T21:49:00.000Z</time>
      </trkpt>
      <trkpt lat="45.54938" lon="2.68076">
        <ele>974</ele>
        <time>2022-07-30T21:49:01.000Z</time>
      </trkpt>
      <trkpt lat="45.54939" lon="2.68069">
        <ele>974</ele>
        <time>2022-07-30T21:49:02.000Z</time>
      </trkpt>
      <trkpt lat="45.54941" lon="2.68063">
        <ele>974</ele>
        <time>2022-07-30T21:49:03.000Z</time>
      </trkpt>
      <trkpt lat="45.54942" lon="2.68057">
        <ele>974</ele>
        <time>2022-07-30T21:49:04.000Z</time>
      </trkpt>
      <trkpt lat="45.54944" lon="2.68051">
        <ele>974</ele>
        <time>2022-07-30T21:49:05.000Z</time>
      </trkpt>
      <trkpt lat="45.54945" lon="2.68045">
        <ele>974</ele>
        <time>2022-07-30T21:49:06.000Z</time>
      </trkpt>
      <trkpt lat="45.54947" lon="2.68038">
        <ele>974</ele>
        <time>2022-07-30T21:49:07.000Z</time>
      </trkpt>
      <trkpt lat="45.54948" lon="2.68032">
        <ele>974</ele>
        <time>2022-07-30T21:49:08.000Z</time>
      </trkpt>
      <trkpt lat="45.54952" lon="2.68027">
        <ele>974</ele>
        <time>2022-07-30T21:49:09.000Z</time>
      </trkpt>
      <trkpt lat="45.54955" lon="2.68022">
        <ele>974</ele>
        <time>2022-07-30T21:49:10.000Z</time>
      </trkpt>
      <trkpt lat="45.54958" lon="2.68017">
        <ele>974</ele>
        <time>2022-07-30T21:49:11.000Z</time>
      </trkpt>
      <trkpt lat="45.54962" lon="2.68012">
        <ele>974</ele>
        <time>2022-07-30T21:49:12.000Z</time>
      </trkpt>
      <trkpt lat="45.54965" lon="2.68008">
        <ele>974</ele>
        <time>2022-07-30T21:49:13.000Z</time>
      </trkpt>
      <trkpt lat="45.5497" lon="2.68">
        <ele>974</ele>
        <time>2022-07-30T21:49:14.000Z</time>
      </trkpt>
      <trkpt lat="45.54974" lon="2.67997">
        <ele>974</ele>
        <time>2022-07-30T21:49:15.000Z</time>
      </trkpt>
      <trkpt lat="45.54978" lon="2.67993">
        <ele>974</ele>
        <time>2022-07-30T21:49:16.000Z</time>
      </trkpt>
      <trkpt lat="45.54982" lon="2.6799">
        <ele>974</ele>
        <time>2022-07-30T21:49:17.000Z</time>
      </trkpt>
      <trkpt lat="45.54986" lon="2.67987">
        <ele>976</ele>
        <time>2022-07-30T21:49:18.000Z</time>
      </trkpt>
      <trkpt lat="45.54989" lon="2.67983">
        <ele>976</ele>
        <time>2022-07-30T21:49:19.000Z</time>
      </trkpt>
      <trkpt lat="45.54993" lon="2.6798">
        <ele>976</ele>
        <time>2022-07-30T21:49:20.000Z</time>
      </trkpt>
      <trkpt lat="45.54994" lon="2.67979">
        <ele>976</ele>
        <time>2022-07-30T21:49:21.000Z</time>
      </trkpt>
      <trkpt lat="45.55003" lon="2.67978">
        <ele>976</ele>
        <time>2022-07-30T21:49:22.000Z</time>
      </trkpt>
      <trkpt lat="45.55008" lon="2.67977">
        <ele>976</ele>
        <time>2022-07-30T21:49:23.000Z</time>
      </trkpt>
      <trkpt lat="45.55014" lon="2.67975">
        <ele>976</ele>
        <time>2022-07-30T21:49:24.000Z</time>
      </trkpt>
      <trkpt lat="45.55018" lon="2.67972">
        <ele>976</ele>
        <time>2022-07-30T21:49:25.000Z</time>
      </trkpt>
      <trkpt lat="45.55022" lon="2.67968">
        <ele>976</ele>
        <time>2022-07-30T21:49:26.000Z</time>
      </trkpt>
      <trkpt lat="45.55026" lon="2.67965">
        <ele>976</ele>
        <time>2022-07-30T21:49:27.000Z</time>
      </trkpt>
      <trkpt lat="45.5503" lon="2.67962">
        <ele>976</ele>
        <time>2022-07-30T21:49:28.000Z</time>
      </trkpt>
      <trkpt lat="45.55034" lon="2.67959">
        <ele>976</ele>
        <time>2022-07-30T21:49:29.000Z</time>
      </trkpt>
      <trkpt lat="45.55038" lon="2.67956">
        <ele>976</ele>
        <time>2022-07-30T21:49:30.000Z</time>
      </trkpt>
      <trkpt lat="45.55042" lon="2.67952">
        <ele>976</ele>
        <time>2022-07-30T21:49:31.000Z</time>
      </trkpt>
      <trkpt lat="45.55046" lon="2.67949">
        <ele>976</ele>
        <time>2022-07-30T21:49:32.000Z</time>
      </trkpt>
      <trkpt lat="45.55049" lon="2.67946">
        <ele>976</ele>
        <time>2022-07-30T21:49:33.000Z</time>
      </trkpt>
      <trkpt lat="45.55053" lon="2.67943">
        <ele>978</ele>
        <time>2022-07-30T21:49:34.000Z</time>
      </trkpt>
      <trkpt lat="45.55058" lon="2.67941">
        <ele>978</ele>
        <time>2022-07-30T21:49:35.000Z</time>
      </trkpt>
      <trkpt lat="45.55063" lon="2.67939">
        <ele>978</ele>
        <time>2022-07-30T21:49:36.000Z</time>
      </trkpt>
      <trkpt lat="45.55068" lon="2.67938">
        <ele>978</ele>
        <time>2022-07-30T21:49:37.000Z</time>
      </trkpt>
      <trkpt lat="45.55073" lon="2.67936">
        <ele>978</ele>
        <time>2022-07-30T21:49:38.000Z</time>
      </trkpt>
      <trkpt lat="45.55077" lon="2.67934">
        <ele>978</ele>
        <time>2022-07-30T21:49:39.000Z</time>
      </trkpt>
      <trkpt lat="45.55082" lon="2.67933">
        <ele>978</ele>
        <time>2022-07-30T21:49:40.000Z</time>
      </trkpt>
      <trkpt lat="45.55086" lon="2.6793">
        <ele>977</ele>
        <time>2022-07-30T21:49:41.000Z</time>
      </trkpt>
      <trkpt lat="45.55091" lon="2.67927">
        <ele>977</ele>
        <time>2022-07-30T21:49:42.000Z</time>
      </trkpt>
      <trkpt lat="45.55095" lon="2.67925">
        <ele>977</ele>
        <time>2022-07-30T21:49:43.000Z</time>
      </trkpt>
      <trkpt lat="45.55099" lon="2.67922">
        <ele>977</ele>
        <time>2022-07-30T21:49:44.000Z</time>
      </trkpt>
      <trkpt lat="45.55103" lon="2.67919">
        <ele>977</ele>
        <time>2022-07-30T21:49:45.000Z</time>
      </trkpt>
      <trkpt lat="45.55108" lon="2.67917">
        <ele>977</ele>
        <time>2022-07-30T21:49:46.000Z</time>
      </trkpt>
      <trkpt lat="45.55112" lon="2.67914">
        <ele>977</ele>
        <time>2022-07-30T21:49:47.000Z</time>
      </trkpt>
      <trkpt lat="45.55116" lon="2.67911">
        <ele>977</ele>
        <time>2022-07-30T21:49:48.000Z</time>
      </trkpt>
      <trkpt lat="45.55121" lon="2.67909">
        <ele>977</ele>
        <time>2022-07-30T21:49:49.000Z</time>
      </trkpt>
      <trkpt lat="45.55125" lon="2.67906">
        <ele>977</ele>
        <time>2022-07-30T21:49:50.000Z</time>
      </trkpt>
      <trkpt lat="45.55129" lon="2.67903">
        <ele>977</ele>
        <time>2022-07-30T21:49:51.000Z</time>
      </trkpt>
      <trkpt lat="45.55134" lon="2.67901">
        <ele>978</ele>
        <time>2022-07-30T21:49:52.000Z</time>
      </trkpt>
      <trkpt lat="45.55138" lon="2.67898">
        <ele>978</ele>
        <time>2022-07-30T21:49:53.000Z</time>
      </trkpt>
      <trkpt lat="45.55142" lon="2.67895">
        <ele>978</ele>
        <time>2022-07-30T21:49:54.000Z</time>
      </trkpt>
      <trkpt lat="45.55146" lon="2.67893">
        <ele>978</ele>
        <time>2022-07-30T21:49:55.000Z</time>
      </trkpt>
      <trkpt lat="45.55151" lon="2.6789">
        <ele>978</ele>
        <time>2022-07-30T21:49:56.000Z</time>
      </trkpt>
      <trkpt lat="45.55155" lon="2.67887">
        <ele>978</ele>
        <time>2022-07-30T21:49:57.000Z</time>
      </trkpt>
      <trkpt lat="45.55159" lon="2.67885">
        <ele>978</ele>
        <time>2022-07-30T21:49:58.000Z</time>
      </trkpt>
      <trkpt lat="45.55164" lon="2.67882">
        <ele>978</ele>
        <time>2022-07-30T21:49:59.000Z</time>
      </trkpt>
      <trkpt lat="45.55169" lon="2.67881">
        <ele>978</ele>
        <time>2022-07-30T21:50:00.000Z</time>
      </trkpt>
      <trkpt lat="45.55174" lon="2.67881">
        <ele>978</ele>
        <time>2022-07-30T21:50:01.000Z</time>
      </trkpt>
      <trkpt lat="45.55179" lon="2.6788">
        <ele>978</ele>
        <time>2022-07-30T21:50:02.000Z</time>
      </trkpt>
      <trkpt lat="45.55184" lon="2.67879">
        <ele>978</ele>
        <time>2022-07-30T21:50:03.000Z</time>
      </trkpt>
      <trkpt lat="45.55189" lon="2.67878">
        <ele>985</ele>
        <time>2022-07-30T21:50:04.000Z</time>
      </trkpt>
      <trkpt lat="45.55194" lon="2.67878">
        <ele>985</ele>
        <time>2022-07-30T21:50:05.000Z</time>
      </trkpt>
      <trkpt lat="45.552" lon="2.67877">
        <ele>985</ele>
        <time>2022-07-30T21:50:06.000Z</time>
      </trkpt>
      <trkpt lat="45.55205" lon="2.67876">
        <ele>985</ele>
        <time>2022-07-30T21:50:07.000Z</time>
      </trkpt>
      <trkpt lat="45.55211" lon="2.67874">
        <ele>986</ele>
        <time>2022-07-30T21:50:08.000Z</time>
      </trkpt>
      <trkpt lat="45.55216" lon="2.67873">
        <ele>986</ele>
        <time>2022-07-30T21:50:09.000Z</time>
      </trkpt>
      <trkpt lat="45.55221" lon="2.67871">
        <ele>986</ele>
        <time>2022-07-30T21:50:10.000Z</time>
      </trkpt>
      <trkpt lat="45.55227" lon="2.67869">
        <ele>986</ele>
        <time>2022-07-30T21:50:11.000Z</time>
      </trkpt>
      <trkpt lat="45.55232" lon="2.67868">
        <ele>986</ele>
        <time>2022-07-30T21:50:12.000Z</time>
      </trkpt>
      <trkpt lat="45.55237" lon="2.67866">
        <ele>986</ele>
        <time>2022-07-30T21:50:13.000Z</time>
      </trkpt>
      <trkpt lat="45.55241" lon="2.67863">
        <ele>986</ele>
        <time>2022-07-30T21:50:14.000Z</time>
      </trkpt>
      <trkpt lat="45.55246" lon="2.67861">
        <ele>986</ele>
        <time>2022-07-30T21:50:15.000Z</time>
      </trkpt>
      <trkpt lat="45.5525" lon="2.67858">
        <ele>986</ele>
        <time>2022-07-30T21:50:16.000Z</time>
      </trkpt>
      <trkpt lat="45.55255" lon="2.67856">
        <ele>986</ele>
        <time>2022-07-30T21:50:17.000Z</time>
      </trkpt>
      <trkpt lat="45.55259" lon="2.67854">
        <ele>986</ele>
        <time>2022-07-30T21:50:18.000Z</time>
      </trkpt>
      <trkpt lat="45.55264" lon="2.67851">
        <ele>986</ele>
        <time>2022-07-30T21:50:19.000Z</time>
      </trkpt>
      <trkpt lat="45.55268" lon="2.67849">
        <ele>986</ele>
        <time>2022-07-30T21:50:20.000Z</time>
      </trkpt>
      <trkpt lat="45.55273" lon="2.67847">
        <ele>986</ele>
        <time>2022-07-30T21:50:21.000Z</time>
      </trkpt>
      <trkpt lat="45.55277" lon="2.67844">
        <ele>986</ele>
        <time>2022-07-30T21:50:22.000Z</time>
      </trkpt>
      <trkpt lat="45.55281" lon="2.67843">
        <ele>986</ele>
        <time>2022-07-30T21:50:23.000Z</time>
      </trkpt>
      <trkpt lat="45.55286" lon="2.67841">
        <ele>986</ele>
        <time>2022-07-30T21:50:24.000Z</time>
      </trkpt>
      <trkpt lat="45.5529" lon="2.6784">
        <ele>986</ele>
        <time>2022-07-30T21:50:25.000Z</time>
      </trkpt>
      <trkpt lat="45.55295" lon="2.67838">
        <ele>986</ele>
        <time>2022-07-30T21:50:26.000Z</time>
      </trkpt>
      <trkpt lat="45.55299" lon="2.67837">
        <ele>986</ele>
        <time>2022-07-30T21:50:27.000Z</time>
      </trkpt>
      <trkpt lat="45.55304" lon="2.67835">
        <ele>986</ele>
        <time>2022-07-30T21:50:28.000Z</time>
      </trkpt>
      <trkpt lat="45.55308" lon="2.67834">
        <ele>986</ele>
        <time>2022-07-30T21:50:29.000Z</time>
      </trkpt>
      <trkpt lat="45.55313" lon="2.67835">
        <ele>986</ele>
        <time>2022-07-30T21:50:30.000Z</time>
      </trkpt>
      <trkpt lat="45.55318" lon="2.67836">
        <ele>986</ele>
        <time>2022-07-30T21:50:31.000Z</time>
      </trkpt>
      <trkpt lat="45.55323" lon="2.67838">
        <ele>986</ele>
        <time>2022-07-30T21:50:32.000Z</time>
      </trkpt>
      <trkpt lat="45.55328" lon="2.67839">
        <ele>983</ele>
        <time>2022-07-30T21:50:33.000Z</time>
      </trkpt>
      <trkpt lat="45.55333" lon="2.67841">
        <ele>983</ele>
        <time>2022-07-30T21:50:34.000Z</time>
      </trkpt>
      <trkpt lat="45.55338" lon="2.67841">
        <ele>983</ele>
        <time>2022-07-30T21:50:35.000Z</time>
      </trkpt>
      <trkpt lat="45.55343" lon="2.67841">
        <ele>983</ele>
        <time>2022-07-30T21:50:36.000Z</time>
      </trkpt>
      <trkpt lat="45.55348" lon="2.67841">
        <ele>983</ele>
        <time>2022-07-30T21:50:37.000Z</time>
      </trkpt>
      <trkpt lat="45.55353" lon="2.67841">
        <ele>983</ele>
        <time>2022-07-30T21:50:38.000Z</time>
      </trkpt>
      <trkpt lat="45.55357" lon="2.67838">
        <ele>983</ele>
        <time>2022-07-30T21:50:39.000Z</time>
      </trkpt>
      <trkpt lat="45.55362" lon="2.67836">
        <ele>983</ele>
        <time>2022-07-30T21:50:40.000Z</time>
      </trkpt>
      <trkpt lat="45.55367" lon="2.67833">
        <ele>983</ele>
        <time>2022-07-30T21:50:41.000Z</time>
      </trkpt>
      <trkpt lat="45.55367" lon="2.67821">
        <ele>983</ele>
        <time>2022-07-30T21:50:42.000Z</time>
      </trkpt>
      <trkpt lat="45.55366" lon="2.67817">
        <ele>983</ele>
        <time>2022-07-30T21:50:43.000Z</time>
      </trkpt>
      <trkpt lat="45.55371" lon="2.67817">
        <ele>983</ele>
        <time>2022-07-30T21:50:44.000Z</time>
      </trkpt>
      <trkpt lat="45.55376" lon="2.67817">
        <ele>983</ele>
        <time>2022-07-30T21:50:45.000Z</time>
      </trkpt>
      <trkpt lat="45.5538" lon="2.67817">
        <ele>983</ele>
        <time>2022-07-30T21:50:46.000Z</time>
      </trkpt>
      <trkpt lat="45.55385" lon="2.67817">
        <ele>995</ele>
        <time>2022-07-30T21:50:47.000Z</time>
      </trkpt>
      <trkpt lat="45.5539" lon="2.67816">
        <ele>995</ele>
        <time>2022-07-30T21:50:48.000Z</time>
      </trkpt>
      <trkpt lat="45.55393" lon="2.67816">
        <ele>995</ele>
        <time>2022-07-30T21:50:49.000Z</time>
      </trkpt>
      <trkpt lat="45.55396" lon="2.67815">
        <ele>995</ele>
        <time>2022-07-30T21:50:50.000Z</time>
      </trkpt>
      <trkpt lat="45.554" lon="2.67814">
        <ele>995</ele>
        <time>2022-07-30T21:50:51.000Z</time>
      </trkpt>
      <trkpt lat="45.55403" lon="2.67813">
        <ele>995</ele>
        <time>2022-07-30T21:50:52.000Z</time>
      </trkpt>
      <trkpt lat="45.55408" lon="2.67812">
        <ele>995</ele>
        <time>2022-07-30T21:50:53.000Z</time>
      </trkpt>
      <trkpt lat="45.55412" lon="2.67811">
        <ele>995</ele>
        <time>2022-07-30T21:50:54.000Z</time>
      </trkpt>
      <trkpt lat="45.55415" lon="2.67811">
        <ele>995</ele>
        <time>2022-07-30T21:50:55.000Z</time>
      </trkpt>
      <trkpt lat="45.55419" lon="2.67811">
        <ele>995</ele>
        <time>2022-07-30T21:50:56.000Z</time>
      </trkpt>
      <trkpt lat="45.55423" lon="2.67811">
        <ele>995</ele>
        <time>2022-07-30T21:50:57.000Z</time>
      </trkpt>
      <trkpt lat="45.55427" lon="2.67811">
        <ele>995</ele>
        <time>2022-07-30T21:50:58.000Z</time>
      </trkpt>
      <trkpt lat="45.55431" lon="2.67811">
        <ele>995</ele>
        <time>2022-07-30T21:50:59.000Z</time>
      </trkpt>
      <trkpt lat="45.55435" lon="2.67811">
        <ele>995</ele>
        <time>2022-07-30T21:51:00.000Z</time>
      </trkpt>
      <trkpt lat="45.55438" lon="2.67811">
        <ele>995</ele>
        <time>2022-07-30T21:51:01.000Z</time>
      </trkpt>
      <trkpt lat="45.55441" lon="2.6781">
        <ele>995</ele>
        <time>2022-07-30T21:51:02.000Z</time>
      </trkpt>
      <trkpt lat="45.55444" lon="2.67808">
        <ele>995</ele>
        <time>2022-07-30T21:51:03.000Z</time>
      </trkpt>
      <trkpt lat="45.55447" lon="2.67807">
        <ele>995</ele>
        <time>2022-07-30T21:51:04.000Z</time>
      </trkpt>
      <trkpt lat="45.5545" lon="2.67805">
        <ele>995</ele>
        <time>2022-07-30T21:51:05.000Z</time>
      </trkpt>
      <trkpt lat="45.55453" lon="2.67803">
        <ele>995</ele>
        <time>2022-07-30T21:51:06.000Z</time>
      </trkpt>
      <trkpt lat="45.55456" lon="2.67801">
        <ele>998</ele>
        <time>2022-07-30T21:51:07.000Z</time>
      </trkpt>
      <trkpt lat="45.55458" lon="2.67799">
        <ele>998</ele>
        <time>2022-07-30T21:51:08.000Z</time>
      </trkpt>
      <trkpt lat="45.5546" lon="2.67798">
        <ele>998</ele>
        <time>2022-07-30T21:51:09.000Z</time>
      </trkpt>
      <trkpt lat="45.55461" lon="2.67796">
        <ele>998</ele>
        <time>2022-07-30T21:51:10.000Z</time>
      </trkpt>
      <trkpt lat="45.55463" lon="2.67795">
        <ele>998</ele>
        <time>2022-07-30T21:51:11.000Z</time>
      </trkpt>
      <trkpt lat="45.55465" lon="2.67795">
        <ele>998</ele>
        <time>2022-07-30T21:51:12.000Z</time>
      </trkpt>
      <trkpt lat="45.55467" lon="2.67793">
        <ele>998</ele>
        <time>2022-07-30T21:51:13.000Z</time>
      </trkpt>
      <trkpt lat="45.5547" lon="2.67792">
        <ele>998</ele>
        <time>2022-07-30T21:51:14.000Z</time>
      </trkpt>
      <trkpt lat="45.55472" lon="2.6779">
        <ele>998</ele>
        <time>2022-07-30T21:51:15.000Z</time>
      </trkpt>
      <trkpt lat="45.55475" lon="2.67788">
        <ele>998</ele>
        <time>2022-07-30T21:51:16.000Z</time>
      </trkpt>
      <trkpt lat="45.55477" lon="2.67785">
        <ele>998</ele>
        <time>2022-07-30T21:51:17.000Z</time>
      </trkpt>
      <trkpt lat="45.55481" lon="2.67783">
        <ele>997</ele>
        <time>2022-07-30T21:51:18.000Z</time>
      </trkpt>
      <trkpt lat="45.55484" lon="2.6778">
        <ele>997</ele>
        <time>2022-07-30T21:51:19.000Z</time>
      </trkpt>
      <trkpt lat="45.55488" lon="2.67778">
        <ele>997</ele>
        <time>2022-07-30T21:51:20.000Z</time>
      </trkpt>
      <trkpt lat="45.55491" lon="2.67775">
        <ele>997</ele>
        <time>2022-07-30T21:51:21.000Z</time>
      </trkpt>
      <trkpt lat="45.55494" lon="2.67773">
        <ele>997</ele>
        <time>2022-07-30T21:51:22.000Z</time>
      </trkpt>
      <trkpt lat="45.55497" lon="2.67771">
        <ele>997</ele>
        <time>2022-07-30T21:51:23.000Z</time>
      </trkpt>
      <trkpt lat="45.555" lon="2.67769">
        <ele>997</ele>
        <time>2022-07-30T21:51:24.000Z</time>
      </trkpt>
      <trkpt lat="45.55503" lon="2.67766">
        <ele>993</ele>
        <time>2022-07-30T21:51:25.000Z</time>
      </trkpt>
      <trkpt lat="45.55506" lon="2.67764">
        <ele>993</ele>
        <time>2022-07-30T21:51:26.000Z</time>
      </trkpt>
      <trkpt lat="45.55509" lon="2.67762">
        <ele>993</ele>
        <time>2022-07-30T21:51:27.000Z</time>
      </trkpt>
      <trkpt lat="45.55513" lon="2.6776">
        <ele>993</ele>
        <time>2022-07-30T21:51:28.000Z</time>
      </trkpt>
      <trkpt lat="45.55517" lon="2.67758">
        <ele>993</ele>
        <time>2022-07-30T21:51:29.000Z</time>
      </trkpt>
      <trkpt lat="45.55521" lon="2.67757">
        <ele>993</ele>
        <time>2022-07-30T21:51:30.000Z</time>
      </trkpt>
      <trkpt lat="45.55525" lon="2.67757">
        <ele>993</ele>
        <time>2022-07-30T21:51:31.000Z</time>
      </trkpt>
      <trkpt lat="45.55529" lon="2.67756">
        <ele>993</ele>
        <time>2022-07-30T21:51:32.000Z</time>
      </trkpt>
      <trkpt lat="45.55533" lon="2.67756">
        <ele>993</ele>
        <time>2022-07-30T21:51:33.000Z</time>
      </trkpt>
      <trkpt lat="45.55536" lon="2.67756">
        <ele>993</ele>
        <time>2022-07-30T21:51:34.000Z</time>
      </trkpt>
      <trkpt lat="45.55539" lon="2.67756">
        <ele>993</ele>
        <time>2022-07-30T21:51:35.000Z</time>
      </trkpt>
      <trkpt lat="45.55542" lon="2.67756">
        <ele>993</ele>
        <time>2022-07-30T21:51:36.000Z</time>
      </trkpt>
      <trkpt lat="45.55544" lon="2.67757">
        <ele>993</ele>
        <time>2022-07-30T21:51:37.000Z</time>
      </trkpt>
      <trkpt lat="45.55546" lon="2.67757">
        <ele>993</ele>
        <time>2022-07-30T21:51:38.000Z</time>
      </trkpt>
      <trkpt lat="45.55549" lon="2.67756">
        <ele>993</ele>
        <time>2022-07-30T21:51:39.000Z</time>
      </trkpt>
      <trkpt lat="45.55553" lon="2.67756">
        <ele>993</ele>
        <time>2022-07-30T21:51:40.000Z</time>
      </trkpt>
      <trkpt lat="45.55557" lon="2.67755">
        <ele>993</ele>
        <time>2022-07-30T21:51:41.000Z</time>
      </trkpt>
      <trkpt lat="45.55561" lon="2.67755">
        <ele>993</ele>
        <time>2022-07-30T21:51:42.000Z</time>
      </trkpt>
      <trkpt lat="45.55564" lon="2.67753">
        <ele>993</ele>
        <time>2022-07-30T21:51:43.000Z</time>
      </trkpt>
      <trkpt lat="45.55568" lon="2.67752">
        <ele>993</ele>
        <time>2022-07-30T21:51:44.000Z</time>
      </trkpt>
      <trkpt lat="45.55572" lon="2.67752">
        <ele>993</ele>
        <time>2022-07-30T21:51:45.000Z</time>
      </trkpt>
      <trkpt lat="45.55577" lon="2.67751">
        <ele>993</ele>
        <time>2022-07-30T21:51:46.000Z</time>
      </trkpt>
      <trkpt lat="45.55581" lon="2.6775">
        <ele>993</ele>
        <time>2022-07-30T21:51:47.000Z</time>
      </trkpt>
      <trkpt lat="45.55586" lon="2.6775">
        <ele>993</ele>
        <time>2022-07-30T21:51:48.000Z</time>
      </trkpt>
      <trkpt lat="45.5559" lon="2.6775">
        <ele>993</ele>
        <time>2022-07-30T21:51:49.000Z</time>
      </trkpt>
      <trkpt lat="45.55594" lon="2.6775">
        <ele>993</ele>
        <time>2022-07-30T21:51:50.000Z</time>
      </trkpt>
      <trkpt lat="45.55598" lon="2.6775">
        <ele>993</ele>
        <time>2022-07-30T21:51:51.000Z</time>
      </trkpt>
      <trkpt lat="45.55603" lon="2.6775">
        <ele>993</ele>
        <time>2022-07-30T21:51:52.000Z</time>
      </trkpt>
      <trkpt lat="45.55607" lon="2.67751">
        <ele>993</ele>
        <time>2022-07-30T21:51:53.000Z</time>
      </trkpt>
      <trkpt lat="45.55611" lon="2.67751">
        <ele>993</ele>
        <time>2022-07-30T21:51:54.000Z</time>
      </trkpt>
      <trkpt lat="45.55615" lon="2.67752">
        <ele>993</ele>
        <time>2022-07-30T21:51:55.000Z</time>
      </trkpt>
      <trkpt lat="45.55618" lon="2.67752">
        <ele>993</ele>
        <time>2022-07-30T21:51:56.000Z</time>
      </trkpt>
      <trkpt lat="45.55622" lon="2.67752">
        <ele>993</ele>
        <time>2022-07-30T21:51:57.000Z</time>
      </trkpt>
      <trkpt lat="45.55626" lon="2.67753">
        <ele>993</ele>
        <time>2022-07-30T21:51:58.000Z</time>
      </trkpt>
      <trkpt lat="45.55631" lon="2.67753">
        <ele>993</ele>
        <time>2022-07-30T21:51:59.000Z</time>
      </trkpt>
      <trkpt lat="45.55635" lon="2.67753">
        <ele>993</ele>
        <time>2022-07-30T21:52:00.000Z</time>
      </trkpt>
      <trkpt lat="45.55639" lon="2.67754">
        <ele>993</ele>
        <time>2022-07-30T21:52:01.000Z</time>
      </trkpt>
      <trkpt lat="45.55643" lon="2.67754">
        <ele>994</ele>
        <time>2022-07-30T21:52:02.000Z</time>
      </trkpt>
      <trkpt lat="45.55647" lon="2.67754">
        <ele>994</ele>
        <time>2022-07-30T21:52:03.000Z</time>
      </trkpt>
      <trkpt lat="45.55651" lon="2.67755">
        <ele>994</ele>
        <time>2022-07-30T21:52:04.000Z</time>
      </trkpt>
      <trkpt lat="45.55656" lon="2.67755">
        <ele>994</ele>
        <time>2022-07-30T21:52:05.000Z</time>
      </trkpt>
      <trkpt lat="45.5566" lon="2.67755">
        <ele>994</ele>
        <time>2022-07-30T21:52:06.000Z</time>
      </trkpt>
      <trkpt lat="45.55664" lon="2.67756">
        <ele>994</ele>
        <time>2022-07-30T21:52:07.000Z</time>
      </trkpt>
      <trkpt lat="45.55669" lon="2.67756">
        <ele>994</ele>
        <time>2022-07-30T21:52:08.000Z</time>
      </trkpt>
      <trkpt lat="45.55673" lon="2.67757">
        <ele>994</ele>
        <time>2022-07-30T21:52:09.000Z</time>
      </trkpt>
      <trkpt lat="45.55676" lon="2.67758">
        <ele>994</ele>
        <time>2022-07-30T21:52:10.000Z</time>
      </trkpt>
      <trkpt lat="45.5568" lon="2.67759">
        <ele>993</ele>
        <time>2022-07-30T21:52:11.000Z</time>
      </trkpt>
      <trkpt lat="45.55684" lon="2.6776">
        <ele>993</ele>
        <time>2022-07-30T21:52:12.000Z</time>
      </trkpt>
      <trkpt lat="45.55688" lon="2.67762">
        <ele>993</ele>
        <time>2022-07-30T21:52:13.000Z</time>
      </trkpt>
      <trkpt lat="45.55692" lon="2.67764">
        <ele>993</ele>
        <time>2022-07-30T21:52:14.000Z</time>
      </trkpt>
      <trkpt lat="45.55695" lon="2.67765">
        <ele>993</ele>
        <time>2022-07-30T21:52:15.000Z</time>
      </trkpt>
      <trkpt lat="45.55698" lon="2.67765">
        <ele>993</ele>
        <time>2022-07-30T21:52:16.000Z</time>
      </trkpt>
      <trkpt lat="45.55702" lon="2.67765">
        <ele>993</ele>
        <time>2022-07-30T21:52:17.000Z</time>
      </trkpt>
      <trkpt lat="45.55705" lon="2.67765">
        <ele>993</ele>
        <time>2022-07-30T21:52:18.000Z</time>
      </trkpt>
      <trkpt lat="45.55708" lon="2.67765">
        <ele>1001</ele>
        <time>2022-07-30T21:52:19.000Z</time>
      </trkpt>
      <trkpt lat="45.55711" lon="2.67766">
        <ele>998.4</ele>
        <time>2022-07-30T21:52:20.000Z</time>
      </trkpt>
      <trkpt lat="45.55714" lon="2.67767">
        <ele>998.6</ele>
        <time>2022-07-30T21:52:21.000Z</time>
      </trkpt>
      <trkpt lat="45.55718" lon="2.67769">
        <ele>998.8</ele>
        <time>2022-07-30T21:52:22.000Z</time>
      </trkpt>
      <trkpt lat="45.55721" lon="2.67769">
        <ele>999.1</ele>
        <time>2022-07-30T21:52:23.000Z</time>
      </trkpt>
      <trkpt lat="45.55725" lon="2.6777">
        <ele>999.3</ele>
        <time>2022-07-30T21:52:24.000Z</time>
      </trkpt>
      <trkpt lat="45.55728" lon="2.67771">
        <ele>999.8</ele>
        <time>2022-07-30T21:52:25.000Z</time>
      </trkpt>
      <trkpt lat="45.55731" lon="2.6777">
        <ele>1000</ele>
        <time>2022-07-30T21:52:26.000Z</time>
      </trkpt>
      <trkpt lat="45.55735" lon="2.67769">
        <ele>1000.3</ele>
        <time>2022-07-30T21:52:27.000Z</time>
      </trkpt>
      <trkpt lat="45.55739" lon="2.67769">
        <ele>1000.5</ele>
        <time>2022-07-30T21:52:28.000Z</time>
      </trkpt>
      <trkpt lat="45.55742" lon="2.67769">
        <ele>1000.8</ele>
        <time>2022-07-30T21:52:29.000Z</time>
      </trkpt>
      <trkpt lat="45.55745" lon="2.67768">
        <ele>1001</ele>
        <time>2022-07-30T21:52:30.000Z</time>
      </trkpt>
      <trkpt lat="45.55748" lon="2.67767">
        <ele>1001.6</ele>
        <time>2022-07-30T21:52:31.000Z</time>
      </trkpt>
      <trkpt lat="45.55753" lon="2.67765">
        <ele>1001.8</ele>
        <time>2022-07-30T21:52:32.000Z</time>
      </trkpt>
      <trkpt lat="45.55757" lon="2.67765">
        <ele>1002.1</ele>
        <time>2022-07-30T21:52:33.000Z</time>
      </trkpt>
      <trkpt lat="45.5576" lon="2.67766">
        <ele>1002.4</ele>
        <time>2022-07-30T21:52:34.000Z</time>
      </trkpt>
      <trkpt lat="45.55763" lon="2.67767">
        <ele>1002.6</ele>
        <time>2022-07-30T21:52:35.000Z</time>
      </trkpt>
      <trkpt lat="45.55766" lon="2.67769">
        <ele>1003.2</ele>
        <time>2022-07-30T21:52:36.000Z</time>
      </trkpt>
      <trkpt lat="45.5577" lon="2.6777">
        <ele>1003.5</ele>
        <time>2022-07-30T21:52:37.000Z</time>
      </trkpt>
      <trkpt lat="45.55774" lon="2.67771">
        <ele>1003.7</ele>
        <time>2022-07-30T21:52:38.000Z</time>
      </trkpt>
      <trkpt lat="45.55777" lon="2.67771">
        <ele>1003.8</ele>
        <time>2022-07-30T21:52:39.000Z</time>
      </trkpt>
      <trkpt lat="45.55781" lon="2.67771">
        <ele>1004</ele>
        <time>2022-07-30T21:52:40.000Z</time>
      </trkpt>
      <trkpt lat="45.55784" lon="2.67771">
        <ele>1004.3</ele>
        <time>2022-07-30T21:52:41.000Z</time>
      </trkpt>
      <trkpt lat="45.55787" lon="2.6777">
        <ele>1004.4</ele>
        <time>2022-07-30T21:52:42.000Z</time>
      </trkpt>
      <trkpt lat="45.55791" lon="2.67769">
        <ele>1004.6</ele>
        <time>2022-07-30T21:52:43.000Z</time>
      </trkpt>
      <trkpt lat="45.55795" lon="2.67769">
        <ele>1004.7</ele>
        <time>2022-07-30T21:52:44.000Z</time>
      </trkpt>
      <trkpt lat="45.558" lon="2.6777">
        <ele>1004.9</ele>
        <time>2022-07-30T21:52:45.000Z</time>
      </trkpt>
      <trkpt lat="45.55804" lon="2.67768">
        <ele>1005</ele>
        <time>2022-07-30T21:52:46.000Z</time>
      </trkpt>
      <trkpt lat="45.55808" lon="2.67766">
        <ele>1005.3</ele>
        <time>2022-07-30T21:52:47.000Z</time>
      </trkpt>
      <trkpt lat="45.55811" lon="2.67764">
        <ele>1005.5</ele>
        <time>2022-07-30T21:52:48.000Z</time>
      </trkpt>
      <trkpt lat="45.55814" lon="2.67762">
        <ele>1005.6</ele>
        <time>2022-07-30T21:52:49.000Z</time>
      </trkpt>
      <trkpt lat="45.55818" lon="2.67761">
        <ele>1005.7</ele>
        <time>2022-07-30T21:52:50.000Z</time>
      </trkpt>
      <trkpt lat="45.55821" lon="2.67759">
        <ele>1005.9</ele>
        <time>2022-07-30T21:52:51.000Z</time>
      </trkpt>
      <trkpt lat="45.55824" lon="2.67758">
        <ele>1006.1</ele>
        <time>2022-07-30T21:52:52.000Z</time>
      </trkpt>
      <trkpt lat="45.55828" lon="2.67757">
        <ele>1006.3</ele>
        <time>2022-07-30T21:52:53.000Z</time>
      </trkpt>
      <trkpt lat="45.55832" lon="2.67756">
        <ele>1006.4</ele>
        <time>2022-07-30T21:52:54.000Z</time>
      </trkpt>
      <trkpt lat="45.55836" lon="2.67756">
        <ele>1006.5</ele>
        <time>2022-07-30T21:52:55.000Z</time>
      </trkpt>
      <trkpt lat="45.55839" lon="2.67755">
        <ele>1006.6</ele>
        <time>2022-07-30T21:52:56.000Z</time>
      </trkpt>
      <trkpt lat="45.55842" lon="2.67753">
        <ele>1007</ele>
        <time>2022-07-30T21:52:57.000Z</time>
      </trkpt>
      <trkpt lat="45.55845" lon="2.67751">
        <ele>1007.1</ele>
        <time>2022-07-30T21:52:58.000Z</time>
      </trkpt>
      <trkpt lat="45.55848" lon="2.6775">
        <ele>1007.3</ele>
        <time>2022-07-30T21:52:59.000Z</time>
      </trkpt>
      <trkpt lat="45.55849" lon="2.67747">
        <ele>1007.5</ele>
        <time>2022-07-30T21:53:00.000Z</time>
      </trkpt>
      <trkpt lat="45.55851" lon="2.67748">
        <ele>1007.6</ele>
        <time>2022-07-30T21:53:01.000Z</time>
      </trkpt>
      <trkpt lat="45.55853" lon="2.67747">
        <ele>1007.8</ele>
        <time>2022-07-30T21:53:02.000Z</time>
      </trkpt>
      <trkpt lat="45.55855" lon="2.67747">
        <ele>1008</ele>
        <time>2022-07-30T21:53:03.000Z</time>
      </trkpt>
      <trkpt lat="45.55859" lon="2.67746">
        <ele>1008.1</ele>
        <time>2022-07-30T21:53:04.000Z</time>
      </trkpt>
      <trkpt lat="45.55862" lon="2.67745">
        <ele>1008.3</ele>
        <time>2022-07-30T21:53:05.000Z</time>
      </trkpt>
      <trkpt lat="45.55866" lon="2.67743">
        <ele>1008.4</ele>
        <time>2022-07-30T21:53:06.000Z</time>
      </trkpt>
      <trkpt lat="45.55869" lon="2.67742">
        <ele>1008.5</ele>
        <time>2022-07-30T21:53:07.000Z</time>
      </trkpt>
      <trkpt lat="45.55873" lon="2.67741">
        <ele>1008.8</ele>
        <time>2022-07-30T21:53:08.000Z</time>
      </trkpt>
      <trkpt lat="45.55877" lon="2.67741">
        <ele>1007</ele>
        <time>2022-07-30T21:53:09.000Z</time>
      </trkpt>
      <trkpt lat="45.5588" lon="2.67741">
        <ele>1008.9</ele>
        <time>2022-07-30T21:53:10.000Z</time>
      </trkpt>
      <trkpt lat="45.55883" lon="2.67742">
        <ele>1009</ele>
        <time>2022-07-30T21:53:11.000Z</time>
      </trkpt>
      <trkpt lat="45.55886" lon="2.67744">
        <ele>1007</ele>
        <time>2022-07-30T21:53:12.000Z</time>
      </trkpt>
      <trkpt lat="45.55889" lon="2.67745">
        <ele>1009.1</ele>
        <time>2022-07-30T21:53:13.000Z</time>
      </trkpt>
      <trkpt lat="45.55892" lon="2.67746">
        <ele>1009.4</ele>
        <time>2022-07-30T21:53:14.000Z</time>
      </trkpt>
      <trkpt lat="45.55896" lon="2.67747">
        <ele>1009.5</ele>
        <time>2022-07-30T21:53:15.000Z</time>
      </trkpt>
      <trkpt lat="45.559" lon="2.67749">
        <ele>1009.7</ele>
        <time>2022-07-30T21:53:16.000Z</time>
      </trkpt>
      <trkpt lat="45.55904" lon="2.67752">
        <ele>1009.8</ele>
        <time>2022-07-30T21:53:17.000Z</time>
      </trkpt>
      <trkpt lat="45.55907" lon="2.67756">
        <ele>1010</ele>
        <time>2022-07-30T21:53:18.000Z</time>
      </trkpt>
      <trkpt lat="45.5591" lon="2.6776">
        <ele>1010.4</ele>
        <time>2022-07-30T21:53:19.000Z</time>
      </trkpt>
      <trkpt lat="45.55913" lon="2.67763">
        <ele>1010.6</ele>
        <time>2022-07-30T21:53:20.000Z</time>
      </trkpt>
      <trkpt lat="45.55916" lon="2.67766">
        <ele>1007</ele>
        <time>2022-07-30T21:53:21.000Z</time>
      </trkpt>
      <trkpt lat="45.55919" lon="2.6777">
        <ele>1010.7</ele>
        <time>2022-07-30T21:53:22.000Z</time>
      </trkpt>
      <trkpt lat="45.55922" lon="2.67773">
        <ele>1010.9</ele>
        <time>2022-07-30T21:53:23.000Z</time>
      </trkpt>
      <trkpt lat="45.55926" lon="2.67776">
        <ele>1011.1</ele>
        <time>2022-07-30T21:53:24.000Z</time>
      </trkpt>
      <trkpt lat="45.5593" lon="2.67779">
        <ele>1011.2</ele>
        <time>2022-07-30T21:53:25.000Z</time>
      </trkpt>
      <trkpt lat="45.55933" lon="2.67782">
        <ele>1011.4</ele>
        <time>2022-07-30T21:53:26.000Z</time>
      </trkpt>
      <trkpt lat="45.55937" lon="2.67785">
        <ele>1011.5</ele>
        <time>2022-07-30T21:53:27.000Z</time>
      </trkpt>
      <trkpt lat="45.5594" lon="2.67788">
        <ele>1011.6</ele>
        <time>2022-07-30T21:53:28.000Z</time>
      </trkpt>
      <trkpt lat="45.55943" lon="2.6779">
        <ele>1012</ele>
        <time>2022-07-30T21:53:29.000Z</time>
      </trkpt>
      <trkpt lat="45.55946" lon="2.67792">
        <ele>1011.8</ele>
        <time>2022-07-30T21:53:30.000Z</time>
      </trkpt>
      <trkpt lat="45.55949" lon="2.67795">
        <ele>1012</ele>
        <time>2022-07-30T21:53:31.000Z</time>
      </trkpt>
      <trkpt lat="45.55953" lon="2.67798">
        <ele>1012.1</ele>
        <time>2022-07-30T21:53:32.000Z</time>
      </trkpt>
      <trkpt lat="45.55956" lon="2.67801">
        <ele>1012.2</ele>
        <time>2022-07-30T21:53:33.000Z</time>
      </trkpt>
      <trkpt lat="45.55959" lon="2.67805">
        <ele>1012.3</ele>
        <time>2022-07-30T21:53:34.000Z</time>
      </trkpt>
      <trkpt lat="45.55963" lon="2.67808">
        <ele>1012</ele>
        <time>2022-07-30T21:53:35.000Z</time>
      </trkpt>
      <trkpt lat="45.55967" lon="2.67812">
        <ele>1012.6</ele>
        <time>2022-07-30T21:53:36.000Z</time>
      </trkpt>
      <trkpt lat="45.5597" lon="2.67816">
        <ele>1012.7</ele>
        <time>2022-07-30T21:53:37.000Z</time>
      </trkpt>
      <trkpt lat="45.55973" lon="2.6782">
        <ele>1012.8</ele>
        <time>2022-07-30T21:53:38.000Z</time>
      </trkpt>
      <trkpt lat="45.55976" lon="2.67824">
        <ele>1012.9</ele>
        <time>2022-07-30T21:53:39.000Z</time>
      </trkpt>
      <trkpt lat="45.5598" lon="2.67828">
        <ele>1013.5</ele>
        <time>2022-07-30T21:53:40.000Z</time>
      </trkpt>
      <trkpt lat="45.55983" lon="2.67832">
        <ele>1013.8</ele>
        <time>2022-07-30T21:53:41.000Z</time>
      </trkpt>
      <trkpt lat="45.55986" lon="2.67835">
        <ele>1014</ele>
        <time>2022-07-30T21:53:42.000Z</time>
      </trkpt>
      <trkpt lat="45.55989" lon="2.67839">
        <ele>1014.2</ele>
        <time>2022-07-30T21:53:43.000Z</time>
      </trkpt>
      <trkpt lat="45.55992" lon="2.67843">
        <ele>1014.4</ele>
        <time>2022-07-30T21:53:44.000Z</time>
      </trkpt>
      <trkpt lat="45.55995" lon="2.67847">
        <ele>1014.6</ele>
        <time>2022-07-30T21:53:45.000Z</time>
      </trkpt>
      <trkpt lat="45.55998" lon="2.67851">
        <ele>1015.1</ele>
        <time>2022-07-30T21:53:46.000Z</time>
      </trkpt>
      <trkpt lat="45.56001" lon="2.67854">
        <ele>1015.3</ele>
        <time>2022-07-30T21:53:47.000Z</time>
      </trkpt>
      <trkpt lat="45.56004" lon="2.67858">
        <ele>1015.5</ele>
        <time>2022-07-30T21:53:48.000Z</time>
      </trkpt>
      <trkpt lat="45.56006" lon="2.67862">
        <ele>1015.8</ele>
        <time>2022-07-30T21:53:49.000Z</time>
      </trkpt>
      <trkpt lat="45.56009" lon="2.67866">
        <ele>1016</ele>
        <time>2022-07-30T21:53:50.000Z</time>
      </trkpt>
      <trkpt lat="45.56012" lon="2.6787">
        <ele>1016.5</ele>
        <time>2022-07-30T21:53:51.000Z</time>
      </trkpt>
      <trkpt lat="45.56014" lon="2.67874">
        <ele>1015</ele>
        <time>2022-07-30T21:53:52.000Z</time>
      </trkpt>
      <trkpt lat="45.56017" lon="2.67877">
        <ele>1016.7</ele>
        <time>2022-07-30T21:53:53.000Z</time>
      </trkpt>
      <trkpt lat="45.5602" lon="2.67881">
        <ele>1016.9</ele>
        <time>2022-07-30T21:53:54.000Z</time>
      </trkpt>
      <trkpt lat="45.56023" lon="2.67885">
        <ele>1017.2</ele>
        <time>2022-07-30T21:53:55.000Z</time>
      </trkpt>
      <trkpt lat="45.56026" lon="2.67889">
        <ele>1017.7</ele>
        <time>2022-07-30T21:53:56.000Z</time>
      </trkpt>
      <trkpt lat="45.56028" lon="2.67892">
        <ele>1017.9</ele>
        <time>2022-07-30T21:53:57.000Z</time>
      </trkpt>
      <trkpt lat="45.56031" lon="2.67896">
        <ele>1018.2</ele>
        <time>2022-07-30T21:53:58.000Z</time>
      </trkpt>
      <trkpt lat="45.56035" lon="2.679">
        <ele>1018.4</ele>
        <time>2022-07-30T21:53:59.000Z</time>
      </trkpt>
      <trkpt lat="45.56038" lon="2.67904">
        <ele>1018.7</ele>
        <time>2022-07-30T21:54:00.000Z</time>
      </trkpt>
      <trkpt lat="45.56041" lon="2.67908">
        <ele>1018.9</ele>
        <time>2022-07-30T21:54:01.000Z</time>
      </trkpt>
      <trkpt lat="45.56044" lon="2.67912">
        <ele>1019.7</ele>
        <time>2022-07-30T21:54:02.000Z</time>
      </trkpt>
      <trkpt lat="45.56047" lon="2.67915">
        <ele>1020.1</ele>
        <time>2022-07-30T21:54:03.000Z</time>
      </trkpt>
      <trkpt lat="45.5605" lon="2.67919">
        <ele>1020.3</ele>
        <time>2022-07-30T21:54:04.000Z</time>
      </trkpt>
      <trkpt lat="45.56054" lon="2.67924">
        <ele>1020.6</ele>
        <time>2022-07-30T21:54:05.000Z</time>
      </trkpt>
      <trkpt lat="45.56056" lon="2.67929">
        <ele>1020.8</ele>
        <time>2022-07-30T21:54:06.000Z</time>
      </trkpt>
      <trkpt lat="45.56059" lon="2.67933">
        <ele>1021.3</ele>
        <time>2022-07-30T21:54:07.000Z</time>
      </trkpt>
      <trkpt lat="45.56061" lon="2.67937">
        <ele>1021.6</ele>
        <time>2022-07-30T21:54:08.000Z</time>
      </trkpt>
      <trkpt lat="45.56063" lon="2.67943">
        <ele>1021.9</ele>
        <time>2022-07-30T21:54:09.000Z</time>
      </trkpt>
      <trkpt lat="45.56066" lon="2.67948">
        <ele>1022.1</ele>
        <time>2022-07-30T21:54:10.000Z</time>
      </trkpt>
      <trkpt lat="45.56069" lon="2.67954">
        <ele>1022.4</ele>
        <time>2022-07-30T21:54:11.000Z</time>
      </trkpt>
      <trkpt lat="45.56072" lon="2.67959">
        <ele>1022.6</ele>
        <time>2022-07-30T21:54:12.000Z</time>
      </trkpt>
      <trkpt lat="45.56074" lon="2.67964">
        <ele>1023.1</ele>
        <time>2022-07-30T21:54:13.000Z</time>
      </trkpt>
      <trkpt lat="45.56077" lon="2.6797">
        <ele>1023.4</ele>
        <time>2022-07-30T21:54:14.000Z</time>
      </trkpt>
      <trkpt lat="45.5608" lon="2.67975">
        <ele>1023.6</ele>
        <time>2022-07-30T21:54:15.000Z</time>
      </trkpt>
      <trkpt lat="45.56082" lon="2.67979">
        <ele>1023.9</ele>
        <time>2022-07-30T21:54:16.000Z</time>
      </trkpt>
      <trkpt lat="45.56085" lon="2.67984">
        <ele>1024.2</ele>
        <time>2022-07-30T21:54:17.000Z</time>
      </trkpt>
      <trkpt lat="45.56087" lon="2.67988">
        <ele>1024.7</ele>
        <time>2022-07-30T21:54:18.000Z</time>
      </trkpt>
      <trkpt lat="45.5609" lon="2.67993">
        <ele>1025</ele>
        <time>2022-07-30T21:54:19.000Z</time>
      </trkpt>
      <trkpt lat="45.56092" lon="2.67997">
        <ele>1025.3</ele>
        <time>2022-07-30T21:54:20.000Z</time>
      </trkpt>
      <trkpt lat="45.56095" lon="2.68002">
        <ele>1025.6</ele>
        <time>2022-07-30T21:54:21.000Z</time>
      </trkpt>
      <trkpt lat="45.56098" lon="2.68007">
        <ele>1025.9</ele>
        <time>2022-07-30T21:54:22.000Z</time>
      </trkpt>
      <trkpt lat="45.56101" lon="2.68012">
        <ele>1026.7</ele>
        <time>2022-07-30T21:54:23.000Z</time>
      </trkpt>
      <trkpt lat="45.56104" lon="2.68017">
        <ele>1027.1</ele>
        <time>2022-07-30T21:54:24.000Z</time>
      </trkpt>
      <trkpt lat="45.56106" lon="2.68022">
        <ele>1027.4</ele>
        <time>2022-07-30T21:54:25.000Z</time>
      </trkpt>
      <trkpt lat="45.56109" lon="2.68027">
        <ele>1027.7</ele>
        <time>2022-07-30T21:54:26.000Z</time>
      </trkpt>
      <trkpt lat="45.56111" lon="2.68031">
        <ele>1027.9</ele>
        <time>2022-07-30T21:54:27.000Z</time>
      </trkpt>
      <trkpt lat="45.56114" lon="2.68035">
        <ele>1028.2</ele>
        <time>2022-07-30T21:54:28.000Z</time>
      </trkpt>
      <trkpt lat="45.56117" lon="2.68039">
        <ele>1028.7</ele>
        <time>2022-07-30T21:54:29.000Z</time>
      </trkpt>
      <trkpt lat="45.5612" lon="2.68042">
        <ele>1029</ele>
        <time>2022-07-30T21:54:30.000Z</time>
      </trkpt>
      <trkpt lat="45.56123" lon="2.68046">
        <ele>1029.3</ele>
        <time>2022-07-30T21:54:31.000Z</time>
      </trkpt>
      <trkpt lat="45.56127" lon="2.68048">
        <ele>1029.5</ele>
        <time>2022-07-30T21:54:32.000Z</time>
      </trkpt>
      <trkpt lat="45.56128" lon="2.68048">
        <ele>1029.8</ele>
        <time>2022-07-30T21:54:33.000Z</time>
      </trkpt>
      <trkpt lat="45.56131" lon="2.68048">
        <ele>1030.3</ele>
        <time>2022-07-30T21:54:34.000Z</time>
      </trkpt>
      <trkpt lat="45.56133" lon="2.68049">
        <ele>1030.6</ele>
        <time>2022-07-30T21:54:35.000Z</time>
      </trkpt>
      <trkpt lat="45.56133" lon="2.68049">
        <ele>1030.9</ele>
        <time>2022-07-30T21:54:36.000Z</time>
      </trkpt>
      <trkpt lat="45.56135" lon="2.68054">
        <ele>1031.1</ele>
        <time>2022-07-30T21:54:37.000Z</time>
      </trkpt>
      <trkpt lat="45.56137" lon="2.68061">
        <ele>1031.4</ele>
        <time>2022-07-30T21:54:38.000Z</time>
      </trkpt>
      <trkpt lat="45.56138" lon="2.68067">
        <ele>1032.1</ele>
        <time>2022-07-30T21:54:39.000Z</time>
      </trkpt>
      <trkpt lat="45.5614" lon="2.68073">
        <ele>1032.4</ele>
        <time>2022-07-30T21:54:40.000Z</time>
      </trkpt>
      <trkpt lat="45.56142" lon="2.6808">
        <ele>1032.8</ele>
        <time>2022-07-30T21:54:41.000Z</time>
      </trkpt>
      <trkpt lat="45.56144" lon="2.68086">
        <ele>1033.1</ele>
        <time>2022-07-30T21:54:42.000Z</time>
      </trkpt>
      <trkpt lat="45.56146" lon="2.68092">
        <ele>1033.4</ele>
        <time>2022-07-30T21:54:43.000Z</time>
      </trkpt>
      <trkpt lat="45.56148" lon="2.68099">
        <ele>1033.7</ele>
        <time>2022-07-30T21:54:44.000Z</time>
      </trkpt>
      <trkpt lat="45.56149" lon="2.68105">
        <ele>1034.3</ele>
        <time>2022-07-30T21:54:45.000Z</time>
      </trkpt>
      <trkpt lat="45.56151" lon="2.68111">
        <ele>1034.5</ele>
        <time>2022-07-30T21:54:46.000Z</time>
      </trkpt>
      <trkpt lat="45.56153" lon="2.68117">
        <ele>1030</ele>
        <time>2022-07-30T21:54:47.000Z</time>
      </trkpt>
      <trkpt lat="45.56155" lon="2.68123">
        <ele>1034.7</ele>
        <time>2022-07-30T21:54:48.000Z</time>
      </trkpt>
      <trkpt lat="45.56157" lon="2.68129">
        <ele>1034.9</ele>
        <time>2022-07-30T21:54:49.000Z</time>
      </trkpt>
      <trkpt lat="45.56159" lon="2.68135">
        <ele>1035.3</ele>
        <time>2022-07-30T21:54:50.000Z</time>
      </trkpt>
      <trkpt lat="45.56161" lon="2.68141">
        <ele>1035.4</ele>
        <time>2022-07-30T21:54:51.000Z</time>
      </trkpt>
      <trkpt lat="45.56163" lon="2.68147">
        <ele>1035.6</ele>
        <time>2022-07-30T21:54:52.000Z</time>
      </trkpt>
      <trkpt lat="45.56165" lon="2.68153">
        <ele>1035.8</ele>
        <time>2022-07-30T21:54:53.000Z</time>
      </trkpt>
      <trkpt lat="45.56167" lon="2.68159">
        <ele>1036</ele>
        <time>2022-07-30T21:54:54.000Z</time>
      </trkpt>
      <trkpt lat="45.56169" lon="2.68165">
        <ele>1036.4</ele>
        <time>2022-07-30T21:54:55.000Z</time>
      </trkpt>
      <trkpt lat="45.5617" lon="2.68171">
        <ele>1036.7</ele>
        <time>2022-07-30T21:54:56.000Z</time>
      </trkpt>
      <trkpt lat="45.56172" lon="2.68177">
        <ele>1037</ele>
        <time>2022-07-30T21:54:57.000Z</time>
      </trkpt>
      <trkpt lat="45.56174" lon="2.68183">
        <ele>1037.3</ele>
        <time>2022-07-30T21:54:58.000Z</time>
      </trkpt>
      <trkpt lat="45.56176" lon="2.68189">
        <ele>1037.5</ele>
        <time>2022-07-30T21:54:59.000Z</time>
      </trkpt>
      <trkpt lat="45.56178" lon="2.68195">
        <ele>1037.8</ele>
        <time>2022-07-30T21:55:00.000Z</time>
      </trkpt>
      <trkpt lat="45.5618" lon="2.68201">
        <ele>1038.3</ele>
        <time>2022-07-30T21:55:01.000Z</time>
      </trkpt>
      <trkpt lat="45.56182" lon="2.68207">
        <ele>1038.6</ele>
        <time>2022-07-30T21:55:02.000Z</time>
      </trkpt>
      <trkpt lat="45.56184" lon="2.68213">
        <ele>1038.8</ele>
        <time>2022-07-30T21:55:03.000Z</time>
      </trkpt>
      <trkpt lat="45.56186" lon="2.68219">
        <ele>1039</ele>
        <time>2022-07-30T21:55:04.000Z</time>
      </trkpt>
      <trkpt lat="45.56188" lon="2.68225">
        <ele>1039.2</ele>
        <time>2022-07-30T21:55:05.000Z</time>
      </trkpt>
      <trkpt lat="45.5619" lon="2.68231">
        <ele>1039.6</ele>
        <time>2022-07-30T21:55:06.000Z</time>
      </trkpt>
      <trkpt lat="45.56191" lon="2.68237">
        <ele>1039.8</ele>
        <time>2022-07-30T21:55:07.000Z</time>
      </trkpt>
      <trkpt lat="45.56193" lon="2.68243">
        <ele>1040</ele>
        <time>2022-07-30T21:55:08.000Z</time>
      </trkpt>
      <trkpt lat="45.56195" lon="2.68249">
        <ele>1040.1</ele>
        <time>2022-07-30T21:55:09.000Z</time>
      </trkpt>
      <trkpt lat="45.56197" lon="2.68255">
        <ele>1040.3</ele>
        <time>2022-07-30T21:55:10.000Z</time>
      </trkpt>
      <trkpt lat="45.56199" lon="2.68261">
        <ele>1040.6</ele>
        <time>2022-07-30T21:55:11.000Z</time>
      </trkpt>
      <trkpt lat="45.56201" lon="2.68267">
        <ele>1040</ele>
        <time>2022-07-30T21:55:12.000Z</time>
      </trkpt>
      <trkpt lat="45.56203" lon="2.68273">
        <ele>1041.2</ele>
        <time>2022-07-30T21:55:13.000Z</time>
      </trkpt>
      <trkpt lat="45.56204" lon="2.68279">
        <ele>1041.6</ele>
        <time>2022-07-30T21:55:14.000Z</time>
      </trkpt>
      <trkpt lat="45.56206" lon="2.68285">
        <ele>1041.9</ele>
        <time>2022-07-30T21:55:15.000Z</time>
      </trkpt>
      <trkpt lat="45.56208" lon="2.68291">
        <ele>1042.3</ele>
        <time>2022-07-30T21:55:16.000Z</time>
      </trkpt>
      <trkpt lat="45.5621" lon="2.68297">
        <ele>1042.7</ele>
        <time>2022-07-30T21:55:17.000Z</time>
      </trkpt>
      <trkpt lat="45.56212" lon="2.68303">
        <ele>1040</ele>
        <time>2022-07-30T21:55:18.000Z</time>
      </trkpt>
      <trkpt lat="45.56213" lon="2.68309">
        <ele>1043.1</ele>
        <time>2022-07-30T21:55:19.000Z</time>
      </trkpt>
      <trkpt lat="45.56215" lon="2.68315">
        <ele>1040</ele>
        <time>2022-07-30T21:55:20.000Z</time>
      </trkpt>
      <trkpt lat="45.56217" lon="2.68321">
        <ele>1043.5</ele>
        <time>2022-07-30T21:55:21.000Z</time>
      </trkpt>
      <trkpt lat="45.56219" lon="2.68327">
        <ele>1040</ele>
        <time>2022-07-30T21:55:22.000Z</time>
      </trkpt>
      <trkpt lat="45.5622" lon="2.68333">
        <ele>1044.1</ele>
        <time>2022-07-30T21:55:23.000Z</time>
      </trkpt>
      <trkpt lat="45.56222" lon="2.68339">
        <ele>1040</ele>
        <time>2022-07-30T21:55:24.000Z</time>
      </trkpt>
      <trkpt lat="45.56224" lon="2.68345">
        <ele>1044.4</ele>
        <time>2022-07-30T21:55:25.000Z</time>
      </trkpt>
      <trkpt lat="45.56226" lon="2.68351">
        <ele>1044.7</ele>
        <time>2022-07-30T21:55:26.000Z</time>
      </trkpt>
      <trkpt lat="45.56228" lon="2.68357">
        <ele>1045</ele>
        <time>2022-07-30T21:55:27.000Z</time>
      </trkpt>
      <trkpt lat="45.56229" lon="2.68363">
        <ele>1045.6</ele>
        <time>2022-07-30T21:55:28.000Z</time>
      </trkpt>
      <trkpt lat="45.56231" lon="2.68369">
        <ele>1045.9</ele>
        <time>2022-07-30T21:55:29.000Z</time>
      </trkpt>
      <trkpt lat="45.56233" lon="2.68375">
        <ele>1046.2</ele>
        <time>2022-07-30T21:55:30.000Z</time>
      </trkpt>
      <trkpt lat="45.56235" lon="2.68381">
        <ele>1046.5</ele>
        <time>2022-07-30T21:55:31.000Z</time>
      </trkpt>
      <trkpt lat="45.56236" lon="2.68387">
        <ele>1046.8</ele>
        <time>2022-07-30T21:55:32.000Z</time>
      </trkpt>
      <trkpt lat="45.56238" lon="2.68392">
        <ele>1047.2</ele>
        <time>2022-07-30T21:55:33.000Z</time>
      </trkpt>
      <trkpt lat="45.5624" lon="2.68398">
        <ele>1047.5</ele>
        <time>2022-07-30T21:55:34.000Z</time>
      </trkpt>
      <trkpt lat="45.56242" lon="2.68404">
        <ele>1047.9</ele>
        <time>2022-07-30T21:55:35.000Z</time>
      </trkpt>
      <trkpt lat="45.56244" lon="2.6841">
        <ele>1048.3</ele>
        <time>2022-07-30T21:55:36.000Z</time>
      </trkpt>
      <trkpt lat="45.56245" lon="2.68416">
        <ele>1048.7</ele>
        <time>2022-07-30T21:55:37.000Z</time>
      </trkpt>
      <trkpt lat="45.56247" lon="2.68422">
        <ele>1049.6</ele>
        <time>2022-07-30T21:55:38.000Z</time>
      </trkpt>
      <trkpt lat="45.56249" lon="2.68428">
        <ele>1050</ele>
        <time>2022-07-30T21:55:39.000Z</time>
      </trkpt>
      <trkpt lat="45.56251" lon="2.68434">
        <ele>1050.4</ele>
        <time>2022-07-30T21:55:40.000Z</time>
      </trkpt>
      <trkpt lat="45.56254" lon="2.68441">
        <ele>1050.8</ele>
        <time>2022-07-30T21:55:41.000Z</time>
      </trkpt>
      <trkpt lat="45.56257" lon="2.68449">
        <ele>1045</ele>
        <time>2022-07-30T21:55:42.000Z</time>
      </trkpt>
      <trkpt lat="45.5626" lon="2.68456">
        <ele>1045</ele>
        <time>2022-07-30T21:55:43.000Z</time>
      </trkpt>
      <trkpt lat="45.56261" lon="2.68462">
        <ele>1045</ele>
        <time>2022-07-30T21:55:44.000Z</time>
      </trkpt>
      <trkpt lat="45.56261" lon="2.68469">
        <ele>1040</ele>
        <time>2022-07-30T21:55:45.000Z</time>
      </trkpt>
      <trkpt lat="45.56262" lon="2.68475">
        <ele>1040</ele>
        <time>2022-07-30T21:55:46.000Z</time>
      </trkpt>
      <trkpt lat="45.56263" lon="2.68482">
        <ele>1040</ele>
        <time>2022-07-30T21:55:47.000Z</time>
      </trkpt>
      <trkpt lat="45.56264" lon="2.68488">
        <ele>1040</ele>
        <time>2022-07-30T21:55:48.000Z</time>
      </trkpt>
      <trkpt lat="45.56264" lon="2.68495">
        <ele>1040</ele>
        <time>2022-07-30T21:55:49.000Z</time>
      </trkpt>
      <trkpt lat="45.56265" lon="2.68501">
        <ele>1054</ele>
        <time>2022-07-30T21:55:50.000Z</time>
      </trkpt>
      <trkpt lat="45.56266" lon="2.68508">
        <ele>1054</ele>
        <time>2022-07-30T21:55:51.000Z</time>
      </trkpt>
      <trkpt lat="45.56267" lon="2.68514">
        <ele>1054</ele>
        <time>2022-07-30T21:55:52.000Z</time>
      </trkpt>
      <trkpt lat="45.56267" lon="2.68521">
        <ele>1054</ele>
        <time>2022-07-30T21:55:53.000Z</time>
      </trkpt>
      <trkpt lat="45.56268" lon="2.68527">
        <ele>1054</ele>
        <time>2022-07-30T21:55:54.000Z</time>
      </trkpt>
      <trkpt lat="45.56269" lon="2.68533">
        <ele>1054</ele>
        <time>2022-07-30T21:55:55.000Z</time>
      </trkpt>
      <trkpt lat="45.5627" lon="2.6854">
        <ele>1054</ele>
        <time>2022-07-30T21:55:56.000Z</time>
      </trkpt>
      <trkpt lat="45.5627" lon="2.68546">
        <ele>1054</ele>
        <time>2022-07-30T21:55:57.000Z</time>
      </trkpt>
      <trkpt lat="45.56271" lon="2.68553">
        <ele>1054</ele>
        <time>2022-07-30T21:55:58.000Z</time>
      </trkpt>
      <trkpt lat="45.56272" lon="2.68559">
        <ele>1054</ele>
        <time>2022-07-30T21:55:59.000Z</time>
      </trkpt>
      <trkpt lat="45.56273" lon="2.68566">
        <ele>1054</ele>
        <time>2022-07-30T21:56:00.000Z</time>
      </trkpt>
      <trkpt lat="45.56273" lon="2.68572">
        <ele>1054</ele>
        <time>2022-07-30T21:56:01.000Z</time>
      </trkpt>
      <trkpt lat="45.56274" lon="2.68579">
        <ele>1060</ele>
        <time>2022-07-30T21:56:02.000Z</time>
      </trkpt>
      <trkpt lat="45.56275" lon="2.68585">
        <ele>1060</ele>
        <time>2022-07-30T21:56:03.000Z</time>
      </trkpt>
      <trkpt lat="45.56276" lon="2.68592">
        <ele>1060</ele>
        <time>2022-07-30T21:56:04.000Z</time>
      </trkpt>
      <trkpt lat="45.56276" lon="2.68598">
        <ele>1060</ele>
        <time>2022-07-30T21:56:05.000Z</time>
      </trkpt>
      <trkpt lat="45.56277" lon="2.68605">
        <ele>1060</ele>
        <time>2022-07-30T21:56:06.000Z</time>
      </trkpt>
      <trkpt lat="45.56278" lon="2.68611">
        <ele>1060</ele>
        <time>2022-07-30T21:56:07.000Z</time>
      </trkpt>
      <trkpt lat="45.56279" lon="2.68618">
        <ele>1060</ele>
        <time>2022-07-30T21:56:08.000Z</time>
      </trkpt>
      <trkpt lat="45.56279" lon="2.68624">
        <ele>1060</ele>
        <time>2022-07-30T21:56:09.000Z</time>
      </trkpt>
      <trkpt lat="45.5628" lon="2.68631">
        <ele>1060</ele>
        <time>2022-07-30T21:56:10.000Z</time>
      </trkpt>
      <trkpt lat="45.56281" lon="2.68637">
        <ele>1060</ele>
        <time>2022-07-30T21:56:11.000Z</time>
      </trkpt>
      <trkpt lat="45.56282" lon="2.68644">
        <ele>1060</ele>
        <time>2022-07-30T21:56:12.000Z</time>
      </trkpt>
      <trkpt lat="45.56282" lon="2.6865">
        <ele>1060</ele>
        <time>2022-07-30T21:56:13.000Z</time>
      </trkpt>
      <trkpt lat="45.56283" lon="2.68657">
        <ele>1061</ele>
        <time>2022-07-30T21:56:14.000Z</time>
      </trkpt>
      <trkpt lat="45.56284" lon="2.68663">
        <ele>1061</ele>
        <time>2022-07-30T21:56:15.000Z</time>
      </trkpt>
      <trkpt lat="45.56285" lon="2.68669">
        <ele>1061</ele>
        <time>2022-07-30T21:56:16.000Z</time>
      </trkpt>
      <trkpt lat="45.56285" lon="2.68676">
        <ele>1061</ele>
        <time>2022-07-30T21:56:17.000Z</time>
      </trkpt>
      <trkpt lat="45.56286" lon="2.68682">
        <ele>1061</ele>
        <time>2022-07-30T21:56:18.000Z</time>
      </trkpt>
      <trkpt lat="45.56287" lon="2.68689">
        <ele>1061</ele>
        <time>2022-07-30T21:56:19.000Z</time>
      </trkpt>
      <trkpt lat="45.56288" lon="2.68695">
        <ele>1061</ele>
        <time>2022-07-30T21:56:20.000Z</time>
      </trkpt>
      <trkpt lat="45.56288" lon="2.68702">
        <ele>1061</ele>
        <time>2022-07-30T21:56:21.000Z</time>
      </trkpt>
      <trkpt lat="45.56289" lon="2.68708">
        <ele>1061</ele>
        <time>2022-07-30T21:56:22.000Z</time>
      </trkpt>
      <trkpt lat="45.5629" lon="2.68714">
        <ele>1061</ele>
        <time>2022-07-30T21:56:23.000Z</time>
      </trkpt>
      <trkpt lat="45.56291" lon="2.68721">
        <ele>1061</ele>
        <time>2022-07-30T21:56:24.000Z</time>
      </trkpt>
      <trkpt lat="45.56292" lon="2.68727">
        <ele>1073</ele>
        <time>2022-07-30T21:56:25.000Z</time>
      </trkpt>
      <trkpt lat="45.56292" lon="2.68734">
        <ele>1073</ele>
        <time>2022-07-30T21:56:26.000Z</time>
      </trkpt>
      <trkpt lat="45.56293" lon="2.6874">
        <ele>1072</ele>
        <time>2022-07-30T21:56:27.000Z</time>
      </trkpt>
      <trkpt lat="45.56294" lon="2.68746">
        <ele>1072</ele>
        <time>2022-07-30T21:56:28.000Z</time>
      </trkpt>
      <trkpt lat="45.56295" lon="2.68753">
        <ele>1072</ele>
        <time>2022-07-30T21:56:29.000Z</time>
      </trkpt>
      <trkpt lat="45.56296" lon="2.68759">
        <ele>1072</ele>
        <time>2022-07-30T21:56:30.000Z</time>
      </trkpt>
      <trkpt lat="45.56296" lon="2.68766">
        <ele>1072</ele>
        <time>2022-07-30T21:56:31.000Z</time>
      </trkpt>
      <trkpt lat="45.56297" lon="2.68772">
        <ele>1072</ele>
        <time>2022-07-30T21:56:32.000Z</time>
      </trkpt>
      <trkpt lat="45.56298" lon="2.68778">
        <ele>1072</ele>
        <time>2022-07-30T21:56:33.000Z</time>
      </trkpt>
      <trkpt lat="45.56299" lon="2.68785">
        <ele>1072</ele>
        <time>2022-07-30T21:56:34.000Z</time>
      </trkpt>
      <trkpt lat="45.56299" lon="2.68791">
        <ele>1072</ele>
        <time>2022-07-30T21:56:35.000Z</time>
      </trkpt>
      <trkpt lat="45.563" lon="2.68798">
        <ele>1072</ele>
        <time>2022-07-30T21:56:36.000Z</time>
      </trkpt>
      <trkpt lat="45.56301" lon="2.68804">
        <ele>1072</ele>
        <time>2022-07-30T21:56:37.000Z</time>
      </trkpt>
      <trkpt lat="45.56302" lon="2.6881">
        <ele>1074</ele>
        <time>2022-07-30T21:56:38.000Z</time>
      </trkpt>
      <trkpt lat="45.56303" lon="2.68817">
        <ele>1074</ele>
        <time>2022-07-30T21:56:39.000Z</time>
      </trkpt>
      <trkpt lat="45.56303" lon="2.68823">
        <ele>1074</ele>
        <time>2022-07-30T21:56:40.000Z</time>
      </trkpt>
      <trkpt lat="45.56304" lon="2.6883">
        <ele>1074</ele>
        <time>2022-07-30T21:56:41.000Z</time>
      </trkpt>
      <trkpt lat="45.56305" lon="2.68836">
        <ele>1074</ele>
        <time>2022-07-30T21:56:42.000Z</time>
      </trkpt>
      <trkpt lat="45.56306" lon="2.68842">
        <ele>1074</ele>
        <time>2022-07-30T21:56:43.000Z</time>
      </trkpt>
      <trkpt lat="45.56307" lon="2.68849">
        <ele>1074</ele>
        <time>2022-07-30T21:56:44.000Z</time>
      </trkpt>
      <trkpt lat="45.56308" lon="2.68855">
        <ele>1074</ele>
        <time>2022-07-30T21:56:45.000Z</time>
      </trkpt>
      <trkpt lat="45.56308" lon="2.68862">
        <ele>1074</ele>
        <time>2022-07-30T21:56:46.000Z</time>
      </trkpt>
      <trkpt lat="45.56309" lon="2.68868">
        <ele>1074</ele>
        <time>2022-07-30T21:56:47.000Z</time>
      </trkpt>
      <trkpt lat="45.5631" lon="2.68874">
        <ele>1074</ele>
        <time>2022-07-30T21:56:48.000Z</time>
      </trkpt>
      <trkpt lat="45.56311" lon="2.68881">
        <ele>1074</ele>
        <time>2022-07-30T21:56:49.000Z</time>
      </trkpt>
      <trkpt lat="45.56312" lon="2.68887">
        <ele>1074</ele>
        <time>2022-07-30T21:56:50.000Z</time>
      </trkpt>
      <trkpt lat="45.56313" lon="2.68894">
        <ele>1075</ele>
        <time>2022-07-30T21:56:51.000Z</time>
      </trkpt>
      <trkpt lat="45.56314" lon="2.689">
        <ele>1075</ele>
        <time>2022-07-30T21:56:52.000Z</time>
      </trkpt>
      <trkpt lat="45.56315" lon="2.68906">
        <ele>1075</ele>
        <time>2022-07-30T21:56:53.000Z</time>
      </trkpt>
      <trkpt lat="45.56315" lon="2.68913">
        <ele>1075</ele>
        <time>2022-07-30T21:56:54.000Z</time>
      </trkpt>
      <trkpt lat="45.56316" lon="2.68919">
        <ele>1075</ele>
        <time>2022-07-30T21:56:55.000Z</time>
      </trkpt>
      <trkpt lat="45.56317" lon="2.68925">
        <ele>1075</ele>
        <time>2022-07-30T21:56:56.000Z</time>
      </trkpt>
      <trkpt lat="45.56318" lon="2.68932">
        <ele>1075</ele>
        <time>2022-07-30T21:56:57.000Z</time>
      </trkpt>
      <trkpt lat="45.56319" lon="2.68938">
        <ele>1075</ele>
        <time>2022-07-30T21:56:58.000Z</time>
      </trkpt>
      <trkpt lat="45.5632" lon="2.68945">
        <ele>1075</ele>
        <time>2022-07-30T21:56:59.000Z</time>
      </trkpt>
      <trkpt lat="45.56321" lon="2.68951">
        <ele>1075</ele>
        <time>2022-07-30T21:57:00.000Z</time>
      </trkpt>
      <trkpt lat="45.56322" lon="2.68957">
        <ele>1075</ele>
        <time>2022-07-30T21:57:01.000Z</time>
      </trkpt>
      <trkpt lat="45.56322" lon="2.68964">
        <ele>1079</ele>
        <time>2022-07-30T21:57:02.000Z</time>
      </trkpt>
      <trkpt lat="45.56323" lon="2.6897">
        <ele>1079</ele>
        <time>2022-07-30T21:57:03.000Z</time>
      </trkpt>
      <trkpt lat="45.56324" lon="2.68977">
        <ele>1079</ele>
        <time>2022-07-30T21:57:04.000Z</time>
      </trkpt>
      <trkpt lat="45.56325" lon="2.68983">
        <ele>1079</ele>
        <time>2022-07-30T21:57:05.000Z</time>
      </trkpt>
      <trkpt lat="45.56326" lon="2.68989">
        <ele>1079</ele>
        <time>2022-07-30T21:57:06.000Z</time>
      </trkpt>
      <trkpt lat="45.56327" lon="2.68996">
        <ele>1079</ele>
        <time>2022-07-30T21:57:07.000Z</time>
      </trkpt>
      <trkpt lat="45.56328" lon="2.69002">
        <ele>1079</ele>
        <time>2022-07-30T21:57:08.000Z</time>
      </trkpt>
      <trkpt lat="45.56329" lon="2.69009">
        <ele>1079</ele>
        <time>2022-07-30T21:57:09.000Z</time>
      </trkpt>
      <trkpt lat="45.56329" lon="2.69015">
        <ele>1079</ele>
        <time>2022-07-30T21:57:10.000Z</time>
      </trkpt>
      <trkpt lat="45.5633" lon="2.69021">
        <ele>1079</ele>
        <time>2022-07-30T21:57:11.000Z</time>
      </trkpt>
      <trkpt lat="45.56331" lon="2.69028">
        <ele>1079</ele>
        <time>2022-07-30T21:57:12.000Z</time>
      </trkpt>
      <trkpt lat="45.56332" lon="2.69034">
        <ele>1081</ele>
        <time>2022-07-30T21:57:13.000Z</time>
      </trkpt>
      <trkpt lat="45.56333" lon="2.69041">
        <ele>1081</ele>
        <time>2022-07-30T21:57:14.000Z</time>
      </trkpt>
      <trkpt lat="45.56334" lon="2.69047">
        <ele>1081</ele>
        <time>2022-07-30T21:57:15.000Z</time>
      </trkpt>
      <trkpt lat="45.56335" lon="2.69053">
        <ele>1081</ele>
        <time>2022-07-30T21:57:16.000Z</time>
      </trkpt>
      <trkpt lat="45.56335" lon="2.6906">
        <ele>1081</ele>
        <time>2022-07-30T21:57:17.000Z</time>
      </trkpt>
      <trkpt lat="45.56336" lon="2.69066">
        <ele>1081</ele>
        <time>2022-07-30T21:57:18.000Z</time>
      </trkpt>
      <trkpt lat="45.56337" lon="2.69073">
        <ele>1081</ele>
        <time>2022-07-30T21:57:19.000Z</time>
      </trkpt>
      <trkpt lat="45.56338" lon="2.69079">
        <ele>1081</ele>
        <time>2022-07-30T21:57:20.000Z</time>
      </trkpt>
      <trkpt lat="45.56339" lon="2.69085">
        <ele>1081</ele>
        <time>2022-07-30T21:57:21.000Z</time>
      </trkpt>
      <trkpt lat="45.5634" lon="2.69092">
        <ele>1081</ele>
        <time>2022-07-30T21:57:22.000Z</time>
      </trkpt>
      <trkpt lat="45.56341" lon="2.69098">
        <ele>1081</ele>
        <time>2022-07-30T21:57:23.000Z</time>
      </trkpt>
      <trkpt lat="45.56342" lon="2.69105">
        <ele>1081</ele>
        <time>2022-07-30T21:57:24.000Z</time>
      </trkpt>
      <trkpt lat="45.56342" lon="2.69111">
        <ele>1082</ele>
        <time>2022-07-30T21:57:25.000Z</time>
      </trkpt>
      <trkpt lat="45.56343" lon="2.69117">
        <ele>1082</ele>
        <time>2022-07-30T21:57:26.000Z</time>
      </trkpt>
      <trkpt lat="45.56344" lon="2.69124">
        <ele>1082</ele>
        <time>2022-07-30T21:57:27.000Z</time>
      </trkpt>
      <trkpt lat="45.56345" lon="2.6913">
        <ele>1082</ele>
        <time>2022-07-30T21:57:28.000Z</time>
      </trkpt>
      <trkpt lat="45.56346" lon="2.69137">
        <ele>1082</ele>
        <time>2022-07-30T21:57:29.000Z</time>
      </trkpt>
      <trkpt lat="45.56347" lon="2.69143">
        <ele>1082</ele>
        <time>2022-07-30T21:57:30.000Z</time>
      </trkpt>
      <trkpt lat="45.56348" lon="2.69149">
        <ele>1084</ele>
        <time>2022-07-30T21:57:31.000Z</time>
      </trkpt>
      <trkpt lat="45.56349" lon="2.69156">
        <ele>1084</ele>
        <time>2022-07-30T21:57:32.000Z</time>
      </trkpt>
      <trkpt lat="45.56349" lon="2.69162">
        <ele>1084</ele>
        <time>2022-07-30T21:57:33.000Z</time>
      </trkpt>
      <trkpt lat="45.5635" lon="2.69169">
        <ele>1084</ele>
        <time>2022-07-30T21:57:34.000Z</time>
      </trkpt>
      <trkpt lat="45.56351" lon="2.69175">
        <ele>1084</ele>
        <time>2022-07-30T21:57:35.000Z</time>
      </trkpt>
      <trkpt lat="45.56352" lon="2.69181">
        <ele>1090</ele>
        <time>2022-07-30T21:57:36.000Z</time>
      </trkpt>
      <trkpt lat="45.56353" lon="2.69188">
        <ele>1090</ele>
        <time>2022-07-30T21:57:37.000Z</time>
      </trkpt>
      <trkpt lat="45.56354" lon="2.69195">
        <ele>1090</ele>
        <time>2022-07-30T21:57:38.000Z</time>
      </trkpt>
      <trkpt lat="45.56354" lon="2.69201">
        <ele>1090</ele>
        <time>2022-07-30T21:57:39.000Z</time>
      </trkpt>
      <trkpt lat="45.56354" lon="2.69208">
        <ele>1090</ele>
        <time>2022-07-30T21:57:40.000Z</time>
      </trkpt>
      <trkpt lat="45.56354" lon="2.69215">
        <ele>1090</ele>
        <time>2022-07-30T21:57:41.000Z</time>
      </trkpt>
      <trkpt lat="45.56355" lon="2.69221">
        <ele>1090</ele>
        <time>2022-07-30T21:57:42.000Z</time>
      </trkpt>
      <trkpt lat="45.56355" lon="2.69228">
        <ele>1090</ele>
        <time>2022-07-30T21:57:43.000Z</time>
      </trkpt>
      <trkpt lat="45.56355" lon="2.69235">
        <ele>1090</ele>
        <time>2022-07-30T21:57:44.000Z</time>
      </trkpt>
      <trkpt lat="45.56355" lon="2.69241">
        <ele>1090</ele>
        <time>2022-07-30T21:57:45.000Z</time>
      </trkpt>
      <trkpt lat="45.56355" lon="2.69248">
        <ele>1090</ele>
        <time>2022-07-30T21:57:46.000Z</time>
      </trkpt>
      <trkpt lat="45.56356" lon="2.69255">
        <ele>1089</ele>
        <time>2022-07-30T21:57:47.000Z</time>
      </trkpt>
      <trkpt lat="45.56355" lon="2.69261">
        <ele>1089</ele>
        <time>2022-07-30T21:57:48.000Z</time>
      </trkpt>
      <trkpt lat="45.56354" lon="2.69268">
        <ele>1089</ele>
        <time>2022-07-30T21:57:49.000Z</time>
      </trkpt>
      <trkpt lat="45.56353" lon="2.69274">
        <ele>1089</ele>
        <time>2022-07-30T21:57:50.000Z</time>
      </trkpt>
      <trkpt lat="45.56352" lon="2.69281">
        <ele>1089</ele>
        <time>2022-07-30T21:57:51.000Z</time>
      </trkpt>
      <trkpt lat="45.56351" lon="2.69287">
        <ele>1089</ele>
        <time>2022-07-30T21:57:52.000Z</time>
      </trkpt>
      <trkpt lat="45.5635" lon="2.69294">
        <ele>1089</ele>
        <time>2022-07-30T21:57:53.000Z</time>
      </trkpt>
      <trkpt lat="45.56348" lon="2.693">
        <ele>1089</ele>
        <time>2022-07-30T21:57:54.000Z</time>
      </trkpt>
      <trkpt lat="45.56347" lon="2.69307">
        <ele>1089</ele>
        <time>2022-07-30T21:57:55.000Z</time>
      </trkpt>
      <trkpt lat="45.56346" lon="2.69313">
        <ele>1089</ele>
        <time>2022-07-30T21:57:56.000Z</time>
      </trkpt>
      <trkpt lat="45.56345" lon="2.6932">
        <ele>1089</ele>
        <time>2022-07-30T21:57:57.000Z</time>
      </trkpt>
      <trkpt lat="45.56344" lon="2.69326">
        <ele>1095</ele>
        <time>2022-07-30T21:57:58.000Z</time>
      </trkpt>
      <trkpt lat="45.56343" lon="2.69333">
        <ele>1095</ele>
        <time>2022-07-30T21:57:59.000Z</time>
      </trkpt>
      <trkpt lat="45.56342" lon="2.69339">
        <ele>1095</ele>
        <time>2022-07-30T21:58:00.000Z</time>
      </trkpt>
      <trkpt lat="45.56342" lon="2.69346">
        <ele>1095</ele>
        <time>2022-07-30T21:58:01.000Z</time>
      </trkpt>
      <trkpt lat="45.56342" lon="2.69353">
        <ele>1095</ele>
        <time>2022-07-30T21:58:02.000Z</time>
      </trkpt>
      <trkpt lat="45.56342" lon="2.6936">
        <ele>1095</ele>
        <time>2022-07-30T21:58:03.000Z</time>
      </trkpt>
      <trkpt lat="45.56341" lon="2.69366">
        <ele>1095</ele>
        <time>2022-07-30T21:58:04.000Z</time>
      </trkpt>
      <trkpt lat="45.56341" lon="2.69373">
        <ele>1095</ele>
        <time>2022-07-30T21:58:05.000Z</time>
      </trkpt>
      <trkpt lat="45.56341" lon="2.6938">
        <ele>1095</ele>
        <time>2022-07-30T21:58:06.000Z</time>
      </trkpt>
      <trkpt lat="45.56341" lon="2.69387">
        <ele>1095</ele>
        <time>2022-07-30T21:58:07.000Z</time>
      </trkpt>
      <trkpt lat="45.5634" lon="2.69393">
        <ele>1095</ele>
        <time>2022-07-30T21:58:08.000Z</time>
      </trkpt>
      <trkpt lat="45.5634" lon="2.694">
        <ele>1104</ele>
        <time>2022-07-30T21:58:09.000Z</time>
      </trkpt>
      <trkpt lat="45.5634" lon="2.69407">
        <ele>1104</ele>
        <time>2022-07-30T21:58:10.000Z</time>
      </trkpt>
      <trkpt lat="45.56339" lon="2.69413">
        <ele>1104</ele>
        <time>2022-07-30T21:58:11.000Z</time>
      </trkpt>
      <trkpt lat="45.56338" lon="2.6942">
        <ele>1104</ele>
        <time>2022-07-30T21:58:12.000Z</time>
      </trkpt>
      <trkpt lat="45.56337" lon="2.69426">
        <ele>1104</ele>
        <time>2022-07-30T21:58:13.000Z</time>
      </trkpt>
      <trkpt lat="45.56336" lon="2.69432">
        <ele>1104</ele>
        <time>2022-07-30T21:58:14.000Z</time>
      </trkpt>
      <trkpt lat="45.56336" lon="2.69439">
        <ele>1104</ele>
        <time>2022-07-30T21:58:15.000Z</time>
      </trkpt>
      <trkpt lat="45.56335" lon="2.69445">
        <ele>1104</ele>
        <time>2022-07-30T21:58:16.000Z</time>
      </trkpt>
      <trkpt lat="45.56334" lon="2.69451">
        <ele>1104</ele>
        <time>2022-07-30T21:58:17.000Z</time>
      </trkpt>
      <trkpt lat="45.56333" lon="2.69458">
        <ele>1104</ele>
        <time>2022-07-30T21:58:18.000Z</time>
      </trkpt>
      <trkpt lat="45.56332" lon="2.69464">
        <ele>1104</ele>
        <time>2022-07-30T21:58:19.000Z</time>
      </trkpt>
      <trkpt lat="45.56332" lon="2.6947">
        <ele>1108</ele>
        <time>2022-07-30T21:58:20.000Z</time>
      </trkpt>
      <trkpt lat="45.56331" lon="2.69477">
        <ele>1108</ele>
        <time>2022-07-30T21:58:21.000Z</time>
      </trkpt>
      <trkpt lat="45.5633" lon="2.69483">
        <ele>1108</ele>
        <time>2022-07-30T21:58:22.000Z</time>
      </trkpt>
      <trkpt lat="45.56329" lon="2.69489">
        <ele>1108</ele>
        <time>2022-07-30T21:58:23.000Z</time>
      </trkpt>
      <trkpt lat="45.56328" lon="2.69496">
        <ele>1108</ele>
        <time>2022-07-30T21:58:24.000Z</time>
      </trkpt>
      <trkpt lat="45.56328" lon="2.69502">
        <ele>1108</ele>
        <time>2022-07-30T21:58:25.000Z</time>
      </trkpt>
      <trkpt lat="45.56327" lon="2.69508">
        <ele>1108</ele>
        <time>2022-07-30T21:58:26.000Z</time>
      </trkpt>
      <trkpt lat="45.56326" lon="2.69515">
        <ele>1108</ele>
        <time>2022-07-30T21:58:27.000Z</time>
      </trkpt>
      <trkpt lat="45.56325" lon="2.69521">
        <ele>1108</ele>
        <time>2022-07-30T21:58:28.000Z</time>
      </trkpt>
      <trkpt lat="45.56324" lon="2.69527">
        <ele>1108</ele>
        <time>2022-07-30T21:58:29.000Z</time>
      </trkpt>
      <trkpt lat="45.56323" lon="2.69534">
        <ele>1108</ele>
        <time>2022-07-30T21:58:30.000Z</time>
      </trkpt>
      <trkpt lat="45.56323" lon="2.6954">
        <ele>1108</ele>
        <time>2022-07-30T21:58:31.000Z</time>
      </trkpt>
      <trkpt lat="45.56322" lon="2.69546">
        <ele>1112</ele>
        <time>2022-07-30T21:58:32.000Z</time>
      </trkpt>
      <trkpt lat="45.56321" lon="2.69553">
        <ele>1112</ele>
        <time>2022-07-30T21:58:33.000Z</time>
      </trkpt>
      <trkpt lat="45.5632" lon="2.69559">
        <ele>1112</ele>
        <time>2022-07-30T21:58:34.000Z</time>
      </trkpt>
      <trkpt lat="45.56319" lon="2.69565">
        <ele>1112</ele>
        <time>2022-07-30T21:58:35.000Z</time>
      </trkpt>
      <trkpt lat="45.56319" lon="2.69572">
        <ele>1112</ele>
        <time>2022-07-30T21:58:36.000Z</time>
      </trkpt>
      <trkpt lat="45.56318" lon="2.69578">
        <ele>1112</ele>
        <time>2022-07-30T21:58:37.000Z</time>
      </trkpt>
      <trkpt lat="45.56317" lon="2.69585">
        <ele>1112</ele>
        <time>2022-07-30T21:58:38.000Z</time>
      </trkpt>
      <trkpt lat="45.56316" lon="2.69591">
        <ele>1112</ele>
        <time>2022-07-30T21:58:39.000Z</time>
      </trkpt>
      <trkpt lat="45.56315" lon="2.69597">
        <ele>1112</ele>
        <time>2022-07-30T21:58:40.000Z</time>
      </trkpt>
      <trkpt lat="45.56314" lon="2.69604">
        <ele>1112</ele>
        <time>2022-07-30T21:58:41.000Z</time>
      </trkpt>
      <trkpt lat="45.56314" lon="2.6961">
        <ele>1112</ele>
        <time>2022-07-30T21:58:42.000Z</time>
      </trkpt>
      <trkpt lat="45.56313" lon="2.69616">
        <ele>1112</ele>
        <time>2022-07-30T21:58:43.000Z</time>
      </trkpt>
      <trkpt lat="45.56312" lon="2.69623">
        <ele>1118</ele>
        <time>2022-07-30T21:58:44.000Z</time>
      </trkpt>
      <trkpt lat="45.56311" lon="2.69629">
        <ele>1118</ele>
        <time>2022-07-30T21:58:45.000Z</time>
      </trkpt>
      <trkpt lat="45.5631" lon="2.69635">
        <ele>1118</ele>
        <time>2022-07-30T21:58:46.000Z</time>
      </trkpt>
      <trkpt lat="45.5631" lon="2.69642">
        <ele>1118</ele>
        <time>2022-07-30T21:58:47.000Z</time>
      </trkpt>
      <trkpt lat="45.56309" lon="2.69648">
        <ele>1118</ele>
        <time>2022-07-30T21:58:48.000Z</time>
      </trkpt>
      <trkpt lat="45.56308" lon="2.69654">
        <ele>1118</ele>
        <time>2022-07-30T21:58:49.000Z</time>
      </trkpt>
      <trkpt lat="45.56307" lon="2.69661">
        <ele>1118</ele>
        <time>2022-07-30T21:58:50.000Z</time>
      </trkpt>
      <trkpt lat="45.56306" lon="2.69667">
        <ele>1118</ele>
        <time>2022-07-30T21:58:51.000Z</time>
      </trkpt>
      <trkpt lat="45.56306" lon="2.69673">
        <ele>1118</ele>
        <time>2022-07-30T21:58:52.000Z</time>
      </trkpt>
      <trkpt lat="45.56305" lon="2.6968">
        <ele>1118</ele>
        <time>2022-07-30T21:58:53.000Z</time>
      </trkpt>
      <trkpt lat="45.56304" lon="2.69686">
        <ele>1118</ele>
        <time>2022-07-30T21:58:54.000Z</time>
      </trkpt>
      <trkpt lat="45.56303" lon="2.69692">
        <ele>1118</ele>
        <time>2022-07-30T21:58:55.000Z</time>
      </trkpt>
      <trkpt lat="45.56302" lon="2.69699">
        <ele>1118</ele>
        <time>2022-07-30T21:58:56.000Z</time>
      </trkpt>
      <trkpt lat="45.56301" lon="2.69706">
        <ele>1123</ele>
        <time>2022-07-30T21:58:57.000Z</time>
      </trkpt>
      <trkpt lat="45.56301" lon="2.69712">
        <ele>1123</ele>
        <time>2022-07-30T21:58:58.000Z</time>
      </trkpt>
      <trkpt lat="45.563" lon="2.69719">
        <ele>1123</ele>
        <time>2022-07-30T21:58:59.000Z</time>
      </trkpt>
      <trkpt lat="45.56299" lon="2.69726">
        <ele>1123</ele>
        <time>2022-07-30T21:59:00.000Z</time>
      </trkpt>
      <trkpt lat="45.56298" lon="2.69733">
        <ele>1123</ele>
        <time>2022-07-30T21:59:01.000Z</time>
      </trkpt>
      <trkpt lat="45.56297" lon="2.69739">
        <ele>1123</ele>
        <time>2022-07-30T21:59:02.000Z</time>
      </trkpt>
      <trkpt lat="45.56296" lon="2.69746">
        <ele>1123</ele>
        <time>2022-07-30T21:59:03.000Z</time>
      </trkpt>
      <trkpt lat="45.56295" lon="2.69753">
        <ele>1123</ele>
        <time>2022-07-30T21:59:04.000Z</time>
      </trkpt>
      <trkpt lat="45.56296" lon="2.69759">
        <ele>1123</ele>
        <time>2022-07-30T21:59:05.000Z</time>
      </trkpt>
      <trkpt lat="45.56297" lon="2.69766">
        <ele>1123</ele>
        <time>2022-07-30T21:59:06.000Z</time>
      </trkpt>
      <trkpt lat="45.56298" lon="2.69772">
        <ele>1127</ele>
        <time>2022-07-30T21:59:07.000Z</time>
      </trkpt>
      <trkpt lat="45.56299" lon="2.69779">
        <ele>1127</ele>
        <time>2022-07-30T21:59:08.000Z</time>
      </trkpt>
      <trkpt lat="45.563" lon="2.69785">
        <ele>1127</ele>
        <time>2022-07-30T21:59:09.000Z</time>
      </trkpt>
      <trkpt lat="45.56301" lon="2.69792">
        <ele>1127</ele>
        <time>2022-07-30T21:59:10.000Z</time>
      </trkpt>
      <trkpt lat="45.56301" lon="2.69798">
        <ele>1127</ele>
        <time>2022-07-30T21:59:11.000Z</time>
      </trkpt>
      <trkpt lat="45.56302" lon="2.69804">
        <ele>1127</ele>
        <time>2022-07-30T21:59:12.000Z</time>
      </trkpt>
      <trkpt lat="45.56303" lon="2.69811">
        <ele>1127</ele>
        <time>2022-07-30T21:59:13.000Z</time>
      </trkpt>
      <trkpt lat="45.56304" lon="2.69817">
        <ele>1127</ele>
        <time>2022-07-30T21:59:14.000Z</time>
      </trkpt>
      <trkpt lat="45.56305" lon="2.69824">
        <ele>1127</ele>
        <time>2022-07-30T21:59:15.000Z</time>
      </trkpt>
      <trkpt lat="45.56306" lon="2.6983">
        <ele>1127</ele>
        <time>2022-07-30T21:59:16.000Z</time>
      </trkpt>
      <trkpt lat="45.56307" lon="2.69837">
        <ele>1127</ele>
        <time>2022-07-30T21:59:17.000Z</time>
      </trkpt>
      <trkpt lat="45.56308" lon="2.69843">
        <ele>1133</ele>
        <time>2022-07-30T21:59:18.000Z</time>
      </trkpt>
      <trkpt lat="45.56309" lon="2.69849">
        <ele>1133</ele>
        <time>2022-07-30T21:59:19.000Z</time>
      </trkpt>
      <trkpt lat="45.56309" lon="2.69856">
        <ele>1133</ele>
        <time>2022-07-30T21:59:20.000Z</time>
      </trkpt>
      <trkpt lat="45.5631" lon="2.69862">
        <ele>1133</ele>
        <time>2022-07-30T21:59:21.000Z</time>
      </trkpt>
      <trkpt lat="45.56311" lon="2.69869">
        <ele>1133</ele>
        <time>2022-07-30T21:59:22.000Z</time>
      </trkpt>
      <trkpt lat="45.56312" lon="2.69875">
        <ele>1133</ele>
        <time>2022-07-30T21:59:23.000Z</time>
      </trkpt>
      <trkpt lat="45.56313" lon="2.69881">
        <ele>1133</ele>
        <time>2022-07-30T21:59:24.000Z</time>
      </trkpt>
      <trkpt lat="45.56314" lon="2.69888">
        <ele>1133</ele>
        <time>2022-07-30T21:59:25.000Z</time>
      </trkpt>
      <trkpt lat="45.56315" lon="2.69894">
        <ele>1133</ele>
        <time>2022-07-30T21:59:26.000Z</time>
      </trkpt>
      <trkpt lat="45.56316" lon="2.69901">
        <ele>1133</ele>
        <time>2022-07-30T21:59:27.000Z</time>
      </trkpt>
      <trkpt lat="45.56317" lon="2.69907">
        <ele>1133</ele>
        <time>2022-07-30T21:59:28.000Z</time>
      </trkpt>
      <trkpt lat="45.56318" lon="2.69914">
        <ele>1138</ele>
        <time>2022-07-30T21:59:29.000Z</time>
      </trkpt>
      <trkpt lat="45.56318" lon="2.6992">
        <ele>1138</ele>
        <time>2022-07-30T21:59:30.000Z</time>
      </trkpt>
      <trkpt lat="45.56319" lon="2.69926">
        <ele>1138</ele>
        <time>2022-07-30T21:59:31.000Z</time>
      </trkpt>
      <trkpt lat="45.5632" lon="2.69933">
        <ele>1138</ele>
        <time>2022-07-30T21:59:32.000Z</time>
      </trkpt>
      <trkpt lat="45.56321" lon="2.69939">
        <ele>1138</ele>
        <time>2022-07-30T21:59:33.000Z</time>
      </trkpt>
      <trkpt lat="45.56322" lon="2.69946">
        <ele>1138</ele>
        <time>2022-07-30T21:59:34.000Z</time>
      </trkpt>
      <trkpt lat="45.56323" lon="2.69952">
        <ele>1123</ele>
        <time>2022-07-30T21:59:35.000Z</time>
      </trkpt>
      <trkpt lat="45.56324" lon="2.69959">
        <ele>1123</ele>
        <time>2022-07-30T21:59:36.000Z</time>
      </trkpt>
      <trkpt lat="45.56325" lon="2.69965">
        <ele>1123</ele>
        <time>2022-07-30T21:59:37.000Z</time>
      </trkpt>
      <trkpt lat="45.56326" lon="2.69971">
        <ele>1123</ele>
        <time>2022-07-30T21:59:38.000Z</time>
      </trkpt>
      <trkpt lat="45.56326" lon="2.69978">
        <ele>1123</ele>
        <time>2022-07-30T21:59:39.000Z</time>
      </trkpt>
      <trkpt lat="45.56327" lon="2.69984">
        <ele>1123</ele>
        <time>2022-07-30T21:59:40.000Z</time>
      </trkpt>
      <trkpt lat="45.56328" lon="2.69991">
        <ele>1123</ele>
        <time>2022-07-30T21:59:41.000Z</time>
      </trkpt>
      <trkpt lat="45.56329" lon="2.69997">
        <ele>1122</ele>
        <time>2022-07-30T21:59:42.000Z</time>
      </trkpt>
      <trkpt lat="45.5633" lon="2.70004">
        <ele>1122</ele>
        <time>2022-07-30T21:59:43.000Z</time>
      </trkpt>
      <trkpt lat="45.56331" lon="2.7001">
        <ele>1122</ele>
        <time>2022-07-30T21:59:44.000Z</time>
      </trkpt>
      <trkpt lat="45.56332" lon="2.70016">
        <ele>1122</ele>
        <time>2022-07-30T21:59:45.000Z</time>
      </trkpt>
      <trkpt lat="45.56333" lon="2.70023">
        <ele>1122</ele>
        <time>2022-07-30T21:59:46.000Z</time>
      </trkpt>
      <trkpt lat="45.56334" lon="2.7003">
        <ele>1136</ele>
        <time>2022-07-30T21:59:47.000Z</time>
      </trkpt>
      <trkpt lat="45.56335" lon="2.70037">
        <ele>1136</ele>
        <time>2022-07-30T21:59:48.000Z</time>
      </trkpt>
      <trkpt lat="45.56336" lon="2.70044">
        <ele>1136</ele>
        <time>2022-07-30T21:59:49.000Z</time>
      </trkpt>
      <trkpt lat="45.56337" lon="2.70051">
        <ele>1136</ele>
        <time>2022-07-30T21:59:50.000Z</time>
      </trkpt>
      <trkpt lat="45.56337" lon="2.70058">
        <ele>1136</ele>
        <time>2022-07-30T21:59:51.000Z</time>
      </trkpt>
      <trkpt lat="45.56339" lon="2.70064">
        <ele>1136</ele>
        <time>2022-07-30T21:59:52.000Z</time>
      </trkpt>
      <trkpt lat="45.56341" lon="2.7007">
        <ele>1133</ele>
        <time>2022-07-30T21:59:53.000Z</time>
      </trkpt>
      <trkpt lat="45.56342" lon="2.70076">
        <ele>1133</ele>
        <time>2022-07-30T21:59:54.000Z</time>
      </trkpt>
      <trkpt lat="45.56344" lon="2.70082">
        <ele>1133</ele>
        <time>2022-07-30T21:59:55.000Z</time>
      </trkpt>
      <trkpt lat="45.56346" lon="2.70088">
        <ele>1133</ele>
        <time>2022-07-30T21:59:56.000Z</time>
      </trkpt>
      <trkpt lat="45.56347" lon="2.70094">
        <ele>1133</ele>
        <time>2022-07-30T21:59:57.000Z</time>
      </trkpt>
      <trkpt lat="45.56349" lon="2.701">
        <ele>1133</ele>
        <time>2022-07-30T21:59:58.000Z</time>
      </trkpt>
      <trkpt lat="45.5635" lon="2.70106">
        <ele>1133</ele>
        <time>2022-07-30T21:59:59.000Z</time>
      </trkpt>
      <trkpt lat="45.56352" lon="2.70112">
        <ele>1133</ele>
        <time>2022-07-30T22:00:00.000Z</time>
      </trkpt>
      <trkpt lat="45.56354" lon="2.70118">
        <ele>1133</ele>
        <time>2022-07-30T22:00:01.000Z</time>
      </trkpt>
      <trkpt lat="45.56355" lon="2.70124">
        <ele>1133</ele>
        <time>2022-07-30T22:00:02.000Z</time>
      </trkpt>
      <trkpt lat="45.56357" lon="2.7013">
        <ele>1132</ele>
        <time>2022-07-30T22:00:03.000Z</time>
      </trkpt>
      <trkpt lat="45.56359" lon="2.70136">
        <ele>1132</ele>
        <time>2022-07-30T22:00:04.000Z</time>
      </trkpt>
      <trkpt lat="45.5636" lon="2.70142">
        <ele>1132</ele>
        <time>2022-07-30T22:00:05.000Z</time>
      </trkpt>
      <trkpt lat="45.56362" lon="2.70148">
        <ele>1132</ele>
        <time>2022-07-30T22:00:06.000Z</time>
      </trkpt>
      <trkpt lat="45.56364" lon="2.70154">
        <ele>1132</ele>
        <time>2022-07-30T22:00:07.000Z</time>
      </trkpt>
      <trkpt lat="45.56365" lon="2.7016">
        <ele>1132</ele>
        <time>2022-07-30T22:00:08.000Z</time>
      </trkpt>
      <trkpt lat="45.56367" lon="2.70166">
        <ele>1132</ele>
        <time>2022-07-30T22:00:09.000Z</time>
      </trkpt>
      <trkpt lat="45.56368" lon="2.70172">
        <ele>1132</ele>
        <time>2022-07-30T22:00:10.000Z</time>
      </trkpt>
      <trkpt lat="45.5637" lon="2.70178">
        <ele>1132</ele>
        <time>2022-07-30T22:00:11.000Z</time>
      </trkpt>
      <trkpt lat="45.56372" lon="2.70184">
        <ele>1132</ele>
        <time>2022-07-30T22:00:12.000Z</time>
      </trkpt>
      <trkpt lat="45.56373" lon="2.7019">
        <ele>1132</ele>
        <time>2022-07-30T22:00:13.000Z</time>
      </trkpt>
      <trkpt lat="45.56375" lon="2.70196">
        <ele>1134</ele>
        <time>2022-07-30T22:00:14.000Z</time>
      </trkpt>
      <trkpt lat="45.56377" lon="2.70202">
        <ele>1134</ele>
        <time>2022-07-30T22:00:15.000Z</time>
      </trkpt>
      <trkpt lat="45.56378" lon="2.70208">
        <ele>1134</ele>
        <time>2022-07-30T22:00:16.000Z</time>
      </trkpt>
      <trkpt lat="45.5638" lon="2.70214">
        <ele>1134</ele>
        <time>2022-07-30T22:00:17.000Z</time>
      </trkpt>
      <trkpt lat="45.56381" lon="2.7022">
        <ele>1134</ele>
        <time>2022-07-30T22:00:18.000Z</time>
      </trkpt>
      <trkpt lat="45.56383" lon="2.70227">
        <ele>1134</ele>
        <time>2022-07-30T22:00:19.000Z</time>
      </trkpt>
      <trkpt lat="45.56385" lon="2.70233">
        <ele>1134</ele>
        <time>2022-07-30T22:00:20.000Z</time>
      </trkpt>
      <trkpt lat="45.56386" lon="2.70239">
        <ele>1134</ele>
        <time>2022-07-30T22:00:21.000Z</time>
      </trkpt>
      <trkpt lat="45.56388" lon="2.70245">
        <ele>1134</ele>
        <time>2022-07-30T22:00:22.000Z</time>
      </trkpt>
      <trkpt lat="45.5639" lon="2.70251">
        <ele>1134</ele>
        <time>2022-07-30T22:00:23.000Z</time>
      </trkpt>
      <trkpt lat="45.56391" lon="2.70257">
        <ele>1134</ele>
        <time>2022-07-30T22:00:24.000Z</time>
      </trkpt>
      <trkpt lat="45.56393" lon="2.70263">
        <ele>1134</ele>
        <time>2022-07-30T22:00:25.000Z</time>
      </trkpt>
      <trkpt lat="45.56394" lon="2.70269">
        <ele>1134</ele>
        <time>2022-07-30T22:00:26.000Z</time>
      </trkpt>
      <trkpt lat="45.56396" lon="2.70275">
        <ele>1144</ele>
        <time>2022-07-30T22:00:27.000Z</time>
      </trkpt>
      <trkpt lat="45.56398" lon="2.70281">
        <ele>1144</ele>
        <time>2022-07-30T22:00:28.000Z</time>
      </trkpt>
      <trkpt lat="45.56399" lon="2.70287">
        <ele>1144</ele>
        <time>2022-07-30T22:00:29.000Z</time>
      </trkpt>
      <trkpt lat="45.56401" lon="2.70293">
        <ele>1144</ele>
        <time>2022-07-30T22:00:30.000Z</time>
      </trkpt>
      <trkpt lat="45.56403" lon="2.70299">
        <ele>1144</ele>
        <time>2022-07-30T22:00:31.000Z</time>
      </trkpt>
      <trkpt lat="45.56404" lon="2.70305">
        <ele>1144</ele>
        <time>2022-07-30T22:00:32.000Z</time>
      </trkpt>
      <trkpt lat="45.56406" lon="2.70311">
        <ele>1144</ele>
        <time>2022-07-30T22:00:33.000Z</time>
      </trkpt>
      <trkpt lat="45.56407" lon="2.70317">
        <ele>1144</ele>
        <time>2022-07-30T22:00:34.000Z</time>
      </trkpt>
      <trkpt lat="45.56409" lon="2.70323">
        <ele>1144</ele>
        <time>2022-07-30T22:00:35.000Z</time>
      </trkpt>
      <trkpt lat="45.56411" lon="2.70329">
        <ele>1144</ele>
        <time>2022-07-30T22:00:36.000Z</time>
      </trkpt>
      <trkpt lat="45.56412" lon="2.70335">
        <ele>1144</ele>
        <time>2022-07-30T22:00:37.000Z</time>
      </trkpt>
      <trkpt lat="45.56414" lon="2.70341">
        <ele>1144</ele>
        <time>2022-07-30T22:00:38.000Z</time>
      </trkpt>
      <trkpt lat="45.56416" lon="2.70347">
        <ele>1146</ele>
        <time>2022-07-30T22:00:39.000Z</time>
      </trkpt>
      <trkpt lat="45.56417" lon="2.70353">
        <ele>1146</ele>
        <time>2022-07-30T22:00:40.000Z</time>
      </trkpt>
      <trkpt lat="45.56419" lon="2.70359">
        <ele>1146</ele>
        <time>2022-07-30T22:00:41.000Z</time>
      </trkpt>
      <trkpt lat="45.5642" lon="2.70365">
        <ele>1146</ele>
        <time>2022-07-30T22:00:42.000Z</time>
      </trkpt>
      <trkpt lat="45.56422" lon="2.70371">
        <ele>1146</ele>
        <time>2022-07-30T22:00:43.000Z</time>
      </trkpt>
      <trkpt lat="45.56424" lon="2.70377">
        <ele>1146</ele>
        <time>2022-07-30T22:00:44.000Z</time>
      </trkpt>
      <trkpt lat="45.56425" lon="2.70383">
        <ele>1146</ele>
        <time>2022-07-30T22:00:45.000Z</time>
      </trkpt>
      <trkpt lat="45.56427" lon="2.70389">
        <ele>1146</ele>
        <time>2022-07-30T22:00:46.000Z</time>
      </trkpt>
      <trkpt lat="45.56429" lon="2.70395">
        <ele>1156</ele>
        <time>2022-07-30T22:00:47.000Z</time>
      </trkpt>
      <trkpt lat="45.5643" lon="2.70401">
        <ele>1156</ele>
        <time>2022-07-30T22:00:48.000Z</time>
      </trkpt>
      <trkpt lat="45.56432" lon="2.70407">
        <ele>1156</ele>
        <time>2022-07-30T22:00:49.000Z</time>
      </trkpt>
      <trkpt lat="45.56433" lon="2.70413">
        <ele>1156</ele>
        <time>2022-07-30T22:00:50.000Z</time>
      </trkpt>
      <trkpt lat="45.56435" lon="2.70419">
        <ele>1156</ele>
        <time>2022-07-30T22:00:51.000Z</time>
      </trkpt>
      <trkpt lat="45.56437" lon="2.70425">
        <ele>1156</ele>
        <time>2022-07-30T22:00:52.000Z</time>
      </trkpt>
      <trkpt lat="45.56438" lon="2.70431">
        <ele>1156</ele>
        <time>2022-07-30T22:00:53.000Z</time>
      </trkpt>
      <trkpt lat="45.5644" lon="2.70437">
        <ele>1156</ele>
        <time>2022-07-30T22:00:54.000Z</time>
      </trkpt>
      <trkpt lat="45.56442" lon="2.70443">
        <ele>1156</ele>
        <time>2022-07-30T22:00:55.000Z</time>
      </trkpt>
      <trkpt lat="45.56443" lon="2.70449">
        <ele>1156</ele>
        <time>2022-07-30T22:00:56.000Z</time>
      </trkpt>
      <trkpt lat="45.56445" lon="2.70455">
        <ele>1156</ele>
        <time>2022-07-30T22:00:57.000Z</time>
      </trkpt>
      <trkpt lat="45.56446" lon="2.70461">
        <ele>1156</ele>
        <time>2022-07-30T22:00:58.000Z</time>
      </trkpt>
      <trkpt lat="45.56448" lon="2.70467">
        <ele>1156</ele>
        <time>2022-07-30T22:00:59.000Z</time>
      </trkpt>
      <trkpt lat="45.5645" lon="2.70473">
        <ele>1156</ele>
        <time>2022-07-30T22:01:00.000Z</time>
      </trkpt>
      <trkpt lat="45.56451" lon="2.70479">
        <ele>1156</ele>
        <time>2022-07-30T22:01:01.000Z</time>
      </trkpt>
      <trkpt lat="45.56453" lon="2.70485">
        <ele>1156</ele>
        <time>2022-07-30T22:01:02.000Z</time>
      </trkpt>
      <trkpt lat="45.56455" lon="2.70491">
        <ele>1154</ele>
        <time>2022-07-30T22:01:03.000Z</time>
      </trkpt>
      <trkpt lat="45.56456" lon="2.70497">
        <ele>1154</ele>
        <time>2022-07-30T22:01:04.000Z</time>
      </trkpt>
      <trkpt lat="45.56458" lon="2.70503">
        <ele>1154</ele>
        <time>2022-07-30T22:01:05.000Z</time>
      </trkpt>
      <trkpt lat="45.56459" lon="2.70509">
        <ele>1154</ele>
        <time>2022-07-30T22:01:06.000Z</time>
      </trkpt>
      <trkpt lat="45.56461" lon="2.70515">
        <ele>1154</ele>
        <time>2022-07-30T22:01:07.000Z</time>
      </trkpt>
      <trkpt lat="45.56463" lon="2.70521">
        <ele>1154</ele>
        <time>2022-07-30T22:01:08.000Z</time>
      </trkpt>
      <trkpt lat="45.56464" lon="2.70527">
        <ele>1154</ele>
        <time>2022-07-30T22:01:09.000Z</time>
      </trkpt>
      <trkpt lat="45.56466" lon="2.70533">
        <ele>1154</ele>
        <time>2022-07-30T22:01:10.000Z</time>
      </trkpt>
      <trkpt lat="45.56468" lon="2.70539">
        <ele>1154</ele>
        <time>2022-07-30T22:01:11.000Z</time>
      </trkpt>
      <trkpt lat="45.56469" lon="2.70545">
        <ele>1154</ele>
        <time>2022-07-30T22:01:12.000Z</time>
      </trkpt>
      <trkpt lat="45.56471" lon="2.70551">
        <ele>1154</ele>
        <time>2022-07-30T22:01:13.000Z</time>
      </trkpt>
      <trkpt lat="45.56472" lon="2.70557">
        <ele>1154</ele>
        <time>2022-07-30T22:01:14.000Z</time>
      </trkpt>
      <trkpt lat="45.56474" lon="2.70563">
        <ele>1155</ele>
        <time>2022-07-30T22:01:15.000Z</time>
      </trkpt>
      <trkpt lat="45.56476" lon="2.70569">
        <ele>1155</ele>
        <time>2022-07-30T22:01:16.000Z</time>
      </trkpt>
      <trkpt lat="45.56477" lon="2.70575">
        <ele>1155</ele>
        <time>2022-07-30T22:01:17.000Z</time>
      </trkpt>
      <trkpt lat="45.56479" lon="2.70581">
        <ele>1155</ele>
        <time>2022-07-30T22:01:18.000Z</time>
      </trkpt>
      <trkpt lat="45.56481" lon="2.70587">
        <ele>1155</ele>
        <time>2022-07-30T22:01:19.000Z</time>
      </trkpt>
      <trkpt lat="45.56482" lon="2.70593">
        <ele>1155</ele>
        <time>2022-07-30T22:01:20.000Z</time>
      </trkpt>
      <trkpt lat="45.56484" lon="2.70599">
        <ele>1155</ele>
        <time>2022-07-30T22:01:21.000Z</time>
      </trkpt>
      <trkpt lat="45.56485" lon="2.70605">
        <ele>1155</ele>
        <time>2022-07-30T22:01:22.000Z</time>
      </trkpt>
      <trkpt lat="45.56487" lon="2.70611">
        <ele>1155</ele>
        <time>2022-07-30T22:01:23.000Z</time>
      </trkpt>
      <trkpt lat="45.56489" lon="2.70617">
        <ele>1155</ele>
        <time>2022-07-30T22:01:24.000Z</time>
      </trkpt>
      <trkpt lat="45.5649" lon="2.70623">
        <ele>1155</ele>
        <time>2022-07-30T22:01:25.000Z</time>
      </trkpt>
      <trkpt lat="45.56492" lon="2.70629">
        <ele>1155</ele>
        <time>2022-07-30T22:01:26.000Z</time>
      </trkpt>
      <trkpt lat="45.56494" lon="2.70635">
        <ele>1153</ele>
        <time>2022-07-30T22:01:27.000Z</time>
      </trkpt>
      <trkpt lat="45.56495" lon="2.70641">
        <ele>1153</ele>
        <time>2022-07-30T22:01:28.000Z</time>
      </trkpt>
      <trkpt lat="45.56495" lon="2.70648">
        <ele>1153</ele>
        <time>2022-07-30T22:01:29.000Z</time>
      </trkpt>
      <trkpt lat="45.56494" lon="2.70655">
        <ele>1153</ele>
        <time>2022-07-30T22:01:30.000Z</time>
      </trkpt>
      <trkpt lat="45.56494" lon="2.70661">
        <ele>1153</ele>
        <time>2022-07-30T22:01:31.000Z</time>
      </trkpt>
      <trkpt lat="45.56493" lon="2.70668">
        <ele>1165</ele>
        <time>2022-07-30T22:01:32.000Z</time>
      </trkpt>
      <trkpt lat="45.56493" lon="2.70675">
        <ele>1165</ele>
        <time>2022-07-30T22:01:33.000Z</time>
      </trkpt>
      <trkpt lat="45.56493" lon="2.70681">
        <ele>1165</ele>
        <time>2022-07-30T22:01:34.000Z</time>
      </trkpt>
      <trkpt lat="45.56492" lon="2.70688">
        <ele>1165</ele>
        <time>2022-07-30T22:01:35.000Z</time>
      </trkpt>
      <trkpt lat="45.56492" lon="2.70695">
        <ele>1165</ele>
        <time>2022-07-30T22:01:36.000Z</time>
      </trkpt>
      <trkpt lat="45.56491" lon="2.70701">
        <ele>1165</ele>
        <time>2022-07-30T22:01:37.000Z</time>
      </trkpt>
      <trkpt lat="45.56491" lon="2.70708">
        <ele>1161</ele>
        <time>2022-07-30T22:01:38.000Z</time>
      </trkpt>
      <trkpt lat="45.5649" lon="2.70715">
        <ele>1161</ele>
        <time>2022-07-30T22:01:39.000Z</time>
      </trkpt>
      <trkpt lat="45.5649" lon="2.70721">
        <ele>1161</ele>
        <time>2022-07-30T22:01:40.000Z</time>
      </trkpt>
      <trkpt lat="45.5649" lon="2.70728">
        <ele>1161</ele>
        <time>2022-07-30T22:01:41.000Z</time>
      </trkpt>
      <trkpt lat="45.56489" lon="2.70735">
        <ele>1161</ele>
        <time>2022-07-30T22:01:42.000Z</time>
      </trkpt>
      <trkpt lat="45.56489" lon="2.70741">
        <ele>1161</ele>
        <time>2022-07-30T22:01:43.000Z</time>
      </trkpt>
      <trkpt lat="45.56488" lon="2.70752">
        <ele>1161</ele>
        <time>2022-07-30T22:01:44.000Z</time>
      </trkpt>
      <trkpt lat="45.56487" lon="2.70763">
        <ele>1161</ele>
        <time>2022-07-30T22:01:45.000Z</time>
      </trkpt>
      <trkpt lat="45.56487" lon="2.70769">
        <ele>1161</ele>
        <time>2022-07-30T22:01:46.000Z</time>
      </trkpt>
      <trkpt lat="45.56486" lon="2.70776">
        <ele>1161</ele>
        <time>2022-07-30T22:01:47.000Z</time>
      </trkpt>
      <trkpt lat="45.56486" lon="2.70783">
        <ele>1161</ele>
        <time>2022-07-30T22:01:48.000Z</time>
      </trkpt>
      <trkpt lat="45.56485" lon="2.7079">
        <ele>1161</ele>
        <time>2022-07-30T22:01:49.000Z</time>
      </trkpt>
      <trkpt lat="45.56484" lon="2.70796">
        <ele>1156</ele>
        <time>2022-07-30T22:01:50.000Z</time>
      </trkpt>
      <trkpt lat="45.56484" lon="2.70803">
        <ele>1156</ele>
        <time>2022-07-30T22:01:51.000Z</time>
      </trkpt>
      <trkpt lat="45.56483" lon="2.7081">
        <ele>1156</ele>
        <time>2022-07-30T22:01:52.000Z</time>
      </trkpt>
      <trkpt lat="45.56483" lon="2.70816">
        <ele>1156</ele>
        <time>2022-07-30T22:01:53.000Z</time>
      </trkpt>
      <trkpt lat="45.56482" lon="2.70826">
        <ele>1156</ele>
        <time>2022-07-30T22:01:54.000Z</time>
      </trkpt>
      <trkpt lat="45.56482" lon="2.70835">
        <ele>1156</ele>
        <time>2022-07-30T22:01:55.000Z</time>
      </trkpt>
      <trkpt lat="45.56481" lon="2.70842">
        <ele>1156</ele>
        <time>2022-07-30T22:01:56.000Z</time>
      </trkpt>
      <trkpt lat="45.56481" lon="2.70848">
        <ele>1156</ele>
        <time>2022-07-30T22:01:57.000Z</time>
      </trkpt>
      <trkpt lat="45.5648" lon="2.70855">
        <ele>1156</ele>
        <time>2022-07-30T22:01:58.000Z</time>
      </trkpt>
      <trkpt lat="45.5648" lon="2.70861">
        <ele>1156</ele>
        <time>2022-07-30T22:01:59.000Z</time>
      </trkpt>
      <trkpt lat="45.56479" lon="2.70868">
        <ele>1156</ele>
        <time>2022-07-30T22:02:00.000Z</time>
      </trkpt>
      <trkpt lat="45.56479" lon="2.70874">
        <ele>1156</ele>
        <time>2022-07-30T22:02:01.000Z</time>
      </trkpt>
      <trkpt lat="45.56478" lon="2.7088">
        <ele>1154</ele>
        <time>2022-07-30T22:02:02.000Z</time>
      </trkpt>
      <trkpt lat="45.56478" lon="2.70887">
        <ele>1154</ele>
        <time>2022-07-30T22:02:03.000Z</time>
      </trkpt>
      <trkpt lat="45.56478" lon="2.70893">
        <ele>1154</ele>
        <time>2022-07-30T22:02:04.000Z</time>
      </trkpt>
      <trkpt lat="45.56477" lon="2.709">
        <ele>1154</ele>
        <time>2022-07-30T22:02:05.000Z</time>
      </trkpt>
      <trkpt lat="45.56477" lon="2.70906">
        <ele>1154</ele>
        <time>2022-07-30T22:02:06.000Z</time>
      </trkpt>
      <trkpt lat="45.56476" lon="2.70913">
        <ele>1154</ele>
        <time>2022-07-30T22:02:07.000Z</time>
      </trkpt>
      <trkpt lat="45.56476" lon="2.70919">
        <ele>1154</ele>
        <time>2022-07-30T22:02:08.000Z</time>
      </trkpt>
      <trkpt lat="45.56475" lon="2.70925">
        <ele>1154</ele>
        <time>2022-07-30T22:02:09.000Z</time>
      </trkpt>
      <trkpt lat="45.56475" lon="2.70932">
        <ele>1154</ele>
        <time>2022-07-30T22:02:10.000Z</time>
      </trkpt>
      <trkpt lat="45.56474" lon="2.70938">
        <ele>1154</ele>
        <time>2022-07-30T22:02:11.000Z</time>
      </trkpt>
      <trkpt lat="45.56474" lon="2.70945">
        <ele>1154</ele>
        <time>2022-07-30T22:02:12.000Z</time>
      </trkpt>
      <trkpt lat="45.56473" lon="2.70951">
        <ele>1154</ele>
        <time>2022-07-30T22:02:13.000Z</time>
      </trkpt>
      <trkpt lat="45.56473" lon="2.70958">
        <ele>1154</ele>
        <time>2022-07-30T22:02:14.000Z</time>
      </trkpt>
      <trkpt lat="45.56472" lon="2.70964">
        <ele>1152</ele>
        <time>2022-07-30T22:02:15.000Z</time>
      </trkpt>
      <trkpt lat="45.56472" lon="2.7097">
        <ele>1152</ele>
        <time>2022-07-30T22:02:16.000Z</time>
      </trkpt>
      <trkpt lat="45.56472" lon="2.70977">
        <ele>1152</ele>
        <time>2022-07-30T22:02:17.000Z</time>
      </trkpt>
      <trkpt lat="45.56471" lon="2.70983">
        <ele>1152</ele>
        <time>2022-07-30T22:02:18.000Z</time>
      </trkpt>
      <trkpt lat="45.56471" lon="2.7099">
        <ele>1152</ele>
        <time>2022-07-30T22:02:19.000Z</time>
      </trkpt>
      <trkpt lat="45.5647" lon="2.70996">
        <ele>1152</ele>
        <time>2022-07-30T22:02:20.000Z</time>
      </trkpt>
      <trkpt lat="45.5647" lon="2.71003">
        <ele>1152</ele>
        <time>2022-07-30T22:02:21.000Z</time>
      </trkpt>
      <trkpt lat="45.56469" lon="2.71009">
        <ele>1152</ele>
        <time>2022-07-30T22:02:22.000Z</time>
      </trkpt>
      <trkpt lat="45.56469" lon="2.71015">
        <ele>1152</ele>
        <time>2022-07-30T22:02:23.000Z</time>
      </trkpt>
      <trkpt lat="45.56468" lon="2.71022">
        <ele>1152</ele>
        <time>2022-07-30T22:02:24.000Z</time>
      </trkpt>
      <trkpt lat="45.56468" lon="2.71028">
        <ele>1152</ele>
        <time>2022-07-30T22:02:25.000Z</time>
      </trkpt>
      <trkpt lat="45.56467" lon="2.71035">
        <ele>1152</ele>
        <time>2022-07-30T22:02:26.000Z</time>
      </trkpt>
      <trkpt lat="45.56467" lon="2.71041">
        <ele>1152</ele>
        <time>2022-07-30T22:02:27.000Z</time>
      </trkpt>
      <trkpt lat="45.56467" lon="2.71048">
        <ele>1152</ele>
        <time>2022-07-30T22:02:28.000Z</time>
      </trkpt>
      <trkpt lat="45.56466" lon="2.71054">
        <ele>1152</ele>
        <time>2022-07-30T22:02:29.000Z</time>
      </trkpt>
      <trkpt lat="45.56466" lon="2.7106">
        <ele>1152</ele>
        <time>2022-07-30T22:02:30.000Z</time>
      </trkpt>
      <trkpt lat="45.56465" lon="2.71067">
        <ele>1152</ele>
        <time>2022-07-30T22:02:31.000Z</time>
      </trkpt>
      <trkpt lat="45.56465" lon="2.71073">
        <ele>1152</ele>
        <time>2022-07-30T22:02:32.000Z</time>
      </trkpt>
      <trkpt lat="45.56464" lon="2.7108">
        <ele>1152</ele>
        <time>2022-07-30T22:02:33.000Z</time>
      </trkpt>
      <trkpt lat="45.56464" lon="2.71086">
        <ele>1152</ele>
        <time>2022-07-30T22:02:34.000Z</time>
      </trkpt>
      <trkpt lat="45.56463" lon="2.71093">
        <ele>1152</ele>
        <time>2022-07-30T22:02:35.000Z</time>
      </trkpt>
      <trkpt lat="45.56463" lon="2.71099">
        <ele>1152</ele>
        <time>2022-07-30T22:02:36.000Z</time>
      </trkpt>
      <trkpt lat="45.56462" lon="2.71105">
        <ele>1153</ele>
        <time>2022-07-30T22:02:37.000Z</time>
      </trkpt>
      <trkpt lat="45.56462" lon="2.71112">
        <ele>1153</ele>
        <time>2022-07-30T22:02:38.000Z</time>
      </trkpt>
      <trkpt lat="45.56462" lon="2.71118">
        <ele>1153</ele>
        <time>2022-07-30T22:02:39.000Z</time>
      </trkpt>
      <trkpt lat="45.56461" lon="2.71125">
        <ele>1158</ele>
        <time>2022-07-30T22:02:40.000Z</time>
      </trkpt>
      <trkpt lat="45.56461" lon="2.71131">
        <ele>1158</ele>
        <time>2022-07-30T22:02:41.000Z</time>
      </trkpt>
      <trkpt lat="45.56462" lon="2.71138">
        <ele>1158</ele>
        <time>2022-07-30T22:02:42.000Z</time>
      </trkpt>
      <trkpt lat="45.56462" lon="2.71144">
        <ele>1158</ele>
        <time>2022-07-30T22:02:43.000Z</time>
      </trkpt>
      <trkpt lat="45.56462" lon="2.7115">
        <ele>1158</ele>
        <time>2022-07-30T22:02:44.000Z</time>
      </trkpt>
      <trkpt lat="45.56463" lon="2.71157">
        <ele>1158</ele>
        <time>2022-07-30T22:02:45.000Z</time>
      </trkpt>
      <trkpt lat="45.56463" lon="2.71163">
        <ele>1158</ele>
        <time>2022-07-30T22:02:46.000Z</time>
      </trkpt>
      <trkpt lat="45.56463" lon="2.7117">
        <ele>1159</ele>
        <time>2022-07-30T22:02:47.000Z</time>
      </trkpt>
      <trkpt lat="45.56464" lon="2.71176">
        <ele>1159</ele>
        <time>2022-07-30T22:02:48.000Z</time>
      </trkpt>
      <trkpt lat="45.56464" lon="2.71183">
        <ele>1159</ele>
        <time>2022-07-30T22:02:49.000Z</time>
      </trkpt>
      <trkpt lat="45.56464" lon="2.71189">
        <ele>1159</ele>
        <time>2022-07-30T22:02:50.000Z</time>
      </trkpt>
      <trkpt lat="45.56465" lon="2.71195">
        <ele>1159</ele>
        <time>2022-07-30T22:02:51.000Z</time>
      </trkpt>
      <trkpt lat="45.56465" lon="2.71202">
        <ele>1159</ele>
        <time>2022-07-30T22:02:52.000Z</time>
      </trkpt>
      <trkpt lat="45.56465" lon="2.71208">
        <ele>1159</ele>
        <time>2022-07-30T22:02:53.000Z</time>
      </trkpt>
      <trkpt lat="45.56466" lon="2.71215">
        <ele>1159</ele>
        <time>2022-07-30T22:02:54.000Z</time>
      </trkpt>
      <trkpt lat="45.56466" lon="2.71221">
        <ele>1159</ele>
        <time>2022-07-30T22:02:55.000Z</time>
      </trkpt>
      <trkpt lat="45.56465" lon="2.71228">
        <ele>1159</ele>
        <time>2022-07-30T22:02:56.000Z</time>
      </trkpt>
      <trkpt lat="45.56465" lon="2.71234">
        <ele>1159</ele>
        <time>2022-07-30T22:02:57.000Z</time>
      </trkpt>
      <trkpt lat="45.56464" lon="2.7124">
        <ele>1159</ele>
        <time>2022-07-30T22:02:58.000Z</time>
      </trkpt>
      <trkpt lat="45.56464" lon="2.71247">
        <ele>1159</ele>
        <time>2022-07-30T22:02:59.000Z</time>
      </trkpt>
      <trkpt lat="45.56463" lon="2.71253">
        <ele>1159</ele>
        <time>2022-07-30T22:03:00.000Z</time>
      </trkpt>
      <trkpt lat="45.56463" lon="2.7126">
        <ele>1159</ele>
        <time>2022-07-30T22:03:01.000Z</time>
      </trkpt>
      <trkpt lat="45.56462" lon="2.71266">
        <ele>1159</ele>
        <time>2022-07-30T22:03:02.000Z</time>
      </trkpt>
      <trkpt lat="45.56462" lon="2.71272">
        <ele>1159</ele>
        <time>2022-07-30T22:03:03.000Z</time>
      </trkpt>
      <trkpt lat="45.56461" lon="2.71279">
        <ele>1159</ele>
        <time>2022-07-30T22:03:04.000Z</time>
      </trkpt>
      <trkpt lat="45.56461" lon="2.71285">
        <ele>1159</ele>
        <time>2022-07-30T22:03:05.000Z</time>
      </trkpt>
      <trkpt lat="45.5646" lon="2.71292">
        <ele>1159</ele>
        <time>2022-07-30T22:03:06.000Z</time>
      </trkpt>
      <trkpt lat="45.5646" lon="2.71298">
        <ele>1159</ele>
        <time>2022-07-30T22:03:07.000Z</time>
      </trkpt>
      <trkpt lat="45.56459" lon="2.71304">
        <ele>1159</ele>
        <time>2022-07-30T22:03:08.000Z</time>
      </trkpt>
      <trkpt lat="45.56459" lon="2.71311">
        <ele>1159</ele>
        <time>2022-07-30T22:03:09.000Z</time>
      </trkpt>
      <trkpt lat="45.56458" lon="2.71317">
        <ele>1159</ele>
        <time>2022-07-30T22:03:10.000Z</time>
      </trkpt>
      <trkpt lat="45.56458" lon="2.71324">
        <ele>1160</ele>
        <time>2022-07-30T22:03:11.000Z</time>
      </trkpt>
      <trkpt lat="45.56457" lon="2.7133">
        <ele>1160</ele>
        <time>2022-07-30T22:03:12.000Z</time>
      </trkpt>
      <trkpt lat="45.56457" lon="2.71336">
        <ele>1160</ele>
        <time>2022-07-30T22:03:13.000Z</time>
      </trkpt>
      <trkpt lat="45.56456" lon="2.71343">
        <ele>1160</ele>
        <time>2022-07-30T22:03:14.000Z</time>
      </trkpt>
      <trkpt lat="45.56456" lon="2.71349">
        <ele>1160</ele>
        <time>2022-07-30T22:03:15.000Z</time>
      </trkpt>
      <trkpt lat="45.56455" lon="2.71356">
        <ele>1160</ele>
        <time>2022-07-30T22:03:16.000Z</time>
      </trkpt>
      <trkpt lat="45.56455" lon="2.71362">
        <ele>1160</ele>
        <time>2022-07-30T22:03:17.000Z</time>
      </trkpt>
      <trkpt lat="45.56454" lon="2.71368">
        <ele>1160</ele>
        <time>2022-07-30T22:03:18.000Z</time>
      </trkpt>
      <trkpt lat="45.56455" lon="2.71376">
        <ele>1160</ele>
        <time>2022-07-30T22:03:19.000Z</time>
      </trkpt>
      <trkpt lat="45.56455" lon="2.71383">
        <ele>1160</ele>
        <time>2022-07-30T22:03:20.000Z</time>
      </trkpt>
      <trkpt lat="45.56456" lon="2.71391">
        <ele>1160</ele>
        <time>2022-07-30T22:03:21.000Z</time>
      </trkpt>
      <trkpt lat="45.56458" lon="2.71397">
        <ele>1159</ele>
        <time>2022-07-30T22:03:22.000Z</time>
      </trkpt>
      <trkpt lat="45.5646" lon="2.71403">
        <ele>1159</ele>
        <time>2022-07-30T22:03:23.000Z</time>
      </trkpt>
      <trkpt lat="45.56462" lon="2.71409">
        <ele>1159</ele>
        <time>2022-07-30T22:03:24.000Z</time>
      </trkpt>
      <trkpt lat="45.56464" lon="2.71415">
        <ele>1159</ele>
        <time>2022-07-30T22:03:25.000Z</time>
      </trkpt>
      <trkpt lat="45.56466" lon="2.7142">
        <ele>1159</ele>
        <time>2022-07-30T22:03:26.000Z</time>
      </trkpt>
      <trkpt lat="45.56467" lon="2.71426">
        <ele>1159</ele>
        <time>2022-07-30T22:03:27.000Z</time>
      </trkpt>
      <trkpt lat="45.56469" lon="2.71432">
        <ele>1159</ele>
        <time>2022-07-30T22:03:28.000Z</time>
      </trkpt>
      <trkpt lat="45.56471" lon="2.71438">
        <ele>1159</ele>
        <time>2022-07-30T22:03:29.000Z</time>
      </trkpt>
      <trkpt lat="45.56472" lon="2.71445">
        <ele>1159</ele>
        <time>2022-07-30T22:03:30.000Z</time>
      </trkpt>
      <trkpt lat="45.56474" lon="2.71452">
        <ele>1159</ele>
        <time>2022-07-30T22:03:31.000Z</time>
      </trkpt>
      <trkpt lat="45.56475" lon="2.71458">
        <ele>1159</ele>
        <time>2022-07-30T22:03:32.000Z</time>
      </trkpt>
      <trkpt lat="45.56476" lon="2.71465">
        <ele>1159</ele>
        <time>2022-07-30T22:03:33.000Z</time>
      </trkpt>
      <trkpt lat="45.56477" lon="2.71472">
        <ele>1161</ele>
        <time>2022-07-30T22:03:34.000Z</time>
      </trkpt>
      <trkpt lat="45.56478" lon="2.71478">
        <ele>1161</ele>
        <time>2022-07-30T22:03:35.000Z</time>
      </trkpt>
      <trkpt lat="45.56479" lon="2.71485">
        <ele>1156</ele>
        <time>2022-07-30T22:03:36.000Z</time>
      </trkpt>
      <trkpt lat="45.5648" lon="2.71492">
        <ele>1156</ele>
        <time>2022-07-30T22:03:37.000Z</time>
      </trkpt>
      <trkpt lat="45.56481" lon="2.71498">
        <ele>1156</ele>
        <time>2022-07-30T22:03:38.000Z</time>
      </trkpt>
      <trkpt lat="45.56482" lon="2.71505">
        <ele>1156</ele>
        <time>2022-07-30T22:03:39.000Z</time>
      </trkpt>
      <trkpt lat="45.56482" lon="2.71513">
        <ele>1156</ele>
        <time>2022-07-30T22:03:40.000Z</time>
      </trkpt>
      <trkpt lat="45.56483" lon="2.7152">
        <ele>1156</ele>
        <time>2022-07-30T22:03:41.000Z</time>
      </trkpt>
      <trkpt lat="45.56483" lon="2.71527">
        <ele>1156</ele>
        <time>2022-07-30T22:03:42.000Z</time>
      </trkpt>
      <trkpt lat="45.56484" lon="2.71534">
        <ele>1156</ele>
        <time>2022-07-30T22:03:43.000Z</time>
      </trkpt>
      <trkpt lat="45.56484" lon="2.71541">
        <ele>1156</ele>
        <time>2022-07-30T22:03:44.000Z</time>
      </trkpt>
      <trkpt lat="45.56485" lon="2.71548">
        <ele>1156</ele>
        <time>2022-07-30T22:03:45.000Z</time>
      </trkpt>
      <trkpt lat="45.56485" lon="2.71555">
        <ele>1159</ele>
        <time>2022-07-30T22:03:46.000Z</time>
      </trkpt>
      <trkpt lat="45.56485" lon="2.71561">
        <ele>1159</ele>
        <time>2022-07-30T22:03:47.000Z</time>
      </trkpt>
      <trkpt lat="45.56485" lon="2.71568">
        <ele>1159</ele>
        <time>2022-07-30T22:03:48.000Z</time>
      </trkpt>
      <trkpt lat="45.56485" lon="2.71574">
        <ele>1159</ele>
        <time>2022-07-30T22:03:49.000Z</time>
      </trkpt>
      <trkpt lat="45.56485" lon="2.71581">
        <ele>1159</ele>
        <time>2022-07-30T22:03:50.000Z</time>
      </trkpt>
      <trkpt lat="45.56484" lon="2.71587">
        <ele>1159</ele>
        <time>2022-07-30T22:03:51.000Z</time>
      </trkpt>
      <trkpt lat="45.56484" lon="2.71594">
        <ele>1159</ele>
        <time>2022-07-30T22:03:52.000Z</time>
      </trkpt>
      <trkpt lat="45.56484" lon="2.716">
        <ele>1159</ele>
        <time>2022-07-30T22:03:53.000Z</time>
      </trkpt>
      <trkpt lat="45.56483" lon="2.71607">
        <ele>1159</ele>
        <time>2022-07-30T22:03:54.000Z</time>
      </trkpt>
      <trkpt lat="45.56482" lon="2.71615">
        <ele>1159</ele>
        <time>2022-07-30T22:03:55.000Z</time>
      </trkpt>
      <trkpt lat="45.5648" lon="2.71622">
        <ele>1159</ele>
        <time>2022-07-30T22:03:56.000Z</time>
      </trkpt>
      <trkpt lat="45.56479" lon="2.71629">
        <ele>1162</ele>
        <time>2022-07-30T22:03:57.000Z</time>
      </trkpt>
      <trkpt lat="45.56479" lon="2.71631">
        <ele>1162</ele>
        <time>2022-07-30T22:03:58.000Z</time>
      </trkpt>
      <trkpt lat="45.56477" lon="2.71638">
        <ele>1162</ele>
        <time>2022-07-30T22:03:59.000Z</time>
      </trkpt>
      <trkpt lat="45.56475" lon="2.71645">
        <ele>1162</ele>
        <time>2022-07-30T22:04:00.000Z</time>
      </trkpt>
      <trkpt lat="45.56474" lon="2.71651">
        <ele>1162</ele>
        <time>2022-07-30T22:04:01.000Z</time>
      </trkpt>
      <trkpt lat="45.56472" lon="2.71658">
        <ele>1162</ele>
        <time>2022-07-30T22:04:02.000Z</time>
      </trkpt>
      <trkpt lat="45.5647" lon="2.71665">
        <ele>1162</ele>
        <time>2022-07-30T22:04:03.000Z</time>
      </trkpt>
      <trkpt lat="45.56468" lon="2.71671">
        <ele>1162</ele>
        <time>2022-07-30T22:04:04.000Z</time>
      </trkpt>
      <trkpt lat="45.56467" lon="2.71678">
        <ele>1162</ele>
        <time>2022-07-30T22:04:05.000Z</time>
      </trkpt>
      <trkpt lat="45.56465" lon="2.71685">
        <ele>1162</ele>
        <time>2022-07-30T22:04:06.000Z</time>
      </trkpt>
      <trkpt lat="45.56464" lon="2.71691">
        <ele>1162</ele>
        <time>2022-07-30T22:04:07.000Z</time>
      </trkpt>
      <trkpt lat="45.56464" lon="2.71698">
        <ele>1162</ele>
        <time>2022-07-30T22:04:08.000Z</time>
      </trkpt>
      <trkpt lat="45.56463" lon="2.71704">
        <ele>1162</ele>
        <time>2022-07-30T22:04:09.000Z</time>
      </trkpt>
      <trkpt lat="45.56463" lon="2.7171">
        <ele>1160</ele>
        <time>2022-07-30T22:04:10.000Z</time>
      </trkpt>
      <trkpt lat="45.56462" lon="2.71717">
        <ele>1173</ele>
        <time>2022-07-30T22:04:11.000Z</time>
      </trkpt>
      <trkpt lat="45.56461" lon="2.71723">
        <ele>1173</ele>
        <time>2022-07-30T22:04:12.000Z</time>
      </trkpt>
      <trkpt lat="45.56461" lon="2.7173">
        <ele>1173</ele>
        <time>2022-07-30T22:04:13.000Z</time>
      </trkpt>
      <trkpt lat="45.5646" lon="2.71736">
        <ele>1173</ele>
        <time>2022-07-30T22:04:14.000Z</time>
      </trkpt>
      <trkpt lat="45.5646" lon="2.71743">
        <ele>1173</ele>
        <time>2022-07-30T22:04:15.000Z</time>
      </trkpt>
      <trkpt lat="45.56459" lon="2.71749">
        <ele>1173</ele>
        <time>2022-07-30T22:04:16.000Z</time>
      </trkpt>
      <trkpt lat="45.56459" lon="2.71756">
        <ele>1173</ele>
        <time>2022-07-30T22:04:17.000Z</time>
      </trkpt>
      <trkpt lat="45.56458" lon="2.71762">
        <ele>1173</ele>
        <time>2022-07-30T22:04:18.000Z</time>
      </trkpt>
      <trkpt lat="45.56457" lon="2.71769">
        <ele>1173</ele>
        <time>2022-07-30T22:04:19.000Z</time>
      </trkpt>
      <trkpt lat="45.56456" lon="2.71775">
        <ele>1173</ele>
        <time>2022-07-30T22:04:20.000Z</time>
      </trkpt>
      <trkpt lat="45.56455" lon="2.71781">
        <ele>1173</ele>
        <time>2022-07-30T22:04:21.000Z</time>
      </trkpt>
      <trkpt lat="45.56454" lon="2.71788">
        <ele>1173</ele>
        <time>2022-07-30T22:04:22.000Z</time>
      </trkpt>
      <trkpt lat="45.56452" lon="2.71794">
        <ele>1173</ele>
        <time>2022-07-30T22:04:23.000Z</time>
      </trkpt>
      <trkpt lat="45.56451" lon="2.71801">
        <ele>1173</ele>
        <time>2022-07-30T22:04:24.000Z</time>
      </trkpt>
      <trkpt lat="45.5645" lon="2.71807">
        <ele>1173</ele>
        <time>2022-07-30T22:04:25.000Z</time>
      </trkpt>
      <trkpt lat="45.56448" lon="2.71814">
        <ele>1173</ele>
        <time>2022-07-30T22:04:26.000Z</time>
      </trkpt>
      <trkpt lat="45.56447" lon="2.7182">
        <ele>1173</ele>
        <time>2022-07-30T22:04:27.000Z</time>
      </trkpt>
      <trkpt lat="45.56446" lon="2.71826">
        <ele>1173</ele>
        <time>2022-07-30T22:04:28.000Z</time>
      </trkpt>
      <trkpt lat="45.56444" lon="2.71832">
        <ele>1173</ele>
        <time>2022-07-30T22:04:29.000Z</time>
      </trkpt>
      <trkpt lat="45.56442" lon="2.71838">
        <ele>1173</ele>
        <time>2022-07-30T22:04:30.000Z</time>
      </trkpt>
      <trkpt lat="45.56439" lon="2.71844">
        <ele>1173</ele>
        <time>2022-07-30T22:04:31.000Z</time>
      </trkpt>
      <trkpt lat="45.56437" lon="2.7185">
        <ele>1173</ele>
        <time>2022-07-30T22:04:32.000Z</time>
      </trkpt>
      <trkpt lat="45.56435" lon="2.71856">
        <ele>1173</ele>
        <time>2022-07-30T22:04:33.000Z</time>
      </trkpt>
      <trkpt lat="45.56433" lon="2.71862">
        <ele>1173</ele>
        <time>2022-07-30T22:04:34.000Z</time>
      </trkpt>
      <trkpt lat="45.56431" lon="2.71868">
        <ele>1173</ele>
        <time>2022-07-30T22:04:35.000Z</time>
      </trkpt>
      <trkpt lat="45.56428" lon="2.71873">
        <ele>1173</ele>
        <time>2022-07-30T22:04:36.000Z</time>
      </trkpt>
      <trkpt lat="45.56425" lon="2.71879">
        <ele>1173</ele>
        <time>2022-07-30T22:04:37.000Z</time>
      </trkpt>
      <trkpt lat="45.56423" lon="2.71884">
        <ele>1173</ele>
        <time>2022-07-30T22:04:38.000Z</time>
      </trkpt>
      <trkpt lat="45.5642" lon="2.71889">
        <ele>1173</ele>
        <time>2022-07-30T22:04:39.000Z</time>
      </trkpt>
      <trkpt lat="45.56417" lon="2.71894">
        <ele>1173</ele>
        <time>2022-07-30T22:04:40.000Z</time>
      </trkpt>
      <trkpt lat="45.56414" lon="2.719">
        <ele>1173</ele>
        <time>2022-07-30T22:04:41.000Z</time>
      </trkpt>
      <trkpt lat="45.56412" lon="2.71905">
        <ele>1173</ele>
        <time>2022-07-30T22:04:42.000Z</time>
      </trkpt>
      <trkpt lat="45.56409" lon="2.7191">
        <ele>1173</ele>
        <time>2022-07-30T22:04:43.000Z</time>
      </trkpt>
      <trkpt lat="45.56406" lon="2.71915">
        <ele>1173</ele>
        <time>2022-07-30T22:04:44.000Z</time>
      </trkpt>
      <trkpt lat="45.56403" lon="2.7192">
        <ele>1173</ele>
        <time>2022-07-30T22:04:45.000Z</time>
      </trkpt>
      <trkpt lat="45.56401" lon="2.71926">
        <ele>1173</ele>
        <time>2022-07-30T22:04:46.000Z</time>
      </trkpt>
      <trkpt lat="45.56398" lon="2.71931">
        <ele>1173</ele>
        <time>2022-07-30T22:04:47.000Z</time>
      </trkpt>
      <trkpt lat="45.56395" lon="2.71936">
        <ele>1173</ele>
        <time>2022-07-30T22:04:48.000Z</time>
      </trkpt>
      <trkpt lat="45.56392" lon="2.71941">
        <ele>1167</ele>
        <time>2022-07-30T22:04:49.000Z</time>
      </trkpt>
      <trkpt lat="45.5639" lon="2.71946">
        <ele>1167</ele>
        <time>2022-07-30T22:04:50.000Z</time>
      </trkpt>
      <trkpt lat="45.56387" lon="2.71952">
        <ele>1167</ele>
        <time>2022-07-30T22:04:51.000Z</time>
      </trkpt>
      <trkpt lat="45.56384" lon="2.71957">
        <ele>1167</ele>
        <time>2022-07-30T22:04:52.000Z</time>
      </trkpt>
      <trkpt lat="45.56382" lon="2.7196">
        <ele>1167</ele>
        <time>2022-07-30T22:04:53.000Z</time>
      </trkpt>
      <trkpt lat="45.56379" lon="2.71965">
        <ele>1183</ele>
        <time>2022-07-30T22:04:54.000Z</time>
      </trkpt>
      <trkpt lat="45.56376" lon="2.71969">
        <ele>1183</ele>
        <time>2022-07-30T22:04:55.000Z</time>
      </trkpt>
      <trkpt lat="45.56373" lon="2.71974">
        <ele>1183</ele>
        <time>2022-07-30T22:04:56.000Z</time>
      </trkpt>
      <trkpt lat="45.56369" lon="2.71979">
        <ele>1183</ele>
        <time>2022-07-30T22:04:57.000Z</time>
      </trkpt>
      <trkpt lat="45.56366" lon="2.71983">
        <ele>1183</ele>
        <time>2022-07-30T22:04:58.000Z</time>
      </trkpt>
      <trkpt lat="45.56363" lon="2.71988">
        <ele>1183</ele>
        <time>2022-07-30T22:04:59.000Z</time>
      </trkpt>
      <trkpt lat="45.5636" lon="2.71993">
        <ele>1183</ele>
        <time>2022-07-30T22:05:00.000Z</time>
      </trkpt>
      <trkpt lat="45.56356" lon="2.71997">
        <ele>1183</ele>
        <time>2022-07-30T22:05:01.000Z</time>
      </trkpt>
      <trkpt lat="45.56353" lon="2.72002">
        <ele>1183</ele>
        <time>2022-07-30T22:05:02.000Z</time>
      </trkpt>
      <trkpt lat="45.5635" lon="2.72007">
        <ele>1183</ele>
        <time>2022-07-30T22:05:03.000Z</time>
      </trkpt>
      <trkpt lat="45.56347" lon="2.72011">
        <ele>1176</ele>
        <time>2022-07-30T22:05:04.000Z</time>
      </trkpt>
      <trkpt lat="45.56343" lon="2.72016">
        <ele>1176</ele>
        <time>2022-07-30T22:05:05.000Z</time>
      </trkpt>
      <trkpt lat="45.5634" lon="2.72021">
        <ele>1176</ele>
        <time>2022-07-30T22:05:06.000Z</time>
      </trkpt>
      <trkpt lat="45.56337" lon="2.72025">
        <ele>1176</ele>
        <time>2022-07-30T22:05:07.000Z</time>
      </trkpt>
      <trkpt lat="45.56334" lon="2.7203">
        <ele>1176</ele>
        <time>2022-07-30T22:05:08.000Z</time>
      </trkpt>
      <trkpt lat="45.5633" lon="2.72035">
        <ele>1176</ele>
        <time>2022-07-30T22:05:09.000Z</time>
      </trkpt>
      <trkpt lat="45.56327" lon="2.72039">
        <ele>1176</ele>
        <time>2022-07-30T22:05:10.000Z</time>
      </trkpt>
      <trkpt lat="45.56325" lon="2.72045">
        <ele>1176</ele>
        <time>2022-07-30T22:05:11.000Z</time>
      </trkpt>
      <trkpt lat="45.56322" lon="2.7205">
        <ele>1176</ele>
        <time>2022-07-30T22:05:12.000Z</time>
      </trkpt>
      <trkpt lat="45.5632" lon="2.72056">
        <ele>1176</ele>
        <time>2022-07-30T22:05:13.000Z</time>
      </trkpt>
      <trkpt lat="45.56317" lon="2.72061">
        <ele>1176</ele>
        <time>2022-07-30T22:05:14.000Z</time>
      </trkpt>
      <trkpt lat="45.56315" lon="2.72067">
        <ele>1176</ele>
        <time>2022-07-30T22:05:15.000Z</time>
      </trkpt>
      <trkpt lat="45.56312" lon="2.72072">
        <ele>1176</ele>
        <time>2022-07-30T22:05:16.000Z</time>
      </trkpt>
      <trkpt lat="45.5631" lon="2.72078">
        <ele>1176</ele>
        <time>2022-07-30T22:05:17.000Z</time>
      </trkpt>
      <trkpt lat="45.56307" lon="2.72083">
        <ele>1172</ele>
        <time>2022-07-30T22:05:18.000Z</time>
      </trkpt>
      <trkpt lat="45.56305" lon="2.72089">
        <ele>1172</ele>
        <time>2022-07-30T22:05:19.000Z</time>
      </trkpt>
      <trkpt lat="45.56303" lon="2.72095">
        <ele>1172</ele>
        <time>2022-07-30T22:05:20.000Z</time>
      </trkpt>
      <trkpt lat="45.563" lon="2.72101">
        <ele>1183</ele>
        <time>2022-07-30T22:05:21.000Z</time>
      </trkpt>
      <trkpt lat="45.56298" lon="2.72108">
        <ele>1183</ele>
        <time>2022-07-30T22:05:22.000Z</time>
      </trkpt>
      <trkpt lat="45.56296" lon="2.72114">
        <ele>1183</ele>
        <time>2022-07-30T22:05:23.000Z</time>
      </trkpt>
      <trkpt lat="45.56294" lon="2.7212">
        <ele>1183</ele>
        <time>2022-07-30T22:05:24.000Z</time>
      </trkpt>
      <trkpt lat="45.56292" lon="2.72126">
        <ele>1183</ele>
        <time>2022-07-30T22:05:25.000Z</time>
      </trkpt>
      <trkpt lat="45.5629" lon="2.72132">
        <ele>1183</ele>
        <time>2022-07-30T22:05:26.000Z</time>
      </trkpt>
      <trkpt lat="45.56288" lon="2.72138">
        <ele>1183</ele>
        <time>2022-07-30T22:05:27.000Z</time>
      </trkpt>
      <trkpt lat="45.56286" lon="2.72144">
        <ele>1183</ele>
        <time>2022-07-30T22:05:28.000Z</time>
      </trkpt>
      <trkpt lat="45.56285" lon="2.7215">
        <ele>1183</ele>
        <time>2022-07-30T22:05:29.000Z</time>
      </trkpt>
      <trkpt lat="45.56283" lon="2.72156">
        <ele>1183</ele>
        <time>2022-07-30T22:05:30.000Z</time>
      </trkpt>
      <trkpt lat="45.56281" lon="2.72162">
        <ele>1183</ele>
        <time>2022-07-30T22:05:31.000Z</time>
      </trkpt>
      <trkpt lat="45.56279" lon="2.72168">
        <ele>1184</ele>
        <time>2022-07-30T22:05:32.000Z</time>
      </trkpt>
      <trkpt lat="45.56277" lon="2.72174">
        <ele>1184</ele>
        <time>2022-07-30T22:05:33.000Z</time>
      </trkpt>
      <trkpt lat="45.56275" lon="2.7218">
        <ele>1184</ele>
        <time>2022-07-30T22:05:34.000Z</time>
      </trkpt>
      <trkpt lat="45.56274" lon="2.72186">
        <ele>1184</ele>
        <time>2022-07-30T22:05:35.000Z</time>
      </trkpt>
      <trkpt lat="45.56272" lon="2.72192">
        <ele>1184</ele>
        <time>2022-07-30T22:05:36.000Z</time>
      </trkpt>
      <trkpt lat="45.5627" lon="2.72198">
        <ele>1184</ele>
        <time>2022-07-30T22:05:37.000Z</time>
      </trkpt>
      <trkpt lat="45.56269" lon="2.72207">
        <ele>1184</ele>
        <time>2022-07-30T22:05:38.000Z</time>
      </trkpt>
      <trkpt lat="45.56268" lon="2.72216">
        <ele>1184</ele>
        <time>2022-07-30T22:05:39.000Z</time>
      </trkpt>
      <trkpt lat="45.56268" lon="2.72223">
        <ele>1184</ele>
        <time>2022-07-30T22:05:40.000Z</time>
      </trkpt>
      <trkpt lat="45.56268" lon="2.7223">
        <ele>1184</ele>
        <time>2022-07-30T22:05:41.000Z</time>
      </trkpt>
      <trkpt lat="45.56268" lon="2.72237">
        <ele>1184</ele>
        <time>2022-07-30T22:05:42.000Z</time>
      </trkpt>
      <trkpt lat="45.56268" lon="2.72244">
        <ele>1184</ele>
        <time>2022-07-30T22:05:43.000Z</time>
      </trkpt>
      <trkpt lat="45.56269" lon="2.7225">
        <ele>1183</ele>
        <time>2022-07-30T22:05:44.000Z</time>
      </trkpt>
      <trkpt lat="45.5627" lon="2.72256">
        <ele>1183</ele>
        <time>2022-07-30T22:05:45.000Z</time>
      </trkpt>
      <trkpt lat="45.56271" lon="2.72263">
        <ele>1183</ele>
        <time>2022-07-30T22:05:46.000Z</time>
      </trkpt>
      <trkpt lat="45.56273" lon="2.72269">
        <ele>1183</ele>
        <time>2022-07-30T22:05:47.000Z</time>
      </trkpt>
      <trkpt lat="45.56274" lon="2.72276">
        <ele>1183</ele>
        <time>2022-07-30T22:05:48.000Z</time>
      </trkpt>
      <trkpt lat="45.56275" lon="2.72282">
        <ele>1183</ele>
        <time>2022-07-30T22:05:49.000Z</time>
      </trkpt>
      <trkpt lat="45.56277" lon="2.72288">
        <ele>1183</ele>
        <time>2022-07-30T22:05:50.000Z</time>
      </trkpt>
      <trkpt lat="45.56278" lon="2.72295">
        <ele>1183</ele>
        <time>2022-07-30T22:05:51.000Z</time>
      </trkpt>
      <trkpt lat="45.5628" lon="2.72301">
        <ele>1183</ele>
        <time>2022-07-30T22:05:52.000Z</time>
      </trkpt>
      <trkpt lat="45.56282" lon="2.72308">
        <ele>1183</ele>
        <time>2022-07-30T22:05:53.000Z</time>
      </trkpt>
      <trkpt lat="45.56284" lon="2.72314">
        <ele>1183</ele>
        <time>2022-07-30T22:05:54.000Z</time>
      </trkpt>
      <trkpt lat="45.56285" lon="2.7232">
        <ele>1183</ele>
        <time>2022-07-30T22:05:55.000Z</time>
      </trkpt>
      <trkpt lat="45.56287" lon="2.72327">
        <ele>1183</ele>
        <time>2022-07-30T22:05:56.000Z</time>
      </trkpt>
      <trkpt lat="45.56288" lon="2.72335">
        <ele>1184</ele>
        <time>2022-07-30T22:05:57.000Z</time>
      </trkpt>
      <trkpt lat="45.56289" lon="2.72344">
        <ele>1184</ele>
        <time>2022-07-30T22:05:58.000Z</time>
      </trkpt>
      <trkpt lat="45.56288" lon="2.7235">
        <ele>1184</ele>
        <time>2022-07-30T22:05:59.000Z</time>
      </trkpt>
      <trkpt lat="45.56287" lon="2.72356">
        <ele>1184</ele>
        <time>2022-07-30T22:06:00.000Z</time>
      </trkpt>
      <trkpt lat="45.56286" lon="2.72362">
        <ele>1184</ele>
        <time>2022-07-30T22:06:01.000Z</time>
      </trkpt>
      <trkpt lat="45.56285" lon="2.72369">
        <ele>1184</ele>
        <time>2022-07-30T22:06:02.000Z</time>
      </trkpt>
      <trkpt lat="45.56284" lon="2.72375">
        <ele>1184</ele>
        <time>2022-07-30T22:06:03.000Z</time>
      </trkpt>
      <trkpt lat="45.56283" lon="2.72381">
        <ele>1184</ele>
        <time>2022-07-30T22:06:04.000Z</time>
      </trkpt>
      <trkpt lat="45.56282" lon="2.72387">
        <ele>1184</ele>
        <time>2022-07-30T22:06:05.000Z</time>
      </trkpt>
      <trkpt lat="45.56281" lon="2.72394">
        <ele>1184</ele>
        <time>2022-07-30T22:06:06.000Z</time>
      </trkpt>
      <trkpt lat="45.5628" lon="2.724">
        <ele>1184</ele>
        <time>2022-07-30T22:06:07.000Z</time>
      </trkpt>
      <trkpt lat="45.5628" lon="2.72405">
        <ele>1184</ele>
        <time>2022-07-30T22:06:08.000Z</time>
      </trkpt>
      <trkpt lat="45.5628" lon="2.72407">
        <ele>1184</ele>
        <time>2022-07-30T22:06:09.000Z</time>
      </trkpt>
      <trkpt lat="45.56279" lon="2.72407">
        <ele>1187.1</ele>
        <time>2022-07-30T22:06:10.000Z</time>
      </trkpt>
      <trkpt lat="45.56279" lon="2.7241">
        <ele>1184</ele>
        <time>2022-07-30T22:06:11.000Z</time>
      </trkpt>
      <trkpt lat="45.56277" lon="2.72412">
        <ele>1187.6</ele>
        <time>2022-07-30T22:06:12.000Z</time>
      </trkpt>
      <trkpt lat="45.56272" lon="2.7241">
        <ele>1184</ele>
        <time>2022-07-30T22:06:13.000Z</time>
      </trkpt>
      <trkpt lat="45.56265" lon="2.72408">
        <ele>1187.8</ele>
        <time>2022-07-30T22:06:14.000Z</time>
      </trkpt>
      <trkpt lat="45.56262" lon="2.72408">
        <ele>1188</ele>
        <time>2022-07-30T22:06:15.000Z</time>
      </trkpt>
      <trkpt lat="45.56256" lon="2.72412">
        <ele>1188.2</ele>
        <time>2022-07-30T22:06:16.000Z</time>
      </trkpt>
      <trkpt lat="45.56253" lon="2.72417">
        <ele>1188.4</ele>
        <time>2022-07-30T22:06:17.000Z</time>
      </trkpt>
      <trkpt lat="45.56251" lon="2.72421">
        <ele>1188.6</ele>
        <time>2022-07-30T22:06:18.000Z</time>
      </trkpt>
      <trkpt lat="45.56248" lon="2.72426">
        <ele>1188.9</ele>
        <time>2022-07-30T22:06:19.000Z</time>
      </trkpt>
      <trkpt lat="45.56246" lon="2.7243">
        <ele>1189.1</ele>
        <time>2022-07-30T22:06:20.000Z</time>
      </trkpt>
      <trkpt lat="45.56243" lon="2.72433">
        <ele>1189.3</ele>
        <time>2022-07-30T22:06:21.000Z</time>
      </trkpt>
      <trkpt lat="45.56241" lon="2.72436">
        <ele>1189.7</ele>
        <time>2022-07-30T22:06:22.000Z</time>
      </trkpt>
      <trkpt lat="45.56239" lon="2.7244">
        <ele>1189.9</ele>
        <time>2022-07-30T22:06:23.000Z</time>
      </trkpt>
      <trkpt lat="45.56238" lon="2.72442">
        <ele>1190.2</ele>
        <time>2022-07-30T22:06:24.000Z</time>
      </trkpt>
      <trkpt lat="45.56238" lon="2.72445">
        <ele>1190.4</ele>
        <time>2022-07-30T22:06:25.000Z</time>
      </trkpt>
      <trkpt lat="45.56238" lon="2.72449">
        <ele>1190.8</ele>
        <time>2022-07-30T22:06:26.000Z</time>
      </trkpt>
      <trkpt lat="45.56237" lon="2.72452">
        <ele>1191.5</ele>
        <time>2022-07-30T22:06:27.000Z</time>
      </trkpt>
      <trkpt lat="45.56236" lon="2.72457">
        <ele>1191.8</ele>
        <time>2022-07-30T22:06:28.000Z</time>
      </trkpt>
      <trkpt lat="45.56234" lon="2.72461">
        <ele>1192.1</ele>
        <time>2022-07-30T22:06:29.000Z</time>
      </trkpt>
      <trkpt lat="45.56233" lon="2.72465">
        <ele>1192.4</ele>
        <time>2022-07-30T22:06:30.000Z</time>
      </trkpt>
      <trkpt lat="45.56232" lon="2.72469">
        <ele>1188</ele>
        <time>2022-07-30T22:06:31.000Z</time>
      </trkpt>
      <trkpt lat="45.56232" lon="2.72474">
        <ele>1192.7</ele>
        <time>2022-07-30T22:06:32.000Z</time>
      </trkpt>
      <trkpt lat="45.56232" lon="2.72475">
        <ele>1188</ele>
        <time>2022-07-30T22:06:33.000Z</time>
      </trkpt>
      <trkpt lat="45.56232" lon="2.72477">
        <ele>1188</ele>
        <time>2022-07-30T22:06:34.000Z</time>
      </trkpt>
      <trkpt lat="45.56232" lon="2.72478">
        <ele>1188</ele>
        <time>2022-07-30T22:06:35.000Z</time>
      </trkpt>
      <trkpt lat="45.56232" lon="2.72479">
        <ele>1188</ele>
        <time>2022-07-30T22:06:36.000Z</time>
      </trkpt>
      <trkpt lat="45.56236" lon="2.72484">
        <ele>1188</ele>
        <time>2022-07-30T22:06:37.000Z</time>
      </trkpt>
      <trkpt lat="45.56239" lon="2.72491">
        <ele>1194</ele>
        <time>2022-07-30T22:06:38.000Z</time>
      </trkpt>
      <trkpt lat="45.56241" lon="2.72497">
        <ele>1194</ele>
        <time>2022-07-30T22:06:39.000Z</time>
      </trkpt>
      <trkpt lat="45.56244" lon="2.72504">
        <ele>1194</ele>
        <time>2022-07-30T22:06:40.000Z</time>
      </trkpt>
      <trkpt lat="45.56247" lon="2.7251">
        <ele>1194</ele>
        <time>2022-07-30T22:06:41.000Z</time>
      </trkpt>
      <trkpt lat="45.56249" lon="2.72516">
        <ele>1194</ele>
        <time>2022-07-30T22:06:42.000Z</time>
      </trkpt>
      <trkpt lat="45.56252" lon="2.72523">
        <ele>1194</ele>
        <time>2022-07-30T22:06:43.000Z</time>
      </trkpt>
      <trkpt lat="45.56255" lon="2.72528">
        <ele>1194</ele>
        <time>2022-07-30T22:06:44.000Z</time>
      </trkpt>
      <trkpt lat="45.56259" lon="2.72534">
        <ele>1194</ele>
        <time>2022-07-30T22:06:45.000Z</time>
      </trkpt>
      <trkpt lat="45.56262" lon="2.72539">
        <ele>1194</ele>
        <time>2022-07-30T22:06:46.000Z</time>
      </trkpt>
      <trkpt lat="45.56266" lon="2.72545">
        <ele>1194</ele>
        <time>2022-07-30T22:06:47.000Z</time>
      </trkpt>
      <trkpt lat="45.56269" lon="2.72551">
        <ele>1194</ele>
        <time>2022-07-30T22:06:48.000Z</time>
      </trkpt>
      <trkpt lat="45.56273" lon="2.72555">
        <ele>1194</ele>
        <time>2022-07-30T22:06:49.000Z</time>
      </trkpt>
      <trkpt lat="45.56277" lon="2.72559">
        <ele>1194</ele>
        <time>2022-07-30T22:06:50.000Z</time>
      </trkpt>
      <trkpt lat="45.56282" lon="2.72563">
        <ele>1194</ele>
        <time>2022-07-30T22:06:51.000Z</time>
      </trkpt>
      <trkpt lat="45.56286" lon="2.72567">
        <ele>1194</ele>
        <time>2022-07-30T22:06:52.000Z</time>
      </trkpt>
      <trkpt lat="45.5629" lon="2.72571">
        <ele>1194</ele>
        <time>2022-07-30T22:06:53.000Z</time>
      </trkpt>
      <trkpt lat="45.56294" lon="2.72575">
        <ele>1186</ele>
        <time>2022-07-30T22:06:54.000Z</time>
      </trkpt>
      <trkpt lat="45.56298" lon="2.72579">
        <ele>1186</ele>
        <time>2022-07-30T22:06:55.000Z</time>
      </trkpt>
      <trkpt lat="45.56301" lon="2.72586">
        <ele>1186</ele>
        <time>2022-07-30T22:06:56.000Z</time>
      </trkpt>
      <trkpt lat="45.56304" lon="2.72592">
        <ele>1186</ele>
        <time>2022-07-30T22:06:57.000Z</time>
      </trkpt>
      <trkpt lat="45.56308" lon="2.72599">
        <ele>1186</ele>
        <time>2022-07-30T22:06:58.000Z</time>
      </trkpt>
      <trkpt lat="45.56308" lon="2.72607">
        <ele>1186</ele>
        <time>2022-07-30T22:06:59.000Z</time>
      </trkpt>
      <trkpt lat="45.56308" lon="2.72616">
        <ele>1186</ele>
        <time>2022-07-30T22:07:00.000Z</time>
      </trkpt>
      <trkpt lat="45.56308" lon="2.72623">
        <ele>1186</ele>
        <time>2022-07-30T22:07:01.000Z</time>
      </trkpt>
      <trkpt lat="45.56309" lon="2.7263">
        <ele>1186</ele>
        <time>2022-07-30T22:07:02.000Z</time>
      </trkpt>
      <trkpt lat="45.56309" lon="2.72637">
        <ele>1186</ele>
        <time>2022-07-30T22:07:03.000Z</time>
      </trkpt>
      <trkpt lat="45.5631" lon="2.72644">
        <ele>1186</ele>
        <time>2022-07-30T22:07:04.000Z</time>
      </trkpt>
      <trkpt lat="45.5631" lon="2.72651">
        <ele>1186</ele>
        <time>2022-07-30T22:07:05.000Z</time>
      </trkpt>
      <trkpt lat="45.56311" lon="2.72658">
        <ele>1186</ele>
        <time>2022-07-30T22:07:06.000Z</time>
      </trkpt>
      <trkpt lat="45.56311" lon="2.72665">
        <ele>1192</ele>
        <time>2022-07-30T22:07:07.000Z</time>
      </trkpt>
      <trkpt lat="45.56312" lon="2.72673">
        <ele>1192</ele>
        <time>2022-07-30T22:07:08.000Z</time>
      </trkpt>
      <trkpt lat="45.56312" lon="2.7268">
        <ele>1192</ele>
        <time>2022-07-30T22:07:09.000Z</time>
      </trkpt>
      <trkpt lat="45.56313" lon="2.72687">
        <ele>1192</ele>
        <time>2022-07-30T22:07:10.000Z</time>
      </trkpt>
      <trkpt lat="45.56313" lon="2.72694">
        <ele>1192</ele>
        <time>2022-07-30T22:07:11.000Z</time>
      </trkpt>
      <trkpt lat="45.56314" lon="2.72702">
        <ele>1192</ele>
        <time>2022-07-30T22:07:12.000Z</time>
      </trkpt>
      <trkpt lat="45.56319" lon="2.72712">
        <ele>1192</ele>
        <time>2022-07-30T22:07:13.000Z</time>
      </trkpt>
      <trkpt lat="45.56324" lon="2.72713">
        <ele>1192</ele>
        <time>2022-07-30T22:07:14.000Z</time>
      </trkpt>
      <trkpt lat="45.56329" lon="2.72715">
        <ele>1192</ele>
        <time>2022-07-30T22:07:15.000Z</time>
      </trkpt>
      <trkpt lat="45.56333" lon="2.72716">
        <ele>1192</ele>
        <time>2022-07-30T22:07:16.000Z</time>
      </trkpt>
      <trkpt lat="45.56338" lon="2.72717">
        <ele>1192</ele>
        <time>2022-07-30T22:07:17.000Z</time>
      </trkpt>
      <trkpt lat="45.56344" lon="2.72717">
        <ele>1192</ele>
        <time>2022-07-30T22:07:18.000Z</time>
      </trkpt>
      <trkpt lat="45.56349" lon="2.72717">
        <ele>1192</ele>
        <time>2022-07-30T22:07:19.000Z</time>
      </trkpt>
      <trkpt lat="45.56354" lon="2.72717">
        <ele>1192</ele>
        <time>2022-07-30T22:07:20.000Z</time>
      </trkpt>
      <trkpt lat="45.5636" lon="2.72718">
        <ele>1192</ele>
        <time>2022-07-30T22:07:21.000Z</time>
      </trkpt>
      <trkpt lat="45.56365" lon="2.72718">
        <ele>1192</ele>
        <time>2022-07-30T22:07:22.000Z</time>
      </trkpt>
      <trkpt lat="45.5637" lon="2.72718">
        <ele>1192</ele>
        <time>2022-07-30T22:07:23.000Z</time>
      </trkpt>
      <trkpt lat="45.56374" lon="2.72718">
        <ele>1192</ele>
        <time>2022-07-30T22:07:24.000Z</time>
      </trkpt>
      <trkpt lat="45.56379" lon="2.72718">
        <ele>1192</ele>
        <time>2022-07-30T22:07:25.000Z</time>
      </trkpt>
      <trkpt lat="45.56384" lon="2.72718">
        <ele>1184</ele>
        <time>2022-07-30T22:07:26.000Z</time>
      </trkpt>
      <trkpt lat="45.56389" lon="2.72718">
        <ele>1184</ele>
        <time>2022-07-30T22:07:27.000Z</time>
      </trkpt>
      <trkpt lat="45.56394" lon="2.72718">
        <ele>1184</ele>
        <time>2022-07-30T22:07:28.000Z</time>
      </trkpt>
      <trkpt lat="45.564" lon="2.72718">
        <ele>1184</ele>
        <time>2022-07-30T22:07:29.000Z</time>
      </trkpt>
      <trkpt lat="45.56405" lon="2.72719">
        <ele>1184</ele>
        <time>2022-07-30T22:07:30.000Z</time>
      </trkpt>
      <trkpt lat="45.56409" lon="2.72722">
        <ele>1184</ele>
        <time>2022-07-30T22:07:31.000Z</time>
      </trkpt>
      <trkpt lat="45.56413" lon="2.72725">
        <ele>1184</ele>
        <time>2022-07-30T22:07:32.000Z</time>
      </trkpt>
      <trkpt lat="45.56417" lon="2.72729">
        <ele>1184</ele>
        <time>2022-07-30T22:07:33.000Z</time>
      </trkpt>
      <trkpt lat="45.56421" lon="2.72732">
        <ele>1184</ele>
        <time>2022-07-30T22:07:34.000Z</time>
      </trkpt>
      <trkpt lat="45.56425" lon="2.72735">
        <ele>1184</ele>
        <time>2022-07-30T22:07:35.000Z</time>
      </trkpt>
      <trkpt lat="45.56429" lon="2.72739">
        <ele>1184</ele>
        <time>2022-07-30T22:07:36.000Z</time>
      </trkpt>
      <trkpt lat="45.56433" lon="2.72742">
        <ele>1184</ele>
        <time>2022-07-30T22:07:37.000Z</time>
      </trkpt>
      <trkpt lat="45.56437" lon="2.72746">
        <ele>1184</ele>
        <time>2022-07-30T22:07:38.000Z</time>
      </trkpt>
      <trkpt lat="45.56441" lon="2.72749">
        <ele>1184</ele>
        <time>2022-07-30T22:07:39.000Z</time>
      </trkpt>
      <trkpt lat="45.56445" lon="2.72753">
        <ele>1184</ele>
        <time>2022-07-30T22:07:40.000Z</time>
      </trkpt>
      <trkpt lat="45.56447" lon="2.7276">
        <ele>1184</ele>
        <time>2022-07-30T22:07:41.000Z</time>
      </trkpt>
      <trkpt lat="45.56449" lon="2.72767">
        <ele>1189</ele>
        <time>2022-07-30T22:07:42.000Z</time>
      </trkpt>
      <trkpt lat="45.56451" lon="2.72775">
        <ele>1189</ele>
        <time>2022-07-30T22:07:43.000Z</time>
      </trkpt>
      <trkpt lat="45.56452" lon="2.72783">
        <ele>1189</ele>
        <time>2022-07-30T22:07:44.000Z</time>
      </trkpt>
      <trkpt lat="45.56453" lon="2.72791">
        <ele>1189</ele>
        <time>2022-07-30T22:07:45.000Z</time>
      </trkpt>
      <trkpt lat="45.56458" lon="2.72793">
        <ele>1189</ele>
        <time>2022-07-30T22:07:46.000Z</time>
      </trkpt>
      <trkpt lat="45.56464" lon="2.72794">
        <ele>1189</ele>
        <time>2022-07-30T22:07:47.000Z</time>
      </trkpt>
      <trkpt lat="45.56469" lon="2.72796">
        <ele>1189</ele>
        <time>2022-07-30T22:07:48.000Z</time>
      </trkpt>
      <trkpt lat="45.56475" lon="2.72797">
        <ele>1190</ele>
        <time>2022-07-30T22:07:49.000Z</time>
      </trkpt>
      <trkpt lat="45.56479" lon="2.72798">
        <ele>1190</ele>
        <time>2022-07-30T22:07:50.000Z</time>
      </trkpt>
      <trkpt lat="45.56484" lon="2.72799">
        <ele>1190</ele>
        <time>2022-07-30T22:07:51.000Z</time>
      </trkpt>
      <trkpt lat="45.56489" lon="2.72799">
        <ele>1190</ele>
        <time>2022-07-30T22:07:52.000Z</time>
      </trkpt>
      <trkpt lat="45.56494" lon="2.728">
        <ele>1190</ele>
        <time>2022-07-30T22:07:53.000Z</time>
      </trkpt>
      <trkpt lat="45.56499" lon="2.72801">
        <ele>1190</ele>
        <time>2022-07-30T22:07:54.000Z</time>
      </trkpt>
      <trkpt lat="45.56504" lon="2.72801">
        <ele>1190</ele>
        <time>2022-07-30T22:07:55.000Z</time>
      </trkpt>
      <trkpt lat="45.5651" lon="2.72801">
        <ele>1190</ele>
        <time>2022-07-30T22:07:56.000Z</time>
      </trkpt>
      <trkpt lat="45.56515" lon="2.72801">
        <ele>1190</ele>
        <time>2022-07-30T22:07:57.000Z</time>
      </trkpt>
      <trkpt lat="45.56522" lon="2.728">
        <ele>1190</ele>
        <time>2022-07-30T22:07:58.000Z</time>
      </trkpt>
      <trkpt lat="45.56528" lon="2.72799">
        <ele>1190</ele>
        <time>2022-07-30T22:07:59.000Z</time>
      </trkpt>
      <trkpt lat="45.56533" lon="2.72797">
        <ele>1190</ele>
        <time>2022-07-30T22:08:00.000Z</time>
      </trkpt>
      <trkpt lat="45.56537" lon="2.72795">
        <ele>1190</ele>
        <time>2022-07-30T22:08:01.000Z</time>
      </trkpt>
      <trkpt lat="45.56542" lon="2.72793">
        <ele>1190</ele>
        <time>2022-07-30T22:08:02.000Z</time>
      </trkpt>
      <trkpt lat="45.56546" lon="2.72791">
        <ele>1190</ele>
        <time>2022-07-30T22:08:03.000Z</time>
      </trkpt>
      <trkpt lat="45.5655" lon="2.72789">
        <ele>1190</ele>
        <time>2022-07-30T22:08:04.000Z</time>
      </trkpt>
      <trkpt lat="45.56555" lon="2.72789">
        <ele>1190</ele>
        <time>2022-07-30T22:08:05.000Z</time>
      </trkpt>
      <trkpt lat="45.56561" lon="2.72789">
        <ele>1190</ele>
        <time>2022-07-30T22:08:06.000Z</time>
      </trkpt>
      <trkpt lat="45.56566" lon="2.72788">
        <ele>1190</ele>
        <time>2022-07-30T22:08:07.000Z</time>
      </trkpt>
      <trkpt lat="45.56572" lon="2.72786">
        <ele>1195</ele>
        <time>2022-07-30T22:08:08.000Z</time>
      </trkpt>
      <trkpt lat="45.56577" lon="2.72785">
        <ele>1195</ele>
        <time>2022-07-30T22:08:09.000Z</time>
      </trkpt>
      <trkpt lat="45.56583" lon="2.72784">
        <ele>1195</ele>
        <time>2022-07-30T22:08:10.000Z</time>
      </trkpt>
      <trkpt lat="45.56587" lon="2.72781">
        <ele>1195</ele>
        <time>2022-07-30T22:08:11.000Z</time>
      </trkpt>
      <trkpt lat="45.56591" lon="2.72777">
        <ele>1195</ele>
        <time>2022-07-30T22:08:12.000Z</time>
      </trkpt>
      <trkpt lat="45.56596" lon="2.72774">
        <ele>1195</ele>
        <time>2022-07-30T22:08:13.000Z</time>
      </trkpt>
      <trkpt lat="45.566" lon="2.7277">
        <ele>1195</ele>
        <time>2022-07-30T22:08:14.000Z</time>
      </trkpt>
      <trkpt lat="45.56603" lon="2.72766">
        <ele>1195</ele>
        <time>2022-07-30T22:08:15.000Z</time>
      </trkpt>
      <trkpt lat="45.56607" lon="2.72762">
        <ele>1195</ele>
        <time>2022-07-30T22:08:16.000Z</time>
      </trkpt>
      <trkpt lat="45.56611" lon="2.72758">
        <ele>1195</ele>
        <time>2022-07-30T22:08:17.000Z</time>
      </trkpt>
      <trkpt lat="45.56614" lon="2.72754">
        <ele>1195</ele>
        <time>2022-07-30T22:08:18.000Z</time>
      </trkpt>
      <trkpt lat="45.56618" lon="2.7275">
        <ele>1195</ele>
        <time>2022-07-30T22:08:19.000Z</time>
      </trkpt>
      <trkpt lat="45.56621" lon="2.72745">
        <ele>1195</ele>
        <time>2022-07-30T22:08:20.000Z</time>
      </trkpt>
      <trkpt lat="45.56625" lon="2.72741">
        <ele>1191</ele>
        <time>2022-07-30T22:08:21.000Z</time>
      </trkpt>
      <trkpt lat="45.56628" lon="2.72736">
        <ele>1191</ele>
        <time>2022-07-30T22:08:22.000Z</time>
      </trkpt>
      <trkpt lat="45.56631" lon="2.72732">
        <ele>1191</ele>
        <time>2022-07-30T22:08:23.000Z</time>
      </trkpt>
      <trkpt lat="45.56635" lon="2.72728">
        <ele>1191</ele>
        <time>2022-07-30T22:08:24.000Z</time>
      </trkpt>
      <trkpt lat="45.56638" lon="2.72723">
        <ele>1191</ele>
        <time>2022-07-30T22:08:25.000Z</time>
      </trkpt>
      <trkpt lat="45.56643" lon="2.72719">
        <ele>1191</ele>
        <time>2022-07-30T22:08:26.000Z</time>
      </trkpt>
      <trkpt lat="45.56647" lon="2.72715">
        <ele>1196</ele>
        <time>2022-07-30T22:08:27.000Z</time>
      </trkpt>
      <trkpt lat="45.56651" lon="2.72711">
        <ele>1196</ele>
        <time>2022-07-30T22:08:28.000Z</time>
      </trkpt>
      <trkpt lat="45.56656" lon="2.72707">
        <ele>1196</ele>
        <time>2022-07-30T22:08:29.000Z</time>
      </trkpt>
      <trkpt lat="45.5666" lon="2.72702">
        <ele>1196</ele>
        <time>2022-07-30T22:08:30.000Z</time>
      </trkpt>
      <trkpt lat="45.56664" lon="2.727">
        <ele>1196</ele>
        <time>2022-07-30T22:08:31.000Z</time>
      </trkpt>
      <trkpt lat="45.56669" lon="2.72698">
        <ele>1196</ele>
        <time>2022-07-30T22:08:32.000Z</time>
      </trkpt>
      <trkpt lat="45.56673" lon="2.72696">
        <ele>1196</ele>
        <time>2022-07-30T22:08:33.000Z</time>
      </trkpt>
      <trkpt lat="45.56678" lon="2.72696">
        <ele>1196</ele>
        <time>2022-07-30T22:08:34.000Z</time>
      </trkpt>
      <trkpt lat="45.56684" lon="2.72696">
        <ele>1196</ele>
        <time>2022-07-30T22:08:35.000Z</time>
      </trkpt>
      <trkpt lat="45.56689" lon="2.72696">
        <ele>1196</ele>
        <time>2022-07-30T22:08:36.000Z</time>
      </trkpt>
      <trkpt lat="45.56695" lon="2.72699">
        <ele>1196</ele>
        <time>2022-07-30T22:08:37.000Z</time>
      </trkpt>
      <trkpt lat="45.56702" lon="2.72701">
        <ele>1196</ele>
        <time>2022-07-30T22:08:38.000Z</time>
      </trkpt>
      <trkpt lat="45.56706" lon="2.72704">
        <ele>1196</ele>
        <time>2022-07-30T22:08:39.000Z</time>
      </trkpt>
      <trkpt lat="45.56711" lon="2.72708">
        <ele>1196</ele>
        <time>2022-07-30T22:08:40.000Z</time>
      </trkpt>
      <trkpt lat="45.56715" lon="2.72711">
        <ele>1196</ele>
        <time>2022-07-30T22:08:41.000Z</time>
      </trkpt>
      <trkpt lat="45.5672" lon="2.72714">
        <ele>1196</ele>
        <time>2022-07-30T22:08:42.000Z</time>
      </trkpt>
      <trkpt lat="45.56725" lon="2.72716">
        <ele>1196</ele>
        <time>2022-07-30T22:08:43.000Z</time>
      </trkpt>
      <trkpt lat="45.56729" lon="2.72718">
        <ele>1196</ele>
        <time>2022-07-30T22:08:44.000Z</time>
      </trkpt>
      <trkpt lat="45.56734" lon="2.72721">
        <ele>1196</ele>
        <time>2022-07-30T22:08:45.000Z</time>
      </trkpt>
      <trkpt lat="45.56738" lon="2.72723">
        <ele>1196</ele>
        <time>2022-07-30T22:08:46.000Z</time>
      </trkpt>
      <trkpt lat="45.56744" lon="2.72724">
        <ele>1195</ele>
        <time>2022-07-30T22:08:47.000Z</time>
      </trkpt>
      <trkpt lat="45.5675" lon="2.72725">
        <ele>1195</ele>
        <time>2022-07-30T22:08:48.000Z</time>
      </trkpt>
      <trkpt lat="45.56755" lon="2.72725">
        <ele>1195</ele>
        <time>2022-07-30T22:08:49.000Z</time>
      </trkpt>
      <trkpt lat="45.5676" lon="2.72725">
        <ele>1195</ele>
        <time>2022-07-30T22:08:50.000Z</time>
      </trkpt>
      <trkpt lat="45.56765" lon="2.72725">
        <ele>1195</ele>
        <time>2022-07-30T22:08:51.000Z</time>
      </trkpt>
      <trkpt lat="45.5677" lon="2.72725">
        <ele>1195</ele>
        <time>2022-07-30T22:08:52.000Z</time>
      </trkpt>
      <trkpt lat="45.56776" lon="2.72726">
        <ele>1195</ele>
        <time>2022-07-30T22:08:53.000Z</time>
      </trkpt>
      <trkpt lat="45.56782" lon="2.72727">
        <ele>1195</ele>
        <time>2022-07-30T22:08:54.000Z</time>
      </trkpt>
      <trkpt lat="45.56786" lon="2.72729">
        <ele>1195</ele>
        <time>2022-07-30T22:08:55.000Z</time>
      </trkpt>
      <trkpt lat="45.56791" lon="2.72731">
        <ele>1195</ele>
        <time>2022-07-30T22:08:56.000Z</time>
      </trkpt>
      <trkpt lat="45.56795" lon="2.72732">
        <ele>1195</ele>
        <time>2022-07-30T22:08:57.000Z</time>
      </trkpt>
      <trkpt lat="45.568" lon="2.72734">
        <ele>1195</ele>
        <time>2022-07-30T22:08:58.000Z</time>
      </trkpt>
      <trkpt lat="45.56804" lon="2.72736">
        <ele>1195</ele>
        <time>2022-07-30T22:08:59.000Z</time>
      </trkpt>
      <trkpt lat="45.56809" lon="2.72738">
        <ele>1195</ele>
        <time>2022-07-30T22:09:00.000Z</time>
      </trkpt>
      <trkpt lat="45.56813" lon="2.72739">
        <ele>1195</ele>
        <time>2022-07-30T22:09:01.000Z</time>
      </trkpt>
      <trkpt lat="45.56818" lon="2.72741">
        <ele>1195</ele>
        <time>2022-07-30T22:09:02.000Z</time>
      </trkpt>
      <trkpt lat="45.56823" lon="2.72743">
        <ele>1195</ele>
        <time>2022-07-30T22:09:03.000Z</time>
      </trkpt>
      <trkpt lat="45.56827" lon="2.72745">
        <ele>1195</ele>
        <time>2022-07-30T22:09:04.000Z</time>
      </trkpt>
      <trkpt lat="45.56832" lon="2.72746">
        <ele>1189</ele>
        <time>2022-07-30T22:09:05.000Z</time>
      </trkpt>
      <trkpt lat="45.56836" lon="2.72748">
        <ele>1189</ele>
        <time>2022-07-30T22:09:06.000Z</time>
      </trkpt>
      <trkpt lat="45.56841" lon="2.7275">
        <ele>1189</ele>
        <time>2022-07-30T22:09:07.000Z</time>
      </trkpt>
      <trkpt lat="45.56845" lon="2.72752">
        <ele>1189</ele>
        <time>2022-07-30T22:09:08.000Z</time>
      </trkpt>
      <trkpt lat="45.5685" lon="2.72753">
        <ele>1189</ele>
        <time>2022-07-30T22:09:09.000Z</time>
      </trkpt>
      <trkpt lat="45.56854" lon="2.72755">
        <ele>1189</ele>
        <time>2022-07-30T22:09:10.000Z</time>
      </trkpt>
      <trkpt lat="45.56859" lon="2.72757">
        <ele>1189</ele>
        <time>2022-07-30T22:09:11.000Z</time>
      </trkpt>
      <trkpt lat="45.56863" lon="2.72759">
        <ele>1189</ele>
        <time>2022-07-30T22:09:12.000Z</time>
      </trkpt>
      <trkpt lat="45.56868" lon="2.72761">
        <ele>1189</ele>
        <time>2022-07-30T22:09:13.000Z</time>
      </trkpt>
      <trkpt lat="45.56872" lon="2.72763">
        <ele>1189</ele>
        <time>2022-07-30T22:09:14.000Z</time>
      </trkpt>
      <trkpt lat="45.56877" lon="2.72765">
        <ele>1189</ele>
        <time>2022-07-30T22:09:15.000Z</time>
      </trkpt>
      <trkpt lat="45.56881" lon="2.72767">
        <ele>1201</ele>
        <time>2022-07-30T22:09:16.000Z</time>
      </trkpt>
      <trkpt lat="45.56886" lon="2.72769">
        <ele>1201</ele>
        <time>2022-07-30T22:09:17.000Z</time>
      </trkpt>
      <trkpt lat="45.56891" lon="2.7277">
        <ele>1201</ele>
        <time>2022-07-30T22:09:18.000Z</time>
      </trkpt>
      <trkpt lat="45.56896" lon="2.72772">
        <ele>1201</ele>
        <time>2022-07-30T22:09:19.000Z</time>
      </trkpt>
      <trkpt lat="45.56901" lon="2.72774">
        <ele>1201</ele>
        <time>2022-07-30T22:09:20.000Z</time>
      </trkpt>
      <trkpt lat="45.56906" lon="2.72776">
        <ele>1201</ele>
        <time>2022-07-30T22:09:21.000Z</time>
      </trkpt>
      <trkpt lat="45.56911" lon="2.72778">
        <ele>1195</ele>
        <time>2022-07-30T22:09:22.000Z</time>
      </trkpt>
      <trkpt lat="45.56916" lon="2.72782">
        <ele>1195</ele>
        <time>2022-07-30T22:09:23.000Z</time>
      </trkpt>
      <trkpt lat="45.56921" lon="2.72786">
        <ele>1195</ele>
        <time>2022-07-30T22:09:24.000Z</time>
      </trkpt>
      <trkpt lat="45.56926" lon="2.72792">
        <ele>1195</ele>
        <time>2022-07-30T22:09:25.000Z</time>
      </trkpt>
      <trkpt lat="45.56931" lon="2.72798">
        <ele>1195</ele>
        <time>2022-07-30T22:09:26.000Z</time>
      </trkpt>
      <trkpt lat="45.56934" lon="2.72803">
        <ele>1195</ele>
        <time>2022-07-30T22:09:27.000Z</time>
      </trkpt>
      <trkpt lat="45.56938" lon="2.72808">
        <ele>1195</ele>
        <time>2022-07-30T22:09:28.000Z</time>
      </trkpt>
      <trkpt lat="45.56941" lon="2.72812">
        <ele>1195</ele>
        <time>2022-07-30T22:09:29.000Z</time>
      </trkpt>
      <trkpt lat="45.56944" lon="2.72817">
        <ele>1195</ele>
        <time>2022-07-30T22:09:30.000Z</time>
      </trkpt>
      <trkpt lat="45.56947" lon="2.72822">
        <ele>1195</ele>
        <time>2022-07-30T22:09:31.000Z</time>
      </trkpt>
      <trkpt lat="45.5695" lon="2.72827">
        <ele>1195</ele>
        <time>2022-07-30T22:09:32.000Z</time>
      </trkpt>
      <trkpt lat="45.56952" lon="2.72833">
        <ele>1195</ele>
        <time>2022-07-30T22:09:33.000Z</time>
      </trkpt>
      <trkpt lat="45.56954" lon="2.7284">
        <ele>1195</ele>
        <time>2022-07-30T22:09:34.000Z</time>
      </trkpt>
      <trkpt lat="45.56956" lon="2.72846">
        <ele>1195</ele>
        <time>2022-07-30T22:09:35.000Z</time>
      </trkpt>
      <trkpt lat="45.56959" lon="2.72858">
        <ele>1195</ele>
        <time>2022-07-30T22:09:36.000Z</time>
      </trkpt>
      <trkpt lat="45.56962" lon="2.72864">
        <ele>1195</ele>
        <time>2022-07-30T22:09:37.000Z</time>
      </trkpt>
      <trkpt lat="45.56965" lon="2.7287">
        <ele>1195</ele>
        <time>2022-07-30T22:09:38.000Z</time>
      </trkpt>
      <trkpt lat="45.5697" lon="2.72872">
        <ele>1195</ele>
        <time>2022-07-30T22:09:39.000Z</time>
      </trkpt>
      <trkpt lat="45.56974" lon="2.72874">
        <ele>1195</ele>
        <time>2022-07-30T22:09:40.000Z</time>
      </trkpt>
      <trkpt lat="45.5698" lon="2.7287">
        <ele>1206</ele>
        <time>2022-07-30T22:09:41.000Z</time>
      </trkpt>
      <trkpt lat="45.56986" lon="2.72866">
        <ele>1206</ele>
        <time>2022-07-30T22:09:42.000Z</time>
      </trkpt>
      <trkpt lat="45.5699" lon="2.72863">
        <ele>1206</ele>
        <time>2022-07-30T22:09:43.000Z</time>
      </trkpt>
      <trkpt lat="45.56994" lon="2.7286">
        <ele>1206</ele>
        <time>2022-07-30T22:09:44.000Z</time>
      </trkpt>
      <trkpt lat="45.56998" lon="2.72857">
        <ele>1206</ele>
        <time>2022-07-30T22:09:45.000Z</time>
      </trkpt>
      <trkpt lat="45.57002" lon="2.72854">
        <ele>1206</ele>
        <time>2022-07-30T22:09:46.000Z</time>
      </trkpt>
      <trkpt lat="45.57006" lon="2.72852">
        <ele>1206</ele>
        <time>2022-07-30T22:09:47.000Z</time>
      </trkpt>
      <trkpt lat="45.5701" lon="2.72849">
        <ele>1203</ele>
        <time>2022-07-30T22:09:48.000Z</time>
      </trkpt>
      <trkpt lat="45.57015" lon="2.72845">
        <ele>1203</ele>
        <time>2022-07-30T22:09:49.000Z</time>
      </trkpt>
      <trkpt lat="45.5702" lon="2.72842">
        <ele>1203</ele>
        <time>2022-07-30T22:09:50.000Z</time>
      </trkpt>
      <trkpt lat="45.57024" lon="2.72839">
        <ele>1203</ele>
        <time>2022-07-30T22:09:51.000Z</time>
      </trkpt>
      <trkpt lat="45.57029" lon="2.72835">
        <ele>1203</ele>
        <time>2022-07-30T22:09:52.000Z</time>
      </trkpt>
      <trkpt lat="45.57034" lon="2.72832">
        <ele>1203</ele>
        <time>2022-07-30T22:09:53.000Z</time>
      </trkpt>
      <trkpt lat="45.57038" lon="2.72828">
        <ele>1203</ele>
        <time>2022-07-30T22:09:54.000Z</time>
      </trkpt>
      <trkpt lat="45.57042" lon="2.72824">
        <ele>1203</ele>
        <time>2022-07-30T22:09:55.000Z</time>
      </trkpt>
      <trkpt lat="45.57046" lon="2.7282">
        <ele>1203</ele>
        <time>2022-07-30T22:09:56.000Z</time>
      </trkpt>
      <trkpt lat="45.57051" lon="2.72816">
        <ele>1203</ele>
        <time>2022-07-30T22:09:57.000Z</time>
      </trkpt>
      <trkpt lat="45.57055" lon="2.72813">
        <ele>1203</ele>
        <time>2022-07-30T22:09:58.000Z</time>
      </trkpt>
      <trkpt lat="45.5706" lon="2.72812">
        <ele>1203</ele>
        <time>2022-07-30T22:09:59.000Z</time>
      </trkpt>
      <trkpt lat="45.57066" lon="2.72811">
        <ele>1203</ele>
        <time>2022-07-30T22:10:00.000Z</time>
      </trkpt>
      <trkpt lat="45.57071" lon="2.72811">
        <ele>1203</ele>
        <time>2022-07-30T22:10:01.000Z</time>
      </trkpt>
      <trkpt lat="45.57076" lon="2.7281">
        <ele>1192</ele>
        <time>2022-07-30T22:10:02.000Z</time>
      </trkpt>
      <trkpt lat="45.57081" lon="2.7281">
        <ele>1192</ele>
        <time>2022-07-30T22:10:03.000Z</time>
      </trkpt>
      <trkpt lat="45.57086" lon="2.72809">
        <ele>1192</ele>
        <time>2022-07-30T22:10:04.000Z</time>
      </trkpt>
      <trkpt lat="45.57091" lon="2.72808">
        <ele>1192</ele>
        <time>2022-07-30T22:10:05.000Z</time>
      </trkpt>
      <trkpt lat="45.57096" lon="2.72808">
        <ele>1192</ele>
        <time>2022-07-30T22:10:06.000Z</time>
      </trkpt>
      <trkpt lat="45.57101" lon="2.72806">
        <ele>1192</ele>
        <time>2022-07-30T22:10:07.000Z</time>
      </trkpt>
      <trkpt lat="45.57106" lon="2.72805">
        <ele>1195</ele>
        <time>2022-07-30T22:10:08.000Z</time>
      </trkpt>
      <trkpt lat="45.57111" lon="2.72804">
        <ele>1195</ele>
        <time>2022-07-30T22:10:09.000Z</time>
      </trkpt>
      <trkpt lat="45.57116" lon="2.72803">
        <ele>1195</ele>
        <time>2022-07-30T22:10:10.000Z</time>
      </trkpt>
      <trkpt lat="45.57121" lon="2.72802">
        <ele>1195</ele>
        <time>2022-07-30T22:10:11.000Z</time>
      </trkpt>
      <trkpt lat="45.57126" lon="2.72801">
        <ele>1195</ele>
        <time>2022-07-30T22:10:12.000Z</time>
      </trkpt>
      <trkpt lat="45.57132" lon="2.72801">
        <ele>1195</ele>
        <time>2022-07-30T22:10:13.000Z</time>
      </trkpt>
      <trkpt lat="45.57137" lon="2.728">
        <ele>1195</ele>
        <time>2022-07-30T22:10:14.000Z</time>
      </trkpt>
      <trkpt lat="45.57142" lon="2.72799">
        <ele>1195</ele>
        <time>2022-07-30T22:10:15.000Z</time>
      </trkpt>
      <trkpt lat="45.57147" lon="2.72799">
        <ele>1195</ele>
        <time>2022-07-30T22:10:16.000Z</time>
      </trkpt>
      <trkpt lat="45.57151" lon="2.728">
        <ele>1195</ele>
        <time>2022-07-30T22:10:17.000Z</time>
      </trkpt>
      <trkpt lat="45.57156" lon="2.728">
        <ele>1195</ele>
        <time>2022-07-30T22:10:18.000Z</time>
      </trkpt>
      <trkpt lat="45.57161" lon="2.728">
        <ele>1195</ele>
        <time>2022-07-30T22:10:19.000Z</time>
      </trkpt>
      <trkpt lat="45.57165" lon="2.728">
        <ele>1195</ele>
        <time>2022-07-30T22:10:20.000Z</time>
      </trkpt>
      <trkpt lat="45.5717" lon="2.728">
        <ele>1195</ele>
        <time>2022-07-30T22:10:21.000Z</time>
      </trkpt>
      <trkpt lat="45.57175" lon="2.728">
        <ele>1195</ele>
        <time>2022-07-30T22:10:22.000Z</time>
      </trkpt>
      <trkpt lat="45.5718" lon="2.72799">
        <ele>1195</ele>
        <time>2022-07-30T22:10:23.000Z</time>
      </trkpt>
      <trkpt lat="45.57185" lon="2.72798">
        <ele>1198</ele>
        <time>2022-07-30T22:10:24.000Z</time>
      </trkpt>
      <trkpt lat="45.5719" lon="2.72798">
        <ele>1198</ele>
        <time>2022-07-30T22:10:25.000Z</time>
      </trkpt>
      <trkpt lat="45.57195" lon="2.72797">
        <ele>1198</ele>
        <time>2022-07-30T22:10:26.000Z</time>
      </trkpt>
      <trkpt lat="45.572" lon="2.72796">
        <ele>1198</ele>
        <time>2022-07-30T22:10:27.000Z</time>
      </trkpt>
      <trkpt lat="45.57203" lon="2.72794">
        <ele>1198</ele>
        <time>2022-07-30T22:10:28.000Z</time>
      </trkpt>
      <trkpt lat="45.57207" lon="2.72792">
        <ele>1198</ele>
        <time>2022-07-30T22:10:29.000Z</time>
      </trkpt>
      <trkpt lat="45.57212" lon="2.7279">
        <ele>1198</ele>
        <time>2022-07-30T22:10:30.000Z</time>
      </trkpt>
      <trkpt lat="45.57216" lon="2.72787">
        <ele>1198</ele>
        <time>2022-07-30T22:10:31.000Z</time>
      </trkpt>
      <trkpt lat="45.5722" lon="2.72784">
        <ele>1198</ele>
        <time>2022-07-30T22:10:32.000Z</time>
      </trkpt>
      <trkpt lat="45.57224" lon="2.72781">
        <ele>1198</ele>
        <time>2022-07-30T22:10:33.000Z</time>
      </trkpt>
      <trkpt lat="45.57228" lon="2.72779">
        <ele>1198</ele>
        <time>2022-07-30T22:10:34.000Z</time>
      </trkpt>
      <trkpt lat="45.57233" lon="2.72777">
        <ele>1198</ele>
        <time>2022-07-30T22:10:35.000Z</time>
      </trkpt>
      <trkpt lat="45.57238" lon="2.72776">
        <ele>1198</ele>
        <time>2022-07-30T22:10:36.000Z</time>
      </trkpt>
      <trkpt lat="45.57243" lon="2.72774">
        <ele>1198</ele>
        <time>2022-07-30T22:10:37.000Z</time>
      </trkpt>
      <trkpt lat="45.57248" lon="2.72773">
        <ele>1198</ele>
        <time>2022-07-30T22:10:38.000Z</time>
      </trkpt>
      <trkpt lat="45.57253" lon="2.72773">
        <ele>1198</ele>
        <time>2022-07-30T22:10:39.000Z</time>
      </trkpt>
      <trkpt lat="45.57259" lon="2.72774">
        <ele>1198</ele>
        <time>2022-07-30T22:10:40.000Z</time>
      </trkpt>
      <trkpt lat="45.57264" lon="2.72775">
        <ele>1198</ele>
        <time>2022-07-30T22:10:41.000Z</time>
      </trkpt>
      <trkpt lat="45.57268" lon="2.72777">
        <ele>1198</ele>
        <time>2022-07-30T22:10:42.000Z</time>
      </trkpt>
      <trkpt lat="45.57273" lon="2.72779">
        <ele>1198</ele>
        <time>2022-07-30T22:10:43.000Z</time>
      </trkpt>
      <trkpt lat="45.57277" lon="2.72781">
        <ele>1194</ele>
        <time>2022-07-30T22:10:44.000Z</time>
      </trkpt>
      <trkpt lat="45.57281" lon="2.72783">
        <ele>1194</ele>
        <time>2022-07-30T22:10:45.000Z</time>
      </trkpt>
      <trkpt lat="45.57285" lon="2.72785">
        <ele>1194</ele>
        <time>2022-07-30T22:10:46.000Z</time>
      </trkpt>
      <trkpt lat="45.57291" lon="2.72785">
        <ele>1194</ele>
        <time>2022-07-30T22:10:47.000Z</time>
      </trkpt>
      <trkpt lat="45.57297" lon="2.72785">
        <ele>1194</ele>
        <time>2022-07-30T22:10:48.000Z</time>
      </trkpt>
      <trkpt lat="45.57302" lon="2.72782">
        <ele>1194</ele>
        <time>2022-07-30T22:10:49.000Z</time>
      </trkpt>
      <trkpt lat="45.57307" lon="2.72779">
        <ele>1194</ele>
        <time>2022-07-30T22:10:50.000Z</time>
      </trkpt>
      <trkpt lat="45.57312" lon="2.72776">
        <ele>1194</ele>
        <time>2022-07-30T22:10:51.000Z</time>
      </trkpt>
      <trkpt lat="45.57316" lon="2.72773">
        <ele>1194</ele>
        <time>2022-07-30T22:10:52.000Z</time>
      </trkpt>
      <trkpt lat="45.5732" lon="2.7277">
        <ele>1194</ele>
        <time>2022-07-30T22:10:53.000Z</time>
      </trkpt>
      <trkpt lat="45.57324" lon="2.72767">
        <ele>1194</ele>
        <time>2022-07-30T22:10:54.000Z</time>
      </trkpt>
      <trkpt lat="45.57329" lon="2.72764">
        <ele>1194</ele>
        <time>2022-07-30T22:10:55.000Z</time>
      </trkpt>
      <trkpt lat="45.57333" lon="2.72761">
        <ele>1194</ele>
        <time>2022-07-30T22:10:56.000Z</time>
      </trkpt>
      <trkpt lat="45.57337" lon="2.72758">
        <ele>1194</ele>
        <time>2022-07-30T22:10:57.000Z</time>
      </trkpt>
      <trkpt lat="45.57342" lon="2.72755">
        <ele>1194</ele>
        <time>2022-07-30T22:10:58.000Z</time>
      </trkpt>
      <trkpt lat="45.57346" lon="2.72752">
        <ele>1194</ele>
        <time>2022-07-30T22:10:59.000Z</time>
      </trkpt>
      <trkpt lat="45.5735" lon="2.72749">
        <ele>1194</ele>
        <time>2022-07-30T22:11:00.000Z</time>
      </trkpt>
      <trkpt lat="45.57354" lon="2.72746">
        <ele>1194</ele>
        <time>2022-07-30T22:11:01.000Z</time>
      </trkpt>
      <trkpt lat="45.57359" lon="2.72743">
        <ele>1191</ele>
        <time>2022-07-30T22:11:02.000Z</time>
      </trkpt>
      <trkpt lat="45.57363" lon="2.7274">
        <ele>1191</ele>
        <time>2022-07-30T22:11:03.000Z</time>
      </trkpt>
      <trkpt lat="45.57367" lon="2.72737">
        <ele>1191</ele>
        <time>2022-07-30T22:11:04.000Z</time>
      </trkpt>
      <trkpt lat="45.57372" lon="2.72734">
        <ele>1191</ele>
        <time>2022-07-30T22:11:05.000Z</time>
      </trkpt>
      <trkpt lat="45.57376" lon="2.72731">
        <ele>1191</ele>
        <time>2022-07-30T22:11:06.000Z</time>
      </trkpt>
      <trkpt lat="45.5738" lon="2.72728">
        <ele>1191</ele>
        <time>2022-07-30T22:11:07.000Z</time>
      </trkpt>
      <trkpt lat="45.57386" lon="2.72726">
        <ele>1191</ele>
        <time>2022-07-30T22:11:08.000Z</time>
      </trkpt>
      <trkpt lat="45.57392" lon="2.72725">
        <ele>1191</ele>
        <time>2022-07-30T22:11:09.000Z</time>
      </trkpt>
      <trkpt lat="45.57398" lon="2.72726">
        <ele>1191</ele>
        <time>2022-07-30T22:11:10.000Z</time>
      </trkpt>
      <trkpt lat="45.57404" lon="2.72727">
        <ele>1184</ele>
        <time>2022-07-30T22:11:11.000Z</time>
      </trkpt>
      <trkpt lat="45.57409" lon="2.7273">
        <ele>1184</ele>
        <time>2022-07-30T22:11:12.000Z</time>
      </trkpt>
      <trkpt lat="45.57415" lon="2.72734">
        <ele>1184</ele>
        <time>2022-07-30T22:11:13.000Z</time>
      </trkpt>
      <trkpt lat="45.57419" lon="2.7274">
        <ele>1184</ele>
        <time>2022-07-30T22:11:14.000Z</time>
      </trkpt>
      <trkpt lat="45.57423" lon="2.72746">
        <ele>1184</ele>
        <time>2022-07-30T22:11:15.000Z</time>
      </trkpt>
      <trkpt lat="45.57425" lon="2.72754">
        <ele>1184</ele>
        <time>2022-07-30T22:11:16.000Z</time>
      </trkpt>
      <trkpt lat="45.57428" lon="2.72761">
        <ele>1184</ele>
        <time>2022-07-30T22:11:17.000Z</time>
      </trkpt>
      <trkpt lat="45.57429" lon="2.72768">
        <ele>1184</ele>
        <time>2022-07-30T22:11:18.000Z</time>
      </trkpt>
      <trkpt lat="45.57431" lon="2.72775">
        <ele>1184</ele>
        <time>2022-07-30T22:11:19.000Z</time>
      </trkpt>
      <trkpt lat="45.57432" lon="2.72782">
        <ele>1182</ele>
        <time>2022-07-30T22:11:20.000Z</time>
      </trkpt>
      <trkpt lat="45.57434" lon="2.72789">
        <ele>1182</ele>
        <time>2022-07-30T22:11:21.000Z</time>
      </trkpt>
      <trkpt lat="45.57435" lon="2.72792">
        <ele>1182</ele>
        <time>2022-07-30T22:11:22.000Z</time>
      </trkpt>
      <trkpt lat="45.57437" lon="2.72794">
        <ele>1182</ele>
        <time>2022-07-30T22:11:23.000Z</time>
      </trkpt>
      <trkpt lat="45.57437" lon="2.72794">
        <ele>1182</ele>
        <time>2022-07-30T22:11:24.000Z</time>
      </trkpt>
      <trkpt lat="45.5744" lon="2.728">
        <ele>1182</ele>
        <time>2022-07-30T22:11:25.000Z</time>
      </trkpt>
      <trkpt lat="45.57445" lon="2.72801">
        <ele>1182</ele>
        <time>2022-07-30T22:11:26.000Z</time>
      </trkpt>
      <trkpt lat="45.57449" lon="2.72803">
        <ele>1182</ele>
        <time>2022-07-30T22:11:27.000Z</time>
      </trkpt>
      <trkpt lat="45.57456" lon="2.72799">
        <ele>1182</ele>
        <time>2022-07-30T22:11:28.000Z</time>
      </trkpt>
      <trkpt lat="45.57457" lon="2.72799">
        <ele>1182</ele>
        <time>2022-07-30T22:11:29.000Z</time>
      </trkpt>
      <trkpt lat="45.57461" lon="2.72795">
        <ele>1182</ele>
        <time>2022-07-30T22:11:30.000Z</time>
      </trkpt>
      <trkpt lat="45.57466" lon="2.72791">
        <ele>1186</ele>
        <time>2022-07-30T22:11:31.000Z</time>
      </trkpt>
      <trkpt lat="45.57465" lon="2.72791">
        <ele>1186</ele>
        <time>2022-07-30T22:11:32.000Z</time>
      </trkpt>
      <trkpt lat="45.57465" lon="2.72784">
        <ele>1186</ele>
        <time>2022-07-30T22:11:33.000Z</time>
      </trkpt>
      <trkpt lat="45.57465" lon="2.72778">
        <ele>1186</ele>
        <time>2022-07-30T22:11:34.000Z</time>
      </trkpt>
      <trkpt lat="45.57466" lon="2.72771">
        <ele>1186</ele>
        <time>2022-07-30T22:11:35.000Z</time>
      </trkpt>
      <trkpt lat="45.57466" lon="2.72764">
        <ele>1186</ele>
        <time>2022-07-30T22:11:36.000Z</time>
      </trkpt>
      <trkpt lat="45.57466" lon="2.72758">
        <ele>1186</ele>
        <time>2022-07-30T22:11:37.000Z</time>
      </trkpt>
      <trkpt lat="45.57466" lon="2.72751">
        <ele>1186</ele>
        <time>2022-07-30T22:11:38.000Z</time>
      </trkpt>
      <trkpt lat="45.57466" lon="2.72745">
        <ele>1186</ele>
        <time>2022-07-30T22:11:39.000Z</time>
      </trkpt>
      <trkpt lat="45.57466" lon="2.72738">
        <ele>1183</ele>
        <time>2022-07-30T22:11:40.000Z</time>
      </trkpt>
      <trkpt lat="45.57467" lon="2.72732">
        <ele>1186</ele>
        <time>2022-07-30T22:11:41.000Z</time>
      </trkpt>
      <trkpt lat="45.57467" lon="2.72725">
        <ele>1186</ele>
        <time>2022-07-30T22:11:42.000Z</time>
      </trkpt>
      <trkpt lat="45.57467" lon="2.72718">
        <ele>1182.4</ele>
        <time>2022-07-30T22:11:43.000Z</time>
      </trkpt>
      <trkpt lat="45.57467" lon="2.72712">
        <ele>1181.7</ele>
        <time>2022-07-30T22:11:44.000Z</time>
      </trkpt>
      <trkpt lat="45.57467" lon="2.72705">
        <ele>1186</ele>
        <time>2022-07-30T22:11:45.000Z</time>
      </trkpt>
      <trkpt lat="45.57468" lon="2.72699">
        <ele>1186</ele>
        <time>2022-07-30T22:11:46.000Z</time>
      </trkpt>
      <trkpt lat="45.57468" lon="2.72692">
        <ele>1181.1</ele>
        <time>2022-07-30T22:11:47.000Z</time>
      </trkpt>
      <trkpt lat="45.57468" lon="2.72686">
        <ele>1186</ele>
        <time>2022-07-30T22:11:48.000Z</time>
      </trkpt>
      <trkpt lat="45.57468" lon="2.72679">
        <ele>1186</ele>
        <time>2022-07-30T22:11:49.000Z</time>
      </trkpt>
      <trkpt lat="45.57468" lon="2.72672">
        <ele>1186</ele>
        <time>2022-07-30T22:11:50.000Z</time>
      </trkpt>
      <trkpt lat="45.57469" lon="2.72666">
        <ele>1186</ele>
        <time>2022-07-30T22:11:51.000Z</time>
      </trkpt>
      <trkpt lat="45.57469" lon="2.72659">
        <ele>1186</ele>
        <time>2022-07-30T22:11:52.000Z</time>
      </trkpt>
      <trkpt lat="45.57469" lon="2.72653">
        <ele>1186</ele>
        <time>2022-07-30T22:11:53.000Z</time>
      </trkpt>
      <trkpt lat="45.57469" lon="2.72646">
        <ele>1182</ele>
        <time>2022-07-30T22:11:54.000Z</time>
      </trkpt>
      <trkpt lat="45.57469" lon="2.7264">
        <ele>1182</ele>
        <time>2022-07-30T22:11:55.000Z</time>
      </trkpt>
      <trkpt lat="45.57469" lon="2.72633">
        <ele>1182</ele>
        <time>2022-07-30T22:11:56.000Z</time>
      </trkpt>
      <trkpt lat="45.5747" lon="2.72626">
        <ele>1182</ele>
        <time>2022-07-30T22:11:57.000Z</time>
      </trkpt>
      <trkpt lat="45.5747" lon="2.7262">
        <ele>1182</ele>
        <time>2022-07-30T22:11:58.000Z</time>
      </trkpt>
      <trkpt lat="45.5747" lon="2.72613">
        <ele>1182</ele>
        <time>2022-07-30T22:11:59.000Z</time>
      </trkpt>
      <trkpt lat="45.5747" lon="2.72607">
        <ele>1182</ele>
        <time>2022-07-30T22:12:00.000Z</time>
      </trkpt>
      <trkpt lat="45.5747" lon="2.726">
        <ele>1182</ele>
        <time>2022-07-30T22:12:01.000Z</time>
      </trkpt>
      <trkpt lat="45.57471" lon="2.72593">
        <ele>1182</ele>
        <time>2022-07-30T22:12:02.000Z</time>
      </trkpt>
      <trkpt lat="45.57471" lon="2.72587">
        <ele>1182</ele>
        <time>2022-07-30T22:12:03.000Z</time>
      </trkpt>
      <trkpt lat="45.57471" lon="2.7258">
        <ele>1171</ele>
        <time>2022-07-30T22:12:04.000Z</time>
      </trkpt>
      <trkpt lat="45.57471" lon="2.72573">
        <ele>1170</ele>
        <time>2022-07-30T22:12:05.000Z</time>
      </trkpt>
      <trkpt lat="45.57471" lon="2.72567">
        <ele>1170</ele>
        <time>2022-07-30T22:12:06.000Z</time>
      </trkpt>
      <trkpt lat="45.57472" lon="2.7256">
        <ele>1170</ele>
        <time>2022-07-30T22:12:07.000Z</time>
      </trkpt>
      <trkpt lat="45.57472" lon="2.72553">
        <ele>1170</ele>
        <time>2022-07-30T22:12:08.000Z</time>
      </trkpt>
      <trkpt lat="45.57472" lon="2.72547">
        <ele>1170</ele>
        <time>2022-07-30T22:12:09.000Z</time>
      </trkpt>
      <trkpt lat="45.57472" lon="2.7254">
        <ele>1170</ele>
        <time>2022-07-30T22:12:10.000Z</time>
      </trkpt>
      <trkpt lat="45.57472" lon="2.72533">
        <ele>1170</ele>
        <time>2022-07-30T22:12:11.000Z</time>
      </trkpt>
      <trkpt lat="45.57472" lon="2.72527">
        <ele>1170</ele>
        <time>2022-07-30T22:12:12.000Z</time>
      </trkpt>
      <trkpt lat="45.57473" lon="2.7252">
        <ele>1170</ele>
        <time>2022-07-30T22:12:13.000Z</time>
      </trkpt>
      <trkpt lat="45.57473" lon="2.72513">
        <ele>1170</ele>
        <time>2022-07-30T22:12:14.000Z</time>
      </trkpt>
      <trkpt lat="45.57473" lon="2.72507">
        <ele>1170</ele>
        <time>2022-07-30T22:12:15.000Z</time>
      </trkpt>
      <trkpt lat="45.57473" lon="2.725">
        <ele>1165</ele>
        <time>2022-07-30T22:12:16.000Z</time>
      </trkpt>
      <trkpt lat="45.57474" lon="2.72493">
        <ele>1165</ele>
        <time>2022-07-30T22:12:17.000Z</time>
      </trkpt>
      <trkpt lat="45.57474" lon="2.72485">
        <ele>1165</ele>
        <time>2022-07-30T22:12:18.000Z</time>
      </trkpt>
      <trkpt lat="45.57474" lon="2.72478">
        <ele>1165</ele>
        <time>2022-07-30T22:12:19.000Z</time>
      </trkpt>
      <trkpt lat="45.57474" lon="2.7247">
        <ele>1165</ele>
        <time>2022-07-30T22:12:20.000Z</time>
      </trkpt>
      <trkpt lat="45.57476" lon="2.72463">
        <ele>1165</ele>
        <time>2022-07-30T22:12:21.000Z</time>
      </trkpt>
      <trkpt lat="45.57477" lon="2.72455">
        <ele>1165</ele>
        <time>2022-07-30T22:12:22.000Z</time>
      </trkpt>
      <trkpt lat="45.57478" lon="2.72448">
        <ele>1165</ele>
        <time>2022-07-30T22:12:23.000Z</time>
      </trkpt>
      <trkpt lat="45.5748" lon="2.72439">
        <ele>1165</ele>
        <time>2022-07-30T22:12:24.000Z</time>
      </trkpt>
      <trkpt lat="45.57482" lon="2.7243">
        <ele>1165</ele>
        <time>2022-07-30T22:12:25.000Z</time>
      </trkpt>
      <trkpt lat="45.57485" lon="2.72422">
        <ele>1165</ele>
        <time>2022-07-30T22:12:26.000Z</time>
      </trkpt>
      <trkpt lat="45.57487" lon="2.72414">
        <ele>1165</ele>
        <time>2022-07-30T22:12:27.000Z</time>
      </trkpt>
      <trkpt lat="45.5749" lon="2.72408">
        <ele>1165</ele>
        <time>2022-07-30T22:12:28.000Z</time>
      </trkpt>
      <trkpt lat="45.57493" lon="2.72402">
        <ele>1165</ele>
        <time>2022-07-30T22:12:29.000Z</time>
      </trkpt>
      <trkpt lat="45.57495" lon="2.72397">
        <ele>1165</ele>
        <time>2022-07-30T22:12:30.000Z</time>
      </trkpt>
      <trkpt lat="45.57498" lon="2.72391">
        <ele>1165</ele>
        <time>2022-07-30T22:12:31.000Z</time>
      </trkpt>
      <trkpt lat="45.57501" lon="2.72384">
        <ele>1165</ele>
        <time>2022-07-30T22:12:32.000Z</time>
      </trkpt>
      <trkpt lat="45.57503" lon="2.72379">
        <ele>1165</ele>
        <time>2022-07-30T22:12:33.000Z</time>
      </trkpt>
      <trkpt lat="45.57506" lon="2.72374">
        <ele>1165</ele>
        <time>2022-07-30T22:12:34.000Z</time>
      </trkpt>
      <trkpt lat="45.57509" lon="2.72369">
        <ele>1165</ele>
        <time>2022-07-30T22:12:35.000Z</time>
      </trkpt>
      <trkpt lat="45.57512" lon="2.72364">
        <ele>1165</ele>
        <time>2022-07-30T22:12:36.000Z</time>
      </trkpt>
      <trkpt lat="45.57514" lon="2.72358">
        <ele>1165</ele>
        <time>2022-07-30T22:12:37.000Z</time>
      </trkpt>
      <trkpt lat="45.57517" lon="2.72353">
        <ele>1165</ele>
        <time>2022-07-30T22:12:38.000Z</time>
      </trkpt>
      <trkpt lat="45.5752" lon="2.72348">
        <ele>1165</ele>
        <time>2022-07-30T22:12:39.000Z</time>
      </trkpt>
      <trkpt lat="45.57522" lon="2.72343">
        <ele>1167</ele>
        <time>2022-07-30T22:12:40.000Z</time>
      </trkpt>
      <trkpt lat="45.57525" lon="2.72338">
        <ele>1167</ele>
        <time>2022-07-30T22:12:41.000Z</time>
      </trkpt>
      <trkpt lat="45.57528" lon="2.72332">
        <ele>1167</ele>
        <time>2022-07-30T22:12:42.000Z</time>
      </trkpt>
      <trkpt lat="45.57531" lon="2.72327">
        <ele>1167</ele>
        <time>2022-07-30T22:12:43.000Z</time>
      </trkpt>
      <trkpt lat="45.57533" lon="2.72322">
        <ele>1167</ele>
        <time>2022-07-30T22:12:44.000Z</time>
      </trkpt>
      <trkpt lat="45.57536" lon="2.72317">
        <ele>1167</ele>
        <time>2022-07-30T22:12:45.000Z</time>
      </trkpt>
      <trkpt lat="45.57539" lon="2.72312">
        <ele>1167</ele>
        <time>2022-07-30T22:12:46.000Z</time>
      </trkpt>
      <trkpt lat="45.57541" lon="2.72307">
        <ele>1167</ele>
        <time>2022-07-30T22:12:47.000Z</time>
      </trkpt>
      <trkpt lat="45.57544" lon="2.72301">
        <ele>1167</ele>
        <time>2022-07-30T22:12:48.000Z</time>
      </trkpt>
      <trkpt lat="45.57547" lon="2.72296">
        <ele>1167</ele>
        <time>2022-07-30T22:12:49.000Z</time>
      </trkpt>
      <trkpt lat="45.57549" lon="2.72291">
        <ele>1167</ele>
        <time>2022-07-30T22:12:50.000Z</time>
      </trkpt>
      <trkpt lat="45.57552" lon="2.72286">
        <ele>1167</ele>
        <time>2022-07-30T22:12:51.000Z</time>
      </trkpt>
      <trkpt lat="45.57555" lon="2.72281">
        <ele>1167</ele>
        <time>2022-07-30T22:12:52.000Z</time>
      </trkpt>
      <trkpt lat="45.57558" lon="2.72275">
        <ele>1167</ele>
        <time>2022-07-30T22:12:53.000Z</time>
      </trkpt>
      <trkpt lat="45.5756" lon="2.7227">
        <ele>1167</ele>
        <time>2022-07-30T22:12:54.000Z</time>
      </trkpt>
      <trkpt lat="45.57563" lon="2.72265">
        <ele>1162</ele>
        <time>2022-07-30T22:12:55.000Z</time>
      </trkpt>
      <trkpt lat="45.57566" lon="2.72259">
        <ele>1162</ele>
        <time>2022-07-30T22:12:56.000Z</time>
      </trkpt>
      <trkpt lat="45.57569" lon="2.72254">
        <ele>1162</ele>
        <time>2022-07-30T22:12:57.000Z</time>
      </trkpt>
      <trkpt lat="45.57571" lon="2.72249">
        <ele>1162</ele>
        <time>2022-07-30T22:12:58.000Z</time>
      </trkpt>
      <trkpt lat="45.57574" lon="2.72243">
        <ele>1162</ele>
        <time>2022-07-30T22:12:59.000Z</time>
      </trkpt>
      <trkpt lat="45.57577" lon="2.72238">
        <ele>1162</ele>
        <time>2022-07-30T22:13:00.000Z</time>
      </trkpt>
      <trkpt lat="45.5758" lon="2.72233">
        <ele>1162</ele>
        <time>2022-07-30T22:13:01.000Z</time>
      </trkpt>
      <trkpt lat="45.57582" lon="2.72227">
        <ele>1162</ele>
        <time>2022-07-30T22:13:02.000Z</time>
      </trkpt>
      <trkpt lat="45.57585" lon="2.72222">
        <ele>1154</ele>
        <time>2022-07-30T22:13:03.000Z</time>
      </trkpt>
      <trkpt lat="45.57589" lon="2.72217">
        <ele>1154</ele>
        <time>2022-07-30T22:13:04.000Z</time>
      </trkpt>
      <trkpt lat="45.57592" lon="2.72212">
        <ele>1154</ele>
        <time>2022-07-30T22:13:05.000Z</time>
      </trkpt>
      <trkpt lat="45.57595" lon="2.72206">
        <ele>1154</ele>
        <time>2022-07-30T22:13:06.000Z</time>
      </trkpt>
      <trkpt lat="45.57599" lon="2.72201">
        <ele>1154</ele>
        <time>2022-07-30T22:13:07.000Z</time>
      </trkpt>
      <trkpt lat="45.57602" lon="2.72196">
        <ele>1154</ele>
        <time>2022-07-30T22:13:08.000Z</time>
      </trkpt>
      <trkpt lat="45.57605" lon="2.7219">
        <ele>1152</ele>
        <time>2022-07-30T22:13:09.000Z</time>
      </trkpt>
      <trkpt lat="45.57609" lon="2.72186">
        <ele>1152</ele>
        <time>2022-07-30T22:13:10.000Z</time>
      </trkpt>
      <trkpt lat="45.57612" lon="2.72181">
        <ele>1152</ele>
        <time>2022-07-30T22:13:11.000Z</time>
      </trkpt>
      <trkpt lat="45.57615" lon="2.72177">
        <ele>1152</ele>
        <time>2022-07-30T22:13:12.000Z</time>
      </trkpt>
      <trkpt lat="45.57619" lon="2.72172">
        <ele>1152</ele>
        <time>2022-07-30T22:13:13.000Z</time>
      </trkpt>
      <trkpt lat="45.57622" lon="2.72168">
        <ele>1152</ele>
        <time>2022-07-30T22:13:14.000Z</time>
      </trkpt>
      <trkpt lat="45.57626" lon="2.72163">
        <ele>1152</ele>
        <time>2022-07-30T22:13:15.000Z</time>
      </trkpt>
      <trkpt lat="45.57629" lon="2.72158">
        <ele>1152</ele>
        <time>2022-07-30T22:13:16.000Z</time>
      </trkpt>
      <trkpt lat="45.57633" lon="2.72155">
        <ele>1152</ele>
        <time>2022-07-30T22:13:17.000Z</time>
      </trkpt>
      <trkpt lat="45.57637" lon="2.72151">
        <ele>1152</ele>
        <time>2022-07-30T22:13:18.000Z</time>
      </trkpt>
      <trkpt lat="45.57642" lon="2.72148">
        <ele>1152</ele>
        <time>2022-07-30T22:13:19.000Z</time>
      </trkpt>
      <trkpt lat="45.57646" lon="2.72144">
        <ele>1152</ele>
        <time>2022-07-30T22:13:20.000Z</time>
      </trkpt>
      <trkpt lat="45.5765" lon="2.72141">
        <ele>1152</ele>
        <time>2022-07-30T22:13:21.000Z</time>
      </trkpt>
      <trkpt lat="45.57654" lon="2.72137">
        <ele>1152</ele>
        <time>2022-07-30T22:13:22.000Z</time>
      </trkpt>
      <trkpt lat="45.57658" lon="2.72134">
        <ele>1152</ele>
        <time>2022-07-30T22:13:23.000Z</time>
      </trkpt>
      <trkpt lat="45.57663" lon="2.7213">
        <ele>1152</ele>
        <time>2022-07-30T22:13:24.000Z</time>
      </trkpt>
      <trkpt lat="45.57667" lon="2.72127">
        <ele>1146</ele>
        <time>2022-07-30T22:13:25.000Z</time>
      </trkpt>
      <trkpt lat="45.57671" lon="2.72123">
        <ele>1146</ele>
        <time>2022-07-30T22:13:26.000Z</time>
      </trkpt>
      <trkpt lat="45.57675" lon="2.7212">
        <ele>1146</ele>
        <time>2022-07-30T22:13:27.000Z</time>
      </trkpt>
      <trkpt lat="45.57679" lon="2.72117">
        <ele>1146</ele>
        <time>2022-07-30T22:13:28.000Z</time>
      </trkpt>
      <trkpt lat="45.57683" lon="2.72113">
        <ele>1143</ele>
        <time>2022-07-30T22:13:29.000Z</time>
      </trkpt>
      <trkpt lat="45.57687" lon="2.7211">
        <ele>1143</ele>
        <time>2022-07-30T22:13:30.000Z</time>
      </trkpt>
      <trkpt lat="45.57691" lon="2.72107">
        <ele>1143</ele>
        <time>2022-07-30T22:13:31.000Z</time>
      </trkpt>
      <trkpt lat="45.57695" lon="2.72104">
        <ele>1143</ele>
        <time>2022-07-30T22:13:32.000Z</time>
      </trkpt>
      <trkpt lat="45.57699" lon="2.72101">
        <ele>1143</ele>
        <time>2022-07-30T22:13:33.000Z</time>
      </trkpt>
      <trkpt lat="45.57703" lon="2.72099">
        <ele>1143</ele>
        <time>2022-07-30T22:13:34.000Z</time>
      </trkpt>
      <trkpt lat="45.57708" lon="2.72096">
        <ele>1143</ele>
        <time>2022-07-30T22:13:35.000Z</time>
      </trkpt>
      <trkpt lat="45.57712" lon="2.72094">
        <ele>1143</ele>
        <time>2022-07-30T22:13:36.000Z</time>
      </trkpt>
      <trkpt lat="45.57717" lon="2.72092">
        <ele>1143</ele>
        <time>2022-07-30T22:13:37.000Z</time>
      </trkpt>
      <trkpt lat="45.57722" lon="2.72089">
        <ele>1143</ele>
        <time>2022-07-30T22:13:38.000Z</time>
      </trkpt>
      <trkpt lat="45.57726" lon="2.72087">
        <ele>1143</ele>
        <time>2022-07-30T22:13:39.000Z</time>
      </trkpt>
      <trkpt lat="45.57731" lon="2.72085">
        <ele>1143</ele>
        <time>2022-07-30T22:13:40.000Z</time>
      </trkpt>
      <trkpt lat="45.57736" lon="2.72083">
        <ele>1143</ele>
        <time>2022-07-30T22:13:41.000Z</time>
      </trkpt>
      <trkpt lat="45.57741" lon="2.72082">
        <ele>1143</ele>
        <time>2022-07-30T22:13:42.000Z</time>
      </trkpt>
      <trkpt lat="45.57747" lon="2.72081">
        <ele>1143</ele>
        <time>2022-07-30T22:13:43.000Z</time>
      </trkpt>
      <trkpt lat="45.57752" lon="2.7208">
        <ele>1143</ele>
        <time>2022-07-30T22:13:44.000Z</time>
      </trkpt>
      <trkpt lat="45.57757" lon="2.72079">
        <ele>1143</ele>
        <time>2022-07-30T22:13:45.000Z</time>
      </trkpt>
      <trkpt lat="45.57764" lon="2.72078">
        <ele>1143</ele>
        <time>2022-07-30T22:13:46.000Z</time>
      </trkpt>
      <trkpt lat="45.5777" lon="2.72078">
        <ele>1143</ele>
        <time>2022-07-30T22:13:47.000Z</time>
      </trkpt>
      <trkpt lat="45.57775" lon="2.72077">
        <ele>1144</ele>
        <time>2022-07-30T22:13:48.000Z</time>
      </trkpt>
      <trkpt lat="45.57781" lon="2.72076">
        <ele>1137</ele>
        <time>2022-07-30T22:13:49.000Z</time>
      </trkpt>
      <trkpt lat="45.57786" lon="2.72075">
        <ele>1137</ele>
        <time>2022-07-30T22:13:50.000Z</time>
      </trkpt>
      <trkpt lat="45.57792" lon="2.72075">
        <ele>1137</ele>
        <time>2022-07-30T22:13:51.000Z</time>
      </trkpt>
      <trkpt lat="45.57797" lon="2.72074">
        <ele>1137</ele>
        <time>2022-07-30T22:13:52.000Z</time>
      </trkpt>
      <trkpt lat="45.57802" lon="2.72073">
        <ele>1137</ele>
        <time>2022-07-30T22:13:53.000Z</time>
      </trkpt>
      <trkpt lat="45.57807" lon="2.72071">
        <ele>1137</ele>
        <time>2022-07-30T22:13:54.000Z</time>
      </trkpt>
      <trkpt lat="45.57812" lon="2.7207">
        <ele>1137</ele>
        <time>2022-07-30T22:13:55.000Z</time>
      </trkpt>
      <trkpt lat="45.57817" lon="2.72069">
        <ele>1137</ele>
        <time>2022-07-30T22:13:56.000Z</time>
      </trkpt>
      <trkpt lat="45.57821" lon="2.72068">
        <ele>1137</ele>
        <time>2022-07-30T22:13:57.000Z</time>
      </trkpt>
      <trkpt lat="45.57826" lon="2.72066">
        <ele>1137</ele>
        <time>2022-07-30T22:13:58.000Z</time>
      </trkpt>
      <trkpt lat="45.57831" lon="2.72065">
        <ele>1137</ele>
        <time>2022-07-30T22:13:59.000Z</time>
      </trkpt>
      <trkpt lat="45.57836" lon="2.72064">
        <ele>1137</ele>
        <time>2022-07-30T22:14:00.000Z</time>
      </trkpt>
      <trkpt lat="45.57841" lon="2.72062">
        <ele>1137</ele>
        <time>2022-07-30T22:14:01.000Z</time>
      </trkpt>
      <trkpt lat="45.57845" lon="2.72061">
        <ele>1137</ele>
        <time>2022-07-30T22:14:02.000Z</time>
      </trkpt>
      <trkpt lat="45.5785" lon="2.72056">
        <ele>1137</ele>
        <time>2022-07-30T22:14:03.000Z</time>
      </trkpt>
      <trkpt lat="45.57854" lon="2.72051">
        <ele>1138</ele>
        <time>2022-07-30T22:14:04.000Z</time>
      </trkpt>
      <trkpt lat="45.57858" lon="2.72046">
        <ele>1138</ele>
        <time>2022-07-30T22:14:05.000Z</time>
      </trkpt>
      <trkpt lat="45.57861" lon="2.72041">
        <ele>1138</ele>
        <time>2022-07-30T22:14:06.000Z</time>
      </trkpt>
      <trkpt lat="45.57864" lon="2.72036">
        <ele>1138</ele>
        <time>2022-07-30T22:14:07.000Z</time>
      </trkpt>
      <trkpt lat="45.57867" lon="2.72031">
        <ele>1138</ele>
        <time>2022-07-30T22:14:08.000Z</time>
      </trkpt>
      <trkpt lat="45.57869" lon="2.72025">
        <ele>1138</ele>
        <time>2022-07-30T22:14:09.000Z</time>
      </trkpt>
      <trkpt lat="45.57871" lon="2.72018">
        <ele>1138</ele>
        <time>2022-07-30T22:14:10.000Z</time>
      </trkpt>
      <trkpt lat="45.57872" lon="2.72012">
        <ele>1138</ele>
        <time>2022-07-30T22:14:11.000Z</time>
      </trkpt>
      <trkpt lat="45.57873" lon="2.72005">
        <ele>1138</ele>
        <time>2022-07-30T22:14:12.000Z</time>
      </trkpt>
      <trkpt lat="45.57874" lon="2.71999">
        <ele>1138</ele>
        <time>2022-07-30T22:14:13.000Z</time>
      </trkpt>
      <trkpt lat="45.57875" lon="2.71992">
        <ele>1138</ele>
        <time>2022-07-30T22:14:14.000Z</time>
      </trkpt>
      <trkpt lat="45.57875" lon="2.71986">
        <ele>1138</ele>
        <time>2022-07-30T22:14:15.000Z</time>
      </trkpt>
      <trkpt lat="45.57876" lon="2.71979">
        <ele>1138</ele>
        <time>2022-07-30T22:14:16.000Z</time>
      </trkpt>
      <trkpt lat="45.57876" lon="2.71973">
        <ele>1138</ele>
        <time>2022-07-30T22:14:17.000Z</time>
      </trkpt>
      <trkpt lat="45.57877" lon="2.71966">
        <ele>1138</ele>
        <time>2022-07-30T22:14:18.000Z</time>
      </trkpt>
      <trkpt lat="45.57877" lon="2.7196">
        <ele>1138</ele>
        <time>2022-07-30T22:14:19.000Z</time>
      </trkpt>
      <trkpt lat="45.57877" lon="2.71953">
        <ele>1138</ele>
        <time>2022-07-30T22:14:20.000Z</time>
      </trkpt>
      <trkpt lat="45.57878" lon="2.71947">
        <ele>1138</ele>
        <time>2022-07-30T22:14:21.000Z</time>
      </trkpt>
      <trkpt lat="45.57878" lon="2.7194">
        <ele>1138</ele>
        <time>2022-07-30T22:14:22.000Z</time>
      </trkpt>
      <trkpt lat="45.57878" lon="2.71934">
        <ele>1138</ele>
        <time>2022-07-30T22:14:23.000Z</time>
      </trkpt>
      <trkpt lat="45.57879" lon="2.71927">
        <ele>1138</ele>
        <time>2022-07-30T22:14:24.000Z</time>
      </trkpt>
      <trkpt lat="45.57879" lon="2.71921">
        <ele>1135</ele>
        <time>2022-07-30T22:14:25.000Z</time>
      </trkpt>
      <trkpt lat="45.57879" lon="2.71914">
        <ele>1135</ele>
        <time>2022-07-30T22:14:26.000Z</time>
      </trkpt>
      <trkpt lat="45.57879" lon="2.71907">
        <ele>1135</ele>
        <time>2022-07-30T22:14:27.000Z</time>
      </trkpt>
      <trkpt lat="45.5788" lon="2.719">
        <ele>1135</ele>
        <time>2022-07-30T22:14:28.000Z</time>
      </trkpt>
      <trkpt lat="45.5788" lon="2.71893">
        <ele>1135</ele>
        <time>2022-07-30T22:14:29.000Z</time>
      </trkpt>
      <trkpt lat="45.5788" lon="2.71886">
        <ele>1135</ele>
        <time>2022-07-30T22:14:30.000Z</time>
      </trkpt>
      <trkpt lat="45.5788" lon="2.71879">
        <ele>1135</ele>
        <time>2022-07-30T22:14:31.000Z</time>
      </trkpt>
      <trkpt lat="45.57881" lon="2.71872">
        <ele>1135</ele>
        <time>2022-07-30T22:14:32.000Z</time>
      </trkpt>
      <trkpt lat="45.57882" lon="2.71866">
        <ele>1135</ele>
        <time>2022-07-30T22:14:33.000Z</time>
      </trkpt>
      <trkpt lat="45.57882" lon="2.71859">
        <ele>1135</ele>
        <time>2022-07-30T22:14:34.000Z</time>
      </trkpt>
      <trkpt lat="45.57883" lon="2.71852">
        <ele>1135</ele>
        <time>2022-07-30T22:14:35.000Z</time>
      </trkpt>
      <trkpt lat="45.57885" lon="2.71844">
        <ele>1135</ele>
        <time>2022-07-30T22:14:36.000Z</time>
      </trkpt>
      <trkpt lat="45.57886" lon="2.71836">
        <ele>1135</ele>
        <time>2022-07-30T22:14:37.000Z</time>
      </trkpt>
      <trkpt lat="45.57887" lon="2.71828">
        <ele>1132</ele>
        <time>2022-07-30T22:14:38.000Z</time>
      </trkpt>
      <trkpt lat="45.57888" lon="2.71821">
        <ele>1132</ele>
        <time>2022-07-30T22:14:39.000Z</time>
      </trkpt>
      <trkpt lat="45.5789" lon="2.71814">
        <ele>1132</ele>
        <time>2022-07-30T22:14:40.000Z</time>
      </trkpt>
      <trkpt lat="45.57891" lon="2.71807">
        <ele>1132</ele>
        <time>2022-07-30T22:14:41.000Z</time>
      </trkpt>
      <trkpt lat="45.57893" lon="2.71801">
        <ele>1132</ele>
        <time>2022-07-30T22:14:42.000Z</time>
      </trkpt>
      <trkpt lat="45.57894" lon="2.71794">
        <ele>1132</ele>
        <time>2022-07-30T22:14:43.000Z</time>
      </trkpt>
      <trkpt lat="45.57895" lon="2.71787">
        <ele>1132</ele>
        <time>2022-07-30T22:14:44.000Z</time>
      </trkpt>
      <trkpt lat="45.57897" lon="2.71781">
        <ele>1132</ele>
        <time>2022-07-30T22:14:45.000Z</time>
      </trkpt>
      <trkpt lat="45.57897" lon="2.71771">
        <ele>1132</ele>
        <time>2022-07-30T22:14:46.000Z</time>
      </trkpt>
      <trkpt lat="45.57898" lon="2.71762">
        <ele>1132</ele>
        <time>2022-07-30T22:14:47.000Z</time>
      </trkpt>
      <trkpt lat="45.57898" lon="2.71754">
        <ele>1132</ele>
        <time>2022-07-30T22:14:48.000Z</time>
      </trkpt>
      <trkpt lat="45.57897" lon="2.71747">
        <ele>1132</ele>
        <time>2022-07-30T22:14:49.000Z</time>
      </trkpt>
      <trkpt lat="45.57897" lon="2.71739">
        <ele>1104</ele>
        <time>2022-07-30T22:14:50.000Z</time>
      </trkpt>
      <trkpt lat="45.57896" lon="2.71731">
        <ele>1104</ele>
        <time>2022-07-30T22:14:51.000Z</time>
      </trkpt>
      <trkpt lat="45.57896" lon="2.71724">
        <ele>1104</ele>
        <time>2022-07-30T22:14:52.000Z</time>
      </trkpt>
      <trkpt lat="45.57896" lon="2.71717">
        <ele>1104</ele>
        <time>2022-07-30T22:14:53.000Z</time>
      </trkpt>
      <trkpt lat="45.57896" lon="2.71711">
        <ele>1104</ele>
        <time>2022-07-30T22:14:54.000Z</time>
      </trkpt>
      <trkpt lat="45.57896" lon="2.71704">
        <ele>1104</ele>
        <time>2022-07-30T22:14:55.000Z</time>
      </trkpt>
      <trkpt lat="45.57897" lon="2.71697">
        <ele>1104</ele>
        <time>2022-07-30T22:14:56.000Z</time>
      </trkpt>
      <trkpt lat="45.57898" lon="2.71691">
        <ele>1104</ele>
        <time>2022-07-30T22:14:57.000Z</time>
      </trkpt>
      <trkpt lat="45.57899" lon="2.71684">
        <ele>1104</ele>
        <time>2022-07-30T22:14:58.000Z</time>
      </trkpt>
      <trkpt lat="45.579" lon="2.71677">
        <ele>1104</ele>
        <time>2022-07-30T22:14:59.000Z</time>
      </trkpt>
      <trkpt lat="45.57901" lon="2.7167">
        <ele>1104</ele>
        <time>2022-07-30T22:15:00.000Z</time>
      </trkpt>
      <trkpt lat="45.57902" lon="2.71663">
        <ele>1104</ele>
        <time>2022-07-30T22:15:01.000Z</time>
      </trkpt>
      <trkpt lat="45.57902" lon="2.71654">
        <ele>1105</ele>
        <time>2022-07-30T22:15:02.000Z</time>
      </trkpt>
      <trkpt lat="45.57902" lon="2.71644">
        <ele>1105</ele>
        <time>2022-07-30T22:15:03.000Z</time>
      </trkpt>
      <trkpt lat="45.579" lon="2.71637">
        <ele>1105</ele>
        <time>2022-07-30T22:15:04.000Z</time>
      </trkpt>
      <trkpt lat="45.57898" lon="2.71629">
        <ele>1105</ele>
        <time>2022-07-30T22:15:05.000Z</time>
      </trkpt>
      <trkpt lat="45.57897" lon="2.71621">
        <ele>1105</ele>
        <time>2022-07-30T22:15:06.000Z</time>
      </trkpt>
      <trkpt lat="45.57895" lon="2.71614">
        <ele>1105</ele>
        <time>2022-07-30T22:15:07.000Z</time>
      </trkpt>
      <trkpt lat="45.57895" lon="2.71605">
        <ele>1105</ele>
        <time>2022-07-30T22:15:08.000Z</time>
      </trkpt>
      <trkpt lat="45.57894" lon="2.71596">
        <ele>1105</ele>
        <time>2022-07-30T22:15:09.000Z</time>
      </trkpt>
      <trkpt lat="45.57894" lon="2.71589">
        <ele>1105</ele>
        <time>2022-07-30T22:15:10.000Z</time>
      </trkpt>
      <trkpt lat="45.57894" lon="2.71583">
        <ele>1105</ele>
        <time>2022-07-30T22:15:11.000Z</time>
      </trkpt>
      <trkpt lat="45.57895" lon="2.71576">
        <ele>1105</ele>
        <time>2022-07-30T22:15:12.000Z</time>
      </trkpt>
      <trkpt lat="45.57895" lon="2.7157">
        <ele>1105</ele>
        <time>2022-07-30T22:15:13.000Z</time>
      </trkpt>
      <trkpt lat="45.57895" lon="2.71564">
        <ele>1104</ele>
        <time>2022-07-30T22:15:14.000Z</time>
      </trkpt>
      <trkpt lat="45.57895" lon="2.71557">
        <ele>1104</ele>
        <time>2022-07-30T22:15:15.000Z</time>
      </trkpt>
      <trkpt lat="45.57897" lon="2.7155">
        <ele>1104</ele>
        <time>2022-07-30T22:15:16.000Z</time>
      </trkpt>
      <trkpt lat="45.57898" lon="2.71542">
        <ele>1104</ele>
        <time>2022-07-30T22:15:17.000Z</time>
      </trkpt>
      <trkpt lat="45.57899" lon="2.71535">
        <ele>1104</ele>
        <time>2022-07-30T22:15:18.000Z</time>
      </trkpt>
      <trkpt lat="45.57901" lon="2.71527">
        <ele>1104</ele>
        <time>2022-07-30T22:15:19.000Z</time>
      </trkpt>
      <trkpt lat="45.57903" lon="2.7152">
        <ele>1104</ele>
        <time>2022-07-30T22:15:20.000Z</time>
      </trkpt>
      <trkpt lat="45.57905" lon="2.71513">
        <ele>1104</ele>
        <time>2022-07-30T22:15:21.000Z</time>
      </trkpt>
      <trkpt lat="45.57907" lon="2.71506">
        <ele>1104</ele>
        <time>2022-07-30T22:15:22.000Z</time>
      </trkpt>
      <trkpt lat="45.57909" lon="2.71499">
        <ele>1104</ele>
        <time>2022-07-30T22:15:23.000Z</time>
      </trkpt>
      <trkpt lat="45.5791" lon="2.71492">
        <ele>1104</ele>
        <time>2022-07-30T22:15:24.000Z</time>
      </trkpt>
      <trkpt lat="45.57912" lon="2.71485">
        <ele>1104</ele>
        <time>2022-07-30T22:15:25.000Z</time>
      </trkpt>
      <trkpt lat="45.57913" lon="2.71479">
        <ele>1104</ele>
        <time>2022-07-30T22:15:26.000Z</time>
      </trkpt>
      <trkpt lat="45.57914" lon="2.71472">
        <ele>1102</ele>
        <time>2022-07-30T22:15:27.000Z</time>
      </trkpt>
      <trkpt lat="45.57915" lon="2.71465">
        <ele>1102</ele>
        <time>2022-07-30T22:15:28.000Z</time>
      </trkpt>
      <trkpt lat="45.57916" lon="2.71459">
        <ele>1102</ele>
        <time>2022-07-30T22:15:29.000Z</time>
      </trkpt>
      <trkpt lat="45.57917" lon="2.71452">
        <ele>1102</ele>
        <time>2022-07-30T22:15:30.000Z</time>
      </trkpt>
      <trkpt lat="45.57918" lon="2.71446">
        <ele>1102</ele>
        <time>2022-07-30T22:15:31.000Z</time>
      </trkpt>
      <trkpt lat="45.5792" lon="2.7144">
        <ele>1102</ele>
        <time>2022-07-30T22:15:32.000Z</time>
      </trkpt>
      <trkpt lat="45.57922" lon="2.71434">
        <ele>1102</ele>
        <time>2022-07-30T22:15:33.000Z</time>
      </trkpt>
      <trkpt lat="45.57923" lon="2.71428">
        <ele>1102</ele>
        <time>2022-07-30T22:15:34.000Z</time>
      </trkpt>
      <trkpt lat="45.57925" lon="2.71422">
        <ele>1102</ele>
        <time>2022-07-30T22:15:35.000Z</time>
      </trkpt>
      <trkpt lat="45.57926" lon="2.71416">
        <ele>1102</ele>
        <time>2022-07-30T22:15:36.000Z</time>
      </trkpt>
      <trkpt lat="45.57928" lon="2.7141">
        <ele>1102</ele>
        <time>2022-07-30T22:15:37.000Z</time>
      </trkpt>
      <trkpt lat="45.5793" lon="2.71404">
        <ele>1102</ele>
        <time>2022-07-30T22:15:38.000Z</time>
      </trkpt>
      <trkpt lat="45.57932" lon="2.71398">
        <ele>1099</ele>
        <time>2022-07-30T22:15:39.000Z</time>
      </trkpt>
      <trkpt lat="45.57934" lon="2.71393">
        <ele>1099</ele>
        <time>2022-07-30T22:15:40.000Z</time>
      </trkpt>
      <trkpt lat="45.57936" lon="2.71387">
        <ele>1099</ele>
        <time>2022-07-30T22:15:41.000Z</time>
      </trkpt>
      <trkpt lat="45.57939" lon="2.7138">
        <ele>1099</ele>
        <time>2022-07-30T22:15:42.000Z</time>
      </trkpt>
      <trkpt lat="45.57943" lon="2.71374">
        <ele>1099</ele>
        <time>2022-07-30T22:15:43.000Z</time>
      </trkpt>
      <trkpt lat="45.57946" lon="2.71367">
        <ele>1099</ele>
        <time>2022-07-30T22:15:44.000Z</time>
      </trkpt>
      <trkpt lat="45.57949" lon="2.71361">
        <ele>1099</ele>
        <time>2022-07-30T22:15:45.000Z</time>
      </trkpt>
      <trkpt lat="45.57952" lon="2.71356">
        <ele>1099</ele>
        <time>2022-07-30T22:15:46.000Z</time>
      </trkpt>
      <trkpt lat="45.57955" lon="2.7135">
        <ele>1099</ele>
        <time>2022-07-30T22:15:47.000Z</time>
      </trkpt>
      <trkpt lat="45.57957" lon="2.71343">
        <ele>1099</ele>
        <time>2022-07-30T22:15:48.000Z</time>
      </trkpt>
      <trkpt lat="45.57959" lon="2.71336">
        <ele>1099</ele>
        <time>2022-07-30T22:15:49.000Z</time>
      </trkpt>
      <trkpt lat="45.57961" lon="2.7133">
        <ele>1099</ele>
        <time>2022-07-30T22:15:50.000Z</time>
      </trkpt>
      <trkpt lat="45.57963" lon="2.71323">
        <ele>1101</ele>
        <time>2022-07-30T22:15:51.000Z</time>
      </trkpt>
      <trkpt lat="45.57965" lon="2.71316">
        <ele>1101</ele>
        <time>2022-07-30T22:15:52.000Z</time>
      </trkpt>
      <trkpt lat="45.57967" lon="2.71309">
        <ele>1101</ele>
        <time>2022-07-30T22:15:53.000Z</time>
      </trkpt>
      <trkpt lat="45.57969" lon="2.71303">
        <ele>1101</ele>
        <time>2022-07-30T22:15:54.000Z</time>
      </trkpt>
      <trkpt lat="45.57971" lon="2.71296">
        <ele>1101</ele>
        <time>2022-07-30T22:15:55.000Z</time>
      </trkpt>
      <trkpt lat="45.57973" lon="2.7129">
        <ele>1101</ele>
        <time>2022-07-30T22:15:56.000Z</time>
      </trkpt>
      <trkpt lat="45.57974" lon="2.71284">
        <ele>1101</ele>
        <time>2022-07-30T22:15:57.000Z</time>
      </trkpt>
      <trkpt lat="45.57976" lon="2.71277">
        <ele>1101</ele>
        <time>2022-07-30T22:15:58.000Z</time>
      </trkpt>
      <trkpt lat="45.57978" lon="2.71271">
        <ele>1101</ele>
        <time>2022-07-30T22:15:59.000Z</time>
      </trkpt>
      <trkpt lat="45.5798" lon="2.71265">
        <ele>1101</ele>
        <time>2022-07-30T22:16:00.000Z</time>
      </trkpt>
      <trkpt lat="45.57982" lon="2.71258">
        <ele>1101</ele>
        <time>2022-07-30T22:16:01.000Z</time>
      </trkpt>
      <trkpt lat="45.57983" lon="2.71252">
        <ele>1101</ele>
        <time>2022-07-30T22:16:02.000Z</time>
      </trkpt>
      <trkpt lat="45.57985" lon="2.71246">
        <ele>1101</ele>
        <time>2022-07-30T22:16:03.000Z</time>
      </trkpt>
      <trkpt lat="45.57987" lon="2.7124">
        <ele>1101</ele>
        <time>2022-07-30T22:16:04.000Z</time>
      </trkpt>
      <trkpt lat="45.57989" lon="2.71234">
        <ele>1101</ele>
        <time>2022-07-30T22:16:05.000Z</time>
      </trkpt>
      <trkpt lat="45.57991" lon="2.71228">
        <ele>1099</ele>
        <time>2022-07-30T22:16:06.000Z</time>
      </trkpt>
      <trkpt lat="45.57992" lon="2.71221">
        <ele>1099</ele>
        <time>2022-07-30T22:16:07.000Z</time>
      </trkpt>
      <trkpt lat="45.57994" lon="2.71215">
        <ele>1099</ele>
        <time>2022-07-30T22:16:08.000Z</time>
      </trkpt>
      <trkpt lat="45.57996" lon="2.71209">
        <ele>1099</ele>
        <time>2022-07-30T22:16:09.000Z</time>
      </trkpt>
      <trkpt lat="45.57998" lon="2.71203">
        <ele>1099</ele>
        <time>2022-07-30T22:16:10.000Z</time>
      </trkpt>
      <trkpt lat="45.58" lon="2.71197">
        <ele>1072</ele>
        <time>2022-07-30T22:16:11.000Z</time>
      </trkpt>
      <trkpt lat="45.58001" lon="2.71191">
        <ele>1072</ele>
        <time>2022-07-30T22:16:12.000Z</time>
      </trkpt>
      <trkpt lat="45.58003" lon="2.71184">
        <ele>1072</ele>
        <time>2022-07-30T22:16:13.000Z</time>
      </trkpt>
      <trkpt lat="45.58005" lon="2.71178">
        <ele>1072</ele>
        <time>2022-07-30T22:16:14.000Z</time>
      </trkpt>
      <trkpt lat="45.58007" lon="2.71172">
        <ele>1072</ele>
        <time>2022-07-30T22:16:15.000Z</time>
      </trkpt>
      <trkpt lat="45.58009" lon="2.71166">
        <ele>1072</ele>
        <time>2022-07-30T22:16:16.000Z</time>
      </trkpt>
      <trkpt lat="45.5801" lon="2.7116">
        <ele>1072</ele>
        <time>2022-07-30T22:16:17.000Z</time>
      </trkpt>
      <trkpt lat="45.58012" lon="2.71154">
        <ele>1077</ele>
        <time>2022-07-30T22:16:18.000Z</time>
      </trkpt>
      <trkpt lat="45.58014" lon="2.71148">
        <ele>1077</ele>
        <time>2022-07-30T22:16:19.000Z</time>
      </trkpt>
      <trkpt lat="45.58016" lon="2.71142">
        <ele>1077</ele>
        <time>2022-07-30T22:16:20.000Z</time>
      </trkpt>
      <trkpt lat="45.58017" lon="2.71136">
        <ele>1077</ele>
        <time>2022-07-30T22:16:21.000Z</time>
      </trkpt>
      <trkpt lat="45.58019" lon="2.7113">
        <ele>1077</ele>
        <time>2022-07-30T22:16:22.000Z</time>
      </trkpt>
      <trkpt lat="45.58021" lon="2.71124">
        <ele>1077</ele>
        <time>2022-07-30T22:16:23.000Z</time>
      </trkpt>
      <trkpt lat="45.58023" lon="2.71118">
        <ele>1077</ele>
        <time>2022-07-30T22:16:24.000Z</time>
      </trkpt>
      <trkpt lat="45.58025" lon="2.71113">
        <ele>1077</ele>
        <time>2022-07-30T22:16:25.000Z</time>
      </trkpt>
      <trkpt lat="45.58028" lon="2.71107">
        <ele>1077</ele>
        <time>2022-07-30T22:16:26.000Z</time>
      </trkpt>
      <trkpt lat="45.5803" lon="2.71101">
        <ele>1077</ele>
        <time>2022-07-30T22:16:27.000Z</time>
      </trkpt>
      <trkpt lat="45.58032" lon="2.71095">
        <ele>1077</ele>
        <time>2022-07-30T22:16:28.000Z</time>
      </trkpt>
      <trkpt lat="45.58034" lon="2.7109">
        <ele>1077</ele>
        <time>2022-07-30T22:16:29.000Z</time>
      </trkpt>
      <trkpt lat="45.58036" lon="2.71084">
        <ele>1077</ele>
        <time>2022-07-30T22:16:30.000Z</time>
      </trkpt>
      <trkpt lat="45.58038" lon="2.71078">
        <ele>1086</ele>
        <time>2022-07-30T22:16:31.000Z</time>
      </trkpt>
      <trkpt lat="45.5804" lon="2.71073">
        <ele>1086</ele>
        <time>2022-07-30T22:16:32.000Z</time>
      </trkpt>
      <trkpt lat="45.58042" lon="2.71067">
        <ele>1086</ele>
        <time>2022-07-30T22:16:33.000Z</time>
      </trkpt>
      <trkpt lat="45.58044" lon="2.71061">
        <ele>1086</ele>
        <time>2022-07-30T22:16:34.000Z</time>
      </trkpt>
      <trkpt lat="45.58047" lon="2.71056">
        <ele>1086</ele>
        <time>2022-07-30T22:16:35.000Z</time>
      </trkpt>
      <trkpt lat="45.58049" lon="2.7105">
        <ele>1086</ele>
        <time>2022-07-30T22:16:36.000Z</time>
      </trkpt>
      <trkpt lat="45.58052" lon="2.71044">
        <ele>1086</ele>
        <time>2022-07-30T22:16:37.000Z</time>
      </trkpt>
      <trkpt lat="45.58056" lon="2.71039">
        <ele>1086</ele>
        <time>2022-07-30T22:16:38.000Z</time>
      </trkpt>
      <trkpt lat="45.58059" lon="2.71033">
        <ele>1086</ele>
        <time>2022-07-30T22:16:39.000Z</time>
      </trkpt>
      <trkpt lat="45.58063" lon="2.71027">
        <ele>1086</ele>
        <time>2022-07-30T22:16:40.000Z</time>
      </trkpt>
      <trkpt lat="45.58068" lon="2.71025">
        <ele>1086</ele>
        <time>2022-07-30T22:16:41.000Z</time>
      </trkpt>
      <trkpt lat="45.58072" lon="2.71022">
        <ele>1086</ele>
        <time>2022-07-30T22:16:42.000Z</time>
      </trkpt>
      <trkpt lat="45.58077" lon="2.71019">
        <ele>1086</ele>
        <time>2022-07-30T22:16:43.000Z</time>
      </trkpt>
      <trkpt lat="45.58082" lon="2.71016">
        <ele>1090</ele>
        <time>2022-07-30T22:16:44.000Z</time>
      </trkpt>
      <trkpt lat="45.58086" lon="2.71014">
        <ele>1090</ele>
        <time>2022-07-30T22:16:45.000Z</time>
      </trkpt>
      <trkpt lat="45.58091" lon="2.71012">
        <ele>1090</ele>
        <time>2022-07-30T22:16:46.000Z</time>
      </trkpt>
      <trkpt lat="45.58095" lon="2.7101">
        <ele>1090</ele>
        <time>2022-07-30T22:16:47.000Z</time>
      </trkpt>
      <trkpt lat="45.581" lon="2.71008">
        <ele>1090</ele>
        <time>2022-07-30T22:16:48.000Z</time>
      </trkpt>
      <trkpt lat="45.58105" lon="2.71007">
        <ele>1090</ele>
        <time>2022-07-30T22:16:49.000Z</time>
      </trkpt>
      <trkpt lat="45.5811" lon="2.71007">
        <ele>1077</ele>
        <time>2022-07-30T22:16:50.000Z</time>
      </trkpt>
      <trkpt lat="45.58116" lon="2.71006">
        <ele>1077</ele>
        <time>2022-07-30T22:16:51.000Z</time>
      </trkpt>
      <trkpt lat="45.58121" lon="2.71005">
        <ele>1077</ele>
        <time>2022-07-30T22:16:52.000Z</time>
      </trkpt>
      <trkpt lat="45.58126" lon="2.71008">
        <ele>1077</ele>
        <time>2022-07-30T22:16:53.000Z</time>
      </trkpt>
      <trkpt lat="45.58131" lon="2.7101">
        <ele>1077</ele>
        <time>2022-07-30T22:16:54.000Z</time>
      </trkpt>
      <trkpt lat="45.58135" lon="2.71012">
        <ele>1077</ele>
        <time>2022-07-30T22:16:55.000Z</time>
      </trkpt>
      <trkpt lat="45.5814" lon="2.71014">
        <ele>1077</ele>
        <time>2022-07-30T22:16:56.000Z</time>
      </trkpt>
      <trkpt lat="45.58146" lon="2.71015">
        <ele>1077</ele>
        <time>2022-07-30T22:16:57.000Z</time>
      </trkpt>
      <trkpt lat="45.58151" lon="2.71017">
        <ele>1077</ele>
        <time>2022-07-30T22:16:58.000Z</time>
      </trkpt>
      <trkpt lat="45.58157" lon="2.71018">
        <ele>1077</ele>
        <time>2022-07-30T22:16:59.000Z</time>
      </trkpt>
      <trkpt lat="45.58162" lon="2.7102">
        <ele>1077</ele>
        <time>2022-07-30T22:17:00.000Z</time>
      </trkpt>
      <trkpt lat="45.58167" lon="2.7102">
        <ele>1077</ele>
        <time>2022-07-30T22:17:01.000Z</time>
      </trkpt>
      <trkpt lat="45.58173" lon="2.7102">
        <ele>1077</ele>
        <time>2022-07-30T22:17:02.000Z</time>
      </trkpt>
      <trkpt lat="45.58178" lon="2.7102">
        <ele>1077</ele>
        <time>2022-07-30T22:17:03.000Z</time>
      </trkpt>
      <trkpt lat="45.58183" lon="2.7102">
        <ele>1077</ele>
        <time>2022-07-30T22:17:04.000Z</time>
      </trkpt>
      <trkpt lat="45.58188" lon="2.71018">
        <ele>1077</ele>
        <time>2022-07-30T22:17:05.000Z</time>
      </trkpt>
      <trkpt lat="45.58192" lon="2.71016">
        <ele>1077</ele>
        <time>2022-07-30T22:17:06.000Z</time>
      </trkpt>
      <trkpt lat="45.58196" lon="2.71013">
        <ele>1077</ele>
        <time>2022-07-30T22:17:07.000Z</time>
      </trkpt>
      <trkpt lat="45.58201" lon="2.71011">
        <ele>1077</ele>
        <time>2022-07-30T22:17:08.000Z</time>
      </trkpt>
      <trkpt lat="45.58205" lon="2.71009">
        <ele>1070</ele>
        <time>2022-07-30T22:17:09.000Z</time>
      </trkpt>
      <trkpt lat="45.58209" lon="2.71005">
        <ele>1070</ele>
        <time>2022-07-30T22:17:10.000Z</time>
      </trkpt>
      <trkpt lat="45.58213" lon="2.71002">
        <ele>1070</ele>
        <time>2022-07-30T22:17:11.000Z</time>
      </trkpt>
      <trkpt lat="45.58217" lon="2.70999">
        <ele>1070</ele>
        <time>2022-07-30T22:17:12.000Z</time>
      </trkpt>
      <trkpt lat="45.58221" lon="2.70996">
        <ele>1070</ele>
        <time>2022-07-30T22:17:13.000Z</time>
      </trkpt>
      <trkpt lat="45.58225" lon="2.70992">
        <ele>1070</ele>
        <time>2022-07-30T22:17:14.000Z</time>
      </trkpt>
      <trkpt lat="45.58228" lon="2.70989">
        <ele>1070</ele>
        <time>2022-07-30T22:17:15.000Z</time>
      </trkpt>
      <trkpt lat="45.58232" lon="2.70986">
        <ele>1070</ele>
        <time>2022-07-30T22:17:16.000Z</time>
      </trkpt>
      <trkpt lat="45.58236" lon="2.70983">
        <ele>1070</ele>
        <time>2022-07-30T22:17:17.000Z</time>
      </trkpt>
      <trkpt lat="45.5824" lon="2.70979">
        <ele>1070</ele>
        <time>2022-07-30T22:17:18.000Z</time>
      </trkpt>
      <trkpt lat="45.58244" lon="2.70976">
        <ele>1070</ele>
        <time>2022-07-30T22:17:19.000Z</time>
      </trkpt>
      <trkpt lat="45.58248" lon="2.70973">
        <ele>1070</ele>
        <time>2022-07-30T22:17:20.000Z</time>
      </trkpt>
      <trkpt lat="45.58252" lon="2.7097">
        <ele>1070</ele>
        <time>2022-07-30T22:17:21.000Z</time>
      </trkpt>
      <trkpt lat="45.58256" lon="2.70966">
        <ele>1070</ele>
        <time>2022-07-30T22:17:22.000Z</time>
      </trkpt>
      <trkpt lat="45.5826" lon="2.70963">
        <ele>1070</ele>
        <time>2022-07-30T22:17:23.000Z</time>
      </trkpt>
      <trkpt lat="45.58264" lon="2.7096">
        <ele>1070</ele>
        <time>2022-07-30T22:17:24.000Z</time>
      </trkpt>
      <trkpt lat="45.58268" lon="2.70957">
        <ele>1070</ele>
        <time>2022-07-30T22:17:25.000Z</time>
      </trkpt>
      <trkpt lat="45.58272" lon="2.70953">
        <ele>1072</ele>
        <time>2022-07-30T22:17:26.000Z</time>
      </trkpt>
      <trkpt lat="45.58277" lon="2.7095">
        <ele>1064</ele>
        <time>2022-07-30T22:17:27.000Z</time>
      </trkpt>
      <trkpt lat="45.58281" lon="2.70947">
        <ele>1064</ele>
        <time>2022-07-30T22:17:28.000Z</time>
      </trkpt>
      <trkpt lat="45.58285" lon="2.70942">
        <ele>1064</ele>
        <time>2022-07-30T22:17:29.000Z</time>
      </trkpt>
      <trkpt lat="45.5829" lon="2.70938">
        <ele>1064</ele>
        <time>2022-07-30T22:17:30.000Z</time>
      </trkpt>
      <trkpt lat="45.58295" lon="2.70934">
        <ele>1064</ele>
        <time>2022-07-30T22:17:31.000Z</time>
      </trkpt>
      <trkpt lat="45.58299" lon="2.70929">
        <ele>1064</ele>
        <time>2022-07-30T22:17:32.000Z</time>
      </trkpt>
      <trkpt lat="45.58303" lon="2.70924">
        <ele>1064</ele>
        <time>2022-07-30T22:17:33.000Z</time>
      </trkpt>
      <trkpt lat="45.58306" lon="2.70919">
        <ele>1064</ele>
        <time>2022-07-30T22:17:34.000Z</time>
      </trkpt>
      <trkpt lat="45.5831" lon="2.70914">
        <ele>1064</ele>
        <time>2022-07-30T22:17:35.000Z</time>
      </trkpt>
      <trkpt lat="45.58313" lon="2.70909">
        <ele>1064</ele>
        <time>2022-07-30T22:17:36.000Z</time>
      </trkpt>
      <trkpt lat="45.58317" lon="2.70904">
        <ele>1064</ele>
        <time>2022-07-30T22:17:37.000Z</time>
      </trkpt>
      <trkpt lat="45.5832" lon="2.70898">
        <ele>1064</ele>
        <time>2022-07-30T22:17:38.000Z</time>
      </trkpt>
      <trkpt lat="45.58324" lon="2.70892">
        <ele>1064</ele>
        <time>2022-07-30T22:17:39.000Z</time>
      </trkpt>
      <trkpt lat="45.58327" lon="2.70887">
        <ele>1064</ele>
        <time>2022-07-30T22:17:40.000Z</time>
      </trkpt>
      <trkpt lat="45.58331" lon="2.70881">
        <ele>1064</ele>
        <time>2022-07-30T22:17:41.000Z</time>
      </trkpt>
      <trkpt lat="45.58334" lon="2.70875">
        <ele>1064</ele>
        <time>2022-07-30T22:17:42.000Z</time>
      </trkpt>
      <trkpt lat="45.58337" lon="2.7087">
        <ele>1064</ele>
        <time>2022-07-30T22:17:43.000Z</time>
      </trkpt>
      <trkpt lat="45.5834" lon="2.70865">
        <ele>1064</ele>
        <time>2022-07-30T22:17:44.000Z</time>
      </trkpt>
      <trkpt lat="45.58343" lon="2.7086">
        <ele>1064</ele>
        <time>2022-07-30T22:17:45.000Z</time>
      </trkpt>
      <trkpt lat="45.58346" lon="2.70855">
        <ele>1064</ele>
        <time>2022-07-30T22:17:46.000Z</time>
      </trkpt>
      <trkpt lat="45.58349" lon="2.70849">
        <ele>1052</ele>
        <time>2022-07-30T22:17:47.000Z</time>
      </trkpt>
      <trkpt lat="45.58352" lon="2.70844">
        <ele>1053</ele>
        <time>2022-07-30T22:17:48.000Z</time>
      </trkpt>
      <trkpt lat="45.58356" lon="2.70838">
        <ele>1053</ele>
        <time>2022-07-30T22:17:49.000Z</time>
      </trkpt>
      <trkpt lat="45.5836" lon="2.70832">
        <ele>1053</ele>
        <time>2022-07-30T22:17:50.000Z</time>
      </trkpt>
      <trkpt lat="45.58364" lon="2.70826">
        <ele>1053</ele>
        <time>2022-07-30T22:17:51.000Z</time>
      </trkpt>
      <trkpt lat="45.58368" lon="2.7082">
        <ele>1053</ele>
        <time>2022-07-30T22:17:52.000Z</time>
      </trkpt>
      <trkpt lat="45.58371" lon="2.70815">
        <ele>1053</ele>
        <time>2022-07-30T22:17:53.000Z</time>
      </trkpt>
      <trkpt lat="45.58375" lon="2.70809">
        <ele>1053</ele>
        <time>2022-07-30T22:17:54.000Z</time>
      </trkpt>
      <trkpt lat="45.58379" lon="2.70803">
        <ele>1053</ele>
        <time>2022-07-30T22:17:55.000Z</time>
      </trkpt>
      <trkpt lat="45.58381" lon="2.70798">
        <ele>1053</ele>
        <time>2022-07-30T22:17:56.000Z</time>
      </trkpt>
      <trkpt lat="45.58384" lon="2.70793">
        <ele>1053</ele>
        <time>2022-07-30T22:17:57.000Z</time>
      </trkpt>
      <trkpt lat="45.58387" lon="2.70787">
        <ele>1053</ele>
        <time>2022-07-30T22:17:58.000Z</time>
      </trkpt>
      <trkpt lat="45.5839" lon="2.70782">
        <ele>1053</ele>
        <time>2022-07-30T22:17:59.000Z</time>
      </trkpt>
      <trkpt lat="45.58389" lon="2.70771">
        <ele>1053</ele>
        <time>2022-07-30T22:18:00.000Z</time>
      </trkpt>
      <trkpt lat="45.58385" lon="2.7076">
        <ele>1053</ele>
        <time>2022-07-30T22:18:01.000Z</time>
      </trkpt>
      <trkpt lat="45.58382" lon="2.70755">
        <ele>1053</ele>
        <time>2022-07-30T22:18:02.000Z</time>
      </trkpt>
      <trkpt lat="45.58379" lon="2.7075">
        <ele>1053</ele>
        <time>2022-07-30T22:18:03.000Z</time>
      </trkpt>
      <trkpt lat="45.58376" lon="2.70745">
        <ele>1052</ele>
        <time>2022-07-30T22:18:04.000Z</time>
      </trkpt>
      <trkpt lat="45.58373" lon="2.7074">
        <ele>1052</ele>
        <time>2022-07-30T22:18:05.000Z</time>
      </trkpt>
      <trkpt lat="45.5837" lon="2.70735">
        <ele>1052</ele>
        <time>2022-07-30T22:18:06.000Z</time>
      </trkpt>
      <trkpt lat="45.58367" lon="2.7073">
        <ele>1052</ele>
        <time>2022-07-30T22:18:07.000Z</time>
      </trkpt>
      <trkpt lat="45.58364" lon="2.70725">
        <ele>1052</ele>
        <time>2022-07-30T22:18:08.000Z</time>
      </trkpt>
      <trkpt lat="45.58361" lon="2.7072">
        <ele>1052</ele>
        <time>2022-07-30T22:18:09.000Z</time>
      </trkpt>
      <trkpt lat="45.58358" lon="2.70715">
        <ele>1052</ele>
        <time>2022-07-30T22:18:10.000Z</time>
      </trkpt>
      <trkpt lat="45.58355" lon="2.7071">
        <ele>1052</ele>
        <time>2022-07-30T22:18:11.000Z</time>
      </trkpt>
      <trkpt lat="45.58352" lon="2.70704">
        <ele>1046</ele>
        <time>2022-07-30T22:18:12.000Z</time>
      </trkpt>
      <trkpt lat="45.58349" lon="2.70699">
        <ele>1046</ele>
        <time>2022-07-30T22:18:13.000Z</time>
      </trkpt>
      <trkpt lat="45.58346" lon="2.70694">
        <ele>1046</ele>
        <time>2022-07-30T22:18:14.000Z</time>
      </trkpt>
      <trkpt lat="45.58343" lon="2.70689">
        <ele>1046</ele>
        <time>2022-07-30T22:18:15.000Z</time>
      </trkpt>
      <trkpt lat="45.5834" lon="2.70684">
        <ele>1046</ele>
        <time>2022-07-30T22:18:16.000Z</time>
      </trkpt>
      <trkpt lat="45.58337" lon="2.70679">
        <ele>1046</ele>
        <time>2022-07-30T22:18:17.000Z</time>
      </trkpt>
      <trkpt lat="45.58334" lon="2.70674">
        <ele>1052</ele>
        <time>2022-07-30T22:18:18.000Z</time>
      </trkpt>
      <trkpt lat="45.58331" lon="2.70668">
        <ele>1045</ele>
        <time>2022-07-30T22:18:19.000Z</time>
      </trkpt>
      <trkpt lat="45.58328" lon="2.70663">
        <ele>1045</ele>
        <time>2022-07-30T22:18:20.000Z</time>
      </trkpt>
      <trkpt lat="45.58325" lon="2.70657">
        <ele>1045</ele>
        <time>2022-07-30T22:18:21.000Z</time>
      </trkpt>
      <trkpt lat="45.58322" lon="2.70652">
        <ele>1045</ele>
        <time>2022-07-30T22:18:22.000Z</time>
      </trkpt>
      <trkpt lat="45.5832" lon="2.70646">
        <ele>1045</ele>
        <time>2022-07-30T22:18:23.000Z</time>
      </trkpt>
      <trkpt lat="45.58317" lon="2.70641">
        <ele>1045</ele>
        <time>2022-07-30T22:18:24.000Z</time>
      </trkpt>
      <trkpt lat="45.58314" lon="2.70636">
        <ele>1045</ele>
        <time>2022-07-30T22:18:25.000Z</time>
      </trkpt>
      <trkpt lat="45.58311" lon="2.7063">
        <ele>1045</ele>
        <time>2022-07-30T22:18:26.000Z</time>
      </trkpt>
      <trkpt lat="45.58307" lon="2.70626">
        <ele>1045</ele>
        <time>2022-07-30T22:18:27.000Z</time>
      </trkpt>
      <trkpt lat="45.58304" lon="2.70622">
        <ele>1045</ele>
        <time>2022-07-30T22:18:28.000Z</time>
      </trkpt>
      <trkpt lat="45.583" lon="2.70618">
        <ele>1045</ele>
        <time>2022-07-30T22:18:29.000Z</time>
      </trkpt>
      <trkpt lat="45.58296" lon="2.70614">
        <ele>1045</ele>
        <time>2022-07-30T22:18:30.000Z</time>
      </trkpt>
      <trkpt lat="45.58293" lon="2.7061">
        <ele>1045</ele>
        <time>2022-07-30T22:18:31.000Z</time>
      </trkpt>
      <trkpt lat="45.58289" lon="2.70606">
        <ele>1045</ele>
        <time>2022-07-30T22:18:32.000Z</time>
      </trkpt>
      <trkpt lat="45.58286" lon="2.70602">
        <ele>1031</ele>
        <time>2022-07-30T22:18:33.000Z</time>
      </trkpt>
      <trkpt lat="45.58282" lon="2.70598">
        <ele>1031</ele>
        <time>2022-07-30T22:18:34.000Z</time>
      </trkpt>
      <trkpt lat="45.58278" lon="2.70594">
        <ele>1031</ele>
        <time>2022-07-30T22:18:35.000Z</time>
      </trkpt>
      <trkpt lat="45.58274" lon="2.7059">
        <ele>1031</ele>
        <time>2022-07-30T22:18:36.000Z</time>
      </trkpt>
      <trkpt lat="45.5827" lon="2.70586">
        <ele>1031</ele>
        <time>2022-07-30T22:18:37.000Z</time>
      </trkpt>
      <trkpt lat="45.58265" lon="2.70582">
        <ele>1031</ele>
        <time>2022-07-30T22:18:38.000Z</time>
      </trkpt>
      <trkpt lat="45.58261" lon="2.70578">
        <ele>1031</ele>
        <time>2022-07-30T22:18:39.000Z</time>
      </trkpt>
      <trkpt lat="45.58257" lon="2.70574">
        <ele>1031</ele>
        <time>2022-07-30T22:18:40.000Z</time>
      </trkpt>
      <trkpt lat="45.58253" lon="2.7057">
        <ele>1031</ele>
        <time>2022-07-30T22:18:41.000Z</time>
      </trkpt>
      <trkpt lat="45.58249" lon="2.70565">
        <ele>1047</ele>
        <time>2022-07-30T22:18:42.000Z</time>
      </trkpt>
      <trkpt lat="45.58246" lon="2.70561">
        <ele>1047</ele>
        <time>2022-07-30T22:18:43.000Z</time>
      </trkpt>
      <trkpt lat="45.58242" lon="2.70557">
        <ele>1047</ele>
        <time>2022-07-30T22:18:44.000Z</time>
      </trkpt>
      <trkpt lat="45.58238" lon="2.70552">
        <ele>1047</ele>
        <time>2022-07-30T22:18:45.000Z</time>
      </trkpt>
      <trkpt lat="45.58234" lon="2.70548">
        <ele>1047</ele>
        <time>2022-07-30T22:18:46.000Z</time>
      </trkpt>
      <trkpt lat="45.5823" lon="2.70543">
        <ele>1047</ele>
        <time>2022-07-30T22:18:47.000Z</time>
      </trkpt>
      <trkpt lat="45.58227" lon="2.70538">
        <ele>1047</ele>
        <time>2022-07-30T22:18:48.000Z</time>
      </trkpt>
      <trkpt lat="45.58223" lon="2.70533">
        <ele>1047</ele>
        <time>2022-07-30T22:18:49.000Z</time>
      </trkpt>
      <trkpt lat="45.58219" lon="2.70528">
        <ele>1025</ele>
        <time>2022-07-30T22:18:50.000Z</time>
      </trkpt>
      <trkpt lat="45.58215" lon="2.70523">
        <ele>1025</ele>
        <time>2022-07-30T22:18:51.000Z</time>
      </trkpt>
      <trkpt lat="45.58213" lon="2.70517">
        <ele>1025</ele>
        <time>2022-07-30T22:18:52.000Z</time>
      </trkpt>
      <trkpt lat="45.5821" lon="2.70511">
        <ele>1025</ele>
        <time>2022-07-30T22:18:53.000Z</time>
      </trkpt>
      <trkpt lat="45.58208" lon="2.70505">
        <ele>1025</ele>
        <time>2022-07-30T22:18:54.000Z</time>
      </trkpt>
      <trkpt lat="45.58206" lon="2.70498">
        <ele>1025</ele>
        <time>2022-07-30T22:18:55.000Z</time>
      </trkpt>
      <trkpt lat="45.58203" lon="2.70492">
        <ele>1025</ele>
        <time>2022-07-30T22:18:56.000Z</time>
      </trkpt>
      <trkpt lat="45.58203" lon="2.70485">
        <ele>1025</ele>
        <time>2022-07-30T22:18:57.000Z</time>
      </trkpt>
      <trkpt lat="45.58202" lon="2.70478">
        <ele>1025</ele>
        <time>2022-07-30T22:18:58.000Z</time>
      </trkpt>
      <trkpt lat="45.58201" lon="2.70471">
        <ele>1025</ele>
        <time>2022-07-30T22:18:59.000Z</time>
      </trkpt>
      <trkpt lat="45.582" lon="2.70464">
        <ele>1025</ele>
        <time>2022-07-30T22:19:00.000Z</time>
      </trkpt>
      <trkpt lat="45.582" lon="2.70457">
        <ele>1025</ele>
        <time>2022-07-30T22:19:01.000Z</time>
      </trkpt>
      <trkpt lat="45.58199" lon="2.7045">
        <ele>1025</ele>
        <time>2022-07-30T22:19:02.000Z</time>
      </trkpt>
      <trkpt lat="45.58199" lon="2.70444">
        <ele>1049</ele>
        <time>2022-07-30T22:19:03.000Z</time>
      </trkpt>
      <trkpt lat="45.58199" lon="2.70437">
        <ele>1049</ele>
        <time>2022-07-30T22:19:04.000Z</time>
      </trkpt>
      <trkpt lat="45.58199" lon="2.70431">
        <ele>1049</ele>
        <time>2022-07-30T22:19:05.000Z</time>
      </trkpt>
      <trkpt lat="45.58198" lon="2.70424">
        <ele>1049</ele>
        <time>2022-07-30T22:19:06.000Z</time>
      </trkpt>
      <trkpt lat="45.58198" lon="2.70418">
        <ele>1049</ele>
        <time>2022-07-30T22:19:07.000Z</time>
      </trkpt>
      <trkpt lat="45.58198" lon="2.70411">
        <ele>1036</ele>
        <time>2022-07-30T22:19:08.000Z</time>
      </trkpt>
      <trkpt lat="45.58198" lon="2.70405">
        <ele>1036</ele>
        <time>2022-07-30T22:19:09.000Z</time>
      </trkpt>
      <trkpt lat="45.58198" lon="2.70398">
        <ele>1036</ele>
        <time>2022-07-30T22:19:10.000Z</time>
      </trkpt>
      <trkpt lat="45.58198" lon="2.70392">
        <ele>1036</ele>
        <time>2022-07-30T22:19:11.000Z</time>
      </trkpt>
      <trkpt lat="45.58198" lon="2.70386">
        <ele>1036</ele>
        <time>2022-07-30T22:19:12.000Z</time>
      </trkpt>
      <trkpt lat="45.58197" lon="2.70379">
        <ele>1036</ele>
        <time>2022-07-30T22:19:13.000Z</time>
      </trkpt>
      <trkpt lat="45.58197" lon="2.70373">
        <ele>1036</ele>
        <time>2022-07-30T22:19:14.000Z</time>
      </trkpt>
      <trkpt lat="45.58197" lon="2.70361">
        <ele>1036</ele>
        <time>2022-07-30T22:19:15.000Z</time>
      </trkpt>
      <trkpt lat="45.58198" lon="2.70354">
        <ele>1036</ele>
        <time>2022-07-30T22:19:16.000Z</time>
      </trkpt>
      <trkpt lat="45.582" lon="2.70347">
        <ele>1036</ele>
        <time>2022-07-30T22:19:17.000Z</time>
      </trkpt>
      <trkpt lat="45.58201" lon="2.70339">
        <ele>1036</ele>
        <time>2022-07-30T22:19:18.000Z</time>
      </trkpt>
      <trkpt lat="45.58203" lon="2.70332">
        <ele>1024</ele>
        <time>2022-07-30T22:19:19.000Z</time>
      </trkpt>
      <trkpt lat="45.58204" lon="2.70324">
        <ele>1024</ele>
        <time>2022-07-30T22:19:20.000Z</time>
      </trkpt>
      <trkpt lat="45.58205" lon="2.70318">
        <ele>1024</ele>
        <time>2022-07-30T22:19:21.000Z</time>
      </trkpt>
      <trkpt lat="45.58206" lon="2.70311">
        <ele>1024</ele>
        <time>2022-07-30T22:19:22.000Z</time>
      </trkpt>
      <trkpt lat="45.58207" lon="2.70304">
        <ele>1024</ele>
        <time>2022-07-30T22:19:23.000Z</time>
      </trkpt>
      <trkpt lat="45.58207" lon="2.70298">
        <ele>1024</ele>
        <time>2022-07-30T22:19:24.000Z</time>
      </trkpt>
      <trkpt lat="45.58208" lon="2.70291">
        <ele>1024</ele>
        <time>2022-07-30T22:19:25.000Z</time>
      </trkpt>
      <trkpt lat="45.58209" lon="2.70284">
        <ele>1024</ele>
        <time>2022-07-30T22:19:26.000Z</time>
      </trkpt>
      <trkpt lat="45.5821" lon="2.70278">
        <ele>1024</ele>
        <time>2022-07-30T22:19:27.000Z</time>
      </trkpt>
      <trkpt lat="45.5821" lon="2.7027">
        <ele>1024</ele>
        <time>2022-07-30T22:19:28.000Z</time>
      </trkpt>
      <trkpt lat="45.5821" lon="2.70263">
        <ele>1024</ele>
        <time>2022-07-30T22:19:29.000Z</time>
      </trkpt>
      <trkpt lat="45.58209" lon="2.70256">
        <ele>1024</ele>
        <time>2022-07-30T22:19:30.000Z</time>
      </trkpt>
      <trkpt lat="45.58209" lon="2.70249">
        <ele>1018</ele>
        <time>2022-07-30T22:19:31.000Z</time>
      </trkpt>
      <trkpt lat="45.58209" lon="2.70241">
        <ele>1018</ele>
        <time>2022-07-30T22:19:32.000Z</time>
      </trkpt>
      <trkpt lat="45.58207" lon="2.70233">
        <ele>1018</ele>
        <time>2022-07-30T22:19:33.000Z</time>
      </trkpt>
      <trkpt lat="45.58205" lon="2.70225">
        <ele>1018</ele>
        <time>2022-07-30T22:19:34.000Z</time>
      </trkpt>
      <trkpt lat="45.58204" lon="2.70219">
        <ele>1018</ele>
        <time>2022-07-30T22:19:35.000Z</time>
      </trkpt>
      <trkpt lat="45.58202" lon="2.70212">
        <ele>1018</ele>
        <time>2022-07-30T22:19:36.000Z</time>
      </trkpt>
      <trkpt lat="45.58201" lon="2.70206">
        <ele>1018</ele>
        <time>2022-07-30T22:19:37.000Z</time>
      </trkpt>
      <trkpt lat="45.58199" lon="2.70199">
        <ele>1018</ele>
        <time>2022-07-30T22:19:38.000Z</time>
      </trkpt>
      <trkpt lat="45.58198" lon="2.70193">
        <ele>1018</ele>
        <time>2022-07-30T22:19:39.000Z</time>
      </trkpt>
      <trkpt lat="45.58197" lon="2.70187">
        <ele>1018</ele>
        <time>2022-07-30T22:19:40.000Z</time>
      </trkpt>
      <trkpt lat="45.58197" lon="2.70177">
        <ele>1018</ele>
        <time>2022-07-30T22:19:41.000Z</time>
      </trkpt>
      <trkpt lat="45.58199" lon="2.7017">
        <ele>1018</ele>
        <time>2022-07-30T22:19:42.000Z</time>
      </trkpt>
      <trkpt lat="45.582" lon="2.70162">
        <ele>1012</ele>
        <time>2022-07-30T22:19:43.000Z</time>
      </trkpt>
      <trkpt lat="45.58202" lon="2.70154">
        <ele>1012</ele>
        <time>2022-07-30T22:19:44.000Z</time>
      </trkpt>
      <trkpt lat="45.58203" lon="2.70146">
        <ele>1012</ele>
        <time>2022-07-30T22:19:45.000Z</time>
      </trkpt>
      <trkpt lat="45.58203" lon="2.70138">
        <ele>1012</ele>
        <time>2022-07-30T22:19:46.000Z</time>
      </trkpt>
      <trkpt lat="45.58204" lon="2.7013">
        <ele>1012</ele>
        <time>2022-07-30T22:19:47.000Z</time>
      </trkpt>
      <trkpt lat="45.58205" lon="2.70122">
        <ele>1012</ele>
        <time>2022-07-30T22:19:48.000Z</time>
      </trkpt>
      <trkpt lat="45.58206" lon="2.70116">
        <ele>1012</ele>
        <time>2022-07-30T22:19:49.000Z</time>
      </trkpt>
      <trkpt lat="45.58207" lon="2.70109">
        <ele>1012</ele>
        <time>2022-07-30T22:19:50.000Z</time>
      </trkpt>
      <trkpt lat="45.58209" lon="2.70103">
        <ele>1012</ele>
        <time>2022-07-30T22:19:51.000Z</time>
      </trkpt>
      <trkpt lat="45.5821" lon="2.70096">
        <ele>1012</ele>
        <time>2022-07-30T22:19:52.000Z</time>
      </trkpt>
      <trkpt lat="45.58211" lon="2.70089">
        <ele>1012</ele>
        <time>2022-07-30T22:19:53.000Z</time>
      </trkpt>
      <trkpt lat="45.58215" lon="2.70084">
        <ele>1012</ele>
        <time>2022-07-30T22:19:54.000Z</time>
      </trkpt>
      <trkpt lat="45.58219" lon="2.70079">
        <ele>1012</ele>
        <time>2022-07-30T22:19:55.000Z</time>
      </trkpt>
      <trkpt lat="45.58222" lon="2.70073">
        <ele>1007</ele>
        <time>2022-07-30T22:19:56.000Z</time>
      </trkpt>
      <trkpt lat="45.58226" lon="2.70068">
        <ele>1007</ele>
        <time>2022-07-30T22:19:57.000Z</time>
      </trkpt>
      <trkpt lat="45.5823" lon="2.70063">
        <ele>1007</ele>
        <time>2022-07-30T22:19:58.000Z</time>
      </trkpt>
      <trkpt lat="45.58234" lon="2.70058">
        <ele>1007</ele>
        <time>2022-07-30T22:19:59.000Z</time>
      </trkpt>
      <trkpt lat="45.58237" lon="2.70053">
        <ele>1007</ele>
        <time>2022-07-30T22:20:00.000Z</time>
      </trkpt>
      <trkpt lat="45.58241" lon="2.70048">
        <ele>1007</ele>
        <time>2022-07-30T22:20:01.000Z</time>
      </trkpt>
      <trkpt lat="45.58245" lon="2.70043">
        <ele>1007</ele>
        <time>2022-07-30T22:20:02.000Z</time>
      </trkpt>
      <trkpt lat="45.58249" lon="2.70038">
        <ele>1007</ele>
        <time>2022-07-30T22:20:03.000Z</time>
      </trkpt>
      <trkpt lat="45.58253" lon="2.70033">
        <ele>1007</ele>
        <time>2022-07-30T22:20:04.000Z</time>
      </trkpt>
      <trkpt lat="45.58257" lon="2.70028">
        <ele>1007</ele>
        <time>2022-07-30T22:20:05.000Z</time>
      </trkpt>
      <trkpt lat="45.58261" lon="2.70023">
        <ele>1007</ele>
        <time>2022-07-30T22:20:06.000Z</time>
      </trkpt>
      <trkpt lat="45.58264" lon="2.70018">
        <ele>1007</ele>
        <time>2022-07-30T22:20:07.000Z</time>
      </trkpt>
      <trkpt lat="45.58268" lon="2.70013">
        <ele>1005</ele>
        <time>2022-07-30T22:20:08.000Z</time>
      </trkpt>
      <trkpt lat="45.58272" lon="2.70007">
        <ele>1000</ele>
        <time>2022-07-30T22:20:09.000Z</time>
      </trkpt>
      <trkpt lat="45.58275" lon="2.70002">
        <ele>1000</ele>
        <time>2022-07-30T22:20:10.000Z</time>
      </trkpt>
      <trkpt lat="45.58279" lon="2.69997">
        <ele>1000</ele>
        <time>2022-07-30T22:20:11.000Z</time>
      </trkpt>
      <trkpt lat="45.58282" lon="2.69992">
        <ele>1000</ele>
        <time>2022-07-30T22:20:12.000Z</time>
      </trkpt>
      <trkpt lat="45.58286" lon="2.69989">
        <ele>1000</ele>
        <time>2022-07-30T22:20:13.000Z</time>
      </trkpt>
      <trkpt lat="45.5829" lon="2.69985">
        <ele>1000</ele>
        <time>2022-07-30T22:20:14.000Z</time>
      </trkpt>
      <trkpt lat="45.58294" lon="2.69981">
        <ele>1000</ele>
        <time>2022-07-30T22:20:15.000Z</time>
      </trkpt>
      <trkpt lat="45.58297" lon="2.69977">
        <ele>1000</ele>
        <time>2022-07-30T22:20:16.000Z</time>
      </trkpt>
      <trkpt lat="45.58301" lon="2.69973">
        <ele>1000</ele>
        <time>2022-07-30T22:20:17.000Z</time>
      </trkpt>
      <trkpt lat="45.58305" lon="2.69969">
        <ele>1000</ele>
        <time>2022-07-30T22:20:18.000Z</time>
      </trkpt>
      <trkpt lat="45.58309" lon="2.69966">
        <ele>1000</ele>
        <time>2022-07-30T22:20:19.000Z</time>
      </trkpt>
      <trkpt lat="45.58313" lon="2.69962">
        <ele>1000</ele>
        <time>2022-07-30T22:20:20.000Z</time>
      </trkpt>
      <trkpt lat="45.58316" lon="2.69958">
        <ele>1000</ele>
        <time>2022-07-30T22:20:21.000Z</time>
      </trkpt>
      <trkpt lat="45.5832" lon="2.69954">
        <ele>1000</ele>
        <time>2022-07-30T22:20:22.000Z</time>
      </trkpt>
      <trkpt lat="45.58323" lon="2.6995">
        <ele>1000</ele>
        <time>2022-07-30T22:20:23.000Z</time>
      </trkpt>
      <trkpt lat="45.58327" lon="2.69945">
        <ele>998</ele>
        <time>2022-07-30T22:20:24.000Z</time>
      </trkpt>
      <trkpt lat="45.5833" lon="2.69941">
        <ele>998</ele>
        <time>2022-07-30T22:20:25.000Z</time>
      </trkpt>
      <trkpt lat="45.58334" lon="2.69937">
        <ele>998</ele>
        <time>2022-07-30T22:20:26.000Z</time>
      </trkpt>
      <trkpt lat="45.58337" lon="2.69932">
        <ele>998</ele>
        <time>2022-07-30T22:20:27.000Z</time>
      </trkpt>
      <trkpt lat="45.5834" lon="2.69928">
        <ele>998</ele>
        <time>2022-07-30T22:20:28.000Z</time>
      </trkpt>
      <trkpt lat="45.58344" lon="2.69924">
        <ele>998</ele>
        <time>2022-07-30T22:20:29.000Z</time>
      </trkpt>
      <trkpt lat="45.58347" lon="2.69919">
        <ele>998</ele>
        <time>2022-07-30T22:20:30.000Z</time>
      </trkpt>
      <trkpt lat="45.5835" lon="2.69915">
        <ele>998</ele>
        <time>2022-07-30T22:20:31.000Z</time>
      </trkpt>
      <trkpt lat="45.58354" lon="2.6991">
        <ele>994</ele>
        <time>2022-07-30T22:20:32.000Z</time>
      </trkpt>
      <trkpt lat="45.58357" lon="2.69906">
        <ele>994</ele>
        <time>2022-07-30T22:20:33.000Z</time>
      </trkpt>
      <trkpt lat="45.58361" lon="2.69902">
        <ele>994</ele>
        <time>2022-07-30T22:20:34.000Z</time>
      </trkpt>
      <trkpt lat="45.58364" lon="2.69897">
        <ele>994</ele>
        <time>2022-07-30T22:20:35.000Z</time>
      </trkpt>
      <trkpt lat="45.58366" lon="2.69891">
        <ele>994</ele>
        <time>2022-07-30T22:20:36.000Z</time>
      </trkpt>
      <trkpt lat="45.58367" lon="2.69885">
        <ele>994</ele>
        <time>2022-07-30T22:20:37.000Z</time>
      </trkpt>
      <trkpt lat="45.58369" lon="2.69878">
        <ele>994</ele>
        <time>2022-07-30T22:20:38.000Z</time>
      </trkpt>
      <trkpt lat="45.58371" lon="2.69872">
        <ele>994</ele>
        <time>2022-07-30T22:20:39.000Z</time>
      </trkpt>
      <trkpt lat="45.58372" lon="2.69866">
        <ele>994</ele>
        <time>2022-07-30T22:20:40.000Z</time>
      </trkpt>
      <trkpt lat="45.58373" lon="2.69859">
        <ele>994</ele>
        <time>2022-07-30T22:20:41.000Z</time>
      </trkpt>
      <trkpt lat="45.58375" lon="2.69852">
        <ele>994</ele>
        <time>2022-07-30T22:20:42.000Z</time>
      </trkpt>
      <trkpt lat="45.58376" lon="2.69846">
        <ele>988</ele>
        <time>2022-07-30T22:20:43.000Z</time>
      </trkpt>
      <trkpt lat="45.58377" lon="2.69839">
        <ele>988</ele>
        <time>2022-07-30T22:20:44.000Z</time>
      </trkpt>
      <trkpt lat="45.58378" lon="2.69832">
        <ele>988</ele>
        <time>2022-07-30T22:20:45.000Z</time>
      </trkpt>
      <trkpt lat="45.5838" lon="2.69825">
        <ele>988</ele>
        <time>2022-07-30T22:20:46.000Z</time>
      </trkpt>
      <trkpt lat="45.58381" lon="2.69819">
        <ele>988</ele>
        <time>2022-07-30T22:20:47.000Z</time>
      </trkpt>
      <trkpt lat="45.58382" lon="2.69812">
        <ele>988</ele>
        <time>2022-07-30T22:20:48.000Z</time>
      </trkpt>
      <trkpt lat="45.58383" lon="2.69805">
        <ele>988</ele>
        <time>2022-07-30T22:20:49.000Z</time>
      </trkpt>
      <trkpt lat="45.58385" lon="2.69797">
        <ele>988</ele>
        <time>2022-07-30T22:20:50.000Z</time>
      </trkpt>
      <trkpt lat="45.58386" lon="2.69789">
        <ele>988</ele>
        <time>2022-07-30T22:20:51.000Z</time>
      </trkpt>
      <trkpt lat="45.58387" lon="2.6978">
        <ele>988</ele>
        <time>2022-07-30T22:20:52.000Z</time>
      </trkpt>
      <trkpt lat="45.58388" lon="2.69773">
        <ele>988</ele>
        <time>2022-07-30T22:20:53.000Z</time>
      </trkpt>
      <trkpt lat="45.58389" lon="2.69767">
        <ele>988</ele>
        <time>2022-07-30T22:20:54.000Z</time>
      </trkpt>
      <trkpt lat="45.5839" lon="2.6976">
        <ele>988</ele>
        <time>2022-07-30T22:20:55.000Z</time>
      </trkpt>
      <trkpt lat="45.58391" lon="2.69753">
        <ele>988</ele>
        <time>2022-07-30T22:20:56.000Z</time>
      </trkpt>
      <trkpt lat="45.58392" lon="2.69746">
        <ele>981</ele>
        <time>2022-07-30T22:20:57.000Z</time>
      </trkpt>
      <trkpt lat="45.58394" lon="2.69739">
        <ele>981</ele>
        <time>2022-07-30T22:20:58.000Z</time>
      </trkpt>
      <trkpt lat="45.58397" lon="2.69731">
        <ele>981</ele>
        <time>2022-07-30T22:20:59.000Z</time>
      </trkpt>
      <trkpt lat="45.584" lon="2.69724">
        <ele>981</ele>
        <time>2022-07-30T22:21:00.000Z</time>
      </trkpt>
      <trkpt lat="45.58403" lon="2.69717">
        <ele>981</ele>
        <time>2022-07-30T22:21:01.000Z</time>
      </trkpt>
      <trkpt lat="45.58406" lon="2.69711">
        <ele>981</ele>
        <time>2022-07-30T22:21:02.000Z</time>
      </trkpt>
      <trkpt lat="45.58409" lon="2.69704">
        <ele>988</ele>
        <time>2022-07-30T22:21:03.000Z</time>
      </trkpt>
      <trkpt lat="45.58414" lon="2.69699">
        <ele>988</ele>
        <time>2022-07-30T22:21:04.000Z</time>
      </trkpt>
      <trkpt lat="45.58418" lon="2.69694">
        <ele>988</ele>
        <time>2022-07-30T22:21:05.000Z</time>
      </trkpt>
      <trkpt lat="45.58422" lon="2.69688">
        <ele>988</ele>
        <time>2022-07-30T22:21:06.000Z</time>
      </trkpt>
      <trkpt lat="45.58426" lon="2.69683">
        <ele>988</ele>
        <time>2022-07-30T22:21:07.000Z</time>
      </trkpt>
      <trkpt lat="45.58429" lon="2.69678">
        <ele>981</ele>
        <time>2022-07-30T22:21:08.000Z</time>
      </trkpt>
      <trkpt lat="45.58432" lon="2.69672">
        <ele>981</ele>
        <time>2022-07-30T22:21:09.000Z</time>
      </trkpt>
      <trkpt lat="45.58436" lon="2.69667">
        <ele>981</ele>
        <time>2022-07-30T22:21:10.000Z</time>
      </trkpt>
      <trkpt lat="45.58439" lon="2.69662">
        <ele>981</ele>
        <time>2022-07-30T22:21:11.000Z</time>
      </trkpt>
      <trkpt lat="45.58442" lon="2.69656">
        <ele>981</ele>
        <time>2022-07-30T22:21:12.000Z</time>
      </trkpt>
      <trkpt lat="45.58445" lon="2.69651">
        <ele>981</ele>
        <time>2022-07-30T22:21:13.000Z</time>
      </trkpt>
      <trkpt lat="45.58449" lon="2.69646">
        <ele>981</ele>
        <time>2022-07-30T22:21:14.000Z</time>
      </trkpt>
      <trkpt lat="45.58452" lon="2.69641">
        <ele>981</ele>
        <time>2022-07-30T22:21:15.000Z</time>
      </trkpt>
      <trkpt lat="45.58455" lon="2.69636">
        <ele>981</ele>
        <time>2022-07-30T22:21:16.000Z</time>
      </trkpt>
      <trkpt lat="45.58458" lon="2.69631">
        <ele>981</ele>
        <time>2022-07-30T22:21:17.000Z</time>
      </trkpt>
      <trkpt lat="45.58461" lon="2.69626">
        <ele>981</ele>
        <time>2022-07-30T22:21:18.000Z</time>
      </trkpt>
      <trkpt lat="45.58465" lon="2.69621">
        <ele>981</ele>
        <time>2022-07-30T22:21:19.000Z</time>
      </trkpt>
      <trkpt lat="45.58468" lon="2.69616">
        <ele>981</ele>
        <time>2022-07-30T22:21:20.000Z</time>
      </trkpt>
      <trkpt lat="45.58471" lon="2.6961">
        <ele>981</ele>
        <time>2022-07-30T22:21:21.000Z</time>
      </trkpt>
      <trkpt lat="45.58474" lon="2.69605">
        <ele>981</ele>
        <time>2022-07-30T22:21:22.000Z</time>
      </trkpt>
      <trkpt lat="45.58477" lon="2.696">
        <ele>975</ele>
        <time>2022-07-30T22:21:23.000Z</time>
      </trkpt>
      <trkpt lat="45.5848" lon="2.69595">
        <ele>975</ele>
        <time>2022-07-30T22:21:24.000Z</time>
      </trkpt>
      <trkpt lat="45.58484" lon="2.6959">
        <ele>975</ele>
        <time>2022-07-30T22:21:25.000Z</time>
      </trkpt>
      <trkpt lat="45.58487" lon="2.69585">
        <ele>975</ele>
        <time>2022-07-30T22:21:26.000Z</time>
      </trkpt>
      <trkpt lat="45.5849" lon="2.6958">
        <ele>975</ele>
        <time>2022-07-30T22:21:27.000Z</time>
      </trkpt>
      <trkpt lat="45.58493" lon="2.69575">
        <ele>975</ele>
        <time>2022-07-30T22:21:28.000Z</time>
      </trkpt>
      <trkpt lat="45.58496" lon="2.6957">
        <ele>975</ele>
        <time>2022-07-30T22:21:29.000Z</time>
      </trkpt>
      <trkpt lat="45.58498" lon="2.69564">
        <ele>975</ele>
        <time>2022-07-30T22:21:30.000Z</time>
      </trkpt>
      <trkpt lat="45.58501" lon="2.69558">
        <ele>975</ele>
        <time>2022-07-30T22:21:31.000Z</time>
      </trkpt>
      <trkpt lat="45.58503" lon="2.69551">
        <ele>975</ele>
        <time>2022-07-30T22:21:32.000Z</time>
      </trkpt>
      <trkpt lat="45.58505" lon="2.69545">
        <ele>979</ele>
        <time>2022-07-30T22:21:33.000Z</time>
      </trkpt>
      <trkpt lat="45.58507" lon="2.69539">
        <ele>979</ele>
        <time>2022-07-30T22:21:34.000Z</time>
      </trkpt>
      <trkpt lat="45.58509" lon="2.69533">
        <ele>979</ele>
        <time>2022-07-30T22:21:35.000Z</time>
      </trkpt>
      <trkpt lat="45.5851" lon="2.69526">
        <ele>979</ele>
        <time>2022-07-30T22:21:36.000Z</time>
      </trkpt>
      <trkpt lat="45.58512" lon="2.6952">
        <ele>979</ele>
        <time>2022-07-30T22:21:37.000Z</time>
      </trkpt>
      <trkpt lat="45.58516" lon="2.69515">
        <ele>976</ele>
        <time>2022-07-30T22:21:38.000Z</time>
      </trkpt>
      <trkpt lat="45.58519" lon="2.69511">
        <ele>976</ele>
        <time>2022-07-30T22:21:39.000Z</time>
      </trkpt>
      <trkpt lat="45.58523" lon="2.69506">
        <ele>976</ele>
        <time>2022-07-30T22:21:40.000Z</time>
      </trkpt>
      <trkpt lat="45.58526" lon="2.69501">
        <ele>976</ele>
        <time>2022-07-30T22:21:41.000Z</time>
      </trkpt>
      <trkpt lat="45.58531" lon="2.69499">
        <ele>976</ele>
        <time>2022-07-30T22:21:42.000Z</time>
      </trkpt>
      <trkpt lat="45.58535" lon="2.69496">
        <ele>976</ele>
        <time>2022-07-30T22:21:43.000Z</time>
      </trkpt>
      <trkpt lat="45.5854" lon="2.69493">
        <ele>976</ele>
        <time>2022-07-30T22:21:44.000Z</time>
      </trkpt>
      <trkpt lat="45.58544" lon="2.6949">
        <ele>976</ele>
        <time>2022-07-30T22:21:45.000Z</time>
      </trkpt>
      <trkpt lat="45.58549" lon="2.69488">
        <ele>976</ele>
        <time>2022-07-30T22:21:46.000Z</time>
      </trkpt>
      <trkpt lat="45.58553" lon="2.69485">
        <ele>976</ele>
        <time>2022-07-30T22:21:47.000Z</time>
      </trkpt>
      <trkpt lat="45.58558" lon="2.69482">
        <ele>976</ele>
        <time>2022-07-30T22:21:48.000Z</time>
      </trkpt>
      <trkpt lat="45.58562" lon="2.69479">
        <ele>976</ele>
        <time>2022-07-30T22:21:49.000Z</time>
      </trkpt>
      <trkpt lat="45.58567" lon="2.69476">
        <ele>976</ele>
        <time>2022-07-30T22:21:50.000Z</time>
      </trkpt>
      <trkpt lat="45.58571" lon="2.69474">
        <ele>976</ele>
        <time>2022-07-30T22:21:51.000Z</time>
      </trkpt>
      <trkpt lat="45.58575" lon="2.6947">
        <ele>976</ele>
        <time>2022-07-30T22:21:52.000Z</time>
      </trkpt>
      <trkpt lat="45.58579" lon="2.69465">
        <ele>968</ele>
        <time>2022-07-30T22:21:53.000Z</time>
      </trkpt>
      <trkpt lat="45.58583" lon="2.69461">
        <ele>968</ele>
        <time>2022-07-30T22:21:54.000Z</time>
      </trkpt>
      <trkpt lat="45.58587" lon="2.69457">
        <ele>968</ele>
        <time>2022-07-30T22:21:55.000Z</time>
      </trkpt>
      <trkpt lat="45.58592" lon="2.69456">
        <ele>968</ele>
        <time>2022-07-30T22:21:56.000Z</time>
      </trkpt>
      <trkpt lat="45.58597" lon="2.69455">
        <ele>968</ele>
        <time>2022-07-30T22:21:57.000Z</time>
      </trkpt>
      <trkpt lat="45.58602" lon="2.69453">
        <ele>968</ele>
        <time>2022-07-30T22:21:58.000Z</time>
      </trkpt>
      <trkpt lat="45.58606" lon="2.69453">
        <ele>973</ele>
        <time>2022-07-30T22:21:59.000Z</time>
      </trkpt>
      <trkpt lat="45.58611" lon="2.69453">
        <ele>973</ele>
        <time>2022-07-30T22:22:00.000Z</time>
      </trkpt>
      <trkpt lat="45.58615" lon="2.69453">
        <ele>973</ele>
        <time>2022-07-30T22:22:01.000Z</time>
      </trkpt>
      <trkpt lat="45.5862" lon="2.69452">
        <ele>973</ele>
        <time>2022-07-30T22:22:02.000Z</time>
      </trkpt>
      <trkpt lat="45.58624" lon="2.69452">
        <ele>973</ele>
        <time>2022-07-30T22:22:03.000Z</time>
      </trkpt>
      <trkpt lat="45.58629" lon="2.69454">
        <ele>973</ele>
        <time>2022-07-30T22:22:04.000Z</time>
      </trkpt>
      <trkpt lat="45.58634" lon="2.69455">
        <ele>973</ele>
        <time>2022-07-30T22:22:05.000Z</time>
      </trkpt>
      <trkpt lat="45.58639" lon="2.69457">
        <ele>973</ele>
        <time>2022-07-30T22:22:06.000Z</time>
      </trkpt>
      <trkpt lat="45.58644" lon="2.69459">
        <ele>973</ele>
        <time>2022-07-30T22:22:07.000Z</time>
      </trkpt>
      <trkpt lat="45.58649" lon="2.6946">
        <ele>973</ele>
        <time>2022-07-30T22:22:08.000Z</time>
      </trkpt>
      <trkpt lat="45.58654" lon="2.69461">
        <ele>973</ele>
        <time>2022-07-30T22:22:09.000Z</time>
      </trkpt>
      <trkpt lat="45.58658" lon="2.69462">
        <ele>973</ele>
        <time>2022-07-30T22:22:10.000Z</time>
      </trkpt>
      <trkpt lat="45.58663" lon="2.69463">
        <ele>973</ele>
        <time>2022-07-30T22:22:11.000Z</time>
      </trkpt>
      <trkpt lat="45.58667" lon="2.69464">
        <ele>973</ele>
        <time>2022-07-30T22:22:12.000Z</time>
      </trkpt>
      <trkpt lat="45.58672" lon="2.69464">
        <ele>973</ele>
        <time>2022-07-30T22:22:13.000Z</time>
      </trkpt>
      <trkpt lat="45.58676" lon="2.69465">
        <ele>973</ele>
        <time>2022-07-30T22:22:14.000Z</time>
      </trkpt>
      <trkpt lat="45.58682" lon="2.69466">
        <ele>973</ele>
        <time>2022-07-30T22:22:15.000Z</time>
      </trkpt>
      <trkpt lat="45.58687" lon="2.69466">
        <ele>973</ele>
        <time>2022-07-30T22:22:16.000Z</time>
      </trkpt>
      <trkpt lat="45.58693" lon="2.69467">
        <ele>973</ele>
        <time>2022-07-30T22:22:17.000Z</time>
      </trkpt>
      <trkpt lat="45.58698" lon="2.69467">
        <ele>974</ele>
        <time>2022-07-30T22:22:18.000Z</time>
      </trkpt>
      <trkpt lat="45.58703" lon="2.69468">
        <ele>974</ele>
        <time>2022-07-30T22:22:19.000Z</time>
      </trkpt>
      <trkpt lat="45.58708" lon="2.69469">
        <ele>974</ele>
        <time>2022-07-30T22:22:20.000Z</time>
      </trkpt>
      <trkpt lat="45.58713" lon="2.6947">
        <ele>974</ele>
        <time>2022-07-30T22:22:21.000Z</time>
      </trkpt>
      <trkpt lat="45.58718" lon="2.69471">
        <ele>974</ele>
        <time>2022-07-30T22:22:22.000Z</time>
      </trkpt>
      <trkpt lat="45.58723" lon="2.69472">
        <ele>974</ele>
        <time>2022-07-30T22:22:23.000Z</time>
      </trkpt>
      <trkpt lat="45.58728" lon="2.69473">
        <ele>974</ele>
        <time>2022-07-30T22:22:24.000Z</time>
      </trkpt>
      <trkpt lat="45.58733" lon="2.69474">
        <ele>974</ele>
        <time>2022-07-30T22:22:25.000Z</time>
      </trkpt>
      <trkpt lat="45.58737" lon="2.69471">
        <ele>974</ele>
        <time>2022-07-30T22:22:26.000Z</time>
      </trkpt>
      <trkpt lat="45.58741" lon="2.69469">
        <ele>974</ele>
        <time>2022-07-30T22:22:27.000Z</time>
      </trkpt>
      <trkpt lat="45.58746" lon="2.69466">
        <ele>974</ele>
        <time>2022-07-30T22:22:28.000Z</time>
      </trkpt>
      <trkpt lat="45.5875" lon="2.69464">
        <ele>974</ele>
        <time>2022-07-30T22:22:29.000Z</time>
      </trkpt>
      <trkpt lat="45.58754" lon="2.69462">
        <ele>974</ele>
        <time>2022-07-30T22:22:30.000Z</time>
      </trkpt>
      <trkpt lat="45.58758" lon="2.69457">
        <ele>974</ele>
        <time>2022-07-30T22:22:31.000Z</time>
      </trkpt>
      <trkpt lat="45.58762" lon="2.69453">
        <ele>974</ele>
        <time>2022-07-30T22:22:32.000Z</time>
      </trkpt>
      <trkpt lat="45.58767" lon="2.69449">
        <ele>974</ele>
        <time>2022-07-30T22:22:33.000Z</time>
      </trkpt>
      <trkpt lat="45.58771" lon="2.69445">
        <ele>974</ele>
        <time>2022-07-30T22:22:34.000Z</time>
      </trkpt>
      <trkpt lat="45.58775" lon="2.6944">
        <ele>972</ele>
        <time>2022-07-30T22:22:35.000Z</time>
      </trkpt>
      <trkpt lat="45.58781" lon="2.69439">
        <ele>972</ele>
        <time>2022-07-30T22:22:36.000Z</time>
      </trkpt>
      <trkpt lat="45.58787" lon="2.69437">
        <ele>972</ele>
        <time>2022-07-30T22:22:37.000Z</time>
      </trkpt>
      <trkpt lat="45.58792" lon="2.69438">
        <ele>972</ele>
        <time>2022-07-30T22:22:38.000Z</time>
      </trkpt>
      <trkpt lat="45.58796" lon="2.6944">
        <ele>972</ele>
        <time>2022-07-30T22:22:39.000Z</time>
      </trkpt>
      <trkpt lat="45.58801" lon="2.69441">
        <ele>972</ele>
        <time>2022-07-30T22:22:40.000Z</time>
      </trkpt>
      <trkpt lat="45.58805" lon="2.69443">
        <ele>972</ele>
        <time>2022-07-30T22:22:41.000Z</time>
      </trkpt>
      <trkpt lat="45.5881" lon="2.69444">
        <ele>972</ele>
        <time>2022-07-30T22:22:42.000Z</time>
      </trkpt>
      <trkpt lat="45.58813" lon="2.69449">
        <ele>972</ele>
        <time>2022-07-30T22:22:43.000Z</time>
      </trkpt>
      <trkpt lat="45.58816" lon="2.69453">
        <ele>972</ele>
        <time>2022-07-30T22:22:44.000Z</time>
      </trkpt>
      <trkpt lat="45.5882" lon="2.69458">
        <ele>972</ele>
        <time>2022-07-30T22:22:45.000Z</time>
      </trkpt>
      <trkpt lat="45.58823" lon="2.69463">
        <ele>972</ele>
        <time>2022-07-30T22:22:46.000Z</time>
      </trkpt>
      <trkpt lat="45.58826" lon="2.69467">
        <ele>972</ele>
        <time>2022-07-30T22:22:47.000Z</time>
      </trkpt>
      <trkpt lat="45.58829" lon="2.69472">
        <ele>972</ele>
        <time>2022-07-30T22:22:48.000Z</time>
      </trkpt>
      <trkpt lat="45.5883" lon="2.69478">
        <ele>972</ele>
        <time>2022-07-30T22:22:49.000Z</time>
      </trkpt>
      <trkpt lat="45.58831" lon="2.69485">
        <ele>972</ele>
        <time>2022-07-30T22:22:50.000Z</time>
      </trkpt>
      <trkpt lat="45.58833" lon="2.69491">
        <ele>972</ele>
        <time>2022-07-30T22:22:51.000Z</time>
      </trkpt>
      <trkpt lat="45.58834" lon="2.69497">
        <ele>972</ele>
        <time>2022-07-30T22:22:52.000Z</time>
      </trkpt>
      <trkpt lat="45.58835" lon="2.69504">
        <ele>972</ele>
        <time>2022-07-30T22:22:53.000Z</time>
      </trkpt>
      <trkpt lat="45.58836" lon="2.6951">
        <ele>967</ele>
        <time>2022-07-30T22:22:54.000Z</time>
      </trkpt>
      <trkpt lat="45.58837" lon="2.69517">
        <ele>967</ele>
        <time>2022-07-30T22:22:55.000Z</time>
      </trkpt>
      <trkpt lat="45.58838" lon="2.69523">
        <ele>967</ele>
        <time>2022-07-30T22:22:56.000Z</time>
      </trkpt>
      <trkpt lat="45.58839" lon="2.69529">
        <ele>967</ele>
        <time>2022-07-30T22:22:57.000Z</time>
      </trkpt>
      <trkpt lat="45.5884" lon="2.69536">
        <ele>967</ele>
        <time>2022-07-30T22:22:58.000Z</time>
      </trkpt>
      <trkpt lat="45.58843" lon="2.69541">
        <ele>967</ele>
        <time>2022-07-30T22:22:59.000Z</time>
      </trkpt>
      <trkpt lat="45.58846" lon="2.69546">
        <ele>967</ele>
        <time>2022-07-30T22:23:00.000Z</time>
      </trkpt>
      <trkpt lat="45.58849" lon="2.69552">
        <ele>967</ele>
        <time>2022-07-30T22:23:01.000Z</time>
      </trkpt>
      <trkpt lat="45.58852" lon="2.69557">
        <ele>967</ele>
        <time>2022-07-30T22:23:02.000Z</time>
      </trkpt>
      <trkpt lat="45.58856" lon="2.69561">
        <ele>967</ele>
        <time>2022-07-30T22:23:03.000Z</time>
      </trkpt>
      <trkpt lat="45.5886" lon="2.69565">
        <ele>967</ele>
        <time>2022-07-30T22:23:04.000Z</time>
      </trkpt>
      <trkpt lat="45.58863" lon="2.69569">
        <ele>977</ele>
        <time>2022-07-30T22:23:05.000Z</time>
      </trkpt>
      <trkpt lat="45.58867" lon="2.69573">
        <ele>977</ele>
        <time>2022-07-30T22:23:06.000Z</time>
      </trkpt>
      <trkpt lat="45.58871" lon="2.69577">
        <ele>977</ele>
        <time>2022-07-30T22:23:07.000Z</time>
      </trkpt>
      <trkpt lat="45.58875" lon="2.69581">
        <ele>977</ele>
        <time>2022-07-30T22:23:08.000Z</time>
      </trkpt>
      <trkpt lat="45.58879" lon="2.69585">
        <ele>977</ele>
        <time>2022-07-30T22:23:09.000Z</time>
      </trkpt>
      <trkpt lat="45.58883" lon="2.69589">
        <ele>977</ele>
        <time>2022-07-30T22:23:10.000Z</time>
      </trkpt>
      <trkpt lat="45.58887" lon="2.69593">
        <ele>977</ele>
        <time>2022-07-30T22:23:11.000Z</time>
      </trkpt>
      <trkpt lat="45.58889" lon="2.69598">
        <ele>977</ele>
        <time>2022-07-30T22:23:12.000Z</time>
      </trkpt>
      <trkpt lat="45.58891" lon="2.69604">
        <ele>977</ele>
        <time>2022-07-30T22:23:13.000Z</time>
      </trkpt>
      <trkpt lat="45.58893" lon="2.6961">
        <ele>977</ele>
        <time>2022-07-30T22:23:14.000Z</time>
      </trkpt>
      <trkpt lat="45.58895" lon="2.69616">
        <ele>977</ele>
        <time>2022-07-30T22:23:15.000Z</time>
      </trkpt>
      <trkpt lat="45.58897" lon="2.69621">
        <ele>977</ele>
        <time>2022-07-30T22:23:16.000Z</time>
      </trkpt>
      <trkpt lat="45.58899" lon="2.69627">
        <ele>977</ele>
        <time>2022-07-30T22:23:17.000Z</time>
      </trkpt>
      <trkpt lat="45.58901" lon="2.69633">
        <ele>977</ele>
        <time>2022-07-30T22:23:18.000Z</time>
      </trkpt>
      <trkpt lat="45.58903" lon="2.69639">
        <ele>977</ele>
        <time>2022-07-30T22:23:19.000Z</time>
      </trkpt>
      <trkpt lat="45.58905" lon="2.69645">
        <ele>977</ele>
        <time>2022-07-30T22:23:20.000Z</time>
      </trkpt>
      <trkpt lat="45.58907" lon="2.69651">
        <ele>986</ele>
        <time>2022-07-30T22:23:21.000Z</time>
      </trkpt>
      <trkpt lat="45.58908" lon="2.69657">
        <ele>962</ele>
        <time>2022-07-30T22:23:22.000Z</time>
      </trkpt>
      <trkpt lat="45.5891" lon="2.69663">
        <ele>962</ele>
        <time>2022-07-30T22:23:23.000Z</time>
      </trkpt>
      <trkpt lat="45.58911" lon="2.69669">
        <ele>962</ele>
        <time>2022-07-30T22:23:24.000Z</time>
      </trkpt>
      <trkpt lat="45.58913" lon="2.69675">
        <ele>962</ele>
        <time>2022-07-30T22:23:25.000Z</time>
      </trkpt>
      <trkpt lat="45.58915" lon="2.69681">
        <ele>962</ele>
        <time>2022-07-30T22:23:26.000Z</time>
      </trkpt>
      <trkpt lat="45.58916" lon="2.69687">
        <ele>962</ele>
        <time>2022-07-30T22:23:27.000Z</time>
      </trkpt>
      <trkpt lat="45.58918" lon="2.69693">
        <ele>962</ele>
        <time>2022-07-30T22:23:28.000Z</time>
      </trkpt>
      <trkpt lat="45.5892" lon="2.697">
        <ele>962</ele>
        <time>2022-07-30T22:23:29.000Z</time>
      </trkpt>
      <trkpt lat="45.58921" lon="2.69706">
        <ele>962</ele>
        <time>2022-07-30T22:23:30.000Z</time>
      </trkpt>
      <trkpt lat="45.58923" lon="2.69712">
        <ele>962</ele>
        <time>2022-07-30T22:23:31.000Z</time>
      </trkpt>
      <trkpt lat="45.58924" lon="2.69718">
        <ele>962</ele>
        <time>2022-07-30T22:23:32.000Z</time>
      </trkpt>
      <trkpt lat="45.58925" lon="2.69724">
        <ele>962</ele>
        <time>2022-07-30T22:23:33.000Z</time>
      </trkpt>
      <trkpt lat="45.58927" lon="2.69731">
        <ele>962</ele>
        <time>2022-07-30T22:23:34.000Z</time>
      </trkpt>
      <trkpt lat="45.58928" lon="2.69737">
        <ele>962</ele>
        <time>2022-07-30T22:23:35.000Z</time>
      </trkpt>
      <trkpt lat="45.58929" lon="2.69743">
        <ele>959</ele>
        <time>2022-07-30T22:23:36.000Z</time>
      </trkpt>
      <trkpt lat="45.58931" lon="2.6975">
        <ele>959</ele>
        <time>2022-07-30T22:23:37.000Z</time>
      </trkpt>
      <trkpt lat="45.58932" lon="2.69756">
        <ele>959</ele>
        <time>2022-07-30T22:23:38.000Z</time>
      </trkpt>
      <trkpt lat="45.58933" lon="2.69762">
        <ele>959</ele>
        <time>2022-07-30T22:23:39.000Z</time>
      </trkpt>
      <trkpt lat="45.58935" lon="2.69769">
        <ele>959</ele>
        <time>2022-07-30T22:23:40.000Z</time>
      </trkpt>
      <trkpt lat="45.58936" lon="2.69775">
        <ele>959</ele>
        <time>2022-07-30T22:23:41.000Z</time>
      </trkpt>
      <trkpt lat="45.58937" lon="2.69782">
        <ele>959</ele>
        <time>2022-07-30T22:23:42.000Z</time>
      </trkpt>
      <trkpt lat="45.58939" lon="2.69788">
        <ele>959</ele>
        <time>2022-07-30T22:23:43.000Z</time>
      </trkpt>
      <trkpt lat="45.58939" lon="2.69795">
        <ele>959</ele>
        <time>2022-07-30T22:23:44.000Z</time>
      </trkpt>
      <trkpt lat="45.58939" lon="2.69802">
        <ele>959</ele>
        <time>2022-07-30T22:23:45.000Z</time>
      </trkpt>
      <trkpt lat="45.5894" lon="2.69809">
        <ele>959</ele>
        <time>2022-07-30T22:23:46.000Z</time>
      </trkpt>
      <trkpt lat="45.5894" lon="2.69816">
        <ele>959</ele>
        <time>2022-07-30T22:23:47.000Z</time>
      </trkpt>
      <trkpt lat="45.58941" lon="2.69823">
        <ele>963</ele>
        <time>2022-07-30T22:23:48.000Z</time>
      </trkpt>
      <trkpt lat="45.58941" lon="2.6983">
        <ele>963</ele>
        <time>2022-07-30T22:23:49.000Z</time>
      </trkpt>
      <trkpt lat="45.58942" lon="2.69837">
        <ele>963</ele>
        <time>2022-07-30T22:23:50.000Z</time>
      </trkpt>
      <trkpt lat="45.58941" lon="2.69844">
        <ele>963</ele>
        <time>2022-07-30T22:23:51.000Z</time>
      </trkpt>
      <trkpt lat="45.58941" lon="2.69851">
        <ele>963</ele>
        <time>2022-07-30T22:23:52.000Z</time>
      </trkpt>
      <trkpt lat="45.5894" lon="2.69858">
        <ele>963</ele>
        <time>2022-07-30T22:23:53.000Z</time>
      </trkpt>
      <trkpt lat="45.5894" lon="2.69865">
        <ele>963</ele>
        <time>2022-07-30T22:23:54.000Z</time>
      </trkpt>
      <trkpt lat="45.5894" lon="2.69872">
        <ele>963</ele>
        <time>2022-07-30T22:23:55.000Z</time>
      </trkpt>
      <trkpt lat="45.58939" lon="2.69879">
        <ele>963</ele>
        <time>2022-07-30T22:23:56.000Z</time>
      </trkpt>
      <trkpt lat="45.58939" lon="2.69886">
        <ele>963</ele>
        <time>2022-07-30T22:23:57.000Z</time>
      </trkpt>
      <trkpt lat="45.58938" lon="2.69894">
        <ele>973</ele>
        <time>2022-07-30T22:23:58.000Z</time>
      </trkpt>
      <trkpt lat="45.5894" lon="2.699">
        <ele>973</ele>
        <time>2022-07-30T22:23:59.000Z</time>
      </trkpt>
      <trkpt lat="45.58941" lon="2.69906">
        <ele>973</ele>
        <time>2022-07-30T22:24:00.000Z</time>
      </trkpt>
      <trkpt lat="45.58942" lon="2.69913">
        <ele>973</ele>
        <time>2022-07-30T22:24:01.000Z</time>
      </trkpt>
      <trkpt lat="45.58943" lon="2.69919">
        <ele>973</ele>
        <time>2022-07-30T22:24:02.000Z</time>
      </trkpt>
      <trkpt lat="45.58945" lon="2.69926">
        <ele>973</ele>
        <time>2022-07-30T22:24:03.000Z</time>
      </trkpt>
      <trkpt lat="45.58946" lon="2.69932">
        <ele>973</ele>
        <time>2022-07-30T22:24:04.000Z</time>
      </trkpt>
      <trkpt lat="45.58949" lon="2.69939">
        <ele>973</ele>
        <time>2022-07-30T22:24:05.000Z</time>
      </trkpt>
      <trkpt lat="45.58952" lon="2.69946">
        <ele>973</ele>
        <time>2022-07-30T22:24:06.000Z</time>
      </trkpt>
      <trkpt lat="45.58954" lon="2.69953">
        <ele>973</ele>
        <time>2022-07-30T22:24:07.000Z</time>
      </trkpt>
      <trkpt lat="45.58957" lon="2.6996">
        <ele>973</ele>
        <time>2022-07-30T22:24:08.000Z</time>
      </trkpt>
      <trkpt lat="45.58962" lon="2.69964">
        <ele>973</ele>
        <time>2022-07-30T22:24:09.000Z</time>
      </trkpt>
      <trkpt lat="45.58966" lon="2.69969">
        <ele>973</ele>
        <time>2022-07-30T22:24:10.000Z</time>
      </trkpt>
      <trkpt lat="45.5897" lon="2.69974">
        <ele>973</ele>
        <time>2022-07-30T22:24:11.000Z</time>
      </trkpt>
      <trkpt lat="45.5897" lon="2.69981">
        <ele>975</ele>
        <time>2022-07-30T22:24:12.000Z</time>
      </trkpt>
      <trkpt lat="45.58971" lon="2.69988">
        <ele>975</ele>
        <time>2022-07-30T22:24:13.000Z</time>
      </trkpt>
      <trkpt lat="45.58971" lon="2.69995">
        <ele>975</ele>
        <time>2022-07-30T22:24:14.000Z</time>
      </trkpt>
      <trkpt lat="45.58972" lon="2.70001">
        <ele>975</ele>
        <time>2022-07-30T22:24:15.000Z</time>
      </trkpt>
      <trkpt lat="45.58972" lon="2.70008">
        <ele>975</ele>
        <time>2022-07-30T22:24:16.000Z</time>
      </trkpt>
      <trkpt lat="45.58972" lon="2.70015">
        <ele>975</ele>
        <time>2022-07-30T22:24:17.000Z</time>
      </trkpt>
      <trkpt lat="45.58973" lon="2.70022">
        <ele>975</ele>
        <time>2022-07-30T22:24:18.000Z</time>
      </trkpt>
      <trkpt lat="45.58972" lon="2.70029">
        <ele>975</ele>
        <time>2022-07-30T22:24:19.000Z</time>
      </trkpt>
      <trkpt lat="45.58972" lon="2.70035">
        <ele>951</ele>
        <time>2022-07-30T22:24:20.000Z</time>
      </trkpt>
      <trkpt lat="45.58971" lon="2.70042">
        <ele>951</ele>
        <time>2022-07-30T22:24:21.000Z</time>
      </trkpt>
      <trkpt lat="45.58971" lon="2.70049">
        <ele>951</ele>
        <time>2022-07-30T22:24:22.000Z</time>
      </trkpt>
      <trkpt lat="45.5897" lon="2.70055">
        <ele>951</ele>
        <time>2022-07-30T22:24:23.000Z</time>
      </trkpt>
      <trkpt lat="45.5897" lon="2.70062">
        <ele>951</ele>
        <time>2022-07-30T22:24:24.000Z</time>
      </trkpt>
      <trkpt lat="45.5897" lon="2.70068">
        <ele>955</ele>
        <time>2022-07-30T22:24:25.000Z</time>
      </trkpt>
      <trkpt lat="45.58969" lon="2.70075">
        <ele>955</ele>
        <time>2022-07-30T22:24:26.000Z</time>
      </trkpt>
      <trkpt lat="45.58969" lon="2.70081">
        <ele>955</ele>
        <time>2022-07-30T22:24:27.000Z</time>
      </trkpt>
      <trkpt lat="45.58968" lon="2.70088">
        <ele>955</ele>
        <time>2022-07-30T22:24:28.000Z</time>
      </trkpt>
      <trkpt lat="45.58968" lon="2.70094">
        <ele>955</ele>
        <time>2022-07-30T22:24:29.000Z</time>
      </trkpt>
      <trkpt lat="45.58967" lon="2.70101">
        <ele>955</ele>
        <time>2022-07-30T22:24:30.000Z</time>
      </trkpt>
      <trkpt lat="45.58969" lon="2.70107">
        <ele>955</ele>
        <time>2022-07-30T22:24:31.000Z</time>
      </trkpt>
      <trkpt lat="45.58971" lon="2.70113">
        <ele>955</ele>
        <time>2022-07-30T22:24:32.000Z</time>
      </trkpt>
      <trkpt lat="45.58973" lon="2.70119">
        <ele>955</ele>
        <time>2022-07-30T22:24:33.000Z</time>
      </trkpt>
      <trkpt lat="45.58975" lon="2.70125">
        <ele>955</ele>
        <time>2022-07-30T22:24:34.000Z</time>
      </trkpt>
      <trkpt lat="45.58977" lon="2.70131">
        <ele>955</ele>
        <time>2022-07-30T22:24:35.000Z</time>
      </trkpt>
      <trkpt lat="45.58979" lon="2.70137">
        <ele>955</ele>
        <time>2022-07-30T22:24:36.000Z</time>
      </trkpt>
      <trkpt lat="45.58981" lon="2.70143">
        <ele>976</ele>
        <time>2022-07-30T22:24:37.000Z</time>
      </trkpt>
      <trkpt lat="45.58983" lon="2.70149">
        <ele>976</ele>
        <time>2022-07-30T22:24:38.000Z</time>
      </trkpt>
      <trkpt lat="45.58985" lon="2.70155">
        <ele>976</ele>
        <time>2022-07-30T22:24:39.000Z</time>
      </trkpt>
      <trkpt lat="45.58987" lon="2.70161">
        <ele>976</ele>
        <time>2022-07-30T22:24:40.000Z</time>
      </trkpt>
      <trkpt lat="45.58989" lon="2.70167">
        <ele>954</ele>
        <time>2022-07-30T22:24:41.000Z</time>
      </trkpt>
      <trkpt lat="45.58991" lon="2.70173">
        <ele>954</ele>
        <time>2022-07-30T22:24:42.000Z</time>
      </trkpt>
      <trkpt lat="45.58993" lon="2.7018">
        <ele>954</ele>
        <time>2022-07-30T22:24:43.000Z</time>
      </trkpt>
      <trkpt lat="45.58995" lon="2.70187">
        <ele>954</ele>
        <time>2022-07-30T22:24:44.000Z</time>
      </trkpt>
      <trkpt lat="45.58998" lon="2.70194">
        <ele>954</ele>
        <time>2022-07-30T22:24:45.000Z</time>
      </trkpt>
      <trkpt lat="45.58997" lon="2.70201">
        <ele>954</ele>
        <time>2022-07-30T22:24:46.000Z</time>
      </trkpt>
      <trkpt lat="45.58997" lon="2.70207">
        <ele>954</ele>
        <time>2022-07-30T22:24:47.000Z</time>
      </trkpt>
      <trkpt lat="45.58997" lon="2.70214">
        <ele>954</ele>
        <time>2022-07-30T22:24:48.000Z</time>
      </trkpt>
      <trkpt lat="45.58997" lon="2.70221">
        <ele>954</ele>
        <time>2022-07-30T22:24:49.000Z</time>
      </trkpt>
      <trkpt lat="45.58997" lon="2.70227">
        <ele>950</ele>
        <time>2022-07-30T22:24:50.000Z</time>
      </trkpt>
      <trkpt lat="45.58997" lon="2.70234">
        <ele>950</ele>
        <time>2022-07-30T22:24:51.000Z</time>
      </trkpt>
      <trkpt lat="45.58997" lon="2.7024">
        <ele>950</ele>
        <time>2022-07-30T22:24:52.000Z</time>
      </trkpt>
      <trkpt lat="45.58995" lon="2.70247">
        <ele>950</ele>
        <time>2022-07-30T22:24:53.000Z</time>
      </trkpt>
      <trkpt lat="45.58994" lon="2.70254">
        <ele>950</ele>
        <time>2022-07-30T22:24:54.000Z</time>
      </trkpt>
      <trkpt lat="45.58992" lon="2.7026">
        <ele>950</ele>
        <time>2022-07-30T22:24:55.000Z</time>
      </trkpt>
      <trkpt lat="45.58991" lon="2.70267">
        <ele>950</ele>
        <time>2022-07-30T22:24:56.000Z</time>
      </trkpt>
      <trkpt lat="45.58989" lon="2.70274">
        <ele>950</ele>
        <time>2022-07-30T22:24:57.000Z</time>
      </trkpt>
      <trkpt lat="45.58988" lon="2.7028">
        <ele>950</ele>
        <time>2022-07-30T22:24:58.000Z</time>
      </trkpt>
      <trkpt lat="45.58986" lon="2.70287">
        <ele>950</ele>
        <time>2022-07-30T22:24:59.000Z</time>
      </trkpt>
      <trkpt lat="45.58984" lon="2.70294">
        <ele>950</ele>
        <time>2022-07-30T22:25:00.000Z</time>
      </trkpt>
      <trkpt lat="45.58983" lon="2.703">
        <ele>950</ele>
        <time>2022-07-30T22:25:01.000Z</time>
      </trkpt>
      <trkpt lat="45.58981" lon="2.70307">
        <ele>950</ele>
        <time>2022-07-30T22:25:02.000Z</time>
      </trkpt>
      <trkpt lat="45.58979" lon="2.70312">
        <ele>947</ele>
        <time>2022-07-30T22:25:03.000Z</time>
      </trkpt>
      <trkpt lat="45.58976" lon="2.70317">
        <ele>947</ele>
        <time>2022-07-30T22:25:04.000Z</time>
      </trkpt>
      <trkpt lat="45.58974" lon="2.70323">
        <ele>947</ele>
        <time>2022-07-30T22:25:05.000Z</time>
      </trkpt>
      <trkpt lat="45.58971" lon="2.70328">
        <ele>947</ele>
        <time>2022-07-30T22:25:06.000Z</time>
      </trkpt>
      <trkpt lat="45.58968" lon="2.70333">
        <ele>947</ele>
        <time>2022-07-30T22:25:07.000Z</time>
      </trkpt>
      <trkpt lat="45.58966" lon="2.70338">
        <ele>947</ele>
        <time>2022-07-30T22:25:08.000Z</time>
      </trkpt>
      <trkpt lat="45.58963" lon="2.70344">
        <ele>947</ele>
        <time>2022-07-30T22:25:09.000Z</time>
      </trkpt>
      <trkpt lat="45.58961" lon="2.70349">
        <ele>947</ele>
        <time>2022-07-30T22:25:10.000Z</time>
      </trkpt>
      <trkpt lat="45.58958" lon="2.70354">
        <ele>947</ele>
        <time>2022-07-30T22:25:11.000Z</time>
      </trkpt>
      <trkpt lat="45.58955" lon="2.70359">
        <ele>947</ele>
        <time>2022-07-30T22:25:12.000Z</time>
      </trkpt>
      <trkpt lat="45.58953" lon="2.70365">
        <ele>947</ele>
        <time>2022-07-30T22:25:13.000Z</time>
      </trkpt>
      <trkpt lat="45.5895" lon="2.7037">
        <ele>947</ele>
        <time>2022-07-30T22:25:14.000Z</time>
      </trkpt>
      <trkpt lat="45.58948" lon="2.70375">
        <ele>956</ele>
        <time>2022-07-30T22:25:15.000Z</time>
      </trkpt>
      <trkpt lat="45.58945" lon="2.7038">
        <ele>956</ele>
        <time>2022-07-30T22:25:16.000Z</time>
      </trkpt>
      <trkpt lat="45.58943" lon="2.70387">
        <ele>956</ele>
        <time>2022-07-30T22:25:17.000Z</time>
      </trkpt>
      <trkpt lat="45.58942" lon="2.70393">
        <ele>956</ele>
        <time>2022-07-30T22:25:18.000Z</time>
      </trkpt>
      <trkpt lat="45.5894" lon="2.70399">
        <ele>956</ele>
        <time>2022-07-30T22:25:19.000Z</time>
      </trkpt>
      <trkpt lat="45.58939" lon="2.70405">
        <ele>956</ele>
        <time>2022-07-30T22:25:20.000Z</time>
      </trkpt>
      <trkpt lat="45.58937" lon="2.70411">
        <ele>956</ele>
        <time>2022-07-30T22:25:21.000Z</time>
      </trkpt>
      <trkpt lat="45.58936" lon="2.70417">
        <ele>956</ele>
        <time>2022-07-30T22:25:22.000Z</time>
      </trkpt>
      <trkpt lat="45.58934" lon="2.70423">
        <ele>956</ele>
        <time>2022-07-30T22:25:23.000Z</time>
      </trkpt>
      <trkpt lat="45.58933" lon="2.70429">
        <ele>956</ele>
        <time>2022-07-30T22:25:24.000Z</time>
      </trkpt>
      <trkpt lat="45.58931" lon="2.70436">
        <ele>956</ele>
        <time>2022-07-30T22:25:25.000Z</time>
      </trkpt>
      <trkpt lat="45.5893" lon="2.70442">
        <ele>956</ele>
        <time>2022-07-30T22:25:26.000Z</time>
      </trkpt>
      <trkpt lat="45.58928" lon="2.70448">
        <ele>956</ele>
        <time>2022-07-30T22:25:27.000Z</time>
      </trkpt>
      <trkpt lat="45.58927" lon="2.70454">
        <ele>956</ele>
        <time>2022-07-30T22:25:28.000Z</time>
      </trkpt>
      <trkpt lat="45.58925" lon="2.70461">
        <ele>950</ele>
        <time>2022-07-30T22:25:29.000Z</time>
      </trkpt>
      <trkpt lat="45.58923" lon="2.70467">
        <ele>950</ele>
        <time>2022-07-30T22:25:30.000Z</time>
      </trkpt>
      <trkpt lat="45.58922" lon="2.70473">
        <ele>950</ele>
        <time>2022-07-30T22:25:31.000Z</time>
      </trkpt>
      <trkpt lat="45.5892" lon="2.70479">
        <ele>950</ele>
        <time>2022-07-30T22:25:32.000Z</time>
      </trkpt>
      <trkpt lat="45.58919" lon="2.70486">
        <ele>950</ele>
        <time>2022-07-30T22:25:33.000Z</time>
      </trkpt>
      <trkpt lat="45.58917" lon="2.70492">
        <ele>950</ele>
        <time>2022-07-30T22:25:34.000Z</time>
      </trkpt>
      <trkpt lat="45.58916" lon="2.70498">
        <ele>950</ele>
        <time>2022-07-30T22:25:35.000Z</time>
      </trkpt>
      <trkpt lat="45.58914" lon="2.70504">
        <ele>950</ele>
        <time>2022-07-30T22:25:36.000Z</time>
      </trkpt>
      <trkpt lat="45.58913" lon="2.70511">
        <ele>950</ele>
        <time>2022-07-30T22:25:37.000Z</time>
      </trkpt>
      <trkpt lat="45.58911" lon="2.70517">
        <ele>950</ele>
        <time>2022-07-30T22:25:38.000Z</time>
      </trkpt>
      <trkpt lat="45.58909" lon="2.70523">
        <ele>950</ele>
        <time>2022-07-30T22:25:39.000Z</time>
      </trkpt>
      <trkpt lat="45.58908" lon="2.70529">
        <ele>951</ele>
        <time>2022-07-30T22:25:40.000Z</time>
      </trkpt>
      <trkpt lat="45.58906" lon="2.70536">
        <ele>951</ele>
        <time>2022-07-30T22:25:41.000Z</time>
      </trkpt>
      <trkpt lat="45.58905" lon="2.70542">
        <ele>951</ele>
        <time>2022-07-30T22:25:42.000Z</time>
      </trkpt>
      <trkpt lat="45.58904" lon="2.70549">
        <ele>951</ele>
        <time>2022-07-30T22:25:43.000Z</time>
      </trkpt>
      <trkpt lat="45.58904" lon="2.70555">
        <ele>951</ele>
        <time>2022-07-30T22:25:44.000Z</time>
      </trkpt>
      <trkpt lat="45.58903" lon="2.70562">
        <ele>951</ele>
        <time>2022-07-30T22:25:45.000Z</time>
      </trkpt>
      <trkpt lat="45.58902" lon="2.70569">
        <ele>951</ele>
        <time>2022-07-30T22:25:46.000Z</time>
      </trkpt>
      <trkpt lat="45.58902" lon="2.70576">
        <ele>951</ele>
        <time>2022-07-30T22:25:47.000Z</time>
      </trkpt>
      <trkpt lat="45.58901" lon="2.70583">
        <ele>951</ele>
        <time>2022-07-30T22:25:48.000Z</time>
      </trkpt>
      <trkpt lat="45.58901" lon="2.7059">
        <ele>951</ele>
        <time>2022-07-30T22:25:49.000Z</time>
      </trkpt>
      <trkpt lat="45.589" lon="2.70596">
        <ele>951</ele>
        <time>2022-07-30T22:25:50.000Z</time>
      </trkpt>
      <trkpt lat="45.58899" lon="2.70603">
        <ele>951</ele>
        <time>2022-07-30T22:25:51.000Z</time>
      </trkpt>
      <trkpt lat="45.58899" lon="2.7061">
        <ele>942</ele>
        <time>2022-07-30T22:25:52.000Z</time>
      </trkpt>
      <trkpt lat="45.58897" lon="2.70616">
        <ele>942</ele>
        <time>2022-07-30T22:25:53.000Z</time>
      </trkpt>
      <trkpt lat="45.58895" lon="2.70623">
        <ele>942</ele>
        <time>2022-07-30T22:25:54.000Z</time>
      </trkpt>
      <trkpt lat="45.58893" lon="2.70629">
        <ele>942</ele>
        <time>2022-07-30T22:25:55.000Z</time>
      </trkpt>
      <trkpt lat="45.58891" lon="2.70635">
        <ele>942</ele>
        <time>2022-07-30T22:25:56.000Z</time>
      </trkpt>
      <trkpt lat="45.5889" lon="2.70641">
        <ele>942</ele>
        <time>2022-07-30T22:25:57.000Z</time>
      </trkpt>
      <trkpt lat="45.58888" lon="2.70648">
        <ele>942</ele>
        <time>2022-07-30T22:25:58.000Z</time>
      </trkpt>
      <trkpt lat="45.58886" lon="2.70654">
        <ele>942</ele>
        <time>2022-07-30T22:25:59.000Z</time>
      </trkpt>
      <trkpt lat="45.58883" lon="2.70659">
        <ele>942</ele>
        <time>2022-07-30T22:26:00.000Z</time>
      </trkpt>
      <trkpt lat="45.5888" lon="2.70665">
        <ele>942</ele>
        <time>2022-07-30T22:26:01.000Z</time>
      </trkpt>
      <trkpt lat="45.58878" lon="2.7067">
        <ele>942</ele>
        <time>2022-07-30T22:26:02.000Z</time>
      </trkpt>
      <trkpt lat="45.58875" lon="2.70676">
        <ele>962</ele>
        <time>2022-07-30T22:26:03.000Z</time>
      </trkpt>
      <trkpt lat="45.58872" lon="2.70681">
        <ele>962</ele>
        <time>2022-07-30T22:26:04.000Z</time>
      </trkpt>
      <trkpt lat="45.58869" lon="2.70687">
        <ele>954</ele>
        <time>2022-07-30T22:26:05.000Z</time>
      </trkpt>
      <trkpt lat="45.58866" lon="2.70692">
        <ele>954</ele>
        <time>2022-07-30T22:26:06.000Z</time>
      </trkpt>
      <trkpt lat="45.58863" lon="2.70698">
        <ele>954</ele>
        <time>2022-07-30T22:26:07.000Z</time>
      </trkpt>
      <trkpt lat="45.58861" lon="2.70703">
        <ele>954</ele>
        <time>2022-07-30T22:26:08.000Z</time>
      </trkpt>
      <trkpt lat="45.58858" lon="2.70708">
        <ele>954</ele>
        <time>2022-07-30T22:26:09.000Z</time>
      </trkpt>
      <trkpt lat="45.58855" lon="2.70714">
        <ele>954</ele>
        <time>2022-07-30T22:26:10.000Z</time>
      </trkpt>
      <trkpt lat="45.58852" lon="2.70719">
        <ele>954</ele>
        <time>2022-07-30T22:26:11.000Z</time>
      </trkpt>
      <trkpt lat="45.58849" lon="2.70725">
        <ele>954</ele>
        <time>2022-07-30T22:26:12.000Z</time>
      </trkpt>
      <trkpt lat="45.58846" lon="2.70729">
        <ele>954</ele>
        <time>2022-07-30T22:26:13.000Z</time>
      </trkpt>
      <trkpt lat="45.58842" lon="2.70734">
        <ele>954</ele>
        <time>2022-07-30T22:26:14.000Z</time>
      </trkpt>
      <trkpt lat="45.58839" lon="2.70738">
        <ele>954</ele>
        <time>2022-07-30T22:26:15.000Z</time>
      </trkpt>
      <trkpt lat="45.58835" lon="2.70743">
        <ele>954</ele>
        <time>2022-07-30T22:26:16.000Z</time>
      </trkpt>
      <trkpt lat="45.58832" lon="2.70747">
        <ele>954</ele>
        <time>2022-07-30T22:26:17.000Z</time>
      </trkpt>
      <trkpt lat="45.58828" lon="2.70752">
        <ele>954</ele>
        <time>2022-07-30T22:26:18.000Z</time>
      </trkpt>
      <trkpt lat="45.58825" lon="2.70756">
        <ele>954</ele>
        <time>2022-07-30T22:26:19.000Z</time>
      </trkpt>
      <trkpt lat="45.58821" lon="2.70761">
        <ele>946</ele>
        <time>2022-07-30T22:26:20.000Z</time>
      </trkpt>
      <trkpt lat="45.58818" lon="2.70765">
        <ele>946</ele>
        <time>2022-07-30T22:26:21.000Z</time>
      </trkpt>
      <trkpt lat="45.58814" lon="2.7077">
        <ele>946</ele>
        <time>2022-07-30T22:26:22.000Z</time>
      </trkpt>
      <trkpt lat="45.5881" lon="2.70774">
        <ele>946</ele>
        <time>2022-07-30T22:26:23.000Z</time>
      </trkpt>
      <trkpt lat="45.58807" lon="2.70779">
        <ele>946</ele>
        <time>2022-07-30T22:26:24.000Z</time>
      </trkpt>
      <trkpt lat="45.58803" lon="2.70783">
        <ele>946</ele>
        <time>2022-07-30T22:26:25.000Z</time>
      </trkpt>
      <trkpt lat="45.58799" lon="2.70786">
        <ele>946</ele>
        <time>2022-07-30T22:26:26.000Z</time>
      </trkpt>
      <trkpt lat="45.58795" lon="2.7079">
        <ele>969</ele>
        <time>2022-07-30T22:26:27.000Z</time>
      </trkpt>
      <trkpt lat="45.58791" lon="2.70793">
        <ele>969</ele>
        <time>2022-07-30T22:26:28.000Z</time>
      </trkpt>
      <trkpt lat="45.58787" lon="2.70796">
        <ele>969</ele>
        <time>2022-07-30T22:26:29.000Z</time>
      </trkpt>
      <trkpt lat="45.58783" lon="2.70799">
        <ele>969</ele>
        <time>2022-07-30T22:26:30.000Z</time>
      </trkpt>
      <trkpt lat="45.58779" lon="2.70802">
        <ele>969</ele>
        <time>2022-07-30T22:26:31.000Z</time>
      </trkpt>
      <trkpt lat="45.58775" lon="2.70805">
        <ele>969</ele>
        <time>2022-07-30T22:26:32.000Z</time>
      </trkpt>
      <trkpt lat="45.58771" lon="2.70808">
        <ele>969</ele>
        <time>2022-07-30T22:26:33.000Z</time>
      </trkpt>
      <trkpt lat="45.58767" lon="2.70813">
        <ele>969</ele>
        <time>2022-07-30T22:26:34.000Z</time>
      </trkpt>
      <trkpt lat="45.58762" lon="2.70817">
        <ele>969</ele>
        <time>2022-07-30T22:26:35.000Z</time>
      </trkpt>
      <trkpt lat="45.58758" lon="2.70821">
        <ele>969</ele>
        <time>2022-07-30T22:26:36.000Z</time>
      </trkpt>
      <trkpt lat="45.58754" lon="2.70825">
        <ele>969</ele>
        <time>2022-07-30T22:26:37.000Z</time>
      </trkpt>
      <trkpt lat="45.5875" lon="2.70829">
        <ele>969</ele>
        <time>2022-07-30T22:26:38.000Z</time>
      </trkpt>
      <trkpt lat="45.58748" lon="2.70835">
        <ele>969</ele>
        <time>2022-07-30T22:26:39.000Z</time>
      </trkpt>
      <trkpt lat="45.58746" lon="2.70841">
        <ele>959</ele>
        <time>2022-07-30T22:26:40.000Z</time>
      </trkpt>
      <trkpt lat="45.58743" lon="2.70847">
        <ele>959</ele>
        <time>2022-07-30T22:26:41.000Z</time>
      </trkpt>
      <trkpt lat="45.58741" lon="2.70852">
        <ele>959</ele>
        <time>2022-07-30T22:26:42.000Z</time>
      </trkpt>
      <trkpt lat="45.58739" lon="2.70858">
        <ele>959</ele>
        <time>2022-07-30T22:26:43.000Z</time>
      </trkpt>
      <trkpt lat="45.58737" lon="2.70864">
        <ele>959</ele>
        <time>2022-07-30T22:26:44.000Z</time>
      </trkpt>
      <trkpt lat="45.58735" lon="2.70869">
        <ele>959</ele>
        <time>2022-07-30T22:26:45.000Z</time>
      </trkpt>
      <trkpt lat="45.58733" lon="2.70875">
        <ele>959</ele>
        <time>2022-07-30T22:26:46.000Z</time>
      </trkpt>
      <trkpt lat="45.58731" lon="2.70881">
        <ele>959</ele>
        <time>2022-07-30T22:26:47.000Z</time>
      </trkpt>
      <trkpt lat="45.58729" lon="2.70886">
        <ele>959</ele>
        <time>2022-07-30T22:26:48.000Z</time>
      </trkpt>
      <trkpt lat="45.58727" lon="2.70891">
        <ele>959</ele>
        <time>2022-07-30T22:26:49.000Z</time>
      </trkpt>
      <trkpt lat="45.58726" lon="2.70897">
        <ele>959</ele>
        <time>2022-07-30T22:26:50.000Z</time>
      </trkpt>
      <trkpt lat="45.58724" lon="2.70904">
        <ele>959</ele>
        <time>2022-07-30T22:26:51.000Z</time>
      </trkpt>
      <trkpt lat="45.58723" lon="2.7091">
        <ele>959</ele>
        <time>2022-07-30T22:26:52.000Z</time>
      </trkpt>
      <trkpt lat="45.58721" lon="2.70916">
        <ele>955</ele>
        <time>2022-07-30T22:26:53.000Z</time>
      </trkpt>
      <trkpt lat="45.5872" lon="2.70922">
        <ele>955</ele>
        <time>2022-07-30T22:26:54.000Z</time>
      </trkpt>
      <trkpt lat="45.58718" lon="2.70929">
        <ele>975</ele>
        <time>2022-07-30T22:26:55.000Z</time>
      </trkpt>
      <trkpt lat="45.58717" lon="2.70935">
        <ele>975</ele>
        <time>2022-07-30T22:26:56.000Z</time>
      </trkpt>
      <trkpt lat="45.58715" lon="2.70941">
        <ele>975</ele>
        <time>2022-07-30T22:26:57.000Z</time>
      </trkpt>
      <trkpt lat="45.58714" lon="2.70947">
        <ele>975</ele>
        <time>2022-07-30T22:26:58.000Z</time>
      </trkpt>
      <trkpt lat="45.58712" lon="2.70953">
        <ele>975</ele>
        <time>2022-07-30T22:26:59.000Z</time>
      </trkpt>
      <trkpt lat="45.58711" lon="2.7096">
        <ele>975</ele>
        <time>2022-07-30T22:27:00.000Z</time>
      </trkpt>
      <trkpt lat="45.5871" lon="2.70966">
        <ele>975</ele>
        <time>2022-07-30T22:27:01.000Z</time>
      </trkpt>
      <trkpt lat="45.58708" lon="2.70972">
        <ele>975</ele>
        <time>2022-07-30T22:27:02.000Z</time>
      </trkpt>
      <trkpt lat="45.58707" lon="2.70978">
        <ele>975</ele>
        <time>2022-07-30T22:27:03.000Z</time>
      </trkpt>
      <trkpt lat="45.58705" lon="2.70985">
        <ele>975</ele>
        <time>2022-07-30T22:27:04.000Z</time>
      </trkpt>
      <trkpt lat="45.58704" lon="2.70991">
        <ele>975</ele>
        <time>2022-07-30T22:27:05.000Z</time>
      </trkpt>
      <trkpt lat="45.58702" lon="2.70998">
        <ele>975</ele>
        <time>2022-07-30T22:27:06.000Z</time>
      </trkpt>
      <trkpt lat="45.58702" lon="2.71005">
        <ele>975</ele>
        <time>2022-07-30T22:27:07.000Z</time>
      </trkpt>
      <trkpt lat="45.58701" lon="2.71012">
        <ele>975</ele>
        <time>2022-07-30T22:27:08.000Z</time>
      </trkpt>
      <trkpt lat="45.58701" lon="2.7102">
        <ele>975</ele>
        <time>2022-07-30T22:27:09.000Z</time>
      </trkpt>
      <trkpt lat="45.58701" lon="2.71027">
        <ele>975</ele>
        <time>2022-07-30T22:27:10.000Z</time>
      </trkpt>
      <trkpt lat="45.587" lon="2.71034">
        <ele>975</ele>
        <time>2022-07-30T22:27:11.000Z</time>
      </trkpt>
      <trkpt lat="45.587" lon="2.71041">
        <ele>975</ele>
        <time>2022-07-30T22:27:12.000Z</time>
      </trkpt>
      <trkpt lat="45.58699" lon="2.71048">
        <ele>975</ele>
        <time>2022-07-30T22:27:13.000Z</time>
      </trkpt>
      <trkpt lat="45.58699" lon="2.71055">
        <ele>975</ele>
        <time>2022-07-30T22:27:14.000Z</time>
      </trkpt>
      <trkpt lat="45.58698" lon="2.71062">
        <ele>975</ele>
        <time>2022-07-30T22:27:15.000Z</time>
      </trkpt>
      <trkpt lat="45.58696" lon="2.71068">
        <ele>975</ele>
        <time>2022-07-30T22:27:16.000Z</time>
      </trkpt>
      <trkpt lat="45.58695" lon="2.71075">
        <ele>973</ele>
        <time>2022-07-30T22:27:17.000Z</time>
      </trkpt>
      <trkpt lat="45.58693" lon="2.71081">
        <ele>973</ele>
        <time>2022-07-30T22:27:18.000Z</time>
      </trkpt>
      <trkpt lat="45.58691" lon="2.71087">
        <ele>973</ele>
        <time>2022-07-30T22:27:19.000Z</time>
      </trkpt>
      <trkpt lat="45.58688" lon="2.71093">
        <ele>973</ele>
        <time>2022-07-30T22:27:20.000Z</time>
      </trkpt>
      <trkpt lat="45.58686" lon="2.71099">
        <ele>973</ele>
        <time>2022-07-30T22:27:21.000Z</time>
      </trkpt>
      <trkpt lat="45.58684" lon="2.71104">
        <ele>973</ele>
        <time>2022-07-30T22:27:22.000Z</time>
      </trkpt>
      <trkpt lat="45.58681" lon="2.7111">
        <ele>973</ele>
        <time>2022-07-30T22:27:23.000Z</time>
      </trkpt>
      <trkpt lat="45.58679" lon="2.71116">
        <ele>973</ele>
        <time>2022-07-30T22:27:24.000Z</time>
      </trkpt>
      <trkpt lat="45.58676" lon="2.71121">
        <ele>973</ele>
        <time>2022-07-30T22:27:25.000Z</time>
      </trkpt>
      <trkpt lat="45.58675" lon="2.71128">
        <ele>973</ele>
        <time>2022-07-30T22:27:26.000Z</time>
      </trkpt>
      <trkpt lat="45.58673" lon="2.71134">
        <ele>973</ele>
        <time>2022-07-30T22:27:27.000Z</time>
      </trkpt>
      <trkpt lat="45.58672" lon="2.7114">
        <ele>973</ele>
        <time>2022-07-30T22:27:28.000Z</time>
      </trkpt>
      <trkpt lat="45.58672" lon="2.71147">
        <ele>973</ele>
        <time>2022-07-30T22:27:29.000Z</time>
      </trkpt>
      <trkpt lat="45.58672" lon="2.71154">
        <ele>973</ele>
        <time>2022-07-30T22:27:30.000Z</time>
      </trkpt>
      <trkpt lat="45.58672" lon="2.7116">
        <ele>973</ele>
        <time>2022-07-30T22:27:31.000Z</time>
      </trkpt>
      <trkpt lat="45.58674" lon="2.71166">
        <ele>967</ele>
        <time>2022-07-30T22:27:32.000Z</time>
      </trkpt>
      <trkpt lat="45.58677" lon="2.71171">
        <ele>967</ele>
        <time>2022-07-30T22:27:33.000Z</time>
      </trkpt>
      <trkpt lat="45.58679" lon="2.71177">
        <ele>967</ele>
        <time>2022-07-30T22:27:34.000Z</time>
      </trkpt>
      <trkpt lat="45.58684" lon="2.71182">
        <ele>967</ele>
        <time>2022-07-30T22:27:35.000Z</time>
      </trkpt>
      <trkpt lat="45.58688" lon="2.71186">
        <ele>967</ele>
        <time>2022-07-30T22:27:36.000Z</time>
      </trkpt>
      <trkpt lat="45.58693" lon="2.7119">
        <ele>967</ele>
        <time>2022-07-30T22:27:37.000Z</time>
      </trkpt>
      <trkpt lat="45.58697" lon="2.71193">
        <ele>967</ele>
        <time>2022-07-30T22:27:38.000Z</time>
      </trkpt>
      <trkpt lat="45.58701" lon="2.71196">
        <ele>967</ele>
        <time>2022-07-30T22:27:39.000Z</time>
      </trkpt>
      <trkpt lat="45.58706" lon="2.71199">
        <ele>967</ele>
        <time>2022-07-30T22:27:40.000Z</time>
      </trkpt>
      <trkpt lat="45.5871" lon="2.71202">
        <ele>967</ele>
        <time>2022-07-30T22:27:41.000Z</time>
      </trkpt>
      <trkpt lat="45.58714" lon="2.71208">
        <ele>967</ele>
        <time>2022-07-30T22:27:42.000Z</time>
      </trkpt>
      <trkpt lat="45.58717" lon="2.71213">
        <ele>939</ele>
        <time>2022-07-30T22:27:43.000Z</time>
      </trkpt>
      <trkpt lat="45.58721" lon="2.71218">
        <ele>939</ele>
        <time>2022-07-30T22:27:44.000Z</time>
      </trkpt>
      <trkpt lat="45.58724" lon="2.71223">
        <ele>939</ele>
        <time>2022-07-30T22:27:45.000Z</time>
      </trkpt>
      <trkpt lat="45.58727" lon="2.71229">
        <ele>939</ele>
        <time>2022-07-30T22:27:46.000Z</time>
      </trkpt>
      <trkpt lat="45.58731" lon="2.71234">
        <ele>939</ele>
        <time>2022-07-30T22:27:47.000Z</time>
      </trkpt>
      <trkpt lat="45.58735" lon="2.71238">
        <ele>939</ele>
        <time>2022-07-30T22:27:48.000Z</time>
      </trkpt>
      <trkpt lat="45.58738" lon="2.71242">
        <ele>939</ele>
        <time>2022-07-30T22:27:49.000Z</time>
      </trkpt>
      <trkpt lat="45.58742" lon="2.71247">
        <ele>939</ele>
        <time>2022-07-30T22:27:50.000Z</time>
      </trkpt>
      <trkpt lat="45.58746" lon="2.71251">
        <ele>954</ele>
        <time>2022-07-30T22:27:51.000Z</time>
      </trkpt>
      <trkpt lat="45.58749" lon="2.71255">
        <ele>954</ele>
        <time>2022-07-30T22:27:52.000Z</time>
      </trkpt>
      <trkpt lat="45.58753" lon="2.71259">
        <ele>954</ele>
        <time>2022-07-30T22:27:53.000Z</time>
      </trkpt>
      <trkpt lat="45.58757" lon="2.71263">
        <ele>954</ele>
        <time>2022-07-30T22:27:54.000Z</time>
      </trkpt>
      <trkpt lat="45.5876" lon="2.71268">
        <ele>954</ele>
        <time>2022-07-30T22:27:55.000Z</time>
      </trkpt>
      <trkpt lat="45.58764" lon="2.71272">
        <ele>954</ele>
        <time>2022-07-30T22:27:56.000Z</time>
      </trkpt>
      <trkpt lat="45.58767" lon="2.71276">
        <ele>954</ele>
        <time>2022-07-30T22:27:57.000Z</time>
      </trkpt>
      <trkpt lat="45.58771" lon="2.7128">
        <ele>954</ele>
        <time>2022-07-30T22:27:58.000Z</time>
      </trkpt>
      <trkpt lat="45.58775" lon="2.71285">
        <ele>954</ele>
        <time>2022-07-30T22:27:59.000Z</time>
      </trkpt>
      <trkpt lat="45.58778" lon="2.71289">
        <ele>954</ele>
        <time>2022-07-30T22:28:00.000Z</time>
      </trkpt>
      <trkpt lat="45.58782" lon="2.71293">
        <ele>954</ele>
        <time>2022-07-30T22:28:01.000Z</time>
      </trkpt>
      <trkpt lat="45.58786" lon="2.71297">
        <ele>954</ele>
        <time>2022-07-30T22:28:02.000Z</time>
      </trkpt>
      <trkpt lat="45.58789" lon="2.71301">
        <ele>954</ele>
        <time>2022-07-30T22:28:03.000Z</time>
      </trkpt>
      <trkpt lat="45.58792" lon="2.71307">
        <ele>954</ele>
        <time>2022-07-30T22:28:04.000Z</time>
      </trkpt>
      <trkpt lat="45.58795" lon="2.71312">
        <ele>925</ele>
        <time>2022-07-30T22:28:05.000Z</time>
      </trkpt>
      <trkpt lat="45.58797" lon="2.71317">
        <ele>925</ele>
        <time>2022-07-30T22:28:06.000Z</time>
      </trkpt>
      <trkpt lat="45.588" lon="2.71323">
        <ele>941</ele>
        <time>2022-07-30T22:28:07.000Z</time>
      </trkpt>
      <trkpt lat="45.58803" lon="2.71328">
        <ele>941</ele>
        <time>2022-07-30T22:28:08.000Z</time>
      </trkpt>
      <trkpt lat="45.58805" lon="2.71333">
        <ele>941</ele>
        <time>2022-07-30T22:28:09.000Z</time>
      </trkpt>
      <trkpt lat="45.58808" lon="2.71338">
        <ele>941</ele>
        <time>2022-07-30T22:28:10.000Z</time>
      </trkpt>
      <trkpt lat="45.58811" lon="2.71344">
        <ele>941</ele>
        <time>2022-07-30T22:28:11.000Z</time>
      </trkpt>
      <trkpt lat="45.58813" lon="2.71349">
        <ele>941</ele>
        <time>2022-07-30T22:28:12.000Z</time>
      </trkpt>
      <trkpt lat="45.58816" lon="2.71354">
        <ele>941</ele>
        <time>2022-07-30T22:28:13.000Z</time>
      </trkpt>
      <trkpt lat="45.58819" lon="2.7136">
        <ele>941</ele>
        <time>2022-07-30T22:28:14.000Z</time>
      </trkpt>
      <trkpt lat="45.58821" lon="2.71365">
        <ele>941</ele>
        <time>2022-07-30T22:28:15.000Z</time>
      </trkpt>
      <trkpt lat="45.58824" lon="2.7137">
        <ele>941</ele>
        <time>2022-07-30T22:28:16.000Z</time>
      </trkpt>
      <trkpt lat="45.58827" lon="2.71376">
        <ele>941</ele>
        <time>2022-07-30T22:28:17.000Z</time>
      </trkpt>
      <trkpt lat="45.58829" lon="2.71381">
        <ele>941</ele>
        <time>2022-07-30T22:28:18.000Z</time>
      </trkpt>
      <trkpt lat="45.58832" lon="2.71386">
        <ele>941</ele>
        <time>2022-07-30T22:28:19.000Z</time>
      </trkpt>
      <trkpt lat="45.58835" lon="2.71391">
        <ele>941</ele>
        <time>2022-07-30T22:28:20.000Z</time>
      </trkpt>
      <trkpt lat="45.58837" lon="2.71397">
        <ele>956</ele>
        <time>2022-07-30T22:28:21.000Z</time>
      </trkpt>
      <trkpt lat="45.5884" lon="2.71402">
        <ele>956</ele>
        <time>2022-07-30T22:28:22.000Z</time>
      </trkpt>
      <trkpt lat="45.58843" lon="2.71407">
        <ele>956</ele>
        <time>2022-07-30T22:28:23.000Z</time>
      </trkpt>
      <trkpt lat="45.58846" lon="2.71412">
        <ele>956</ele>
        <time>2022-07-30T22:28:24.000Z</time>
      </trkpt>
      <trkpt lat="45.58849" lon="2.71417">
        <ele>956</ele>
        <time>2022-07-30T22:28:25.000Z</time>
      </trkpt>
      <trkpt lat="45.58852" lon="2.71423">
        <ele>956</ele>
        <time>2022-07-30T22:28:26.000Z</time>
      </trkpt>
      <trkpt lat="45.58855" lon="2.71428">
        <ele>956</ele>
        <time>2022-07-30T22:28:27.000Z</time>
      </trkpt>
      <trkpt lat="45.58859" lon="2.71433">
        <ele>956</ele>
        <time>2022-07-30T22:28:28.000Z</time>
      </trkpt>
      <trkpt lat="45.58862" lon="2.71438">
        <ele>956</ele>
        <time>2022-07-30T22:28:29.000Z</time>
      </trkpt>
      <trkpt lat="45.58865" lon="2.71443">
        <ele>956</ele>
        <time>2022-07-30T22:28:30.000Z</time>
      </trkpt>
      <trkpt lat="45.58868" lon="2.71448">
        <ele>924</ele>
        <time>2022-07-30T22:28:31.000Z</time>
      </trkpt>
      <trkpt lat="45.58871" lon="2.71453">
        <ele>924</ele>
        <time>2022-07-30T22:28:32.000Z</time>
      </trkpt>
      <trkpt lat="45.58875" lon="2.71457">
        <ele>924</ele>
        <time>2022-07-30T22:28:33.000Z</time>
      </trkpt>
      <trkpt lat="45.58878" lon="2.71461">
        <ele>924</ele>
        <time>2022-07-30T22:28:34.000Z</time>
      </trkpt>
      <trkpt lat="45.58882" lon="2.71465">
        <ele>924</ele>
        <time>2022-07-30T22:28:35.000Z</time>
      </trkpt>
      <trkpt lat="45.58886" lon="2.71469">
        <ele>924</ele>
        <time>2022-07-30T22:28:36.000Z</time>
      </trkpt>
      <trkpt lat="45.58889" lon="2.71474">
        <ele>924</ele>
        <time>2022-07-30T22:28:37.000Z</time>
      </trkpt>
      <trkpt lat="45.58893" lon="2.71478">
        <ele>924</ele>
        <time>2022-07-30T22:28:38.000Z</time>
      </trkpt>
      <trkpt lat="45.58896" lon="2.71482">
        <ele>935</ele>
        <time>2022-07-30T22:28:39.000Z</time>
      </trkpt>
      <trkpt lat="45.589" lon="2.71486">
        <ele>935</ele>
        <time>2022-07-30T22:28:40.000Z</time>
      </trkpt>
      <trkpt lat="45.58903" lon="2.7149">
        <ele>935</ele>
        <time>2022-07-30T22:28:41.000Z</time>
      </trkpt>
      <trkpt lat="45.58907" lon="2.71494">
        <ele>935</ele>
        <time>2022-07-30T22:28:42.000Z</time>
      </trkpt>
      <trkpt lat="45.58911" lon="2.71498">
        <ele>935</ele>
        <time>2022-07-30T22:28:43.000Z</time>
      </trkpt>
      <trkpt lat="45.58914" lon="2.71502">
        <ele>935</ele>
        <time>2022-07-30T22:28:44.000Z</time>
      </trkpt>
      <trkpt lat="45.58918" lon="2.71506">
        <ele>935</ele>
        <time>2022-07-30T22:28:45.000Z</time>
      </trkpt>
      <trkpt lat="45.58922" lon="2.7151">
        <ele>935</ele>
        <time>2022-07-30T22:28:46.000Z</time>
      </trkpt>
      <trkpt lat="45.58926" lon="2.71514">
        <ele>935</ele>
        <time>2022-07-30T22:28:47.000Z</time>
      </trkpt>
      <trkpt lat="45.58929" lon="2.71518">
        <ele>935</ele>
        <time>2022-07-30T22:28:48.000Z</time>
      </trkpt>
      <trkpt lat="45.58933" lon="2.71522">
        <ele>935</ele>
        <time>2022-07-30T22:28:49.000Z</time>
      </trkpt>
      <trkpt lat="45.58937" lon="2.71526">
        <ele>935</ele>
        <time>2022-07-30T22:28:50.000Z</time>
      </trkpt>
      <trkpt lat="45.5894" lon="2.7153">
        <ele>899</ele>
        <time>2022-07-30T22:28:51.000Z</time>
      </trkpt>
      <trkpt lat="45.58944" lon="2.71534">
        <ele>899</ele>
        <time>2022-07-30T22:28:52.000Z</time>
      </trkpt>
      <trkpt lat="45.58948" lon="2.71538">
        <ele>899</ele>
        <time>2022-07-30T22:28:53.000Z</time>
      </trkpt>
      <trkpt lat="45.58952" lon="2.71542">
        <ele>899</ele>
        <time>2022-07-30T22:28:54.000Z</time>
      </trkpt>
      <trkpt lat="45.58955" lon="2.71546">
        <ele>899</ele>
        <time>2022-07-30T22:28:55.000Z</time>
      </trkpt>
      <trkpt lat="45.58959" lon="2.7155">
        <ele>899</ele>
        <time>2022-07-30T22:28:56.000Z</time>
      </trkpt>
      <trkpt lat="45.58963" lon="2.71554">
        <ele>899</ele>
        <time>2022-07-30T22:28:57.000Z</time>
      </trkpt>
      <trkpt lat="45.58967" lon="2.71558">
        <ele>915</ele>
        <time>2022-07-30T22:28:58.000Z</time>
      </trkpt>
      <trkpt lat="45.5897" lon="2.71562">
        <ele>915</ele>
        <time>2022-07-30T22:28:59.000Z</time>
      </trkpt>
      <trkpt lat="45.58974" lon="2.71566">
        <ele>915</ele>
        <time>2022-07-30T22:29:00.000Z</time>
      </trkpt>
      <trkpt lat="45.58978" lon="2.7157">
        <ele>915</ele>
        <time>2022-07-30T22:29:01.000Z</time>
      </trkpt>
      <trkpt lat="45.58982" lon="2.71574">
        <ele>915</ele>
        <time>2022-07-30T22:29:02.000Z</time>
      </trkpt>
      <trkpt lat="45.58985" lon="2.71578">
        <ele>915</ele>
        <time>2022-07-30T22:29:03.000Z</time>
      </trkpt>
      <trkpt lat="45.58989" lon="2.71582">
        <ele>915</ele>
        <time>2022-07-30T22:29:04.000Z</time>
      </trkpt>
      <trkpt lat="45.58992" lon="2.71587">
        <ele>915</ele>
        <time>2022-07-30T22:29:05.000Z</time>
      </trkpt>
      <trkpt lat="45.58996" lon="2.71591">
        <ele>915</ele>
        <time>2022-07-30T22:29:06.000Z</time>
      </trkpt>
      <trkpt lat="45.58999" lon="2.71596">
        <ele>915</ele>
        <time>2022-07-30T22:29:07.000Z</time>
      </trkpt>
      <trkpt lat="45.59003" lon="2.71601">
        <ele>915</ele>
        <time>2022-07-30T22:29:08.000Z</time>
      </trkpt>
      <trkpt lat="45.59006" lon="2.71605">
        <ele>915</ele>
        <time>2022-07-30T22:29:09.000Z</time>
      </trkpt>
      <trkpt lat="45.59009" lon="2.7161">
        <ele>915</ele>
        <time>2022-07-30T22:29:10.000Z</time>
      </trkpt>
      <trkpt lat="45.59013" lon="2.71615">
        <ele>915</ele>
        <time>2022-07-30T22:29:11.000Z</time>
      </trkpt>
      <trkpt lat="45.59016" lon="2.71619">
        <ele>915</ele>
        <time>2022-07-30T22:29:12.000Z</time>
      </trkpt>
      <trkpt lat="45.59019" lon="2.71624">
        <ele>930</ele>
        <time>2022-07-30T22:29:13.000Z</time>
      </trkpt>
      <trkpt lat="45.59023" lon="2.71628">
        <ele>930</ele>
        <time>2022-07-30T22:29:14.000Z</time>
      </trkpt>
      <trkpt lat="45.59029" lon="2.71637">
        <ele>903</ele>
        <time>2022-07-30T22:29:15.000Z</time>
      </trkpt>
      <trkpt lat="45.59031" lon="2.71642">
        <ele>903</ele>
        <time>2022-07-30T22:29:16.000Z</time>
      </trkpt>
      <trkpt lat="45.59034" lon="2.71648">
        <ele>903</ele>
        <time>2022-07-30T22:29:17.000Z</time>
      </trkpt>
      <trkpt lat="45.59036" lon="2.71653">
        <ele>903</ele>
        <time>2022-07-30T22:29:18.000Z</time>
      </trkpt>
      <trkpt lat="45.59039" lon="2.71658">
        <ele>903</ele>
        <time>2022-07-30T22:29:19.000Z</time>
      </trkpt>
      <trkpt lat="45.59042" lon="2.71664">
        <ele>903</ele>
        <time>2022-07-30T22:29:20.000Z</time>
      </trkpt>
      <trkpt lat="45.59044" lon="2.71669">
        <ele>903</ele>
        <time>2022-07-30T22:29:21.000Z</time>
      </trkpt>
      <trkpt lat="45.59047" lon="2.71674">
        <ele>903</ele>
        <time>2022-07-30T22:29:22.000Z</time>
      </trkpt>
      <trkpt lat="45.59049" lon="2.7168">
        <ele>903</ele>
        <time>2022-07-30T22:29:23.000Z</time>
      </trkpt>
      <trkpt lat="45.59052" lon="2.71685">
        <ele>903</ele>
        <time>2022-07-30T22:29:24.000Z</time>
      </trkpt>
      <trkpt lat="45.59055" lon="2.7169">
        <ele>903</ele>
        <time>2022-07-30T22:29:25.000Z</time>
      </trkpt>
      <trkpt lat="45.59057" lon="2.71696">
        <ele>914</ele>
        <time>2022-07-30T22:29:26.000Z</time>
      </trkpt>
      <trkpt lat="45.59059" lon="2.71702">
        <ele>914</ele>
        <time>2022-07-30T22:29:27.000Z</time>
      </trkpt>
      <trkpt lat="45.59062" lon="2.71707">
        <ele>914</ele>
        <time>2022-07-30T22:29:28.000Z</time>
      </trkpt>
      <trkpt lat="45.59064" lon="2.71713">
        <ele>914</ele>
        <time>2022-07-30T22:29:29.000Z</time>
      </trkpt>
      <trkpt lat="45.59067" lon="2.71719">
        <ele>914</ele>
        <time>2022-07-30T22:29:30.000Z</time>
      </trkpt>
      <trkpt lat="45.59069" lon="2.71724">
        <ele>914</ele>
        <time>2022-07-30T22:29:31.000Z</time>
      </trkpt>
      <trkpt lat="45.59071" lon="2.7173">
        <ele>914</ele>
        <time>2022-07-30T22:29:32.000Z</time>
      </trkpt>
      <trkpt lat="45.59074" lon="2.71736">
        <ele>914</ele>
        <time>2022-07-30T22:29:33.000Z</time>
      </trkpt>
      <trkpt lat="45.59076" lon="2.71742">
        <ele>914</ele>
        <time>2022-07-30T22:29:34.000Z</time>
      </trkpt>
      <trkpt lat="45.59079" lon="2.71747">
        <ele>914</ele>
        <time>2022-07-30T22:29:35.000Z</time>
      </trkpt>
      <trkpt lat="45.5908" lon="2.71754">
        <ele>914</ele>
        <time>2022-07-30T22:29:36.000Z</time>
      </trkpt>
      <trkpt lat="45.59082" lon="2.71762">
        <ele>914</ele>
        <time>2022-07-30T22:29:37.000Z</time>
      </trkpt>
      <trkpt lat="45.59083" lon="2.71769">
        <ele>914</ele>
        <time>2022-07-30T22:29:38.000Z</time>
      </trkpt>
      <trkpt lat="45.59085" lon="2.71776">
        <ele>913</ele>
        <time>2022-07-30T22:29:39.000Z</time>
      </trkpt>
      <trkpt lat="45.59084" lon="2.71783">
        <ele>913</ele>
        <time>2022-07-30T22:29:40.000Z</time>
      </trkpt>
      <trkpt lat="45.59084" lon="2.7179">
        <ele>913</ele>
        <time>2022-07-30T22:29:41.000Z</time>
      </trkpt>
      <trkpt lat="45.59083" lon="2.71797">
        <ele>913</ele>
        <time>2022-07-30T22:29:42.000Z</time>
      </trkpt>
      <trkpt lat="45.59082" lon="2.71804">
        <ele>913</ele>
        <time>2022-07-30T22:29:43.000Z</time>
      </trkpt>
      <trkpt lat="45.59082" lon="2.71811">
        <ele>913</ele>
        <time>2022-07-30T22:29:44.000Z</time>
      </trkpt>
      <trkpt lat="45.5908" lon="2.71817">
        <ele>913</ele>
        <time>2022-07-30T22:29:45.000Z</time>
      </trkpt>
      <trkpt lat="45.59079" lon="2.71823">
        <ele>913</ele>
        <time>2022-07-30T22:29:46.000Z</time>
      </trkpt>
      <trkpt lat="45.59078" lon="2.71829">
        <ele>913</ele>
        <time>2022-07-30T22:29:47.000Z</time>
      </trkpt>
      <trkpt lat="45.59076" lon="2.71835">
        <ele>913</ele>
        <time>2022-07-30T22:29:48.000Z</time>
      </trkpt>
      <trkpt lat="45.59075" lon="2.71841">
        <ele>913</ele>
        <time>2022-07-30T22:29:49.000Z</time>
      </trkpt>
      <trkpt lat="45.59073" lon="2.71847">
        <ele>913</ele>
        <time>2022-07-30T22:29:50.000Z</time>
      </trkpt>
      <trkpt lat="45.59072" lon="2.71854">
        <ele>911</ele>
        <time>2022-07-30T22:29:51.000Z</time>
      </trkpt>
      <trkpt lat="45.5907" lon="2.7186">
        <ele>911</ele>
        <time>2022-07-30T22:29:52.000Z</time>
      </trkpt>
      <trkpt lat="45.59069" lon="2.71866">
        <ele>911</ele>
        <time>2022-07-30T22:29:53.000Z</time>
      </trkpt>
      <trkpt lat="45.59067" lon="2.71872">
        <ele>911</ele>
        <time>2022-07-30T22:29:54.000Z</time>
      </trkpt>
      <trkpt lat="45.59066" lon="2.71878">
        <ele>911</ele>
        <time>2022-07-30T22:29:55.000Z</time>
      </trkpt>
      <trkpt lat="45.59064" lon="2.71884">
        <ele>911</ele>
        <time>2022-07-30T22:29:56.000Z</time>
      </trkpt>
      <trkpt lat="45.59063" lon="2.7189">
        <ele>911</ele>
        <time>2022-07-30T22:29:57.000Z</time>
      </trkpt>
      <trkpt lat="45.59063" lon="2.71898">
        <ele>911</ele>
        <time>2022-07-30T22:29:58.000Z</time>
      </trkpt>
      <trkpt lat="45.59063" lon="2.71905">
        <ele>911</ele>
        <time>2022-07-30T22:29:59.000Z</time>
      </trkpt>
      <trkpt lat="45.59063" lon="2.71913">
        <ele>911</ele>
        <time>2022-07-30T22:30:00.000Z</time>
      </trkpt>
      <trkpt lat="45.59064" lon="2.71921">
        <ele>911</ele>
        <time>2022-07-30T22:30:01.000Z</time>
      </trkpt>
      <trkpt lat="45.59066" lon="2.71929">
        <ele>911</ele>
        <time>2022-07-30T22:30:02.000Z</time>
      </trkpt>
      <trkpt lat="45.59068" lon="2.71938">
        <ele>910</ele>
        <time>2022-07-30T22:30:03.000Z</time>
      </trkpt>
      <trkpt lat="45.5907" lon="2.71944">
        <ele>910</ele>
        <time>2022-07-30T22:30:04.000Z</time>
      </trkpt>
      <trkpt lat="45.59072" lon="2.71949">
        <ele>910</ele>
        <time>2022-07-30T22:30:05.000Z</time>
      </trkpt>
      <trkpt lat="45.59075" lon="2.71955">
        <ele>910</ele>
        <time>2022-07-30T22:30:06.000Z</time>
      </trkpt>
      <trkpt lat="45.59077" lon="2.71961">
        <ele>910</ele>
        <time>2022-07-30T22:30:07.000Z</time>
      </trkpt>
      <trkpt lat="45.5908" lon="2.71967">
        <ele>910</ele>
        <time>2022-07-30T22:30:08.000Z</time>
      </trkpt>
      <trkpt lat="45.59082" lon="2.71973">
        <ele>910</ele>
        <time>2022-07-30T22:30:09.000Z</time>
      </trkpt>
      <trkpt lat="45.59085" lon="2.71979">
        <ele>910</ele>
        <time>2022-07-30T22:30:10.000Z</time>
      </trkpt>
      <trkpt lat="45.59086" lon="2.71985">
        <ele>910</ele>
        <time>2022-07-30T22:30:11.000Z</time>
      </trkpt>
      <trkpt lat="45.59087" lon="2.71992">
        <ele>910</ele>
        <time>2022-07-30T22:30:12.000Z</time>
      </trkpt>
      <trkpt lat="45.59088" lon="2.71999">
        <ele>910</ele>
        <time>2022-07-30T22:30:13.000Z</time>
      </trkpt>
      <trkpt lat="45.59089" lon="2.72005">
        <ele>910</ele>
        <time>2022-07-30T22:30:14.000Z</time>
      </trkpt>
      <trkpt lat="45.5909" lon="2.72012">
        <ele>910</ele>
        <time>2022-07-30T22:30:15.000Z</time>
      </trkpt>
      <trkpt lat="45.59089" lon="2.72019">
        <ele>910</ele>
        <time>2022-07-30T22:30:16.000Z</time>
      </trkpt>
      <trkpt lat="45.59088" lon="2.72026">
        <ele>909</ele>
        <time>2022-07-30T22:30:17.000Z</time>
      </trkpt>
      <trkpt lat="45.59088" lon="2.72033">
        <ele>909</ele>
        <time>2022-07-30T22:30:18.000Z</time>
      </trkpt>
      <trkpt lat="45.59087" lon="2.72039">
        <ele>909</ele>
        <time>2022-07-30T22:30:19.000Z</time>
      </trkpt>
      <trkpt lat="45.59087" lon="2.72046">
        <ele>909</ele>
        <time>2022-07-30T22:30:20.000Z</time>
      </trkpt>
      <trkpt lat="45.59086" lon="2.72053">
        <ele>909</ele>
        <time>2022-07-30T22:30:21.000Z</time>
      </trkpt>
      <trkpt lat="45.59084" lon="2.7206">
        <ele>909</ele>
        <time>2022-07-30T22:30:22.000Z</time>
      </trkpt>
      <trkpt lat="45.59083" lon="2.72067">
        <ele>909</ele>
        <time>2022-07-30T22:30:23.000Z</time>
      </trkpt>
      <trkpt lat="45.59081" lon="2.72073">
        <ele>909</ele>
        <time>2022-07-30T22:30:24.000Z</time>
      </trkpt>
      <trkpt lat="45.5908" lon="2.7208">
        <ele>909</ele>
        <time>2022-07-30T22:30:25.000Z</time>
      </trkpt>
      <trkpt lat="45.59078" lon="2.72087">
        <ele>909</ele>
        <time>2022-07-30T22:30:26.000Z</time>
      </trkpt>
      <trkpt lat="45.59077" lon="2.72094">
        <ele>909</ele>
        <time>2022-07-30T22:30:27.000Z</time>
      </trkpt>
      <trkpt lat="45.59075" lon="2.72101">
        <ele>904</ele>
        <time>2022-07-30T22:30:28.000Z</time>
      </trkpt>
      <trkpt lat="45.59074" lon="2.72108">
        <ele>904</ele>
        <time>2022-07-30T22:30:29.000Z</time>
      </trkpt>
      <trkpt lat="45.59072" lon="2.72114">
        <ele>904</ele>
        <time>2022-07-30T22:30:30.000Z</time>
      </trkpt>
      <trkpt lat="45.59071" lon="2.72121">
        <ele>904</ele>
        <time>2022-07-30T22:30:31.000Z</time>
      </trkpt>
      <trkpt lat="45.59069" lon="2.72128">
        <ele>904</ele>
        <time>2022-07-30T22:30:32.000Z</time>
      </trkpt>
      <trkpt lat="45.59068" lon="2.72135">
        <ele>904</ele>
        <time>2022-07-30T22:30:33.000Z</time>
      </trkpt>
      <trkpt lat="45.59066" lon="2.72142">
        <ele>904</ele>
        <time>2022-07-30T22:30:34.000Z</time>
      </trkpt>
      <trkpt lat="45.59065" lon="2.72148">
        <ele>904</ele>
        <time>2022-07-30T22:30:35.000Z</time>
      </trkpt>
      <trkpt lat="45.59064" lon="2.72154">
        <ele>904</ele>
        <time>2022-07-30T22:30:36.000Z</time>
      </trkpt>
      <trkpt lat="45.59063" lon="2.72161">
        <ele>921</ele>
        <time>2022-07-30T22:30:37.000Z</time>
      </trkpt>
      <trkpt lat="45.59062" lon="2.72167">
        <ele>921</ele>
        <time>2022-07-30T22:30:38.000Z</time>
      </trkpt>
      <trkpt lat="45.59061" lon="2.72173">
        <ele>921</ele>
        <time>2022-07-30T22:30:39.000Z</time>
      </trkpt>
      <trkpt lat="45.5906" lon="2.72179">
        <ele>915</ele>
        <time>2022-07-30T22:30:40.000Z</time>
      </trkpt>
      <trkpt lat="45.59059" lon="2.72186">
        <ele>915</ele>
        <time>2022-07-30T22:30:41.000Z</time>
      </trkpt>
      <trkpt lat="45.59058" lon="2.72192">
        <ele>915</ele>
        <time>2022-07-30T22:30:42.000Z</time>
      </trkpt>
      <trkpt lat="45.59057" lon="2.72198">
        <ele>915</ele>
        <time>2022-07-30T22:30:43.000Z</time>
      </trkpt>
      <trkpt lat="45.59056" lon="2.72204">
        <ele>915</ele>
        <time>2022-07-30T22:30:44.000Z</time>
      </trkpt>
      <trkpt lat="45.59055" lon="2.72211">
        <ele>915</ele>
        <time>2022-07-30T22:30:45.000Z</time>
      </trkpt>
      <trkpt lat="45.59054" lon="2.72217">
        <ele>915</ele>
        <time>2022-07-30T22:30:46.000Z</time>
      </trkpt>
      <trkpt lat="45.59053" lon="2.72223">
        <ele>915</ele>
        <time>2022-07-30T22:30:47.000Z</time>
      </trkpt>
      <trkpt lat="45.59052" lon="2.7223">
        <ele>915</ele>
        <time>2022-07-30T22:30:48.000Z</time>
      </trkpt>
      <trkpt lat="45.5905" lon="2.72236">
        <ele>915</ele>
        <time>2022-07-30T22:30:49.000Z</time>
      </trkpt>
      <trkpt lat="45.59049" lon="2.72243">
        <ele>915</ele>
        <time>2022-07-30T22:30:50.000Z</time>
      </trkpt>
      <trkpt lat="45.59047" lon="2.72249">
        <ele>915</ele>
        <time>2022-07-30T22:30:51.000Z</time>
      </trkpt>
      <trkpt lat="45.59044" lon="2.72255">
        <ele>915</ele>
        <time>2022-07-30T22:30:52.000Z</time>
      </trkpt>
      <trkpt lat="45.59042" lon="2.7226">
        <ele>915</ele>
        <time>2022-07-30T22:30:53.000Z</time>
      </trkpt>
      <trkpt lat="45.59039" lon="2.72265">
        <ele>915</ele>
        <time>2022-07-30T22:30:54.000Z</time>
      </trkpt>
      <trkpt lat="45.59036" lon="2.7227">
        <ele>915</ele>
        <time>2022-07-30T22:30:55.000Z</time>
      </trkpt>
      <trkpt lat="45.59032" lon="2.72274">
        <ele>915</ele>
        <time>2022-07-30T22:30:56.000Z</time>
      </trkpt>
      <trkpt lat="45.59029" lon="2.72278">
        <ele>915</ele>
        <time>2022-07-30T22:30:57.000Z</time>
      </trkpt>
      <trkpt lat="45.59025" lon="2.72282">
        <ele>915</ele>
        <time>2022-07-30T22:30:58.000Z</time>
      </trkpt>
      <trkpt lat="45.59022" lon="2.72287">
        <ele>905</ele>
        <time>2022-07-30T22:30:59.000Z</time>
      </trkpt>
      <trkpt lat="45.59018" lon="2.72291">
        <ele>905</ele>
        <time>2022-07-30T22:31:00.000Z</time>
      </trkpt>
      <trkpt lat="45.59015" lon="2.72295">
        <ele>905</ele>
        <time>2022-07-30T22:31:01.000Z</time>
      </trkpt>
      <trkpt lat="45.59011" lon="2.72299">
        <ele>917</ele>
        <time>2022-07-30T22:31:02.000Z</time>
      </trkpt>
      <trkpt lat="45.59008" lon="2.72304">
        <ele>917</ele>
        <time>2022-07-30T22:31:03.000Z</time>
      </trkpt>
      <trkpt lat="45.59004" lon="2.72308">
        <ele>917</ele>
        <time>2022-07-30T22:31:04.000Z</time>
      </trkpt>
      <trkpt lat="45.59001" lon="2.72312">
        <ele>917</ele>
        <time>2022-07-30T22:31:05.000Z</time>
      </trkpt>
      <trkpt lat="45.58997" lon="2.72316">
        <ele>917</ele>
        <time>2022-07-30T22:31:06.000Z</time>
      </trkpt>
      <trkpt lat="45.58994" lon="2.7232">
        <ele>917</ele>
        <time>2022-07-30T22:31:07.000Z</time>
      </trkpt>
      <trkpt lat="45.5899" lon="2.72324">
        <ele>917</ele>
        <time>2022-07-30T22:31:08.000Z</time>
      </trkpt>
      <trkpt lat="45.58987" lon="2.72328">
        <ele>917</ele>
        <time>2022-07-30T22:31:09.000Z</time>
      </trkpt>
      <trkpt lat="45.58983" lon="2.72332">
        <ele>917</ele>
        <time>2022-07-30T22:31:10.000Z</time>
      </trkpt>
      <trkpt lat="45.58979" lon="2.72336">
        <ele>917</ele>
        <time>2022-07-30T22:31:11.000Z</time>
      </trkpt>
      <trkpt lat="45.58976" lon="2.7234">
        <ele>917</ele>
        <time>2022-07-30T22:31:12.000Z</time>
      </trkpt>
      <trkpt lat="45.58972" lon="2.72344">
        <ele>917</ele>
        <time>2022-07-30T22:31:13.000Z</time>
      </trkpt>
      <trkpt lat="45.58969" lon="2.72348">
        <ele>917</ele>
        <time>2022-07-30T22:31:14.000Z</time>
      </trkpt>
      <trkpt lat="45.58965" lon="2.72352">
        <ele>917</ele>
        <time>2022-07-30T22:31:15.000Z</time>
      </trkpt>
      <trkpt lat="45.58961" lon="2.72356">
        <ele>917</ele>
        <time>2022-07-30T22:31:16.000Z</time>
      </trkpt>
      <trkpt lat="45.58957" lon="2.7236">
        <ele>917</ele>
        <time>2022-07-30T22:31:17.000Z</time>
      </trkpt>
      <trkpt lat="45.58954" lon="2.72365">
        <ele>917</ele>
        <time>2022-07-30T22:31:18.000Z</time>
      </trkpt>
      <trkpt lat="45.5895" lon="2.72369">
        <ele>917</ele>
        <time>2022-07-30T22:31:19.000Z</time>
      </trkpt>
      <trkpt lat="45.58946" lon="2.72373">
        <ele>905</ele>
        <time>2022-07-30T22:31:20.000Z</time>
      </trkpt>
      <trkpt lat="45.58942" lon="2.72377">
        <ele>905</ele>
        <time>2022-07-30T22:31:21.000Z</time>
      </trkpt>
      <trkpt lat="45.58938" lon="2.72381">
        <ele>905</ele>
        <time>2022-07-30T22:31:22.000Z</time>
      </trkpt>
      <trkpt lat="45.58934" lon="2.72384">
        <ele>905</ele>
        <time>2022-07-30T22:31:23.000Z</time>
      </trkpt>
      <trkpt lat="45.5893" lon="2.72388">
        <ele>905</ele>
        <time>2022-07-30T22:31:24.000Z</time>
      </trkpt>
      <trkpt lat="45.58926" lon="2.72391">
        <ele>905</ele>
        <time>2022-07-30T22:31:25.000Z</time>
      </trkpt>
      <trkpt lat="45.58922" lon="2.72394">
        <ele>905</ele>
        <time>2022-07-30T22:31:26.000Z</time>
      </trkpt>
      <trkpt lat="45.58919" lon="2.72398">
        <ele>905</ele>
        <time>2022-07-30T22:31:27.000Z</time>
      </trkpt>
      <trkpt lat="45.58915" lon="2.72402">
        <ele>905</ele>
        <time>2022-07-30T22:31:28.000Z</time>
      </trkpt>
      <trkpt lat="45.58911" lon="2.72406">
        <ele>905</ele>
        <time>2022-07-30T22:31:29.000Z</time>
      </trkpt>
      <trkpt lat="45.58907" lon="2.7241">
        <ele>905</ele>
        <time>2022-07-30T22:31:30.000Z</time>
      </trkpt>
      <trkpt lat="45.58903" lon="2.72414">
        <ele>936</ele>
        <time>2022-07-30T22:31:31.000Z</time>
      </trkpt>
      <trkpt lat="45.58901" lon="2.7242">
        <ele>924</ele>
        <time>2022-07-30T22:31:32.000Z</time>
      </trkpt>
      <trkpt lat="45.589" lon="2.72426">
        <ele>924</ele>
        <time>2022-07-30T22:31:33.000Z</time>
      </trkpt>
      <trkpt lat="45.58898" lon="2.72433">
        <ele>924</ele>
        <time>2022-07-30T22:31:34.000Z</time>
      </trkpt>
      <trkpt lat="45.58896" lon="2.72439">
        <ele>924</ele>
        <time>2022-07-30T22:31:35.000Z</time>
      </trkpt>
      <trkpt lat="45.58894" lon="2.72445">
        <ele>924</ele>
        <time>2022-07-30T22:31:36.000Z</time>
      </trkpt>
      <trkpt lat="45.58893" lon="2.72452">
        <ele>924</ele>
        <time>2022-07-30T22:31:37.000Z</time>
      </trkpt>
      <trkpt lat="45.58891" lon="2.72459">
        <ele>924</ele>
        <time>2022-07-30T22:31:38.000Z</time>
      </trkpt>
      <trkpt lat="45.5889" lon="2.72466">
        <ele>924</ele>
        <time>2022-07-30T22:31:39.000Z</time>
      </trkpt>
      <trkpt lat="45.58889" lon="2.72473">
        <ele>924</ele>
        <time>2022-07-30T22:31:40.000Z</time>
      </trkpt>
      <trkpt lat="45.58887" lon="2.7248">
        <ele>924</ele>
        <time>2022-07-30T22:31:41.000Z</time>
      </trkpt>
      <trkpt lat="45.58886" lon="2.72486">
        <ele>924</ele>
        <time>2022-07-30T22:31:42.000Z</time>
      </trkpt>
      <trkpt lat="45.58885" lon="2.72492">
        <ele>924</ele>
        <time>2022-07-30T22:31:43.000Z</time>
      </trkpt>
      <trkpt lat="45.58884" lon="2.72498">
        <ele>916</ele>
        <time>2022-07-30T22:31:44.000Z</time>
      </trkpt>
      <trkpt lat="45.58883" lon="2.72505">
        <ele>916</ele>
        <time>2022-07-30T22:31:45.000Z</time>
      </trkpt>
      <trkpt lat="45.58882" lon="2.72511">
        <ele>916</ele>
        <time>2022-07-30T22:31:46.000Z</time>
      </trkpt>
      <trkpt lat="45.58881" lon="2.72517">
        <ele>916</ele>
        <time>2022-07-30T22:31:47.000Z</time>
      </trkpt>
      <trkpt lat="45.58879" lon="2.72524">
        <ele>916</ele>
        <time>2022-07-30T22:31:48.000Z</time>
      </trkpt>
      <trkpt lat="45.58878" lon="2.7253">
        <ele>916</ele>
        <time>2022-07-30T22:31:49.000Z</time>
      </trkpt>
      <trkpt lat="45.58877" lon="2.72536">
        <ele>916</ele>
        <time>2022-07-30T22:31:50.000Z</time>
      </trkpt>
      <trkpt lat="45.58876" lon="2.72542">
        <ele>916</ele>
        <time>2022-07-30T22:31:51.000Z</time>
      </trkpt>
      <trkpt lat="45.58875" lon="2.72549">
        <ele>916</ele>
        <time>2022-07-30T22:31:52.000Z</time>
      </trkpt>
      <trkpt lat="45.58874" lon="2.72555">
        <ele>916</ele>
        <time>2022-07-30T22:31:53.000Z</time>
      </trkpt>
      <trkpt lat="45.58873" lon="2.72561">
        <ele>916</ele>
        <time>2022-07-30T22:31:54.000Z</time>
      </trkpt>
      <trkpt lat="45.58872" lon="2.72567">
        <ele>916</ele>
        <time>2022-07-30T22:31:55.000Z</time>
      </trkpt>
      <trkpt lat="45.5887" lon="2.72574">
        <ele>905</ele>
        <time>2022-07-30T22:31:56.000Z</time>
      </trkpt>
      <trkpt lat="45.58869" lon="2.7258">
        <ele>905</ele>
        <time>2022-07-30T22:31:57.000Z</time>
      </trkpt>
      <trkpt lat="45.58868" lon="2.72586">
        <ele>905</ele>
        <time>2022-07-30T22:31:58.000Z</time>
      </trkpt>
      <trkpt lat="45.58867" lon="2.72592">
        <ele>905</ele>
        <time>2022-07-30T22:31:59.000Z</time>
      </trkpt>
      <trkpt lat="45.58866" lon="2.72599">
        <ele>905</ele>
        <time>2022-07-30T22:32:00.000Z</time>
      </trkpt>
      <trkpt lat="45.58865" lon="2.72605">
        <ele>905</ele>
        <time>2022-07-30T22:32:01.000Z</time>
      </trkpt>
      <trkpt lat="45.58864" lon="2.72611">
        <ele>905</ele>
        <time>2022-07-30T22:32:02.000Z</time>
      </trkpt>
      <trkpt lat="45.58863" lon="2.72617">
        <ele>905</ele>
        <time>2022-07-30T22:32:03.000Z</time>
      </trkpt>
      <trkpt lat="45.58861" lon="2.72624">
        <ele>905</ele>
        <time>2022-07-30T22:32:04.000Z</time>
      </trkpt>
      <trkpt lat="45.5886" lon="2.7263">
        <ele>905</ele>
        <time>2022-07-30T22:32:05.000Z</time>
      </trkpt>
      <trkpt lat="45.58859" lon="2.72636">
        <ele>905</ele>
        <time>2022-07-30T22:32:06.000Z</time>
      </trkpt>
      <trkpt lat="45.58858" lon="2.72642">
        <ele>905</ele>
        <time>2022-07-30T22:32:07.000Z</time>
      </trkpt>
      <trkpt lat="45.58857" lon="2.72649">
        <ele>905</ele>
        <time>2022-07-30T22:32:08.000Z</time>
      </trkpt>
      <trkpt lat="45.58855" lon="2.72655">
        <ele>905</ele>
        <time>2022-07-30T22:32:09.000Z</time>
      </trkpt>
      <trkpt lat="45.58853" lon="2.72661">
        <ele>891</ele>
        <time>2022-07-30T22:32:10.000Z</time>
      </trkpt>
      <trkpt lat="45.58852" lon="2.72667">
        <ele>891</ele>
        <time>2022-07-30T22:32:11.000Z</time>
      </trkpt>
      <trkpt lat="45.5885" lon="2.72673">
        <ele>891</ele>
        <time>2022-07-30T22:32:12.000Z</time>
      </trkpt>
      <trkpt lat="45.58848" lon="2.72679">
        <ele>900</ele>
        <time>2022-07-30T22:32:13.000Z</time>
      </trkpt>
      <trkpt lat="45.58846" lon="2.72685">
        <ele>900</ele>
        <time>2022-07-30T22:32:14.000Z</time>
      </trkpt>
      <trkpt lat="45.58844" lon="2.72691">
        <ele>900</ele>
        <time>2022-07-30T22:32:15.000Z</time>
      </trkpt>
      <trkpt lat="45.58843" lon="2.72697">
        <ele>900</ele>
        <time>2022-07-30T22:32:16.000Z</time>
      </trkpt>
      <trkpt lat="45.58841" lon="2.72703">
        <ele>900</ele>
        <time>2022-07-30T22:32:17.000Z</time>
      </trkpt>
      <trkpt lat="45.58839" lon="2.72709">
        <ele>900</ele>
        <time>2022-07-30T22:32:18.000Z</time>
      </trkpt>
      <trkpt lat="45.58837" lon="2.72715">
        <ele>900</ele>
        <time>2022-07-30T22:32:19.000Z</time>
      </trkpt>
      <trkpt lat="45.58835" lon="2.72721">
        <ele>900</ele>
        <time>2022-07-30T22:32:20.000Z</time>
      </trkpt>
      <trkpt lat="45.58833" lon="2.72727">
        <ele>900</ele>
        <time>2022-07-30T22:32:21.000Z</time>
      </trkpt>
      <trkpt lat="45.5883" lon="2.72733">
        <ele>900</ele>
        <time>2022-07-30T22:32:22.000Z</time>
      </trkpt>
      <trkpt lat="45.58827" lon="2.72738">
        <ele>900</ele>
        <time>2022-07-30T22:32:23.000Z</time>
      </trkpt>
      <trkpt lat="45.58825" lon="2.72744">
        <ele>900</ele>
        <time>2022-07-30T22:32:24.000Z</time>
      </trkpt>
      <trkpt lat="45.58821" lon="2.72749">
        <ele>900</ele>
        <time>2022-07-30T22:32:25.000Z</time>
      </trkpt>
      <trkpt lat="45.58817" lon="2.72754">
        <ele>900</ele>
        <time>2022-07-30T22:32:26.000Z</time>
      </trkpt>
      <trkpt lat="45.58813" lon="2.72758">
        <ele>900</ele>
        <time>2022-07-30T22:32:27.000Z</time>
      </trkpt>
      <trkpt lat="45.58809" lon="2.72763">
        <ele>896</ele>
        <time>2022-07-30T22:32:28.000Z</time>
      </trkpt>
      <trkpt lat="45.58805" lon="2.72766">
        <ele>896</ele>
        <time>2022-07-30T22:32:29.000Z</time>
      </trkpt>
      <trkpt lat="45.588" lon="2.72768">
        <ele>896</ele>
        <time>2022-07-30T22:32:30.000Z</time>
      </trkpt>
      <trkpt lat="45.58796" lon="2.72771">
        <ele>896</ele>
        <time>2022-07-30T22:32:31.000Z</time>
      </trkpt>
      <trkpt lat="45.58792" lon="2.72774">
        <ele>896</ele>
        <time>2022-07-30T22:32:32.000Z</time>
      </trkpt>
      <trkpt lat="45.58787" lon="2.72777">
        <ele>896</ele>
        <time>2022-07-30T22:32:33.000Z</time>
      </trkpt>
      <trkpt lat="45.58783" lon="2.72779">
        <ele>896</ele>
        <time>2022-07-30T22:32:34.000Z</time>
      </trkpt>
      <trkpt lat="45.58776" lon="2.72785">
        <ele>896</ele>
        <time>2022-07-30T22:32:35.000Z</time>
      </trkpt>
      <trkpt lat="45.58772" lon="2.72795">
        <ele>896</ele>
        <time>2022-07-30T22:32:36.000Z</time>
      </trkpt>
      <trkpt lat="45.58771" lon="2.72803">
        <ele>896</ele>
        <time>2022-07-30T22:32:37.000Z</time>
      </trkpt>
      <trkpt lat="45.58771" lon="2.72812">
        <ele>896</ele>
        <time>2022-07-30T22:32:38.000Z</time>
      </trkpt>
      <trkpt lat="45.5877" lon="2.7282">
        <ele>896</ele>
        <time>2022-07-30T22:32:39.000Z</time>
      </trkpt>
      <trkpt lat="45.58773" lon="2.72829">
        <ele>896</ele>
        <time>2022-07-30T22:32:40.000Z</time>
      </trkpt>
      <trkpt lat="45.58773" lon="2.72832">
        <ele>896</ele>
        <time>2022-07-30T22:32:41.000Z</time>
      </trkpt>
      <trkpt lat="45.58775" lon="2.72837">
        <ele>896</ele>
        <time>2022-07-30T22:32:42.000Z</time>
      </trkpt>
      <trkpt lat="45.58778" lon="2.72843">
        <ele>896</ele>
        <time>2022-07-30T22:32:43.000Z</time>
      </trkpt>
      <trkpt lat="45.58781" lon="2.72848">
        <ele>890</ele>
        <time>2022-07-30T22:32:44.000Z</time>
      </trkpt>
      <trkpt lat="45.58784" lon="2.72854">
        <ele>890</ele>
        <time>2022-07-30T22:32:45.000Z</time>
      </trkpt>
      <trkpt lat="45.58787" lon="2.72859">
        <ele>890</ele>
        <time>2022-07-30T22:32:46.000Z</time>
      </trkpt>
      <trkpt lat="45.5879" lon="2.72864">
        <ele>890</ele>
        <time>2022-07-30T22:32:47.000Z</time>
      </trkpt>
      <trkpt lat="45.58793" lon="2.72874">
        <ele>890</ele>
        <time>2022-07-30T22:32:48.000Z</time>
      </trkpt>
      <trkpt lat="45.58793" lon="2.72879">
        <ele>890</ele>
        <time>2022-07-30T22:32:49.000Z</time>
      </trkpt>
      <trkpt lat="45.58793" lon="2.72885">
        <ele>890</ele>
        <time>2022-07-30T22:32:50.000Z</time>
      </trkpt>
      <trkpt lat="45.58789" lon="2.72895">
        <ele>890</ele>
        <time>2022-07-30T22:32:51.000Z</time>
      </trkpt>
      <trkpt lat="45.58786" lon="2.729">
        <ele>890</ele>
        <time>2022-07-30T22:32:52.000Z</time>
      </trkpt>
      <trkpt lat="45.58783" lon="2.72905">
        <ele>890</ele>
        <time>2022-07-30T22:32:53.000Z</time>
      </trkpt>
      <trkpt lat="45.58779" lon="2.72909">
        <ele>890</ele>
        <time>2022-07-30T22:32:54.000Z</time>
      </trkpt>
      <trkpt lat="45.58775" lon="2.72913">
        <ele>890</ele>
        <time>2022-07-30T22:32:55.000Z</time>
      </trkpt>
      <trkpt lat="45.58771" lon="2.72917">
        <ele>890</ele>
        <time>2022-07-30T22:32:56.000Z</time>
      </trkpt>
      <trkpt lat="45.58767" lon="2.72921">
        <ele>890</ele>
        <time>2022-07-30T22:32:57.000Z</time>
      </trkpt>
      <trkpt lat="45.58763" lon="2.72924">
        <ele>890</ele>
        <time>2022-07-30T22:32:58.000Z</time>
      </trkpt>
      <trkpt lat="45.58758" lon="2.72928">
        <ele>890</ele>
        <time>2022-07-30T22:32:59.000Z</time>
      </trkpt>
      <trkpt lat="45.58755" lon="2.72934">
        <ele>904</ele>
        <time>2022-07-30T22:33:00.000Z</time>
      </trkpt>
      <trkpt lat="45.58751" lon="2.72939">
        <ele>904</ele>
        <time>2022-07-30T22:33:01.000Z</time>
      </trkpt>
      <trkpt lat="45.58748" lon="2.72944">
        <ele>904</ele>
        <time>2022-07-30T22:33:02.000Z</time>
      </trkpt>
      <trkpt lat="45.58744" lon="2.72949">
        <ele>904</ele>
        <time>2022-07-30T22:33:03.000Z</time>
      </trkpt>
      <trkpt lat="45.5874" lon="2.72955">
        <ele>904</ele>
        <time>2022-07-30T22:33:04.000Z</time>
      </trkpt>
      <trkpt lat="45.58738" lon="2.7296">
        <ele>904</ele>
        <time>2022-07-30T22:33:05.000Z</time>
      </trkpt>
      <trkpt lat="45.58736" lon="2.72966">
        <ele>904</ele>
        <time>2022-07-30T22:33:06.000Z</time>
      </trkpt>
      <trkpt lat="45.58733" lon="2.72971">
        <ele>904</ele>
        <time>2022-07-30T22:33:07.000Z</time>
      </trkpt>
      <trkpt lat="45.58731" lon="2.72977">
        <ele>904</ele>
        <time>2022-07-30T22:33:08.000Z</time>
      </trkpt>
      <trkpt lat="45.58729" lon="2.72982">
        <ele>904</ele>
        <time>2022-07-30T22:33:09.000Z</time>
      </trkpt>
      <trkpt lat="45.58726" lon="2.72988">
        <ele>904</ele>
        <time>2022-07-30T22:33:10.000Z</time>
      </trkpt>
      <trkpt lat="45.58724" lon="2.72993">
        <ele>904</ele>
        <time>2022-07-30T22:33:11.000Z</time>
      </trkpt>
      <trkpt lat="45.58722" lon="2.72999">
        <ele>889</ele>
        <time>2022-07-30T22:33:12.000Z</time>
      </trkpt>
      <trkpt lat="45.58719" lon="2.73005">
        <ele>865</ele>
        <time>2022-07-30T22:33:13.000Z</time>
      </trkpt>
      <trkpt lat="45.58717" lon="2.73011">
        <ele>865</ele>
        <time>2022-07-30T22:33:14.000Z</time>
      </trkpt>
      <trkpt lat="45.58715" lon="2.73017">
        <ele>865</ele>
        <time>2022-07-30T22:33:15.000Z</time>
      </trkpt>
      <trkpt lat="45.58713" lon="2.73023">
        <ele>865</ele>
        <time>2022-07-30T22:33:16.000Z</time>
      </trkpt>
      <trkpt lat="45.58712" lon="2.7303">
        <ele>865</ele>
        <time>2022-07-30T22:33:17.000Z</time>
      </trkpt>
      <trkpt lat="45.58712" lon="2.73037">
        <ele>865</ele>
        <time>2022-07-30T22:33:18.000Z</time>
      </trkpt>
      <trkpt lat="45.58711" lon="2.73044">
        <ele>865</ele>
        <time>2022-07-30T22:33:19.000Z</time>
      </trkpt>
      <trkpt lat="45.58712" lon="2.73051">
        <ele>865</ele>
        <time>2022-07-30T22:33:20.000Z</time>
      </trkpt>
      <trkpt lat="45.58713" lon="2.73057">
        <ele>865</ele>
        <time>2022-07-30T22:33:21.000Z</time>
      </trkpt>
      <trkpt lat="45.58714" lon="2.73064">
        <ele>865</ele>
        <time>2022-07-30T22:33:22.000Z</time>
      </trkpt>
      <trkpt lat="45.58715" lon="2.73071">
        <ele>865</ele>
        <time>2022-07-30T22:33:23.000Z</time>
      </trkpt>
      <trkpt lat="45.58716" lon="2.73077">
        <ele>865</ele>
        <time>2022-07-30T22:33:24.000Z</time>
      </trkpt>
      <trkpt lat="45.58717" lon="2.73084">
        <ele>865</ele>
        <time>2022-07-30T22:33:25.000Z</time>
      </trkpt>
      <trkpt lat="45.58718" lon="2.7309">
        <ele>865</ele>
        <time>2022-07-30T22:33:26.000Z</time>
      </trkpt>
      <trkpt lat="45.58719" lon="2.73097">
        <ele>861</ele>
        <time>2022-07-30T22:33:27.000Z</time>
      </trkpt>
      <trkpt lat="45.5872" lon="2.73103">
        <ele>861</ele>
        <time>2022-07-30T22:33:28.000Z</time>
      </trkpt>
      <trkpt lat="45.58721" lon="2.7311">
        <ele>861</ele>
        <time>2022-07-30T22:33:29.000Z</time>
      </trkpt>
      <trkpt lat="45.58722" lon="2.73117">
        <ele>861</ele>
        <time>2022-07-30T22:33:30.000Z</time>
      </trkpt>
      <trkpt lat="45.58723" lon="2.73124">
        <ele>861</ele>
        <time>2022-07-30T22:33:31.000Z</time>
      </trkpt>
      <trkpt lat="45.58724" lon="2.73131">
        <ele>861</ele>
        <time>2022-07-30T22:33:32.000Z</time>
      </trkpt>
      <trkpt lat="45.58725" lon="2.73137">
        <ele>861</ele>
        <time>2022-07-30T22:33:33.000Z</time>
      </trkpt>
      <trkpt lat="45.58726" lon="2.73144">
        <ele>861</ele>
        <time>2022-07-30T22:33:34.000Z</time>
      </trkpt>
      <trkpt lat="45.58727" lon="2.7315">
        <ele>861</ele>
        <time>2022-07-30T22:33:35.000Z</time>
      </trkpt>
      <trkpt lat="45.58728" lon="2.73157">
        <ele>861</ele>
        <time>2022-07-30T22:33:36.000Z</time>
      </trkpt>
      <trkpt lat="45.58728" lon="2.73158">
        <ele>881</ele>
        <time>2022-07-30T22:33:37.000Z</time>
      </trkpt>
      <trkpt lat="45.58728" lon="2.73166">
        <ele>881</ele>
        <time>2022-07-30T22:33:38.000Z</time>
      </trkpt>
      <trkpt lat="45.58728" lon="2.73173">
        <ele>881</ele>
        <time>2022-07-30T22:33:39.000Z</time>
      </trkpt>
      <trkpt lat="45.58728" lon="2.73179">
        <ele>881</ele>
        <time>2022-07-30T22:33:40.000Z</time>
      </trkpt>
      <trkpt lat="45.58725" lon="2.7319">
        <ele>875</ele>
        <time>2022-07-30T22:33:41.000Z</time>
      </trkpt>
      <trkpt lat="45.58725" lon="2.73191">
        <ele>875</ele>
        <time>2022-07-30T22:33:42.000Z</time>
      </trkpt>
      <trkpt lat="45.58723" lon="2.73199">
        <ele>875</ele>
        <time>2022-07-30T22:33:43.000Z</time>
      </trkpt>
      <trkpt lat="45.5872" lon="2.73208">
        <ele>875</ele>
        <time>2022-07-30T22:33:44.000Z</time>
      </trkpt>
      <trkpt lat="45.5872" lon="2.73215">
        <ele>875</ele>
        <time>2022-07-30T22:33:45.000Z</time>
      </trkpt>
      <trkpt lat="45.58719" lon="2.73222">
        <ele>875</ele>
        <time>2022-07-30T22:33:46.000Z</time>
      </trkpt>
      <trkpt lat="45.58718" lon="2.73229">
        <ele>875</ele>
        <time>2022-07-30T22:33:47.000Z</time>
      </trkpt>
      <trkpt lat="45.58717" lon="2.73236">
        <ele>875</ele>
        <time>2022-07-30T22:33:48.000Z</time>
      </trkpt>
      <trkpt lat="45.58715" lon="2.73242">
        <ele>875</ele>
        <time>2022-07-30T22:33:49.000Z</time>
      </trkpt>
      <trkpt lat="45.58713" lon="2.73248">
        <ele>875</ele>
        <time>2022-07-30T22:33:50.000Z</time>
      </trkpt>
      <trkpt lat="45.58712" lon="2.73255">
        <ele>875</ele>
        <time>2022-07-30T22:33:51.000Z</time>
      </trkpt>
      <trkpt lat="45.5871" lon="2.73261">
        <ele>875</ele>
        <time>2022-07-30T22:33:52.000Z</time>
      </trkpt>
      <trkpt lat="45.58708" lon="2.73267">
        <ele>875</ele>
        <time>2022-07-30T22:33:53.000Z</time>
      </trkpt>
      <trkpt lat="45.58706" lon="2.73273">
        <ele>858</ele>
        <time>2022-07-30T22:33:54.000Z</time>
      </trkpt>
      <trkpt lat="45.58704" lon="2.73279">
        <ele>858</ele>
        <time>2022-07-30T22:33:55.000Z</time>
      </trkpt>
      <trkpt lat="45.58702" lon="2.73285">
        <ele>858</ele>
        <time>2022-07-30T22:33:56.000Z</time>
      </trkpt>
      <trkpt lat="45.587" lon="2.73293">
        <ele>858</ele>
        <time>2022-07-30T22:33:57.000Z</time>
      </trkpt>
      <trkpt lat="45.58698" lon="2.733">
        <ele>858</ele>
        <time>2022-07-30T22:33:58.000Z</time>
      </trkpt>
      <trkpt lat="45.58695" lon="2.73307">
        <ele>858</ele>
        <time>2022-07-30T22:33:59.000Z</time>
      </trkpt>
      <trkpt lat="45.58693" lon="2.73314">
        <ele>858</ele>
        <time>2022-07-30T22:34:00.000Z</time>
      </trkpt>
      <trkpt lat="45.58691" lon="2.73321">
        <ele>858</ele>
        <time>2022-07-30T22:34:01.000Z</time>
      </trkpt>
      <trkpt lat="45.58689" lon="2.73328">
        <ele>858</ele>
        <time>2022-07-30T22:34:02.000Z</time>
      </trkpt>
      <trkpt lat="45.58686" lon="2.73336">
        <ele>858</ele>
        <time>2022-07-30T22:34:03.000Z</time>
      </trkpt>
      <trkpt lat="45.58684" lon="2.73341">
        <ele>858</ele>
        <time>2022-07-30T22:34:04.000Z</time>
      </trkpt>
      <trkpt lat="45.58682" lon="2.73347">
        <ele>858</ele>
        <time>2022-07-30T22:34:05.000Z</time>
      </trkpt>
      <trkpt lat="45.5868" lon="2.73353">
        <ele>858</ele>
        <time>2022-07-30T22:34:06.000Z</time>
      </trkpt>
      <trkpt lat="45.58678" lon="2.73359">
        <ele>858</ele>
        <time>2022-07-30T22:34:07.000Z</time>
      </trkpt>
      <trkpt lat="45.58676" lon="2.73365">
        <ele>858</ele>
        <time>2022-07-30T22:34:08.000Z</time>
      </trkpt>
      <trkpt lat="45.58674" lon="2.7337">
        <ele>851</ele>
        <time>2022-07-30T22:34:09.000Z</time>
      </trkpt>
      <trkpt lat="45.58672" lon="2.73376">
        <ele>851</ele>
        <time>2022-07-30T22:34:10.000Z</time>
      </trkpt>
      <trkpt lat="45.58669" lon="2.73383">
        <ele>851</ele>
        <time>2022-07-30T22:34:11.000Z</time>
      </trkpt>
      <trkpt lat="45.58666" lon="2.7339">
        <ele>851</ele>
        <time>2022-07-30T22:34:12.000Z</time>
      </trkpt>
      <trkpt lat="45.58664" lon="2.73397">
        <ele>851</ele>
        <time>2022-07-30T22:34:13.000Z</time>
      </trkpt>
      <trkpt lat="45.58662" lon="2.73404">
        <ele>851</ele>
        <time>2022-07-30T22:34:14.000Z</time>
      </trkpt>
      <trkpt lat="45.58659" lon="2.7341">
        <ele>851</ele>
        <time>2022-07-30T22:34:15.000Z</time>
      </trkpt>
      <trkpt lat="45.58657" lon="2.73417">
        <ele>851</ele>
        <time>2022-07-30T22:34:16.000Z</time>
      </trkpt>
      <trkpt lat="45.58655" lon="2.73423">
        <ele>851</ele>
        <time>2022-07-30T22:34:17.000Z</time>
      </trkpt>
      <trkpt lat="45.58654" lon="2.73435">
        <ele>851</ele>
        <time>2022-07-30T22:34:18.000Z</time>
      </trkpt>
      <trkpt lat="45.58653" lon="2.73446">
        <ele>851</ele>
        <time>2022-07-30T22:34:19.000Z</time>
      </trkpt>
      <trkpt lat="45.58653" lon="2.73455">
        <ele>857</ele>
        <time>2022-07-30T22:34:20.000Z</time>
      </trkpt>
      <trkpt lat="45.58653" lon="2.73463">
        <ele>857</ele>
        <time>2022-07-30T22:34:21.000Z</time>
      </trkpt>
      <trkpt lat="45.58654" lon="2.73472">
        <ele>857</ele>
        <time>2022-07-30T22:34:22.000Z</time>
      </trkpt>
      <trkpt lat="45.58655" lon="2.73479">
        <ele>857</ele>
        <time>2022-07-30T22:34:23.000Z</time>
      </trkpt>
      <trkpt lat="45.58656" lon="2.73486">
        <ele>857</ele>
        <time>2022-07-30T22:34:24.000Z</time>
      </trkpt>
      <trkpt lat="45.58658" lon="2.73493">
        <ele>857</ele>
        <time>2022-07-30T22:34:25.000Z</time>
      </trkpt>
      <trkpt lat="45.58659" lon="2.735">
        <ele>857</ele>
        <time>2022-07-30T22:34:26.000Z</time>
      </trkpt>
      <trkpt lat="45.5866" lon="2.73507">
        <ele>857</ele>
        <time>2022-07-30T22:34:27.000Z</time>
      </trkpt>
      <trkpt lat="45.58663" lon="2.73513">
        <ele>857</ele>
        <time>2022-07-30T22:34:28.000Z</time>
      </trkpt>
      <trkpt lat="45.58665" lon="2.73519">
        <ele>857</ele>
        <time>2022-07-30T22:34:29.000Z</time>
      </trkpt>
      <trkpt lat="45.58667" lon="2.73526">
        <ele>857</ele>
        <time>2022-07-30T22:34:30.000Z</time>
      </trkpt>
      <trkpt lat="45.58671" lon="2.7353">
        <ele>857</ele>
        <time>2022-07-30T22:34:31.000Z</time>
      </trkpt>
      <trkpt lat="45.58674" lon="2.73535">
        <ele>857</ele>
        <time>2022-07-30T22:34:32.000Z</time>
      </trkpt>
      <trkpt lat="45.58677" lon="2.7354">
        <ele>857</ele>
        <time>2022-07-30T22:34:33.000Z</time>
      </trkpt>
      <trkpt lat="45.5868" lon="2.73544">
        <ele>857</ele>
        <time>2022-07-30T22:34:34.000Z</time>
      </trkpt>
      <trkpt lat="45.58684" lon="2.73549">
        <ele>857</ele>
        <time>2022-07-30T22:34:35.000Z</time>
      </trkpt>
      <trkpt lat="45.58687" lon="2.73554">
        <ele>857</ele>
        <time>2022-07-30T22:34:36.000Z</time>
      </trkpt>
      <trkpt lat="45.58691" lon="2.73559">
        <ele>863</ele>
        <time>2022-07-30T22:34:37.000Z</time>
      </trkpt>
      <trkpt lat="45.58695" lon="2.73565">
        <ele>863</ele>
        <time>2022-07-30T22:34:38.000Z</time>
      </trkpt>
      <trkpt lat="45.58699" lon="2.7357">
        <ele>853</ele>
        <time>2022-07-30T22:34:39.000Z</time>
      </trkpt>
      <trkpt lat="45.58702" lon="2.73575">
        <ele>853</ele>
        <time>2022-07-30T22:34:40.000Z</time>
      </trkpt>
      <trkpt lat="45.58706" lon="2.7358">
        <ele>853</ele>
        <time>2022-07-30T22:34:41.000Z</time>
      </trkpt>
      <trkpt lat="45.58709" lon="2.73584">
        <ele>853</ele>
        <time>2022-07-30T22:34:42.000Z</time>
      </trkpt>
      <trkpt lat="45.58713" lon="2.73589">
        <ele>853</ele>
        <time>2022-07-30T22:34:43.000Z</time>
      </trkpt>
      <trkpt lat="45.58716" lon="2.73593">
        <ele>853</ele>
        <time>2022-07-30T22:34:44.000Z</time>
      </trkpt>
      <trkpt lat="45.58719" lon="2.73598">
        <ele>853</ele>
        <time>2022-07-30T22:34:45.000Z</time>
      </trkpt>
      <trkpt lat="45.58723" lon="2.73603">
        <ele>853</ele>
        <time>2022-07-30T22:34:46.000Z</time>
      </trkpt>
      <trkpt lat="45.58727" lon="2.73608">
        <ele>853</ele>
        <time>2022-07-30T22:34:47.000Z</time>
      </trkpt>
      <trkpt lat="45.58731" lon="2.73613">
        <ele>853</ele>
        <time>2022-07-30T22:34:48.000Z</time>
      </trkpt>
      <trkpt lat="45.58735" lon="2.73618">
        <ele>853</ele>
        <time>2022-07-30T22:34:49.000Z</time>
      </trkpt>
      <trkpt lat="45.5874" lon="2.73624">
        <ele>853</ele>
        <time>2022-07-30T22:34:50.000Z</time>
      </trkpt>
      <trkpt lat="45.58741" lon="2.73625">
        <ele>853</ele>
        <time>2022-07-30T22:34:51.000Z</time>
      </trkpt>
      <trkpt lat="45.58745" lon="2.7363">
        <ele>853</ele>
        <time>2022-07-30T22:34:52.000Z</time>
      </trkpt>
      <trkpt lat="45.58745" lon="2.73637">
        <ele>853</ele>
        <time>2022-07-30T22:34:53.000Z</time>
      </trkpt>
      <trkpt lat="45.58746" lon="2.73643">
        <ele>853</ele>
        <time>2022-07-30T22:34:54.000Z</time>
      </trkpt>
      <trkpt lat="45.58748" lon="2.73649">
        <ele>852</ele>
        <time>2022-07-30T22:34:55.000Z</time>
      </trkpt>
      <trkpt lat="45.5875" lon="2.73655">
        <ele>852</ele>
        <time>2022-07-30T22:34:56.000Z</time>
      </trkpt>
      <trkpt lat="45.58752" lon="2.73661">
        <ele>852</ele>
        <time>2022-07-30T22:34:57.000Z</time>
      </trkpt>
      <trkpt lat="45.58754" lon="2.73667">
        <ele>852</ele>
        <time>2022-07-30T22:34:58.000Z</time>
      </trkpt>
      <trkpt lat="45.58756" lon="2.73672">
        <ele>852</ele>
        <time>2022-07-30T22:34:59.000Z</time>
      </trkpt>
      <trkpt lat="45.58757" lon="2.73679">
        <ele>852</ele>
        <time>2022-07-30T22:35:00.000Z</time>
      </trkpt>
      <trkpt lat="45.58759" lon="2.73685">
        <ele>852</ele>
        <time>2022-07-30T22:35:01.000Z</time>
      </trkpt>
      <trkpt lat="45.5876" lon="2.73692">
        <ele>852</ele>
        <time>2022-07-30T22:35:02.000Z</time>
      </trkpt>
      <trkpt lat="45.58762" lon="2.73699">
        <ele>852</ele>
        <time>2022-07-30T22:35:03.000Z</time>
      </trkpt>
      <trkpt lat="45.58762" lon="2.73706">
        <ele>852</ele>
        <time>2022-07-30T22:35:04.000Z</time>
      </trkpt>
      <trkpt lat="45.58763" lon="2.73714">
        <ele>852</ele>
        <time>2022-07-30T22:35:05.000Z</time>
      </trkpt>
      <trkpt lat="45.58764" lon="2.73722">
        <ele>852</ele>
        <time>2022-07-30T22:35:06.000Z</time>
      </trkpt>
      <trkpt lat="45.58764" lon="2.73729">
        <ele>852</ele>
        <time>2022-07-30T22:35:07.000Z</time>
      </trkpt>
      <trkpt lat="45.58764" lon="2.73731">
        <ele>852</ele>
        <time>2022-07-30T22:35:08.000Z</time>
      </trkpt>
      <trkpt lat="45.58764" lon="2.73733">
        <ele>852</ele>
        <time>2022-07-30T22:35:09.000Z</time>
      </trkpt>
      <trkpt lat="45.58764" lon="2.73739">
        <ele>852</ele>
        <time>2022-07-30T22:35:10.000Z</time>
      </trkpt>
      <trkpt lat="45.58765" lon="2.73746">
        <ele>852</ele>
        <time>2022-07-30T22:35:11.000Z</time>
      </trkpt>
      <trkpt lat="45.58765" lon="2.73752">
        <ele>852</ele>
        <time>2022-07-30T22:35:12.000Z</time>
      </trkpt>
      <trkpt lat="45.58765" lon="2.73759">
        <ele>852</ele>
        <time>2022-07-30T22:35:13.000Z</time>
      </trkpt>
      <trkpt lat="45.58765" lon="2.73765">
        <ele>852</ele>
        <time>2022-07-30T22:35:14.000Z</time>
      </trkpt>
      <trkpt lat="45.58765" lon="2.73772">
        <ele>852</ele>
        <time>2022-07-30T22:35:15.000Z</time>
      </trkpt>
      <trkpt lat="45.58765" lon="2.73778">
        <ele>852</ele>
        <time>2022-07-30T22:35:16.000Z</time>
      </trkpt>
      <trkpt lat="45.58765" lon="2.73785">
        <ele>852</ele>
        <time>2022-07-30T22:35:17.000Z</time>
      </trkpt>
      <trkpt lat="45.58765" lon="2.73791">
        <ele>852</ele>
        <time>2022-07-30T22:35:18.000Z</time>
      </trkpt>
      <trkpt lat="45.58766" lon="2.73798">
        <ele>852</ele>
        <time>2022-07-30T22:35:19.000Z</time>
      </trkpt>
      <trkpt lat="45.58766" lon="2.73804">
        <ele>852</ele>
        <time>2022-07-30T22:35:20.000Z</time>
      </trkpt>
      <trkpt lat="45.58766" lon="2.73808">
        <ele>852</ele>
        <time>2022-07-30T22:35:21.000Z</time>
      </trkpt>
      <trkpt lat="45.58767" lon="2.73817">
        <ele>852</ele>
        <time>2022-07-30T22:35:22.000Z</time>
      </trkpt>
      <trkpt lat="45.58767" lon="2.73821">
        <ele>852</ele>
        <time>2022-07-30T22:35:23.000Z</time>
      </trkpt>
      <trkpt lat="45.58762" lon="2.73823">
        <ele>852</ele>
        <time>2022-07-30T22:35:24.000Z</time>
      </trkpt>
      <trkpt lat="45.58757" lon="2.73825">
        <ele>852</ele>
        <time>2022-07-30T22:35:25.000Z</time>
      </trkpt>
      <trkpt lat="45.58753" lon="2.73827">
        <ele>852</ele>
        <time>2022-07-30T22:35:26.000Z</time>
      </trkpt>
      <trkpt lat="45.58747" lon="2.7383">
        <ele>852</ele>
        <time>2022-07-30T22:35:27.000Z</time>
      </trkpt>
      <trkpt lat="45.58742" lon="2.73833">
        <ele>856</ele>
        <time>2022-07-30T22:35:28.000Z</time>
      </trkpt>
      <trkpt lat="45.58734" lon="2.73837">
        <ele>856</ele>
        <time>2022-07-30T22:35:29.000Z</time>
      </trkpt>
      <trkpt lat="45.58729" lon="2.7384">
        <ele>856</ele>
        <time>2022-07-30T22:35:30.000Z</time>
      </trkpt>
      <trkpt lat="45.58724" lon="2.73842">
        <ele>856</ele>
        <time>2022-07-30T22:35:31.000Z</time>
      </trkpt>
      <trkpt lat="45.58719" lon="2.73845">
        <ele>856</ele>
        <time>2022-07-30T22:35:32.000Z</time>
      </trkpt>
      <trkpt lat="45.58716" lon="2.73846">
        <ele>856</ele>
        <time>2022-07-30T22:35:33.000Z</time>
      </trkpt>
      <trkpt lat="45.58711" lon="2.73847">
        <ele>856</ele>
        <time>2022-07-30T22:35:34.000Z</time>
      </trkpt>
      <trkpt lat="45.58707" lon="2.73849">
        <ele>856</ele>
        <time>2022-07-30T22:35:35.000Z</time>
      </trkpt>
      <trkpt lat="45.58702" lon="2.7385">
        <ele>856</ele>
        <time>2022-07-30T22:35:36.000Z</time>
      </trkpt>
      <trkpt lat="45.58698" lon="2.73852">
        <ele>856</ele>
        <time>2022-07-30T22:35:37.000Z</time>
      </trkpt>
      <trkpt lat="45.58693" lon="2.73854">
        <ele>856</ele>
        <time>2022-07-30T22:35:38.000Z</time>
      </trkpt>
      <trkpt lat="45.58689" lon="2.73855">
        <ele>856</ele>
        <time>2022-07-30T22:35:39.000Z</time>
      </trkpt>
      <trkpt lat="45.58684" lon="2.73857">
        <ele>856</ele>
        <time>2022-07-30T22:35:40.000Z</time>
      </trkpt>
      <trkpt lat="45.58679" lon="2.73859">
        <ele>856</ele>
        <time>2022-07-30T22:35:41.000Z</time>
      </trkpt>
      <trkpt lat="45.58675" lon="2.7386">
        <ele>856</ele>
        <time>2022-07-30T22:35:42.000Z</time>
      </trkpt>
      <trkpt lat="45.58671" lon="2.73862">
        <ele>856</ele>
        <time>2022-07-30T22:35:43.000Z</time>
      </trkpt>
      <trkpt lat="45.58666" lon="2.73864">
        <ele>856</ele>
        <time>2022-07-30T22:35:44.000Z</time>
      </trkpt>
      <trkpt lat="45.58662" lon="2.73865">
        <ele>856</ele>
        <time>2022-07-30T22:35:45.000Z</time>
      </trkpt>
      <trkpt lat="45.58655" lon="2.73868">
        <ele>856</ele>
        <time>2022-07-30T22:35:46.000Z</time>
      </trkpt>
      <trkpt lat="45.5865" lon="2.73869">
        <ele>856</ele>
        <time>2022-07-30T22:35:47.000Z</time>
      </trkpt>
      <trkpt lat="45.58645" lon="2.73871">
        <ele>856</ele>
        <time>2022-07-30T22:35:48.000Z</time>
      </trkpt>
      <trkpt lat="45.58641" lon="2.73872">
        <ele>856</ele>
        <time>2022-07-30T22:35:49.000Z</time>
      </trkpt>
      <trkpt lat="45.58636" lon="2.73874">
        <ele>856</ele>
        <time>2022-07-30T22:35:50.000Z</time>
      </trkpt>
      <trkpt lat="45.58631" lon="2.73876">
        <ele>863</ele>
        <time>2022-07-30T22:35:51.000Z</time>
      </trkpt>
      <trkpt lat="45.58627" lon="2.73878">
        <ele>863</ele>
        <time>2022-07-30T22:35:52.000Z</time>
      </trkpt>
      <trkpt lat="45.58622" lon="2.7388">
        <ele>863</ele>
        <time>2022-07-30T22:35:53.000Z</time>
      </trkpt>
      <trkpt lat="45.58617" lon="2.73882">
        <ele>863</ele>
        <time>2022-07-30T22:35:54.000Z</time>
      </trkpt>
      <trkpt lat="45.58612" lon="2.73884">
        <ele>863</ele>
        <time>2022-07-30T22:35:55.000Z</time>
      </trkpt>
      <trkpt lat="45.58606" lon="2.73886">
        <ele>863</ele>
        <time>2022-07-30T22:35:56.000Z</time>
      </trkpt>
      <trkpt lat="45.586" lon="2.73889">
        <ele>863</ele>
        <time>2022-07-30T22:35:57.000Z</time>
      </trkpt>
      <trkpt lat="45.58592" lon="2.73892">
        <ele>863</ele>
        <time>2022-07-30T22:35:58.000Z</time>
      </trkpt>
    </trkseg>
  </trk>
</gpx>